<?xml version="1.0" encoding="UTF-8" standalone="no" ?>
<gpx xmlns="http://www.topografix.com/GPX/1/1" xmlns:xsi="http://www.w3.org/2001/XMLSchema-instance" xsi:schemaLocation="http://www.topografix.com/GPX/1/1 http://www.topografix.com/GPX/1/1/gpx.xsd" version="1.1" creator="VisuGPX - https://www.visugpx.com">
  <metadata>
    <name>rando_BEY_Ain</name>
    <desc><![CDATA[Rando cool , pas de dénivellé , très facile ]]></desc>
  </metadata>
  <trk>
    <name><![CDATA[rando_BEY_Ain_1]]></name>
    <trkseg>
      <trkpt lat="46.21938" lon="4.84681">
        <ele>213</ele>
        <time>2017-05-04T12:02:34.000Z</time>
      </trkpt>
      <trkpt lat="46.21938" lon="4.84681">
        <ele>213</ele>
        <time>2017-05-04T12:02:35.000Z</time>
      </trkpt>
      <trkpt lat="46.21938" lon="4.84681">
        <ele>213</ele>
        <time>2017-05-04T12:02:36.000Z</time>
      </trkpt>
      <trkpt lat="46.21938" lon="4.84681">
        <ele>212</ele>
        <time>2017-05-04T12:02:37.000Z</time>
      </trkpt>
      <trkpt lat="46.21939" lon="4.84681">
        <ele>212</ele>
        <time>2017-05-04T12:02:38.000Z</time>
      </trkpt>
      <trkpt lat="46.21939" lon="4.84681">
        <ele>212</ele>
        <time>2017-05-04T12:02:39.000Z</time>
      </trkpt>
      <trkpt lat="46.21939" lon="4.84681">
        <ele>212</ele>
        <time>2017-05-04T12:02:40.000Z</time>
      </trkpt>
      <trkpt lat="46.21939" lon="4.84681">
        <ele>212</ele>
        <time>2017-05-04T12:02:41.000Z</time>
      </trkpt>
      <trkpt lat="46.21939" lon="4.84681">
        <ele>212</ele>
        <time>2017-05-04T12:02:42.000Z</time>
      </trkpt>
      <trkpt lat="46.21939" lon="4.84682">
        <ele>212</ele>
        <time>2017-05-04T12:02:43.000Z</time>
      </trkpt>
      <trkpt lat="46.21939" lon="4.84682">
        <ele>212</ele>
        <time>2017-05-04T12:02:44.000Z</time>
      </trkpt>
      <trkpt lat="46.21939" lon="4.84683">
        <ele>212</ele>
        <time>2017-05-04T12:02:45.000Z</time>
      </trkpt>
      <trkpt lat="46.21938" lon="4.84685">
        <ele>212</ele>
        <time>2017-05-04T12:02:46.000Z</time>
      </trkpt>
      <trkpt lat="46.21938" lon="4.84686">
        <ele>211</ele>
        <time>2017-05-04T12:02:47.000Z</time>
      </trkpt>
      <trkpt lat="46.21938" lon="4.84688">
        <ele>211</ele>
        <time>2017-05-04T12:02:48.000Z</time>
      </trkpt>
      <trkpt lat="46.21938" lon="4.84689">
        <ele>211</ele>
        <time>2017-05-04T12:02:49.000Z</time>
      </trkpt>
      <trkpt lat="46.21937" lon="4.8469">
        <ele>211</ele>
        <time>2017-05-04T12:02:50.000Z</time>
      </trkpt>
      <trkpt lat="46.21937" lon="4.84691">
        <ele>211</ele>
        <time>2017-05-04T12:02:51.000Z</time>
      </trkpt>
      <trkpt lat="46.21937" lon="4.84691">
        <ele>211</ele>
        <time>2017-05-04T12:02:52.000Z</time>
      </trkpt>
      <trkpt lat="46.21937" lon="4.8469">
        <ele>209</ele>
        <time>2017-05-04T12:02:53.000Z</time>
      </trkpt>
      <trkpt lat="46.21938" lon="4.84689">
        <ele>209</ele>
        <time>2017-05-04T12:02:54.000Z</time>
      </trkpt>
      <trkpt lat="46.21938" lon="4.84688">
        <ele>209</ele>
        <time>2017-05-04T12:02:55.000Z</time>
      </trkpt>
      <trkpt lat="46.21939" lon="4.84687">
        <ele>209</ele>
        <time>2017-05-04T12:02:56.000Z</time>
      </trkpt>
      <trkpt lat="46.21939" lon="4.84687">
        <ele>209</ele>
        <time>2017-05-04T12:02:57.000Z</time>
      </trkpt>
      <trkpt lat="46.2194" lon="4.84687">
        <ele>209</ele>
        <time>2017-05-04T12:02:58.000Z</time>
      </trkpt>
      <trkpt lat="46.2194" lon="4.84686">
        <ele>208</ele>
        <time>2017-05-04T12:02:59.000Z</time>
      </trkpt>
      <trkpt lat="46.2194" lon="4.84685">
        <ele>208</ele>
        <time>2017-05-04T12:03:00.000Z</time>
      </trkpt>
      <trkpt lat="46.2194" lon="4.84684">
        <ele>209</ele>
        <time>2017-05-04T12:03:01.000Z</time>
      </trkpt>
      <trkpt lat="46.21939" lon="4.84683">
        <ele>209</ele>
        <time>2017-05-04T12:03:02.000Z</time>
      </trkpt>
      <trkpt lat="46.21939" lon="4.84682">
        <ele>209</ele>
        <time>2017-05-04T12:03:03.000Z</time>
      </trkpt>
      <trkpt lat="46.21939" lon="4.84681">
        <ele>209</ele>
        <time>2017-05-04T12:03:04.000Z</time>
      </trkpt>
      <trkpt lat="46.21939" lon="4.8468">
        <ele>208</ele>
        <time>2017-05-04T12:03:05.000Z</time>
      </trkpt>
      <trkpt lat="46.21938" lon="4.84679">
        <ele>209</ele>
        <time>2017-05-04T12:03:06.000Z</time>
      </trkpt>
      <trkpt lat="46.21938" lon="4.84678">
        <ele>209</ele>
        <time>2017-05-04T12:03:07.000Z</time>
      </trkpt>
      <trkpt lat="46.21938" lon="4.84677">
        <ele>209</ele>
        <time>2017-05-04T12:03:08.000Z</time>
      </trkpt>
      <trkpt lat="46.21938" lon="4.84676">
        <ele>209</ele>
        <time>2017-05-04T12:03:09.000Z</time>
      </trkpt>
      <trkpt lat="46.21938" lon="4.84675">
        <ele>209</ele>
        <time>2017-05-04T12:03:10.000Z</time>
      </trkpt>
      <trkpt lat="46.21937" lon="4.84674">
        <ele>209</ele>
        <time>2017-05-04T12:03:11.000Z</time>
      </trkpt>
      <trkpt lat="46.21937" lon="4.84673">
        <ele>209</ele>
        <time>2017-05-04T12:03:12.000Z</time>
      </trkpt>
      <trkpt lat="46.21937" lon="4.84672">
        <ele>209</ele>
        <time>2017-05-04T12:03:13.000Z</time>
      </trkpt>
      <trkpt lat="46.21937" lon="4.84672">
        <ele>209</ele>
        <time>2017-05-04T12:03:14.000Z</time>
      </trkpt>
      <trkpt lat="46.21936" lon="4.84672">
        <ele>209</ele>
        <time>2017-05-04T12:03:15.000Z</time>
      </trkpt>
      <trkpt lat="46.21937" lon="4.84672">
        <ele>209</ele>
        <time>2017-05-04T12:03:16.000Z</time>
      </trkpt>
      <trkpt lat="46.21937" lon="4.84672">
        <ele>209</ele>
        <time>2017-05-04T12:03:17.000Z</time>
      </trkpt>
      <trkpt lat="46.21937" lon="4.84671">
        <ele>209</ele>
        <time>2017-05-04T12:03:18.000Z</time>
      </trkpt>
      <trkpt lat="46.21937" lon="4.8467">
        <ele>209</ele>
        <time>2017-05-04T12:03:19.000Z</time>
      </trkpt>
      <trkpt lat="46.21936" lon="4.84668">
        <ele>209</ele>
        <time>2017-05-04T12:03:20.000Z</time>
      </trkpt>
      <trkpt lat="46.21936" lon="4.84667">
        <ele>209</ele>
        <time>2017-05-04T12:03:21.000Z</time>
      </trkpt>
      <trkpt lat="46.21936" lon="4.84667">
        <ele>209</ele>
        <time>2017-05-04T12:03:22.000Z</time>
      </trkpt>
      <trkpt lat="46.21936" lon="4.84666">
        <ele>209</ele>
        <time>2017-05-04T12:03:23.000Z</time>
      </trkpt>
      <trkpt lat="46.21936" lon="4.84665">
        <ele>209</ele>
        <time>2017-05-04T12:03:24.000Z</time>
      </trkpt>
      <trkpt lat="46.21936" lon="4.84665">
        <ele>209</ele>
        <time>2017-05-04T12:03:25.000Z</time>
      </trkpt>
      <trkpt lat="46.21936" lon="4.84664">
        <ele>209</ele>
        <time>2017-05-04T12:03:26.000Z</time>
      </trkpt>
      <trkpt lat="46.21936" lon="4.84663">
        <ele>209</ele>
        <time>2017-05-04T12:03:27.000Z</time>
      </trkpt>
      <trkpt lat="46.21937" lon="4.84662">
        <ele>209</ele>
        <time>2017-05-04T12:03:28.000Z</time>
      </trkpt>
      <trkpt lat="46.21937" lon="4.84661">
        <ele>209</ele>
        <time>2017-05-04T12:03:29.000Z</time>
      </trkpt>
      <trkpt lat="46.21937" lon="4.8466">
        <ele>209</ele>
        <time>2017-05-04T12:03:30.000Z</time>
      </trkpt>
      <trkpt lat="46.21938" lon="4.84659">
        <ele>209</ele>
        <time>2017-05-04T12:03:31.000Z</time>
      </trkpt>
      <trkpt lat="46.21938" lon="4.84658">
        <ele>209</ele>
        <time>2017-05-04T12:03:32.000Z</time>
      </trkpt>
      <trkpt lat="46.21938" lon="4.84657">
        <ele>209</ele>
        <time>2017-05-04T12:03:33.000Z</time>
      </trkpt>
      <trkpt lat="46.21939" lon="4.84657">
        <ele>209</ele>
        <time>2017-05-04T12:03:34.000Z</time>
      </trkpt>
      <trkpt lat="46.21939" lon="4.84657">
        <ele>209</ele>
        <time>2017-05-04T12:03:35.000Z</time>
      </trkpt>
      <trkpt lat="46.21939" lon="4.84657">
        <ele>209</ele>
        <time>2017-05-04T12:03:36.000Z</time>
      </trkpt>
      <trkpt lat="46.21939" lon="4.84658">
        <ele>209</ele>
        <time>2017-05-04T12:03:37.000Z</time>
      </trkpt>
      <trkpt lat="46.21939" lon="4.84658">
        <ele>209</ele>
        <time>2017-05-04T12:03:38.000Z</time>
      </trkpt>
      <trkpt lat="46.21939" lon="4.84659">
        <ele>210</ele>
        <time>2017-05-04T12:03:39.000Z</time>
      </trkpt>
      <trkpt lat="46.21938" lon="4.84659">
        <ele>210</ele>
        <time>2017-05-04T12:03:40.000Z</time>
      </trkpt>
      <trkpt lat="46.21938" lon="4.84659">
        <ele>209</ele>
        <time>2017-05-04T12:03:41.000Z</time>
      </trkpt>
      <trkpt lat="46.21937" lon="4.8466">
        <ele>209</ele>
        <time>2017-05-04T12:03:42.000Z</time>
      </trkpt>
      <trkpt lat="46.21937" lon="4.84661">
        <ele>209</ele>
        <time>2017-05-04T12:03:43.000Z</time>
      </trkpt>
      <trkpt lat="46.21937" lon="4.84661">
        <ele>209</ele>
        <time>2017-05-04T12:03:44.000Z</time>
      </trkpt>
      <trkpt lat="46.21937" lon="4.84662">
        <ele>209</ele>
        <time>2017-05-04T12:03:45.000Z</time>
      </trkpt>
      <trkpt lat="46.21937" lon="4.84662">
        <ele>209</ele>
        <time>2017-05-04T12:03:46.000Z</time>
      </trkpt>
      <trkpt lat="46.21937" lon="4.84663">
        <ele>209</ele>
        <time>2017-05-04T12:03:47.000Z</time>
      </trkpt>
      <trkpt lat="46.21937" lon="4.84663">
        <ele>209</ele>
        <time>2017-05-04T12:03:48.000Z</time>
      </trkpt>
      <trkpt lat="46.21937" lon="4.84662">
        <ele>209</ele>
        <time>2017-05-04T12:03:49.000Z</time>
      </trkpt>
      <trkpt lat="46.21937" lon="4.84662">
        <ele>209</ele>
        <time>2017-05-04T12:03:50.000Z</time>
      </trkpt>
      <trkpt lat="46.21937" lon="4.84661">
        <ele>209</ele>
        <time>2017-05-04T12:03:51.000Z</time>
      </trkpt>
      <trkpt lat="46.21937" lon="4.84659">
        <ele>209</ele>
        <time>2017-05-04T12:03:52.000Z</time>
      </trkpt>
      <trkpt lat="46.21938" lon="4.84659">
        <ele>209</ele>
        <time>2017-05-04T12:03:53.000Z</time>
      </trkpt>
      <trkpt lat="46.21938" lon="4.84658">
        <ele>209</ele>
        <time>2017-05-04T12:03:54.000Z</time>
      </trkpt>
      <trkpt lat="46.21938" lon="4.84657">
        <ele>209</ele>
        <time>2017-05-04T12:03:55.000Z</time>
      </trkpt>
      <trkpt lat="46.21938" lon="4.84657">
        <ele>209</ele>
        <time>2017-05-04T12:03:56.000Z</time>
      </trkpt>
      <trkpt lat="46.21939" lon="4.84656">
        <ele>209</ele>
        <time>2017-05-04T12:03:57.000Z</time>
      </trkpt>
      <trkpt lat="46.2194" lon="4.84656">
        <ele>209</ele>
        <time>2017-05-04T12:03:58.000Z</time>
      </trkpt>
      <trkpt lat="46.21941" lon="4.84655">
        <ele>209</ele>
        <time>2017-05-04T12:03:59.000Z</time>
      </trkpt>
      <trkpt lat="46.21942" lon="4.84654">
        <ele>209</ele>
        <time>2017-05-04T12:04:00.000Z</time>
      </trkpt>
      <trkpt lat="46.21942" lon="4.84653">
        <ele>209</ele>
        <time>2017-05-04T12:04:01.000Z</time>
      </trkpt>
      <trkpt lat="46.21943" lon="4.84653">
        <ele>209</ele>
        <time>2017-05-04T12:04:02.000Z</time>
      </trkpt>
      <trkpt lat="46.21943" lon="4.84652">
        <ele>210</ele>
        <time>2017-05-04T12:04:03.000Z</time>
      </trkpt>
      <trkpt lat="46.21944" lon="4.84652">
        <ele>210</ele>
        <time>2017-05-04T12:04:04.000Z</time>
      </trkpt>
      <trkpt lat="46.21944" lon="4.84652">
        <ele>210</ele>
        <time>2017-05-04T12:04:05.000Z</time>
      </trkpt>
      <trkpt lat="46.21944" lon="4.84652">
        <ele>210</ele>
        <time>2017-05-04T12:04:06.000Z</time>
      </trkpt>
      <trkpt lat="46.21944" lon="4.84652">
        <ele>210</ele>
        <time>2017-05-04T12:04:07.000Z</time>
      </trkpt>
      <trkpt lat="46.21943" lon="4.84652">
        <ele>210</ele>
        <time>2017-05-04T12:04:08.000Z</time>
      </trkpt>
      <trkpt lat="46.21943" lon="4.84653">
        <ele>210</ele>
        <time>2017-05-04T12:04:09.000Z</time>
      </trkpt>
      <trkpt lat="46.21943" lon="4.84653">
        <ele>210</ele>
        <time>2017-05-04T12:04:10.000Z</time>
      </trkpt>
      <trkpt lat="46.21942" lon="4.84653">
        <ele>210</ele>
        <time>2017-05-04T12:04:11.000Z</time>
      </trkpt>
      <trkpt lat="46.21942" lon="4.84654">
        <ele>210</ele>
        <time>2017-05-04T12:04:12.000Z</time>
      </trkpt>
      <trkpt lat="46.21942" lon="4.84654">
        <ele>211</ele>
        <time>2017-05-04T12:04:13.000Z</time>
      </trkpt>
      <trkpt lat="46.21942" lon="4.84654">
        <ele>211</ele>
        <time>2017-05-04T12:04:14.000Z</time>
      </trkpt>
      <trkpt lat="46.21943" lon="4.84654">
        <ele>210</ele>
        <time>2017-05-04T12:04:15.000Z</time>
      </trkpt>
      <trkpt lat="46.21944" lon="4.84653">
        <ele>210</ele>
        <time>2017-05-04T12:04:16.000Z</time>
      </trkpt>
      <trkpt lat="46.21945" lon="4.84652">
        <ele>210</ele>
        <time>2017-05-04T12:04:17.000Z</time>
      </trkpt>
      <trkpt lat="46.21946" lon="4.84651">
        <ele>210</ele>
        <time>2017-05-04T12:04:18.000Z</time>
      </trkpt>
      <trkpt lat="46.21947" lon="4.8465">
        <ele>210</ele>
        <time>2017-05-04T12:04:19.000Z</time>
      </trkpt>
      <trkpt lat="46.21947" lon="4.8465">
        <ele>210</ele>
        <time>2017-05-04T12:04:20.000Z</time>
      </trkpt>
      <trkpt lat="46.21948" lon="4.84649">
        <ele>210</ele>
        <time>2017-05-04T12:04:21.000Z</time>
      </trkpt>
      <trkpt lat="46.21948" lon="4.84649">
        <ele>210</ele>
        <time>2017-05-04T12:04:22.000Z</time>
      </trkpt>
      <trkpt lat="46.21948" lon="4.84649">
        <ele>210</ele>
        <time>2017-05-04T12:04:23.000Z</time>
      </trkpt>
      <trkpt lat="46.21949" lon="4.8465">
        <ele>210</ele>
        <time>2017-05-04T12:04:24.000Z</time>
      </trkpt>
      <trkpt lat="46.21949" lon="4.8465">
        <ele>210</ele>
        <time>2017-05-04T12:04:25.000Z</time>
      </trkpt>
      <trkpt lat="46.21949" lon="4.84649">
        <ele>210</ele>
        <time>2017-05-04T12:04:26.000Z</time>
      </trkpt>
      <trkpt lat="46.2195" lon="4.84649">
        <ele>210</ele>
        <time>2017-05-04T12:04:27.000Z</time>
      </trkpt>
      <trkpt lat="46.21951" lon="4.84649">
        <ele>210</ele>
        <time>2017-05-04T12:04:28.000Z</time>
      </trkpt>
      <trkpt lat="46.21951" lon="4.84648">
        <ele>210</ele>
        <time>2017-05-04T12:04:29.000Z</time>
      </trkpt>
      <trkpt lat="46.21952" lon="4.84646">
        <ele>210</ele>
        <time>2017-05-04T12:04:30.000Z</time>
      </trkpt>
      <trkpt lat="46.21953" lon="4.84645">
        <ele>210</ele>
        <time>2017-05-04T12:04:31.000Z</time>
      </trkpt>
      <trkpt lat="46.21954" lon="4.84644">
        <ele>210</ele>
        <time>2017-05-04T12:04:32.000Z</time>
      </trkpt>
      <trkpt lat="46.21955" lon="4.84643">
        <ele>210</ele>
        <time>2017-05-04T12:04:33.000Z</time>
      </trkpt>
      <trkpt lat="46.21956" lon="4.84642">
        <ele>210</ele>
        <time>2017-05-04T12:04:34.000Z</time>
      </trkpt>
      <trkpt lat="46.21956" lon="4.84642">
        <ele>209</ele>
        <time>2017-05-04T12:04:35.000Z</time>
      </trkpt>
      <trkpt lat="46.21957" lon="4.84641">
        <ele>210</ele>
        <time>2017-05-04T12:04:36.000Z</time>
      </trkpt>
      <trkpt lat="46.21957" lon="4.84641">
        <ele>210</ele>
        <time>2017-05-04T12:04:37.000Z</time>
      </trkpt>
      <trkpt lat="46.21957" lon="4.84641">
        <ele>210</ele>
        <time>2017-05-04T12:04:38.000Z</time>
      </trkpt>
      <trkpt lat="46.21957" lon="4.84641">
        <ele>210</ele>
        <time>2017-05-04T12:04:39.000Z</time>
      </trkpt>
      <trkpt lat="46.21958" lon="4.8464">
        <ele>210</ele>
        <time>2017-05-04T12:04:40.000Z</time>
      </trkpt>
      <trkpt lat="46.21958" lon="4.8464">
        <ele>210</ele>
        <time>2017-05-04T12:04:41.000Z</time>
      </trkpt>
      <trkpt lat="46.21959" lon="4.84639">
        <ele>210</ele>
        <time>2017-05-04T12:04:42.000Z</time>
      </trkpt>
      <trkpt lat="46.21959" lon="4.84638">
        <ele>210</ele>
        <time>2017-05-04T12:04:43.000Z</time>
      </trkpt>
      <trkpt lat="46.21959" lon="4.84638">
        <ele>211</ele>
        <time>2017-05-04T12:04:44.000Z</time>
      </trkpt>
      <trkpt lat="46.2196" lon="4.84638">
        <ele>211</ele>
        <time>2017-05-04T12:04:45.000Z</time>
      </trkpt>
      <trkpt lat="46.2196" lon="4.84637">
        <ele>211</ele>
        <time>2017-05-04T12:04:46.000Z</time>
      </trkpt>
      <trkpt lat="46.21961" lon="4.84637">
        <ele>210</ele>
        <time>2017-05-04T12:04:47.000Z</time>
      </trkpt>
      <trkpt lat="46.21962" lon="4.84636">
        <ele>210</ele>
        <time>2017-05-04T12:04:48.000Z</time>
      </trkpt>
      <trkpt lat="46.21962" lon="4.84635">
        <ele>210</ele>
        <time>2017-05-04T12:04:49.000Z</time>
      </trkpt>
      <trkpt lat="46.21963" lon="4.84634">
        <ele>210</ele>
        <time>2017-05-04T12:04:50.000Z</time>
      </trkpt>
      <trkpt lat="46.21963" lon="4.84634">
        <ele>210</ele>
        <time>2017-05-04T12:04:51.000Z</time>
      </trkpt>
      <trkpt lat="46.21964" lon="4.84633">
        <ele>210</ele>
        <time>2017-05-04T12:04:52.000Z</time>
      </trkpt>
      <trkpt lat="46.21965" lon="4.84633">
        <ele>210</ele>
        <time>2017-05-04T12:04:53.000Z</time>
      </trkpt>
      <trkpt lat="46.21965" lon="4.84632">
        <ele>210</ele>
        <time>2017-05-04T12:04:54.000Z</time>
      </trkpt>
      <trkpt lat="46.21966" lon="4.84632">
        <ele>210</ele>
        <time>2017-05-04T12:04:55.000Z</time>
      </trkpt>
      <trkpt lat="46.21967" lon="4.84631">
        <ele>210</ele>
        <time>2017-05-04T12:04:56.000Z</time>
      </trkpt>
      <trkpt lat="46.21967" lon="4.8463">
        <ele>210</ele>
        <time>2017-05-04T12:04:57.000Z</time>
      </trkpt>
      <trkpt lat="46.21968" lon="4.84629">
        <ele>210</ele>
        <time>2017-05-04T12:04:58.000Z</time>
      </trkpt>
      <trkpt lat="46.21969" lon="4.84629">
        <ele>210</ele>
        <time>2017-05-04T12:04:59.000Z</time>
      </trkpt>
      <trkpt lat="46.2197" lon="4.84628">
        <ele>210</ele>
        <time>2017-05-04T12:05:00.000Z</time>
      </trkpt>
      <trkpt lat="46.2197" lon="4.84627">
        <ele>210</ele>
        <time>2017-05-04T12:05:01.000Z</time>
      </trkpt>
      <trkpt lat="46.21971" lon="4.84626">
        <ele>210</ele>
        <time>2017-05-04T12:05:02.000Z</time>
      </trkpt>
      <trkpt lat="46.21972" lon="4.84625">
        <ele>210</ele>
        <time>2017-05-04T12:05:03.000Z</time>
      </trkpt>
      <trkpt lat="46.21973" lon="4.84625">
        <ele>210</ele>
        <time>2017-05-04T12:05:04.000Z</time>
      </trkpt>
      <trkpt lat="46.21974" lon="4.84624">
        <ele>210</ele>
        <time>2017-05-04T12:05:05.000Z</time>
      </trkpt>
      <trkpt lat="46.21974" lon="4.84623">
        <ele>210</ele>
        <time>2017-05-04T12:05:06.000Z</time>
      </trkpt>
      <trkpt lat="46.21975" lon="4.84622">
        <ele>210</ele>
        <time>2017-05-04T12:05:07.000Z</time>
      </trkpt>
      <trkpt lat="46.21976" lon="4.84621">
        <ele>210</ele>
        <time>2017-05-04T12:05:08.000Z</time>
      </trkpt>
      <trkpt lat="46.21977" lon="4.8462">
        <ele>210</ele>
        <time>2017-05-04T12:05:09.000Z</time>
      </trkpt>
      <trkpt lat="46.21977" lon="4.84619">
        <ele>210</ele>
        <time>2017-05-04T12:05:10.000Z</time>
      </trkpt>
      <trkpt lat="46.21978" lon="4.84618">
        <ele>210</ele>
        <time>2017-05-04T12:05:11.000Z</time>
      </trkpt>
      <trkpt lat="46.21979" lon="4.84618">
        <ele>211</ele>
        <time>2017-05-04T12:05:12.000Z</time>
      </trkpt>
      <trkpt lat="46.21979" lon="4.84617">
        <ele>211</ele>
        <time>2017-05-04T12:05:13.000Z</time>
      </trkpt>
      <trkpt lat="46.2198" lon="4.84617">
        <ele>211</ele>
        <time>2017-05-04T12:05:14.000Z</time>
      </trkpt>
      <trkpt lat="46.21981" lon="4.84616">
        <ele>210</ele>
        <time>2017-05-04T12:05:15.000Z</time>
      </trkpt>
      <trkpt lat="46.21981" lon="4.84615">
        <ele>210</ele>
        <time>2017-05-04T12:05:16.000Z</time>
      </trkpt>
      <trkpt lat="46.21982" lon="4.84614">
        <ele>210</ele>
        <time>2017-05-04T12:05:17.000Z</time>
      </trkpt>
      <trkpt lat="46.21983" lon="4.84613">
        <ele>210</ele>
        <time>2017-05-04T12:05:18.000Z</time>
      </trkpt>
      <trkpt lat="46.21983" lon="4.84612">
        <ele>210</ele>
        <time>2017-05-04T12:05:19.000Z</time>
      </trkpt>
      <trkpt lat="46.21984" lon="4.84611">
        <ele>210</ele>
        <time>2017-05-04T12:05:20.000Z</time>
      </trkpt>
      <trkpt lat="46.21985" lon="4.8461">
        <ele>210</ele>
        <time>2017-05-04T12:05:21.000Z</time>
      </trkpt>
      <trkpt lat="46.21985" lon="4.84609">
        <ele>210</ele>
        <time>2017-05-04T12:05:22.000Z</time>
      </trkpt>
      <trkpt lat="46.21986" lon="4.84608">
        <ele>210</ele>
        <time>2017-05-04T12:05:23.000Z</time>
      </trkpt>
      <trkpt lat="46.21987" lon="4.84607">
        <ele>210</ele>
        <time>2017-05-04T12:05:24.000Z</time>
      </trkpt>
      <trkpt lat="46.21987" lon="4.84606">
        <ele>210</ele>
        <time>2017-05-04T12:05:25.000Z</time>
      </trkpt>
      <trkpt lat="46.21988" lon="4.84605">
        <ele>210</ele>
        <time>2017-05-04T12:05:26.000Z</time>
      </trkpt>
      <trkpt lat="46.21989" lon="4.84604">
        <ele>210</ele>
        <time>2017-05-04T12:05:27.000Z</time>
      </trkpt>
      <trkpt lat="46.21989" lon="4.84603">
        <ele>210</ele>
        <time>2017-05-04T12:05:28.000Z</time>
      </trkpt>
      <trkpt lat="46.2199" lon="4.84602">
        <ele>210</ele>
        <time>2017-05-04T12:05:29.000Z</time>
      </trkpt>
      <trkpt lat="46.21991" lon="4.846">
        <ele>210</ele>
        <time>2017-05-04T12:05:30.000Z</time>
      </trkpt>
      <trkpt lat="46.21991" lon="4.84599">
        <ele>210</ele>
        <time>2017-05-04T12:05:31.000Z</time>
      </trkpt>
      <trkpt lat="46.21992" lon="4.84598">
        <ele>210</ele>
        <time>2017-05-04T12:05:32.000Z</time>
      </trkpt>
      <trkpt lat="46.21993" lon="4.84597">
        <ele>210</ele>
        <time>2017-05-04T12:05:33.000Z</time>
      </trkpt>
      <trkpt lat="46.21994" lon="4.84595">
        <ele>210</ele>
        <time>2017-05-04T12:05:34.000Z</time>
      </trkpt>
      <trkpt lat="46.21994" lon="4.84594">
        <ele>210</ele>
        <time>2017-05-04T12:05:35.000Z</time>
      </trkpt>
      <trkpt lat="46.21995" lon="4.84593">
        <ele>210</ele>
        <time>2017-05-04T12:05:36.000Z</time>
      </trkpt>
      <trkpt lat="46.21995" lon="4.84591">
        <ele>210</ele>
        <time>2017-05-04T12:05:37.000Z</time>
      </trkpt>
      <trkpt lat="46.21995" lon="4.8459">
        <ele>210</ele>
        <time>2017-05-04T12:05:38.000Z</time>
      </trkpt>
      <trkpt lat="46.21996" lon="4.84588">
        <ele>210</ele>
        <time>2017-05-04T12:05:39.000Z</time>
      </trkpt>
      <trkpt lat="46.21996" lon="4.84586">
        <ele>210</ele>
        <time>2017-05-04T12:05:40.000Z</time>
      </trkpt>
      <trkpt lat="46.21996" lon="4.84585">
        <ele>210</ele>
        <time>2017-05-04T12:05:41.000Z</time>
      </trkpt>
      <trkpt lat="46.21996" lon="4.84583">
        <ele>210</ele>
        <time>2017-05-04T12:05:42.000Z</time>
      </trkpt>
      <trkpt lat="46.21995" lon="4.84582">
        <ele>210</ele>
        <time>2017-05-04T12:05:43.000Z</time>
      </trkpt>
      <trkpt lat="46.21995" lon="4.84581">
        <ele>210</ele>
        <time>2017-05-04T12:05:44.000Z</time>
      </trkpt>
      <trkpt lat="46.21995" lon="4.8458">
        <ele>210</ele>
        <time>2017-05-04T12:05:45.000Z</time>
      </trkpt>
      <trkpt lat="46.21995" lon="4.84579">
        <ele>210</ele>
        <time>2017-05-04T12:05:46.000Z</time>
      </trkpt>
      <trkpt lat="46.21995" lon="4.84577">
        <ele>210</ele>
        <time>2017-05-04T12:05:47.000Z</time>
      </trkpt>
      <trkpt lat="46.21995" lon="4.84576">
        <ele>210</ele>
        <time>2017-05-04T12:05:48.000Z</time>
      </trkpt>
      <trkpt lat="46.21995" lon="4.84575">
        <ele>210</ele>
        <time>2017-05-04T12:05:49.000Z</time>
      </trkpt>
      <trkpt lat="46.21995" lon="4.84573">
        <ele>209</ele>
        <time>2017-05-04T12:05:50.000Z</time>
      </trkpt>
      <trkpt lat="46.21994" lon="4.84572">
        <ele>209</ele>
        <time>2017-05-04T12:05:51.000Z</time>
      </trkpt>
      <trkpt lat="46.21994" lon="4.8457">
        <ele>209</ele>
        <time>2017-05-04T12:05:52.000Z</time>
      </trkpt>
      <trkpt lat="46.21994" lon="4.84568">
        <ele>209</ele>
        <time>2017-05-04T12:05:53.000Z</time>
      </trkpt>
      <trkpt lat="46.21994" lon="4.84567">
        <ele>210</ele>
        <time>2017-05-04T12:05:54.000Z</time>
      </trkpt>
      <trkpt lat="46.21994" lon="4.84565">
        <ele>209</ele>
        <time>2017-05-04T12:05:55.000Z</time>
      </trkpt>
      <trkpt lat="46.21994" lon="4.84564">
        <ele>209</ele>
        <time>2017-05-04T12:05:56.000Z</time>
      </trkpt>
      <trkpt lat="46.21994" lon="4.84562">
        <ele>209</ele>
        <time>2017-05-04T12:05:57.000Z</time>
      </trkpt>
      <trkpt lat="46.21994" lon="4.8456">
        <ele>209</ele>
        <time>2017-05-04T12:05:58.000Z</time>
      </trkpt>
      <trkpt lat="46.21994" lon="4.84558">
        <ele>209</ele>
        <time>2017-05-04T12:05:59.000Z</time>
      </trkpt>
      <trkpt lat="46.21994" lon="4.84556">
        <ele>209</ele>
        <time>2017-05-04T12:06:00.000Z</time>
      </trkpt>
      <trkpt lat="46.21994" lon="4.84554">
        <ele>209</ele>
        <time>2017-05-04T12:06:01.000Z</time>
      </trkpt>
      <trkpt lat="46.21994" lon="4.84552">
        <ele>209</ele>
        <time>2017-05-04T12:06:02.000Z</time>
      </trkpt>
      <trkpt lat="46.21994" lon="4.8455">
        <ele>208</ele>
        <time>2017-05-04T12:06:03.000Z</time>
      </trkpt>
      <trkpt lat="46.21994" lon="4.84549">
        <ele>208</ele>
        <time>2017-05-04T12:06:04.000Z</time>
      </trkpt>
      <trkpt lat="46.21994" lon="4.84547">
        <ele>208</ele>
        <time>2017-05-04T12:06:05.000Z</time>
      </trkpt>
      <trkpt lat="46.21994" lon="4.84546">
        <ele>208</ele>
        <time>2017-05-04T12:06:06.000Z</time>
      </trkpt>
      <trkpt lat="46.21994" lon="4.84545">
        <ele>209</ele>
        <time>2017-05-04T12:06:07.000Z</time>
      </trkpt>
      <trkpt lat="46.21994" lon="4.84544">
        <ele>209</ele>
        <time>2017-05-04T12:06:08.000Z</time>
      </trkpt>
      <trkpt lat="46.21994" lon="4.84544">
        <ele>209</ele>
        <time>2017-05-04T12:06:09.000Z</time>
      </trkpt>
      <trkpt lat="46.21995" lon="4.84543">
        <ele>209</ele>
        <time>2017-05-04T12:06:10.000Z</time>
      </trkpt>
      <trkpt lat="46.21995" lon="4.84542">
        <ele>209</ele>
        <time>2017-05-04T12:06:11.000Z</time>
      </trkpt>
      <trkpt lat="46.21995" lon="4.84541">
        <ele>209</ele>
        <time>2017-05-04T12:06:12.000Z</time>
      </trkpt>
      <trkpt lat="46.21995" lon="4.84539">
        <ele>209</ele>
        <time>2017-05-04T12:06:13.000Z</time>
      </trkpt>
      <trkpt lat="46.21995" lon="4.84538">
        <ele>209</ele>
        <time>2017-05-04T12:06:14.000Z</time>
      </trkpt>
      <trkpt lat="46.21996" lon="4.84536">
        <ele>209</ele>
        <time>2017-05-04T12:06:15.000Z</time>
      </trkpt>
      <trkpt lat="46.21996" lon="4.84534">
        <ele>209</ele>
        <time>2017-05-04T12:06:16.000Z</time>
      </trkpt>
      <trkpt lat="46.21996" lon="4.84533">
        <ele>209</ele>
        <time>2017-05-04T12:06:17.000Z</time>
      </trkpt>
      <trkpt lat="46.21996" lon="4.84531">
        <ele>209</ele>
        <time>2017-05-04T12:06:18.000Z</time>
      </trkpt>
      <trkpt lat="46.21996" lon="4.8453">
        <ele>209</ele>
        <time>2017-05-04T12:06:19.000Z</time>
      </trkpt>
      <trkpt lat="46.21996" lon="4.84528">
        <ele>209</ele>
        <time>2017-05-04T12:06:20.000Z</time>
      </trkpt>
      <trkpt lat="46.21996" lon="4.84526">
        <ele>210</ele>
        <time>2017-05-04T12:06:21.000Z</time>
      </trkpt>
      <trkpt lat="46.21996" lon="4.84525">
        <ele>209</ele>
        <time>2017-05-04T12:06:22.000Z</time>
      </trkpt>
      <trkpt lat="46.21996" lon="4.84523">
        <ele>209</ele>
        <time>2017-05-04T12:06:23.000Z</time>
      </trkpt>
      <trkpt lat="46.21996" lon="4.84522">
        <ele>209</ele>
        <time>2017-05-04T12:06:24.000Z</time>
      </trkpt>
      <trkpt lat="46.21996" lon="4.84521">
        <ele>209</ele>
        <time>2017-05-04T12:06:25.000Z</time>
      </trkpt>
      <trkpt lat="46.21995" lon="4.84521">
        <ele>209</ele>
        <time>2017-05-04T12:06:26.000Z</time>
      </trkpt>
      <trkpt lat="46.21995" lon="4.8452">
        <ele>210</ele>
        <time>2017-05-04T12:06:27.000Z</time>
      </trkpt>
      <trkpt lat="46.21995" lon="4.84519">
        <ele>209</ele>
        <time>2017-05-04T12:06:28.000Z</time>
      </trkpt>
      <trkpt lat="46.21995" lon="4.84519">
        <ele>210</ele>
        <time>2017-05-04T12:06:29.000Z</time>
      </trkpt>
      <trkpt lat="46.21995" lon="4.84519">
        <ele>210</ele>
        <time>2017-05-04T12:06:30.000Z</time>
      </trkpt>
      <trkpt lat="46.21995" lon="4.84518">
        <ele>209</ele>
        <time>2017-05-04T12:06:31.000Z</time>
      </trkpt>
      <trkpt lat="46.21995" lon="4.84517">
        <ele>209</ele>
        <time>2017-05-04T12:06:32.000Z</time>
      </trkpt>
      <trkpt lat="46.21996" lon="4.84515">
        <ele>209</ele>
        <time>2017-05-04T12:06:33.000Z</time>
      </trkpt>
      <trkpt lat="46.21996" lon="4.84514">
        <ele>209</ele>
        <time>2017-05-04T12:06:34.000Z</time>
      </trkpt>
      <trkpt lat="46.21996" lon="4.84512">
        <ele>209</ele>
        <time>2017-05-04T12:06:35.000Z</time>
      </trkpt>
      <trkpt lat="46.21996" lon="4.8451">
        <ele>209</ele>
        <time>2017-05-04T12:06:36.000Z</time>
      </trkpt>
      <trkpt lat="46.21996" lon="4.84508">
        <ele>208</ele>
        <time>2017-05-04T12:06:37.000Z</time>
      </trkpt>
      <trkpt lat="46.21996" lon="4.84506">
        <ele>208</ele>
        <time>2017-05-04T12:06:38.000Z</time>
      </trkpt>
      <trkpt lat="46.21996" lon="4.84505">
        <ele>208</ele>
        <time>2017-05-04T12:06:39.000Z</time>
      </trkpt>
      <trkpt lat="46.21996" lon="4.84503">
        <ele>208</ele>
        <time>2017-05-04T12:06:40.000Z</time>
      </trkpt>
      <trkpt lat="46.21996" lon="4.84501">
        <ele>208</ele>
        <time>2017-05-04T12:06:41.000Z</time>
      </trkpt>
      <trkpt lat="46.21996" lon="4.84499">
        <ele>208</ele>
        <time>2017-05-04T12:06:42.000Z</time>
      </trkpt>
      <trkpt lat="46.21996" lon="4.84497">
        <ele>208</ele>
        <time>2017-05-04T12:06:43.000Z</time>
      </trkpt>
      <trkpt lat="46.21996" lon="4.84495">
        <ele>208</ele>
        <time>2017-05-04T12:06:44.000Z</time>
      </trkpt>
      <trkpt lat="46.21997" lon="4.84493">
        <ele>208</ele>
        <time>2017-05-04T12:06:45.000Z</time>
      </trkpt>
      <trkpt lat="46.21997" lon="4.84491">
        <ele>208</ele>
        <time>2017-05-04T12:06:46.000Z</time>
      </trkpt>
      <trkpt lat="46.21997" lon="4.84489">
        <ele>207</ele>
        <time>2017-05-04T12:06:47.000Z</time>
      </trkpt>
      <trkpt lat="46.21997" lon="4.84487">
        <ele>208</ele>
        <time>2017-05-04T12:06:48.000Z</time>
      </trkpt>
      <trkpt lat="46.21997" lon="4.84485">
        <ele>208</ele>
        <time>2017-05-04T12:06:49.000Z</time>
      </trkpt>
      <trkpt lat="46.21997" lon="4.84482">
        <ele>208</ele>
        <time>2017-05-04T12:06:50.000Z</time>
      </trkpt>
      <trkpt lat="46.21998" lon="4.8448">
        <ele>208</ele>
        <time>2017-05-04T12:06:51.000Z</time>
      </trkpt>
      <trkpt lat="46.21998" lon="4.84479">
        <ele>208</ele>
        <time>2017-05-04T12:06:52.000Z</time>
      </trkpt>
      <trkpt lat="46.21998" lon="4.84477">
        <ele>208</ele>
        <time>2017-05-04T12:06:53.000Z</time>
      </trkpt>
      <trkpt lat="46.21998" lon="4.84475">
        <ele>208</ele>
        <time>2017-05-04T12:06:54.000Z</time>
      </trkpt>
      <trkpt lat="46.21998" lon="4.84473">
        <ele>208</ele>
        <time>2017-05-04T12:06:55.000Z</time>
      </trkpt>
      <trkpt lat="46.21998" lon="4.84471">
        <ele>209</ele>
        <time>2017-05-04T12:06:56.000Z</time>
      </trkpt>
      <trkpt lat="46.21998" lon="4.84469">
        <ele>208</ele>
        <time>2017-05-04T12:06:57.000Z</time>
      </trkpt>
      <trkpt lat="46.21998" lon="4.84467">
        <ele>209</ele>
        <time>2017-05-04T12:06:58.000Z</time>
      </trkpt>
      <trkpt lat="46.21998" lon="4.84465">
        <ele>209</ele>
        <time>2017-05-04T12:06:59.000Z</time>
      </trkpt>
      <trkpt lat="46.21998" lon="4.84463">
        <ele>209</ele>
        <time>2017-05-04T12:07:00.000Z</time>
      </trkpt>
      <trkpt lat="46.21998" lon="4.84462">
        <ele>209</ele>
        <time>2017-05-04T12:07:01.000Z</time>
      </trkpt>
      <trkpt lat="46.21998" lon="4.8446">
        <ele>209</ele>
        <time>2017-05-04T12:07:02.000Z</time>
      </trkpt>
      <trkpt lat="46.21998" lon="4.84458">
        <ele>209</ele>
        <time>2017-05-04T12:07:03.000Z</time>
      </trkpt>
      <trkpt lat="46.21998" lon="4.84456">
        <ele>209</ele>
        <time>2017-05-04T12:07:04.000Z</time>
      </trkpt>
      <trkpt lat="46.21997" lon="4.84454">
        <ele>209</ele>
        <time>2017-05-04T12:07:05.000Z</time>
      </trkpt>
      <trkpt lat="46.21997" lon="4.84452">
        <ele>209</ele>
        <time>2017-05-04T12:07:06.000Z</time>
      </trkpt>
      <trkpt lat="46.21997" lon="4.84451">
        <ele>209</ele>
        <time>2017-05-04T12:07:07.000Z</time>
      </trkpt>
      <trkpt lat="46.21997" lon="4.84449">
        <ele>209</ele>
        <time>2017-05-04T12:07:08.000Z</time>
      </trkpt>
      <trkpt lat="46.21997" lon="4.84447">
        <ele>209</ele>
        <time>2017-05-04T12:07:09.000Z</time>
      </trkpt>
      <trkpt lat="46.21997" lon="4.84445">
        <ele>209</ele>
        <time>2017-05-04T12:07:10.000Z</time>
      </trkpt>
      <trkpt lat="46.21997" lon="4.84444">
        <ele>209</ele>
        <time>2017-05-04T12:07:11.000Z</time>
      </trkpt>
      <trkpt lat="46.21997" lon="4.84442">
        <ele>209</ele>
        <time>2017-05-04T12:07:12.000Z</time>
      </trkpt>
      <trkpt lat="46.21997" lon="4.8444">
        <ele>209</ele>
        <time>2017-05-04T12:07:13.000Z</time>
      </trkpt>
      <trkpt lat="46.21997" lon="4.84439">
        <ele>209</ele>
        <time>2017-05-04T12:07:14.000Z</time>
      </trkpt>
      <trkpt lat="46.21997" lon="4.84437">
        <ele>209</ele>
        <time>2017-05-04T12:07:15.000Z</time>
      </trkpt>
      <trkpt lat="46.21998" lon="4.84435">
        <ele>209</ele>
        <time>2017-05-04T12:07:16.000Z</time>
      </trkpt>
      <trkpt lat="46.21998" lon="4.84433">
        <ele>209</ele>
        <time>2017-05-04T12:07:17.000Z</time>
      </trkpt>
      <trkpt lat="46.21998" lon="4.84432">
        <ele>209</ele>
        <time>2017-05-04T12:07:18.000Z</time>
      </trkpt>
      <trkpt lat="46.21998" lon="4.8443">
        <ele>209</ele>
        <time>2017-05-04T12:07:19.000Z</time>
      </trkpt>
      <trkpt lat="46.21998" lon="4.84428">
        <ele>209</ele>
        <time>2017-05-04T12:07:20.000Z</time>
      </trkpt>
      <trkpt lat="46.21998" lon="4.84427">
        <ele>209</ele>
        <time>2017-05-04T12:07:21.000Z</time>
      </trkpt>
      <trkpt lat="46.21999" lon="4.84425">
        <ele>210</ele>
        <time>2017-05-04T12:07:22.000Z</time>
      </trkpt>
      <trkpt lat="46.21999" lon="4.84423">
        <ele>209</ele>
        <time>2017-05-04T12:07:23.000Z</time>
      </trkpt>
      <trkpt lat="46.21999" lon="4.84422">
        <ele>209</ele>
        <time>2017-05-04T12:07:24.000Z</time>
      </trkpt>
      <trkpt lat="46.21999" lon="4.8442">
        <ele>209</ele>
        <time>2017-05-04T12:07:25.000Z</time>
      </trkpt>
      <trkpt lat="46.21999" lon="4.84418">
        <ele>209</ele>
        <time>2017-05-04T12:07:26.000Z</time>
      </trkpt>
      <trkpt lat="46.21999" lon="4.84416">
        <ele>209</ele>
        <time>2017-05-04T12:07:27.000Z</time>
      </trkpt>
      <trkpt lat="46.21999" lon="4.84415">
        <ele>209</ele>
        <time>2017-05-04T12:07:28.000Z</time>
      </trkpt>
      <trkpt lat="46.21999" lon="4.84413">
        <ele>209</ele>
        <time>2017-05-04T12:07:29.000Z</time>
      </trkpt>
      <trkpt lat="46.21999" lon="4.84411">
        <ele>209</ele>
        <time>2017-05-04T12:07:30.000Z</time>
      </trkpt>
      <trkpt lat="46.21999" lon="4.8441">
        <ele>209</ele>
        <time>2017-05-04T12:07:31.000Z</time>
      </trkpt>
      <trkpt lat="46.21999" lon="4.84408">
        <ele>209</ele>
        <time>2017-05-04T12:07:32.000Z</time>
      </trkpt>
      <trkpt lat="46.22" lon="4.84406">
        <ele>210</ele>
        <time>2017-05-04T12:07:33.000Z</time>
      </trkpt>
      <trkpt lat="46.22" lon="4.84404">
        <ele>210</ele>
        <time>2017-05-04T12:07:34.000Z</time>
      </trkpt>
      <trkpt lat="46.22" lon="4.84403">
        <ele>210</ele>
        <time>2017-05-04T12:07:35.000Z</time>
      </trkpt>
      <trkpt lat="46.22" lon="4.84401">
        <ele>210</ele>
        <time>2017-05-04T12:07:36.000Z</time>
      </trkpt>
      <trkpt lat="46.22001" lon="4.84399">
        <ele>209</ele>
        <time>2017-05-04T12:07:37.000Z</time>
      </trkpt>
      <trkpt lat="46.22001" lon="4.84397">
        <ele>209</ele>
        <time>2017-05-04T12:07:38.000Z</time>
      </trkpt>
      <trkpt lat="46.22001" lon="4.84395">
        <ele>209</ele>
        <time>2017-05-04T12:07:39.000Z</time>
      </trkpt>
      <trkpt lat="46.22001" lon="4.84394">
        <ele>209</ele>
        <time>2017-05-04T12:07:40.000Z</time>
      </trkpt>
      <trkpt lat="46.22001" lon="4.84392">
        <ele>209</ele>
        <time>2017-05-04T12:07:41.000Z</time>
      </trkpt>
      <trkpt lat="46.22001" lon="4.8439">
        <ele>209</ele>
        <time>2017-05-04T12:07:42.000Z</time>
      </trkpt>
      <trkpt lat="46.22002" lon="4.84388">
        <ele>209</ele>
        <time>2017-05-04T12:07:43.000Z</time>
      </trkpt>
      <trkpt lat="46.22002" lon="4.84387">
        <ele>209</ele>
        <time>2017-05-04T12:07:44.000Z</time>
      </trkpt>
      <trkpt lat="46.22002" lon="4.84385">
        <ele>209</ele>
        <time>2017-05-04T12:07:45.000Z</time>
      </trkpt>
      <trkpt lat="46.22002" lon="4.84383">
        <ele>208</ele>
        <time>2017-05-04T12:07:46.000Z</time>
      </trkpt>
      <trkpt lat="46.22002" lon="4.84382">
        <ele>208</ele>
        <time>2017-05-04T12:07:47.000Z</time>
      </trkpt>
      <trkpt lat="46.22002" lon="4.8438">
        <ele>208</ele>
        <time>2017-05-04T12:07:48.000Z</time>
      </trkpt>
      <trkpt lat="46.22003" lon="4.84378">
        <ele>208</ele>
        <time>2017-05-04T12:07:49.000Z</time>
      </trkpt>
      <trkpt lat="46.22003" lon="4.84376">
        <ele>208</ele>
        <time>2017-05-04T12:07:50.000Z</time>
      </trkpt>
      <trkpt lat="46.22003" lon="4.84375">
        <ele>208</ele>
        <time>2017-05-04T12:07:51.000Z</time>
      </trkpt>
      <trkpt lat="46.22004" lon="4.84373">
        <ele>208</ele>
        <time>2017-05-04T12:07:52.000Z</time>
      </trkpt>
      <trkpt lat="46.22004" lon="4.84371">
        <ele>208</ele>
        <time>2017-05-04T12:07:53.000Z</time>
      </trkpt>
      <trkpt lat="46.22004" lon="4.84369">
        <ele>208</ele>
        <time>2017-05-04T12:07:54.000Z</time>
      </trkpt>
      <trkpt lat="46.22005" lon="4.84368">
        <ele>208</ele>
        <time>2017-05-04T12:07:55.000Z</time>
      </trkpt>
      <trkpt lat="46.22005" lon="4.84366">
        <ele>208</ele>
        <time>2017-05-04T12:07:56.000Z</time>
      </trkpt>
      <trkpt lat="46.22005" lon="4.84365">
        <ele>208</ele>
        <time>2017-05-04T12:07:57.000Z</time>
      </trkpt>
      <trkpt lat="46.22005" lon="4.84363">
        <ele>208</ele>
        <time>2017-05-04T12:07:58.000Z</time>
      </trkpt>
      <trkpt lat="46.22005" lon="4.84361">
        <ele>208</ele>
        <time>2017-05-04T12:07:59.000Z</time>
      </trkpt>
      <trkpt lat="46.22005" lon="4.84359">
        <ele>208</ele>
        <time>2017-05-04T12:08:00.000Z</time>
      </trkpt>
      <trkpt lat="46.22005" lon="4.84358">
        <ele>208</ele>
        <time>2017-05-04T12:08:01.000Z</time>
      </trkpt>
      <trkpt lat="46.22005" lon="4.84356">
        <ele>208</ele>
        <time>2017-05-04T12:08:02.000Z</time>
      </trkpt>
      <trkpt lat="46.22005" lon="4.84354">
        <ele>208</ele>
        <time>2017-05-04T12:08:03.000Z</time>
      </trkpt>
      <trkpt lat="46.22006" lon="4.84353">
        <ele>208</ele>
        <time>2017-05-04T12:08:04.000Z</time>
      </trkpt>
      <trkpt lat="46.22006" lon="4.84351">
        <ele>208</ele>
        <time>2017-05-04T12:08:05.000Z</time>
      </trkpt>
      <trkpt lat="46.22006" lon="4.84349">
        <ele>208</ele>
        <time>2017-05-04T12:08:06.000Z</time>
      </trkpt>
      <trkpt lat="46.22006" lon="4.84347">
        <ele>208</ele>
        <time>2017-05-04T12:08:07.000Z</time>
      </trkpt>
      <trkpt lat="46.22006" lon="4.84346">
        <ele>208</ele>
        <time>2017-05-04T12:08:08.000Z</time>
      </trkpt>
      <trkpt lat="46.22007" lon="4.84344">
        <ele>208</ele>
        <time>2017-05-04T12:08:09.000Z</time>
      </trkpt>
      <trkpt lat="46.22007" lon="4.84343">
        <ele>208</ele>
        <time>2017-05-04T12:08:10.000Z</time>
      </trkpt>
      <trkpt lat="46.22007" lon="4.84341">
        <ele>208</ele>
        <time>2017-05-04T12:08:11.000Z</time>
      </trkpt>
      <trkpt lat="46.22008" lon="4.84339">
        <ele>208</ele>
        <time>2017-05-04T12:08:12.000Z</time>
      </trkpt>
      <trkpt lat="46.22008" lon="4.84337">
        <ele>208</ele>
        <time>2017-05-04T12:08:13.000Z</time>
      </trkpt>
      <trkpt lat="46.22008" lon="4.84336">
        <ele>208</ele>
        <time>2017-05-04T12:08:14.000Z</time>
      </trkpt>
      <trkpt lat="46.22008" lon="4.84334">
        <ele>208</ele>
        <time>2017-05-04T12:08:15.000Z</time>
      </trkpt>
      <trkpt lat="46.22008" lon="4.84333">
        <ele>208</ele>
        <time>2017-05-04T12:08:16.000Z</time>
      </trkpt>
      <trkpt lat="46.22008" lon="4.84331">
        <ele>208</ele>
        <time>2017-05-04T12:08:17.000Z</time>
      </trkpt>
      <trkpt lat="46.22009" lon="4.8433">
        <ele>208</ele>
        <time>2017-05-04T12:08:18.000Z</time>
      </trkpt>
      <trkpt lat="46.22009" lon="4.84328">
        <ele>207</ele>
        <time>2017-05-04T12:08:19.000Z</time>
      </trkpt>
      <trkpt lat="46.22009" lon="4.84327">
        <ele>207</ele>
        <time>2017-05-04T12:08:20.000Z</time>
      </trkpt>
      <trkpt lat="46.22009" lon="4.84325">
        <ele>207</ele>
        <time>2017-05-04T12:08:21.000Z</time>
      </trkpt>
      <trkpt lat="46.22009" lon="4.84323">
        <ele>207</ele>
        <time>2017-05-04T12:08:22.000Z</time>
      </trkpt>
      <trkpt lat="46.22009" lon="4.84322">
        <ele>207</ele>
        <time>2017-05-04T12:08:23.000Z</time>
      </trkpt>
      <trkpt lat="46.22009" lon="4.8432">
        <ele>207</ele>
        <time>2017-05-04T12:08:24.000Z</time>
      </trkpt>
      <trkpt lat="46.2201" lon="4.84319">
        <ele>207</ele>
        <time>2017-05-04T12:08:25.000Z</time>
      </trkpt>
      <trkpt lat="46.2201" lon="4.84317">
        <ele>207</ele>
        <time>2017-05-04T12:08:26.000Z</time>
      </trkpt>
      <trkpt lat="46.2201" lon="4.84316">
        <ele>207</ele>
        <time>2017-05-04T12:08:27.000Z</time>
      </trkpt>
      <trkpt lat="46.2201" lon="4.84314">
        <ele>206</ele>
        <time>2017-05-04T12:08:28.000Z</time>
      </trkpt>
      <trkpt lat="46.2201" lon="4.84313">
        <ele>206</ele>
        <time>2017-05-04T12:08:29.000Z</time>
      </trkpt>
      <trkpt lat="46.2201" lon="4.84311">
        <ele>206</ele>
        <time>2017-05-04T12:08:30.000Z</time>
      </trkpt>
      <trkpt lat="46.2201" lon="4.84309">
        <ele>206</ele>
        <time>2017-05-04T12:08:31.000Z</time>
      </trkpt>
      <trkpt lat="46.22011" lon="4.84308">
        <ele>206</ele>
        <time>2017-05-04T12:08:32.000Z</time>
      </trkpt>
      <trkpt lat="46.22011" lon="4.84307">
        <ele>206</ele>
        <time>2017-05-04T12:08:33.000Z</time>
      </trkpt>
      <trkpt lat="46.22011" lon="4.84305">
        <ele>207</ele>
        <time>2017-05-04T12:08:34.000Z</time>
      </trkpt>
      <trkpt lat="46.22011" lon="4.84304">
        <ele>206</ele>
        <time>2017-05-04T12:08:35.000Z</time>
      </trkpt>
      <trkpt lat="46.22012" lon="4.84302">
        <ele>206</ele>
        <time>2017-05-04T12:08:36.000Z</time>
      </trkpt>
      <trkpt lat="46.22012" lon="4.84301">
        <ele>206</ele>
        <time>2017-05-04T12:08:37.000Z</time>
      </trkpt>
      <trkpt lat="46.22012" lon="4.84299">
        <ele>206</ele>
        <time>2017-05-04T12:08:38.000Z</time>
      </trkpt>
      <trkpt lat="46.22012" lon="4.84298">
        <ele>206</ele>
        <time>2017-05-04T12:08:39.000Z</time>
      </trkpt>
      <trkpt lat="46.22013" lon="4.84296">
        <ele>206</ele>
        <time>2017-05-04T12:08:40.000Z</time>
      </trkpt>
      <trkpt lat="46.22013" lon="4.84295">
        <ele>207</ele>
        <time>2017-05-04T12:08:41.000Z</time>
      </trkpt>
      <trkpt lat="46.22013" lon="4.84293">
        <ele>207</ele>
        <time>2017-05-04T12:08:42.000Z</time>
      </trkpt>
      <trkpt lat="46.22013" lon="4.84292">
        <ele>207</ele>
        <time>2017-05-04T12:08:43.000Z</time>
      </trkpt>
      <trkpt lat="46.22014" lon="4.8429">
        <ele>207</ele>
        <time>2017-05-04T12:08:44.000Z</time>
      </trkpt>
      <trkpt lat="46.22014" lon="4.84288">
        <ele>208</ele>
        <time>2017-05-04T12:08:45.000Z</time>
      </trkpt>
      <trkpt lat="46.22014" lon="4.84286">
        <ele>208</ele>
        <time>2017-05-04T12:08:46.000Z</time>
      </trkpt>
      <trkpt lat="46.22014" lon="4.84284">
        <ele>208</ele>
        <time>2017-05-04T12:08:47.000Z</time>
      </trkpt>
      <trkpt lat="46.22014" lon="4.84283">
        <ele>208</ele>
        <time>2017-05-04T12:08:48.000Z</time>
      </trkpt>
      <trkpt lat="46.22014" lon="4.84281">
        <ele>208</ele>
        <time>2017-05-04T12:08:49.000Z</time>
      </trkpt>
      <trkpt lat="46.22014" lon="4.84279">
        <ele>208</ele>
        <time>2017-05-04T12:08:50.000Z</time>
      </trkpt>
      <trkpt lat="46.22014" lon="4.84277">
        <ele>208</ele>
        <time>2017-05-04T12:08:51.000Z</time>
      </trkpt>
      <trkpt lat="46.22014" lon="4.84276">
        <ele>208</ele>
        <time>2017-05-04T12:08:52.000Z</time>
      </trkpt>
      <trkpt lat="46.22014" lon="4.84274">
        <ele>208</ele>
        <time>2017-05-04T12:08:53.000Z</time>
      </trkpt>
      <trkpt lat="46.22014" lon="4.84272">
        <ele>208</ele>
        <time>2017-05-04T12:08:54.000Z</time>
      </trkpt>
      <trkpt lat="46.22014" lon="4.84271">
        <ele>208</ele>
        <time>2017-05-04T12:08:55.000Z</time>
      </trkpt>
      <trkpt lat="46.22014" lon="4.84269">
        <ele>208</ele>
        <time>2017-05-04T12:08:56.000Z</time>
      </trkpt>
      <trkpt lat="46.22014" lon="4.84267">
        <ele>209</ele>
        <time>2017-05-04T12:08:57.000Z</time>
      </trkpt>
      <trkpt lat="46.22015" lon="4.84265">
        <ele>208</ele>
        <time>2017-05-04T12:08:58.000Z</time>
      </trkpt>
      <trkpt lat="46.22015" lon="4.84263">
        <ele>209</ele>
        <time>2017-05-04T12:08:59.000Z</time>
      </trkpt>
      <trkpt lat="46.22015" lon="4.84262">
        <ele>209</ele>
        <time>2017-05-04T12:09:00.000Z</time>
      </trkpt>
      <trkpt lat="46.22015" lon="4.8426">
        <ele>209</ele>
        <time>2017-05-04T12:09:01.000Z</time>
      </trkpt>
      <trkpt lat="46.22015" lon="4.84258">
        <ele>209</ele>
        <time>2017-05-04T12:09:02.000Z</time>
      </trkpt>
      <trkpt lat="46.22015" lon="4.84257">
        <ele>210</ele>
        <time>2017-05-04T12:09:03.000Z</time>
      </trkpt>
      <trkpt lat="46.22015" lon="4.84255">
        <ele>210</ele>
        <time>2017-05-04T12:09:04.000Z</time>
      </trkpt>
      <trkpt lat="46.22015" lon="4.84253">
        <ele>210</ele>
        <time>2017-05-04T12:09:05.000Z</time>
      </trkpt>
      <trkpt lat="46.22015" lon="4.84251">
        <ele>210</ele>
        <time>2017-05-04T12:09:06.000Z</time>
      </trkpt>
      <trkpt lat="46.22015" lon="4.84249">
        <ele>211</ele>
        <time>2017-05-04T12:09:07.000Z</time>
      </trkpt>
      <trkpt lat="46.22015" lon="4.84247">
        <ele>211</ele>
        <time>2017-05-04T12:09:08.000Z</time>
      </trkpt>
      <trkpt lat="46.22015" lon="4.84245">
        <ele>211</ele>
        <time>2017-05-04T12:09:09.000Z</time>
      </trkpt>
      <trkpt lat="46.22015" lon="4.84244">
        <ele>210</ele>
        <time>2017-05-04T12:09:10.000Z</time>
      </trkpt>
      <trkpt lat="46.22015" lon="4.84242">
        <ele>211</ele>
        <time>2017-05-04T12:09:11.000Z</time>
      </trkpt>
      <trkpt lat="46.22015" lon="4.8424">
        <ele>210</ele>
        <time>2017-05-04T12:09:12.000Z</time>
      </trkpt>
      <trkpt lat="46.22016" lon="4.84238">
        <ele>210</ele>
        <time>2017-05-04T12:09:13.000Z</time>
      </trkpt>
      <trkpt lat="46.22016" lon="4.84236">
        <ele>210</ele>
        <time>2017-05-04T12:09:14.000Z</time>
      </trkpt>
      <trkpt lat="46.22016" lon="4.84234">
        <ele>209</ele>
        <time>2017-05-04T12:09:15.000Z</time>
      </trkpt>
      <trkpt lat="46.22016" lon="4.84232">
        <ele>209</ele>
        <time>2017-05-04T12:09:16.000Z</time>
      </trkpt>
      <trkpt lat="46.22016" lon="4.84231">
        <ele>208</ele>
        <time>2017-05-04T12:09:17.000Z</time>
      </trkpt>
      <trkpt lat="46.22016" lon="4.84229">
        <ele>209</ele>
        <time>2017-05-04T12:09:18.000Z</time>
      </trkpt>
      <trkpt lat="46.22016" lon="4.84227">
        <ele>208</ele>
        <time>2017-05-04T12:09:19.000Z</time>
      </trkpt>
      <trkpt lat="46.22016" lon="4.84225">
        <ele>208</ele>
        <time>2017-05-04T12:09:20.000Z</time>
      </trkpt>
      <trkpt lat="46.22016" lon="4.84224">
        <ele>208</ele>
        <time>2017-05-04T12:09:21.000Z</time>
      </trkpt>
      <trkpt lat="46.22016" lon="4.84222">
        <ele>207</ele>
        <time>2017-05-04T12:09:22.000Z</time>
      </trkpt>
      <trkpt lat="46.22016" lon="4.8422">
        <ele>207</ele>
        <time>2017-05-04T12:09:23.000Z</time>
      </trkpt>
      <trkpt lat="46.22016" lon="4.84218">
        <ele>207</ele>
        <time>2017-05-04T12:09:24.000Z</time>
      </trkpt>
      <trkpt lat="46.22016" lon="4.84216">
        <ele>207</ele>
        <time>2017-05-04T12:09:25.000Z</time>
      </trkpt>
      <trkpt lat="46.22016" lon="4.84215">
        <ele>207</ele>
        <time>2017-05-04T12:09:26.000Z</time>
      </trkpt>
      <trkpt lat="46.22016" lon="4.84213">
        <ele>207</ele>
        <time>2017-05-04T12:09:27.000Z</time>
      </trkpt>
      <trkpt lat="46.22016" lon="4.84211">
        <ele>206</ele>
        <time>2017-05-04T12:09:28.000Z</time>
      </trkpt>
      <trkpt lat="46.22016" lon="4.8421">
        <ele>206</ele>
        <time>2017-05-04T12:09:29.000Z</time>
      </trkpt>
      <trkpt lat="46.22017" lon="4.84208">
        <ele>206</ele>
        <time>2017-05-04T12:09:30.000Z</time>
      </trkpt>
      <trkpt lat="46.22017" lon="4.84206">
        <ele>207</ele>
        <time>2017-05-04T12:09:31.000Z</time>
      </trkpt>
      <trkpt lat="46.22018" lon="4.84205">
        <ele>207</ele>
        <time>2017-05-04T12:09:32.000Z</time>
      </trkpt>
      <trkpt lat="46.22018" lon="4.84203">
        <ele>207</ele>
        <time>2017-05-04T12:09:33.000Z</time>
      </trkpt>
      <trkpt lat="46.22018" lon="4.84202">
        <ele>207</ele>
        <time>2017-05-04T12:09:34.000Z</time>
      </trkpt>
      <trkpt lat="46.22018" lon="4.842">
        <ele>207</ele>
        <time>2017-05-04T12:09:35.000Z</time>
      </trkpt>
      <trkpt lat="46.22018" lon="4.84198">
        <ele>207</ele>
        <time>2017-05-04T12:09:36.000Z</time>
      </trkpt>
      <trkpt lat="46.22019" lon="4.84197">
        <ele>207</ele>
        <time>2017-05-04T12:09:37.000Z</time>
      </trkpt>
      <trkpt lat="46.22019" lon="4.84196">
        <ele>207</ele>
        <time>2017-05-04T12:09:38.000Z</time>
      </trkpt>
      <trkpt lat="46.2202" lon="4.84194">
        <ele>206</ele>
        <time>2017-05-04T12:09:39.000Z</time>
      </trkpt>
      <trkpt lat="46.2202" lon="4.84193">
        <ele>206</ele>
        <time>2017-05-04T12:09:40.000Z</time>
      </trkpt>
      <trkpt lat="46.2202" lon="4.84191">
        <ele>206</ele>
        <time>2017-05-04T12:09:41.000Z</time>
      </trkpt>
      <trkpt lat="46.22021" lon="4.8419">
        <ele>206</ele>
        <time>2017-05-04T12:09:42.000Z</time>
      </trkpt>
      <trkpt lat="46.22021" lon="4.84189">
        <ele>206</ele>
        <time>2017-05-04T12:09:43.000Z</time>
      </trkpt>
      <trkpt lat="46.22022" lon="4.84187">
        <ele>205</ele>
        <time>2017-05-04T12:09:44.000Z</time>
      </trkpt>
      <trkpt lat="46.22022" lon="4.84185">
        <ele>205</ele>
        <time>2017-05-04T12:09:45.000Z</time>
      </trkpt>
      <trkpt lat="46.22023" lon="4.84184">
        <ele>205</ele>
        <time>2017-05-04T12:09:46.000Z</time>
      </trkpt>
      <trkpt lat="46.22023" lon="4.84182">
        <ele>205</ele>
        <time>2017-05-04T12:09:47.000Z</time>
      </trkpt>
      <trkpt lat="46.22023" lon="4.8418">
        <ele>205</ele>
        <time>2017-05-04T12:09:48.000Z</time>
      </trkpt>
      <trkpt lat="46.22024" lon="4.84179">
        <ele>205</ele>
        <time>2017-05-04T12:09:49.000Z</time>
      </trkpt>
      <trkpt lat="46.22024" lon="4.84178">
        <ele>204</ele>
        <time>2017-05-04T12:09:50.000Z</time>
      </trkpt>
      <trkpt lat="46.22025" lon="4.84177">
        <ele>204</ele>
        <time>2017-05-04T12:09:51.000Z</time>
      </trkpt>
      <trkpt lat="46.22025" lon="4.84176">
        <ele>204</ele>
        <time>2017-05-04T12:09:52.000Z</time>
      </trkpt>
      <trkpt lat="46.22025" lon="4.84175">
        <ele>204</ele>
        <time>2017-05-04T12:09:53.000Z</time>
      </trkpt>
      <trkpt lat="46.22026" lon="4.84173">
        <ele>204</ele>
        <time>2017-05-04T12:09:54.000Z</time>
      </trkpt>
      <trkpt lat="46.22027" lon="4.84172">
        <ele>204</ele>
        <time>2017-05-04T12:09:55.000Z</time>
      </trkpt>
      <trkpt lat="46.22027" lon="4.8417">
        <ele>203</ele>
        <time>2017-05-04T12:09:56.000Z</time>
      </trkpt>
      <trkpt lat="46.22027" lon="4.84169">
        <ele>203</ele>
        <time>2017-05-04T12:09:57.000Z</time>
      </trkpt>
      <trkpt lat="46.22028" lon="4.84167">
        <ele>203</ele>
        <time>2017-05-04T12:09:58.000Z</time>
      </trkpt>
      <trkpt lat="46.22028" lon="4.84165">
        <ele>203</ele>
        <time>2017-05-04T12:09:59.000Z</time>
      </trkpt>
      <trkpt lat="46.22029" lon="4.84164">
        <ele>203</ele>
        <time>2017-05-04T12:10:00.000Z</time>
      </trkpt>
      <trkpt lat="46.22029" lon="4.84162">
        <ele>203</ele>
        <time>2017-05-04T12:10:01.000Z</time>
      </trkpt>
      <trkpt lat="46.2203" lon="4.8416">
        <ele>203</ele>
        <time>2017-05-04T12:10:02.000Z</time>
      </trkpt>
      <trkpt lat="46.2203" lon="4.84159">
        <ele>203</ele>
        <time>2017-05-04T12:10:03.000Z</time>
      </trkpt>
      <trkpt lat="46.22031" lon="4.84157">
        <ele>203</ele>
        <time>2017-05-04T12:10:04.000Z</time>
      </trkpt>
      <trkpt lat="46.22031" lon="4.84156">
        <ele>203</ele>
        <time>2017-05-04T12:10:05.000Z</time>
      </trkpt>
      <trkpt lat="46.22031" lon="4.84154">
        <ele>202</ele>
        <time>2017-05-04T12:10:06.000Z</time>
      </trkpt>
      <trkpt lat="46.22032" lon="4.84152">
        <ele>202</ele>
        <time>2017-05-04T12:10:07.000Z</time>
      </trkpt>
      <trkpt lat="46.22032" lon="4.84151">
        <ele>202</ele>
        <time>2017-05-04T12:10:08.000Z</time>
      </trkpt>
      <trkpt lat="46.22032" lon="4.84149">
        <ele>202</ele>
        <time>2017-05-04T12:10:09.000Z</time>
      </trkpt>
      <trkpt lat="46.22033" lon="4.84147">
        <ele>202</ele>
        <time>2017-05-04T12:10:10.000Z</time>
      </trkpt>
      <trkpt lat="46.22033" lon="4.84146">
        <ele>202</ele>
        <time>2017-05-04T12:10:11.000Z</time>
      </trkpt>
      <trkpt lat="46.22033" lon="4.84144">
        <ele>202</ele>
        <time>2017-05-04T12:10:12.000Z</time>
      </trkpt>
      <trkpt lat="46.22034" lon="4.84143">
        <ele>202</ele>
        <time>2017-05-04T12:10:13.000Z</time>
      </trkpt>
      <trkpt lat="46.22035" lon="4.84141">
        <ele>203</ele>
        <time>2017-05-04T12:10:14.000Z</time>
      </trkpt>
      <trkpt lat="46.22036" lon="4.8414">
        <ele>203</ele>
        <time>2017-05-04T12:10:15.000Z</time>
      </trkpt>
      <trkpt lat="46.22036" lon="4.84139">
        <ele>203</ele>
        <time>2017-05-04T12:10:16.000Z</time>
      </trkpt>
      <trkpt lat="46.22037" lon="4.84137">
        <ele>203</ele>
        <time>2017-05-04T12:10:17.000Z</time>
      </trkpt>
      <trkpt lat="46.22038" lon="4.84136">
        <ele>203</ele>
        <time>2017-05-04T12:10:18.000Z</time>
      </trkpt>
      <trkpt lat="46.22039" lon="4.84136">
        <ele>203</ele>
        <time>2017-05-04T12:10:19.000Z</time>
      </trkpt>
      <trkpt lat="46.2204" lon="4.84135">
        <ele>203</ele>
        <time>2017-05-04T12:10:20.000Z</time>
      </trkpt>
      <trkpt lat="46.22041" lon="4.84134">
        <ele>203</ele>
        <time>2017-05-04T12:10:21.000Z</time>
      </trkpt>
      <trkpt lat="46.22042" lon="4.84133">
        <ele>203</ele>
        <time>2017-05-04T12:10:22.000Z</time>
      </trkpt>
      <trkpt lat="46.22043" lon="4.84133">
        <ele>203</ele>
        <time>2017-05-04T12:10:23.000Z</time>
      </trkpt>
      <trkpt lat="46.22044" lon="4.84132">
        <ele>203</ele>
        <time>2017-05-04T12:10:24.000Z</time>
      </trkpt>
      <trkpt lat="46.22045" lon="4.84132">
        <ele>203</ele>
        <time>2017-05-04T12:10:25.000Z</time>
      </trkpt>
      <trkpt lat="46.22046" lon="4.84131">
        <ele>203</ele>
        <time>2017-05-04T12:10:26.000Z</time>
      </trkpt>
      <trkpt lat="46.22048" lon="4.84131">
        <ele>204</ele>
        <time>2017-05-04T12:10:27.000Z</time>
      </trkpt>
      <trkpt lat="46.22049" lon="4.84131">
        <ele>204</ele>
        <time>2017-05-04T12:10:28.000Z</time>
      </trkpt>
      <trkpt lat="46.2205" lon="4.84132">
        <ele>203</ele>
        <time>2017-05-04T12:10:29.000Z</time>
      </trkpt>
      <trkpt lat="46.22051" lon="4.84132">
        <ele>204</ele>
        <time>2017-05-04T12:10:30.000Z</time>
      </trkpt>
      <trkpt lat="46.22052" lon="4.84132">
        <ele>204</ele>
        <time>2017-05-04T12:10:31.000Z</time>
      </trkpt>
      <trkpt lat="46.22053" lon="4.84132">
        <ele>204</ele>
        <time>2017-05-04T12:10:32.000Z</time>
      </trkpt>
      <trkpt lat="46.22054" lon="4.84132">
        <ele>204</ele>
        <time>2017-05-04T12:10:33.000Z</time>
      </trkpt>
      <trkpt lat="46.22056" lon="4.84132">
        <ele>204</ele>
        <time>2017-05-04T12:10:34.000Z</time>
      </trkpt>
      <trkpt lat="46.22057" lon="4.84132">
        <ele>205</ele>
        <time>2017-05-04T12:10:35.000Z</time>
      </trkpt>
      <trkpt lat="46.22058" lon="4.84133">
        <ele>204</ele>
        <time>2017-05-04T12:10:36.000Z</time>
      </trkpt>
      <trkpt lat="46.22059" lon="4.84133">
        <ele>204</ele>
        <time>2017-05-04T12:10:37.000Z</time>
      </trkpt>
      <trkpt lat="46.2206" lon="4.84134">
        <ele>204</ele>
        <time>2017-05-04T12:10:38.000Z</time>
      </trkpt>
      <trkpt lat="46.22061" lon="4.84134">
        <ele>204</ele>
        <time>2017-05-04T12:10:39.000Z</time>
      </trkpt>
      <trkpt lat="46.22062" lon="4.84135">
        <ele>204</ele>
        <time>2017-05-04T12:10:40.000Z</time>
      </trkpt>
      <trkpt lat="46.22063" lon="4.84135">
        <ele>204</ele>
        <time>2017-05-04T12:10:41.000Z</time>
      </trkpt>
      <trkpt lat="46.22064" lon="4.84136">
        <ele>204</ele>
        <time>2017-05-04T12:10:42.000Z</time>
      </trkpt>
      <trkpt lat="46.22065" lon="4.84136">
        <ele>204</ele>
        <time>2017-05-04T12:10:43.000Z</time>
      </trkpt>
      <trkpt lat="46.22066" lon="4.84137">
        <ele>204</ele>
        <time>2017-05-04T12:10:44.000Z</time>
      </trkpt>
      <trkpt lat="46.22068" lon="4.84137">
        <ele>204</ele>
        <time>2017-05-04T12:10:45.000Z</time>
      </trkpt>
      <trkpt lat="46.22069" lon="4.84138">
        <ele>204</ele>
        <time>2017-05-04T12:10:46.000Z</time>
      </trkpt>
      <trkpt lat="46.2207" lon="4.84138">
        <ele>204</ele>
        <time>2017-05-04T12:10:47.000Z</time>
      </trkpt>
      <trkpt lat="46.22071" lon="4.84139">
        <ele>204</ele>
        <time>2017-05-04T12:10:48.000Z</time>
      </trkpt>
      <trkpt lat="46.22072" lon="4.8414">
        <ele>204</ele>
        <time>2017-05-04T12:10:49.000Z</time>
      </trkpt>
      <trkpt lat="46.22073" lon="4.8414">
        <ele>204</ele>
        <time>2017-05-04T12:10:50.000Z</time>
      </trkpt>
      <trkpt lat="46.22074" lon="4.8414">
        <ele>204</ele>
        <time>2017-05-04T12:10:51.000Z</time>
      </trkpt>
      <trkpt lat="46.22075" lon="4.84141">
        <ele>205</ele>
        <time>2017-05-04T12:10:52.000Z</time>
      </trkpt>
      <trkpt lat="46.22076" lon="4.84141">
        <ele>205</ele>
        <time>2017-05-04T12:10:53.000Z</time>
      </trkpt>
      <trkpt lat="46.22077" lon="4.84142">
        <ele>205</ele>
        <time>2017-05-04T12:10:54.000Z</time>
      </trkpt>
      <trkpt lat="46.22078" lon="4.84143">
        <ele>205</ele>
        <time>2017-05-04T12:10:55.000Z</time>
      </trkpt>
      <trkpt lat="46.2208" lon="4.84143">
        <ele>205</ele>
        <time>2017-05-04T12:10:56.000Z</time>
      </trkpt>
      <trkpt lat="46.22081" lon="4.84144">
        <ele>205</ele>
        <time>2017-05-04T12:10:57.000Z</time>
      </trkpt>
      <trkpt lat="46.22082" lon="4.84144">
        <ele>205</ele>
        <time>2017-05-04T12:10:58.000Z</time>
      </trkpt>
      <trkpt lat="46.22083" lon="4.84145">
        <ele>205</ele>
        <time>2017-05-04T12:10:59.000Z</time>
      </trkpt>
      <trkpt lat="46.22084" lon="4.84145">
        <ele>205</ele>
        <time>2017-05-04T12:11:00.000Z</time>
      </trkpt>
      <trkpt lat="46.22085" lon="4.84146">
        <ele>205</ele>
        <time>2017-05-04T12:11:01.000Z</time>
      </trkpt>
      <trkpt lat="46.22086" lon="4.84146">
        <ele>205</ele>
        <time>2017-05-04T12:11:02.000Z</time>
      </trkpt>
      <trkpt lat="46.22087" lon="4.84147">
        <ele>205</ele>
        <time>2017-05-04T12:11:03.000Z</time>
      </trkpt>
      <trkpt lat="46.22089" lon="4.84148">
        <ele>205</ele>
        <time>2017-05-04T12:11:04.000Z</time>
      </trkpt>
      <trkpt lat="46.2209" lon="4.84148">
        <ele>205</ele>
        <time>2017-05-04T12:11:05.000Z</time>
      </trkpt>
      <trkpt lat="46.22091" lon="4.84149">
        <ele>205</ele>
        <time>2017-05-04T12:11:06.000Z</time>
      </trkpt>
      <trkpt lat="46.22092" lon="4.84149">
        <ele>204</ele>
        <time>2017-05-04T12:11:07.000Z</time>
      </trkpt>
      <trkpt lat="46.22093" lon="4.8415">
        <ele>204</ele>
        <time>2017-05-04T12:11:08.000Z</time>
      </trkpt>
      <trkpt lat="46.22094" lon="4.8415">
        <ele>204</ele>
        <time>2017-05-04T12:11:09.000Z</time>
      </trkpt>
      <trkpt lat="46.22096" lon="4.84151">
        <ele>204</ele>
        <time>2017-05-04T12:11:10.000Z</time>
      </trkpt>
      <trkpt lat="46.22097" lon="4.84151">
        <ele>205</ele>
        <time>2017-05-04T12:11:11.000Z</time>
      </trkpt>
      <trkpt lat="46.22098" lon="4.84152">
        <ele>204</ele>
        <time>2017-05-04T12:11:12.000Z</time>
      </trkpt>
      <trkpt lat="46.22099" lon="4.84152">
        <ele>204</ele>
        <time>2017-05-04T12:11:13.000Z</time>
      </trkpt>
      <trkpt lat="46.221" lon="4.84153">
        <ele>205</ele>
        <time>2017-05-04T12:11:14.000Z</time>
      </trkpt>
      <trkpt lat="46.22101" lon="4.84153">
        <ele>205</ele>
        <time>2017-05-04T12:11:15.000Z</time>
      </trkpt>
      <trkpt lat="46.22102" lon="4.84153">
        <ele>205</ele>
        <time>2017-05-04T12:11:16.000Z</time>
      </trkpt>
      <trkpt lat="46.22103" lon="4.84154">
        <ele>205</ele>
        <time>2017-05-04T12:11:17.000Z</time>
      </trkpt>
      <trkpt lat="46.22104" lon="4.84154">
        <ele>205</ele>
        <time>2017-05-04T12:11:18.000Z</time>
      </trkpt>
      <trkpt lat="46.22105" lon="4.84155">
        <ele>205</ele>
        <time>2017-05-04T12:11:19.000Z</time>
      </trkpt>
      <trkpt lat="46.22107" lon="4.84156">
        <ele>205</ele>
        <time>2017-05-04T12:11:20.000Z</time>
      </trkpt>
      <trkpt lat="46.22108" lon="4.84156">
        <ele>205</ele>
        <time>2017-05-04T12:11:21.000Z</time>
      </trkpt>
      <trkpt lat="46.22109" lon="4.84156">
        <ele>206</ele>
        <time>2017-05-04T12:11:22.000Z</time>
      </trkpt>
      <trkpt lat="46.2211" lon="4.84157">
        <ele>206</ele>
        <time>2017-05-04T12:11:23.000Z</time>
      </trkpt>
      <trkpt lat="46.22111" lon="4.84157">
        <ele>206</ele>
        <time>2017-05-04T12:11:24.000Z</time>
      </trkpt>
      <trkpt lat="46.22112" lon="4.84158">
        <ele>206</ele>
        <time>2017-05-04T12:11:25.000Z</time>
      </trkpt>
      <trkpt lat="46.22113" lon="4.84158">
        <ele>206</ele>
        <time>2017-05-04T12:11:26.000Z</time>
      </trkpt>
      <trkpt lat="46.22114" lon="4.84158">
        <ele>205</ele>
        <time>2017-05-04T12:11:27.000Z</time>
      </trkpt>
      <trkpt lat="46.22115" lon="4.84159">
        <ele>205</ele>
        <time>2017-05-04T12:11:28.000Z</time>
      </trkpt>
      <trkpt lat="46.22116" lon="4.84159">
        <ele>205</ele>
        <time>2017-05-04T12:11:29.000Z</time>
      </trkpt>
      <trkpt lat="46.22117" lon="4.8416">
        <ele>206</ele>
        <time>2017-05-04T12:11:30.000Z</time>
      </trkpt>
      <trkpt lat="46.22118" lon="4.8416">
        <ele>206</ele>
        <time>2017-05-04T12:11:31.000Z</time>
      </trkpt>
      <trkpt lat="46.22119" lon="4.8416">
        <ele>206</ele>
        <time>2017-05-04T12:11:32.000Z</time>
      </trkpt>
      <trkpt lat="46.2212" lon="4.84161">
        <ele>206</ele>
        <time>2017-05-04T12:11:33.000Z</time>
      </trkpt>
      <trkpt lat="46.22121" lon="4.84161">
        <ele>205</ele>
        <time>2017-05-04T12:11:34.000Z</time>
      </trkpt>
      <trkpt lat="46.22122" lon="4.84161">
        <ele>205</ele>
        <time>2017-05-04T12:11:35.000Z</time>
      </trkpt>
      <trkpt lat="46.22124" lon="4.84162">
        <ele>206</ele>
        <time>2017-05-04T12:11:36.000Z</time>
      </trkpt>
      <trkpt lat="46.22125" lon="4.84162">
        <ele>206</ele>
        <time>2017-05-04T12:11:37.000Z</time>
      </trkpt>
      <trkpt lat="46.22126" lon="4.84163">
        <ele>206</ele>
        <time>2017-05-04T12:11:38.000Z</time>
      </trkpt>
      <trkpt lat="46.22127" lon="4.84163">
        <ele>206</ele>
        <time>2017-05-04T12:11:39.000Z</time>
      </trkpt>
      <trkpt lat="46.22129" lon="4.84164">
        <ele>206</ele>
        <time>2017-05-04T12:11:40.000Z</time>
      </trkpt>
      <trkpt lat="46.2213" lon="4.84164">
        <ele>206</ele>
        <time>2017-05-04T12:11:41.000Z</time>
      </trkpt>
      <trkpt lat="46.22131" lon="4.84165">
        <ele>206</ele>
        <time>2017-05-04T12:11:42.000Z</time>
      </trkpt>
      <trkpt lat="46.22133" lon="4.84165">
        <ele>206</ele>
        <time>2017-05-04T12:11:43.000Z</time>
      </trkpt>
      <trkpt lat="46.22134" lon="4.84165">
        <ele>205</ele>
        <time>2017-05-04T12:11:44.000Z</time>
      </trkpt>
      <trkpt lat="46.22135" lon="4.84166">
        <ele>206</ele>
        <time>2017-05-04T12:11:45.000Z</time>
      </trkpt>
      <trkpt lat="46.22136" lon="4.84166">
        <ele>205</ele>
        <time>2017-05-04T12:11:46.000Z</time>
      </trkpt>
      <trkpt lat="46.22137" lon="4.84166">
        <ele>205</ele>
        <time>2017-05-04T12:11:47.000Z</time>
      </trkpt>
      <trkpt lat="46.22139" lon="4.84166">
        <ele>205</ele>
        <time>2017-05-04T12:11:48.000Z</time>
      </trkpt>
      <trkpt lat="46.2214" lon="4.84167">
        <ele>206</ele>
        <time>2017-05-04T12:11:49.000Z</time>
      </trkpt>
      <trkpt lat="46.22141" lon="4.84167">
        <ele>206</ele>
        <time>2017-05-04T12:11:50.000Z</time>
      </trkpt>
      <trkpt lat="46.22142" lon="4.84168">
        <ele>205</ele>
        <time>2017-05-04T12:11:51.000Z</time>
      </trkpt>
      <trkpt lat="46.22143" lon="4.84168">
        <ele>205</ele>
        <time>2017-05-04T12:11:52.000Z</time>
      </trkpt>
      <trkpt lat="46.22144" lon="4.84168">
        <ele>206</ele>
        <time>2017-05-04T12:11:53.000Z</time>
      </trkpt>
      <trkpt lat="46.22145" lon="4.84168">
        <ele>206</ele>
        <time>2017-05-04T12:11:54.000Z</time>
      </trkpt>
      <trkpt lat="46.22147" lon="4.84168">
        <ele>206</ele>
        <time>2017-05-04T12:11:55.000Z</time>
      </trkpt>
      <trkpt lat="46.22148" lon="4.84169">
        <ele>205</ele>
        <time>2017-05-04T12:11:56.000Z</time>
      </trkpt>
      <trkpt lat="46.22149" lon="4.84169">
        <ele>205</ele>
        <time>2017-05-04T12:11:57.000Z</time>
      </trkpt>
      <trkpt lat="46.2215" lon="4.84169">
        <ele>206</ele>
        <time>2017-05-04T12:11:58.000Z</time>
      </trkpt>
      <trkpt lat="46.2215" lon="4.84169">
        <ele>206</ele>
        <time>2017-05-04T12:11:59.000Z</time>
      </trkpt>
      <trkpt lat="46.22151" lon="4.84169">
        <ele>206</ele>
        <time>2017-05-04T12:12:00.000Z</time>
      </trkpt>
      <trkpt lat="46.22152" lon="4.84169">
        <ele>206</ele>
        <time>2017-05-04T12:12:01.000Z</time>
      </trkpt>
      <trkpt lat="46.22154" lon="4.8417">
        <ele>206</ele>
        <time>2017-05-04T12:12:02.000Z</time>
      </trkpt>
      <trkpt lat="46.22155" lon="4.8417">
        <ele>205</ele>
        <time>2017-05-04T12:12:03.000Z</time>
      </trkpt>
      <trkpt lat="46.22156" lon="4.8417">
        <ele>205</ele>
        <time>2017-05-04T12:12:04.000Z</time>
      </trkpt>
      <trkpt lat="46.22157" lon="4.8417">
        <ele>205</ele>
        <time>2017-05-04T12:12:05.000Z</time>
      </trkpt>
      <trkpt lat="46.22158" lon="4.84171">
        <ele>205</ele>
        <time>2017-05-04T12:12:06.000Z</time>
      </trkpt>
      <trkpt lat="46.22159" lon="4.84171">
        <ele>205</ele>
        <time>2017-05-04T12:12:07.000Z</time>
      </trkpt>
      <trkpt lat="46.2216" lon="4.84171">
        <ele>205</ele>
        <time>2017-05-04T12:12:08.000Z</time>
      </trkpt>
      <trkpt lat="46.22162" lon="4.84172">
        <ele>205</ele>
        <time>2017-05-04T12:12:09.000Z</time>
      </trkpt>
      <trkpt lat="46.22163" lon="4.84172">
        <ele>205</ele>
        <time>2017-05-04T12:12:10.000Z</time>
      </trkpt>
      <trkpt lat="46.22164" lon="4.84172">
        <ele>205</ele>
        <time>2017-05-04T12:12:11.000Z</time>
      </trkpt>
      <trkpt lat="46.22165" lon="4.84172">
        <ele>205</ele>
        <time>2017-05-04T12:12:12.000Z</time>
      </trkpt>
      <trkpt lat="46.22166" lon="4.84172">
        <ele>205</ele>
        <time>2017-05-04T12:12:13.000Z</time>
      </trkpt>
      <trkpt lat="46.22167" lon="4.84172">
        <ele>205</ele>
        <time>2017-05-04T12:12:14.000Z</time>
      </trkpt>
      <trkpt lat="46.22168" lon="4.84172">
        <ele>204</ele>
        <time>2017-05-04T12:12:15.000Z</time>
      </trkpt>
      <trkpt lat="46.22169" lon="4.84172">
        <ele>205</ele>
        <time>2017-05-04T12:12:16.000Z</time>
      </trkpt>
      <trkpt lat="46.2217" lon="4.84172">
        <ele>204</ele>
        <time>2017-05-04T12:12:17.000Z</time>
      </trkpt>
      <trkpt lat="46.22171" lon="4.84172">
        <ele>204</ele>
        <time>2017-05-04T12:12:18.000Z</time>
      </trkpt>
      <trkpt lat="46.22172" lon="4.84172">
        <ele>203</ele>
        <time>2017-05-04T12:12:19.000Z</time>
      </trkpt>
      <trkpt lat="46.22173" lon="4.84172">
        <ele>203</ele>
        <time>2017-05-04T12:12:20.000Z</time>
      </trkpt>
      <trkpt lat="46.22174" lon="4.84172">
        <ele>203</ele>
        <time>2017-05-04T12:12:21.000Z</time>
      </trkpt>
      <trkpt lat="46.22176" lon="4.84172">
        <ele>202</ele>
        <time>2017-05-04T12:12:22.000Z</time>
      </trkpt>
      <trkpt lat="46.22177" lon="4.84171">
        <ele>202</ele>
        <time>2017-05-04T12:12:23.000Z</time>
      </trkpt>
      <trkpt lat="46.22178" lon="4.84171">
        <ele>202</ele>
        <time>2017-05-04T12:12:24.000Z</time>
      </trkpt>
      <trkpt lat="46.22179" lon="4.84171">
        <ele>202</ele>
        <time>2017-05-04T12:12:25.000Z</time>
      </trkpt>
      <trkpt lat="46.2218" lon="4.8417">
        <ele>202</ele>
        <time>2017-05-04T12:12:26.000Z</time>
      </trkpt>
      <trkpt lat="46.22181" lon="4.8417">
        <ele>202</ele>
        <time>2017-05-04T12:12:27.000Z</time>
      </trkpt>
      <trkpt lat="46.22182" lon="4.8417">
        <ele>202</ele>
        <time>2017-05-04T12:12:28.000Z</time>
      </trkpt>
      <trkpt lat="46.22183" lon="4.8417">
        <ele>201</ele>
        <time>2017-05-04T12:12:29.000Z</time>
      </trkpt>
      <trkpt lat="46.22184" lon="4.84169">
        <ele>201</ele>
        <time>2017-05-04T12:12:30.000Z</time>
      </trkpt>
      <trkpt lat="46.22186" lon="4.84169">
        <ele>201</ele>
        <time>2017-05-04T12:12:31.000Z</time>
      </trkpt>
      <trkpt lat="46.22187" lon="4.8417">
        <ele>200</ele>
        <time>2017-05-04T12:12:32.000Z</time>
      </trkpt>
      <trkpt lat="46.22187" lon="4.84171">
        <ele>200</ele>
        <time>2017-05-04T12:12:33.000Z</time>
      </trkpt>
      <trkpt lat="46.22188" lon="4.84172">
        <ele>201</ele>
        <time>2017-05-04T12:12:34.000Z</time>
      </trkpt>
      <trkpt lat="46.22189" lon="4.84173">
        <ele>201</ele>
        <time>2017-05-04T12:12:35.000Z</time>
      </trkpt>
      <trkpt lat="46.22189" lon="4.84174">
        <ele>201</ele>
        <time>2017-05-04T12:12:36.000Z</time>
      </trkpt>
      <trkpt lat="46.22189" lon="4.84176">
        <ele>201</ele>
        <time>2017-05-04T12:12:37.000Z</time>
      </trkpt>
      <trkpt lat="46.2219" lon="4.84177">
        <ele>201</ele>
        <time>2017-05-04T12:12:38.000Z</time>
      </trkpt>
      <trkpt lat="46.2219" lon="4.84179">
        <ele>201</ele>
        <time>2017-05-04T12:12:39.000Z</time>
      </trkpt>
      <trkpt lat="46.2219" lon="4.8418">
        <ele>201</ele>
        <time>2017-05-04T12:12:40.000Z</time>
      </trkpt>
      <trkpt lat="46.2219" lon="4.84181">
        <ele>201</ele>
        <time>2017-05-04T12:12:41.000Z</time>
      </trkpt>
      <trkpt lat="46.2219" lon="4.84182">
        <ele>202</ele>
        <time>2017-05-04T12:12:42.000Z</time>
      </trkpt>
      <trkpt lat="46.22189" lon="4.84183">
        <ele>202</ele>
        <time>2017-05-04T12:12:43.000Z</time>
      </trkpt>
      <trkpt lat="46.22189" lon="4.84184">
        <ele>202</ele>
        <time>2017-05-04T12:12:44.000Z</time>
      </trkpt>
      <trkpt lat="46.22189" lon="4.84185">
        <ele>202</ele>
        <time>2017-05-04T12:12:45.000Z</time>
      </trkpt>
      <trkpt lat="46.22189" lon="4.84186">
        <ele>202</ele>
        <time>2017-05-04T12:12:46.000Z</time>
      </trkpt>
      <trkpt lat="46.22189" lon="4.84187">
        <ele>202</ele>
        <time>2017-05-04T12:12:47.000Z</time>
      </trkpt>
      <trkpt lat="46.22189" lon="4.84189">
        <ele>202</ele>
        <time>2017-05-04T12:12:48.000Z</time>
      </trkpt>
      <trkpt lat="46.22189" lon="4.8419">
        <ele>202</ele>
        <time>2017-05-04T12:12:49.000Z</time>
      </trkpt>
      <trkpt lat="46.22188" lon="4.84192">
        <ele>202</ele>
        <time>2017-05-04T12:12:50.000Z</time>
      </trkpt>
      <trkpt lat="46.22188" lon="4.84193">
        <ele>202</ele>
        <time>2017-05-04T12:12:51.000Z</time>
      </trkpt>
      <trkpt lat="46.22188" lon="4.84195">
        <ele>202</ele>
        <time>2017-05-04T12:12:52.000Z</time>
      </trkpt>
      <trkpt lat="46.22188" lon="4.84196">
        <ele>202</ele>
        <time>2017-05-04T12:12:53.000Z</time>
      </trkpt>
      <trkpt lat="46.22187" lon="4.84197">
        <ele>202</ele>
        <time>2017-05-04T12:12:54.000Z</time>
      </trkpt>
      <trkpt lat="46.22187" lon="4.84199">
        <ele>202</ele>
        <time>2017-05-04T12:12:55.000Z</time>
      </trkpt>
      <trkpt lat="46.22187" lon="4.842">
        <ele>203</ele>
        <time>2017-05-04T12:12:56.000Z</time>
      </trkpt>
      <trkpt lat="46.22187" lon="4.84202">
        <ele>203</ele>
        <time>2017-05-04T12:12:57.000Z</time>
      </trkpt>
      <trkpt lat="46.22187" lon="4.84203">
        <ele>202</ele>
        <time>2017-05-04T12:12:58.000Z</time>
      </trkpt>
      <trkpt lat="46.22186" lon="4.84205">
        <ele>202</ele>
        <time>2017-05-04T12:12:59.000Z</time>
      </trkpt>
      <trkpt lat="46.22186" lon="4.84206">
        <ele>202</ele>
        <time>2017-05-04T12:13:00.000Z</time>
      </trkpt>
      <trkpt lat="46.22186" lon="4.84207">
        <ele>202</ele>
        <time>2017-05-04T12:13:01.000Z</time>
      </trkpt>
      <trkpt lat="46.22186" lon="4.84209">
        <ele>202</ele>
        <time>2017-05-04T12:13:02.000Z</time>
      </trkpt>
      <trkpt lat="46.22185" lon="4.8421">
        <ele>202</ele>
        <time>2017-05-04T12:13:03.000Z</time>
      </trkpt>
      <trkpt lat="46.22185" lon="4.84212">
        <ele>202</ele>
        <time>2017-05-04T12:13:04.000Z</time>
      </trkpt>
      <trkpt lat="46.22185" lon="4.84213">
        <ele>202</ele>
        <time>2017-05-04T12:13:05.000Z</time>
      </trkpt>
      <trkpt lat="46.22185" lon="4.84215">
        <ele>202</ele>
        <time>2017-05-04T12:13:06.000Z</time>
      </trkpt>
      <trkpt lat="46.22184" lon="4.84217">
        <ele>203</ele>
        <time>2017-05-04T12:13:07.000Z</time>
      </trkpt>
      <trkpt lat="46.22184" lon="4.84218">
        <ele>203</ele>
        <time>2017-05-04T12:13:08.000Z</time>
      </trkpt>
      <trkpt lat="46.22184" lon="4.8422">
        <ele>202</ele>
        <time>2017-05-04T12:13:09.000Z</time>
      </trkpt>
      <trkpt lat="46.22184" lon="4.84221">
        <ele>203</ele>
        <time>2017-05-04T12:13:10.000Z</time>
      </trkpt>
      <trkpt lat="46.22183" lon="4.84223">
        <ele>203</ele>
        <time>2017-05-04T12:13:11.000Z</time>
      </trkpt>
      <trkpt lat="46.22183" lon="4.84224">
        <ele>203</ele>
        <time>2017-05-04T12:13:12.000Z</time>
      </trkpt>
      <trkpt lat="46.22184" lon="4.84226">
        <ele>203</ele>
        <time>2017-05-04T12:13:13.000Z</time>
      </trkpt>
      <trkpt lat="46.22185" lon="4.84227">
        <ele>203</ele>
        <time>2017-05-04T12:13:14.000Z</time>
      </trkpt>
      <trkpt lat="46.22186" lon="4.84227">
        <ele>203</ele>
        <time>2017-05-04T12:13:15.000Z</time>
      </trkpt>
      <trkpt lat="46.22187" lon="4.84228">
        <ele>203</ele>
        <time>2017-05-04T12:13:16.000Z</time>
      </trkpt>
      <trkpt lat="46.22188" lon="4.84228">
        <ele>203</ele>
        <time>2017-05-04T12:13:17.000Z</time>
      </trkpt>
      <trkpt lat="46.22189" lon="4.84227">
        <ele>203</ele>
        <time>2017-05-04T12:13:18.000Z</time>
      </trkpt>
      <trkpt lat="46.2219" lon="4.84227">
        <ele>203</ele>
        <time>2017-05-04T12:13:19.000Z</time>
      </trkpt>
      <trkpt lat="46.22191" lon="4.84226">
        <ele>203</ele>
        <time>2017-05-04T12:13:20.000Z</time>
      </trkpt>
      <trkpt lat="46.22191" lon="4.84226">
        <ele>203</ele>
        <time>2017-05-04T12:13:21.000Z</time>
      </trkpt>
      <trkpt lat="46.22192" lon="4.84225">
        <ele>203</ele>
        <time>2017-05-04T12:13:22.000Z</time>
      </trkpt>
      <trkpt lat="46.22193" lon="4.84225">
        <ele>203</ele>
        <time>2017-05-04T12:13:23.000Z</time>
      </trkpt>
      <trkpt lat="46.22194" lon="4.84225">
        <ele>203</ele>
        <time>2017-05-04T12:13:24.000Z</time>
      </trkpt>
      <trkpt lat="46.22195" lon="4.84224">
        <ele>203</ele>
        <time>2017-05-04T12:13:25.000Z</time>
      </trkpt>
      <trkpt lat="46.22196" lon="4.84224">
        <ele>203</ele>
        <time>2017-05-04T12:13:26.000Z</time>
      </trkpt>
      <trkpt lat="46.22197" lon="4.84224">
        <ele>203</ele>
        <time>2017-05-04T12:13:27.000Z</time>
      </trkpt>
      <trkpt lat="46.22198" lon="4.84224">
        <ele>202</ele>
        <time>2017-05-04T12:13:28.000Z</time>
      </trkpt>
      <trkpt lat="46.22199" lon="4.84224">
        <ele>202</ele>
        <time>2017-05-04T12:13:29.000Z</time>
      </trkpt>
      <trkpt lat="46.222" lon="4.84223">
        <ele>202</ele>
        <time>2017-05-04T12:13:30.000Z</time>
      </trkpt>
      <trkpt lat="46.22201" lon="4.84223">
        <ele>202</ele>
        <time>2017-05-04T12:13:31.000Z</time>
      </trkpt>
      <trkpt lat="46.22202" lon="4.84223">
        <ele>202</ele>
        <time>2017-05-04T12:13:32.000Z</time>
      </trkpt>
      <trkpt lat="46.22203" lon="4.84222">
        <ele>202</ele>
        <time>2017-05-04T12:13:33.000Z</time>
      </trkpt>
      <trkpt lat="46.22204" lon="4.84222">
        <ele>202</ele>
        <time>2017-05-04T12:13:34.000Z</time>
      </trkpt>
      <trkpt lat="46.22205" lon="4.84222">
        <ele>202</ele>
        <time>2017-05-04T12:13:35.000Z</time>
      </trkpt>
      <trkpt lat="46.22206" lon="4.84222">
        <ele>202</ele>
        <time>2017-05-04T12:13:36.000Z</time>
      </trkpt>
      <trkpt lat="46.22207" lon="4.84222">
        <ele>203</ele>
        <time>2017-05-04T12:13:37.000Z</time>
      </trkpt>
      <trkpt lat="46.22209" lon="4.84221">
        <ele>203</ele>
        <time>2017-05-04T12:13:38.000Z</time>
      </trkpt>
      <trkpt lat="46.2221" lon="4.84221">
        <ele>203</ele>
        <time>2017-05-04T12:13:39.000Z</time>
      </trkpt>
      <trkpt lat="46.22211" lon="4.84221">
        <ele>203</ele>
        <time>2017-05-04T12:13:40.000Z</time>
      </trkpt>
      <trkpt lat="46.22212" lon="4.8422">
        <ele>203</ele>
        <time>2017-05-04T12:13:41.000Z</time>
      </trkpt>
      <trkpt lat="46.22213" lon="4.8422">
        <ele>203</ele>
        <time>2017-05-04T12:13:42.000Z</time>
      </trkpt>
      <trkpt lat="46.22214" lon="4.8422">
        <ele>203</ele>
        <time>2017-05-04T12:13:43.000Z</time>
      </trkpt>
      <trkpt lat="46.22215" lon="4.8422">
        <ele>203</ele>
        <time>2017-05-04T12:13:44.000Z</time>
      </trkpt>
      <trkpt lat="46.22216" lon="4.8422">
        <ele>203</ele>
        <time>2017-05-04T12:13:45.000Z</time>
      </trkpt>
      <trkpt lat="46.22217" lon="4.8422">
        <ele>203</ele>
        <time>2017-05-04T12:13:46.000Z</time>
      </trkpt>
      <trkpt lat="46.22218" lon="4.8422">
        <ele>203</ele>
        <time>2017-05-04T12:13:47.000Z</time>
      </trkpt>
      <trkpt lat="46.22219" lon="4.8422">
        <ele>203</ele>
        <time>2017-05-04T12:13:48.000Z</time>
      </trkpt>
      <trkpt lat="46.2222" lon="4.8422">
        <ele>203</ele>
        <time>2017-05-04T12:13:49.000Z</time>
      </trkpt>
      <trkpt lat="46.22221" lon="4.8422">
        <ele>203</ele>
        <time>2017-05-04T12:13:50.000Z</time>
      </trkpt>
      <trkpt lat="46.22222" lon="4.84219">
        <ele>203</ele>
        <time>2017-05-04T12:13:51.000Z</time>
      </trkpt>
      <trkpt lat="46.22223" lon="4.84219">
        <ele>203</ele>
        <time>2017-05-04T12:13:52.000Z</time>
      </trkpt>
      <trkpt lat="46.22224" lon="4.84219">
        <ele>203</ele>
        <time>2017-05-04T12:13:53.000Z</time>
      </trkpt>
      <trkpt lat="46.22225" lon="4.84218">
        <ele>203</ele>
        <time>2017-05-04T12:13:54.000Z</time>
      </trkpt>
      <trkpt lat="46.22226" lon="4.84218">
        <ele>203</ele>
        <time>2017-05-04T12:13:55.000Z</time>
      </trkpt>
      <trkpt lat="46.22228" lon="4.84217">
        <ele>204</ele>
        <time>2017-05-04T12:13:56.000Z</time>
      </trkpt>
      <trkpt lat="46.22229" lon="4.84217">
        <ele>204</ele>
        <time>2017-05-04T12:13:57.000Z</time>
      </trkpt>
      <trkpt lat="46.22229" lon="4.84216">
        <ele>204</ele>
        <time>2017-05-04T12:13:58.000Z</time>
      </trkpt>
      <trkpt lat="46.2223" lon="4.84216">
        <ele>203</ele>
        <time>2017-05-04T12:13:59.000Z</time>
      </trkpt>
      <trkpt lat="46.22231" lon="4.84215">
        <ele>204</ele>
        <time>2017-05-04T12:14:00.000Z</time>
      </trkpt>
      <trkpt lat="46.22232" lon="4.84215">
        <ele>204</ele>
        <time>2017-05-04T12:14:01.000Z</time>
      </trkpt>
      <trkpt lat="46.22233" lon="4.84214">
        <ele>203</ele>
        <time>2017-05-04T12:14:02.000Z</time>
      </trkpt>
      <trkpt lat="46.22234" lon="4.84214">
        <ele>204</ele>
        <time>2017-05-04T12:14:03.000Z</time>
      </trkpt>
      <trkpt lat="46.22235" lon="4.84214">
        <ele>204</ele>
        <time>2017-05-04T12:14:04.000Z</time>
      </trkpt>
      <trkpt lat="46.22237" lon="4.84213">
        <ele>204</ele>
        <time>2017-05-04T12:14:05.000Z</time>
      </trkpt>
      <trkpt lat="46.22238" lon="4.84213">
        <ele>204</ele>
        <time>2017-05-04T12:14:06.000Z</time>
      </trkpt>
      <trkpt lat="46.22239" lon="4.84213">
        <ele>204</ele>
        <time>2017-05-04T12:14:07.000Z</time>
      </trkpt>
      <trkpt lat="46.2224" lon="4.84212">
        <ele>205</ele>
        <time>2017-05-04T12:14:08.000Z</time>
      </trkpt>
      <trkpt lat="46.22241" lon="4.84212">
        <ele>205</ele>
        <time>2017-05-04T12:14:09.000Z</time>
      </trkpt>
      <trkpt lat="46.22242" lon="4.84212">
        <ele>204</ele>
        <time>2017-05-04T12:14:10.000Z</time>
      </trkpt>
      <trkpt lat="46.22243" lon="4.84211">
        <ele>204</ele>
        <time>2017-05-04T12:14:11.000Z</time>
      </trkpt>
      <trkpt lat="46.22244" lon="4.84211">
        <ele>204</ele>
        <time>2017-05-04T12:14:12.000Z</time>
      </trkpt>
      <trkpt lat="46.22245" lon="4.8421">
        <ele>204</ele>
        <time>2017-05-04T12:14:13.000Z</time>
      </trkpt>
      <trkpt lat="46.22247" lon="4.8421">
        <ele>204</ele>
        <time>2017-05-04T12:14:14.000Z</time>
      </trkpt>
      <trkpt lat="46.22248" lon="4.84209">
        <ele>204</ele>
        <time>2017-05-04T12:14:15.000Z</time>
      </trkpt>
      <trkpt lat="46.22249" lon="4.84209">
        <ele>203</ele>
        <time>2017-05-04T12:14:16.000Z</time>
      </trkpt>
      <trkpt lat="46.2225" lon="4.84208">
        <ele>203</ele>
        <time>2017-05-04T12:14:17.000Z</time>
      </trkpt>
      <trkpt lat="46.22251" lon="4.84208">
        <ele>203</ele>
        <time>2017-05-04T12:14:18.000Z</time>
      </trkpt>
      <trkpt lat="46.22252" lon="4.84208">
        <ele>203</ele>
        <time>2017-05-04T12:14:19.000Z</time>
      </trkpt>
      <trkpt lat="46.22253" lon="4.84208">
        <ele>203</ele>
        <time>2017-05-04T12:14:20.000Z</time>
      </trkpt>
      <trkpt lat="46.22255" lon="4.84208">
        <ele>204</ele>
        <time>2017-05-04T12:14:21.000Z</time>
      </trkpt>
      <trkpt lat="46.22256" lon="4.84207">
        <ele>203</ele>
        <time>2017-05-04T12:14:22.000Z</time>
      </trkpt>
      <trkpt lat="46.22257" lon="4.84207">
        <ele>203</ele>
        <time>2017-05-04T12:14:23.000Z</time>
      </trkpt>
      <trkpt lat="46.22258" lon="4.84207">
        <ele>202</ele>
        <time>2017-05-04T12:14:24.000Z</time>
      </trkpt>
      <trkpt lat="46.22259" lon="4.84207">
        <ele>202</ele>
        <time>2017-05-04T12:14:25.000Z</time>
      </trkpt>
      <trkpt lat="46.2226" lon="4.84207">
        <ele>202</ele>
        <time>2017-05-04T12:14:26.000Z</time>
      </trkpt>
      <trkpt lat="46.22261" lon="4.84207">
        <ele>203</ele>
        <time>2017-05-04T12:14:27.000Z</time>
      </trkpt>
      <trkpt lat="46.22262" lon="4.84207">
        <ele>203</ele>
        <time>2017-05-04T12:14:28.000Z</time>
      </trkpt>
      <trkpt lat="46.22264" lon="4.84207">
        <ele>203</ele>
        <time>2017-05-04T12:14:29.000Z</time>
      </trkpt>
      <trkpt lat="46.22265" lon="4.84208">
        <ele>202</ele>
        <time>2017-05-04T12:14:30.000Z</time>
      </trkpt>
      <trkpt lat="46.22266" lon="4.84208">
        <ele>202</ele>
        <time>2017-05-04T12:14:31.000Z</time>
      </trkpt>
      <trkpt lat="46.22267" lon="4.84209">
        <ele>202</ele>
        <time>2017-05-04T12:14:32.000Z</time>
      </trkpt>
      <trkpt lat="46.22268" lon="4.84209">
        <ele>202</ele>
        <time>2017-05-04T12:14:33.000Z</time>
      </trkpt>
      <trkpt lat="46.22269" lon="4.8421">
        <ele>202</ele>
        <time>2017-05-04T12:14:34.000Z</time>
      </trkpt>
      <trkpt lat="46.2227" lon="4.8421">
        <ele>202</ele>
        <time>2017-05-04T12:14:35.000Z</time>
      </trkpt>
      <trkpt lat="46.22271" lon="4.84211">
        <ele>202</ele>
        <time>2017-05-04T12:14:36.000Z</time>
      </trkpt>
      <trkpt lat="46.22272" lon="4.84211">
        <ele>202</ele>
        <time>2017-05-04T12:14:37.000Z</time>
      </trkpt>
      <trkpt lat="46.22273" lon="4.84212">
        <ele>202</ele>
        <time>2017-05-04T12:14:38.000Z</time>
      </trkpt>
      <trkpt lat="46.22274" lon="4.84213">
        <ele>202</ele>
        <time>2017-05-04T12:14:39.000Z</time>
      </trkpt>
      <trkpt lat="46.22275" lon="4.84213">
        <ele>202</ele>
        <time>2017-05-04T12:14:40.000Z</time>
      </trkpt>
      <trkpt lat="46.22276" lon="4.84214">
        <ele>202</ele>
        <time>2017-05-04T12:14:41.000Z</time>
      </trkpt>
      <trkpt lat="46.22277" lon="4.84215">
        <ele>202</ele>
        <time>2017-05-04T12:14:42.000Z</time>
      </trkpt>
      <trkpt lat="46.22278" lon="4.84215">
        <ele>202</ele>
        <time>2017-05-04T12:14:43.000Z</time>
      </trkpt>
      <trkpt lat="46.2228" lon="4.84215">
        <ele>202</ele>
        <time>2017-05-04T12:14:44.000Z</time>
      </trkpt>
      <trkpt lat="46.22281" lon="4.84216">
        <ele>202</ele>
        <time>2017-05-04T12:14:45.000Z</time>
      </trkpt>
      <trkpt lat="46.22282" lon="4.84217">
        <ele>202</ele>
        <time>2017-05-04T12:14:46.000Z</time>
      </trkpt>
      <trkpt lat="46.22283" lon="4.84217">
        <ele>202</ele>
        <time>2017-05-04T12:14:47.000Z</time>
      </trkpt>
      <trkpt lat="46.22284" lon="4.84218">
        <ele>202</ele>
        <time>2017-05-04T12:14:48.000Z</time>
      </trkpt>
      <trkpt lat="46.22285" lon="4.84218">
        <ele>202</ele>
        <time>2017-05-04T12:14:49.000Z</time>
      </trkpt>
      <trkpt lat="46.22286" lon="4.84219">
        <ele>202</ele>
        <time>2017-05-04T12:14:50.000Z</time>
      </trkpt>
      <trkpt lat="46.22287" lon="4.84219">
        <ele>202</ele>
        <time>2017-05-04T12:14:51.000Z</time>
      </trkpt>
      <trkpt lat="46.22288" lon="4.8422">
        <ele>202</ele>
        <time>2017-05-04T12:14:52.000Z</time>
      </trkpt>
      <trkpt lat="46.22289" lon="4.8422">
        <ele>202</ele>
        <time>2017-05-04T12:14:53.000Z</time>
      </trkpt>
      <trkpt lat="46.2229" lon="4.84221">
        <ele>202</ele>
        <time>2017-05-04T12:14:54.000Z</time>
      </trkpt>
      <trkpt lat="46.22291" lon="4.84221">
        <ele>202</ele>
        <time>2017-05-04T12:14:55.000Z</time>
      </trkpt>
      <trkpt lat="46.22292" lon="4.84222">
        <ele>202</ele>
        <time>2017-05-04T12:14:56.000Z</time>
      </trkpt>
      <trkpt lat="46.22293" lon="4.84223">
        <ele>202</ele>
        <time>2017-05-04T12:14:57.000Z</time>
      </trkpt>
      <trkpt lat="46.22294" lon="4.84223">
        <ele>202</ele>
        <time>2017-05-04T12:14:58.000Z</time>
      </trkpt>
      <trkpt lat="46.22295" lon="4.84223">
        <ele>202</ele>
        <time>2017-05-04T12:14:59.000Z</time>
      </trkpt>
      <trkpt lat="46.22296" lon="4.84224">
        <ele>201</ele>
        <time>2017-05-04T12:15:00.000Z</time>
      </trkpt>
      <trkpt lat="46.22297" lon="4.84224">
        <ele>202</ele>
        <time>2017-05-04T12:15:01.000Z</time>
      </trkpt>
      <trkpt lat="46.22298" lon="4.84225">
        <ele>202</ele>
        <time>2017-05-04T12:15:02.000Z</time>
      </trkpt>
      <trkpt lat="46.223" lon="4.84225">
        <ele>201</ele>
        <time>2017-05-04T12:15:03.000Z</time>
      </trkpt>
      <trkpt lat="46.223" lon="4.84225">
        <ele>201</ele>
        <time>2017-05-04T12:15:04.000Z</time>
      </trkpt>
      <trkpt lat="46.22302" lon="4.84225">
        <ele>201</ele>
        <time>2017-05-04T12:15:05.000Z</time>
      </trkpt>
      <trkpt lat="46.22303" lon="4.84226">
        <ele>201</ele>
        <time>2017-05-04T12:15:06.000Z</time>
      </trkpt>
      <trkpt lat="46.22304" lon="4.84226">
        <ele>200</ele>
        <time>2017-05-04T12:15:07.000Z</time>
      </trkpt>
      <trkpt lat="46.22305" lon="4.84226">
        <ele>200</ele>
        <time>2017-05-04T12:15:08.000Z</time>
      </trkpt>
      <trkpt lat="46.22306" lon="4.84226">
        <ele>200</ele>
        <time>2017-05-04T12:15:09.000Z</time>
      </trkpt>
      <trkpt lat="46.22307" lon="4.84226">
        <ele>200</ele>
        <time>2017-05-04T12:15:10.000Z</time>
      </trkpt>
      <trkpt lat="46.22307" lon="4.84226">
        <ele>199</ele>
        <time>2017-05-04T12:15:11.000Z</time>
      </trkpt>
      <trkpt lat="46.22308" lon="4.84226">
        <ele>199</ele>
        <time>2017-05-04T12:15:12.000Z</time>
      </trkpt>
      <trkpt lat="46.22309" lon="4.84225">
        <ele>199</ele>
        <time>2017-05-04T12:15:13.000Z</time>
      </trkpt>
      <trkpt lat="46.2231" lon="4.84225">
        <ele>199</ele>
        <time>2017-05-04T12:15:14.000Z</time>
      </trkpt>
      <trkpt lat="46.22311" lon="4.84225">
        <ele>198</ele>
        <time>2017-05-04T12:15:15.000Z</time>
      </trkpt>
      <trkpt lat="46.22312" lon="4.84225">
        <ele>198</ele>
        <time>2017-05-04T12:15:16.000Z</time>
      </trkpt>
      <trkpt lat="46.22313" lon="4.84224">
        <ele>198</ele>
        <time>2017-05-04T12:15:17.000Z</time>
      </trkpt>
      <trkpt lat="46.22314" lon="4.84224">
        <ele>198</ele>
        <time>2017-05-04T12:15:18.000Z</time>
      </trkpt>
      <trkpt lat="46.22315" lon="4.84224">
        <ele>198</ele>
        <time>2017-05-04T12:15:19.000Z</time>
      </trkpt>
      <trkpt lat="46.22317" lon="4.84224">
        <ele>198</ele>
        <time>2017-05-04T12:15:20.000Z</time>
      </trkpt>
      <trkpt lat="46.22318" lon="4.84224">
        <ele>198</ele>
        <time>2017-05-04T12:15:21.000Z</time>
      </trkpt>
      <trkpt lat="46.22319" lon="4.84223">
        <ele>198</ele>
        <time>2017-05-04T12:15:22.000Z</time>
      </trkpt>
      <trkpt lat="46.2232" lon="4.84223">
        <ele>197</ele>
        <time>2017-05-04T12:15:23.000Z</time>
      </trkpt>
      <trkpt lat="46.22321" lon="4.84223">
        <ele>197</ele>
        <time>2017-05-04T12:15:24.000Z</time>
      </trkpt>
      <trkpt lat="46.22322" lon="4.84223">
        <ele>197</ele>
        <time>2017-05-04T12:15:25.000Z</time>
      </trkpt>
      <trkpt lat="46.22324" lon="4.84223">
        <ele>197</ele>
        <time>2017-05-04T12:15:26.000Z</time>
      </trkpt>
      <trkpt lat="46.22324" lon="4.84222">
        <ele>196</ele>
        <time>2017-05-04T12:15:27.000Z</time>
      </trkpt>
      <trkpt lat="46.22325" lon="4.84222">
        <ele>196</ele>
        <time>2017-05-04T12:15:28.000Z</time>
      </trkpt>
      <trkpt lat="46.22326" lon="4.84222">
        <ele>196</ele>
        <time>2017-05-04T12:15:29.000Z</time>
      </trkpt>
      <trkpt lat="46.22327" lon="4.84222">
        <ele>196</ele>
        <time>2017-05-04T12:15:30.000Z</time>
      </trkpt>
      <trkpt lat="46.22328" lon="4.84222">
        <ele>196</ele>
        <time>2017-05-04T12:15:31.000Z</time>
      </trkpt>
      <trkpt lat="46.22329" lon="4.84222">
        <ele>196</ele>
        <time>2017-05-04T12:15:32.000Z</time>
      </trkpt>
      <trkpt lat="46.2233" lon="4.84221">
        <ele>196</ele>
        <time>2017-05-04T12:15:33.000Z</time>
      </trkpt>
      <trkpt lat="46.22331" lon="4.84221">
        <ele>195</ele>
        <time>2017-05-04T12:15:34.000Z</time>
      </trkpt>
      <trkpt lat="46.22332" lon="4.84221">
        <ele>195</ele>
        <time>2017-05-04T12:15:35.000Z</time>
      </trkpt>
      <trkpt lat="46.22333" lon="4.84221">
        <ele>195</ele>
        <time>2017-05-04T12:15:36.000Z</time>
      </trkpt>
      <trkpt lat="46.22334" lon="4.8422">
        <ele>195</ele>
        <time>2017-05-04T12:15:37.000Z</time>
      </trkpt>
      <trkpt lat="46.22335" lon="4.8422">
        <ele>194</ele>
        <time>2017-05-04T12:15:38.000Z</time>
      </trkpt>
      <trkpt lat="46.22336" lon="4.8422">
        <ele>195</ele>
        <time>2017-05-04T12:15:39.000Z</time>
      </trkpt>
      <trkpt lat="46.22337" lon="4.8422">
        <ele>194</ele>
        <time>2017-05-04T12:15:40.000Z</time>
      </trkpt>
      <trkpt lat="46.22339" lon="4.84219">
        <ele>195</ele>
        <time>2017-05-04T12:15:41.000Z</time>
      </trkpt>
      <trkpt lat="46.2234" lon="4.84219">
        <ele>195</ele>
        <time>2017-05-04T12:15:42.000Z</time>
      </trkpt>
      <trkpt lat="46.22341" lon="4.84219">
        <ele>195</ele>
        <time>2017-05-04T12:15:43.000Z</time>
      </trkpt>
      <trkpt lat="46.22342" lon="4.84218">
        <ele>195</ele>
        <time>2017-05-04T12:15:44.000Z</time>
      </trkpt>
      <trkpt lat="46.22343" lon="4.84218">
        <ele>195</ele>
        <time>2017-05-04T12:15:45.000Z</time>
      </trkpt>
      <trkpt lat="46.22344" lon="4.84218">
        <ele>195</ele>
        <time>2017-05-04T12:15:46.000Z</time>
      </trkpt>
      <trkpt lat="46.22346" lon="4.84218">
        <ele>195</ele>
        <time>2017-05-04T12:15:47.000Z</time>
      </trkpt>
      <trkpt lat="46.22347" lon="4.84217">
        <ele>195</ele>
        <time>2017-05-04T12:15:48.000Z</time>
      </trkpt>
      <trkpt lat="46.22348" lon="4.84217">
        <ele>195</ele>
        <time>2017-05-04T12:15:49.000Z</time>
      </trkpt>
      <trkpt lat="46.22349" lon="4.84217">
        <ele>196</ele>
        <time>2017-05-04T12:15:50.000Z</time>
      </trkpt>
      <trkpt lat="46.2235" lon="4.84217">
        <ele>196</ele>
        <time>2017-05-04T12:15:51.000Z</time>
      </trkpt>
      <trkpt lat="46.22351" lon="4.84217">
        <ele>195</ele>
        <time>2017-05-04T12:15:52.000Z</time>
      </trkpt>
      <trkpt lat="46.22352" lon="4.84218">
        <ele>195</ele>
        <time>2017-05-04T12:15:53.000Z</time>
      </trkpt>
      <trkpt lat="46.22354" lon="4.84218">
        <ele>196</ele>
        <time>2017-05-04T12:15:54.000Z</time>
      </trkpt>
      <trkpt lat="46.22355" lon="4.84218">
        <ele>196</ele>
        <time>2017-05-04T12:15:55.000Z</time>
      </trkpt>
      <trkpt lat="46.22356" lon="4.84218">
        <ele>197</ele>
        <time>2017-05-04T12:15:56.000Z</time>
      </trkpt>
      <trkpt lat="46.22357" lon="4.84218">
        <ele>197</ele>
        <time>2017-05-04T12:15:57.000Z</time>
      </trkpt>
      <trkpt lat="46.22358" lon="4.84218">
        <ele>197</ele>
        <time>2017-05-04T12:15:58.000Z</time>
      </trkpt>
      <trkpt lat="46.22359" lon="4.84218">
        <ele>197</ele>
        <time>2017-05-04T12:15:59.000Z</time>
      </trkpt>
      <trkpt lat="46.2236" lon="4.84218">
        <ele>197</ele>
        <time>2017-05-04T12:16:00.000Z</time>
      </trkpt>
      <trkpt lat="46.22361" lon="4.84218">
        <ele>197</ele>
        <time>2017-05-04T12:16:01.000Z</time>
      </trkpt>
      <trkpt lat="46.22362" lon="4.84218">
        <ele>197</ele>
        <time>2017-05-04T12:16:02.000Z</time>
      </trkpt>
      <trkpt lat="46.22363" lon="4.84218">
        <ele>197</ele>
        <time>2017-05-04T12:16:03.000Z</time>
      </trkpt>
      <trkpt lat="46.22364" lon="4.84218">
        <ele>196</ele>
        <time>2017-05-04T12:16:04.000Z</time>
      </trkpt>
      <trkpt lat="46.22365" lon="4.84219">
        <ele>197</ele>
        <time>2017-05-04T12:16:05.000Z</time>
      </trkpt>
      <trkpt lat="46.22367" lon="4.84219">
        <ele>197</ele>
        <time>2017-05-04T12:16:06.000Z</time>
      </trkpt>
      <trkpt lat="46.22368" lon="4.84219">
        <ele>197</ele>
        <time>2017-05-04T12:16:07.000Z</time>
      </trkpt>
      <trkpt lat="46.22369" lon="4.84219">
        <ele>197</ele>
        <time>2017-05-04T12:16:08.000Z</time>
      </trkpt>
      <trkpt lat="46.2237" lon="4.84219">
        <ele>197</ele>
        <time>2017-05-04T12:16:09.000Z</time>
      </trkpt>
      <trkpt lat="46.22371" lon="4.84219">
        <ele>198</ele>
        <time>2017-05-04T12:16:10.000Z</time>
      </trkpt>
      <trkpt lat="46.22372" lon="4.8422">
        <ele>198</ele>
        <time>2017-05-04T12:16:11.000Z</time>
      </trkpt>
      <trkpt lat="46.22373" lon="4.8422">
        <ele>198</ele>
        <time>2017-05-04T12:16:12.000Z</time>
      </trkpt>
      <trkpt lat="46.22375" lon="4.8422">
        <ele>198</ele>
        <time>2017-05-04T12:16:13.000Z</time>
      </trkpt>
      <trkpt lat="46.22376" lon="4.8422">
        <ele>197</ele>
        <time>2017-05-04T12:16:14.000Z</time>
      </trkpt>
      <trkpt lat="46.22377" lon="4.8422">
        <ele>198</ele>
        <time>2017-05-04T12:16:15.000Z</time>
      </trkpt>
      <trkpt lat="46.22378" lon="4.8422">
        <ele>198</ele>
        <time>2017-05-04T12:16:16.000Z</time>
      </trkpt>
      <trkpt lat="46.22379" lon="4.8422">
        <ele>198</ele>
        <time>2017-05-04T12:16:17.000Z</time>
      </trkpt>
      <trkpt lat="46.22381" lon="4.8422">
        <ele>198</ele>
        <time>2017-05-04T12:16:18.000Z</time>
      </trkpt>
      <trkpt lat="46.22382" lon="4.8422">
        <ele>198</ele>
        <time>2017-05-04T12:16:19.000Z</time>
      </trkpt>
      <trkpt lat="46.22383" lon="4.84219">
        <ele>198</ele>
        <time>2017-05-04T12:16:20.000Z</time>
      </trkpt>
      <trkpt lat="46.22384" lon="4.84219">
        <ele>197</ele>
        <time>2017-05-04T12:16:21.000Z</time>
      </trkpt>
      <trkpt lat="46.22385" lon="4.84219">
        <ele>197</ele>
        <time>2017-05-04T12:16:22.000Z</time>
      </trkpt>
      <trkpt lat="46.22386" lon="4.84219">
        <ele>197</ele>
        <time>2017-05-04T12:16:23.000Z</time>
      </trkpt>
      <trkpt lat="46.22387" lon="4.84219">
        <ele>197</ele>
        <time>2017-05-04T12:16:24.000Z</time>
      </trkpt>
      <trkpt lat="46.22388" lon="4.84219">
        <ele>197</ele>
        <time>2017-05-04T12:16:25.000Z</time>
      </trkpt>
      <trkpt lat="46.22389" lon="4.84219">
        <ele>197</ele>
        <time>2017-05-04T12:16:26.000Z</time>
      </trkpt>
      <trkpt lat="46.2239" lon="4.84219">
        <ele>197</ele>
        <time>2017-05-04T12:16:27.000Z</time>
      </trkpt>
      <trkpt lat="46.22392" lon="4.8422">
        <ele>197</ele>
        <time>2017-05-04T12:16:28.000Z</time>
      </trkpt>
      <trkpt lat="46.22393" lon="4.8422">
        <ele>196</ele>
        <time>2017-05-04T12:16:29.000Z</time>
      </trkpt>
      <trkpt lat="46.22394" lon="4.84221">
        <ele>196</ele>
        <time>2017-05-04T12:16:30.000Z</time>
      </trkpt>
      <trkpt lat="46.22395" lon="4.84221">
        <ele>196</ele>
        <time>2017-05-04T12:16:31.000Z</time>
      </trkpt>
      <trkpt lat="46.22396" lon="4.84221">
        <ele>196</ele>
        <time>2017-05-04T12:16:32.000Z</time>
      </trkpt>
      <trkpt lat="46.22397" lon="4.84221">
        <ele>196</ele>
        <time>2017-05-04T12:16:33.000Z</time>
      </trkpt>
      <trkpt lat="46.22397" lon="4.84221">
        <ele>196</ele>
        <time>2017-05-04T12:16:34.000Z</time>
      </trkpt>
      <trkpt lat="46.22398" lon="4.84221">
        <ele>196</ele>
        <time>2017-05-04T12:16:35.000Z</time>
      </trkpt>
      <trkpt lat="46.22399" lon="4.84221">
        <ele>196</ele>
        <time>2017-05-04T12:16:36.000Z</time>
      </trkpt>
      <trkpt lat="46.224" lon="4.84222">
        <ele>196</ele>
        <time>2017-05-04T12:16:37.000Z</time>
      </trkpt>
      <trkpt lat="46.22402" lon="4.84222">
        <ele>195</ele>
        <time>2017-05-04T12:16:38.000Z</time>
      </trkpt>
      <trkpt lat="46.22403" lon="4.84222">
        <ele>195</ele>
        <time>2017-05-04T12:16:39.000Z</time>
      </trkpt>
      <trkpt lat="46.22404" lon="4.84223">
        <ele>195</ele>
        <time>2017-05-04T12:16:40.000Z</time>
      </trkpt>
      <trkpt lat="46.22406" lon="4.84224">
        <ele>195</ele>
        <time>2017-05-04T12:16:41.000Z</time>
      </trkpt>
      <trkpt lat="46.22407" lon="4.84224">
        <ele>195</ele>
        <time>2017-05-04T12:16:42.000Z</time>
      </trkpt>
      <trkpt lat="46.22408" lon="4.84225">
        <ele>195</ele>
        <time>2017-05-04T12:16:43.000Z</time>
      </trkpt>
      <trkpt lat="46.22409" lon="4.84226">
        <ele>195</ele>
        <time>2017-05-04T12:16:44.000Z</time>
      </trkpt>
      <trkpt lat="46.2241" lon="4.84227">
        <ele>195</ele>
        <time>2017-05-04T12:16:45.000Z</time>
      </trkpt>
      <trkpt lat="46.22411" lon="4.84229">
        <ele>194</ele>
        <time>2017-05-04T12:16:46.000Z</time>
      </trkpt>
      <trkpt lat="46.22412" lon="4.8423">
        <ele>194</ele>
        <time>2017-05-04T12:16:47.000Z</time>
      </trkpt>
      <trkpt lat="46.22413" lon="4.84231">
        <ele>194</ele>
        <time>2017-05-04T12:16:48.000Z</time>
      </trkpt>
      <trkpt lat="46.22413" lon="4.84232">
        <ele>194</ele>
        <time>2017-05-04T12:16:49.000Z</time>
      </trkpt>
      <trkpt lat="46.22414" lon="4.84234">
        <ele>194</ele>
        <time>2017-05-04T12:16:50.000Z</time>
      </trkpt>
      <trkpt lat="46.22414" lon="4.84235">
        <ele>194</ele>
        <time>2017-05-04T12:16:51.000Z</time>
      </trkpt>
      <trkpt lat="46.22415" lon="4.84237">
        <ele>194</ele>
        <time>2017-05-04T12:16:52.000Z</time>
      </trkpt>
      <trkpt lat="46.22415" lon="4.84239">
        <ele>194</ele>
        <time>2017-05-04T12:16:53.000Z</time>
      </trkpt>
      <trkpt lat="46.22416" lon="4.8424">
        <ele>194</ele>
        <time>2017-05-04T12:16:54.000Z</time>
      </trkpt>
      <trkpt lat="46.22416" lon="4.84242">
        <ele>194</ele>
        <time>2017-05-04T12:16:55.000Z</time>
      </trkpt>
      <trkpt lat="46.22416" lon="4.84244">
        <ele>194</ele>
        <time>2017-05-04T12:16:56.000Z</time>
      </trkpt>
      <trkpt lat="46.22416" lon="4.84245">
        <ele>194</ele>
        <time>2017-05-04T12:16:57.000Z</time>
      </trkpt>
      <trkpt lat="46.22416" lon="4.84247">
        <ele>194</ele>
        <time>2017-05-04T12:16:58.000Z</time>
      </trkpt>
      <trkpt lat="46.22416" lon="4.84248">
        <ele>193</ele>
        <time>2017-05-04T12:16:59.000Z</time>
      </trkpt>
      <trkpt lat="46.22416" lon="4.8425">
        <ele>193</ele>
        <time>2017-05-04T12:17:00.000Z</time>
      </trkpt>
      <trkpt lat="46.22416" lon="4.84251">
        <ele>193</ele>
        <time>2017-05-04T12:17:01.000Z</time>
      </trkpt>
      <trkpt lat="46.22416" lon="4.84253">
        <ele>193</ele>
        <time>2017-05-04T12:17:02.000Z</time>
      </trkpt>
      <trkpt lat="46.22417" lon="4.84255">
        <ele>193</ele>
        <time>2017-05-04T12:17:03.000Z</time>
      </trkpt>
      <trkpt lat="46.22417" lon="4.84256">
        <ele>193</ele>
        <time>2017-05-04T12:17:04.000Z</time>
      </trkpt>
      <trkpt lat="46.22417" lon="4.84258">
        <ele>193</ele>
        <time>2017-05-04T12:17:05.000Z</time>
      </trkpt>
      <trkpt lat="46.22417" lon="4.8426">
        <ele>193</ele>
        <time>2017-05-04T12:17:06.000Z</time>
      </trkpt>
      <trkpt lat="46.22417" lon="4.84261">
        <ele>193</ele>
        <time>2017-05-04T12:17:07.000Z</time>
      </trkpt>
      <trkpt lat="46.22417" lon="4.84263">
        <ele>193</ele>
        <time>2017-05-04T12:17:08.000Z</time>
      </trkpt>
      <trkpt lat="46.22417" lon="4.84265">
        <ele>193</ele>
        <time>2017-05-04T12:17:09.000Z</time>
      </trkpt>
      <trkpt lat="46.22417" lon="4.84267">
        <ele>193</ele>
        <time>2017-05-04T12:17:10.000Z</time>
      </trkpt>
      <trkpt lat="46.22417" lon="4.84268">
        <ele>192</ele>
        <time>2017-05-04T12:17:11.000Z</time>
      </trkpt>
      <trkpt lat="46.22417" lon="4.8427">
        <ele>192</ele>
        <time>2017-05-04T12:17:12.000Z</time>
      </trkpt>
      <trkpt lat="46.22417" lon="4.84271">
        <ele>193</ele>
        <time>2017-05-04T12:17:13.000Z</time>
      </trkpt>
      <trkpt lat="46.22418" lon="4.84273">
        <ele>193</ele>
        <time>2017-05-04T12:17:14.000Z</time>
      </trkpt>
      <trkpt lat="46.22418" lon="4.84275">
        <ele>193</ele>
        <time>2017-05-04T12:17:15.000Z</time>
      </trkpt>
      <trkpt lat="46.22418" lon="4.84277">
        <ele>193</ele>
        <time>2017-05-04T12:17:16.000Z</time>
      </trkpt>
      <trkpt lat="46.22418" lon="4.84279">
        <ele>193</ele>
        <time>2017-05-04T12:17:17.000Z</time>
      </trkpt>
      <trkpt lat="46.22418" lon="4.84281">
        <ele>192</ele>
        <time>2017-05-04T12:17:18.000Z</time>
      </trkpt>
      <trkpt lat="46.22418" lon="4.84282">
        <ele>192</ele>
        <time>2017-05-04T12:17:19.000Z</time>
      </trkpt>
      <trkpt lat="46.22419" lon="4.84284">
        <ele>192</ele>
        <time>2017-05-04T12:17:20.000Z</time>
      </trkpt>
      <trkpt lat="46.22419" lon="4.84285">
        <ele>192</ele>
        <time>2017-05-04T12:17:21.000Z</time>
      </trkpt>
      <trkpt lat="46.22419" lon="4.84287">
        <ele>192</ele>
        <time>2017-05-04T12:17:22.000Z</time>
      </trkpt>
      <trkpt lat="46.22419" lon="4.84288">
        <ele>192</ele>
        <time>2017-05-04T12:17:23.000Z</time>
      </trkpt>
      <trkpt lat="46.22419" lon="4.8429">
        <ele>191</ele>
        <time>2017-05-04T12:17:24.000Z</time>
      </trkpt>
      <trkpt lat="46.2242" lon="4.84291">
        <ele>191</ele>
        <time>2017-05-04T12:17:25.000Z</time>
      </trkpt>
      <trkpt lat="46.2242" lon="4.84293">
        <ele>191</ele>
        <time>2017-05-04T12:17:26.000Z</time>
      </trkpt>
      <trkpt lat="46.2242" lon="4.84294">
        <ele>191</ele>
        <time>2017-05-04T12:17:27.000Z</time>
      </trkpt>
      <trkpt lat="46.2242" lon="4.84296">
        <ele>191</ele>
        <time>2017-05-04T12:17:28.000Z</time>
      </trkpt>
      <trkpt lat="46.22421" lon="4.84298">
        <ele>191</ele>
        <time>2017-05-04T12:17:29.000Z</time>
      </trkpt>
      <trkpt lat="46.22421" lon="4.84299">
        <ele>191</ele>
        <time>2017-05-04T12:17:30.000Z</time>
      </trkpt>
      <trkpt lat="46.22421" lon="4.84301">
        <ele>190</ele>
        <time>2017-05-04T12:17:31.000Z</time>
      </trkpt>
      <trkpt lat="46.22421" lon="4.84303">
        <ele>190</ele>
        <time>2017-05-04T12:17:32.000Z</time>
      </trkpt>
      <trkpt lat="46.22421" lon="4.84304">
        <ele>191</ele>
        <time>2017-05-04T12:17:33.000Z</time>
      </trkpt>
      <trkpt lat="46.22422" lon="4.84306">
        <ele>191</ele>
        <time>2017-05-04T12:17:34.000Z</time>
      </trkpt>
      <trkpt lat="46.22422" lon="4.84308">
        <ele>191</ele>
        <time>2017-05-04T12:17:35.000Z</time>
      </trkpt>
      <trkpt lat="46.22422" lon="4.8431">
        <ele>191</ele>
        <time>2017-05-04T12:17:36.000Z</time>
      </trkpt>
      <trkpt lat="46.22422" lon="4.84312">
        <ele>191</ele>
        <time>2017-05-04T12:17:37.000Z</time>
      </trkpt>
      <trkpt lat="46.22422" lon="4.84313">
        <ele>191</ele>
        <time>2017-05-04T12:17:38.000Z</time>
      </trkpt>
      <trkpt lat="46.22422" lon="4.84315">
        <ele>191</ele>
        <time>2017-05-04T12:17:39.000Z</time>
      </trkpt>
      <trkpt lat="46.22423" lon="4.84316">
        <ele>191</ele>
        <time>2017-05-04T12:17:40.000Z</time>
      </trkpt>
      <trkpt lat="46.22423" lon="4.84318">
        <ele>191</ele>
        <time>2017-05-04T12:17:41.000Z</time>
      </trkpt>
      <trkpt lat="46.22423" lon="4.8432">
        <ele>191</ele>
        <time>2017-05-04T12:17:42.000Z</time>
      </trkpt>
      <trkpt lat="46.22423" lon="4.84321">
        <ele>191</ele>
        <time>2017-05-04T12:17:43.000Z</time>
      </trkpt>
      <trkpt lat="46.22423" lon="4.84323">
        <ele>191</ele>
        <time>2017-05-04T12:17:44.000Z</time>
      </trkpt>
      <trkpt lat="46.22424" lon="4.84324">
        <ele>191</ele>
        <time>2017-05-04T12:17:45.000Z</time>
      </trkpt>
      <trkpt lat="46.22424" lon="4.84326">
        <ele>191</ele>
        <time>2017-05-04T12:17:46.000Z</time>
      </trkpt>
      <trkpt lat="46.22424" lon="4.84327">
        <ele>191</ele>
        <time>2017-05-04T12:17:47.000Z</time>
      </trkpt>
      <trkpt lat="46.22424" lon="4.84329">
        <ele>191</ele>
        <time>2017-05-04T12:17:48.000Z</time>
      </trkpt>
      <trkpt lat="46.22425" lon="4.8433">
        <ele>191</ele>
        <time>2017-05-04T12:17:49.000Z</time>
      </trkpt>
      <trkpt lat="46.22426" lon="4.84331">
        <ele>192</ele>
        <time>2017-05-04T12:17:50.000Z</time>
      </trkpt>
      <trkpt lat="46.22426" lon="4.84331">
        <ele>191</ele>
        <time>2017-05-04T12:17:51.000Z</time>
      </trkpt>
      <trkpt lat="46.22426" lon="4.84331">
        <ele>191</ele>
        <time>2017-05-04T12:17:52.000Z</time>
      </trkpt>
      <trkpt lat="46.22426" lon="4.84331">
        <ele>191</ele>
        <time>2017-05-04T12:17:53.000Z</time>
      </trkpt>
      <trkpt lat="46.22426" lon="4.84331">
        <ele>191</ele>
        <time>2017-05-04T12:17:54.000Z</time>
      </trkpt>
      <trkpt lat="46.22426" lon="4.84331">
        <ele>191</ele>
        <time>2017-05-04T12:17:55.000Z</time>
      </trkpt>
      <trkpt lat="46.22426" lon="4.84331">
        <ele>191</ele>
        <time>2017-05-04T12:17:56.000Z</time>
      </trkpt>
      <trkpt lat="46.22426" lon="4.84331">
        <ele>191</ele>
        <time>2017-05-04T12:17:57.000Z</time>
      </trkpt>
      <trkpt lat="46.22426" lon="4.84331">
        <ele>191</ele>
        <time>2017-05-04T12:17:58.000Z</time>
      </trkpt>
      <trkpt lat="46.22426" lon="4.84331">
        <ele>191</ele>
        <time>2017-05-04T12:17:59.000Z</time>
      </trkpt>
      <trkpt lat="46.22426" lon="4.84332">
        <ele>191</ele>
        <time>2017-05-04T12:18:00.000Z</time>
      </trkpt>
      <trkpt lat="46.22425" lon="4.84333">
        <ele>191</ele>
        <time>2017-05-04T12:18:01.000Z</time>
      </trkpt>
      <trkpt lat="46.22425" lon="4.84334">
        <ele>191</ele>
        <time>2017-05-04T12:18:02.000Z</time>
      </trkpt>
      <trkpt lat="46.22426" lon="4.84335">
        <ele>192</ele>
        <time>2017-05-04T12:18:03.000Z</time>
      </trkpt>
      <trkpt lat="46.22426" lon="4.84335">
        <ele>192</ele>
        <time>2017-05-04T12:18:04.000Z</time>
      </trkpt>
      <trkpt lat="46.22426" lon="4.84336">
        <ele>192</ele>
        <time>2017-05-04T12:18:05.000Z</time>
      </trkpt>
      <trkpt lat="46.22425" lon="4.84335">
        <ele>192</ele>
        <time>2017-05-04T12:18:06.000Z</time>
      </trkpt>
      <trkpt lat="46.22425" lon="4.84335">
        <ele>191</ele>
        <time>2017-05-04T12:18:07.000Z</time>
      </trkpt>
      <trkpt lat="46.22425" lon="4.84335">
        <ele>191</ele>
        <time>2017-05-04T12:18:08.000Z</time>
      </trkpt>
      <trkpt lat="46.22425" lon="4.84335">
        <ele>192</ele>
        <time>2017-05-04T12:18:09.000Z</time>
      </trkpt>
      <trkpt lat="46.22425" lon="4.84335">
        <ele>192</ele>
        <time>2017-05-04T12:18:10.000Z</time>
      </trkpt>
      <trkpt lat="46.22425" lon="4.84335">
        <ele>192</ele>
        <time>2017-05-04T12:18:11.000Z</time>
      </trkpt>
      <trkpt lat="46.22425" lon="4.84335">
        <ele>192</ele>
        <time>2017-05-04T12:18:12.000Z</time>
      </trkpt>
      <trkpt lat="46.22425" lon="4.84335">
        <ele>192</ele>
        <time>2017-05-04T12:18:13.000Z</time>
      </trkpt>
      <trkpt lat="46.22425" lon="4.84335">
        <ele>192</ele>
        <time>2017-05-04T12:18:14.000Z</time>
      </trkpt>
      <trkpt lat="46.22425" lon="4.84335">
        <ele>192</ele>
        <time>2017-05-04T12:18:15.000Z</time>
      </trkpt>
      <trkpt lat="46.22425" lon="4.84335">
        <ele>192</ele>
        <time>2017-05-04T12:18:16.000Z</time>
      </trkpt>
      <trkpt lat="46.22426" lon="4.84336">
        <ele>192</ele>
        <time>2017-05-04T12:18:17.000Z</time>
      </trkpt>
      <trkpt lat="46.22426" lon="4.84336">
        <ele>192</ele>
        <time>2017-05-04T12:18:18.000Z</time>
      </trkpt>
      <trkpt lat="46.22426" lon="4.84337">
        <ele>192</ele>
        <time>2017-05-04T12:18:19.000Z</time>
      </trkpt>
      <trkpt lat="46.22426" lon="4.84338">
        <ele>191</ele>
        <time>2017-05-04T12:18:20.000Z</time>
      </trkpt>
      <trkpt lat="46.22427" lon="4.84339">
        <ele>191</ele>
        <time>2017-05-04T12:18:21.000Z</time>
      </trkpt>
      <trkpt lat="46.22427" lon="4.84341">
        <ele>191</ele>
        <time>2017-05-04T12:18:22.000Z</time>
      </trkpt>
      <trkpt lat="46.22428" lon="4.84341">
        <ele>191</ele>
        <time>2017-05-04T12:18:23.000Z</time>
      </trkpt>
      <trkpt lat="46.22428" lon="4.84342">
        <ele>190</ele>
        <time>2017-05-04T12:18:24.000Z</time>
      </trkpt>
      <trkpt lat="46.22428" lon="4.84342">
        <ele>190</ele>
        <time>2017-05-04T12:18:25.000Z</time>
      </trkpt>
      <trkpt lat="46.22429" lon="4.84343">
        <ele>190</ele>
        <time>2017-05-04T12:18:26.000Z</time>
      </trkpt>
      <trkpt lat="46.22429" lon="4.84344">
        <ele>191</ele>
        <time>2017-05-04T12:18:27.000Z</time>
      </trkpt>
      <trkpt lat="46.22428" lon="4.84346">
        <ele>191</ele>
        <time>2017-05-04T12:18:28.000Z</time>
      </trkpt>
      <trkpt lat="46.22428" lon="4.84347">
        <ele>191</ele>
        <time>2017-05-04T12:18:29.000Z</time>
      </trkpt>
      <trkpt lat="46.22428" lon="4.84348">
        <ele>191</ele>
        <time>2017-05-04T12:18:30.000Z</time>
      </trkpt>
      <trkpt lat="46.22428" lon="4.8435">
        <ele>191</ele>
        <time>2017-05-04T12:18:31.000Z</time>
      </trkpt>
      <trkpt lat="46.22428" lon="4.84351">
        <ele>191</ele>
        <time>2017-05-04T12:18:32.000Z</time>
      </trkpt>
      <trkpt lat="46.22428" lon="4.84353">
        <ele>191</ele>
        <time>2017-05-04T12:18:33.000Z</time>
      </trkpt>
      <trkpt lat="46.22428" lon="4.84355">
        <ele>191</ele>
        <time>2017-05-04T12:18:34.000Z</time>
      </trkpt>
      <trkpt lat="46.22428" lon="4.84357">
        <ele>191</ele>
        <time>2017-05-04T12:18:35.000Z</time>
      </trkpt>
      <trkpt lat="46.22427" lon="4.84358">
        <ele>191</ele>
        <time>2017-05-04T12:18:36.000Z</time>
      </trkpt>
      <trkpt lat="46.22427" lon="4.8436">
        <ele>191</ele>
        <time>2017-05-04T12:18:37.000Z</time>
      </trkpt>
      <trkpt lat="46.22427" lon="4.84362">
        <ele>191</ele>
        <time>2017-05-04T12:18:38.000Z</time>
      </trkpt>
      <trkpt lat="46.22427" lon="4.84364">
        <ele>191</ele>
        <time>2017-05-04T12:18:39.000Z</time>
      </trkpt>
      <trkpt lat="46.22427" lon="4.84366">
        <ele>191</ele>
        <time>2017-05-04T12:18:40.000Z</time>
      </trkpt>
      <trkpt lat="46.22427" lon="4.84367">
        <ele>191</ele>
        <time>2017-05-04T12:18:41.000Z</time>
      </trkpt>
      <trkpt lat="46.22427" lon="4.84369">
        <ele>191</ele>
        <time>2017-05-04T12:18:42.000Z</time>
      </trkpt>
      <trkpt lat="46.22427" lon="4.84371">
        <ele>191</ele>
        <time>2017-05-04T12:18:43.000Z</time>
      </trkpt>
      <trkpt lat="46.22427" lon="4.84373">
        <ele>191</ele>
        <time>2017-05-04T12:18:44.000Z</time>
      </trkpt>
      <trkpt lat="46.22427" lon="4.84374">
        <ele>191</ele>
        <time>2017-05-04T12:18:45.000Z</time>
      </trkpt>
      <trkpt lat="46.22427" lon="4.84376">
        <ele>191</ele>
        <time>2017-05-04T12:18:46.000Z</time>
      </trkpt>
      <trkpt lat="46.22427" lon="4.84378">
        <ele>191</ele>
        <time>2017-05-04T12:18:47.000Z</time>
      </trkpt>
      <trkpt lat="46.22426" lon="4.84379">
        <ele>191</ele>
        <time>2017-05-04T12:18:48.000Z</time>
      </trkpt>
      <trkpt lat="46.22426" lon="4.84381">
        <ele>191</ele>
        <time>2017-05-04T12:18:49.000Z</time>
      </trkpt>
      <trkpt lat="46.22426" lon="4.84383">
        <ele>191</ele>
        <time>2017-05-04T12:18:50.000Z</time>
      </trkpt>
      <trkpt lat="46.22426" lon="4.84384">
        <ele>191</ele>
        <time>2017-05-04T12:18:51.000Z</time>
      </trkpt>
      <trkpt lat="46.22425" lon="4.84385">
        <ele>191</ele>
        <time>2017-05-04T12:18:52.000Z</time>
      </trkpt>
      <trkpt lat="46.22425" lon="4.84387">
        <ele>191</ele>
        <time>2017-05-04T12:18:53.000Z</time>
      </trkpt>
      <trkpt lat="46.22425" lon="4.84388">
        <ele>192</ele>
        <time>2017-05-04T12:18:54.000Z</time>
      </trkpt>
      <trkpt lat="46.22425" lon="4.8439">
        <ele>192</ele>
        <time>2017-05-04T12:18:55.000Z</time>
      </trkpt>
      <trkpt lat="46.22425" lon="4.84392">
        <ele>192</ele>
        <time>2017-05-04T12:18:56.000Z</time>
      </trkpt>
      <trkpt lat="46.22425" lon="4.84393">
        <ele>192</ele>
        <time>2017-05-04T12:18:57.000Z</time>
      </trkpt>
      <trkpt lat="46.22425" lon="4.84395">
        <ele>192</ele>
        <time>2017-05-04T12:18:58.000Z</time>
      </trkpt>
      <trkpt lat="46.22424" lon="4.84396">
        <ele>192</ele>
        <time>2017-05-04T12:18:59.000Z</time>
      </trkpt>
      <trkpt lat="46.22424" lon="4.84398">
        <ele>192</ele>
        <time>2017-05-04T12:19:00.000Z</time>
      </trkpt>
      <trkpt lat="46.22424" lon="4.844">
        <ele>192</ele>
        <time>2017-05-04T12:19:01.000Z</time>
      </trkpt>
      <trkpt lat="46.22424" lon="4.84402">
        <ele>191</ele>
        <time>2017-05-04T12:19:02.000Z</time>
      </trkpt>
      <trkpt lat="46.22424" lon="4.84403">
        <ele>192</ele>
        <time>2017-05-04T12:19:03.000Z</time>
      </trkpt>
      <trkpt lat="46.22424" lon="4.84405">
        <ele>192</ele>
        <time>2017-05-04T12:19:04.000Z</time>
      </trkpt>
      <trkpt lat="46.22423" lon="4.84406">
        <ele>191</ele>
        <time>2017-05-04T12:19:05.000Z</time>
      </trkpt>
      <trkpt lat="46.22423" lon="4.84408">
        <ele>191</ele>
        <time>2017-05-04T12:19:06.000Z</time>
      </trkpt>
      <trkpt lat="46.22423" lon="4.8441">
        <ele>191</ele>
        <time>2017-05-04T12:19:07.000Z</time>
      </trkpt>
      <trkpt lat="46.22423" lon="4.84411">
        <ele>192</ele>
        <time>2017-05-04T12:19:08.000Z</time>
      </trkpt>
      <trkpt lat="46.22423" lon="4.84413">
        <ele>192</ele>
        <time>2017-05-04T12:19:09.000Z</time>
      </trkpt>
      <trkpt lat="46.22423" lon="4.84414">
        <ele>192</ele>
        <time>2017-05-04T12:19:10.000Z</time>
      </trkpt>
      <trkpt lat="46.22423" lon="4.84416">
        <ele>192</ele>
        <time>2017-05-04T12:19:11.000Z</time>
      </trkpt>
      <trkpt lat="46.22422" lon="4.84418">
        <ele>192</ele>
        <time>2017-05-04T12:19:12.000Z</time>
      </trkpt>
      <trkpt lat="46.22422" lon="4.84419">
        <ele>192</ele>
        <time>2017-05-04T12:19:13.000Z</time>
      </trkpt>
      <trkpt lat="46.22422" lon="4.84421">
        <ele>193</ele>
        <time>2017-05-04T12:19:14.000Z</time>
      </trkpt>
      <trkpt lat="46.22422" lon="4.84422">
        <ele>193</ele>
        <time>2017-05-04T12:19:15.000Z</time>
      </trkpt>
      <trkpt lat="46.22422" lon="4.84424">
        <ele>193</ele>
        <time>2017-05-04T12:19:16.000Z</time>
      </trkpt>
      <trkpt lat="46.22422" lon="4.84425">
        <ele>193</ele>
        <time>2017-05-04T12:19:17.000Z</time>
      </trkpt>
      <trkpt lat="46.22422" lon="4.84427">
        <ele>193</ele>
        <time>2017-05-04T12:19:18.000Z</time>
      </trkpt>
      <trkpt lat="46.22422" lon="4.84428">
        <ele>193</ele>
        <time>2017-05-04T12:19:19.000Z</time>
      </trkpt>
      <trkpt lat="46.22422" lon="4.8443">
        <ele>193</ele>
        <time>2017-05-04T12:19:20.000Z</time>
      </trkpt>
      <trkpt lat="46.22422" lon="4.84431">
        <ele>193</ele>
        <time>2017-05-04T12:19:21.000Z</time>
      </trkpt>
      <trkpt lat="46.22421" lon="4.84433">
        <ele>193</ele>
        <time>2017-05-04T12:19:22.000Z</time>
      </trkpt>
      <trkpt lat="46.22421" lon="4.84434">
        <ele>193</ele>
        <time>2017-05-04T12:19:23.000Z</time>
      </trkpt>
      <trkpt lat="46.22421" lon="4.84436">
        <ele>193</ele>
        <time>2017-05-04T12:19:24.000Z</time>
      </trkpt>
      <trkpt lat="46.22421" lon="4.84437">
        <ele>194</ele>
        <time>2017-05-04T12:19:25.000Z</time>
      </trkpt>
      <trkpt lat="46.22421" lon="4.84439">
        <ele>194</ele>
        <time>2017-05-04T12:19:26.000Z</time>
      </trkpt>
      <trkpt lat="46.22421" lon="4.84441">
        <ele>194</ele>
        <time>2017-05-04T12:19:27.000Z</time>
      </trkpt>
      <trkpt lat="46.22421" lon="4.84442">
        <ele>194</ele>
        <time>2017-05-04T12:19:28.000Z</time>
      </trkpt>
      <trkpt lat="46.2242" lon="4.84444">
        <ele>194</ele>
        <time>2017-05-04T12:19:29.000Z</time>
      </trkpt>
      <trkpt lat="46.2242" lon="4.84445">
        <ele>194</ele>
        <time>2017-05-04T12:19:30.000Z</time>
      </trkpt>
      <trkpt lat="46.2242" lon="4.84447">
        <ele>194</ele>
        <time>2017-05-04T12:19:31.000Z</time>
      </trkpt>
      <trkpt lat="46.2242" lon="4.84448">
        <ele>194</ele>
        <time>2017-05-04T12:19:32.000Z</time>
      </trkpt>
      <trkpt lat="46.2242" lon="4.8445">
        <ele>194</ele>
        <time>2017-05-04T12:19:33.000Z</time>
      </trkpt>
      <trkpt lat="46.22419" lon="4.84451">
        <ele>195</ele>
        <time>2017-05-04T12:19:34.000Z</time>
      </trkpt>
      <trkpt lat="46.22419" lon="4.84453">
        <ele>195</ele>
        <time>2017-05-04T12:19:35.000Z</time>
      </trkpt>
      <trkpt lat="46.22419" lon="4.84454">
        <ele>196</ele>
        <time>2017-05-04T12:19:36.000Z</time>
      </trkpt>
      <trkpt lat="46.22419" lon="4.84455">
        <ele>196</ele>
        <time>2017-05-04T12:19:37.000Z</time>
      </trkpt>
      <trkpt lat="46.22418" lon="4.84457">
        <ele>196</ele>
        <time>2017-05-04T12:19:38.000Z</time>
      </trkpt>
      <trkpt lat="46.22418" lon="4.84458">
        <ele>196</ele>
        <time>2017-05-04T12:19:39.000Z</time>
      </trkpt>
      <trkpt lat="46.22418" lon="4.8446">
        <ele>197</ele>
        <time>2017-05-04T12:19:40.000Z</time>
      </trkpt>
      <trkpt lat="46.22418" lon="4.84461">
        <ele>197</ele>
        <time>2017-05-04T12:19:41.000Z</time>
      </trkpt>
      <trkpt lat="46.22418" lon="4.84463">
        <ele>197</ele>
        <time>2017-05-04T12:19:42.000Z</time>
      </trkpt>
      <trkpt lat="46.22418" lon="4.84464">
        <ele>197</ele>
        <time>2017-05-04T12:19:43.000Z</time>
      </trkpt>
      <trkpt lat="46.22418" lon="4.84466">
        <ele>198</ele>
        <time>2017-05-04T12:19:44.000Z</time>
      </trkpt>
      <trkpt lat="46.22417" lon="4.84467">
        <ele>198</ele>
        <time>2017-05-04T12:19:45.000Z</time>
      </trkpt>
      <trkpt lat="46.22417" lon="4.84468">
        <ele>198</ele>
        <time>2017-05-04T12:19:46.000Z</time>
      </trkpt>
      <trkpt lat="46.22417" lon="4.8447">
        <ele>198</ele>
        <time>2017-05-04T12:19:47.000Z</time>
      </trkpt>
      <trkpt lat="46.22417" lon="4.84471">
        <ele>198</ele>
        <time>2017-05-04T12:19:48.000Z</time>
      </trkpt>
      <trkpt lat="46.22417" lon="4.84473">
        <ele>198</ele>
        <time>2017-05-04T12:19:49.000Z</time>
      </trkpt>
      <trkpt lat="46.22416" lon="4.84474">
        <ele>198</ele>
        <time>2017-05-04T12:19:50.000Z</time>
      </trkpt>
      <trkpt lat="46.22416" lon="4.84476">
        <ele>198</ele>
        <time>2017-05-04T12:19:51.000Z</time>
      </trkpt>
      <trkpt lat="46.22416" lon="4.84477">
        <ele>198</ele>
        <time>2017-05-04T12:19:52.000Z</time>
      </trkpt>
      <trkpt lat="46.22416" lon="4.84479">
        <ele>198</ele>
        <time>2017-05-04T12:19:53.000Z</time>
      </trkpt>
      <trkpt lat="46.22416" lon="4.8448">
        <ele>198</ele>
        <time>2017-05-04T12:19:54.000Z</time>
      </trkpt>
      <trkpt lat="46.22416" lon="4.84482">
        <ele>198</ele>
        <time>2017-05-04T12:19:55.000Z</time>
      </trkpt>
      <trkpt lat="46.22416" lon="4.84483">
        <ele>198</ele>
        <time>2017-05-04T12:19:56.000Z</time>
      </trkpt>
      <trkpt lat="46.22416" lon="4.84485">
        <ele>198</ele>
        <time>2017-05-04T12:19:57.000Z</time>
      </trkpt>
      <trkpt lat="46.22416" lon="4.84487">
        <ele>198</ele>
        <time>2017-05-04T12:19:58.000Z</time>
      </trkpt>
      <trkpt lat="46.22416" lon="4.84488">
        <ele>199</ele>
        <time>2017-05-04T12:19:59.000Z</time>
      </trkpt>
      <trkpt lat="46.22416" lon="4.8449">
        <ele>199</ele>
        <time>2017-05-04T12:20:00.000Z</time>
      </trkpt>
      <trkpt lat="46.22416" lon="4.84491">
        <ele>199</ele>
        <time>2017-05-04T12:20:01.000Z</time>
      </trkpt>
      <trkpt lat="46.22416" lon="4.84493">
        <ele>199</ele>
        <time>2017-05-04T12:20:02.000Z</time>
      </trkpt>
      <trkpt lat="46.22416" lon="4.84494">
        <ele>199</ele>
        <time>2017-05-04T12:20:03.000Z</time>
      </trkpt>
      <trkpt lat="46.22415" lon="4.84496">
        <ele>200</ele>
        <time>2017-05-04T12:20:04.000Z</time>
      </trkpt>
      <trkpt lat="46.22415" lon="4.84497">
        <ele>199</ele>
        <time>2017-05-04T12:20:05.000Z</time>
      </trkpt>
      <trkpt lat="46.22415" lon="4.84499">
        <ele>199</ele>
        <time>2017-05-04T12:20:06.000Z</time>
      </trkpt>
      <trkpt lat="46.22415" lon="4.845">
        <ele>200</ele>
        <time>2017-05-04T12:20:07.000Z</time>
      </trkpt>
      <trkpt lat="46.22415" lon="4.84502">
        <ele>200</ele>
        <time>2017-05-04T12:20:08.000Z</time>
      </trkpt>
      <trkpt lat="46.22415" lon="4.84503">
        <ele>199</ele>
        <time>2017-05-04T12:20:09.000Z</time>
      </trkpt>
      <trkpt lat="46.22415" lon="4.84505">
        <ele>199</ele>
        <time>2017-05-04T12:20:10.000Z</time>
      </trkpt>
      <trkpt lat="46.22415" lon="4.84506">
        <ele>199</ele>
        <time>2017-05-04T12:20:11.000Z</time>
      </trkpt>
      <trkpt lat="46.22415" lon="4.84508">
        <ele>199</ele>
        <time>2017-05-04T12:20:12.000Z</time>
      </trkpt>
      <trkpt lat="46.22415" lon="4.84509">
        <ele>199</ele>
        <time>2017-05-04T12:20:13.000Z</time>
      </trkpt>
      <trkpt lat="46.22414" lon="4.84511">
        <ele>199</ele>
        <time>2017-05-04T12:20:14.000Z</time>
      </trkpt>
      <trkpt lat="46.22414" lon="4.84512">
        <ele>200</ele>
        <time>2017-05-04T12:20:15.000Z</time>
      </trkpt>
      <trkpt lat="46.22414" lon="4.84513">
        <ele>200</ele>
        <time>2017-05-04T12:20:16.000Z</time>
      </trkpt>
      <trkpt lat="46.22414" lon="4.84515">
        <ele>200</ele>
        <time>2017-05-04T12:20:17.000Z</time>
      </trkpt>
      <trkpt lat="46.22414" lon="4.84516">
        <ele>200</ele>
        <time>2017-05-04T12:20:18.000Z</time>
      </trkpt>
      <trkpt lat="46.22414" lon="4.84518">
        <ele>200</ele>
        <time>2017-05-04T12:20:19.000Z</time>
      </trkpt>
      <trkpt lat="46.22414" lon="4.8452">
        <ele>200</ele>
        <time>2017-05-04T12:20:20.000Z</time>
      </trkpt>
      <trkpt lat="46.22414" lon="4.84521">
        <ele>200</ele>
        <time>2017-05-04T12:20:21.000Z</time>
      </trkpt>
      <trkpt lat="46.22414" lon="4.84523">
        <ele>201</ele>
        <time>2017-05-04T12:20:22.000Z</time>
      </trkpt>
      <trkpt lat="46.22415" lon="4.84524">
        <ele>201</ele>
        <time>2017-05-04T12:20:23.000Z</time>
      </trkpt>
      <trkpt lat="46.22415" lon="4.84526">
        <ele>201</ele>
        <time>2017-05-04T12:20:24.000Z</time>
      </trkpt>
      <trkpt lat="46.22416" lon="4.84527">
        <ele>201</ele>
        <time>2017-05-04T12:20:25.000Z</time>
      </trkpt>
      <trkpt lat="46.22416" lon="4.84528">
        <ele>201</ele>
        <time>2017-05-04T12:20:26.000Z</time>
      </trkpt>
      <trkpt lat="46.22417" lon="4.8453">
        <ele>201</ele>
        <time>2017-05-04T12:20:27.000Z</time>
      </trkpt>
      <trkpt lat="46.22417" lon="4.84531">
        <ele>201</ele>
        <time>2017-05-04T12:20:28.000Z</time>
      </trkpt>
      <trkpt lat="46.22418" lon="4.84532">
        <ele>201</ele>
        <time>2017-05-04T12:20:29.000Z</time>
      </trkpt>
      <trkpt lat="46.22419" lon="4.84533">
        <ele>201</ele>
        <time>2017-05-04T12:20:30.000Z</time>
      </trkpt>
      <trkpt lat="46.2242" lon="4.84534">
        <ele>201</ele>
        <time>2017-05-04T12:20:31.000Z</time>
      </trkpt>
      <trkpt lat="46.22421" lon="4.84535">
        <ele>201</ele>
        <time>2017-05-04T12:20:32.000Z</time>
      </trkpt>
      <trkpt lat="46.22422" lon="4.84536">
        <ele>201</ele>
        <time>2017-05-04T12:20:33.000Z</time>
      </trkpt>
      <trkpt lat="46.22423" lon="4.84536">
        <ele>201</ele>
        <time>2017-05-04T12:20:34.000Z</time>
      </trkpt>
      <trkpt lat="46.22424" lon="4.84537">
        <ele>201</ele>
        <time>2017-05-04T12:20:35.000Z</time>
      </trkpt>
      <trkpt lat="46.22425" lon="4.84537">
        <ele>201</ele>
        <time>2017-05-04T12:20:36.000Z</time>
      </trkpt>
      <trkpt lat="46.22426" lon="4.84537">
        <ele>201</ele>
        <time>2017-05-04T12:20:37.000Z</time>
      </trkpt>
      <trkpt lat="46.22427" lon="4.84538">
        <ele>201</ele>
        <time>2017-05-04T12:20:38.000Z</time>
      </trkpt>
      <trkpt lat="46.22428" lon="4.84538">
        <ele>201</ele>
        <time>2017-05-04T12:20:39.000Z</time>
      </trkpt>
      <trkpt lat="46.22428" lon="4.84539">
        <ele>201</ele>
        <time>2017-05-04T12:20:40.000Z</time>
      </trkpt>
      <trkpt lat="46.22429" lon="4.84539">
        <ele>201</ele>
        <time>2017-05-04T12:20:41.000Z</time>
      </trkpt>
      <trkpt lat="46.2243" lon="4.84539">
        <ele>201</ele>
        <time>2017-05-04T12:20:42.000Z</time>
      </trkpt>
      <trkpt lat="46.22431" lon="4.8454">
        <ele>201</ele>
        <time>2017-05-04T12:20:43.000Z</time>
      </trkpt>
      <trkpt lat="46.22432" lon="4.8454">
        <ele>201</ele>
        <time>2017-05-04T12:20:44.000Z</time>
      </trkpt>
      <trkpt lat="46.22433" lon="4.8454">
        <ele>201</ele>
        <time>2017-05-04T12:20:45.000Z</time>
      </trkpt>
      <trkpt lat="46.22434" lon="4.84541">
        <ele>201</ele>
        <time>2017-05-04T12:20:46.000Z</time>
      </trkpt>
      <trkpt lat="46.22435" lon="4.84541">
        <ele>201</ele>
        <time>2017-05-04T12:20:47.000Z</time>
      </trkpt>
      <trkpt lat="46.22436" lon="4.84541">
        <ele>201</ele>
        <time>2017-05-04T12:20:48.000Z</time>
      </trkpt>
      <trkpt lat="46.22437" lon="4.84542">
        <ele>201</ele>
        <time>2017-05-04T12:20:49.000Z</time>
      </trkpt>
      <trkpt lat="46.22438" lon="4.84542">
        <ele>201</ele>
        <time>2017-05-04T12:20:50.000Z</time>
      </trkpt>
      <trkpt lat="46.22439" lon="4.84543">
        <ele>201</ele>
        <time>2017-05-04T12:20:51.000Z</time>
      </trkpt>
      <trkpt lat="46.2244" lon="4.84543">
        <ele>201</ele>
        <time>2017-05-04T12:20:52.000Z</time>
      </trkpt>
      <trkpt lat="46.2244" lon="4.84544">
        <ele>201</ele>
        <time>2017-05-04T12:20:53.000Z</time>
      </trkpt>
      <trkpt lat="46.22441" lon="4.84544">
        <ele>201</ele>
        <time>2017-05-04T12:20:54.000Z</time>
      </trkpt>
      <trkpt lat="46.22442" lon="4.84545">
        <ele>201</ele>
        <time>2017-05-04T12:20:55.000Z</time>
      </trkpt>
      <trkpt lat="46.22443" lon="4.84546">
        <ele>201</ele>
        <time>2017-05-04T12:20:56.000Z</time>
      </trkpt>
      <trkpt lat="46.22444" lon="4.84546">
        <ele>201</ele>
        <time>2017-05-04T12:20:57.000Z</time>
      </trkpt>
      <trkpt lat="46.22445" lon="4.84547">
        <ele>201</ele>
        <time>2017-05-04T12:20:58.000Z</time>
      </trkpt>
      <trkpt lat="46.22446" lon="4.84547">
        <ele>201</ele>
        <time>2017-05-04T12:20:59.000Z</time>
      </trkpt>
      <trkpt lat="46.22447" lon="4.84548">
        <ele>201</ele>
        <time>2017-05-04T12:21:00.000Z</time>
      </trkpt>
      <trkpt lat="46.22448" lon="4.84548">
        <ele>201</ele>
        <time>2017-05-04T12:21:01.000Z</time>
      </trkpt>
      <trkpt lat="46.22448" lon="4.84549">
        <ele>201</ele>
        <time>2017-05-04T12:21:02.000Z</time>
      </trkpt>
      <trkpt lat="46.22449" lon="4.8455">
        <ele>201</ele>
        <time>2017-05-04T12:21:03.000Z</time>
      </trkpt>
      <trkpt lat="46.2245" lon="4.84551">
        <ele>201</ele>
        <time>2017-05-04T12:21:04.000Z</time>
      </trkpt>
      <trkpt lat="46.22451" lon="4.84551">
        <ele>201</ele>
        <time>2017-05-04T12:21:05.000Z</time>
      </trkpt>
      <trkpt lat="46.22452" lon="4.84552">
        <ele>201</ele>
        <time>2017-05-04T12:21:06.000Z</time>
      </trkpt>
      <trkpt lat="46.22452" lon="4.84553">
        <ele>201</ele>
        <time>2017-05-04T12:21:07.000Z</time>
      </trkpt>
      <trkpt lat="46.22453" lon="4.84554">
        <ele>201</ele>
        <time>2017-05-04T12:21:08.000Z</time>
      </trkpt>
      <trkpt lat="46.22454" lon="4.84555">
        <ele>201</ele>
        <time>2017-05-04T12:21:09.000Z</time>
      </trkpt>
      <trkpt lat="46.22455" lon="4.84555">
        <ele>201</ele>
        <time>2017-05-04T12:21:10.000Z</time>
      </trkpt>
      <trkpt lat="46.22456" lon="4.84556">
        <ele>201</ele>
        <time>2017-05-04T12:21:11.000Z</time>
      </trkpt>
      <trkpt lat="46.22456" lon="4.84557">
        <ele>201</ele>
        <time>2017-05-04T12:21:12.000Z</time>
      </trkpt>
      <trkpt lat="46.22457" lon="4.84558">
        <ele>201</ele>
        <time>2017-05-04T12:21:13.000Z</time>
      </trkpt>
      <trkpt lat="46.22458" lon="4.84559">
        <ele>201</ele>
        <time>2017-05-04T12:21:14.000Z</time>
      </trkpt>
      <trkpt lat="46.22458" lon="4.84559">
        <ele>201</ele>
        <time>2017-05-04T12:21:15.000Z</time>
      </trkpt>
      <trkpt lat="46.22459" lon="4.8456">
        <ele>201</ele>
        <time>2017-05-04T12:21:16.000Z</time>
      </trkpt>
      <trkpt lat="46.22459" lon="4.84561">
        <ele>202</ele>
        <time>2017-05-04T12:21:17.000Z</time>
      </trkpt>
      <trkpt lat="46.2246" lon="4.84562">
        <ele>202</ele>
        <time>2017-05-04T12:21:18.000Z</time>
      </trkpt>
      <trkpt lat="46.2246" lon="4.84563">
        <ele>202</ele>
        <time>2017-05-04T12:21:19.000Z</time>
      </trkpt>
      <trkpt lat="46.22461" lon="4.84564">
        <ele>201</ele>
        <time>2017-05-04T12:21:20.000Z</time>
      </trkpt>
      <trkpt lat="46.22461" lon="4.84565">
        <ele>201</ele>
        <time>2017-05-04T12:21:21.000Z</time>
      </trkpt>
      <trkpt lat="46.22462" lon="4.84567">
        <ele>201</ele>
        <time>2017-05-04T12:21:22.000Z</time>
      </trkpt>
      <trkpt lat="46.22463" lon="4.84568">
        <ele>201</ele>
        <time>2017-05-04T12:21:23.000Z</time>
      </trkpt>
      <trkpt lat="46.22463" lon="4.84569">
        <ele>201</ele>
        <time>2017-05-04T12:21:24.000Z</time>
      </trkpt>
      <trkpt lat="46.22464" lon="4.84569">
        <ele>202</ele>
        <time>2017-05-04T12:21:25.000Z</time>
      </trkpt>
      <trkpt lat="46.22465" lon="4.8457">
        <ele>202</ele>
        <time>2017-05-04T12:21:26.000Z</time>
      </trkpt>
      <trkpt lat="46.22465" lon="4.8457">
        <ele>202</ele>
        <time>2017-05-04T12:21:27.000Z</time>
      </trkpt>
      <trkpt lat="46.22466" lon="4.8457">
        <ele>202</ele>
        <time>2017-05-04T12:21:28.000Z</time>
      </trkpt>
      <trkpt lat="46.22466" lon="4.8457">
        <ele>202</ele>
        <time>2017-05-04T12:21:29.000Z</time>
      </trkpt>
      <trkpt lat="46.22466" lon="4.8457">
        <ele>202</ele>
        <time>2017-05-04T12:21:30.000Z</time>
      </trkpt>
      <trkpt lat="46.22466" lon="4.8457">
        <ele>202</ele>
        <time>2017-05-04T12:21:31.000Z</time>
      </trkpt>
      <trkpt lat="46.22465" lon="4.84571">
        <ele>202</ele>
        <time>2017-05-04T12:21:32.000Z</time>
      </trkpt>
      <trkpt lat="46.22465" lon="4.84571">
        <ele>202</ele>
        <time>2017-05-04T12:21:33.000Z</time>
      </trkpt>
      <trkpt lat="46.22465" lon="4.84572">
        <ele>202</ele>
        <time>2017-05-04T12:21:34.000Z</time>
      </trkpt>
      <trkpt lat="46.22465" lon="4.84572">
        <ele>202</ele>
        <time>2017-05-04T12:21:35.000Z</time>
      </trkpt>
      <trkpt lat="46.22465" lon="4.84572">
        <ele>202</ele>
        <time>2017-05-04T12:21:36.000Z</time>
      </trkpt>
      <trkpt lat="46.22465" lon="4.84573">
        <ele>202</ele>
        <time>2017-05-04T12:21:37.000Z</time>
      </trkpt>
      <trkpt lat="46.22465" lon="4.84574">
        <ele>202</ele>
        <time>2017-05-04T12:21:38.000Z</time>
      </trkpt>
      <trkpt lat="46.22466" lon="4.84575">
        <ele>202</ele>
        <time>2017-05-04T12:21:39.000Z</time>
      </trkpt>
      <trkpt lat="46.22466" lon="4.84577">
        <ele>202</ele>
        <time>2017-05-04T12:21:40.000Z</time>
      </trkpt>
      <trkpt lat="46.22466" lon="4.84578">
        <ele>202</ele>
        <time>2017-05-04T12:21:41.000Z</time>
      </trkpt>
      <trkpt lat="46.22467" lon="4.8458">
        <ele>202</ele>
        <time>2017-05-04T12:21:42.000Z</time>
      </trkpt>
      <trkpt lat="46.22467" lon="4.84582">
        <ele>202</ele>
        <time>2017-05-04T12:21:43.000Z</time>
      </trkpt>
      <trkpt lat="46.22468" lon="4.84583">
        <ele>202</ele>
        <time>2017-05-04T12:21:44.000Z</time>
      </trkpt>
      <trkpt lat="46.22468" lon="4.84585">
        <ele>202</ele>
        <time>2017-05-04T12:21:45.000Z</time>
      </trkpt>
      <trkpt lat="46.22468" lon="4.84587">
        <ele>202</ele>
        <time>2017-05-04T12:21:46.000Z</time>
      </trkpt>
      <trkpt lat="46.22468" lon="4.84589">
        <ele>202</ele>
        <time>2017-05-04T12:21:47.000Z</time>
      </trkpt>
      <trkpt lat="46.22468" lon="4.84591">
        <ele>202</ele>
        <time>2017-05-04T12:21:48.000Z</time>
      </trkpt>
      <trkpt lat="46.22469" lon="4.84592">
        <ele>202</ele>
        <time>2017-05-04T12:21:49.000Z</time>
      </trkpt>
      <trkpt lat="46.22469" lon="4.84594">
        <ele>202</ele>
        <time>2017-05-04T12:21:50.000Z</time>
      </trkpt>
      <trkpt lat="46.22469" lon="4.84595">
        <ele>201</ele>
        <time>2017-05-04T12:21:51.000Z</time>
      </trkpt>
      <trkpt lat="46.2247" lon="4.84597">
        <ele>201</ele>
        <time>2017-05-04T12:21:52.000Z</time>
      </trkpt>
      <trkpt lat="46.2247" lon="4.84598">
        <ele>201</ele>
        <time>2017-05-04T12:21:53.000Z</time>
      </trkpt>
      <trkpt lat="46.2247" lon="4.84599">
        <ele>201</ele>
        <time>2017-05-04T12:21:54.000Z</time>
      </trkpt>
      <trkpt lat="46.2247" lon="4.84601">
        <ele>201</ele>
        <time>2017-05-04T12:21:55.000Z</time>
      </trkpt>
      <trkpt lat="46.22471" lon="4.84602">
        <ele>201</ele>
        <time>2017-05-04T12:21:56.000Z</time>
      </trkpt>
      <trkpt lat="46.22471" lon="4.84604">
        <ele>201</ele>
        <time>2017-05-04T12:21:57.000Z</time>
      </trkpt>
      <trkpt lat="46.22471" lon="4.84605">
        <ele>201</ele>
        <time>2017-05-04T12:21:58.000Z</time>
      </trkpt>
      <trkpt lat="46.22471" lon="4.84607">
        <ele>201</ele>
        <time>2017-05-04T12:21:59.000Z</time>
      </trkpt>
      <trkpt lat="46.22472" lon="4.84609">
        <ele>201</ele>
        <time>2017-05-04T12:22:00.000Z</time>
      </trkpt>
      <trkpt lat="46.22472" lon="4.84611">
        <ele>201</ele>
        <time>2017-05-04T12:22:01.000Z</time>
      </trkpt>
      <trkpt lat="46.22472" lon="4.84613">
        <ele>201</ele>
        <time>2017-05-04T12:22:02.000Z</time>
      </trkpt>
      <trkpt lat="46.22473" lon="4.84615">
        <ele>201</ele>
        <time>2017-05-04T12:22:03.000Z</time>
      </trkpt>
      <trkpt lat="46.22473" lon="4.84617">
        <ele>202</ele>
        <time>2017-05-04T12:22:04.000Z</time>
      </trkpt>
      <trkpt lat="46.22473" lon="4.84619">
        <ele>202</ele>
        <time>2017-05-04T12:22:05.000Z</time>
      </trkpt>
      <trkpt lat="46.22474" lon="4.84621">
        <ele>202</ele>
        <time>2017-05-04T12:22:06.000Z</time>
      </trkpt>
      <trkpt lat="46.22474" lon="4.84623">
        <ele>202</ele>
        <time>2017-05-04T12:22:07.000Z</time>
      </trkpt>
      <trkpt lat="46.22474" lon="4.84625">
        <ele>202</ele>
        <time>2017-05-04T12:22:08.000Z</time>
      </trkpt>
      <trkpt lat="46.22474" lon="4.84627">
        <ele>202</ele>
        <time>2017-05-04T12:22:09.000Z</time>
      </trkpt>
      <trkpt lat="46.22474" lon="4.84629">
        <ele>202</ele>
        <time>2017-05-04T12:22:10.000Z</time>
      </trkpt>
      <trkpt lat="46.22474" lon="4.84632">
        <ele>202</ele>
        <time>2017-05-04T12:22:11.000Z</time>
      </trkpt>
      <trkpt lat="46.22474" lon="4.84634">
        <ele>202</ele>
        <time>2017-05-04T12:22:12.000Z</time>
      </trkpt>
      <trkpt lat="46.22474" lon="4.84636">
        <ele>202</ele>
        <time>2017-05-04T12:22:13.000Z</time>
      </trkpt>
      <trkpt lat="46.22474" lon="4.84638">
        <ele>202</ele>
        <time>2017-05-04T12:22:14.000Z</time>
      </trkpt>
      <trkpt lat="46.22474" lon="4.8464">
        <ele>202</ele>
        <time>2017-05-04T12:22:15.000Z</time>
      </trkpt>
      <trkpt lat="46.22474" lon="4.84642">
        <ele>202</ele>
        <time>2017-05-04T12:22:16.000Z</time>
      </trkpt>
      <trkpt lat="46.22474" lon="4.84644">
        <ele>202</ele>
        <time>2017-05-04T12:22:17.000Z</time>
      </trkpt>
      <trkpt lat="46.22474" lon="4.84646">
        <ele>202</ele>
        <time>2017-05-04T12:22:18.000Z</time>
      </trkpt>
      <trkpt lat="46.22474" lon="4.84649">
        <ele>202</ele>
        <time>2017-05-04T12:22:19.000Z</time>
      </trkpt>
      <trkpt lat="46.22474" lon="4.84651">
        <ele>202</ele>
        <time>2017-05-04T12:22:20.000Z</time>
      </trkpt>
      <trkpt lat="46.22474" lon="4.84653">
        <ele>202</ele>
        <time>2017-05-04T12:22:21.000Z</time>
      </trkpt>
      <trkpt lat="46.22473" lon="4.84655">
        <ele>203</ele>
        <time>2017-05-04T12:22:22.000Z</time>
      </trkpt>
      <trkpt lat="46.22473" lon="4.84657">
        <ele>203</ele>
        <time>2017-05-04T12:22:23.000Z</time>
      </trkpt>
      <trkpt lat="46.22473" lon="4.84659">
        <ele>203</ele>
        <time>2017-05-04T12:22:24.000Z</time>
      </trkpt>
      <trkpt lat="46.22473" lon="4.84661">
        <ele>203</ele>
        <time>2017-05-04T12:22:25.000Z</time>
      </trkpt>
      <trkpt lat="46.22473" lon="4.84663">
        <ele>203</ele>
        <time>2017-05-04T12:22:26.000Z</time>
      </trkpt>
      <trkpt lat="46.22473" lon="4.84665">
        <ele>203</ele>
        <time>2017-05-04T12:22:27.000Z</time>
      </trkpt>
      <trkpt lat="46.22473" lon="4.84666">
        <ele>203</ele>
        <time>2017-05-04T12:22:28.000Z</time>
      </trkpt>
      <trkpt lat="46.22473" lon="4.84668">
        <ele>203</ele>
        <time>2017-05-04T12:22:29.000Z</time>
      </trkpt>
      <trkpt lat="46.22473" lon="4.8467">
        <ele>203</ele>
        <time>2017-05-04T12:22:30.000Z</time>
      </trkpt>
      <trkpt lat="46.22473" lon="4.84672">
        <ele>203</ele>
        <time>2017-05-04T12:22:31.000Z</time>
      </trkpt>
      <trkpt lat="46.22473" lon="4.84674">
        <ele>203</ele>
        <time>2017-05-04T12:22:32.000Z</time>
      </trkpt>
      <trkpt lat="46.22473" lon="4.84675">
        <ele>203</ele>
        <time>2017-05-04T12:22:33.000Z</time>
      </trkpt>
      <trkpt lat="46.22473" lon="4.84677">
        <ele>203</ele>
        <time>2017-05-04T12:22:34.000Z</time>
      </trkpt>
      <trkpt lat="46.22473" lon="4.84678">
        <ele>203</ele>
        <time>2017-05-04T12:22:35.000Z</time>
      </trkpt>
      <trkpt lat="46.22473" lon="4.8468">
        <ele>203</ele>
        <time>2017-05-04T12:22:36.000Z</time>
      </trkpt>
      <trkpt lat="46.22473" lon="4.84681">
        <ele>203</ele>
        <time>2017-05-04T12:22:37.000Z</time>
      </trkpt>
      <trkpt lat="46.22473" lon="4.84683">
        <ele>204</ele>
        <time>2017-05-04T12:22:38.000Z</time>
      </trkpt>
      <trkpt lat="46.22473" lon="4.84686">
        <ele>204</ele>
        <time>2017-05-04T12:22:39.000Z</time>
      </trkpt>
      <trkpt lat="46.22473" lon="4.84688">
        <ele>204</ele>
        <time>2017-05-04T12:22:40.000Z</time>
      </trkpt>
      <trkpt lat="46.22473" lon="4.8469">
        <ele>204</ele>
        <time>2017-05-04T12:22:41.000Z</time>
      </trkpt>
      <trkpt lat="46.22473" lon="4.84692">
        <ele>204</ele>
        <time>2017-05-04T12:22:42.000Z</time>
      </trkpt>
      <trkpt lat="46.22473" lon="4.84694">
        <ele>204</ele>
        <time>2017-05-04T12:22:43.000Z</time>
      </trkpt>
      <trkpt lat="46.22473" lon="4.84696">
        <ele>204</ele>
        <time>2017-05-04T12:22:44.000Z</time>
      </trkpt>
      <trkpt lat="46.22473" lon="4.84698">
        <ele>204</ele>
        <time>2017-05-04T12:22:45.000Z</time>
      </trkpt>
      <trkpt lat="46.22473" lon="4.847">
        <ele>204</ele>
        <time>2017-05-04T12:22:46.000Z</time>
      </trkpt>
      <trkpt lat="46.22472" lon="4.84702">
        <ele>204</ele>
        <time>2017-05-04T12:22:47.000Z</time>
      </trkpt>
      <trkpt lat="46.22473" lon="4.84704">
        <ele>204</ele>
        <time>2017-05-04T12:22:48.000Z</time>
      </trkpt>
      <trkpt lat="46.22473" lon="4.84706">
        <ele>204</ele>
        <time>2017-05-04T12:22:49.000Z</time>
      </trkpt>
      <trkpt lat="46.22473" lon="4.84708">
        <ele>204</ele>
        <time>2017-05-04T12:22:50.000Z</time>
      </trkpt>
      <trkpt lat="46.22472" lon="4.8471">
        <ele>204</ele>
        <time>2017-05-04T12:22:51.000Z</time>
      </trkpt>
      <trkpt lat="46.22472" lon="4.84712">
        <ele>205</ele>
        <time>2017-05-04T12:22:52.000Z</time>
      </trkpt>
      <trkpt lat="46.22472" lon="4.84714">
        <ele>205</ele>
        <time>2017-05-04T12:22:53.000Z</time>
      </trkpt>
      <trkpt lat="46.22472" lon="4.84716">
        <ele>205</ele>
        <time>2017-05-04T12:22:54.000Z</time>
      </trkpt>
      <trkpt lat="46.22472" lon="4.84718">
        <ele>205</ele>
        <time>2017-05-04T12:22:55.000Z</time>
      </trkpt>
      <trkpt lat="46.22471" lon="4.8472">
        <ele>205</ele>
        <time>2017-05-04T12:22:56.000Z</time>
      </trkpt>
      <trkpt lat="46.22471" lon="4.84722">
        <ele>205</ele>
        <time>2017-05-04T12:22:57.000Z</time>
      </trkpt>
      <trkpt lat="46.22471" lon="4.84724">
        <ele>205</ele>
        <time>2017-05-04T12:22:58.000Z</time>
      </trkpt>
      <trkpt lat="46.2247" lon="4.84726">
        <ele>205</ele>
        <time>2017-05-04T12:22:59.000Z</time>
      </trkpt>
      <trkpt lat="46.2247" lon="4.84728">
        <ele>205</ele>
        <time>2017-05-04T12:23:00.000Z</time>
      </trkpt>
      <trkpt lat="46.22469" lon="4.8473">
        <ele>205</ele>
        <time>2017-05-04T12:23:01.000Z</time>
      </trkpt>
      <trkpt lat="46.22469" lon="4.84731">
        <ele>205</ele>
        <time>2017-05-04T12:23:02.000Z</time>
      </trkpt>
      <trkpt lat="46.22468" lon="4.84733">
        <ele>205</ele>
        <time>2017-05-04T12:23:03.000Z</time>
      </trkpt>
      <trkpt lat="46.22468" lon="4.84735">
        <ele>205</ele>
        <time>2017-05-04T12:23:04.000Z</time>
      </trkpt>
      <trkpt lat="46.22467" lon="4.84737">
        <ele>205</ele>
        <time>2017-05-04T12:23:05.000Z</time>
      </trkpt>
      <trkpt lat="46.22467" lon="4.84739">
        <ele>205</ele>
        <time>2017-05-04T12:23:06.000Z</time>
      </trkpt>
      <trkpt lat="46.22466" lon="4.84741">
        <ele>204</ele>
        <time>2017-05-04T12:23:07.000Z</time>
      </trkpt>
      <trkpt lat="46.22466" lon="4.84742">
        <ele>204</ele>
        <time>2017-05-04T12:23:08.000Z</time>
      </trkpt>
      <trkpt lat="46.22465" lon="4.84744">
        <ele>204</ele>
        <time>2017-05-04T12:23:09.000Z</time>
      </trkpt>
      <trkpt lat="46.22465" lon="4.84746">
        <ele>204</ele>
        <time>2017-05-04T12:23:10.000Z</time>
      </trkpt>
      <trkpt lat="46.22465" lon="4.84748">
        <ele>204</ele>
        <time>2017-05-04T12:23:11.000Z</time>
      </trkpt>
      <trkpt lat="46.22464" lon="4.8475">
        <ele>204</ele>
        <time>2017-05-04T12:23:12.000Z</time>
      </trkpt>
      <trkpt lat="46.22464" lon="4.84752">
        <ele>205</ele>
        <time>2017-05-04T12:23:13.000Z</time>
      </trkpt>
      <trkpt lat="46.22463" lon="4.84754">
        <ele>205</ele>
        <time>2017-05-04T12:23:14.000Z</time>
      </trkpt>
      <trkpt lat="46.22463" lon="4.84756">
        <ele>204</ele>
        <time>2017-05-04T12:23:15.000Z</time>
      </trkpt>
      <trkpt lat="46.22462" lon="4.84758">
        <ele>205</ele>
        <time>2017-05-04T12:23:16.000Z</time>
      </trkpt>
      <trkpt lat="46.22462" lon="4.8476">
        <ele>205</ele>
        <time>2017-05-04T12:23:17.000Z</time>
      </trkpt>
      <trkpt lat="46.22461" lon="4.84761">
        <ele>205</ele>
        <time>2017-05-04T12:23:18.000Z</time>
      </trkpt>
      <trkpt lat="46.22461" lon="4.84763">
        <ele>205</ele>
        <time>2017-05-04T12:23:19.000Z</time>
      </trkpt>
      <trkpt lat="46.2246" lon="4.84765">
        <ele>205</ele>
        <time>2017-05-04T12:23:20.000Z</time>
      </trkpt>
      <trkpt lat="46.2246" lon="4.84766">
        <ele>205</ele>
        <time>2017-05-04T12:23:21.000Z</time>
      </trkpt>
      <trkpt lat="46.22459" lon="4.84768">
        <ele>205</ele>
        <time>2017-05-04T12:23:22.000Z</time>
      </trkpt>
      <trkpt lat="46.22459" lon="4.8477">
        <ele>205</ele>
        <time>2017-05-04T12:23:23.000Z</time>
      </trkpt>
      <trkpt lat="46.22459" lon="4.84771">
        <ele>205</ele>
        <time>2017-05-04T12:23:24.000Z</time>
      </trkpt>
      <trkpt lat="46.22458" lon="4.84773">
        <ele>205</ele>
        <time>2017-05-04T12:23:25.000Z</time>
      </trkpt>
      <trkpt lat="46.22458" lon="4.84775">
        <ele>205</ele>
        <time>2017-05-04T12:23:26.000Z</time>
      </trkpt>
      <trkpt lat="46.22458" lon="4.84776">
        <ele>205</ele>
        <time>2017-05-04T12:23:27.000Z</time>
      </trkpt>
      <trkpt lat="46.22457" lon="4.84778">
        <ele>205</ele>
        <time>2017-05-04T12:23:28.000Z</time>
      </trkpt>
      <trkpt lat="46.22457" lon="4.8478">
        <ele>205</ele>
        <time>2017-05-04T12:23:29.000Z</time>
      </trkpt>
      <trkpt lat="46.22457" lon="4.84781">
        <ele>205</ele>
        <time>2017-05-04T12:23:30.000Z</time>
      </trkpt>
      <trkpt lat="46.22457" lon="4.84783">
        <ele>205</ele>
        <time>2017-05-04T12:23:31.000Z</time>
      </trkpt>
      <trkpt lat="46.22456" lon="4.84785">
        <ele>205</ele>
        <time>2017-05-04T12:23:32.000Z</time>
      </trkpt>
      <trkpt lat="46.22456" lon="4.84787">
        <ele>205</ele>
        <time>2017-05-04T12:23:33.000Z</time>
      </trkpt>
      <trkpt lat="46.22455" lon="4.84788">
        <ele>205</ele>
        <time>2017-05-04T12:23:34.000Z</time>
      </trkpt>
      <trkpt lat="46.22455" lon="4.8479">
        <ele>205</ele>
        <time>2017-05-04T12:23:35.000Z</time>
      </trkpt>
      <trkpt lat="46.22455" lon="4.84792">
        <ele>205</ele>
        <time>2017-05-04T12:23:36.000Z</time>
      </trkpt>
      <trkpt lat="46.22455" lon="4.84793">
        <ele>205</ele>
        <time>2017-05-04T12:23:37.000Z</time>
      </trkpt>
      <trkpt lat="46.22455" lon="4.84795">
        <ele>205</ele>
        <time>2017-05-04T12:23:38.000Z</time>
      </trkpt>
      <trkpt lat="46.22454" lon="4.84796">
        <ele>205</ele>
        <time>2017-05-04T12:23:39.000Z</time>
      </trkpt>
      <trkpt lat="46.22454" lon="4.84798">
        <ele>205</ele>
        <time>2017-05-04T12:23:40.000Z</time>
      </trkpt>
      <trkpt lat="46.22454" lon="4.848">
        <ele>205</ele>
        <time>2017-05-04T12:23:41.000Z</time>
      </trkpt>
      <trkpt lat="46.22454" lon="4.84802">
        <ele>205</ele>
        <time>2017-05-04T12:23:42.000Z</time>
      </trkpt>
      <trkpt lat="46.22454" lon="4.84803">
        <ele>205</ele>
        <time>2017-05-04T12:23:43.000Z</time>
      </trkpt>
      <trkpt lat="46.22454" lon="4.84805">
        <ele>205</ele>
        <time>2017-05-04T12:23:44.000Z</time>
      </trkpt>
      <trkpt lat="46.22454" lon="4.84806">
        <ele>206</ele>
        <time>2017-05-04T12:23:45.000Z</time>
      </trkpt>
      <trkpt lat="46.22454" lon="4.84808">
        <ele>206</ele>
        <time>2017-05-04T12:23:46.000Z</time>
      </trkpt>
      <trkpt lat="46.22454" lon="4.84809">
        <ele>206</ele>
        <time>2017-05-04T12:23:47.000Z</time>
      </trkpt>
      <trkpt lat="46.22454" lon="4.84811">
        <ele>206</ele>
        <time>2017-05-04T12:23:48.000Z</time>
      </trkpt>
      <trkpt lat="46.22454" lon="4.84813">
        <ele>206</ele>
        <time>2017-05-04T12:23:49.000Z</time>
      </trkpt>
      <trkpt lat="46.22454" lon="4.84814">
        <ele>206</ele>
        <time>2017-05-04T12:23:50.000Z</time>
      </trkpt>
      <trkpt lat="46.22454" lon="4.84816">
        <ele>206</ele>
        <time>2017-05-04T12:23:51.000Z</time>
      </trkpt>
      <trkpt lat="46.22454" lon="4.84817">
        <ele>206</ele>
        <time>2017-05-04T12:23:52.000Z</time>
      </trkpt>
      <trkpt lat="46.22454" lon="4.84819">
        <ele>206</ele>
        <time>2017-05-04T12:23:53.000Z</time>
      </trkpt>
      <trkpt lat="46.22454" lon="4.8482">
        <ele>206</ele>
        <time>2017-05-04T12:23:54.000Z</time>
      </trkpt>
      <trkpt lat="46.22454" lon="4.84822">
        <ele>206</ele>
        <time>2017-05-04T12:23:55.000Z</time>
      </trkpt>
      <trkpt lat="46.22454" lon="4.84824">
        <ele>206</ele>
        <time>2017-05-04T12:23:56.000Z</time>
      </trkpt>
      <trkpt lat="46.22454" lon="4.84826">
        <ele>206</ele>
        <time>2017-05-04T12:23:57.000Z</time>
      </trkpt>
      <trkpt lat="46.22454" lon="4.84827">
        <ele>206</ele>
        <time>2017-05-04T12:23:58.000Z</time>
      </trkpt>
      <trkpt lat="46.22454" lon="4.84829">
        <ele>206</ele>
        <time>2017-05-04T12:23:59.000Z</time>
      </trkpt>
      <trkpt lat="46.22454" lon="4.8483">
        <ele>207</ele>
        <time>2017-05-04T12:24:00.000Z</time>
      </trkpt>
      <trkpt lat="46.22454" lon="4.84832">
        <ele>207</ele>
        <time>2017-05-04T12:24:01.000Z</time>
      </trkpt>
      <trkpt lat="46.22454" lon="4.84834">
        <ele>207</ele>
        <time>2017-05-04T12:24:02.000Z</time>
      </trkpt>
      <trkpt lat="46.22454" lon="4.84836">
        <ele>207</ele>
        <time>2017-05-04T12:24:03.000Z</time>
      </trkpt>
      <trkpt lat="46.22454" lon="4.84837">
        <ele>207</ele>
        <time>2017-05-04T12:24:04.000Z</time>
      </trkpt>
      <trkpt lat="46.22454" lon="4.84839">
        <ele>207</ele>
        <time>2017-05-04T12:24:05.000Z</time>
      </trkpt>
      <trkpt lat="46.22455" lon="4.84841">
        <ele>207</ele>
        <time>2017-05-04T12:24:06.000Z</time>
      </trkpt>
      <trkpt lat="46.22455" lon="4.84842">
        <ele>207</ele>
        <time>2017-05-04T12:24:07.000Z</time>
      </trkpt>
      <trkpt lat="46.22455" lon="4.84844">
        <ele>207</ele>
        <time>2017-05-04T12:24:08.000Z</time>
      </trkpt>
      <trkpt lat="46.22455" lon="4.84846">
        <ele>207</ele>
        <time>2017-05-04T12:24:09.000Z</time>
      </trkpt>
      <trkpt lat="46.22455" lon="4.84848">
        <ele>207</ele>
        <time>2017-05-04T12:24:10.000Z</time>
      </trkpt>
      <trkpt lat="46.22455" lon="4.84849">
        <ele>207</ele>
        <time>2017-05-04T12:24:11.000Z</time>
      </trkpt>
      <trkpt lat="46.22455" lon="4.84851">
        <ele>207</ele>
        <time>2017-05-04T12:24:12.000Z</time>
      </trkpt>
      <trkpt lat="46.22456" lon="4.84852">
        <ele>208</ele>
        <time>2017-05-04T12:24:13.000Z</time>
      </trkpt>
      <trkpt lat="46.22456" lon="4.84853">
        <ele>208</ele>
        <time>2017-05-04T12:24:14.000Z</time>
      </trkpt>
      <trkpt lat="46.22456" lon="4.84855">
        <ele>208</ele>
        <time>2017-05-04T12:24:15.000Z</time>
      </trkpt>
      <trkpt lat="46.22456" lon="4.84857">
        <ele>208</ele>
        <time>2017-05-04T12:24:16.000Z</time>
      </trkpt>
      <trkpt lat="46.22456" lon="4.84858">
        <ele>208</ele>
        <time>2017-05-04T12:24:17.000Z</time>
      </trkpt>
      <trkpt lat="46.22457" lon="4.8486">
        <ele>208</ele>
        <time>2017-05-04T12:24:18.000Z</time>
      </trkpt>
      <trkpt lat="46.22457" lon="4.84861">
        <ele>208</ele>
        <time>2017-05-04T12:24:19.000Z</time>
      </trkpt>
      <trkpt lat="46.22457" lon="4.84862">
        <ele>207</ele>
        <time>2017-05-04T12:24:20.000Z</time>
      </trkpt>
      <trkpt lat="46.22457" lon="4.84864">
        <ele>207</ele>
        <time>2017-05-04T12:24:21.000Z</time>
      </trkpt>
      <trkpt lat="46.22457" lon="4.84865">
        <ele>207</ele>
        <time>2017-05-04T12:24:22.000Z</time>
      </trkpt>
      <trkpt lat="46.22457" lon="4.84867">
        <ele>207</ele>
        <time>2017-05-04T12:24:23.000Z</time>
      </trkpt>
      <trkpt lat="46.22457" lon="4.84868">
        <ele>207</ele>
        <time>2017-05-04T12:24:24.000Z</time>
      </trkpt>
      <trkpt lat="46.22457" lon="4.8487">
        <ele>207</ele>
        <time>2017-05-04T12:24:25.000Z</time>
      </trkpt>
      <trkpt lat="46.22457" lon="4.84871">
        <ele>207</ele>
        <time>2017-05-04T12:24:26.000Z</time>
      </trkpt>
      <trkpt lat="46.22458" lon="4.84873">
        <ele>207</ele>
        <time>2017-05-04T12:24:27.000Z</time>
      </trkpt>
      <trkpt lat="46.22458" lon="4.84874">
        <ele>207</ele>
        <time>2017-05-04T12:24:28.000Z</time>
      </trkpt>
      <trkpt lat="46.22458" lon="4.84876">
        <ele>207</ele>
        <time>2017-05-04T12:24:29.000Z</time>
      </trkpt>
      <trkpt lat="46.22458" lon="4.84878">
        <ele>207</ele>
        <time>2017-05-04T12:24:30.000Z</time>
      </trkpt>
      <trkpt lat="46.22458" lon="4.84879">
        <ele>207</ele>
        <time>2017-05-04T12:24:31.000Z</time>
      </trkpt>
      <trkpt lat="46.22458" lon="4.84881">
        <ele>207</ele>
        <time>2017-05-04T12:24:32.000Z</time>
      </trkpt>
      <trkpt lat="46.22458" lon="4.84882">
        <ele>207</ele>
        <time>2017-05-04T12:24:33.000Z</time>
      </trkpt>
      <trkpt lat="46.22458" lon="4.84883">
        <ele>207</ele>
        <time>2017-05-04T12:24:34.000Z</time>
      </trkpt>
      <trkpt lat="46.22459" lon="4.84885">
        <ele>206</ele>
        <time>2017-05-04T12:24:35.000Z</time>
      </trkpt>
      <trkpt lat="46.22459" lon="4.84886">
        <ele>207</ele>
        <time>2017-05-04T12:24:36.000Z</time>
      </trkpt>
      <trkpt lat="46.22459" lon="4.84888">
        <ele>207</ele>
        <time>2017-05-04T12:24:37.000Z</time>
      </trkpt>
      <trkpt lat="46.22459" lon="4.84889">
        <ele>207</ele>
        <time>2017-05-04T12:24:38.000Z</time>
      </trkpt>
      <trkpt lat="46.22459" lon="4.8489">
        <ele>207</ele>
        <time>2017-05-04T12:24:39.000Z</time>
      </trkpt>
      <trkpt lat="46.22459" lon="4.84892">
        <ele>207</ele>
        <time>2017-05-04T12:24:40.000Z</time>
      </trkpt>
      <trkpt lat="46.2246" lon="4.84893">
        <ele>208</ele>
        <time>2017-05-04T12:24:41.000Z</time>
      </trkpt>
      <trkpt lat="46.2246" lon="4.84894">
        <ele>208</ele>
        <time>2017-05-04T12:24:42.000Z</time>
      </trkpt>
      <trkpt lat="46.2246" lon="4.84896">
        <ele>208</ele>
        <time>2017-05-04T12:24:43.000Z</time>
      </trkpt>
      <trkpt lat="46.2246" lon="4.84898">
        <ele>208</ele>
        <time>2017-05-04T12:24:44.000Z</time>
      </trkpt>
      <trkpt lat="46.2246" lon="4.84899">
        <ele>208</ele>
        <time>2017-05-04T12:24:45.000Z</time>
      </trkpt>
      <trkpt lat="46.2246" lon="4.84901">
        <ele>208</ele>
        <time>2017-05-04T12:24:46.000Z</time>
      </trkpt>
      <trkpt lat="46.2246" lon="4.84902">
        <ele>208</ele>
        <time>2017-05-04T12:24:47.000Z</time>
      </trkpt>
      <trkpt lat="46.2246" lon="4.84904">
        <ele>208</ele>
        <time>2017-05-04T12:24:48.000Z</time>
      </trkpt>
      <trkpt lat="46.22461" lon="4.84905">
        <ele>208</ele>
        <time>2017-05-04T12:24:49.000Z</time>
      </trkpt>
      <trkpt lat="46.22461" lon="4.84907">
        <ele>209</ele>
        <time>2017-05-04T12:24:50.000Z</time>
      </trkpt>
      <trkpt lat="46.22461" lon="4.84909">
        <ele>209</ele>
        <time>2017-05-04T12:24:51.000Z</time>
      </trkpt>
      <trkpt lat="46.22461" lon="4.84911">
        <ele>209</ele>
        <time>2017-05-04T12:24:52.000Z</time>
      </trkpt>
      <trkpt lat="46.22461" lon="4.84913">
        <ele>209</ele>
        <time>2017-05-04T12:24:53.000Z</time>
      </trkpt>
      <trkpt lat="46.22461" lon="4.84914">
        <ele>209</ele>
        <time>2017-05-04T12:24:54.000Z</time>
      </trkpt>
      <trkpt lat="46.22461" lon="4.84916">
        <ele>209</ele>
        <time>2017-05-04T12:24:55.000Z</time>
      </trkpt>
      <trkpt lat="46.22461" lon="4.84918">
        <ele>209</ele>
        <time>2017-05-04T12:24:56.000Z</time>
      </trkpt>
      <trkpt lat="46.22462" lon="4.84919">
        <ele>209</ele>
        <time>2017-05-04T12:24:57.000Z</time>
      </trkpt>
      <trkpt lat="46.22462" lon="4.84921">
        <ele>209</ele>
        <time>2017-05-04T12:24:58.000Z</time>
      </trkpt>
      <trkpt lat="46.22462" lon="4.84922">
        <ele>209</ele>
        <time>2017-05-04T12:24:59.000Z</time>
      </trkpt>
      <trkpt lat="46.22462" lon="4.84924">
        <ele>209</ele>
        <time>2017-05-04T12:25:00.000Z</time>
      </trkpt>
      <trkpt lat="46.22462" lon="4.84925">
        <ele>209</ele>
        <time>2017-05-04T12:25:01.000Z</time>
      </trkpt>
      <trkpt lat="46.22462" lon="4.84927">
        <ele>209</ele>
        <time>2017-05-04T12:25:02.000Z</time>
      </trkpt>
      <trkpt lat="46.22462" lon="4.84929">
        <ele>209</ele>
        <time>2017-05-04T12:25:03.000Z</time>
      </trkpt>
      <trkpt lat="46.22462" lon="4.8493">
        <ele>209</ele>
        <time>2017-05-04T12:25:04.000Z</time>
      </trkpt>
      <trkpt lat="46.22463" lon="4.84932">
        <ele>209</ele>
        <time>2017-05-04T12:25:05.000Z</time>
      </trkpt>
      <trkpt lat="46.22463" lon="4.84933">
        <ele>209</ele>
        <time>2017-05-04T12:25:06.000Z</time>
      </trkpt>
      <trkpt lat="46.22463" lon="4.84935">
        <ele>209</ele>
        <time>2017-05-04T12:25:07.000Z</time>
      </trkpt>
      <trkpt lat="46.22463" lon="4.84937">
        <ele>209</ele>
        <time>2017-05-04T12:25:08.000Z</time>
      </trkpt>
      <trkpt lat="46.22463" lon="4.84938">
        <ele>209</ele>
        <time>2017-05-04T12:25:09.000Z</time>
      </trkpt>
      <trkpt lat="46.22463" lon="4.8494">
        <ele>209</ele>
        <time>2017-05-04T12:25:10.000Z</time>
      </trkpt>
      <trkpt lat="46.22463" lon="4.84941">
        <ele>209</ele>
        <time>2017-05-04T12:25:11.000Z</time>
      </trkpt>
      <trkpt lat="46.22464" lon="4.84943">
        <ele>209</ele>
        <time>2017-05-04T12:25:12.000Z</time>
      </trkpt>
      <trkpt lat="46.22464" lon="4.84945">
        <ele>209</ele>
        <time>2017-05-04T12:25:13.000Z</time>
      </trkpt>
      <trkpt lat="46.22464" lon="4.84947">
        <ele>209</ele>
        <time>2017-05-04T12:25:14.000Z</time>
      </trkpt>
      <trkpt lat="46.22465" lon="4.84949">
        <ele>208</ele>
        <time>2017-05-04T12:25:15.000Z</time>
      </trkpt>
      <trkpt lat="46.22465" lon="4.84951">
        <ele>208</ele>
        <time>2017-05-04T12:25:16.000Z</time>
      </trkpt>
      <trkpt lat="46.22465" lon="4.84952">
        <ele>208</ele>
        <time>2017-05-04T12:25:17.000Z</time>
      </trkpt>
      <trkpt lat="46.22466" lon="4.84954">
        <ele>208</ele>
        <time>2017-05-04T12:25:18.000Z</time>
      </trkpt>
      <trkpt lat="46.22466" lon="4.84956">
        <ele>208</ele>
        <time>2017-05-04T12:25:19.000Z</time>
      </trkpt>
      <trkpt lat="46.22466" lon="4.84958">
        <ele>208</ele>
        <time>2017-05-04T12:25:20.000Z</time>
      </trkpt>
      <trkpt lat="46.22466" lon="4.84959">
        <ele>209</ele>
        <time>2017-05-04T12:25:21.000Z</time>
      </trkpt>
      <trkpt lat="46.22466" lon="4.84961">
        <ele>208</ele>
        <time>2017-05-04T12:25:22.000Z</time>
      </trkpt>
      <trkpt lat="46.22466" lon="4.84963">
        <ele>208</ele>
        <time>2017-05-04T12:25:23.000Z</time>
      </trkpt>
      <trkpt lat="46.22466" lon="4.84965">
        <ele>209</ele>
        <time>2017-05-04T12:25:24.000Z</time>
      </trkpt>
      <trkpt lat="46.22467" lon="4.84967">
        <ele>209</ele>
        <time>2017-05-04T12:25:25.000Z</time>
      </trkpt>
      <trkpt lat="46.22467" lon="4.84968">
        <ele>208</ele>
        <time>2017-05-04T12:25:26.000Z</time>
      </trkpt>
      <trkpt lat="46.22467" lon="4.8497">
        <ele>208</ele>
        <time>2017-05-04T12:25:27.000Z</time>
      </trkpt>
      <trkpt lat="46.22467" lon="4.84972">
        <ele>208</ele>
        <time>2017-05-04T12:25:28.000Z</time>
      </trkpt>
      <trkpt lat="46.22467" lon="4.84974">
        <ele>208</ele>
        <time>2017-05-04T12:25:29.000Z</time>
      </trkpt>
      <trkpt lat="46.22467" lon="4.84975">
        <ele>208</ele>
        <time>2017-05-04T12:25:30.000Z</time>
      </trkpt>
      <trkpt lat="46.22467" lon="4.84977">
        <ele>209</ele>
        <time>2017-05-04T12:25:31.000Z</time>
      </trkpt>
      <trkpt lat="46.22467" lon="4.84979">
        <ele>209</ele>
        <time>2017-05-04T12:25:32.000Z</time>
      </trkpt>
      <trkpt lat="46.22467" lon="4.84981">
        <ele>209</ele>
        <time>2017-05-04T12:25:33.000Z</time>
      </trkpt>
      <trkpt lat="46.22466" lon="4.84983">
        <ele>209</ele>
        <time>2017-05-04T12:25:34.000Z</time>
      </trkpt>
      <trkpt lat="46.22466" lon="4.84984">
        <ele>209</ele>
        <time>2017-05-04T12:25:35.000Z</time>
      </trkpt>
      <trkpt lat="46.22466" lon="4.84986">
        <ele>208</ele>
        <time>2017-05-04T12:25:36.000Z</time>
      </trkpt>
      <trkpt lat="46.22466" lon="4.84988">
        <ele>209</ele>
        <time>2017-05-04T12:25:37.000Z</time>
      </trkpt>
      <trkpt lat="46.22466" lon="4.8499">
        <ele>209</ele>
        <time>2017-05-04T12:25:38.000Z</time>
      </trkpt>
      <trkpt lat="46.22466" lon="4.84991">
        <ele>209</ele>
        <time>2017-05-04T12:25:39.000Z</time>
      </trkpt>
      <trkpt lat="46.22466" lon="4.84993">
        <ele>209</ele>
        <time>2017-05-04T12:25:40.000Z</time>
      </trkpt>
      <trkpt lat="46.22466" lon="4.84994">
        <ele>209</ele>
        <time>2017-05-04T12:25:41.000Z</time>
      </trkpt>
      <trkpt lat="46.22465" lon="4.84995">
        <ele>209</ele>
        <time>2017-05-04T12:25:42.000Z</time>
      </trkpt>
      <trkpt lat="46.22465" lon="4.84996">
        <ele>209</ele>
        <time>2017-05-04T12:25:43.000Z</time>
      </trkpt>
      <trkpt lat="46.22465" lon="4.84997">
        <ele>210</ele>
        <time>2017-05-04T12:25:44.000Z</time>
      </trkpt>
      <trkpt lat="46.22464" lon="4.84998">
        <ele>210</ele>
        <time>2017-05-04T12:25:45.000Z</time>
      </trkpt>
      <trkpt lat="46.22464" lon="4.84999">
        <ele>210</ele>
        <time>2017-05-04T12:25:46.000Z</time>
      </trkpt>
      <trkpt lat="46.22463" lon="4.84999">
        <ele>210</ele>
        <time>2017-05-04T12:25:47.000Z</time>
      </trkpt>
      <trkpt lat="46.22463" lon="4.85">
        <ele>210</ele>
        <time>2017-05-04T12:25:48.000Z</time>
      </trkpt>
      <trkpt lat="46.22462" lon="4.85001">
        <ele>210</ele>
        <time>2017-05-04T12:25:49.000Z</time>
      </trkpt>
      <trkpt lat="46.22462" lon="4.85002">
        <ele>209</ele>
        <time>2017-05-04T12:25:50.000Z</time>
      </trkpt>
      <trkpt lat="46.22461" lon="4.85003">
        <ele>209</ele>
        <time>2017-05-04T12:25:51.000Z</time>
      </trkpt>
      <trkpt lat="46.2246" lon="4.85004">
        <ele>209</ele>
        <time>2017-05-04T12:25:52.000Z</time>
      </trkpt>
      <trkpt lat="46.2246" lon="4.85005">
        <ele>209</ele>
        <time>2017-05-04T12:25:53.000Z</time>
      </trkpt>
      <trkpt lat="46.22459" lon="4.85006">
        <ele>209</ele>
        <time>2017-05-04T12:25:54.000Z</time>
      </trkpt>
      <trkpt lat="46.22459" lon="4.85006">
        <ele>209</ele>
        <time>2017-05-04T12:25:55.000Z</time>
      </trkpt>
      <trkpt lat="46.22458" lon="4.85007">
        <ele>210</ele>
        <time>2017-05-04T12:25:56.000Z</time>
      </trkpt>
      <trkpt lat="46.22456" lon="4.85008">
        <ele>209</ele>
        <time>2017-05-04T12:25:57.000Z</time>
      </trkpt>
      <trkpt lat="46.22456" lon="4.85008">
        <ele>209</ele>
        <time>2017-05-04T12:25:58.000Z</time>
      </trkpt>
      <trkpt lat="46.22455" lon="4.85009">
        <ele>209</ele>
        <time>2017-05-04T12:25:59.000Z</time>
      </trkpt>
      <trkpt lat="46.22454" lon="4.8501">
        <ele>209</ele>
        <time>2017-05-04T12:26:00.000Z</time>
      </trkpt>
      <trkpt lat="46.22453" lon="4.8501">
        <ele>209</ele>
        <time>2017-05-04T12:26:01.000Z</time>
      </trkpt>
      <trkpt lat="46.22452" lon="4.85011">
        <ele>209</ele>
        <time>2017-05-04T12:26:02.000Z</time>
      </trkpt>
      <trkpt lat="46.22451" lon="4.85011">
        <ele>209</ele>
        <time>2017-05-04T12:26:03.000Z</time>
      </trkpt>
      <trkpt lat="46.2245" lon="4.85012">
        <ele>209</ele>
        <time>2017-05-04T12:26:04.000Z</time>
      </trkpt>
      <trkpt lat="46.22449" lon="4.85012">
        <ele>209</ele>
        <time>2017-05-04T12:26:05.000Z</time>
      </trkpt>
      <trkpt lat="46.22448" lon="4.85012">
        <ele>209</ele>
        <time>2017-05-04T12:26:06.000Z</time>
      </trkpt>
      <trkpt lat="46.22448" lon="4.85013">
        <ele>209</ele>
        <time>2017-05-04T12:26:07.000Z</time>
      </trkpt>
      <trkpt lat="46.22447" lon="4.85013">
        <ele>209</ele>
        <time>2017-05-04T12:26:08.000Z</time>
      </trkpt>
      <trkpt lat="46.22446" lon="4.85013">
        <ele>210</ele>
        <time>2017-05-04T12:26:09.000Z</time>
      </trkpt>
      <trkpt lat="46.22445" lon="4.85013">
        <ele>210</ele>
        <time>2017-05-04T12:26:10.000Z</time>
      </trkpt>
      <trkpt lat="46.22444" lon="4.85014">
        <ele>210</ele>
        <time>2017-05-04T12:26:11.000Z</time>
      </trkpt>
      <trkpt lat="46.22443" lon="4.85014">
        <ele>210</ele>
        <time>2017-05-04T12:26:12.000Z</time>
      </trkpt>
      <trkpt lat="46.22442" lon="4.85014">
        <ele>210</ele>
        <time>2017-05-04T12:26:13.000Z</time>
      </trkpt>
      <trkpt lat="46.22441" lon="4.85014">
        <ele>210</ele>
        <time>2017-05-04T12:26:14.000Z</time>
      </trkpt>
      <trkpt lat="46.2244" lon="4.85014">
        <ele>210</ele>
        <time>2017-05-04T12:26:15.000Z</time>
      </trkpt>
      <trkpt lat="46.22439" lon="4.85014">
        <ele>210</ele>
        <time>2017-05-04T12:26:16.000Z</time>
      </trkpt>
      <trkpt lat="46.22437" lon="4.85014">
        <ele>210</ele>
        <time>2017-05-04T12:26:17.000Z</time>
      </trkpt>
      <trkpt lat="46.22436" lon="4.85014">
        <ele>210</ele>
        <time>2017-05-04T12:26:18.000Z</time>
      </trkpt>
      <trkpt lat="46.22435" lon="4.85014">
        <ele>210</ele>
        <time>2017-05-04T12:26:19.000Z</time>
      </trkpt>
      <trkpt lat="46.22434" lon="4.85014">
        <ele>211</ele>
        <time>2017-05-04T12:26:20.000Z</time>
      </trkpt>
      <trkpt lat="46.22433" lon="4.85014">
        <ele>211</ele>
        <time>2017-05-04T12:26:21.000Z</time>
      </trkpt>
      <trkpt lat="46.22432" lon="4.85014">
        <ele>211</ele>
        <time>2017-05-04T12:26:22.000Z</time>
      </trkpt>
      <trkpt lat="46.22431" lon="4.85014">
        <ele>210</ele>
        <time>2017-05-04T12:26:23.000Z</time>
      </trkpt>
      <trkpt lat="46.2243" lon="4.85013">
        <ele>210</ele>
        <time>2017-05-04T12:26:24.000Z</time>
      </trkpt>
      <trkpt lat="46.22429" lon="4.85013">
        <ele>211</ele>
        <time>2017-05-04T12:26:25.000Z</time>
      </trkpt>
      <trkpt lat="46.22428" lon="4.85013">
        <ele>211</ele>
        <time>2017-05-04T12:26:26.000Z</time>
      </trkpt>
      <trkpt lat="46.22427" lon="4.85013">
        <ele>211</ele>
        <time>2017-05-04T12:26:27.000Z</time>
      </trkpt>
      <trkpt lat="46.22426" lon="4.85013">
        <ele>210</ele>
        <time>2017-05-04T12:26:28.000Z</time>
      </trkpt>
      <trkpt lat="46.22425" lon="4.85013">
        <ele>211</ele>
        <time>2017-05-04T12:26:29.000Z</time>
      </trkpt>
      <trkpt lat="46.22424" lon="4.85013">
        <ele>211</ele>
        <time>2017-05-04T12:26:30.000Z</time>
      </trkpt>
      <trkpt lat="46.22423" lon="4.85013">
        <ele>211</ele>
        <time>2017-05-04T12:26:31.000Z</time>
      </trkpt>
      <trkpt lat="46.22423" lon="4.85013">
        <ele>211</ele>
        <time>2017-05-04T12:26:32.000Z</time>
      </trkpt>
      <trkpt lat="46.22422" lon="4.85013">
        <ele>211</ele>
        <time>2017-05-04T12:26:33.000Z</time>
      </trkpt>
      <trkpt lat="46.2242" lon="4.85013">
        <ele>211</ele>
        <time>2017-05-04T12:26:34.000Z</time>
      </trkpt>
      <trkpt lat="46.22419" lon="4.85013">
        <ele>211</ele>
        <time>2017-05-04T12:26:35.000Z</time>
      </trkpt>
      <trkpt lat="46.22418" lon="4.85013">
        <ele>210</ele>
        <time>2017-05-04T12:26:36.000Z</time>
      </trkpt>
      <trkpt lat="46.22417" lon="4.85013">
        <ele>210</ele>
        <time>2017-05-04T12:26:37.000Z</time>
      </trkpt>
      <trkpt lat="46.22416" lon="4.85013">
        <ele>210</ele>
        <time>2017-05-04T12:26:38.000Z</time>
      </trkpt>
      <trkpt lat="46.22415" lon="4.85013">
        <ele>210</ele>
        <time>2017-05-04T12:26:39.000Z</time>
      </trkpt>
      <trkpt lat="46.22414" lon="4.85013">
        <ele>211</ele>
        <time>2017-05-04T12:26:40.000Z</time>
      </trkpt>
      <trkpt lat="46.22413" lon="4.85013">
        <ele>210</ele>
        <time>2017-05-04T12:26:41.000Z</time>
      </trkpt>
      <trkpt lat="46.22412" lon="4.85013">
        <ele>210</ele>
        <time>2017-05-04T12:26:42.000Z</time>
      </trkpt>
      <trkpt lat="46.22411" lon="4.85013">
        <ele>211</ele>
        <time>2017-05-04T12:26:43.000Z</time>
      </trkpt>
      <trkpt lat="46.2241" lon="4.85013">
        <ele>210</ele>
        <time>2017-05-04T12:26:44.000Z</time>
      </trkpt>
      <trkpt lat="46.22408" lon="4.85013">
        <ele>210</ele>
        <time>2017-05-04T12:26:45.000Z</time>
      </trkpt>
      <trkpt lat="46.22407" lon="4.85013">
        <ele>210</ele>
        <time>2017-05-04T12:26:46.000Z</time>
      </trkpt>
      <trkpt lat="46.22406" lon="4.85013">
        <ele>210</ele>
        <time>2017-05-04T12:26:47.000Z</time>
      </trkpt>
      <trkpt lat="46.22405" lon="4.85013">
        <ele>210</ele>
        <time>2017-05-04T12:26:48.000Z</time>
      </trkpt>
      <trkpt lat="46.22404" lon="4.85013">
        <ele>211</ele>
        <time>2017-05-04T12:26:49.000Z</time>
      </trkpt>
      <trkpt lat="46.22403" lon="4.85013">
        <ele>211</ele>
        <time>2017-05-04T12:26:50.000Z</time>
      </trkpt>
      <trkpt lat="46.22402" lon="4.85013">
        <ele>211</ele>
        <time>2017-05-04T12:26:51.000Z</time>
      </trkpt>
      <trkpt lat="46.22401" lon="4.85013">
        <ele>211</ele>
        <time>2017-05-04T12:26:52.000Z</time>
      </trkpt>
      <trkpt lat="46.22399" lon="4.85013">
        <ele>211</ele>
        <time>2017-05-04T12:26:53.000Z</time>
      </trkpt>
      <trkpt lat="46.22398" lon="4.85013">
        <ele>211</ele>
        <time>2017-05-04T12:26:54.000Z</time>
      </trkpt>
      <trkpt lat="46.22398" lon="4.85014">
        <ele>212</ele>
        <time>2017-05-04T12:26:55.000Z</time>
      </trkpt>
      <trkpt lat="46.22396" lon="4.85014">
        <ele>211</ele>
        <time>2017-05-04T12:26:56.000Z</time>
      </trkpt>
      <trkpt lat="46.22395" lon="4.85014">
        <ele>211</ele>
        <time>2017-05-04T12:26:57.000Z</time>
      </trkpt>
      <trkpt lat="46.22394" lon="4.85014">
        <ele>211</ele>
        <time>2017-05-04T12:26:58.000Z</time>
      </trkpt>
      <trkpt lat="46.22393" lon="4.85015">
        <ele>211</ele>
        <time>2017-05-04T12:26:59.000Z</time>
      </trkpt>
      <trkpt lat="46.22392" lon="4.85015">
        <ele>211</ele>
        <time>2017-05-04T12:27:00.000Z</time>
      </trkpt>
      <trkpt lat="46.22391" lon="4.85016">
        <ele>210</ele>
        <time>2017-05-04T12:27:01.000Z</time>
      </trkpt>
      <trkpt lat="46.2239" lon="4.85016">
        <ele>210</ele>
        <time>2017-05-04T12:27:02.000Z</time>
      </trkpt>
      <trkpt lat="46.22388" lon="4.85017">
        <ele>211</ele>
        <time>2017-05-04T12:27:03.000Z</time>
      </trkpt>
      <trkpt lat="46.22387" lon="4.85017">
        <ele>211</ele>
        <time>2017-05-04T12:27:04.000Z</time>
      </trkpt>
      <trkpt lat="46.22385" lon="4.85018">
        <ele>210</ele>
        <time>2017-05-04T12:27:05.000Z</time>
      </trkpt>
      <trkpt lat="46.22384" lon="4.85019">
        <ele>210</ele>
        <time>2017-05-04T12:27:06.000Z</time>
      </trkpt>
      <trkpt lat="46.22383" lon="4.8502">
        <ele>210</ele>
        <time>2017-05-04T12:27:07.000Z</time>
      </trkpt>
      <trkpt lat="46.22382" lon="4.85021">
        <ele>210</ele>
        <time>2017-05-04T12:27:08.000Z</time>
      </trkpt>
      <trkpt lat="46.22381" lon="4.85023">
        <ele>210</ele>
        <time>2017-05-04T12:27:09.000Z</time>
      </trkpt>
      <trkpt lat="46.22381" lon="4.85024">
        <ele>211</ele>
        <time>2017-05-04T12:27:10.000Z</time>
      </trkpt>
      <trkpt lat="46.2238" lon="4.85026">
        <ele>211</ele>
        <time>2017-05-04T12:27:11.000Z</time>
      </trkpt>
      <trkpt lat="46.22379" lon="4.85027">
        <ele>210</ele>
        <time>2017-05-04T12:27:12.000Z</time>
      </trkpt>
      <trkpt lat="46.22379" lon="4.85028">
        <ele>210</ele>
        <time>2017-05-04T12:27:13.000Z</time>
      </trkpt>
      <trkpt lat="46.22378" lon="4.8503">
        <ele>210</ele>
        <time>2017-05-04T12:27:14.000Z</time>
      </trkpt>
      <trkpt lat="46.22378" lon="4.85031">
        <ele>210</ele>
        <time>2017-05-04T12:27:15.000Z</time>
      </trkpt>
      <trkpt lat="46.22377" lon="4.85033">
        <ele>210</ele>
        <time>2017-05-04T12:27:16.000Z</time>
      </trkpt>
      <trkpt lat="46.22377" lon="4.85035">
        <ele>210</ele>
        <time>2017-05-04T12:27:17.000Z</time>
      </trkpt>
      <trkpt lat="46.22376" lon="4.85036">
        <ele>210</ele>
        <time>2017-05-04T12:27:18.000Z</time>
      </trkpt>
      <trkpt lat="46.22376" lon="4.85038">
        <ele>210</ele>
        <time>2017-05-04T12:27:19.000Z</time>
      </trkpt>
      <trkpt lat="46.22376" lon="4.8504">
        <ele>210</ele>
        <time>2017-05-04T12:27:20.000Z</time>
      </trkpt>
      <trkpt lat="46.22375" lon="4.85041">
        <ele>210</ele>
        <time>2017-05-04T12:27:21.000Z</time>
      </trkpt>
      <trkpt lat="46.22375" lon="4.85043">
        <ele>209</ele>
        <time>2017-05-04T12:27:22.000Z</time>
      </trkpt>
      <trkpt lat="46.22375" lon="4.85045">
        <ele>209</ele>
        <time>2017-05-04T12:27:23.000Z</time>
      </trkpt>
      <trkpt lat="46.22375" lon="4.85046">
        <ele>209</ele>
        <time>2017-05-04T12:27:24.000Z</time>
      </trkpt>
      <trkpt lat="46.22375" lon="4.85048">
        <ele>209</ele>
        <time>2017-05-04T12:27:25.000Z</time>
      </trkpt>
      <trkpt lat="46.22375" lon="4.85049">
        <ele>209</ele>
        <time>2017-05-04T12:27:26.000Z</time>
      </trkpt>
      <trkpt lat="46.22375" lon="4.85051">
        <ele>209</ele>
        <time>2017-05-04T12:27:27.000Z</time>
      </trkpt>
      <trkpt lat="46.22375" lon="4.85053">
        <ele>209</ele>
        <time>2017-05-04T12:27:28.000Z</time>
      </trkpt>
      <trkpt lat="46.22375" lon="4.85054">
        <ele>209</ele>
        <time>2017-05-04T12:27:29.000Z</time>
      </trkpt>
      <trkpt lat="46.22375" lon="4.85056">
        <ele>209</ele>
        <time>2017-05-04T12:27:30.000Z</time>
      </trkpt>
      <trkpt lat="46.22375" lon="4.85058">
        <ele>209</ele>
        <time>2017-05-04T12:27:31.000Z</time>
      </trkpt>
      <trkpt lat="46.22375" lon="4.85059">
        <ele>208</ele>
        <time>2017-05-04T12:27:32.000Z</time>
      </trkpt>
      <trkpt lat="46.22375" lon="4.85061">
        <ele>208</ele>
        <time>2017-05-04T12:27:33.000Z</time>
      </trkpt>
      <trkpt lat="46.22375" lon="4.85062">
        <ele>208</ele>
        <time>2017-05-04T12:27:34.000Z</time>
      </trkpt>
      <trkpt lat="46.22375" lon="4.85064">
        <ele>208</ele>
        <time>2017-05-04T12:27:35.000Z</time>
      </trkpt>
      <trkpt lat="46.22375" lon="4.85066">
        <ele>208</ele>
        <time>2017-05-04T12:27:36.000Z</time>
      </trkpt>
      <trkpt lat="46.22375" lon="4.85067">
        <ele>209</ele>
        <time>2017-05-04T12:27:37.000Z</time>
      </trkpt>
      <trkpt lat="46.22375" lon="4.85069">
        <ele>208</ele>
        <time>2017-05-04T12:27:38.000Z</time>
      </trkpt>
      <trkpt lat="46.22375" lon="4.8507">
        <ele>208</ele>
        <time>2017-05-04T12:27:39.000Z</time>
      </trkpt>
      <trkpt lat="46.22375" lon="4.85071">
        <ele>208</ele>
        <time>2017-05-04T12:27:40.000Z</time>
      </trkpt>
      <trkpt lat="46.22375" lon="4.85073">
        <ele>208</ele>
        <time>2017-05-04T12:27:41.000Z</time>
      </trkpt>
      <trkpt lat="46.22375" lon="4.85074">
        <ele>208</ele>
        <time>2017-05-04T12:27:42.000Z</time>
      </trkpt>
      <trkpt lat="46.22375" lon="4.85076">
        <ele>208</ele>
        <time>2017-05-04T12:27:43.000Z</time>
      </trkpt>
      <trkpt lat="46.22375" lon="4.85077">
        <ele>208</ele>
        <time>2017-05-04T12:27:44.000Z</time>
      </trkpt>
      <trkpt lat="46.22375" lon="4.85078">
        <ele>208</ele>
        <time>2017-05-04T12:27:45.000Z</time>
      </trkpt>
      <trkpt lat="46.22374" lon="4.8508">
        <ele>208</ele>
        <time>2017-05-04T12:27:46.000Z</time>
      </trkpt>
      <trkpt lat="46.22374" lon="4.85081">
        <ele>208</ele>
        <time>2017-05-04T12:27:47.000Z</time>
      </trkpt>
      <trkpt lat="46.22374" lon="4.85083">
        <ele>207</ele>
        <time>2017-05-04T12:27:48.000Z</time>
      </trkpt>
      <trkpt lat="46.22374" lon="4.85085">
        <ele>207</ele>
        <time>2017-05-04T12:27:49.000Z</time>
      </trkpt>
      <trkpt lat="46.22373" lon="4.85086">
        <ele>207</ele>
        <time>2017-05-04T12:27:50.000Z</time>
      </trkpt>
      <trkpt lat="46.22373" lon="4.85088">
        <ele>207</ele>
        <time>2017-05-04T12:27:51.000Z</time>
      </trkpt>
      <trkpt lat="46.22373" lon="4.85089">
        <ele>207</ele>
        <time>2017-05-04T12:27:52.000Z</time>
      </trkpt>
      <trkpt lat="46.22372" lon="4.85091">
        <ele>207</ele>
        <time>2017-05-04T12:27:53.000Z</time>
      </trkpt>
      <trkpt lat="46.22372" lon="4.85092">
        <ele>207</ele>
        <time>2017-05-04T12:27:54.000Z</time>
      </trkpt>
      <trkpt lat="46.22372" lon="4.85094">
        <ele>207</ele>
        <time>2017-05-04T12:27:55.000Z</time>
      </trkpt>
      <trkpt lat="46.22371" lon="4.85095">
        <ele>207</ele>
        <time>2017-05-04T12:27:56.000Z</time>
      </trkpt>
      <trkpt lat="46.22371" lon="4.85096">
        <ele>207</ele>
        <time>2017-05-04T12:27:57.000Z</time>
      </trkpt>
      <trkpt lat="46.22371" lon="4.85097">
        <ele>208</ele>
        <time>2017-05-04T12:27:58.000Z</time>
      </trkpt>
      <trkpt lat="46.2237" lon="4.85099">
        <ele>207</ele>
        <time>2017-05-04T12:27:59.000Z</time>
      </trkpt>
      <trkpt lat="46.2237" lon="4.851">
        <ele>207</ele>
        <time>2017-05-04T12:28:00.000Z</time>
      </trkpt>
      <trkpt lat="46.22369" lon="4.85101">
        <ele>207</ele>
        <time>2017-05-04T12:28:01.000Z</time>
      </trkpt>
      <trkpt lat="46.22368" lon="4.85102">
        <ele>207</ele>
        <time>2017-05-04T12:28:02.000Z</time>
      </trkpt>
      <trkpt lat="46.22368" lon="4.85102">
        <ele>207</ele>
        <time>2017-05-04T12:28:03.000Z</time>
      </trkpt>
      <trkpt lat="46.22367" lon="4.85103">
        <ele>207</ele>
        <time>2017-05-04T12:28:04.000Z</time>
      </trkpt>
      <trkpt lat="46.22367" lon="4.85104">
        <ele>207</ele>
        <time>2017-05-04T12:28:05.000Z</time>
      </trkpt>
      <trkpt lat="46.22367" lon="4.85104">
        <ele>207</ele>
        <time>2017-05-04T12:28:06.000Z</time>
      </trkpt>
      <trkpt lat="46.22367" lon="4.85104">
        <ele>207</ele>
        <time>2017-05-04T12:28:07.000Z</time>
      </trkpt>
      <trkpt lat="46.22367" lon="4.85104">
        <ele>206</ele>
        <time>2017-05-04T12:28:08.000Z</time>
      </trkpt>
      <trkpt lat="46.22367" lon="4.85104">
        <ele>207</ele>
        <time>2017-05-04T12:28:09.000Z</time>
      </trkpt>
      <trkpt lat="46.22367" lon="4.85104">
        <ele>207</ele>
        <time>2017-05-04T12:28:10.000Z</time>
      </trkpt>
      <trkpt lat="46.22367" lon="4.85104">
        <ele>207</ele>
        <time>2017-05-04T12:28:11.000Z</time>
      </trkpt>
      <trkpt lat="46.22367" lon="4.85104">
        <ele>207</ele>
        <time>2017-05-04T12:28:12.000Z</time>
      </trkpt>
      <trkpt lat="46.22368" lon="4.85104">
        <ele>207</ele>
        <time>2017-05-04T12:28:13.000Z</time>
      </trkpt>
      <trkpt lat="46.22368" lon="4.85104">
        <ele>207</ele>
        <time>2017-05-04T12:28:14.000Z</time>
      </trkpt>
      <trkpt lat="46.22368" lon="4.85104">
        <ele>207</ele>
        <time>2017-05-04T12:28:15.000Z</time>
      </trkpt>
      <trkpt lat="46.22368" lon="4.85104">
        <ele>208</ele>
        <time>2017-05-04T12:28:16.000Z</time>
      </trkpt>
      <trkpt lat="46.22368" lon="4.85103">
        <ele>208</ele>
        <time>2017-05-04T12:28:17.000Z</time>
      </trkpt>
      <trkpt lat="46.22369" lon="4.85103">
        <ele>208</ele>
        <time>2017-05-04T12:28:18.000Z</time>
      </trkpt>
      <trkpt lat="46.22369" lon="4.85103">
        <ele>208</ele>
        <time>2017-05-04T12:28:19.000Z</time>
      </trkpt>
      <trkpt lat="46.22369" lon="4.85102">
        <ele>207</ele>
        <time>2017-05-04T12:28:20.000Z</time>
      </trkpt>
      <trkpt lat="46.22369" lon="4.85102">
        <ele>207</ele>
        <time>2017-05-04T12:28:21.000Z</time>
      </trkpt>
      <trkpt lat="46.22369" lon="4.85102">
        <ele>208</ele>
        <time>2017-05-04T12:28:22.000Z</time>
      </trkpt>
      <trkpt lat="46.22369" lon="4.85102">
        <ele>208</ele>
        <time>2017-05-04T12:28:23.000Z</time>
      </trkpt>
      <trkpt lat="46.22368" lon="4.85102">
        <ele>207</ele>
        <time>2017-05-04T12:28:24.000Z</time>
      </trkpt>
      <trkpt lat="46.22368" lon="4.85102">
        <ele>207</ele>
        <time>2017-05-04T12:28:25.000Z</time>
      </trkpt>
      <trkpt lat="46.22368" lon="4.85102">
        <ele>207</ele>
        <time>2017-05-04T12:28:26.000Z</time>
      </trkpt>
      <trkpt lat="46.22368" lon="4.85102">
        <ele>207</ele>
        <time>2017-05-04T12:28:27.000Z</time>
      </trkpt>
      <trkpt lat="46.22368" lon="4.85102">
        <ele>207</ele>
        <time>2017-05-04T12:28:28.000Z</time>
      </trkpt>
      <trkpt lat="46.22368" lon="4.85102">
        <ele>207</ele>
        <time>2017-05-04T12:28:29.000Z</time>
      </trkpt>
      <trkpt lat="46.22368" lon="4.85102">
        <ele>207</ele>
        <time>2017-05-04T12:28:30.000Z</time>
      </trkpt>
      <trkpt lat="46.22368" lon="4.85102">
        <ele>207</ele>
        <time>2017-05-04T12:28:31.000Z</time>
      </trkpt>
      <trkpt lat="46.22368" lon="4.85102">
        <ele>207</ele>
        <time>2017-05-04T12:28:32.000Z</time>
      </trkpt>
      <trkpt lat="46.22368" lon="4.85102">
        <ele>207</ele>
        <time>2017-05-04T12:28:33.000Z</time>
      </trkpt>
      <trkpt lat="46.22368" lon="4.85102">
        <ele>207</ele>
        <time>2017-05-04T12:28:34.000Z</time>
      </trkpt>
      <trkpt lat="46.22368" lon="4.85102">
        <ele>207</ele>
        <time>2017-05-04T12:28:35.000Z</time>
      </trkpt>
      <trkpt lat="46.22368" lon="4.85102">
        <ele>207</ele>
        <time>2017-05-04T12:28:36.000Z</time>
      </trkpt>
      <trkpt lat="46.22368" lon="4.85102">
        <ele>207</ele>
        <time>2017-05-04T12:28:37.000Z</time>
      </trkpt>
      <trkpt lat="46.22368" lon="4.85102">
        <ele>207</ele>
        <time>2017-05-04T12:28:38.000Z</time>
      </trkpt>
      <trkpt lat="46.22368" lon="4.85102">
        <ele>207</ele>
        <time>2017-05-04T12:28:39.000Z</time>
      </trkpt>
      <trkpt lat="46.22368" lon="4.85102">
        <ele>207</ele>
        <time>2017-05-04T12:28:40.000Z</time>
      </trkpt>
      <trkpt lat="46.22368" lon="4.85102">
        <ele>207</ele>
        <time>2017-05-04T12:28:41.000Z</time>
      </trkpt>
      <trkpt lat="46.22368" lon="4.85102">
        <ele>207</ele>
        <time>2017-05-04T12:28:42.000Z</time>
      </trkpt>
      <trkpt lat="46.22368" lon="4.85103">
        <ele>208</ele>
        <time>2017-05-04T12:28:43.000Z</time>
      </trkpt>
      <trkpt lat="46.22368" lon="4.85103">
        <ele>208</ele>
        <time>2017-05-04T12:28:44.000Z</time>
      </trkpt>
      <trkpt lat="46.22368" lon="4.85103">
        <ele>208</ele>
        <time>2017-05-04T12:28:45.000Z</time>
      </trkpt>
      <trkpt lat="46.22368" lon="4.85103">
        <ele>208</ele>
        <time>2017-05-04T12:28:46.000Z</time>
      </trkpt>
      <trkpt lat="46.22368" lon="4.85103">
        <ele>208</ele>
        <time>2017-05-04T12:28:47.000Z</time>
      </trkpt>
      <trkpt lat="46.22368" lon="4.85102">
        <ele>208</ele>
        <time>2017-05-04T12:28:48.000Z</time>
      </trkpt>
      <trkpt lat="46.22368" lon="4.85102">
        <ele>208</ele>
        <time>2017-05-04T12:28:49.000Z</time>
      </trkpt>
      <trkpt lat="46.22368" lon="4.85102">
        <ele>208</ele>
        <time>2017-05-04T12:28:50.000Z</time>
      </trkpt>
      <trkpt lat="46.22368" lon="4.85101">
        <ele>208</ele>
        <time>2017-05-04T12:28:51.000Z</time>
      </trkpt>
      <trkpt lat="46.22368" lon="4.85101">
        <ele>208</ele>
        <time>2017-05-04T12:28:52.000Z</time>
      </trkpt>
      <trkpt lat="46.22368" lon="4.85101">
        <ele>209</ele>
        <time>2017-05-04T12:28:53.000Z</time>
      </trkpt>
      <trkpt lat="46.22368" lon="4.85101">
        <ele>209</ele>
        <time>2017-05-04T12:28:54.000Z</time>
      </trkpt>
      <trkpt lat="46.22368" lon="4.85101">
        <ele>209</ele>
        <time>2017-05-04T12:28:55.000Z</time>
      </trkpt>
      <trkpt lat="46.22368" lon="4.85101">
        <ele>209</ele>
        <time>2017-05-04T12:28:56.000Z</time>
      </trkpt>
      <trkpt lat="46.22368" lon="4.85101">
        <ele>209</ele>
        <time>2017-05-04T12:28:57.000Z</time>
      </trkpt>
      <trkpt lat="46.22368" lon="4.85101">
        <ele>209</ele>
        <time>2017-05-04T12:28:58.000Z</time>
      </trkpt>
      <trkpt lat="46.22368" lon="4.85101">
        <ele>209</ele>
        <time>2017-05-04T12:28:59.000Z</time>
      </trkpt>
      <trkpt lat="46.22368" lon="4.85101">
        <ele>209</ele>
        <time>2017-05-04T12:29:00.000Z</time>
      </trkpt>
      <trkpt lat="46.22368" lon="4.85101">
        <ele>209</ele>
        <time>2017-05-04T12:29:01.000Z</time>
      </trkpt>
      <trkpt lat="46.22368" lon="4.85101">
        <ele>209</ele>
        <time>2017-05-04T12:29:02.000Z</time>
      </trkpt>
      <trkpt lat="46.22368" lon="4.85101">
        <ele>209</ele>
        <time>2017-05-04T12:29:03.000Z</time>
      </trkpt>
      <trkpt lat="46.22368" lon="4.85101">
        <ele>209</ele>
        <time>2017-05-04T12:29:04.000Z</time>
      </trkpt>
      <trkpt lat="46.22368" lon="4.85101">
        <ele>209</ele>
        <time>2017-05-04T12:29:05.000Z</time>
      </trkpt>
      <trkpt lat="46.22368" lon="4.85101">
        <ele>209</ele>
        <time>2017-05-04T12:29:06.000Z</time>
      </trkpt>
      <trkpt lat="46.22368" lon="4.85101">
        <ele>209</ele>
        <time>2017-05-04T12:29:07.000Z</time>
      </trkpt>
      <trkpt lat="46.22368" lon="4.85101">
        <ele>209</ele>
        <time>2017-05-04T12:29:08.000Z</time>
      </trkpt>
      <trkpt lat="46.22368" lon="4.85102">
        <ele>209</ele>
        <time>2017-05-04T12:29:09.000Z</time>
      </trkpt>
      <trkpt lat="46.22368" lon="4.85102">
        <ele>209</ele>
        <time>2017-05-04T12:29:10.000Z</time>
      </trkpt>
      <trkpt lat="46.22368" lon="4.85101">
        <ele>209</ele>
        <time>2017-05-04T12:29:11.000Z</time>
      </trkpt>
      <trkpt lat="46.22368" lon="4.85101">
        <ele>210</ele>
        <time>2017-05-04T12:29:12.000Z</time>
      </trkpt>
      <trkpt lat="46.22368" lon="4.85102">
        <ele>210</ele>
        <time>2017-05-04T12:29:13.000Z</time>
      </trkpt>
      <trkpt lat="46.22368" lon="4.85102">
        <ele>209</ele>
        <time>2017-05-04T12:29:14.000Z</time>
      </trkpt>
      <trkpt lat="46.22368" lon="4.85102">
        <ele>209</ele>
        <time>2017-05-04T12:29:15.000Z</time>
      </trkpt>
      <trkpt lat="46.22368" lon="4.85102">
        <ele>209</ele>
        <time>2017-05-04T12:29:16.000Z</time>
      </trkpt>
      <trkpt lat="46.22368" lon="4.85102">
        <ele>209</ele>
        <time>2017-05-04T12:29:17.000Z</time>
      </trkpt>
      <trkpt lat="46.22368" lon="4.85102">
        <ele>209</ele>
        <time>2017-05-04T12:29:18.000Z</time>
      </trkpt>
      <trkpt lat="46.22368" lon="4.85102">
        <ele>209</ele>
        <time>2017-05-04T12:29:19.000Z</time>
      </trkpt>
      <trkpt lat="46.22369" lon="4.85102">
        <ele>209</ele>
        <time>2017-05-04T12:29:20.000Z</time>
      </trkpt>
      <trkpt lat="46.22369" lon="4.85101">
        <ele>210</ele>
        <time>2017-05-04T12:29:21.000Z</time>
      </trkpt>
      <trkpt lat="46.22369" lon="4.85101">
        <ele>210</ele>
        <time>2017-05-04T12:29:22.000Z</time>
      </trkpt>
      <trkpt lat="46.22369" lon="4.85101">
        <ele>210</ele>
        <time>2017-05-04T12:29:23.000Z</time>
      </trkpt>
      <trkpt lat="46.22369" lon="4.85101">
        <ele>210</ele>
        <time>2017-05-04T12:29:24.000Z</time>
      </trkpt>
      <trkpt lat="46.22369" lon="4.85101">
        <ele>210</ele>
        <time>2017-05-04T12:29:25.000Z</time>
      </trkpt>
      <trkpt lat="46.22369" lon="4.85102">
        <ele>210</ele>
        <time>2017-05-04T12:29:26.000Z</time>
      </trkpt>
      <trkpt lat="46.22369" lon="4.85102">
        <ele>210</ele>
        <time>2017-05-04T12:29:27.000Z</time>
      </trkpt>
      <trkpt lat="46.22369" lon="4.85102">
        <ele>210</ele>
        <time>2017-05-04T12:29:28.000Z</time>
      </trkpt>
      <trkpt lat="46.22369" lon="4.85102">
        <ele>210</ele>
        <time>2017-05-04T12:29:29.000Z</time>
      </trkpt>
      <trkpt lat="46.22369" lon="4.85102">
        <ele>210</ele>
        <time>2017-05-04T12:29:30.000Z</time>
      </trkpt>
      <trkpt lat="46.22369" lon="4.85102">
        <ele>210</ele>
        <time>2017-05-04T12:29:31.000Z</time>
      </trkpt>
      <trkpt lat="46.22369" lon="4.85101">
        <ele>210</ele>
        <time>2017-05-04T12:29:32.000Z</time>
      </trkpt>
      <trkpt lat="46.22369" lon="4.85101">
        <ele>210</ele>
        <time>2017-05-04T12:29:33.000Z</time>
      </trkpt>
      <trkpt lat="46.22369" lon="4.85101">
        <ele>210</ele>
        <time>2017-05-04T12:29:34.000Z</time>
      </trkpt>
      <trkpt lat="46.22369" lon="4.85101">
        <ele>210</ele>
        <time>2017-05-04T12:29:35.000Z</time>
      </trkpt>
      <trkpt lat="46.22369" lon="4.85101">
        <ele>210</ele>
        <time>2017-05-04T12:29:36.000Z</time>
      </trkpt>
      <trkpt lat="46.22369" lon="4.85101">
        <ele>210</ele>
        <time>2017-05-04T12:29:37.000Z</time>
      </trkpt>
      <trkpt lat="46.22369" lon="4.85101">
        <ele>210</ele>
        <time>2017-05-04T12:29:38.000Z</time>
      </trkpt>
      <trkpt lat="46.22369" lon="4.85101">
        <ele>210</ele>
        <time>2017-05-04T12:29:39.000Z</time>
      </trkpt>
      <trkpt lat="46.22369" lon="4.85101">
        <ele>209</ele>
        <time>2017-05-04T12:29:40.000Z</time>
      </trkpt>
      <trkpt lat="46.22369" lon="4.85101">
        <ele>209</ele>
        <time>2017-05-04T12:29:41.000Z</time>
      </trkpt>
      <trkpt lat="46.22369" lon="4.85101">
        <ele>209</ele>
        <time>2017-05-04T12:29:42.000Z</time>
      </trkpt>
      <trkpt lat="46.22369" lon="4.85101">
        <ele>209</ele>
        <time>2017-05-04T12:29:43.000Z</time>
      </trkpt>
      <trkpt lat="46.22369" lon="4.85101">
        <ele>209</ele>
        <time>2017-05-04T12:29:44.000Z</time>
      </trkpt>
      <trkpt lat="46.22369" lon="4.85101">
        <ele>209</ele>
        <time>2017-05-04T12:29:45.000Z</time>
      </trkpt>
      <trkpt lat="46.22369" lon="4.85101">
        <ele>209</ele>
        <time>2017-05-04T12:29:46.000Z</time>
      </trkpt>
      <trkpt lat="46.22369" lon="4.85101">
        <ele>209</ele>
        <time>2017-05-04T12:29:47.000Z</time>
      </trkpt>
      <trkpt lat="46.22369" lon="4.85101">
        <ele>209</ele>
        <time>2017-05-04T12:29:48.000Z</time>
      </trkpt>
      <trkpt lat="46.22369" lon="4.85101">
        <ele>209</ele>
        <time>2017-05-04T12:29:49.000Z</time>
      </trkpt>
      <trkpt lat="46.22369" lon="4.85101">
        <ele>209</ele>
        <time>2017-05-04T12:29:50.000Z</time>
      </trkpt>
      <trkpt lat="46.22369" lon="4.85101">
        <ele>209</ele>
        <time>2017-05-04T12:29:51.000Z</time>
      </trkpt>
      <trkpt lat="46.22369" lon="4.85101">
        <ele>209</ele>
        <time>2017-05-04T12:29:52.000Z</time>
      </trkpt>
      <trkpt lat="46.22369" lon="4.85101">
        <ele>209</ele>
        <time>2017-05-04T12:29:53.000Z</time>
      </trkpt>
      <trkpt lat="46.22369" lon="4.85101">
        <ele>209</ele>
        <time>2017-05-04T12:29:54.000Z</time>
      </trkpt>
      <trkpt lat="46.22368" lon="4.85101">
        <ele>209</ele>
        <time>2017-05-04T12:29:55.000Z</time>
      </trkpt>
      <trkpt lat="46.22368" lon="4.85101">
        <ele>209</ele>
        <time>2017-05-04T12:29:56.000Z</time>
      </trkpt>
      <trkpt lat="46.22368" lon="4.85101">
        <ele>208</ele>
        <time>2017-05-04T12:29:57.000Z</time>
      </trkpt>
      <trkpt lat="46.22368" lon="4.85101">
        <ele>209</ele>
        <time>2017-05-04T12:29:58.000Z</time>
      </trkpt>
      <trkpt lat="46.22368" lon="4.85102">
        <ele>209</ele>
        <time>2017-05-04T12:29:59.000Z</time>
      </trkpt>
      <trkpt lat="46.22368" lon="4.85102">
        <ele>209</ele>
        <time>2017-05-04T12:30:00.000Z</time>
      </trkpt>
      <trkpt lat="46.22368" lon="4.85102">
        <ele>208</ele>
        <time>2017-05-04T12:30:01.000Z</time>
      </trkpt>
      <trkpt lat="46.22369" lon="4.85102">
        <ele>208</ele>
        <time>2017-05-04T12:30:02.000Z</time>
      </trkpt>
      <trkpt lat="46.22369" lon="4.85101">
        <ele>208</ele>
        <time>2017-05-04T12:30:03.000Z</time>
      </trkpt>
      <trkpt lat="46.22368" lon="4.85101">
        <ele>208</ele>
        <time>2017-05-04T12:30:04.000Z</time>
      </trkpt>
      <trkpt lat="46.22368" lon="4.85101">
        <ele>208</ele>
        <time>2017-05-04T12:30:05.000Z</time>
      </trkpt>
      <trkpt lat="46.22368" lon="4.85102">
        <ele>208</ele>
        <time>2017-05-04T12:30:06.000Z</time>
      </trkpt>
      <trkpt lat="46.22367" lon="4.85102">
        <ele>207</ele>
        <time>2017-05-04T12:30:07.000Z</time>
      </trkpt>
      <trkpt lat="46.22367" lon="4.85103">
        <ele>207</ele>
        <time>2017-05-04T12:30:08.000Z</time>
      </trkpt>
      <trkpt lat="46.22366" lon="4.85104">
        <ele>207</ele>
        <time>2017-05-04T12:30:09.000Z</time>
      </trkpt>
      <trkpt lat="46.22366" lon="4.85105">
        <ele>208</ele>
        <time>2017-05-04T12:30:10.000Z</time>
      </trkpt>
      <trkpt lat="46.22366" lon="4.85105">
        <ele>208</ele>
        <time>2017-05-04T12:30:11.000Z</time>
      </trkpt>
      <trkpt lat="46.22367" lon="4.85106">
        <ele>208</ele>
        <time>2017-05-04T12:30:12.000Z</time>
      </trkpt>
      <trkpt lat="46.22367" lon="4.85106">
        <ele>208</ele>
        <time>2017-05-04T12:30:13.000Z</time>
      </trkpt>
      <trkpt lat="46.22367" lon="4.85105">
        <ele>208</ele>
        <time>2017-05-04T12:30:14.000Z</time>
      </trkpt>
      <trkpt lat="46.22367" lon="4.85105">
        <ele>208</ele>
        <time>2017-05-04T12:30:15.000Z</time>
      </trkpt>
      <trkpt lat="46.22367" lon="4.85105">
        <ele>208</ele>
        <time>2017-05-04T12:30:16.000Z</time>
      </trkpt>
      <trkpt lat="46.22367" lon="4.85105">
        <ele>208</ele>
        <time>2017-05-04T12:30:17.000Z</time>
      </trkpt>
      <trkpt lat="46.22367" lon="4.85106">
        <ele>208</ele>
        <time>2017-05-04T12:30:18.000Z</time>
      </trkpt>
      <trkpt lat="46.22367" lon="4.85106">
        <ele>208</ele>
        <time>2017-05-04T12:30:19.000Z</time>
      </trkpt>
      <trkpt lat="46.22367" lon="4.85106">
        <ele>208</ele>
        <time>2017-05-04T12:30:20.000Z</time>
      </trkpt>
      <trkpt lat="46.22367" lon="4.85106">
        <ele>208</ele>
        <time>2017-05-04T12:30:21.000Z</time>
      </trkpt>
      <trkpt lat="46.22367" lon="4.85106">
        <ele>208</ele>
        <time>2017-05-04T12:30:22.000Z</time>
      </trkpt>
      <trkpt lat="46.22367" lon="4.85106">
        <ele>208</ele>
        <time>2017-05-04T12:30:23.000Z</time>
      </trkpt>
      <trkpt lat="46.22367" lon="4.85106">
        <ele>208</ele>
        <time>2017-05-04T12:30:24.000Z</time>
      </trkpt>
      <trkpt lat="46.22367" lon="4.85106">
        <ele>209</ele>
        <time>2017-05-04T12:30:25.000Z</time>
      </trkpt>
      <trkpt lat="46.22367" lon="4.85105">
        <ele>209</ele>
        <time>2017-05-04T12:30:26.000Z</time>
      </trkpt>
      <trkpt lat="46.22367" lon="4.85105">
        <ele>209</ele>
        <time>2017-05-04T12:30:27.000Z</time>
      </trkpt>
      <trkpt lat="46.22367" lon="4.85105">
        <ele>209</ele>
        <time>2017-05-04T12:30:28.000Z</time>
      </trkpt>
      <trkpt lat="46.22367" lon="4.85105">
        <ele>209</ele>
        <time>2017-05-04T12:30:29.000Z</time>
      </trkpt>
      <trkpt lat="46.22367" lon="4.85105">
        <ele>209</ele>
        <time>2017-05-04T12:30:30.000Z</time>
      </trkpt>
      <trkpt lat="46.22367" lon="4.85105">
        <ele>209</ele>
        <time>2017-05-04T12:30:31.000Z</time>
      </trkpt>
      <trkpt lat="46.22367" lon="4.85105">
        <ele>209</ele>
        <time>2017-05-04T12:30:32.000Z</time>
      </trkpt>
      <trkpt lat="46.22367" lon="4.85105">
        <ele>209</ele>
        <time>2017-05-04T12:30:33.000Z</time>
      </trkpt>
      <trkpt lat="46.22367" lon="4.85105">
        <ele>209</ele>
        <time>2017-05-04T12:30:34.000Z</time>
      </trkpt>
      <trkpt lat="46.22367" lon="4.85106">
        <ele>209</ele>
        <time>2017-05-04T12:30:35.000Z</time>
      </trkpt>
      <trkpt lat="46.22367" lon="4.85106">
        <ele>209</ele>
        <time>2017-05-04T12:30:36.000Z</time>
      </trkpt>
      <trkpt lat="46.22367" lon="4.85106">
        <ele>209</ele>
        <time>2017-05-04T12:30:37.000Z</time>
      </trkpt>
      <trkpt lat="46.22367" lon="4.85106">
        <ele>209</ele>
        <time>2017-05-04T12:30:38.000Z</time>
      </trkpt>
      <trkpt lat="46.22367" lon="4.85106">
        <ele>209</ele>
        <time>2017-05-04T12:30:39.000Z</time>
      </trkpt>
      <trkpt lat="46.22366" lon="4.85106">
        <ele>209</ele>
        <time>2017-05-04T12:30:40.000Z</time>
      </trkpt>
      <trkpt lat="46.22366" lon="4.85106">
        <ele>209</ele>
        <time>2017-05-04T12:30:41.000Z</time>
      </trkpt>
      <trkpt lat="46.22365" lon="4.85107">
        <ele>209</ele>
        <time>2017-05-04T12:30:42.000Z</time>
      </trkpt>
      <trkpt lat="46.22365" lon="4.85107">
        <ele>209</ele>
        <time>2017-05-04T12:30:43.000Z</time>
      </trkpt>
      <trkpt lat="46.22365" lon="4.85108">
        <ele>209</ele>
        <time>2017-05-04T12:30:44.000Z</time>
      </trkpt>
      <trkpt lat="46.22366" lon="4.85108">
        <ele>209</ele>
        <time>2017-05-04T12:30:45.000Z</time>
      </trkpt>
      <trkpt lat="46.22366" lon="4.85108">
        <ele>209</ele>
        <time>2017-05-04T12:30:46.000Z</time>
      </trkpt>
      <trkpt lat="46.22366" lon="4.85108">
        <ele>209</ele>
        <time>2017-05-04T12:30:47.000Z</time>
      </trkpt>
      <trkpt lat="46.22366" lon="4.85109">
        <ele>209</ele>
        <time>2017-05-04T12:30:48.000Z</time>
      </trkpt>
      <trkpt lat="46.22366" lon="4.85109">
        <ele>209</ele>
        <time>2017-05-04T12:30:49.000Z</time>
      </trkpt>
      <trkpt lat="46.22366" lon="4.85109">
        <ele>209</ele>
        <time>2017-05-04T12:30:50.000Z</time>
      </trkpt>
      <trkpt lat="46.22366" lon="4.85109">
        <ele>209</ele>
        <time>2017-05-04T12:30:51.000Z</time>
      </trkpt>
      <trkpt lat="46.22366" lon="4.85109">
        <ele>209</ele>
        <time>2017-05-04T12:30:52.000Z</time>
      </trkpt>
      <trkpt lat="46.22366" lon="4.85109">
        <ele>209</ele>
        <time>2017-05-04T12:30:53.000Z</time>
      </trkpt>
      <trkpt lat="46.22366" lon="4.85109">
        <ele>209</ele>
        <time>2017-05-04T12:30:54.000Z</time>
      </trkpt>
      <trkpt lat="46.22366" lon="4.85108">
        <ele>209</ele>
        <time>2017-05-04T12:30:55.000Z</time>
      </trkpt>
      <trkpt lat="46.22366" lon="4.85108">
        <ele>209</ele>
        <time>2017-05-04T12:30:56.000Z</time>
      </trkpt>
      <trkpt lat="46.22367" lon="4.85108">
        <ele>209</ele>
        <time>2017-05-04T12:30:57.000Z</time>
      </trkpt>
      <trkpt lat="46.22367" lon="4.85108">
        <ele>209</ele>
        <time>2017-05-04T12:30:58.000Z</time>
      </trkpt>
      <trkpt lat="46.22367" lon="4.85107">
        <ele>209</ele>
        <time>2017-05-04T12:30:59.000Z</time>
      </trkpt>
      <trkpt lat="46.22367" lon="4.85107">
        <ele>209</ele>
        <time>2017-05-04T12:31:00.000Z</time>
      </trkpt>
      <trkpt lat="46.22367" lon="4.85107">
        <ele>208</ele>
        <time>2017-05-04T12:31:01.000Z</time>
      </trkpt>
      <trkpt lat="46.22367" lon="4.85107">
        <ele>209</ele>
        <time>2017-05-04T12:31:02.000Z</time>
      </trkpt>
      <trkpt lat="46.22367" lon="4.85106">
        <ele>208</ele>
        <time>2017-05-04T12:31:03.000Z</time>
      </trkpt>
      <trkpt lat="46.22367" lon="4.85106">
        <ele>208</ele>
        <time>2017-05-04T12:31:04.000Z</time>
      </trkpt>
      <trkpt lat="46.22367" lon="4.85106">
        <ele>209</ele>
        <time>2017-05-04T12:31:05.000Z</time>
      </trkpt>
      <trkpt lat="46.22366" lon="4.85106">
        <ele>209</ele>
        <time>2017-05-04T12:31:06.000Z</time>
      </trkpt>
      <trkpt lat="46.22366" lon="4.85105">
        <ele>209</ele>
        <time>2017-05-04T12:31:07.000Z</time>
      </trkpt>
      <trkpt lat="46.22366" lon="4.85105">
        <ele>208</ele>
        <time>2017-05-04T12:31:08.000Z</time>
      </trkpt>
      <trkpt lat="46.22365" lon="4.85105">
        <ele>209</ele>
        <time>2017-05-04T12:31:09.000Z</time>
      </trkpt>
      <trkpt lat="46.22365" lon="4.85106">
        <ele>208</ele>
        <time>2017-05-04T12:31:10.000Z</time>
      </trkpt>
      <trkpt lat="46.22365" lon="4.85106">
        <ele>209</ele>
        <time>2017-05-04T12:31:11.000Z</time>
      </trkpt>
      <trkpt lat="46.22364" lon="4.85106">
        <ele>209</ele>
        <time>2017-05-04T12:31:12.000Z</time>
      </trkpt>
      <trkpt lat="46.22364" lon="4.85106">
        <ele>208</ele>
        <time>2017-05-04T12:31:13.000Z</time>
      </trkpt>
      <trkpt lat="46.22364" lon="4.85106">
        <ele>208</ele>
        <time>2017-05-04T12:31:14.000Z</time>
      </trkpt>
      <trkpt lat="46.22363" lon="4.85106">
        <ele>208</ele>
        <time>2017-05-04T12:31:15.000Z</time>
      </trkpt>
      <trkpt lat="46.22363" lon="4.85106">
        <ele>208</ele>
        <time>2017-05-04T12:31:16.000Z</time>
      </trkpt>
      <trkpt lat="46.22362" lon="4.85107">
        <ele>208</ele>
        <time>2017-05-04T12:31:17.000Z</time>
      </trkpt>
      <trkpt lat="46.22362" lon="4.85107">
        <ele>209</ele>
        <time>2017-05-04T12:31:18.000Z</time>
      </trkpt>
      <trkpt lat="46.22361" lon="4.85107">
        <ele>209</ele>
        <time>2017-05-04T12:31:19.000Z</time>
      </trkpt>
      <trkpt lat="46.22361" lon="4.85107">
        <ele>208</ele>
        <time>2017-05-04T12:31:20.000Z</time>
      </trkpt>
      <trkpt lat="46.22361" lon="4.85108">
        <ele>209</ele>
        <time>2017-05-04T12:31:21.000Z</time>
      </trkpt>
      <trkpt lat="46.22361" lon="4.85108">
        <ele>208</ele>
        <time>2017-05-04T12:31:22.000Z</time>
      </trkpt>
      <trkpt lat="46.2236" lon="4.85109">
        <ele>208</ele>
        <time>2017-05-04T12:31:23.000Z</time>
      </trkpt>
      <trkpt lat="46.2236" lon="4.85109">
        <ele>208</ele>
        <time>2017-05-04T12:31:24.000Z</time>
      </trkpt>
      <trkpt lat="46.22359" lon="4.8511">
        <ele>208</ele>
        <time>2017-05-04T12:31:25.000Z</time>
      </trkpt>
      <trkpt lat="46.22359" lon="4.8511">
        <ele>208</ele>
        <time>2017-05-04T12:31:26.000Z</time>
      </trkpt>
      <trkpt lat="46.2236" lon="4.8511">
        <ele>208</ele>
        <time>2017-05-04T12:31:27.000Z</time>
      </trkpt>
      <trkpt lat="46.2236" lon="4.8511">
        <ele>208</ele>
        <time>2017-05-04T12:31:28.000Z</time>
      </trkpt>
      <trkpt lat="46.2236" lon="4.8511">
        <ele>208</ele>
        <time>2017-05-04T12:31:29.000Z</time>
      </trkpt>
      <trkpt lat="46.2236" lon="4.8511">
        <ele>209</ele>
        <time>2017-05-04T12:31:30.000Z</time>
      </trkpt>
      <trkpt lat="46.2236" lon="4.8511">
        <ele>209</ele>
        <time>2017-05-04T12:31:31.000Z</time>
      </trkpt>
      <trkpt lat="46.2236" lon="4.8511">
        <ele>209</ele>
        <time>2017-05-04T12:31:32.000Z</time>
      </trkpt>
      <trkpt lat="46.2236" lon="4.8511">
        <ele>209</ele>
        <time>2017-05-04T12:31:33.000Z</time>
      </trkpt>
      <trkpt lat="46.2236" lon="4.8511">
        <ele>209</ele>
        <time>2017-05-04T12:31:34.000Z</time>
      </trkpt>
      <trkpt lat="46.22361" lon="4.8511">
        <ele>209</ele>
        <time>2017-05-04T12:31:35.000Z</time>
      </trkpt>
      <trkpt lat="46.22361" lon="4.8511">
        <ele>209</ele>
        <time>2017-05-04T12:31:36.000Z</time>
      </trkpt>
      <trkpt lat="46.22361" lon="4.8511">
        <ele>209</ele>
        <time>2017-05-04T12:31:37.000Z</time>
      </trkpt>
      <trkpt lat="46.22361" lon="4.8511">
        <ele>209</ele>
        <time>2017-05-04T12:31:38.000Z</time>
      </trkpt>
      <trkpt lat="46.22361" lon="4.8511">
        <ele>209</ele>
        <time>2017-05-04T12:31:39.000Z</time>
      </trkpt>
      <trkpt lat="46.22361" lon="4.8511">
        <ele>209</ele>
        <time>2017-05-04T12:31:40.000Z</time>
      </trkpt>
      <trkpt lat="46.22361" lon="4.8511">
        <ele>209</ele>
        <time>2017-05-04T12:31:41.000Z</time>
      </trkpt>
      <trkpt lat="46.22361" lon="4.85109">
        <ele>209</ele>
        <time>2017-05-04T12:31:42.000Z</time>
      </trkpt>
      <trkpt lat="46.22361" lon="4.85109">
        <ele>209</ele>
        <time>2017-05-04T12:31:43.000Z</time>
      </trkpt>
      <trkpt lat="46.22361" lon="4.85109">
        <ele>209</ele>
        <time>2017-05-04T12:31:44.000Z</time>
      </trkpt>
      <trkpt lat="46.22361" lon="4.85109">
        <ele>209</ele>
        <time>2017-05-04T12:31:45.000Z</time>
      </trkpt>
      <trkpt lat="46.22361" lon="4.85109">
        <ele>209</ele>
        <time>2017-05-04T12:31:46.000Z</time>
      </trkpt>
      <trkpt lat="46.22361" lon="4.85109">
        <ele>209</ele>
        <time>2017-05-04T12:31:47.000Z</time>
      </trkpt>
      <trkpt lat="46.22362" lon="4.85109">
        <ele>209</ele>
        <time>2017-05-04T12:31:48.000Z</time>
      </trkpt>
      <trkpt lat="46.22362" lon="4.85109">
        <ele>209</ele>
        <time>2017-05-04T12:31:49.000Z</time>
      </trkpt>
      <trkpt lat="46.22362" lon="4.85109">
        <ele>209</ele>
        <time>2017-05-04T12:31:50.000Z</time>
      </trkpt>
      <trkpt lat="46.22362" lon="4.8511">
        <ele>209</ele>
        <time>2017-05-04T12:31:51.000Z</time>
      </trkpt>
      <trkpt lat="46.22361" lon="4.8511">
        <ele>209</ele>
        <time>2017-05-04T12:31:52.000Z</time>
      </trkpt>
      <trkpt lat="46.22361" lon="4.8511">
        <ele>209</ele>
        <time>2017-05-04T12:31:53.000Z</time>
      </trkpt>
      <trkpt lat="46.22361" lon="4.8511">
        <ele>209</ele>
        <time>2017-05-04T12:31:54.000Z</time>
      </trkpt>
      <trkpt lat="46.22361" lon="4.8511">
        <ele>209</ele>
        <time>2017-05-04T12:31:55.000Z</time>
      </trkpt>
      <trkpt lat="46.22361" lon="4.8511">
        <ele>209</ele>
        <time>2017-05-04T12:31:56.000Z</time>
      </trkpt>
      <trkpt lat="46.22361" lon="4.8511">
        <ele>209</ele>
        <time>2017-05-04T12:31:57.000Z</time>
      </trkpt>
      <trkpt lat="46.22361" lon="4.8511">
        <ele>208</ele>
        <time>2017-05-04T12:31:58.000Z</time>
      </trkpt>
      <trkpt lat="46.22361" lon="4.85109">
        <ele>208</ele>
        <time>2017-05-04T12:31:59.000Z</time>
      </trkpt>
      <trkpt lat="46.22361" lon="4.85109">
        <ele>208</ele>
        <time>2017-05-04T12:32:00.000Z</time>
      </trkpt>
      <trkpt lat="46.22361" lon="4.85109">
        <ele>208</ele>
        <time>2017-05-04T12:32:01.000Z</time>
      </trkpt>
      <trkpt lat="46.22361" lon="4.85109">
        <ele>208</ele>
        <time>2017-05-04T12:32:02.000Z</time>
      </trkpt>
      <trkpt lat="46.22361" lon="4.85109">
        <ele>208</ele>
        <time>2017-05-04T12:32:03.000Z</time>
      </trkpt>
      <trkpt lat="46.22361" lon="4.85109">
        <ele>208</ele>
        <time>2017-05-04T12:32:04.000Z</time>
      </trkpt>
      <trkpt lat="46.22361" lon="4.85109">
        <ele>208</ele>
        <time>2017-05-04T12:32:05.000Z</time>
      </trkpt>
      <trkpt lat="46.22361" lon="4.85109">
        <ele>208</ele>
        <time>2017-05-04T12:32:06.000Z</time>
      </trkpt>
      <trkpt lat="46.22361" lon="4.85109">
        <ele>209</ele>
        <time>2017-05-04T12:32:07.000Z</time>
      </trkpt>
      <trkpt lat="46.22361" lon="4.85109">
        <ele>209</ele>
        <time>2017-05-04T12:32:08.000Z</time>
      </trkpt>
      <trkpt lat="46.22362" lon="4.85109">
        <ele>209</ele>
        <time>2017-05-04T12:32:09.000Z</time>
      </trkpt>
      <trkpt lat="46.22362" lon="4.85109">
        <ele>208</ele>
        <time>2017-05-04T12:32:10.000Z</time>
      </trkpt>
      <trkpt lat="46.22362" lon="4.85109">
        <ele>208</ele>
        <time>2017-05-04T12:32:11.000Z</time>
      </trkpt>
      <trkpt lat="46.22362" lon="4.85109">
        <ele>208</ele>
        <time>2017-05-04T12:32:12.000Z</time>
      </trkpt>
      <trkpt lat="46.22362" lon="4.85109">
        <ele>208</ele>
        <time>2017-05-04T12:32:13.000Z</time>
      </trkpt>
      <trkpt lat="46.22362" lon="4.85109">
        <ele>208</ele>
        <time>2017-05-04T12:32:14.000Z</time>
      </trkpt>
      <trkpt lat="46.22362" lon="4.85109">
        <ele>209</ele>
        <time>2017-05-04T12:32:15.000Z</time>
      </trkpt>
      <trkpt lat="46.22362" lon="4.85109">
        <ele>209</ele>
        <time>2017-05-04T12:32:16.000Z</time>
      </trkpt>
      <trkpt lat="46.22362" lon="4.85109">
        <ele>209</ele>
        <time>2017-05-04T12:32:17.000Z</time>
      </trkpt>
      <trkpt lat="46.22362" lon="4.85109">
        <ele>209</ele>
        <time>2017-05-04T12:32:18.000Z</time>
      </trkpt>
      <trkpt lat="46.22362" lon="4.85109">
        <ele>208</ele>
        <time>2017-05-04T12:32:19.000Z</time>
      </trkpt>
      <trkpt lat="46.22362" lon="4.85109">
        <ele>208</ele>
        <time>2017-05-04T12:32:20.000Z</time>
      </trkpt>
      <trkpt lat="46.22362" lon="4.85109">
        <ele>208</ele>
        <time>2017-05-04T12:32:21.000Z</time>
      </trkpt>
      <trkpt lat="46.22362" lon="4.85108">
        <ele>208</ele>
        <time>2017-05-04T12:32:22.000Z</time>
      </trkpt>
      <trkpt lat="46.22362" lon="4.85108">
        <ele>208</ele>
        <time>2017-05-04T12:32:23.000Z</time>
      </trkpt>
      <trkpt lat="46.22361" lon="4.85108">
        <ele>208</ele>
        <time>2017-05-04T12:32:24.000Z</time>
      </trkpt>
      <trkpt lat="46.22361" lon="4.85108">
        <ele>209</ele>
        <time>2017-05-04T12:32:25.000Z</time>
      </trkpt>
      <trkpt lat="46.22362" lon="4.85108">
        <ele>209</ele>
        <time>2017-05-04T12:32:26.000Z</time>
      </trkpt>
      <trkpt lat="46.22362" lon="4.85108">
        <ele>209</ele>
        <time>2017-05-04T12:32:27.000Z</time>
      </trkpt>
      <trkpt lat="46.22362" lon="4.85108">
        <ele>209</ele>
        <time>2017-05-04T12:32:28.000Z</time>
      </trkpt>
      <trkpt lat="46.22362" lon="4.85108">
        <ele>209</ele>
        <time>2017-05-04T12:32:29.000Z</time>
      </trkpt>
      <trkpt lat="46.22362" lon="4.85108">
        <ele>209</ele>
        <time>2017-05-04T12:32:30.000Z</time>
      </trkpt>
      <trkpt lat="46.22362" lon="4.85109">
        <ele>209</ele>
        <time>2017-05-04T12:32:31.000Z</time>
      </trkpt>
      <trkpt lat="46.22361" lon="4.85109">
        <ele>209</ele>
        <time>2017-05-04T12:32:32.000Z</time>
      </trkpt>
      <trkpt lat="46.22361" lon="4.85109">
        <ele>209</ele>
        <time>2017-05-04T12:32:33.000Z</time>
      </trkpt>
      <trkpt lat="46.22361" lon="4.85109">
        <ele>209</ele>
        <time>2017-05-04T12:32:34.000Z</time>
      </trkpt>
      <trkpt lat="46.22362" lon="4.85108">
        <ele>209</ele>
        <time>2017-05-04T12:32:35.000Z</time>
      </trkpt>
      <trkpt lat="46.22362" lon="4.85108">
        <ele>209</ele>
        <time>2017-05-04T12:32:36.000Z</time>
      </trkpt>
      <trkpt lat="46.22362" lon="4.85108">
        <ele>209</ele>
        <time>2017-05-04T12:32:37.000Z</time>
      </trkpt>
      <trkpt lat="46.22361" lon="4.85108">
        <ele>209</ele>
        <time>2017-05-04T12:32:38.000Z</time>
      </trkpt>
      <trkpt lat="46.22361" lon="4.85108">
        <ele>209</ele>
        <time>2017-05-04T12:32:39.000Z</time>
      </trkpt>
      <trkpt lat="46.22361" lon="4.85108">
        <ele>209</ele>
        <time>2017-05-04T12:32:40.000Z</time>
      </trkpt>
      <trkpt lat="46.22361" lon="4.85108">
        <ele>209</ele>
        <time>2017-05-04T12:32:41.000Z</time>
      </trkpt>
      <trkpt lat="46.22361" lon="4.85108">
        <ele>209</ele>
        <time>2017-05-04T12:32:42.000Z</time>
      </trkpt>
      <trkpt lat="46.22361" lon="4.85108">
        <ele>208</ele>
        <time>2017-05-04T12:32:43.000Z</time>
      </trkpt>
      <trkpt lat="46.22361" lon="4.85108">
        <ele>208</ele>
        <time>2017-05-04T12:32:44.000Z</time>
      </trkpt>
      <trkpt lat="46.22361" lon="4.85108">
        <ele>208</ele>
        <time>2017-05-04T12:32:45.000Z</time>
      </trkpt>
      <trkpt lat="46.22361" lon="4.85108">
        <ele>208</ele>
        <time>2017-05-04T12:32:46.000Z</time>
      </trkpt>
      <trkpt lat="46.22361" lon="4.85108">
        <ele>208</ele>
        <time>2017-05-04T12:32:47.000Z</time>
      </trkpt>
      <trkpt lat="46.22361" lon="4.85108">
        <ele>208</ele>
        <time>2017-05-04T12:32:48.000Z</time>
      </trkpt>
      <trkpt lat="46.22361" lon="4.85108">
        <ele>208</ele>
        <time>2017-05-04T12:32:49.000Z</time>
      </trkpt>
      <trkpt lat="46.22361" lon="4.85108">
        <ele>208</ele>
        <time>2017-05-04T12:32:50.000Z</time>
      </trkpt>
      <trkpt lat="46.22361" lon="4.85108">
        <ele>208</ele>
        <time>2017-05-04T12:32:51.000Z</time>
      </trkpt>
      <trkpt lat="46.22361" lon="4.85108">
        <ele>208</ele>
        <time>2017-05-04T12:32:52.000Z</time>
      </trkpt>
      <trkpt lat="46.22361" lon="4.85108">
        <ele>208</ele>
        <time>2017-05-04T12:32:53.000Z</time>
      </trkpt>
      <trkpt lat="46.22361" lon="4.85108">
        <ele>208</ele>
        <time>2017-05-04T12:32:54.000Z</time>
      </trkpt>
      <trkpt lat="46.22361" lon="4.85108">
        <ele>208</ele>
        <time>2017-05-04T12:32:55.000Z</time>
      </trkpt>
      <trkpt lat="46.2236" lon="4.85108">
        <ele>207</ele>
        <time>2017-05-04T12:32:56.000Z</time>
      </trkpt>
      <trkpt lat="46.2236" lon="4.85107">
        <ele>207</ele>
        <time>2017-05-04T12:32:57.000Z</time>
      </trkpt>
      <trkpt lat="46.22359" lon="4.85107">
        <ele>207</ele>
        <time>2017-05-04T12:32:58.000Z</time>
      </trkpt>
      <trkpt lat="46.22359" lon="4.85107">
        <ele>207</ele>
        <time>2017-05-04T12:32:59.000Z</time>
      </trkpt>
      <trkpt lat="46.22358" lon="4.85107">
        <ele>207</ele>
        <time>2017-05-04T12:33:00.000Z</time>
      </trkpt>
      <trkpt lat="46.22358" lon="4.85107">
        <ele>207</ele>
        <time>2017-05-04T12:33:01.000Z</time>
      </trkpt>
      <trkpt lat="46.22358" lon="4.85107">
        <ele>207</ele>
        <time>2017-05-04T12:33:02.000Z</time>
      </trkpt>
      <trkpt lat="46.22358" lon="4.85107">
        <ele>207</ele>
        <time>2017-05-04T12:33:03.000Z</time>
      </trkpt>
      <trkpt lat="46.22359" lon="4.85107">
        <ele>207</ele>
        <time>2017-05-04T12:33:04.000Z</time>
      </trkpt>
      <trkpt lat="46.22359" lon="4.85107">
        <ele>207</ele>
        <time>2017-05-04T12:33:05.000Z</time>
      </trkpt>
      <trkpt lat="46.22359" lon="4.85107">
        <ele>207</ele>
        <time>2017-05-04T12:33:06.000Z</time>
      </trkpt>
      <trkpt lat="46.22359" lon="4.85107">
        <ele>207</ele>
        <time>2017-05-04T12:33:07.000Z</time>
      </trkpt>
      <trkpt lat="46.22358" lon="4.85107">
        <ele>207</ele>
        <time>2017-05-04T12:33:08.000Z</time>
      </trkpt>
      <trkpt lat="46.22358" lon="4.85107">
        <ele>208</ele>
        <time>2017-05-04T12:33:09.000Z</time>
      </trkpt>
      <trkpt lat="46.22358" lon="4.85107">
        <ele>208</ele>
        <time>2017-05-04T12:33:10.000Z</time>
      </trkpt>
      <trkpt lat="46.22358" lon="4.85107">
        <ele>208</ele>
        <time>2017-05-04T12:33:11.000Z</time>
      </trkpt>
      <trkpt lat="46.22358" lon="4.85107">
        <ele>208</ele>
        <time>2017-05-04T12:33:12.000Z</time>
      </trkpt>
      <trkpt lat="46.22358" lon="4.85107">
        <ele>208</ele>
        <time>2017-05-04T12:33:13.000Z</time>
      </trkpt>
      <trkpt lat="46.22358" lon="4.85107">
        <ele>208</ele>
        <time>2017-05-04T12:33:14.000Z</time>
      </trkpt>
      <trkpt lat="46.22358" lon="4.85107">
        <ele>208</ele>
        <time>2017-05-04T12:33:15.000Z</time>
      </trkpt>
      <trkpt lat="46.22358" lon="4.85107">
        <ele>208</ele>
        <time>2017-05-04T12:33:16.000Z</time>
      </trkpt>
      <trkpt lat="46.22358" lon="4.85107">
        <ele>208</ele>
        <time>2017-05-04T12:33:17.000Z</time>
      </trkpt>
      <trkpt lat="46.22358" lon="4.85107">
        <ele>208</ele>
        <time>2017-05-04T12:33:18.000Z</time>
      </trkpt>
      <trkpt lat="46.22358" lon="4.85107">
        <ele>208</ele>
        <time>2017-05-04T12:33:19.000Z</time>
      </trkpt>
      <trkpt lat="46.22358" lon="4.85107">
        <ele>208</ele>
        <time>2017-05-04T12:33:20.000Z</time>
      </trkpt>
      <trkpt lat="46.22358" lon="4.85107">
        <ele>208</ele>
        <time>2017-05-04T12:33:21.000Z</time>
      </trkpt>
      <trkpt lat="46.22358" lon="4.85107">
        <ele>208</ele>
        <time>2017-05-04T12:33:22.000Z</time>
      </trkpt>
      <trkpt lat="46.22358" lon="4.85107">
        <ele>208</ele>
        <time>2017-05-04T12:33:23.000Z</time>
      </trkpt>
      <trkpt lat="46.22358" lon="4.85107">
        <ele>208</ele>
        <time>2017-05-04T12:33:24.000Z</time>
      </trkpt>
      <trkpt lat="46.22357" lon="4.85107">
        <ele>208</ele>
        <time>2017-05-04T12:33:25.000Z</time>
      </trkpt>
      <trkpt lat="46.22357" lon="4.85107">
        <ele>208</ele>
        <time>2017-05-04T12:33:26.000Z</time>
      </trkpt>
      <trkpt lat="46.22357" lon="4.85108">
        <ele>208</ele>
        <time>2017-05-04T12:33:27.000Z</time>
      </trkpt>
      <trkpt lat="46.22357" lon="4.85108">
        <ele>208</ele>
        <time>2017-05-04T12:33:28.000Z</time>
      </trkpt>
      <trkpt lat="46.22357" lon="4.85108">
        <ele>208</ele>
        <time>2017-05-04T12:33:29.000Z</time>
      </trkpt>
      <trkpt lat="46.22357" lon="4.85108">
        <ele>208</ele>
        <time>2017-05-04T12:33:30.000Z</time>
      </trkpt>
      <trkpt lat="46.22357" lon="4.85108">
        <ele>208</ele>
        <time>2017-05-04T12:33:31.000Z</time>
      </trkpt>
      <trkpt lat="46.22357" lon="4.85108">
        <ele>208</ele>
        <time>2017-05-04T12:33:32.000Z</time>
      </trkpt>
      <trkpt lat="46.22357" lon="4.85108">
        <ele>208</ele>
        <time>2017-05-04T12:33:33.000Z</time>
      </trkpt>
      <trkpt lat="46.22357" lon="4.85108">
        <ele>208</ele>
        <time>2017-05-04T12:33:34.000Z</time>
      </trkpt>
      <trkpt lat="46.22356" lon="4.85108">
        <ele>208</ele>
        <time>2017-05-04T12:33:35.000Z</time>
      </trkpt>
      <trkpt lat="46.22356" lon="4.85108">
        <ele>208</ele>
        <time>2017-05-04T12:33:36.000Z</time>
      </trkpt>
      <trkpt lat="46.22355" lon="4.85108">
        <ele>208</ele>
        <time>2017-05-04T12:33:37.000Z</time>
      </trkpt>
      <trkpt lat="46.22354" lon="4.85107">
        <ele>208</ele>
        <time>2017-05-04T12:33:38.000Z</time>
      </trkpt>
      <trkpt lat="46.22354" lon="4.85108">
        <ele>208</ele>
        <time>2017-05-04T12:33:39.000Z</time>
      </trkpt>
      <trkpt lat="46.22353" lon="4.85108">
        <ele>208</ele>
        <time>2017-05-04T12:33:40.000Z</time>
      </trkpt>
      <trkpt lat="46.22352" lon="4.85108">
        <ele>208</ele>
        <time>2017-05-04T12:33:41.000Z</time>
      </trkpt>
      <trkpt lat="46.22351" lon="4.85108">
        <ele>208</ele>
        <time>2017-05-04T12:33:42.000Z</time>
      </trkpt>
      <trkpt lat="46.2235" lon="4.85108">
        <ele>208</ele>
        <time>2017-05-04T12:33:43.000Z</time>
      </trkpt>
      <trkpt lat="46.22349" lon="4.85108">
        <ele>208</ele>
        <time>2017-05-04T12:33:44.000Z</time>
      </trkpt>
      <trkpt lat="46.22349" lon="4.85108">
        <ele>208</ele>
        <time>2017-05-04T12:33:45.000Z</time>
      </trkpt>
      <trkpt lat="46.22348" lon="4.85108">
        <ele>208</ele>
        <time>2017-05-04T12:33:46.000Z</time>
      </trkpt>
      <trkpt lat="46.22348" lon="4.85108">
        <ele>208</ele>
        <time>2017-05-04T12:33:47.000Z</time>
      </trkpt>
      <trkpt lat="46.22347" lon="4.85108">
        <ele>208</ele>
        <time>2017-05-04T12:33:48.000Z</time>
      </trkpt>
      <trkpt lat="46.22346" lon="4.85107">
        <ele>209</ele>
        <time>2017-05-04T12:33:49.000Z</time>
      </trkpt>
      <trkpt lat="46.22345" lon="4.85107">
        <ele>209</ele>
        <time>2017-05-04T12:33:50.000Z</time>
      </trkpt>
      <trkpt lat="46.22344" lon="4.85107">
        <ele>209</ele>
        <time>2017-05-04T12:33:51.000Z</time>
      </trkpt>
      <trkpt lat="46.22343" lon="4.85107">
        <ele>209</ele>
        <time>2017-05-04T12:33:52.000Z</time>
      </trkpt>
      <trkpt lat="46.22342" lon="4.85107">
        <ele>209</ele>
        <time>2017-05-04T12:33:53.000Z</time>
      </trkpt>
      <trkpt lat="46.22341" lon="4.85107">
        <ele>209</ele>
        <time>2017-05-04T12:33:54.000Z</time>
      </trkpt>
      <trkpt lat="46.2234" lon="4.85107">
        <ele>209</ele>
        <time>2017-05-04T12:33:55.000Z</time>
      </trkpt>
      <trkpt lat="46.22339" lon="4.85107">
        <ele>209</ele>
        <time>2017-05-04T12:33:56.000Z</time>
      </trkpt>
      <trkpt lat="46.22338" lon="4.85107">
        <ele>209</ele>
        <time>2017-05-04T12:33:57.000Z</time>
      </trkpt>
      <trkpt lat="46.22337" lon="4.85107">
        <ele>209</ele>
        <time>2017-05-04T12:33:58.000Z</time>
      </trkpt>
      <trkpt lat="46.22336" lon="4.85108">
        <ele>210</ele>
        <time>2017-05-04T12:33:59.000Z</time>
      </trkpt>
      <trkpt lat="46.22335" lon="4.85108">
        <ele>210</ele>
        <time>2017-05-04T12:34:00.000Z</time>
      </trkpt>
      <trkpt lat="46.22335" lon="4.85108">
        <ele>210</ele>
        <time>2017-05-04T12:34:01.000Z</time>
      </trkpt>
      <trkpt lat="46.22334" lon="4.85108">
        <ele>210</ele>
        <time>2017-05-04T12:34:02.000Z</time>
      </trkpt>
      <trkpt lat="46.22334" lon="4.85107">
        <ele>210</ele>
        <time>2017-05-04T12:34:03.000Z</time>
      </trkpt>
      <trkpt lat="46.22333" lon="4.85107">
        <ele>210</ele>
        <time>2017-05-04T12:34:04.000Z</time>
      </trkpt>
      <trkpt lat="46.22332" lon="4.85108">
        <ele>210</ele>
        <time>2017-05-04T12:34:05.000Z</time>
      </trkpt>
      <trkpt lat="46.22331" lon="4.85108">
        <ele>210</ele>
        <time>2017-05-04T12:34:06.000Z</time>
      </trkpt>
      <trkpt lat="46.2233" lon="4.85108">
        <ele>210</ele>
        <time>2017-05-04T12:34:07.000Z</time>
      </trkpt>
      <trkpt lat="46.22329" lon="4.85107">
        <ele>210</ele>
        <time>2017-05-04T12:34:08.000Z</time>
      </trkpt>
      <trkpt lat="46.22328" lon="4.85107">
        <ele>210</ele>
        <time>2017-05-04T12:34:09.000Z</time>
      </trkpt>
      <trkpt lat="46.22327" lon="4.85107">
        <ele>210</ele>
        <time>2017-05-04T12:34:10.000Z</time>
      </trkpt>
      <trkpt lat="46.22326" lon="4.85107">
        <ele>210</ele>
        <time>2017-05-04T12:34:11.000Z</time>
      </trkpt>
      <trkpt lat="46.22325" lon="4.85107">
        <ele>210</ele>
        <time>2017-05-04T12:34:12.000Z</time>
      </trkpt>
      <trkpt lat="46.22324" lon="4.85107">
        <ele>209</ele>
        <time>2017-05-04T12:34:13.000Z</time>
      </trkpt>
      <trkpt lat="46.22323" lon="4.85107">
        <ele>209</ele>
        <time>2017-05-04T12:34:14.000Z</time>
      </trkpt>
      <trkpt lat="46.22322" lon="4.85107">
        <ele>209</ele>
        <time>2017-05-04T12:34:15.000Z</time>
      </trkpt>
      <trkpt lat="46.2232" lon="4.85107">
        <ele>209</ele>
        <time>2017-05-04T12:34:16.000Z</time>
      </trkpt>
      <trkpt lat="46.22319" lon="4.85107">
        <ele>209</ele>
        <time>2017-05-04T12:34:17.000Z</time>
      </trkpt>
      <trkpt lat="46.22319" lon="4.85107">
        <ele>209</ele>
        <time>2017-05-04T12:34:18.000Z</time>
      </trkpt>
      <trkpt lat="46.22317" lon="4.85107">
        <ele>209</ele>
        <time>2017-05-04T12:34:19.000Z</time>
      </trkpt>
      <trkpt lat="46.22316" lon="4.85106">
        <ele>209</ele>
        <time>2017-05-04T12:34:20.000Z</time>
      </trkpt>
      <trkpt lat="46.22315" lon="4.85106">
        <ele>209</ele>
        <time>2017-05-04T12:34:21.000Z</time>
      </trkpt>
      <trkpt lat="46.22314" lon="4.85106">
        <ele>209</ele>
        <time>2017-05-04T12:34:22.000Z</time>
      </trkpt>
      <trkpt lat="46.22313" lon="4.85106">
        <ele>209</ele>
        <time>2017-05-04T12:34:23.000Z</time>
      </trkpt>
      <trkpt lat="46.22312" lon="4.85106">
        <ele>209</ele>
        <time>2017-05-04T12:34:24.000Z</time>
      </trkpt>
      <trkpt lat="46.22311" lon="4.85106">
        <ele>209</ele>
        <time>2017-05-04T12:34:25.000Z</time>
      </trkpt>
      <trkpt lat="46.2231" lon="4.85106">
        <ele>209</ele>
        <time>2017-05-04T12:34:26.000Z</time>
      </trkpt>
      <trkpt lat="46.22309" lon="4.85105">
        <ele>210</ele>
        <time>2017-05-04T12:34:27.000Z</time>
      </trkpt>
      <trkpt lat="46.22307" lon="4.85105">
        <ele>209</ele>
        <time>2017-05-04T12:34:28.000Z</time>
      </trkpt>
      <trkpt lat="46.22306" lon="4.85105">
        <ele>209</ele>
        <time>2017-05-04T12:34:29.000Z</time>
      </trkpt>
      <trkpt lat="46.22305" lon="4.85106">
        <ele>210</ele>
        <time>2017-05-04T12:34:30.000Z</time>
      </trkpt>
      <trkpt lat="46.22304" lon="4.85106">
        <ele>209</ele>
        <time>2017-05-04T12:34:31.000Z</time>
      </trkpt>
      <trkpt lat="46.22303" lon="4.85106">
        <ele>209</ele>
        <time>2017-05-04T12:34:32.000Z</time>
      </trkpt>
      <trkpt lat="46.22302" lon="4.85106">
        <ele>210</ele>
        <time>2017-05-04T12:34:33.000Z</time>
      </trkpt>
      <trkpt lat="46.22301" lon="4.85105">
        <ele>210</ele>
        <time>2017-05-04T12:34:34.000Z</time>
      </trkpt>
      <trkpt lat="46.223" lon="4.85105">
        <ele>210</ele>
        <time>2017-05-04T12:34:35.000Z</time>
      </trkpt>
      <trkpt lat="46.22299" lon="4.85105">
        <ele>210</ele>
        <time>2017-05-04T12:34:36.000Z</time>
      </trkpt>
      <trkpt lat="46.22298" lon="4.85105">
        <ele>210</ele>
        <time>2017-05-04T12:34:37.000Z</time>
      </trkpt>
      <trkpt lat="46.22297" lon="4.85104">
        <ele>210</ele>
        <time>2017-05-04T12:34:38.000Z</time>
      </trkpt>
      <trkpt lat="46.22296" lon="4.85104">
        <ele>210</ele>
        <time>2017-05-04T12:34:39.000Z</time>
      </trkpt>
      <trkpt lat="46.22295" lon="4.85104">
        <ele>210</ele>
        <time>2017-05-04T12:34:40.000Z</time>
      </trkpt>
      <trkpt lat="46.22294" lon="4.85103">
        <ele>210</ele>
        <time>2017-05-04T12:34:41.000Z</time>
      </trkpt>
      <trkpt lat="46.22293" lon="4.85103">
        <ele>210</ele>
        <time>2017-05-04T12:34:42.000Z</time>
      </trkpt>
      <trkpt lat="46.22292" lon="4.85103">
        <ele>210</ele>
        <time>2017-05-04T12:34:43.000Z</time>
      </trkpt>
      <trkpt lat="46.22291" lon="4.85103">
        <ele>210</ele>
        <time>2017-05-04T12:34:44.000Z</time>
      </trkpt>
      <trkpt lat="46.2229" lon="4.85102">
        <ele>210</ele>
        <time>2017-05-04T12:34:45.000Z</time>
      </trkpt>
      <trkpt lat="46.22289" lon="4.85102">
        <ele>210</ele>
        <time>2017-05-04T12:34:46.000Z</time>
      </trkpt>
      <trkpt lat="46.22288" lon="4.85102">
        <ele>210</ele>
        <time>2017-05-04T12:34:47.000Z</time>
      </trkpt>
      <trkpt lat="46.22287" lon="4.85102">
        <ele>210</ele>
        <time>2017-05-04T12:34:48.000Z</time>
      </trkpt>
      <trkpt lat="46.22286" lon="4.85101">
        <ele>210</ele>
        <time>2017-05-04T12:34:49.000Z</time>
      </trkpt>
      <trkpt lat="46.22285" lon="4.85101">
        <ele>210</ele>
        <time>2017-05-04T12:34:50.000Z</time>
      </trkpt>
      <trkpt lat="46.22284" lon="4.85101">
        <ele>210</ele>
        <time>2017-05-04T12:34:51.000Z</time>
      </trkpt>
      <trkpt lat="46.22283" lon="4.85101">
        <ele>210</ele>
        <time>2017-05-04T12:34:52.000Z</time>
      </trkpt>
      <trkpt lat="46.22282" lon="4.85101">
        <ele>210</ele>
        <time>2017-05-04T12:34:53.000Z</time>
      </trkpt>
      <trkpt lat="46.22281" lon="4.85101">
        <ele>209</ele>
        <time>2017-05-04T12:34:54.000Z</time>
      </trkpt>
      <trkpt lat="46.2228" lon="4.85101">
        <ele>209</ele>
        <time>2017-05-04T12:34:55.000Z</time>
      </trkpt>
      <trkpt lat="46.22279" lon="4.851">
        <ele>209</ele>
        <time>2017-05-04T12:34:56.000Z</time>
      </trkpt>
      <trkpt lat="46.22278" lon="4.851">
        <ele>209</ele>
        <time>2017-05-04T12:34:57.000Z</time>
      </trkpt>
      <trkpt lat="46.22276" lon="4.851">
        <ele>210</ele>
        <time>2017-05-04T12:34:58.000Z</time>
      </trkpt>
      <trkpt lat="46.22275" lon="4.85099">
        <ele>209</ele>
        <time>2017-05-04T12:34:59.000Z</time>
      </trkpt>
      <trkpt lat="46.22274" lon="4.85099">
        <ele>209</ele>
        <time>2017-05-04T12:35:00.000Z</time>
      </trkpt>
      <trkpt lat="46.22273" lon="4.85099">
        <ele>210</ele>
        <time>2017-05-04T12:35:01.000Z</time>
      </trkpt>
      <trkpt lat="46.22272" lon="4.85098">
        <ele>210</ele>
        <time>2017-05-04T12:35:02.000Z</time>
      </trkpt>
      <trkpt lat="46.22271" lon="4.85098">
        <ele>210</ele>
        <time>2017-05-04T12:35:03.000Z</time>
      </trkpt>
      <trkpt lat="46.2227" lon="4.85098">
        <ele>210</ele>
        <time>2017-05-04T12:35:04.000Z</time>
      </trkpt>
      <trkpt lat="46.22269" lon="4.85098">
        <ele>210</ele>
        <time>2017-05-04T12:35:05.000Z</time>
      </trkpt>
      <trkpt lat="46.22268" lon="4.85098">
        <ele>210</ele>
        <time>2017-05-04T12:35:06.000Z</time>
      </trkpt>
      <trkpt lat="46.22268" lon="4.85098">
        <ele>210</ele>
        <time>2017-05-04T12:35:07.000Z</time>
      </trkpt>
      <trkpt lat="46.22268" lon="4.85098">
        <ele>210</ele>
        <time>2017-05-04T12:35:08.000Z</time>
      </trkpt>
      <trkpt lat="46.22268" lon="4.85098">
        <ele>210</ele>
        <time>2017-05-04T12:35:09.000Z</time>
      </trkpt>
      <trkpt lat="46.22268" lon="4.85098">
        <ele>209</ele>
        <time>2017-05-04T12:35:10.000Z</time>
      </trkpt>
      <trkpt lat="46.22267" lon="4.85098">
        <ele>209</ele>
        <time>2017-05-04T12:35:11.000Z</time>
      </trkpt>
      <trkpt lat="46.22267" lon="4.85099">
        <ele>208</ele>
        <time>2017-05-04T12:35:12.000Z</time>
      </trkpt>
      <trkpt lat="46.22266" lon="4.85099">
        <ele>209</ele>
        <time>2017-05-04T12:35:13.000Z</time>
      </trkpt>
      <trkpt lat="46.22266" lon="4.85099">
        <ele>209</ele>
        <time>2017-05-04T12:35:14.000Z</time>
      </trkpt>
      <trkpt lat="46.22265" lon="4.85099">
        <ele>208</ele>
        <time>2017-05-04T12:35:15.000Z</time>
      </trkpt>
      <trkpt lat="46.22265" lon="4.85099">
        <ele>208</ele>
        <time>2017-05-04T12:35:16.000Z</time>
      </trkpt>
      <trkpt lat="46.22264" lon="4.85098">
        <ele>208</ele>
        <time>2017-05-04T12:35:17.000Z</time>
      </trkpt>
      <trkpt lat="46.22263" lon="4.85097">
        <ele>208</ele>
        <time>2017-05-04T12:35:18.000Z</time>
      </trkpt>
      <trkpt lat="46.22262" lon="4.85097">
        <ele>208</ele>
        <time>2017-05-04T12:35:19.000Z</time>
      </trkpt>
      <trkpt lat="46.22261" lon="4.85096">
        <ele>208</ele>
        <time>2017-05-04T12:35:20.000Z</time>
      </trkpt>
      <trkpt lat="46.2226" lon="4.85096">
        <ele>209</ele>
        <time>2017-05-04T12:35:21.000Z</time>
      </trkpt>
      <trkpt lat="46.22259" lon="4.85095">
        <ele>208</ele>
        <time>2017-05-04T12:35:22.000Z</time>
      </trkpt>
      <trkpt lat="46.22258" lon="4.85095">
        <ele>208</ele>
        <time>2017-05-04T12:35:23.000Z</time>
      </trkpt>
      <trkpt lat="46.22257" lon="4.85095">
        <ele>208</ele>
        <time>2017-05-04T12:35:24.000Z</time>
      </trkpt>
      <trkpt lat="46.22256" lon="4.85095">
        <ele>208</ele>
        <time>2017-05-04T12:35:25.000Z</time>
      </trkpt>
      <trkpt lat="46.22254" lon="4.85094">
        <ele>208</ele>
        <time>2017-05-04T12:35:26.000Z</time>
      </trkpt>
      <trkpt lat="46.22253" lon="4.85094">
        <ele>208</ele>
        <time>2017-05-04T12:35:27.000Z</time>
      </trkpt>
      <trkpt lat="46.22252" lon="4.85094">
        <ele>208</ele>
        <time>2017-05-04T12:35:28.000Z</time>
      </trkpt>
      <trkpt lat="46.22251" lon="4.85094">
        <ele>208</ele>
        <time>2017-05-04T12:35:29.000Z</time>
      </trkpt>
      <trkpt lat="46.2225" lon="4.85093">
        <ele>209</ele>
        <time>2017-05-04T12:35:30.000Z</time>
      </trkpt>
      <trkpt lat="46.22249" lon="4.85093">
        <ele>209</ele>
        <time>2017-05-04T12:35:31.000Z</time>
      </trkpt>
      <trkpt lat="46.22248" lon="4.85093">
        <ele>208</ele>
        <time>2017-05-04T12:35:32.000Z</time>
      </trkpt>
      <trkpt lat="46.22246" lon="4.85093">
        <ele>209</ele>
        <time>2017-05-04T12:35:33.000Z</time>
      </trkpt>
      <trkpt lat="46.22245" lon="4.85093">
        <ele>209</ele>
        <time>2017-05-04T12:35:34.000Z</time>
      </trkpt>
      <trkpt lat="46.22244" lon="4.85092">
        <ele>209</ele>
        <time>2017-05-04T12:35:35.000Z</time>
      </trkpt>
      <trkpt lat="46.22243" lon="4.85092">
        <ele>209</ele>
        <time>2017-05-04T12:35:36.000Z</time>
      </trkpt>
      <trkpt lat="46.22242" lon="4.85092">
        <ele>209</ele>
        <time>2017-05-04T12:35:37.000Z</time>
      </trkpt>
      <trkpt lat="46.22241" lon="4.85092">
        <ele>210</ele>
        <time>2017-05-04T12:35:38.000Z</time>
      </trkpt>
      <trkpt lat="46.2224" lon="4.85092">
        <ele>210</ele>
        <time>2017-05-04T12:35:39.000Z</time>
      </trkpt>
      <trkpt lat="46.22238" lon="4.85092">
        <ele>209</ele>
        <time>2017-05-04T12:35:40.000Z</time>
      </trkpt>
      <trkpt lat="46.22237" lon="4.85092">
        <ele>209</ele>
        <time>2017-05-04T12:35:41.000Z</time>
      </trkpt>
      <trkpt lat="46.22236" lon="4.85092">
        <ele>209</ele>
        <time>2017-05-04T12:35:42.000Z</time>
      </trkpt>
      <trkpt lat="46.22235" lon="4.85091">
        <ele>209</ele>
        <time>2017-05-04T12:35:43.000Z</time>
      </trkpt>
      <trkpt lat="46.22234" lon="4.85091">
        <ele>209</ele>
        <time>2017-05-04T12:35:44.000Z</time>
      </trkpt>
      <trkpt lat="46.22233" lon="4.85091">
        <ele>209</ele>
        <time>2017-05-04T12:35:45.000Z</time>
      </trkpt>
      <trkpt lat="46.22232" lon="4.85091">
        <ele>209</ele>
        <time>2017-05-04T12:35:46.000Z</time>
      </trkpt>
      <trkpt lat="46.22231" lon="4.85091">
        <ele>209</ele>
        <time>2017-05-04T12:35:47.000Z</time>
      </trkpt>
      <trkpt lat="46.2223" lon="4.85091">
        <ele>209</ele>
        <time>2017-05-04T12:35:48.000Z</time>
      </trkpt>
      <trkpt lat="46.22229" lon="4.8509">
        <ele>209</ele>
        <time>2017-05-04T12:35:49.000Z</time>
      </trkpt>
      <trkpt lat="46.22228" lon="4.8509">
        <ele>209</ele>
        <time>2017-05-04T12:35:50.000Z</time>
      </trkpt>
      <trkpt lat="46.22227" lon="4.8509">
        <ele>209</ele>
        <time>2017-05-04T12:35:51.000Z</time>
      </trkpt>
      <trkpt lat="46.22226" lon="4.8509">
        <ele>209</ele>
        <time>2017-05-04T12:35:52.000Z</time>
      </trkpt>
      <trkpt lat="46.22225" lon="4.85089">
        <ele>209</ele>
        <time>2017-05-04T12:35:53.000Z</time>
      </trkpt>
      <trkpt lat="46.22223" lon="4.85089">
        <ele>210</ele>
        <time>2017-05-04T12:35:54.000Z</time>
      </trkpt>
      <trkpt lat="46.22222" lon="4.85089">
        <ele>210</ele>
        <time>2017-05-04T12:35:55.000Z</time>
      </trkpt>
      <trkpt lat="46.22221" lon="4.85089">
        <ele>210</ele>
        <time>2017-05-04T12:35:56.000Z</time>
      </trkpt>
      <trkpt lat="46.2222" lon="4.85088">
        <ele>210</ele>
        <time>2017-05-04T12:35:57.000Z</time>
      </trkpt>
      <trkpt lat="46.22219" lon="4.85088">
        <ele>211</ele>
        <time>2017-05-04T12:35:58.000Z</time>
      </trkpt>
      <trkpt lat="46.22217" lon="4.85088">
        <ele>210</ele>
        <time>2017-05-04T12:35:59.000Z</time>
      </trkpt>
      <trkpt lat="46.22216" lon="4.85088">
        <ele>210</ele>
        <time>2017-05-04T12:36:00.000Z</time>
      </trkpt>
      <trkpt lat="46.22215" lon="4.85088">
        <ele>211</ele>
        <time>2017-05-04T12:36:01.000Z</time>
      </trkpt>
      <trkpt lat="46.22214" lon="4.85087">
        <ele>211</ele>
        <time>2017-05-04T12:36:02.000Z</time>
      </trkpt>
      <trkpt lat="46.22212" lon="4.85087">
        <ele>211</ele>
        <time>2017-05-04T12:36:03.000Z</time>
      </trkpt>
      <trkpt lat="46.22211" lon="4.85087">
        <ele>211</ele>
        <time>2017-05-04T12:36:04.000Z</time>
      </trkpt>
      <trkpt lat="46.2221" lon="4.85086">
        <ele>211</ele>
        <time>2017-05-04T12:36:05.000Z</time>
      </trkpt>
      <trkpt lat="46.22209" lon="4.85086">
        <ele>211</ele>
        <time>2017-05-04T12:36:06.000Z</time>
      </trkpt>
      <trkpt lat="46.22208" lon="4.85086">
        <ele>211</ele>
        <time>2017-05-04T12:36:07.000Z</time>
      </trkpt>
      <trkpt lat="46.22207" lon="4.85086">
        <ele>211</ele>
        <time>2017-05-04T12:36:08.000Z</time>
      </trkpt>
      <trkpt lat="46.22205" lon="4.85086">
        <ele>211</ele>
        <time>2017-05-04T12:36:09.000Z</time>
      </trkpt>
      <trkpt lat="46.22204" lon="4.85086">
        <ele>211</ele>
        <time>2017-05-04T12:36:10.000Z</time>
      </trkpt>
      <trkpt lat="46.22203" lon="4.85085">
        <ele>211</ele>
        <time>2017-05-04T12:36:11.000Z</time>
      </trkpt>
      <trkpt lat="46.22202" lon="4.85085">
        <ele>211</ele>
        <time>2017-05-04T12:36:12.000Z</time>
      </trkpt>
      <trkpt lat="46.22201" lon="4.85085">
        <ele>212</ele>
        <time>2017-05-04T12:36:13.000Z</time>
      </trkpt>
      <trkpt lat="46.222" lon="4.85085">
        <ele>212</ele>
        <time>2017-05-04T12:36:14.000Z</time>
      </trkpt>
      <trkpt lat="46.22199" lon="4.85085">
        <ele>212</ele>
        <time>2017-05-04T12:36:15.000Z</time>
      </trkpt>
      <trkpt lat="46.22198" lon="4.85084">
        <ele>212</ele>
        <time>2017-05-04T12:36:16.000Z</time>
      </trkpt>
      <trkpt lat="46.22197" lon="4.85084">
        <ele>212</ele>
        <time>2017-05-04T12:36:17.000Z</time>
      </trkpt>
      <trkpt lat="46.22196" lon="4.85084">
        <ele>212</ele>
        <time>2017-05-04T12:36:18.000Z</time>
      </trkpt>
      <trkpt lat="46.22195" lon="4.85084">
        <ele>212</ele>
        <time>2017-05-04T12:36:19.000Z</time>
      </trkpt>
      <trkpt lat="46.22194" lon="4.85083">
        <ele>212</ele>
        <time>2017-05-04T12:36:20.000Z</time>
      </trkpt>
      <trkpt lat="46.22192" lon="4.85083">
        <ele>212</ele>
        <time>2017-05-04T12:36:21.000Z</time>
      </trkpt>
      <trkpt lat="46.22191" lon="4.85083">
        <ele>212</ele>
        <time>2017-05-04T12:36:22.000Z</time>
      </trkpt>
      <trkpt lat="46.2219" lon="4.85082">
        <ele>212</ele>
        <time>2017-05-04T12:36:23.000Z</time>
      </trkpt>
      <trkpt lat="46.22189" lon="4.85082">
        <ele>212</ele>
        <time>2017-05-04T12:36:24.000Z</time>
      </trkpt>
      <trkpt lat="46.22188" lon="4.85082">
        <ele>212</ele>
        <time>2017-05-04T12:36:25.000Z</time>
      </trkpt>
      <trkpt lat="46.22187" lon="4.85082">
        <ele>212</ele>
        <time>2017-05-04T12:36:26.000Z</time>
      </trkpt>
      <trkpt lat="46.22186" lon="4.85082">
        <ele>212</ele>
        <time>2017-05-04T12:36:27.000Z</time>
      </trkpt>
      <trkpt lat="46.22185" lon="4.85082">
        <ele>212</ele>
        <time>2017-05-04T12:36:28.000Z</time>
      </trkpt>
      <trkpt lat="46.22184" lon="4.85082">
        <ele>212</ele>
        <time>2017-05-04T12:36:29.000Z</time>
      </trkpt>
      <trkpt lat="46.22183" lon="4.85081">
        <ele>211</ele>
        <time>2017-05-04T12:36:30.000Z</time>
      </trkpt>
      <trkpt lat="46.22182" lon="4.85081">
        <ele>212</ele>
        <time>2017-05-04T12:36:31.000Z</time>
      </trkpt>
      <trkpt lat="46.22181" lon="4.85081">
        <ele>212</ele>
        <time>2017-05-04T12:36:32.000Z</time>
      </trkpt>
      <trkpt lat="46.2218" lon="4.85081">
        <ele>212</ele>
        <time>2017-05-04T12:36:33.000Z</time>
      </trkpt>
      <trkpt lat="46.22178" lon="4.85081">
        <ele>212</ele>
        <time>2017-05-04T12:36:34.000Z</time>
      </trkpt>
      <trkpt lat="46.22177" lon="4.85081">
        <ele>212</ele>
        <time>2017-05-04T12:36:35.000Z</time>
      </trkpt>
      <trkpt lat="46.22176" lon="4.8508">
        <ele>212</ele>
        <time>2017-05-04T12:36:36.000Z</time>
      </trkpt>
      <trkpt lat="46.22175" lon="4.8508">
        <ele>212</ele>
        <time>2017-05-04T12:36:37.000Z</time>
      </trkpt>
      <trkpt lat="46.22174" lon="4.8508">
        <ele>212</ele>
        <time>2017-05-04T12:36:38.000Z</time>
      </trkpt>
      <trkpt lat="46.22173" lon="4.8508">
        <ele>212</ele>
        <time>2017-05-04T12:36:39.000Z</time>
      </trkpt>
      <trkpt lat="46.22172" lon="4.8508">
        <ele>212</ele>
        <time>2017-05-04T12:36:40.000Z</time>
      </trkpt>
      <trkpt lat="46.22171" lon="4.8508">
        <ele>212</ele>
        <time>2017-05-04T12:36:41.000Z</time>
      </trkpt>
      <trkpt lat="46.2217" lon="4.85079">
        <ele>212</ele>
        <time>2017-05-04T12:36:42.000Z</time>
      </trkpt>
      <trkpt lat="46.22169" lon="4.85079">
        <ele>212</ele>
        <time>2017-05-04T12:36:43.000Z</time>
      </trkpt>
      <trkpt lat="46.22168" lon="4.85079">
        <ele>212</ele>
        <time>2017-05-04T12:36:44.000Z</time>
      </trkpt>
      <trkpt lat="46.22167" lon="4.85079">
        <ele>212</ele>
        <time>2017-05-04T12:36:45.000Z</time>
      </trkpt>
      <trkpt lat="46.22166" lon="4.85078">
        <ele>212</ele>
        <time>2017-05-04T12:36:46.000Z</time>
      </trkpt>
      <trkpt lat="46.22165" lon="4.85078">
        <ele>212</ele>
        <time>2017-05-04T12:36:47.000Z</time>
      </trkpt>
      <trkpt lat="46.22164" lon="4.85078">
        <ele>212</ele>
        <time>2017-05-04T12:36:48.000Z</time>
      </trkpt>
      <trkpt lat="46.22163" lon="4.85078">
        <ele>212</ele>
        <time>2017-05-04T12:36:49.000Z</time>
      </trkpt>
      <trkpt lat="46.22162" lon="4.85077">
        <ele>213</ele>
        <time>2017-05-04T12:36:50.000Z</time>
      </trkpt>
      <trkpt lat="46.22161" lon="4.85077">
        <ele>212</ele>
        <time>2017-05-04T12:36:51.000Z</time>
      </trkpt>
      <trkpt lat="46.22159" lon="4.85077">
        <ele>212</ele>
        <time>2017-05-04T12:36:52.000Z</time>
      </trkpt>
      <trkpt lat="46.22158" lon="4.85076">
        <ele>212</ele>
        <time>2017-05-04T12:36:53.000Z</time>
      </trkpt>
      <trkpt lat="46.22158" lon="4.85076">
        <ele>212</ele>
        <time>2017-05-04T12:36:54.000Z</time>
      </trkpt>
      <trkpt lat="46.22157" lon="4.85076">
        <ele>212</ele>
        <time>2017-05-04T12:36:55.000Z</time>
      </trkpt>
      <trkpt lat="46.22156" lon="4.85076">
        <ele>212</ele>
        <time>2017-05-04T12:36:56.000Z</time>
      </trkpt>
      <trkpt lat="46.22154" lon="4.85075">
        <ele>212</ele>
        <time>2017-05-04T12:36:57.000Z</time>
      </trkpt>
      <trkpt lat="46.22153" lon="4.85075">
        <ele>212</ele>
        <time>2017-05-04T12:36:58.000Z</time>
      </trkpt>
      <trkpt lat="46.22152" lon="4.85075">
        <ele>211</ele>
        <time>2017-05-04T12:36:59.000Z</time>
      </trkpt>
      <trkpt lat="46.22151" lon="4.85074">
        <ele>211</ele>
        <time>2017-05-04T12:37:00.000Z</time>
      </trkpt>
      <trkpt lat="46.2215" lon="4.85074">
        <ele>211</ele>
        <time>2017-05-04T12:37:01.000Z</time>
      </trkpt>
      <trkpt lat="46.22149" lon="4.85074">
        <ele>211</ele>
        <time>2017-05-04T12:37:02.000Z</time>
      </trkpt>
      <trkpt lat="46.22148" lon="4.85073">
        <ele>212</ele>
        <time>2017-05-04T12:37:03.000Z</time>
      </trkpt>
      <trkpt lat="46.22147" lon="4.85073">
        <ele>212</ele>
        <time>2017-05-04T12:37:04.000Z</time>
      </trkpt>
      <trkpt lat="46.22146" lon="4.85073">
        <ele>212</ele>
        <time>2017-05-04T12:37:05.000Z</time>
      </trkpt>
      <trkpt lat="46.22145" lon="4.85072">
        <ele>212</ele>
        <time>2017-05-04T12:37:06.000Z</time>
      </trkpt>
      <trkpt lat="46.22144" lon="4.85072">
        <ele>212</ele>
        <time>2017-05-04T12:37:07.000Z</time>
      </trkpt>
      <trkpt lat="46.22143" lon="4.85071">
        <ele>213</ele>
        <time>2017-05-04T12:37:08.000Z</time>
      </trkpt>
      <trkpt lat="46.22142" lon="4.85071">
        <ele>213</ele>
        <time>2017-05-04T12:37:09.000Z</time>
      </trkpt>
      <trkpt lat="46.22141" lon="4.8507">
        <ele>213</ele>
        <time>2017-05-04T12:37:10.000Z</time>
      </trkpt>
      <trkpt lat="46.2214" lon="4.8507">
        <ele>213</ele>
        <time>2017-05-04T12:37:11.000Z</time>
      </trkpt>
      <trkpt lat="46.22138" lon="4.85069">
        <ele>213</ele>
        <time>2017-05-04T12:37:12.000Z</time>
      </trkpt>
      <trkpt lat="46.22137" lon="4.85069">
        <ele>212</ele>
        <time>2017-05-04T12:37:13.000Z</time>
      </trkpt>
      <trkpt lat="46.22136" lon="4.85068">
        <ele>212</ele>
        <time>2017-05-04T12:37:14.000Z</time>
      </trkpt>
      <trkpt lat="46.22135" lon="4.85068">
        <ele>213</ele>
        <time>2017-05-04T12:37:15.000Z</time>
      </trkpt>
      <trkpt lat="46.22134" lon="4.85068">
        <ele>213</ele>
        <time>2017-05-04T12:37:16.000Z</time>
      </trkpt>
      <trkpt lat="46.22133" lon="4.85067">
        <ele>213</ele>
        <time>2017-05-04T12:37:17.000Z</time>
      </trkpt>
      <trkpt lat="46.22132" lon="4.85067">
        <ele>213</ele>
        <time>2017-05-04T12:37:18.000Z</time>
      </trkpt>
      <trkpt lat="46.22131" lon="4.85066">
        <ele>213</ele>
        <time>2017-05-04T12:37:19.000Z</time>
      </trkpt>
      <trkpt lat="46.2213" lon="4.85066">
        <ele>213</ele>
        <time>2017-05-04T12:37:20.000Z</time>
      </trkpt>
      <trkpt lat="46.22129" lon="4.85066">
        <ele>213</ele>
        <time>2017-05-04T12:37:21.000Z</time>
      </trkpt>
      <trkpt lat="46.22128" lon="4.85065">
        <ele>213</ele>
        <time>2017-05-04T12:37:22.000Z</time>
      </trkpt>
      <trkpt lat="46.22127" lon="4.85065">
        <ele>213</ele>
        <time>2017-05-04T12:37:23.000Z</time>
      </trkpt>
      <trkpt lat="46.22126" lon="4.85065">
        <ele>213</ele>
        <time>2017-05-04T12:37:24.000Z</time>
      </trkpt>
      <trkpt lat="46.22125" lon="4.85064">
        <ele>213</ele>
        <time>2017-05-04T12:37:25.000Z</time>
      </trkpt>
      <trkpt lat="46.22124" lon="4.85064">
        <ele>213</ele>
        <time>2017-05-04T12:37:26.000Z</time>
      </trkpt>
      <trkpt lat="46.22123" lon="4.85063">
        <ele>213</ele>
        <time>2017-05-04T12:37:27.000Z</time>
      </trkpt>
      <trkpt lat="46.22122" lon="4.85063">
        <ele>213</ele>
        <time>2017-05-04T12:37:28.000Z</time>
      </trkpt>
      <trkpt lat="46.2212" lon="4.85062">
        <ele>213</ele>
        <time>2017-05-04T12:37:29.000Z</time>
      </trkpt>
      <trkpt lat="46.22119" lon="4.85062">
        <ele>214</ele>
        <time>2017-05-04T12:37:30.000Z</time>
      </trkpt>
      <trkpt lat="46.22118" lon="4.85061">
        <ele>214</ele>
        <time>2017-05-04T12:37:31.000Z</time>
      </trkpt>
      <trkpt lat="46.22117" lon="4.85061">
        <ele>214</ele>
        <time>2017-05-04T12:37:32.000Z</time>
      </trkpt>
      <trkpt lat="46.22116" lon="4.85061">
        <ele>214</ele>
        <time>2017-05-04T12:37:33.000Z</time>
      </trkpt>
      <trkpt lat="46.22115" lon="4.8506">
        <ele>214</ele>
        <time>2017-05-04T12:37:34.000Z</time>
      </trkpt>
      <trkpt lat="46.22114" lon="4.8506">
        <ele>214</ele>
        <time>2017-05-04T12:37:35.000Z</time>
      </trkpt>
      <trkpt lat="46.22113" lon="4.85059">
        <ele>213</ele>
        <time>2017-05-04T12:37:36.000Z</time>
      </trkpt>
      <trkpt lat="46.22112" lon="4.85059">
        <ele>213</ele>
        <time>2017-05-04T12:37:37.000Z</time>
      </trkpt>
      <trkpt lat="46.22111" lon="4.85059">
        <ele>213</ele>
        <time>2017-05-04T12:37:38.000Z</time>
      </trkpt>
      <trkpt lat="46.22109" lon="4.85058">
        <ele>212</ele>
        <time>2017-05-04T12:37:39.000Z</time>
      </trkpt>
      <trkpt lat="46.22108" lon="4.85058">
        <ele>213</ele>
        <time>2017-05-04T12:37:40.000Z</time>
      </trkpt>
      <trkpt lat="46.22107" lon="4.85057">
        <ele>213</ele>
        <time>2017-05-04T12:37:41.000Z</time>
      </trkpt>
      <trkpt lat="46.22106" lon="4.85057">
        <ele>213</ele>
        <time>2017-05-04T12:37:42.000Z</time>
      </trkpt>
      <trkpt lat="46.22105" lon="4.85057">
        <ele>212</ele>
        <time>2017-05-04T12:37:43.000Z</time>
      </trkpt>
      <trkpt lat="46.22104" lon="4.85056">
        <ele>212</ele>
        <time>2017-05-04T12:37:44.000Z</time>
      </trkpt>
      <trkpt lat="46.22103" lon="4.85056">
        <ele>213</ele>
        <time>2017-05-04T12:37:45.000Z</time>
      </trkpt>
      <trkpt lat="46.22102" lon="4.85056">
        <ele>212</ele>
        <time>2017-05-04T12:37:46.000Z</time>
      </trkpt>
      <trkpt lat="46.22101" lon="4.85056">
        <ele>213</ele>
        <time>2017-05-04T12:37:47.000Z</time>
      </trkpt>
      <trkpt lat="46.22099" lon="4.85055">
        <ele>213</ele>
        <time>2017-05-04T12:37:48.000Z</time>
      </trkpt>
      <trkpt lat="46.22098" lon="4.85055">
        <ele>213</ele>
        <time>2017-05-04T12:37:49.000Z</time>
      </trkpt>
      <trkpt lat="46.22097" lon="4.85054">
        <ele>213</ele>
        <time>2017-05-04T12:37:50.000Z</time>
      </trkpt>
      <trkpt lat="46.22096" lon="4.85054">
        <ele>213</ele>
        <time>2017-05-04T12:37:51.000Z</time>
      </trkpt>
      <trkpt lat="46.22095" lon="4.85054">
        <ele>213</ele>
        <time>2017-05-04T12:37:52.000Z</time>
      </trkpt>
      <trkpt lat="46.22093" lon="4.85053">
        <ele>213</ele>
        <time>2017-05-04T12:37:53.000Z</time>
      </trkpt>
      <trkpt lat="46.22092" lon="4.85053">
        <ele>213</ele>
        <time>2017-05-04T12:37:54.000Z</time>
      </trkpt>
      <trkpt lat="46.22091" lon="4.85052">
        <ele>213</ele>
        <time>2017-05-04T12:37:55.000Z</time>
      </trkpt>
      <trkpt lat="46.2209" lon="4.85052">
        <ele>213</ele>
        <time>2017-05-04T12:37:56.000Z</time>
      </trkpt>
      <trkpt lat="46.22089" lon="4.85051">
        <ele>213</ele>
        <time>2017-05-04T12:37:57.000Z</time>
      </trkpt>
      <trkpt lat="46.22088" lon="4.85051">
        <ele>213</ele>
        <time>2017-05-04T12:37:58.000Z</time>
      </trkpt>
      <trkpt lat="46.22087" lon="4.85051">
        <ele>212</ele>
        <time>2017-05-04T12:37:59.000Z</time>
      </trkpt>
      <trkpt lat="46.22086" lon="4.85051">
        <ele>212</ele>
        <time>2017-05-04T12:38:00.000Z</time>
      </trkpt>
      <trkpt lat="46.22085" lon="4.8505">
        <ele>212</ele>
        <time>2017-05-04T12:38:01.000Z</time>
      </trkpt>
      <trkpt lat="46.22084" lon="4.8505">
        <ele>211</ele>
        <time>2017-05-04T12:38:02.000Z</time>
      </trkpt>
      <trkpt lat="46.22083" lon="4.8505">
        <ele>211</ele>
        <time>2017-05-04T12:38:03.000Z</time>
      </trkpt>
      <trkpt lat="46.22082" lon="4.8505">
        <ele>211</ele>
        <time>2017-05-04T12:38:04.000Z</time>
      </trkpt>
      <trkpt lat="46.22081" lon="4.85049">
        <ele>212</ele>
        <time>2017-05-04T12:38:05.000Z</time>
      </trkpt>
      <trkpt lat="46.2208" lon="4.85049">
        <ele>212</ele>
        <time>2017-05-04T12:38:06.000Z</time>
      </trkpt>
      <trkpt lat="46.22079" lon="4.85049">
        <ele>212</ele>
        <time>2017-05-04T12:38:07.000Z</time>
      </trkpt>
      <trkpt lat="46.22078" lon="4.85048">
        <ele>212</ele>
        <time>2017-05-04T12:38:08.000Z</time>
      </trkpt>
      <trkpt lat="46.22077" lon="4.85048">
        <ele>213</ele>
        <time>2017-05-04T12:38:09.000Z</time>
      </trkpt>
      <trkpt lat="46.22076" lon="4.85047">
        <ele>214</ele>
        <time>2017-05-04T12:38:10.000Z</time>
      </trkpt>
      <trkpt lat="46.22075" lon="4.85047">
        <ele>214</ele>
        <time>2017-05-04T12:38:11.000Z</time>
      </trkpt>
      <trkpt lat="46.22074" lon="4.85047">
        <ele>214</ele>
        <time>2017-05-04T12:38:12.000Z</time>
      </trkpt>
      <trkpt lat="46.22073" lon="4.85046">
        <ele>214</ele>
        <time>2017-05-04T12:38:13.000Z</time>
      </trkpt>
      <trkpt lat="46.22072" lon="4.85046">
        <ele>214</ele>
        <time>2017-05-04T12:38:14.000Z</time>
      </trkpt>
      <trkpt lat="46.22072" lon="4.85046">
        <ele>214</ele>
        <time>2017-05-04T12:38:15.000Z</time>
      </trkpt>
      <trkpt lat="46.2207" lon="4.85045">
        <ele>213</ele>
        <time>2017-05-04T12:38:16.000Z</time>
      </trkpt>
      <trkpt lat="46.22069" lon="4.85045">
        <ele>213</ele>
        <time>2017-05-04T12:38:17.000Z</time>
      </trkpt>
      <trkpt lat="46.22068" lon="4.85045">
        <ele>213</ele>
        <time>2017-05-04T12:38:18.000Z</time>
      </trkpt>
      <trkpt lat="46.22067" lon="4.85044">
        <ele>213</ele>
        <time>2017-05-04T12:38:19.000Z</time>
      </trkpt>
      <trkpt lat="46.22065" lon="4.85044">
        <ele>213</ele>
        <time>2017-05-04T12:38:20.000Z</time>
      </trkpt>
      <trkpt lat="46.22064" lon="4.85044">
        <ele>212</ele>
        <time>2017-05-04T12:38:21.000Z</time>
      </trkpt>
      <trkpt lat="46.22063" lon="4.85044">
        <ele>212</ele>
        <time>2017-05-04T12:38:22.000Z</time>
      </trkpt>
      <trkpt lat="46.22062" lon="4.85043">
        <ele>212</ele>
        <time>2017-05-04T12:38:23.000Z</time>
      </trkpt>
      <trkpt lat="46.22061" lon="4.85043">
        <ele>211</ele>
        <time>2017-05-04T12:38:24.000Z</time>
      </trkpt>
      <trkpt lat="46.22059" lon="4.85043">
        <ele>211</ele>
        <time>2017-05-04T12:38:25.000Z</time>
      </trkpt>
      <trkpt lat="46.22058" lon="4.85043">
        <ele>211</ele>
        <time>2017-05-04T12:38:26.000Z</time>
      </trkpt>
      <trkpt lat="46.22057" lon="4.85043">
        <ele>211</ele>
        <time>2017-05-04T12:38:27.000Z</time>
      </trkpt>
      <trkpt lat="46.22056" lon="4.85043">
        <ele>210</ele>
        <time>2017-05-04T12:38:28.000Z</time>
      </trkpt>
      <trkpt lat="46.22054" lon="4.85042">
        <ele>210</ele>
        <time>2017-05-04T12:38:29.000Z</time>
      </trkpt>
      <trkpt lat="46.22053" lon="4.85042">
        <ele>210</ele>
        <time>2017-05-04T12:38:30.000Z</time>
      </trkpt>
      <trkpt lat="46.22052" lon="4.85041">
        <ele>210</ele>
        <time>2017-05-04T12:38:31.000Z</time>
      </trkpt>
      <trkpt lat="46.22051" lon="4.8504">
        <ele>210</ele>
        <time>2017-05-04T12:38:32.000Z</time>
      </trkpt>
      <trkpt lat="46.2205" lon="4.8504">
        <ele>209</ele>
        <time>2017-05-04T12:38:33.000Z</time>
      </trkpt>
      <trkpt lat="46.22048" lon="4.8504">
        <ele>209</ele>
        <time>2017-05-04T12:38:34.000Z</time>
      </trkpt>
      <trkpt lat="46.22047" lon="4.8504">
        <ele>209</ele>
        <time>2017-05-04T12:38:35.000Z</time>
      </trkpt>
      <trkpt lat="46.22046" lon="4.85039">
        <ele>209</ele>
        <time>2017-05-04T12:38:36.000Z</time>
      </trkpt>
      <trkpt lat="46.22045" lon="4.85039">
        <ele>209</ele>
        <time>2017-05-04T12:38:37.000Z</time>
      </trkpt>
      <trkpt lat="46.22044" lon="4.85038">
        <ele>210</ele>
        <time>2017-05-04T12:38:38.000Z</time>
      </trkpt>
      <trkpt lat="46.22043" lon="4.85038">
        <ele>210</ele>
        <time>2017-05-04T12:38:39.000Z</time>
      </trkpt>
      <trkpt lat="46.22042" lon="4.85037">
        <ele>210</ele>
        <time>2017-05-04T12:38:40.000Z</time>
      </trkpt>
      <trkpt lat="46.2204" lon="4.85037">
        <ele>211</ele>
        <time>2017-05-04T12:38:41.000Z</time>
      </trkpt>
      <trkpt lat="46.22039" lon="4.85036">
        <ele>211</ele>
        <time>2017-05-04T12:38:42.000Z</time>
      </trkpt>
      <trkpt lat="46.22038" lon="4.85036">
        <ele>211</ele>
        <time>2017-05-04T12:38:43.000Z</time>
      </trkpt>
      <trkpt lat="46.22037" lon="4.85035">
        <ele>211</ele>
        <time>2017-05-04T12:38:44.000Z</time>
      </trkpt>
      <trkpt lat="46.22036" lon="4.85035">
        <ele>211</ele>
        <time>2017-05-04T12:38:45.000Z</time>
      </trkpt>
      <trkpt lat="46.22035" lon="4.85035">
        <ele>211</ele>
        <time>2017-05-04T12:38:46.000Z</time>
      </trkpt>
      <trkpt lat="46.22034" lon="4.85035">
        <ele>212</ele>
        <time>2017-05-04T12:38:47.000Z</time>
      </trkpt>
      <trkpt lat="46.22032" lon="4.85035">
        <ele>212</ele>
        <time>2017-05-04T12:38:48.000Z</time>
      </trkpt>
      <trkpt lat="46.22031" lon="4.85035">
        <ele>212</ele>
        <time>2017-05-04T12:38:49.000Z</time>
      </trkpt>
      <trkpt lat="46.2203" lon="4.85034">
        <ele>212</ele>
        <time>2017-05-04T12:38:50.000Z</time>
      </trkpt>
      <trkpt lat="46.22029" lon="4.85034">
        <ele>212</ele>
        <time>2017-05-04T12:38:51.000Z</time>
      </trkpt>
      <trkpt lat="46.22028" lon="4.85034">
        <ele>212</ele>
        <time>2017-05-04T12:38:52.000Z</time>
      </trkpt>
      <trkpt lat="46.22027" lon="4.85034">
        <ele>212</ele>
        <time>2017-05-04T12:38:53.000Z</time>
      </trkpt>
      <trkpt lat="46.22026" lon="4.85033">
        <ele>212</ele>
        <time>2017-05-04T12:38:54.000Z</time>
      </trkpt>
      <trkpt lat="46.22025" lon="4.85033">
        <ele>212</ele>
        <time>2017-05-04T12:38:55.000Z</time>
      </trkpt>
      <trkpt lat="46.22024" lon="4.85033">
        <ele>212</ele>
        <time>2017-05-04T12:38:56.000Z</time>
      </trkpt>
      <trkpt lat="46.22023" lon="4.85032">
        <ele>212</ele>
        <time>2017-05-04T12:38:57.000Z</time>
      </trkpt>
      <trkpt lat="46.22022" lon="4.85032">
        <ele>212</ele>
        <time>2017-05-04T12:38:58.000Z</time>
      </trkpt>
      <trkpt lat="46.22021" lon="4.85032">
        <ele>212</ele>
        <time>2017-05-04T12:38:59.000Z</time>
      </trkpt>
      <trkpt lat="46.2202" lon="4.85031">
        <ele>212</ele>
        <time>2017-05-04T12:39:00.000Z</time>
      </trkpt>
      <trkpt lat="46.22019" lon="4.85031">
        <ele>212</ele>
        <time>2017-05-04T12:39:01.000Z</time>
      </trkpt>
      <trkpt lat="46.22018" lon="4.85031">
        <ele>212</ele>
        <time>2017-05-04T12:39:02.000Z</time>
      </trkpt>
      <trkpt lat="46.22017" lon="4.85031">
        <ele>212</ele>
        <time>2017-05-04T12:39:03.000Z</time>
      </trkpt>
      <trkpt lat="46.22016" lon="4.8503">
        <ele>212</ele>
        <time>2017-05-04T12:39:04.000Z</time>
      </trkpt>
      <trkpt lat="46.22014" lon="4.8503">
        <ele>212</ele>
        <time>2017-05-04T12:39:05.000Z</time>
      </trkpt>
      <trkpt lat="46.22013" lon="4.8503">
        <ele>212</ele>
        <time>2017-05-04T12:39:06.000Z</time>
      </trkpt>
      <trkpt lat="46.22012" lon="4.8503">
        <ele>212</ele>
        <time>2017-05-04T12:39:07.000Z</time>
      </trkpt>
      <trkpt lat="46.22011" lon="4.85029">
        <ele>212</ele>
        <time>2017-05-04T12:39:08.000Z</time>
      </trkpt>
      <trkpt lat="46.2201" lon="4.85029">
        <ele>212</ele>
        <time>2017-05-04T12:39:09.000Z</time>
      </trkpt>
      <trkpt lat="46.22009" lon="4.85029">
        <ele>212</ele>
        <time>2017-05-04T12:39:10.000Z</time>
      </trkpt>
      <trkpt lat="46.22008" lon="4.85029">
        <ele>212</ele>
        <time>2017-05-04T12:39:11.000Z</time>
      </trkpt>
      <trkpt lat="46.22007" lon="4.85028">
        <ele>212</ele>
        <time>2017-05-04T12:39:12.000Z</time>
      </trkpt>
      <trkpt lat="46.22005" lon="4.85028">
        <ele>212</ele>
        <time>2017-05-04T12:39:13.000Z</time>
      </trkpt>
      <trkpt lat="46.22004" lon="4.85028">
        <ele>212</ele>
        <time>2017-05-04T12:39:14.000Z</time>
      </trkpt>
      <trkpt lat="46.22003" lon="4.85027">
        <ele>212</ele>
        <time>2017-05-04T12:39:15.000Z</time>
      </trkpt>
      <trkpt lat="46.22002" lon="4.85027">
        <ele>212</ele>
        <time>2017-05-04T12:39:16.000Z</time>
      </trkpt>
      <trkpt lat="46.22001" lon="4.85027">
        <ele>212</ele>
        <time>2017-05-04T12:39:17.000Z</time>
      </trkpt>
      <trkpt lat="46.22" lon="4.85027">
        <ele>212</ele>
        <time>2017-05-04T12:39:18.000Z</time>
      </trkpt>
      <trkpt lat="46.21999" lon="4.85026">
        <ele>212</ele>
        <time>2017-05-04T12:39:19.000Z</time>
      </trkpt>
      <trkpt lat="46.21998" lon="4.85026">
        <ele>212</ele>
        <time>2017-05-04T12:39:20.000Z</time>
      </trkpt>
      <trkpt lat="46.21997" lon="4.85026">
        <ele>211</ele>
        <time>2017-05-04T12:39:21.000Z</time>
      </trkpt>
      <trkpt lat="46.21996" lon="4.85026">
        <ele>211</ele>
        <time>2017-05-04T12:39:22.000Z</time>
      </trkpt>
      <trkpt lat="46.21995" lon="4.85025">
        <ele>211</ele>
        <time>2017-05-04T12:39:23.000Z</time>
      </trkpt>
      <trkpt lat="46.21994" lon="4.85025">
        <ele>211</ele>
        <time>2017-05-04T12:39:24.000Z</time>
      </trkpt>
      <trkpt lat="46.21993" lon="4.85025">
        <ele>211</ele>
        <time>2017-05-04T12:39:25.000Z</time>
      </trkpt>
      <trkpt lat="46.21991" lon="4.85025">
        <ele>211</ele>
        <time>2017-05-04T12:39:26.000Z</time>
      </trkpt>
      <trkpt lat="46.2199" lon="4.85024">
        <ele>211</ele>
        <time>2017-05-04T12:39:27.000Z</time>
      </trkpt>
      <trkpt lat="46.21989" lon="4.85024">
        <ele>210</ele>
        <time>2017-05-04T12:39:28.000Z</time>
      </trkpt>
      <trkpt lat="46.21988" lon="4.85024">
        <ele>210</ele>
        <time>2017-05-04T12:39:29.000Z</time>
      </trkpt>
      <trkpt lat="46.21987" lon="4.85024">
        <ele>210</ele>
        <time>2017-05-04T12:39:30.000Z</time>
      </trkpt>
      <trkpt lat="46.21986" lon="4.85024">
        <ele>210</ele>
        <time>2017-05-04T12:39:31.000Z</time>
      </trkpt>
      <trkpt lat="46.21985" lon="4.85023">
        <ele>210</ele>
        <time>2017-05-04T12:39:32.000Z</time>
      </trkpt>
      <trkpt lat="46.21984" lon="4.85023">
        <ele>210</ele>
        <time>2017-05-04T12:39:33.000Z</time>
      </trkpt>
      <trkpt lat="46.21982" lon="4.85022">
        <ele>210</ele>
        <time>2017-05-04T12:39:34.000Z</time>
      </trkpt>
      <trkpt lat="46.21981" lon="4.85022">
        <ele>210</ele>
        <time>2017-05-04T12:39:35.000Z</time>
      </trkpt>
      <trkpt lat="46.2198" lon="4.85022">
        <ele>210</ele>
        <time>2017-05-04T12:39:36.000Z</time>
      </trkpt>
      <trkpt lat="46.21979" lon="4.85022">
        <ele>210</ele>
        <time>2017-05-04T12:39:37.000Z</time>
      </trkpt>
      <trkpt lat="46.21978" lon="4.85022">
        <ele>210</ele>
        <time>2017-05-04T12:39:38.000Z</time>
      </trkpt>
      <trkpt lat="46.21977" lon="4.85022">
        <ele>210</ele>
        <time>2017-05-04T12:39:39.000Z</time>
      </trkpt>
      <trkpt lat="46.21976" lon="4.85021">
        <ele>210</ele>
        <time>2017-05-04T12:39:40.000Z</time>
      </trkpt>
      <trkpt lat="46.21975" lon="4.85021">
        <ele>210</ele>
        <time>2017-05-04T12:39:41.000Z</time>
      </trkpt>
      <trkpt lat="46.21974" lon="4.85021">
        <ele>210</ele>
        <time>2017-05-04T12:39:42.000Z</time>
      </trkpt>
      <trkpt lat="46.21973" lon="4.85021">
        <ele>210</ele>
        <time>2017-05-04T12:39:43.000Z</time>
      </trkpt>
      <trkpt lat="46.21972" lon="4.85021">
        <ele>210</ele>
        <time>2017-05-04T12:39:44.000Z</time>
      </trkpt>
      <trkpt lat="46.2197" lon="4.8502">
        <ele>210</ele>
        <time>2017-05-04T12:39:45.000Z</time>
      </trkpt>
      <trkpt lat="46.21969" lon="4.8502">
        <ele>209</ele>
        <time>2017-05-04T12:39:46.000Z</time>
      </trkpt>
      <trkpt lat="46.21968" lon="4.8502">
        <ele>209</ele>
        <time>2017-05-04T12:39:47.000Z</time>
      </trkpt>
      <trkpt lat="46.21967" lon="4.8502">
        <ele>210</ele>
        <time>2017-05-04T12:39:48.000Z</time>
      </trkpt>
      <trkpt lat="46.21966" lon="4.85019">
        <ele>209</ele>
        <time>2017-05-04T12:39:49.000Z</time>
      </trkpt>
      <trkpt lat="46.21965" lon="4.85019">
        <ele>209</ele>
        <time>2017-05-04T12:39:50.000Z</time>
      </trkpt>
      <trkpt lat="46.21964" lon="4.85019">
        <ele>209</ele>
        <time>2017-05-04T12:39:51.000Z</time>
      </trkpt>
      <trkpt lat="46.21963" lon="4.85019">
        <ele>210</ele>
        <time>2017-05-04T12:39:52.000Z</time>
      </trkpt>
      <trkpt lat="46.21961" lon="4.85019">
        <ele>209</ele>
        <time>2017-05-04T12:39:53.000Z</time>
      </trkpt>
      <trkpt lat="46.2196" lon="4.85018">
        <ele>209</ele>
        <time>2017-05-04T12:39:54.000Z</time>
      </trkpt>
      <trkpt lat="46.21959" lon="4.85018">
        <ele>209</ele>
        <time>2017-05-04T12:39:55.000Z</time>
      </trkpt>
      <trkpt lat="46.21958" lon="4.85018">
        <ele>210</ele>
        <time>2017-05-04T12:39:56.000Z</time>
      </trkpt>
      <trkpt lat="46.21957" lon="4.85018">
        <ele>210</ele>
        <time>2017-05-04T12:39:57.000Z</time>
      </trkpt>
      <trkpt lat="46.21955" lon="4.85018">
        <ele>210</ele>
        <time>2017-05-04T12:39:58.000Z</time>
      </trkpt>
      <trkpt lat="46.21954" lon="4.85018">
        <ele>210</ele>
        <time>2017-05-04T12:39:59.000Z</time>
      </trkpt>
      <trkpt lat="46.21953" lon="4.85017">
        <ele>210</ele>
        <time>2017-05-04T12:40:00.000Z</time>
      </trkpt>
      <trkpt lat="46.21952" lon="4.85017">
        <ele>210</ele>
        <time>2017-05-04T12:40:01.000Z</time>
      </trkpt>
      <trkpt lat="46.21951" lon="4.85017">
        <ele>210</ele>
        <time>2017-05-04T12:40:02.000Z</time>
      </trkpt>
      <trkpt lat="46.2195" lon="4.85017">
        <ele>210</ele>
        <time>2017-05-04T12:40:03.000Z</time>
      </trkpt>
      <trkpt lat="46.21949" lon="4.85017">
        <ele>211</ele>
        <time>2017-05-04T12:40:04.000Z</time>
      </trkpt>
      <trkpt lat="46.21947" lon="4.85017">
        <ele>211</ele>
        <time>2017-05-04T12:40:05.000Z</time>
      </trkpt>
      <trkpt lat="46.21946" lon="4.85017">
        <ele>211</ele>
        <time>2017-05-04T12:40:06.000Z</time>
      </trkpt>
      <trkpt lat="46.21945" lon="4.85017">
        <ele>211</ele>
        <time>2017-05-04T12:40:07.000Z</time>
      </trkpt>
      <trkpt lat="46.21944" lon="4.85017">
        <ele>212</ele>
        <time>2017-05-04T12:40:08.000Z</time>
      </trkpt>
      <trkpt lat="46.21942" lon="4.85017">
        <ele>212</ele>
        <time>2017-05-04T12:40:09.000Z</time>
      </trkpt>
      <trkpt lat="46.21941" lon="4.85017">
        <ele>212</ele>
        <time>2017-05-04T12:40:10.000Z</time>
      </trkpt>
      <trkpt lat="46.2194" lon="4.85016">
        <ele>212</ele>
        <time>2017-05-04T12:40:11.000Z</time>
      </trkpt>
      <trkpt lat="46.21939" lon="4.85016">
        <ele>212</ele>
        <time>2017-05-04T12:40:12.000Z</time>
      </trkpt>
      <trkpt lat="46.21938" lon="4.85016">
        <ele>212</ele>
        <time>2017-05-04T12:40:13.000Z</time>
      </trkpt>
      <trkpt lat="46.21936" lon="4.85016">
        <ele>212</ele>
        <time>2017-05-04T12:40:14.000Z</time>
      </trkpt>
      <trkpt lat="46.21935" lon="4.85016">
        <ele>212</ele>
        <time>2017-05-04T12:40:15.000Z</time>
      </trkpt>
      <trkpt lat="46.21934" lon="4.85016">
        <ele>212</ele>
        <time>2017-05-04T12:40:16.000Z</time>
      </trkpt>
      <trkpt lat="46.21933" lon="4.85016">
        <ele>212</ele>
        <time>2017-05-04T12:40:17.000Z</time>
      </trkpt>
      <trkpt lat="46.21932" lon="4.85016">
        <ele>213</ele>
        <time>2017-05-04T12:40:18.000Z</time>
      </trkpt>
      <trkpt lat="46.21931" lon="4.85016">
        <ele>213</ele>
        <time>2017-05-04T12:40:19.000Z</time>
      </trkpt>
      <trkpt lat="46.2193" lon="4.85016">
        <ele>212</ele>
        <time>2017-05-04T12:40:20.000Z</time>
      </trkpt>
      <trkpt lat="46.21929" lon="4.85016">
        <ele>212</ele>
        <time>2017-05-04T12:40:21.000Z</time>
      </trkpt>
      <trkpt lat="46.21928" lon="4.85016">
        <ele>213</ele>
        <time>2017-05-04T12:40:22.000Z</time>
      </trkpt>
      <trkpt lat="46.21927" lon="4.85016">
        <ele>212</ele>
        <time>2017-05-04T12:40:23.000Z</time>
      </trkpt>
      <trkpt lat="46.21925" lon="4.85015">
        <ele>212</ele>
        <time>2017-05-04T12:40:24.000Z</time>
      </trkpt>
      <trkpt lat="46.21924" lon="4.85015">
        <ele>213</ele>
        <time>2017-05-04T12:40:25.000Z</time>
      </trkpt>
      <trkpt lat="46.21923" lon="4.85015">
        <ele>213</ele>
        <time>2017-05-04T12:40:26.000Z</time>
      </trkpt>
      <trkpt lat="46.21922" lon="4.85015">
        <ele>212</ele>
        <time>2017-05-04T12:40:27.000Z</time>
      </trkpt>
      <trkpt lat="46.21921" lon="4.85015">
        <ele>212</ele>
        <time>2017-05-04T12:40:28.000Z</time>
      </trkpt>
      <trkpt lat="46.2192" lon="4.85015">
        <ele>212</ele>
        <time>2017-05-04T12:40:29.000Z</time>
      </trkpt>
      <trkpt lat="46.21919" lon="4.85015">
        <ele>212</ele>
        <time>2017-05-04T12:40:30.000Z</time>
      </trkpt>
      <trkpt lat="46.21918" lon="4.85015">
        <ele>213</ele>
        <time>2017-05-04T12:40:31.000Z</time>
      </trkpt>
      <trkpt lat="46.21917" lon="4.85015">
        <ele>212</ele>
        <time>2017-05-04T12:40:32.000Z</time>
      </trkpt>
      <trkpt lat="46.21916" lon="4.85015">
        <ele>212</ele>
        <time>2017-05-04T12:40:33.000Z</time>
      </trkpt>
      <trkpt lat="46.21915" lon="4.85014">
        <ele>212</ele>
        <time>2017-05-04T12:40:34.000Z</time>
      </trkpt>
      <trkpt lat="46.21914" lon="4.85014">
        <ele>212</ele>
        <time>2017-05-04T12:40:35.000Z</time>
      </trkpt>
      <trkpt lat="46.21913" lon="4.85014">
        <ele>212</ele>
        <time>2017-05-04T12:40:36.000Z</time>
      </trkpt>
      <trkpt lat="46.21911" lon="4.85014">
        <ele>212</ele>
        <time>2017-05-04T12:40:37.000Z</time>
      </trkpt>
      <trkpt lat="46.2191" lon="4.85014">
        <ele>212</ele>
        <time>2017-05-04T12:40:38.000Z</time>
      </trkpt>
      <trkpt lat="46.21909" lon="4.85014">
        <ele>212</ele>
        <time>2017-05-04T12:40:39.000Z</time>
      </trkpt>
      <trkpt lat="46.21908" lon="4.85014">
        <ele>212</ele>
        <time>2017-05-04T12:40:40.000Z</time>
      </trkpt>
      <trkpt lat="46.21907" lon="4.85014">
        <ele>213</ele>
        <time>2017-05-04T12:40:41.000Z</time>
      </trkpt>
      <trkpt lat="46.21906" lon="4.85014">
        <ele>212</ele>
        <time>2017-05-04T12:40:42.000Z</time>
      </trkpt>
      <trkpt lat="46.21905" lon="4.85014">
        <ele>212</ele>
        <time>2017-05-04T12:40:43.000Z</time>
      </trkpt>
      <trkpt lat="46.21904" lon="4.85014">
        <ele>212</ele>
        <time>2017-05-04T12:40:44.000Z</time>
      </trkpt>
      <trkpt lat="46.21903" lon="4.85013">
        <ele>212</ele>
        <time>2017-05-04T12:40:45.000Z</time>
      </trkpt>
      <trkpt lat="46.21902" lon="4.85013">
        <ele>212</ele>
        <time>2017-05-04T12:40:46.000Z</time>
      </trkpt>
      <trkpt lat="46.21901" lon="4.85013">
        <ele>212</ele>
        <time>2017-05-04T12:40:47.000Z</time>
      </trkpt>
      <trkpt lat="46.219" lon="4.85013">
        <ele>212</ele>
        <time>2017-05-04T12:40:48.000Z</time>
      </trkpt>
      <trkpt lat="46.21899" lon="4.85013">
        <ele>212</ele>
        <time>2017-05-04T12:40:49.000Z</time>
      </trkpt>
      <trkpt lat="46.21897" lon="4.85013">
        <ele>212</ele>
        <time>2017-05-04T12:40:50.000Z</time>
      </trkpt>
      <trkpt lat="46.21896" lon="4.85012">
        <ele>212</ele>
        <time>2017-05-04T12:40:51.000Z</time>
      </trkpt>
      <trkpt lat="46.21895" lon="4.85012">
        <ele>212</ele>
        <time>2017-05-04T12:40:52.000Z</time>
      </trkpt>
      <trkpt lat="46.21894" lon="4.85012">
        <ele>212</ele>
        <time>2017-05-04T12:40:53.000Z</time>
      </trkpt>
      <trkpt lat="46.21893" lon="4.85012">
        <ele>212</ele>
        <time>2017-05-04T12:40:54.000Z</time>
      </trkpt>
      <trkpt lat="46.21892" lon="4.85012">
        <ele>212</ele>
        <time>2017-05-04T12:40:55.000Z</time>
      </trkpt>
      <trkpt lat="46.21891" lon="4.85012">
        <ele>212</ele>
        <time>2017-05-04T12:40:56.000Z</time>
      </trkpt>
      <trkpt lat="46.2189" lon="4.85012">
        <ele>212</ele>
        <time>2017-05-04T12:40:57.000Z</time>
      </trkpt>
      <trkpt lat="46.21889" lon="4.85012">
        <ele>212</ele>
        <time>2017-05-04T12:40:58.000Z</time>
      </trkpt>
      <trkpt lat="46.21887" lon="4.85011">
        <ele>212</ele>
        <time>2017-05-04T12:40:59.000Z</time>
      </trkpt>
      <trkpt lat="46.21886" lon="4.85011">
        <ele>212</ele>
        <time>2017-05-04T12:41:00.000Z</time>
      </trkpt>
      <trkpt lat="46.21885" lon="4.85011">
        <ele>212</ele>
        <time>2017-05-04T12:41:01.000Z</time>
      </trkpt>
      <trkpt lat="46.21884" lon="4.85011">
        <ele>212</ele>
        <time>2017-05-04T12:41:02.000Z</time>
      </trkpt>
      <trkpt lat="46.21883" lon="4.85011">
        <ele>212</ele>
        <time>2017-05-04T12:41:03.000Z</time>
      </trkpt>
      <trkpt lat="46.21882" lon="4.85011">
        <ele>212</ele>
        <time>2017-05-04T12:41:04.000Z</time>
      </trkpt>
      <trkpt lat="46.21881" lon="4.85011">
        <ele>213</ele>
        <time>2017-05-04T12:41:05.000Z</time>
      </trkpt>
      <trkpt lat="46.2188" lon="4.8501">
        <ele>213</ele>
        <time>2017-05-04T12:41:06.000Z</time>
      </trkpt>
      <trkpt lat="46.21878" lon="4.8501">
        <ele>213</ele>
        <time>2017-05-04T12:41:07.000Z</time>
      </trkpt>
      <trkpt lat="46.21877" lon="4.8501">
        <ele>213</ele>
        <time>2017-05-04T12:41:08.000Z</time>
      </trkpt>
      <trkpt lat="46.21876" lon="4.8501">
        <ele>213</ele>
        <time>2017-05-04T12:41:09.000Z</time>
      </trkpt>
      <trkpt lat="46.21875" lon="4.8501">
        <ele>213</ele>
        <time>2017-05-04T12:41:10.000Z</time>
      </trkpt>
      <trkpt lat="46.21874" lon="4.8501">
        <ele>213</ele>
        <time>2017-05-04T12:41:11.000Z</time>
      </trkpt>
      <trkpt lat="46.21873" lon="4.85009">
        <ele>213</ele>
        <time>2017-05-04T12:41:12.000Z</time>
      </trkpt>
      <trkpt lat="46.21872" lon="4.85009">
        <ele>213</ele>
        <time>2017-05-04T12:41:13.000Z</time>
      </trkpt>
      <trkpt lat="46.21871" lon="4.85009">
        <ele>213</ele>
        <time>2017-05-04T12:41:14.000Z</time>
      </trkpt>
      <trkpt lat="46.21869" lon="4.85009">
        <ele>213</ele>
        <time>2017-05-04T12:41:15.000Z</time>
      </trkpt>
      <trkpt lat="46.21868" lon="4.85009">
        <ele>213</ele>
        <time>2017-05-04T12:41:16.000Z</time>
      </trkpt>
      <trkpt lat="46.21867" lon="4.85008">
        <ele>213</ele>
        <time>2017-05-04T12:41:17.000Z</time>
      </trkpt>
      <trkpt lat="46.21866" lon="4.85008">
        <ele>213</ele>
        <time>2017-05-04T12:41:18.000Z</time>
      </trkpt>
      <trkpt lat="46.21864" lon="4.85008">
        <ele>212</ele>
        <time>2017-05-04T12:41:19.000Z</time>
      </trkpt>
      <trkpt lat="46.21863" lon="4.85007">
        <ele>212</ele>
        <time>2017-05-04T12:41:20.000Z</time>
      </trkpt>
      <trkpt lat="46.21862" lon="4.85007">
        <ele>212</ele>
        <time>2017-05-04T12:41:21.000Z</time>
      </trkpt>
      <trkpt lat="46.21861" lon="4.85007">
        <ele>212</ele>
        <time>2017-05-04T12:41:22.000Z</time>
      </trkpt>
      <trkpt lat="46.2186" lon="4.85007">
        <ele>212</ele>
        <time>2017-05-04T12:41:23.000Z</time>
      </trkpt>
      <trkpt lat="46.21859" lon="4.85007">
        <ele>212</ele>
        <time>2017-05-04T12:41:24.000Z</time>
      </trkpt>
      <trkpt lat="46.21857" lon="4.85006">
        <ele>212</ele>
        <time>2017-05-04T12:41:25.000Z</time>
      </trkpt>
      <trkpt lat="46.21856" lon="4.85006">
        <ele>212</ele>
        <time>2017-05-04T12:41:26.000Z</time>
      </trkpt>
      <trkpt lat="46.21855" lon="4.85006">
        <ele>212</ele>
        <time>2017-05-04T12:41:27.000Z</time>
      </trkpt>
      <trkpt lat="46.21854" lon="4.85006">
        <ele>211</ele>
        <time>2017-05-04T12:41:28.000Z</time>
      </trkpt>
      <trkpt lat="46.21853" lon="4.85006">
        <ele>211</ele>
        <time>2017-05-04T12:41:29.000Z</time>
      </trkpt>
      <trkpt lat="46.21852" lon="4.85005">
        <ele>211</ele>
        <time>2017-05-04T12:41:30.000Z</time>
      </trkpt>
      <trkpt lat="46.21851" lon="4.85005">
        <ele>211</ele>
        <time>2017-05-04T12:41:31.000Z</time>
      </trkpt>
      <trkpt lat="46.2185" lon="4.85005">
        <ele>211</ele>
        <time>2017-05-04T12:41:32.000Z</time>
      </trkpt>
      <trkpt lat="46.21849" lon="4.85005">
        <ele>211</ele>
        <time>2017-05-04T12:41:33.000Z</time>
      </trkpt>
      <trkpt lat="46.21848" lon="4.85004">
        <ele>211</ele>
        <time>2017-05-04T12:41:34.000Z</time>
      </trkpt>
      <trkpt lat="46.21846" lon="4.85004">
        <ele>211</ele>
        <time>2017-05-04T12:41:35.000Z</time>
      </trkpt>
      <trkpt lat="46.21845" lon="4.85004">
        <ele>211</ele>
        <time>2017-05-04T12:41:36.000Z</time>
      </trkpt>
      <trkpt lat="46.21844" lon="4.85003">
        <ele>211</ele>
        <time>2017-05-04T12:41:37.000Z</time>
      </trkpt>
      <trkpt lat="46.21842" lon="4.85003">
        <ele>211</ele>
        <time>2017-05-04T12:41:38.000Z</time>
      </trkpt>
      <trkpt lat="46.21841" lon="4.85003">
        <ele>211</ele>
        <time>2017-05-04T12:41:39.000Z</time>
      </trkpt>
      <trkpt lat="46.2184" lon="4.85002">
        <ele>211</ele>
        <time>2017-05-04T12:41:40.000Z</time>
      </trkpt>
      <trkpt lat="46.21839" lon="4.85002">
        <ele>211</ele>
        <time>2017-05-04T12:41:41.000Z</time>
      </trkpt>
      <trkpt lat="46.21838" lon="4.85002">
        <ele>211</ele>
        <time>2017-05-04T12:41:42.000Z</time>
      </trkpt>
      <trkpt lat="46.21837" lon="4.85002">
        <ele>211</ele>
        <time>2017-05-04T12:41:43.000Z</time>
      </trkpt>
      <trkpt lat="46.21836" lon="4.85001">
        <ele>211</ele>
        <time>2017-05-04T12:41:44.000Z</time>
      </trkpt>
      <trkpt lat="46.21835" lon="4.85001">
        <ele>211</ele>
        <time>2017-05-04T12:41:45.000Z</time>
      </trkpt>
      <trkpt lat="46.21833" lon="4.85">
        <ele>211</ele>
        <time>2017-05-04T12:41:46.000Z</time>
      </trkpt>
      <trkpt lat="46.21832" lon="4.85">
        <ele>211</ele>
        <time>2017-05-04T12:41:47.000Z</time>
      </trkpt>
      <trkpt lat="46.21831" lon="4.84999">
        <ele>211</ele>
        <time>2017-05-04T12:41:48.000Z</time>
      </trkpt>
      <trkpt lat="46.2183" lon="4.84999">
        <ele>211</ele>
        <time>2017-05-04T12:41:49.000Z</time>
      </trkpt>
      <trkpt lat="46.21829" lon="4.84998">
        <ele>211</ele>
        <time>2017-05-04T12:41:50.000Z</time>
      </trkpt>
      <trkpt lat="46.21828" lon="4.84998">
        <ele>211</ele>
        <time>2017-05-04T12:41:51.000Z</time>
      </trkpt>
      <trkpt lat="46.21827" lon="4.84998">
        <ele>211</ele>
        <time>2017-05-04T12:41:52.000Z</time>
      </trkpt>
      <trkpt lat="46.21826" lon="4.84997">
        <ele>211</ele>
        <time>2017-05-04T12:41:53.000Z</time>
      </trkpt>
      <trkpt lat="46.21825" lon="4.84997">
        <ele>211</ele>
        <time>2017-05-04T12:41:54.000Z</time>
      </trkpt>
      <trkpt lat="46.21824" lon="4.84996">
        <ele>211</ele>
        <time>2017-05-04T12:41:55.000Z</time>
      </trkpt>
      <trkpt lat="46.21823" lon="4.84996">
        <ele>211</ele>
        <time>2017-05-04T12:41:56.000Z</time>
      </trkpt>
      <trkpt lat="46.21822" lon="4.84995">
        <ele>211</ele>
        <time>2017-05-04T12:41:57.000Z</time>
      </trkpt>
      <trkpt lat="46.2182" lon="4.84994">
        <ele>211</ele>
        <time>2017-05-04T12:41:58.000Z</time>
      </trkpt>
      <trkpt lat="46.21819" lon="4.84994">
        <ele>212</ele>
        <time>2017-05-04T12:41:59.000Z</time>
      </trkpt>
      <trkpt lat="46.21818" lon="4.84993">
        <ele>212</ele>
        <time>2017-05-04T12:42:00.000Z</time>
      </trkpt>
      <trkpt lat="46.21817" lon="4.84993">
        <ele>212</ele>
        <time>2017-05-04T12:42:01.000Z</time>
      </trkpt>
      <trkpt lat="46.21816" lon="4.84992">
        <ele>212</ele>
        <time>2017-05-04T12:42:02.000Z</time>
      </trkpt>
      <trkpt lat="46.21815" lon="4.84991">
        <ele>212</ele>
        <time>2017-05-04T12:42:03.000Z</time>
      </trkpt>
      <trkpt lat="46.21814" lon="4.84991">
        <ele>212</ele>
        <time>2017-05-04T12:42:04.000Z</time>
      </trkpt>
      <trkpt lat="46.21813" lon="4.8499">
        <ele>212</ele>
        <time>2017-05-04T12:42:05.000Z</time>
      </trkpt>
      <trkpt lat="46.21812" lon="4.8499">
        <ele>212</ele>
        <time>2017-05-04T12:42:06.000Z</time>
      </trkpt>
      <trkpt lat="46.21811" lon="4.84989">
        <ele>212</ele>
        <time>2017-05-04T12:42:07.000Z</time>
      </trkpt>
      <trkpt lat="46.2181" lon="4.84989">
        <ele>212</ele>
        <time>2017-05-04T12:42:08.000Z</time>
      </trkpt>
      <trkpt lat="46.21809" lon="4.84988">
        <ele>212</ele>
        <time>2017-05-04T12:42:09.000Z</time>
      </trkpt>
      <trkpt lat="46.21808" lon="4.84988">
        <ele>212</ele>
        <time>2017-05-04T12:42:10.000Z</time>
      </trkpt>
      <trkpt lat="46.21807" lon="4.84987">
        <ele>212</ele>
        <time>2017-05-04T12:42:11.000Z</time>
      </trkpt>
      <trkpt lat="46.21806" lon="4.84986">
        <ele>212</ele>
        <time>2017-05-04T12:42:12.000Z</time>
      </trkpt>
      <trkpt lat="46.21805" lon="4.84986">
        <ele>212</ele>
        <time>2017-05-04T12:42:13.000Z</time>
      </trkpt>
      <trkpt lat="46.21804" lon="4.84985">
        <ele>212</ele>
        <time>2017-05-04T12:42:14.000Z</time>
      </trkpt>
      <trkpt lat="46.21803" lon="4.84985">
        <ele>212</ele>
        <time>2017-05-04T12:42:15.000Z</time>
      </trkpt>
      <trkpt lat="46.21802" lon="4.84984">
        <ele>212</ele>
        <time>2017-05-04T12:42:16.000Z</time>
      </trkpt>
      <trkpt lat="46.21801" lon="4.84984">
        <ele>212</ele>
        <time>2017-05-04T12:42:17.000Z</time>
      </trkpt>
      <trkpt lat="46.218" lon="4.84983">
        <ele>212</ele>
        <time>2017-05-04T12:42:18.000Z</time>
      </trkpt>
      <trkpt lat="46.21798" lon="4.84982">
        <ele>212</ele>
        <time>2017-05-04T12:42:19.000Z</time>
      </trkpt>
      <trkpt lat="46.21797" lon="4.84982">
        <ele>212</ele>
        <time>2017-05-04T12:42:20.000Z</time>
      </trkpt>
      <trkpt lat="46.21796" lon="4.84981">
        <ele>213</ele>
        <time>2017-05-04T12:42:21.000Z</time>
      </trkpt>
      <trkpt lat="46.21795" lon="4.8498">
        <ele>213</ele>
        <time>2017-05-04T12:42:22.000Z</time>
      </trkpt>
      <trkpt lat="46.21793" lon="4.8498">
        <ele>213</ele>
        <time>2017-05-04T12:42:23.000Z</time>
      </trkpt>
      <trkpt lat="46.21792" lon="4.84979">
        <ele>213</ele>
        <time>2017-05-04T12:42:24.000Z</time>
      </trkpt>
      <trkpt lat="46.21791" lon="4.84979">
        <ele>213</ele>
        <time>2017-05-04T12:42:25.000Z</time>
      </trkpt>
      <trkpt lat="46.2179" lon="4.84978">
        <ele>212</ele>
        <time>2017-05-04T12:42:26.000Z</time>
      </trkpt>
      <trkpt lat="46.21789" lon="4.84977">
        <ele>212</ele>
        <time>2017-05-04T12:42:27.000Z</time>
      </trkpt>
      <trkpt lat="46.21788" lon="4.84977">
        <ele>212</ele>
        <time>2017-05-04T12:42:28.000Z</time>
      </trkpt>
      <trkpt lat="46.21787" lon="4.84976">
        <ele>212</ele>
        <time>2017-05-04T12:42:29.000Z</time>
      </trkpt>
      <trkpt lat="46.21785" lon="4.84975">
        <ele>212</ele>
        <time>2017-05-04T12:42:30.000Z</time>
      </trkpt>
      <trkpt lat="46.21784" lon="4.84975">
        <ele>212</ele>
        <time>2017-05-04T12:42:31.000Z</time>
      </trkpt>
      <trkpt lat="46.21783" lon="4.84974">
        <ele>212</ele>
        <time>2017-05-04T12:42:32.000Z</time>
      </trkpt>
      <trkpt lat="46.21782" lon="4.84974">
        <ele>212</ele>
        <time>2017-05-04T12:42:33.000Z</time>
      </trkpt>
      <trkpt lat="46.21781" lon="4.84973">
        <ele>212</ele>
        <time>2017-05-04T12:42:34.000Z</time>
      </trkpt>
      <trkpt lat="46.2178" lon="4.84973">
        <ele>212</ele>
        <time>2017-05-04T12:42:35.000Z</time>
      </trkpt>
      <trkpt lat="46.21779" lon="4.84972">
        <ele>212</ele>
        <time>2017-05-04T12:42:36.000Z</time>
      </trkpt>
      <trkpt lat="46.21778" lon="4.84972">
        <ele>213</ele>
        <time>2017-05-04T12:42:37.000Z</time>
      </trkpt>
      <trkpt lat="46.21777" lon="4.84971">
        <ele>212</ele>
        <time>2017-05-04T12:42:38.000Z</time>
      </trkpt>
      <trkpt lat="46.21776" lon="4.8497">
        <ele>212</ele>
        <time>2017-05-04T12:42:39.000Z</time>
      </trkpt>
      <trkpt lat="46.21775" lon="4.8497">
        <ele>212</ele>
        <time>2017-05-04T12:42:40.000Z</time>
      </trkpt>
      <trkpt lat="46.21774" lon="4.84969">
        <ele>212</ele>
        <time>2017-05-04T12:42:41.000Z</time>
      </trkpt>
      <trkpt lat="46.21772" lon="4.84969">
        <ele>212</ele>
        <time>2017-05-04T12:42:42.000Z</time>
      </trkpt>
      <trkpt lat="46.21771" lon="4.84968">
        <ele>212</ele>
        <time>2017-05-04T12:42:43.000Z</time>
      </trkpt>
      <trkpt lat="46.2177" lon="4.84967">
        <ele>212</ele>
        <time>2017-05-04T12:42:44.000Z</time>
      </trkpt>
      <trkpt lat="46.21769" lon="4.84966">
        <ele>212</ele>
        <time>2017-05-04T12:42:45.000Z</time>
      </trkpt>
      <trkpt lat="46.21768" lon="4.84966">
        <ele>212</ele>
        <time>2017-05-04T12:42:46.000Z</time>
      </trkpt>
      <trkpt lat="46.21767" lon="4.84965">
        <ele>212</ele>
        <time>2017-05-04T12:42:47.000Z</time>
      </trkpt>
      <trkpt lat="46.21766" lon="4.84964">
        <ele>212</ele>
        <time>2017-05-04T12:42:48.000Z</time>
      </trkpt>
      <trkpt lat="46.21765" lon="4.84964">
        <ele>212</ele>
        <time>2017-05-04T12:42:49.000Z</time>
      </trkpt>
      <trkpt lat="46.21763" lon="4.84963">
        <ele>212</ele>
        <time>2017-05-04T12:42:50.000Z</time>
      </trkpt>
      <trkpt lat="46.21762" lon="4.84963">
        <ele>212</ele>
        <time>2017-05-04T12:42:51.000Z</time>
      </trkpt>
      <trkpt lat="46.21761" lon="4.84962">
        <ele>212</ele>
        <time>2017-05-04T12:42:52.000Z</time>
      </trkpt>
      <trkpt lat="46.2176" lon="4.84961">
        <ele>212</ele>
        <time>2017-05-04T12:42:53.000Z</time>
      </trkpt>
      <trkpt lat="46.21759" lon="4.84961">
        <ele>212</ele>
        <time>2017-05-04T12:42:54.000Z</time>
      </trkpt>
      <trkpt lat="46.21758" lon="4.8496">
        <ele>212</ele>
        <time>2017-05-04T12:42:55.000Z</time>
      </trkpt>
      <trkpt lat="46.21757" lon="4.8496">
        <ele>212</ele>
        <time>2017-05-04T12:42:56.000Z</time>
      </trkpt>
      <trkpt lat="46.21756" lon="4.84959">
        <ele>212</ele>
        <time>2017-05-04T12:42:57.000Z</time>
      </trkpt>
      <trkpt lat="46.21755" lon="4.84958">
        <ele>212</ele>
        <time>2017-05-04T12:42:58.000Z</time>
      </trkpt>
      <trkpt lat="46.21754" lon="4.84957">
        <ele>212</ele>
        <time>2017-05-04T12:42:59.000Z</time>
      </trkpt>
      <trkpt lat="46.21753" lon="4.84957">
        <ele>212</ele>
        <time>2017-05-04T12:43:00.000Z</time>
      </trkpt>
      <trkpt lat="46.21752" lon="4.84956">
        <ele>212</ele>
        <time>2017-05-04T12:43:01.000Z</time>
      </trkpt>
      <trkpt lat="46.21751" lon="4.84955">
        <ele>212</ele>
        <time>2017-05-04T12:43:02.000Z</time>
      </trkpt>
      <trkpt lat="46.2175" lon="4.84955">
        <ele>212</ele>
        <time>2017-05-04T12:43:03.000Z</time>
      </trkpt>
      <trkpt lat="46.21749" lon="4.84954">
        <ele>212</ele>
        <time>2017-05-04T12:43:04.000Z</time>
      </trkpt>
      <trkpt lat="46.21747" lon="4.84953">
        <ele>212</ele>
        <time>2017-05-04T12:43:05.000Z</time>
      </trkpt>
      <trkpt lat="46.21746" lon="4.84953">
        <ele>212</ele>
        <time>2017-05-04T12:43:06.000Z</time>
      </trkpt>
      <trkpt lat="46.21745" lon="4.84952">
        <ele>212</ele>
        <time>2017-05-04T12:43:07.000Z</time>
      </trkpt>
      <trkpt lat="46.21744" lon="4.84951">
        <ele>212</ele>
        <time>2017-05-04T12:43:08.000Z</time>
      </trkpt>
      <trkpt lat="46.21743" lon="4.8495">
        <ele>213</ele>
        <time>2017-05-04T12:43:09.000Z</time>
      </trkpt>
      <trkpt lat="46.21742" lon="4.8495">
        <ele>213</ele>
        <time>2017-05-04T12:43:10.000Z</time>
      </trkpt>
      <trkpt lat="46.21741" lon="4.84949">
        <ele>212</ele>
        <time>2017-05-04T12:43:11.000Z</time>
      </trkpt>
      <trkpt lat="46.2174" lon="4.84949">
        <ele>212</ele>
        <time>2017-05-04T12:43:12.000Z</time>
      </trkpt>
      <trkpt lat="46.21739" lon="4.84948">
        <ele>212</ele>
        <time>2017-05-04T12:43:13.000Z</time>
      </trkpt>
      <trkpt lat="46.21738" lon="4.84948">
        <ele>212</ele>
        <time>2017-05-04T12:43:14.000Z</time>
      </trkpt>
      <trkpt lat="46.21737" lon="4.84947">
        <ele>212</ele>
        <time>2017-05-04T12:43:15.000Z</time>
      </trkpt>
      <trkpt lat="46.21736" lon="4.84947">
        <ele>212</ele>
        <time>2017-05-04T12:43:16.000Z</time>
      </trkpt>
      <trkpt lat="46.21735" lon="4.84946">
        <ele>212</ele>
        <time>2017-05-04T12:43:17.000Z</time>
      </trkpt>
      <trkpt lat="46.21734" lon="4.84945">
        <ele>211</ele>
        <time>2017-05-04T12:43:18.000Z</time>
      </trkpt>
      <trkpt lat="46.21733" lon="4.84945">
        <ele>211</ele>
        <time>2017-05-04T12:43:19.000Z</time>
      </trkpt>
      <trkpt lat="46.21732" lon="4.84944">
        <ele>211</ele>
        <time>2017-05-04T12:43:20.000Z</time>
      </trkpt>
      <trkpt lat="46.21731" lon="4.84943">
        <ele>211</ele>
        <time>2017-05-04T12:43:21.000Z</time>
      </trkpt>
      <trkpt lat="46.2173" lon="4.84943">
        <ele>211</ele>
        <time>2017-05-04T12:43:22.000Z</time>
      </trkpt>
      <trkpt lat="46.21729" lon="4.84942">
        <ele>211</ele>
        <time>2017-05-04T12:43:23.000Z</time>
      </trkpt>
      <trkpt lat="46.21728" lon="4.84942">
        <ele>210</ele>
        <time>2017-05-04T12:43:24.000Z</time>
      </trkpt>
      <trkpt lat="46.21727" lon="4.84941">
        <ele>211</ele>
        <time>2017-05-04T12:43:25.000Z</time>
      </trkpt>
      <trkpt lat="46.21726" lon="4.8494">
        <ele>211</ele>
        <time>2017-05-04T12:43:26.000Z</time>
      </trkpt>
      <trkpt lat="46.21725" lon="4.8494">
        <ele>211</ele>
        <time>2017-05-04T12:43:27.000Z</time>
      </trkpt>
      <trkpt lat="46.21724" lon="4.84939">
        <ele>210</ele>
        <time>2017-05-04T12:43:28.000Z</time>
      </trkpt>
      <trkpt lat="46.21723" lon="4.84939">
        <ele>210</ele>
        <time>2017-05-04T12:43:29.000Z</time>
      </trkpt>
      <trkpt lat="46.21722" lon="4.84938">
        <ele>210</ele>
        <time>2017-05-04T12:43:30.000Z</time>
      </trkpt>
      <trkpt lat="46.21721" lon="4.84937">
        <ele>209</ele>
        <time>2017-05-04T12:43:31.000Z</time>
      </trkpt>
      <trkpt lat="46.2172" lon="4.84937">
        <ele>209</ele>
        <time>2017-05-04T12:43:32.000Z</time>
      </trkpt>
      <trkpt lat="46.21719" lon="4.84936">
        <ele>209</ele>
        <time>2017-05-04T12:43:33.000Z</time>
      </trkpt>
      <trkpt lat="46.21718" lon="4.84935">
        <ele>209</ele>
        <time>2017-05-04T12:43:34.000Z</time>
      </trkpt>
      <trkpt lat="46.21717" lon="4.84934">
        <ele>209</ele>
        <time>2017-05-04T12:43:35.000Z</time>
      </trkpt>
      <trkpt lat="46.21716" lon="4.84934">
        <ele>209</ele>
        <time>2017-05-04T12:43:36.000Z</time>
      </trkpt>
      <trkpt lat="46.21715" lon="4.84933">
        <ele>209</ele>
        <time>2017-05-04T12:43:37.000Z</time>
      </trkpt>
      <trkpt lat="46.21714" lon="4.84932">
        <ele>209</ele>
        <time>2017-05-04T12:43:38.000Z</time>
      </trkpt>
      <trkpt lat="46.21713" lon="4.84931">
        <ele>209</ele>
        <time>2017-05-04T12:43:39.000Z</time>
      </trkpt>
      <trkpt lat="46.21712" lon="4.8493">
        <ele>209</ele>
        <time>2017-05-04T12:43:40.000Z</time>
      </trkpt>
      <trkpt lat="46.21711" lon="4.8493">
        <ele>209</ele>
        <time>2017-05-04T12:43:41.000Z</time>
      </trkpt>
      <trkpt lat="46.2171" lon="4.84929">
        <ele>209</ele>
        <time>2017-05-04T12:43:42.000Z</time>
      </trkpt>
      <trkpt lat="46.21709" lon="4.84928">
        <ele>209</ele>
        <time>2017-05-04T12:43:43.000Z</time>
      </trkpt>
      <trkpt lat="46.21708" lon="4.84928">
        <ele>209</ele>
        <time>2017-05-04T12:43:44.000Z</time>
      </trkpt>
      <trkpt lat="46.21706" lon="4.84927">
        <ele>209</ele>
        <time>2017-05-04T12:43:45.000Z</time>
      </trkpt>
      <trkpt lat="46.21705" lon="4.84927">
        <ele>209</ele>
        <time>2017-05-04T12:43:46.000Z</time>
      </trkpt>
      <trkpt lat="46.21704" lon="4.84926">
        <ele>209</ele>
        <time>2017-05-04T12:43:47.000Z</time>
      </trkpt>
      <trkpt lat="46.21703" lon="4.84925">
        <ele>209</ele>
        <time>2017-05-04T12:43:48.000Z</time>
      </trkpt>
      <trkpt lat="46.21702" lon="4.84925">
        <ele>208</ele>
        <time>2017-05-04T12:43:49.000Z</time>
      </trkpt>
      <trkpt lat="46.21701" lon="4.84924">
        <ele>208</ele>
        <time>2017-05-04T12:43:50.000Z</time>
      </trkpt>
      <trkpt lat="46.217" lon="4.84923">
        <ele>208</ele>
        <time>2017-05-04T12:43:51.000Z</time>
      </trkpt>
      <trkpt lat="46.21699" lon="4.84923">
        <ele>208</ele>
        <time>2017-05-04T12:43:52.000Z</time>
      </trkpt>
      <trkpt lat="46.21698" lon="4.84922">
        <ele>208</ele>
        <time>2017-05-04T12:43:53.000Z</time>
      </trkpt>
      <trkpt lat="46.21697" lon="4.84921">
        <ele>208</ele>
        <time>2017-05-04T12:43:54.000Z</time>
      </trkpt>
      <trkpt lat="46.21696" lon="4.84921">
        <ele>208</ele>
        <time>2017-05-04T12:43:55.000Z</time>
      </trkpt>
      <trkpt lat="46.21694" lon="4.8492">
        <ele>208</ele>
        <time>2017-05-04T12:43:56.000Z</time>
      </trkpt>
      <trkpt lat="46.21693" lon="4.8492">
        <ele>208</ele>
        <time>2017-05-04T12:43:57.000Z</time>
      </trkpt>
      <trkpt lat="46.21692" lon="4.84919">
        <ele>209</ele>
        <time>2017-05-04T12:43:58.000Z</time>
      </trkpt>
      <trkpt lat="46.21691" lon="4.84918">
        <ele>208</ele>
        <time>2017-05-04T12:43:59.000Z</time>
      </trkpt>
      <trkpt lat="46.2169" lon="4.84918">
        <ele>209</ele>
        <time>2017-05-04T12:44:00.000Z</time>
      </trkpt>
      <trkpt lat="46.21689" lon="4.84917">
        <ele>209</ele>
        <time>2017-05-04T12:44:01.000Z</time>
      </trkpt>
      <trkpt lat="46.21688" lon="4.84917">
        <ele>209</ele>
        <time>2017-05-04T12:44:02.000Z</time>
      </trkpt>
      <trkpt lat="46.21686" lon="4.84916">
        <ele>209</ele>
        <time>2017-05-04T12:44:03.000Z</time>
      </trkpt>
      <trkpt lat="46.21685" lon="4.84916">
        <ele>209</ele>
        <time>2017-05-04T12:44:04.000Z</time>
      </trkpt>
      <trkpt lat="46.21684" lon="4.84915">
        <ele>209</ele>
        <time>2017-05-04T12:44:05.000Z</time>
      </trkpt>
      <trkpt lat="46.21683" lon="4.84915">
        <ele>209</ele>
        <time>2017-05-04T12:44:06.000Z</time>
      </trkpt>
      <trkpt lat="46.21682" lon="4.84914">
        <ele>209</ele>
        <time>2017-05-04T12:44:07.000Z</time>
      </trkpt>
      <trkpt lat="46.21681" lon="4.84914">
        <ele>209</ele>
        <time>2017-05-04T12:44:08.000Z</time>
      </trkpt>
      <trkpt lat="46.21679" lon="4.84913">
        <ele>209</ele>
        <time>2017-05-04T12:44:09.000Z</time>
      </trkpt>
      <trkpt lat="46.21678" lon="4.84913">
        <ele>209</ele>
        <time>2017-05-04T12:44:10.000Z</time>
      </trkpt>
      <trkpt lat="46.21677" lon="4.84912">
        <ele>209</ele>
        <time>2017-05-04T12:44:11.000Z</time>
      </trkpt>
      <trkpt lat="46.21676" lon="4.84912">
        <ele>210</ele>
        <time>2017-05-04T12:44:12.000Z</time>
      </trkpt>
      <trkpt lat="46.21675" lon="4.84912">
        <ele>210</ele>
        <time>2017-05-04T12:44:13.000Z</time>
      </trkpt>
      <trkpt lat="46.21674" lon="4.84911">
        <ele>210</ele>
        <time>2017-05-04T12:44:14.000Z</time>
      </trkpt>
      <trkpt lat="46.21673" lon="4.84911">
        <ele>210</ele>
        <time>2017-05-04T12:44:15.000Z</time>
      </trkpt>
      <trkpt lat="46.21672" lon="4.84911">
        <ele>210</ele>
        <time>2017-05-04T12:44:16.000Z</time>
      </trkpt>
      <trkpt lat="46.21672" lon="4.8491">
        <ele>210</ele>
        <time>2017-05-04T12:44:17.000Z</time>
      </trkpt>
      <trkpt lat="46.21671" lon="4.8491">
        <ele>210</ele>
        <time>2017-05-04T12:44:18.000Z</time>
      </trkpt>
      <trkpt lat="46.2167" lon="4.84909">
        <ele>210</ele>
        <time>2017-05-04T12:44:19.000Z</time>
      </trkpt>
      <trkpt lat="46.21669" lon="4.84908">
        <ele>210</ele>
        <time>2017-05-04T12:44:20.000Z</time>
      </trkpt>
      <trkpt lat="46.21668" lon="4.84907">
        <ele>211</ele>
        <time>2017-05-04T12:44:21.000Z</time>
      </trkpt>
      <trkpt lat="46.21667" lon="4.84906">
        <ele>211</ele>
        <time>2017-05-04T12:44:22.000Z</time>
      </trkpt>
      <trkpt lat="46.21667" lon="4.84906">
        <ele>211</ele>
        <time>2017-05-04T12:44:23.000Z</time>
      </trkpt>
      <trkpt lat="46.21666" lon="4.84905">
        <ele>211</ele>
        <time>2017-05-04T12:44:24.000Z</time>
      </trkpt>
      <trkpt lat="46.21665" lon="4.84904">
        <ele>211</ele>
        <time>2017-05-04T12:44:25.000Z</time>
      </trkpt>
      <trkpt lat="46.21665" lon="4.84903">
        <ele>211</ele>
        <time>2017-05-04T12:44:26.000Z</time>
      </trkpt>
      <trkpt lat="46.21664" lon="4.84902">
        <ele>211</ele>
        <time>2017-05-04T12:44:27.000Z</time>
      </trkpt>
      <trkpt lat="46.21663" lon="4.84901">
        <ele>211</ele>
        <time>2017-05-04T12:44:28.000Z</time>
      </trkpt>
      <trkpt lat="46.21662" lon="4.849">
        <ele>211</ele>
        <time>2017-05-04T12:44:29.000Z</time>
      </trkpt>
      <trkpt lat="46.21661" lon="4.849">
        <ele>211</ele>
        <time>2017-05-04T12:44:30.000Z</time>
      </trkpt>
      <trkpt lat="46.21661" lon="4.84899">
        <ele>211</ele>
        <time>2017-05-04T12:44:31.000Z</time>
      </trkpt>
      <trkpt lat="46.2166" lon="4.84899">
        <ele>211</ele>
        <time>2017-05-04T12:44:32.000Z</time>
      </trkpt>
      <trkpt lat="46.2166" lon="4.84898">
        <ele>211</ele>
        <time>2017-05-04T12:44:33.000Z</time>
      </trkpt>
      <trkpt lat="46.2166" lon="4.84898">
        <ele>211</ele>
        <time>2017-05-04T12:44:34.000Z</time>
      </trkpt>
      <trkpt lat="46.21659" lon="4.84898">
        <ele>211</ele>
        <time>2017-05-04T12:44:35.000Z</time>
      </trkpt>
      <trkpt lat="46.21659" lon="4.84898">
        <ele>211</ele>
        <time>2017-05-04T12:44:36.000Z</time>
      </trkpt>
      <trkpt lat="46.21659" lon="4.84897">
        <ele>211</ele>
        <time>2017-05-04T12:44:37.000Z</time>
      </trkpt>
      <trkpt lat="46.21658" lon="4.84897">
        <ele>211</ele>
        <time>2017-05-04T12:44:38.000Z</time>
      </trkpt>
      <trkpt lat="46.21657" lon="4.84897">
        <ele>211</ele>
        <time>2017-05-04T12:44:39.000Z</time>
      </trkpt>
      <trkpt lat="46.21657" lon="4.84896">
        <ele>211</ele>
        <time>2017-05-04T12:44:40.000Z</time>
      </trkpt>
      <trkpt lat="46.21656" lon="4.84896">
        <ele>211</ele>
        <time>2017-05-04T12:44:41.000Z</time>
      </trkpt>
      <trkpt lat="46.21655" lon="4.84896">
        <ele>211</ele>
        <time>2017-05-04T12:44:42.000Z</time>
      </trkpt>
      <trkpt lat="46.21655" lon="4.84895">
        <ele>211</ele>
        <time>2017-05-04T12:44:43.000Z</time>
      </trkpt>
      <trkpt lat="46.21654" lon="4.84895">
        <ele>211</ele>
        <time>2017-05-04T12:44:44.000Z</time>
      </trkpt>
      <trkpt lat="46.21654" lon="4.84895">
        <ele>211</ele>
        <time>2017-05-04T12:44:45.000Z</time>
      </trkpt>
      <trkpt lat="46.21655" lon="4.84894">
        <ele>211</ele>
        <time>2017-05-04T12:44:46.000Z</time>
      </trkpt>
      <trkpt lat="46.21655" lon="4.84893">
        <ele>211</ele>
        <time>2017-05-04T12:44:47.000Z</time>
      </trkpt>
      <trkpt lat="46.21655" lon="4.84893">
        <ele>211</ele>
        <time>2017-05-04T12:44:48.000Z</time>
      </trkpt>
      <trkpt lat="46.21656" lon="4.84893">
        <ele>211</ele>
        <time>2017-05-04T12:44:49.000Z</time>
      </trkpt>
      <trkpt lat="46.21656" lon="4.84893">
        <ele>211</ele>
        <time>2017-05-04T12:44:50.000Z</time>
      </trkpt>
      <trkpt lat="46.21656" lon="4.84892">
        <ele>211</ele>
        <time>2017-05-04T12:44:51.000Z</time>
      </trkpt>
      <trkpt lat="46.21656" lon="4.84892">
        <ele>211</ele>
        <time>2017-05-04T12:44:52.000Z</time>
      </trkpt>
      <trkpt lat="46.21656" lon="4.84892">
        <ele>211</ele>
        <time>2017-05-04T12:44:53.000Z</time>
      </trkpt>
      <trkpt lat="46.21656" lon="4.84892">
        <ele>211</ele>
        <time>2017-05-04T12:44:54.000Z</time>
      </trkpt>
      <trkpt lat="46.21656" lon="4.84892">
        <ele>211</ele>
        <time>2017-05-04T12:44:55.000Z</time>
      </trkpt>
      <trkpt lat="46.21656" lon="4.84892">
        <ele>211</ele>
        <time>2017-05-04T12:44:56.000Z</time>
      </trkpt>
      <trkpt lat="46.21656" lon="4.84892">
        <ele>211</ele>
        <time>2017-05-04T12:44:57.000Z</time>
      </trkpt>
      <trkpt lat="46.21656" lon="4.84892">
        <ele>211</ele>
        <time>2017-05-04T12:44:58.000Z</time>
      </trkpt>
      <trkpt lat="46.21656" lon="4.84892">
        <ele>211</ele>
        <time>2017-05-04T12:44:59.000Z</time>
      </trkpt>
      <trkpt lat="46.21656" lon="4.84892">
        <ele>211</ele>
        <time>2017-05-04T12:45:00.000Z</time>
      </trkpt>
      <trkpt lat="46.21656" lon="4.84892">
        <ele>211</ele>
        <time>2017-05-04T12:45:01.000Z</time>
      </trkpt>
      <trkpt lat="46.21656" lon="4.84892">
        <ele>211</ele>
        <time>2017-05-04T12:45:02.000Z</time>
      </trkpt>
      <trkpt lat="46.21656" lon="4.84892">
        <ele>210</ele>
        <time>2017-05-04T12:45:03.000Z</time>
      </trkpt>
      <trkpt lat="46.21656" lon="4.84893">
        <ele>210</ele>
        <time>2017-05-04T12:45:04.000Z</time>
      </trkpt>
      <trkpt lat="46.21656" lon="4.84893">
        <ele>211</ele>
        <time>2017-05-04T12:45:05.000Z</time>
      </trkpt>
      <trkpt lat="46.21656" lon="4.84893">
        <ele>211</ele>
        <time>2017-05-04T12:45:06.000Z</time>
      </trkpt>
      <trkpt lat="46.21656" lon="4.84892">
        <ele>210</ele>
        <time>2017-05-04T12:45:07.000Z</time>
      </trkpt>
      <trkpt lat="46.21656" lon="4.84892">
        <ele>210</ele>
        <time>2017-05-04T12:45:08.000Z</time>
      </trkpt>
      <trkpt lat="46.21656" lon="4.84892">
        <ele>210</ele>
        <time>2017-05-04T12:45:09.000Z</time>
      </trkpt>
      <trkpt lat="46.21656" lon="4.84892">
        <ele>210</ele>
        <time>2017-05-04T12:45:10.000Z</time>
      </trkpt>
      <trkpt lat="46.21656" lon="4.84892">
        <ele>210</ele>
        <time>2017-05-04T12:45:11.000Z</time>
      </trkpt>
      <trkpt lat="46.21656" lon="4.84892">
        <ele>210</ele>
        <time>2017-05-04T12:45:12.000Z</time>
      </trkpt>
      <trkpt lat="46.21656" lon="4.84892">
        <ele>210</ele>
        <time>2017-05-04T12:45:13.000Z</time>
      </trkpt>
      <trkpt lat="46.21656" lon="4.84892">
        <ele>210</ele>
        <time>2017-05-04T12:45:14.000Z</time>
      </trkpt>
      <trkpt lat="46.21656" lon="4.84892">
        <ele>210</ele>
        <time>2017-05-04T12:45:15.000Z</time>
      </trkpt>
      <trkpt lat="46.21656" lon="4.84892">
        <ele>210</ele>
        <time>2017-05-04T12:45:16.000Z</time>
      </trkpt>
      <trkpt lat="46.21656" lon="4.84892">
        <ele>210</ele>
        <time>2017-05-04T12:45:17.000Z</time>
      </trkpt>
      <trkpt lat="46.21656" lon="4.84892">
        <ele>210</ele>
        <time>2017-05-04T12:45:18.000Z</time>
      </trkpt>
      <trkpt lat="46.21656" lon="4.84892">
        <ele>210</ele>
        <time>2017-05-04T12:45:19.000Z</time>
      </trkpt>
      <trkpt lat="46.21656" lon="4.84892">
        <ele>210</ele>
        <time>2017-05-04T12:45:20.000Z</time>
      </trkpt>
      <trkpt lat="46.21656" lon="4.84892">
        <ele>210</ele>
        <time>2017-05-04T12:45:21.000Z</time>
      </trkpt>
      <trkpt lat="46.21656" lon="4.84892">
        <ele>210</ele>
        <time>2017-05-04T12:45:22.000Z</time>
      </trkpt>
      <trkpt lat="46.21656" lon="4.84892">
        <ele>210</ele>
        <time>2017-05-04T12:45:23.000Z</time>
      </trkpt>
      <trkpt lat="46.21656" lon="4.84892">
        <ele>210</ele>
        <time>2017-05-04T12:45:24.000Z</time>
      </trkpt>
      <trkpt lat="46.21656" lon="4.84892">
        <ele>210</ele>
        <time>2017-05-04T12:45:25.000Z</time>
      </trkpt>
      <trkpt lat="46.21656" lon="4.84892">
        <ele>210</ele>
        <time>2017-05-04T12:45:26.000Z</time>
      </trkpt>
      <trkpt lat="46.21655" lon="4.84893">
        <ele>210</ele>
        <time>2017-05-04T12:45:27.000Z</time>
      </trkpt>
      <trkpt lat="46.21655" lon="4.84893">
        <ele>210</ele>
        <time>2017-05-04T12:45:28.000Z</time>
      </trkpt>
      <trkpt lat="46.21654" lon="4.84893">
        <ele>210</ele>
        <time>2017-05-04T12:45:29.000Z</time>
      </trkpt>
      <trkpt lat="46.21652" lon="4.84894">
        <ele>210</ele>
        <time>2017-05-04T12:45:30.000Z</time>
      </trkpt>
      <trkpt lat="46.21651" lon="4.84894">
        <ele>210</ele>
        <time>2017-05-04T12:45:31.000Z</time>
      </trkpt>
      <trkpt lat="46.2165" lon="4.84894">
        <ele>210</ele>
        <time>2017-05-04T12:45:32.000Z</time>
      </trkpt>
      <trkpt lat="46.21649" lon="4.84895">
        <ele>210</ele>
        <time>2017-05-04T12:45:33.000Z</time>
      </trkpt>
      <trkpt lat="46.21648" lon="4.84895">
        <ele>209</ele>
        <time>2017-05-04T12:45:34.000Z</time>
      </trkpt>
      <trkpt lat="46.21647" lon="4.84896">
        <ele>210</ele>
        <time>2017-05-04T12:45:35.000Z</time>
      </trkpt>
      <trkpt lat="46.21646" lon="4.84896">
        <ele>210</ele>
        <time>2017-05-04T12:45:36.000Z</time>
      </trkpt>
      <trkpt lat="46.21645" lon="4.84897">
        <ele>210</ele>
        <time>2017-05-04T12:45:37.000Z</time>
      </trkpt>
      <trkpt lat="46.21644" lon="4.84897">
        <ele>210</ele>
        <time>2017-05-04T12:45:38.000Z</time>
      </trkpt>
      <trkpt lat="46.21642" lon="4.84897">
        <ele>210</ele>
        <time>2017-05-04T12:45:39.000Z</time>
      </trkpt>
      <trkpt lat="46.21641" lon="4.84898">
        <ele>210</ele>
        <time>2017-05-04T12:45:40.000Z</time>
      </trkpt>
      <trkpt lat="46.2164" lon="4.84898">
        <ele>210</ele>
        <time>2017-05-04T12:45:41.000Z</time>
      </trkpt>
      <trkpt lat="46.2164" lon="4.84898">
        <ele>210</ele>
        <time>2017-05-04T12:45:42.000Z</time>
      </trkpt>
      <trkpt lat="46.21639" lon="4.84898">
        <ele>210</ele>
        <time>2017-05-04T12:45:43.000Z</time>
      </trkpt>
      <trkpt lat="46.21638" lon="4.84898">
        <ele>210</ele>
        <time>2017-05-04T12:45:44.000Z</time>
      </trkpt>
      <trkpt lat="46.21637" lon="4.84898">
        <ele>210</ele>
        <time>2017-05-04T12:45:45.000Z</time>
      </trkpt>
      <trkpt lat="46.21636" lon="4.84898">
        <ele>210</ele>
        <time>2017-05-04T12:45:46.000Z</time>
      </trkpt>
      <trkpt lat="46.21634" lon="4.84898">
        <ele>211</ele>
        <time>2017-05-04T12:45:47.000Z</time>
      </trkpt>
      <trkpt lat="46.21633" lon="4.84898">
        <ele>211</ele>
        <time>2017-05-04T12:45:48.000Z</time>
      </trkpt>
      <trkpt lat="46.21632" lon="4.84898">
        <ele>211</ele>
        <time>2017-05-04T12:45:49.000Z</time>
      </trkpt>
      <trkpt lat="46.2163" lon="4.84898">
        <ele>210</ele>
        <time>2017-05-04T12:45:50.000Z</time>
      </trkpt>
      <trkpt lat="46.21629" lon="4.84898">
        <ele>210</ele>
        <time>2017-05-04T12:45:51.000Z</time>
      </trkpt>
      <trkpt lat="46.21628" lon="4.84898">
        <ele>210</ele>
        <time>2017-05-04T12:45:52.000Z</time>
      </trkpt>
      <trkpt lat="46.21626" lon="4.84898">
        <ele>210</ele>
        <time>2017-05-04T12:45:53.000Z</time>
      </trkpt>
      <trkpt lat="46.21625" lon="4.84898">
        <ele>210</ele>
        <time>2017-05-04T12:45:54.000Z</time>
      </trkpt>
      <trkpt lat="46.21624" lon="4.84898">
        <ele>210</ele>
        <time>2017-05-04T12:45:55.000Z</time>
      </trkpt>
      <trkpt lat="46.21623" lon="4.84897">
        <ele>210</ele>
        <time>2017-05-04T12:45:56.000Z</time>
      </trkpt>
      <trkpt lat="46.21622" lon="4.84897">
        <ele>211</ele>
        <time>2017-05-04T12:45:57.000Z</time>
      </trkpt>
      <trkpt lat="46.21621" lon="4.84897">
        <ele>211</ele>
        <time>2017-05-04T12:45:58.000Z</time>
      </trkpt>
      <trkpt lat="46.21619" lon="4.84897">
        <ele>211</ele>
        <time>2017-05-04T12:45:59.000Z</time>
      </trkpt>
      <trkpt lat="46.21618" lon="4.84897">
        <ele>211</ele>
        <time>2017-05-04T12:46:00.000Z</time>
      </trkpt>
      <trkpt lat="46.21617" lon="4.84897">
        <ele>211</ele>
        <time>2017-05-04T12:46:01.000Z</time>
      </trkpt>
      <trkpt lat="46.21615" lon="4.84897">
        <ele>211</ele>
        <time>2017-05-04T12:46:02.000Z</time>
      </trkpt>
      <trkpt lat="46.21614" lon="4.84897">
        <ele>210</ele>
        <time>2017-05-04T12:46:03.000Z</time>
      </trkpt>
      <trkpt lat="46.21613" lon="4.84897">
        <ele>210</ele>
        <time>2017-05-04T12:46:04.000Z</time>
      </trkpt>
      <trkpt lat="46.21612" lon="4.84897">
        <ele>210</ele>
        <time>2017-05-04T12:46:05.000Z</time>
      </trkpt>
      <trkpt lat="46.2161" lon="4.84897">
        <ele>210</ele>
        <time>2017-05-04T12:46:06.000Z</time>
      </trkpt>
      <trkpt lat="46.21609" lon="4.84897">
        <ele>210</ele>
        <time>2017-05-04T12:46:07.000Z</time>
      </trkpt>
      <trkpt lat="46.21608" lon="4.84897">
        <ele>209</ele>
        <time>2017-05-04T12:46:08.000Z</time>
      </trkpt>
      <trkpt lat="46.21607" lon="4.84897">
        <ele>210</ele>
        <time>2017-05-04T12:46:09.000Z</time>
      </trkpt>
      <trkpt lat="46.21606" lon="4.84897">
        <ele>210</ele>
        <time>2017-05-04T12:46:10.000Z</time>
      </trkpt>
      <trkpt lat="46.21604" lon="4.84897">
        <ele>210</ele>
        <time>2017-05-04T12:46:11.000Z</time>
      </trkpt>
      <trkpt lat="46.21603" lon="4.84897">
        <ele>209</ele>
        <time>2017-05-04T12:46:12.000Z</time>
      </trkpt>
      <trkpt lat="46.21602" lon="4.84897">
        <ele>210</ele>
        <time>2017-05-04T12:46:13.000Z</time>
      </trkpt>
      <trkpt lat="46.21601" lon="4.84896">
        <ele>210</ele>
        <time>2017-05-04T12:46:14.000Z</time>
      </trkpt>
      <trkpt lat="46.21599" lon="4.84896">
        <ele>210</ele>
        <time>2017-05-04T12:46:15.000Z</time>
      </trkpt>
      <trkpt lat="46.21598" lon="4.84896">
        <ele>209</ele>
        <time>2017-05-04T12:46:16.000Z</time>
      </trkpt>
      <trkpt lat="46.21597" lon="4.84896">
        <ele>209</ele>
        <time>2017-05-04T12:46:17.000Z</time>
      </trkpt>
      <trkpt lat="46.21596" lon="4.84896">
        <ele>208</ele>
        <time>2017-05-04T12:46:18.000Z</time>
      </trkpt>
      <trkpt lat="46.21595" lon="4.84896">
        <ele>208</ele>
        <time>2017-05-04T12:46:19.000Z</time>
      </trkpt>
      <trkpt lat="46.21593" lon="4.84896">
        <ele>208</ele>
        <time>2017-05-04T12:46:20.000Z</time>
      </trkpt>
      <trkpt lat="46.21592" lon="4.84896">
        <ele>208</ele>
        <time>2017-05-04T12:46:21.000Z</time>
      </trkpt>
      <trkpt lat="46.21591" lon="4.84896">
        <ele>209</ele>
        <time>2017-05-04T12:46:22.000Z</time>
      </trkpt>
      <trkpt lat="46.2159" lon="4.84896">
        <ele>209</ele>
        <time>2017-05-04T12:46:23.000Z</time>
      </trkpt>
      <trkpt lat="46.21588" lon="4.84896">
        <ele>209</ele>
        <time>2017-05-04T12:46:24.000Z</time>
      </trkpt>
      <trkpt lat="46.21587" lon="4.84896">
        <ele>209</ele>
        <time>2017-05-04T12:46:25.000Z</time>
      </trkpt>
      <trkpt lat="46.21586" lon="4.84896">
        <ele>209</ele>
        <time>2017-05-04T12:46:26.000Z</time>
      </trkpt>
      <trkpt lat="46.21585" lon="4.84897">
        <ele>210</ele>
        <time>2017-05-04T12:46:27.000Z</time>
      </trkpt>
      <trkpt lat="46.21583" lon="4.84897">
        <ele>209</ele>
        <time>2017-05-04T12:46:28.000Z</time>
      </trkpt>
      <trkpt lat="46.21582" lon="4.84896">
        <ele>209</ele>
        <time>2017-05-04T12:46:29.000Z</time>
      </trkpt>
      <trkpt lat="46.2158" lon="4.84896">
        <ele>209</ele>
        <time>2017-05-04T12:46:30.000Z</time>
      </trkpt>
      <trkpt lat="46.21579" lon="4.84897">
        <ele>209</ele>
        <time>2017-05-04T12:46:31.000Z</time>
      </trkpt>
      <trkpt lat="46.21577" lon="4.84896">
        <ele>209</ele>
        <time>2017-05-04T12:46:32.000Z</time>
      </trkpt>
      <trkpt lat="46.21576" lon="4.84896">
        <ele>209</ele>
        <time>2017-05-04T12:46:33.000Z</time>
      </trkpt>
      <trkpt lat="46.21575" lon="4.84896">
        <ele>209</ele>
        <time>2017-05-04T12:46:34.000Z</time>
      </trkpt>
      <trkpt lat="46.21573" lon="4.84896">
        <ele>209</ele>
        <time>2017-05-04T12:46:35.000Z</time>
      </trkpt>
      <trkpt lat="46.21572" lon="4.84897">
        <ele>210</ele>
        <time>2017-05-04T12:46:36.000Z</time>
      </trkpt>
      <trkpt lat="46.2157" lon="4.84897">
        <ele>209</ele>
        <time>2017-05-04T12:46:37.000Z</time>
      </trkpt>
      <trkpt lat="46.21569" lon="4.84897">
        <ele>209</ele>
        <time>2017-05-04T12:46:38.000Z</time>
      </trkpt>
      <trkpt lat="46.21568" lon="4.84897">
        <ele>209</ele>
        <time>2017-05-04T12:46:39.000Z</time>
      </trkpt>
      <trkpt lat="46.21567" lon="4.84896">
        <ele>209</ele>
        <time>2017-05-04T12:46:40.000Z</time>
      </trkpt>
      <trkpt lat="46.21565" lon="4.84896">
        <ele>209</ele>
        <time>2017-05-04T12:46:41.000Z</time>
      </trkpt>
      <trkpt lat="46.21564" lon="4.84896">
        <ele>209</ele>
        <time>2017-05-04T12:46:42.000Z</time>
      </trkpt>
      <trkpt lat="46.21563" lon="4.84896">
        <ele>209</ele>
        <time>2017-05-04T12:46:43.000Z</time>
      </trkpt>
      <trkpt lat="46.21562" lon="4.84896">
        <ele>209</ele>
        <time>2017-05-04T12:46:44.000Z</time>
      </trkpt>
      <trkpt lat="46.2156" lon="4.84896">
        <ele>209</ele>
        <time>2017-05-04T12:46:45.000Z</time>
      </trkpt>
      <trkpt lat="46.21559" lon="4.84896">
        <ele>210</ele>
        <time>2017-05-04T12:46:46.000Z</time>
      </trkpt>
      <trkpt lat="46.21558" lon="4.84896">
        <ele>209</ele>
        <time>2017-05-04T12:46:47.000Z</time>
      </trkpt>
      <trkpt lat="46.21556" lon="4.84896">
        <ele>209</ele>
        <time>2017-05-04T12:46:48.000Z</time>
      </trkpt>
      <trkpt lat="46.21555" lon="4.84896">
        <ele>209</ele>
        <time>2017-05-04T12:46:49.000Z</time>
      </trkpt>
      <trkpt lat="46.21554" lon="4.84896">
        <ele>210</ele>
        <time>2017-05-04T12:46:50.000Z</time>
      </trkpt>
      <trkpt lat="46.21552" lon="4.84896">
        <ele>210</ele>
        <time>2017-05-04T12:46:51.000Z</time>
      </trkpt>
      <trkpt lat="46.21551" lon="4.84895">
        <ele>209</ele>
        <time>2017-05-04T12:46:52.000Z</time>
      </trkpt>
      <trkpt lat="46.2155" lon="4.84895">
        <ele>209</ele>
        <time>2017-05-04T12:46:53.000Z</time>
      </trkpt>
      <trkpt lat="46.21548" lon="4.84895">
        <ele>210</ele>
        <time>2017-05-04T12:46:54.000Z</time>
      </trkpt>
      <trkpt lat="46.21547" lon="4.84895">
        <ele>210</ele>
        <time>2017-05-04T12:46:55.000Z</time>
      </trkpt>
      <trkpt lat="46.21546" lon="4.84895">
        <ele>210</ele>
        <time>2017-05-04T12:46:56.000Z</time>
      </trkpt>
      <trkpt lat="46.21545" lon="4.84895">
        <ele>210</ele>
        <time>2017-05-04T12:46:57.000Z</time>
      </trkpt>
      <trkpt lat="46.21544" lon="4.84895">
        <ele>210</ele>
        <time>2017-05-04T12:46:58.000Z</time>
      </trkpt>
      <trkpt lat="46.21542" lon="4.84895">
        <ele>210</ele>
        <time>2017-05-04T12:46:59.000Z</time>
      </trkpt>
      <trkpt lat="46.21541" lon="4.84895">
        <ele>210</ele>
        <time>2017-05-04T12:47:00.000Z</time>
      </trkpt>
      <trkpt lat="46.2154" lon="4.84895">
        <ele>210</ele>
        <time>2017-05-04T12:47:01.000Z</time>
      </trkpt>
      <trkpt lat="46.21538" lon="4.84895">
        <ele>210</ele>
        <time>2017-05-04T12:47:02.000Z</time>
      </trkpt>
      <trkpt lat="46.21537" lon="4.84895">
        <ele>210</ele>
        <time>2017-05-04T12:47:03.000Z</time>
      </trkpt>
      <trkpt lat="46.21536" lon="4.84895">
        <ele>210</ele>
        <time>2017-05-04T12:47:04.000Z</time>
      </trkpt>
      <trkpt lat="46.21534" lon="4.84895">
        <ele>210</ele>
        <time>2017-05-04T12:47:05.000Z</time>
      </trkpt>
      <trkpt lat="46.21533" lon="4.84895">
        <ele>210</ele>
        <time>2017-05-04T12:47:06.000Z</time>
      </trkpt>
      <trkpt lat="46.21532" lon="4.84895">
        <ele>210</ele>
        <time>2017-05-04T12:47:07.000Z</time>
      </trkpt>
      <trkpt lat="46.2153" lon="4.84895">
        <ele>210</ele>
        <time>2017-05-04T12:47:08.000Z</time>
      </trkpt>
      <trkpt lat="46.21529" lon="4.84895">
        <ele>210</ele>
        <time>2017-05-04T12:47:09.000Z</time>
      </trkpt>
      <trkpt lat="46.21528" lon="4.84895">
        <ele>210</ele>
        <time>2017-05-04T12:47:10.000Z</time>
      </trkpt>
      <trkpt lat="46.21526" lon="4.84895">
        <ele>210</ele>
        <time>2017-05-04T12:47:11.000Z</time>
      </trkpt>
      <trkpt lat="46.21525" lon="4.84895">
        <ele>210</ele>
        <time>2017-05-04T12:47:12.000Z</time>
      </trkpt>
      <trkpt lat="46.21524" lon="4.84895">
        <ele>210</ele>
        <time>2017-05-04T12:47:13.000Z</time>
      </trkpt>
      <trkpt lat="46.21524" lon="4.84896">
        <ele>210</ele>
        <time>2017-05-04T12:47:14.000Z</time>
      </trkpt>
      <trkpt lat="46.21523" lon="4.84896">
        <ele>210</ele>
        <time>2017-05-04T12:47:15.000Z</time>
      </trkpt>
      <trkpt lat="46.21522" lon="4.84896">
        <ele>210</ele>
        <time>2017-05-04T12:47:16.000Z</time>
      </trkpt>
      <trkpt lat="46.21521" lon="4.84897">
        <ele>209</ele>
        <time>2017-05-04T12:47:17.000Z</time>
      </trkpt>
      <trkpt lat="46.2152" lon="4.84897">
        <ele>209</ele>
        <time>2017-05-04T12:47:18.000Z</time>
      </trkpt>
      <trkpt lat="46.21519" lon="4.84897">
        <ele>209</ele>
        <time>2017-05-04T12:47:19.000Z</time>
      </trkpt>
      <trkpt lat="46.21517" lon="4.84897">
        <ele>209</ele>
        <time>2017-05-04T12:47:20.000Z</time>
      </trkpt>
      <trkpt lat="46.21516" lon="4.84897">
        <ele>209</ele>
        <time>2017-05-04T12:47:21.000Z</time>
      </trkpt>
      <trkpt lat="46.21515" lon="4.84897">
        <ele>209</ele>
        <time>2017-05-04T12:47:22.000Z</time>
      </trkpt>
      <trkpt lat="46.21514" lon="4.84896">
        <ele>209</ele>
        <time>2017-05-04T12:47:23.000Z</time>
      </trkpt>
      <trkpt lat="46.21512" lon="4.84896">
        <ele>209</ele>
        <time>2017-05-04T12:47:24.000Z</time>
      </trkpt>
      <trkpt lat="46.21511" lon="4.84896">
        <ele>209</ele>
        <time>2017-05-04T12:47:25.000Z</time>
      </trkpt>
      <trkpt lat="46.2151" lon="4.84896">
        <ele>209</ele>
        <time>2017-05-04T12:47:26.000Z</time>
      </trkpt>
      <trkpt lat="46.21509" lon="4.84896">
        <ele>209</ele>
        <time>2017-05-04T12:47:27.000Z</time>
      </trkpt>
      <trkpt lat="46.21507" lon="4.84896">
        <ele>209</ele>
        <time>2017-05-04T12:47:28.000Z</time>
      </trkpt>
      <trkpt lat="46.21506" lon="4.84896">
        <ele>209</ele>
        <time>2017-05-04T12:47:29.000Z</time>
      </trkpt>
      <trkpt lat="46.21505" lon="4.84896">
        <ele>209</ele>
        <time>2017-05-04T12:47:30.000Z</time>
      </trkpt>
      <trkpt lat="46.21504" lon="4.84896">
        <ele>208</ele>
        <time>2017-05-04T12:47:31.000Z</time>
      </trkpt>
      <trkpt lat="46.21503" lon="4.84896">
        <ele>208</ele>
        <time>2017-05-04T12:47:32.000Z</time>
      </trkpt>
      <trkpt lat="46.21502" lon="4.84896">
        <ele>208</ele>
        <time>2017-05-04T12:47:33.000Z</time>
      </trkpt>
      <trkpt lat="46.215" lon="4.84896">
        <ele>207</ele>
        <time>2017-05-04T12:47:34.000Z</time>
      </trkpt>
      <trkpt lat="46.21499" lon="4.84896">
        <ele>207</ele>
        <time>2017-05-04T12:47:35.000Z</time>
      </trkpt>
      <trkpt lat="46.21498" lon="4.84896">
        <ele>207</ele>
        <time>2017-05-04T12:47:36.000Z</time>
      </trkpt>
      <trkpt lat="46.21497" lon="4.84896">
        <ele>206</ele>
        <time>2017-05-04T12:47:37.000Z</time>
      </trkpt>
      <trkpt lat="46.21496" lon="4.84896">
        <ele>206</ele>
        <time>2017-05-04T12:47:38.000Z</time>
      </trkpt>
      <trkpt lat="46.21495" lon="4.84896">
        <ele>206</ele>
        <time>2017-05-04T12:47:39.000Z</time>
      </trkpt>
      <trkpt lat="46.21494" lon="4.84896">
        <ele>206</ele>
        <time>2017-05-04T12:47:40.000Z</time>
      </trkpt>
      <trkpt lat="46.21493" lon="4.84896">
        <ele>205</ele>
        <time>2017-05-04T12:47:41.000Z</time>
      </trkpt>
      <trkpt lat="46.21492" lon="4.84896">
        <ele>205</ele>
        <time>2017-05-04T12:47:42.000Z</time>
      </trkpt>
      <trkpt lat="46.2149" lon="4.84896">
        <ele>205</ele>
        <time>2017-05-04T12:47:43.000Z</time>
      </trkpt>
      <trkpt lat="46.21489" lon="4.84896">
        <ele>204</ele>
        <time>2017-05-04T12:47:44.000Z</time>
      </trkpt>
      <trkpt lat="46.21488" lon="4.84896">
        <ele>204</ele>
        <time>2017-05-04T12:47:45.000Z</time>
      </trkpt>
      <trkpt lat="46.21487" lon="4.84896">
        <ele>204</ele>
        <time>2017-05-04T12:47:46.000Z</time>
      </trkpt>
      <trkpt lat="46.21485" lon="4.84896">
        <ele>205</ele>
        <time>2017-05-04T12:47:47.000Z</time>
      </trkpt>
      <trkpt lat="46.21484" lon="4.84896">
        <ele>206</ele>
        <time>2017-05-04T12:47:48.000Z</time>
      </trkpt>
      <trkpt lat="46.21482" lon="4.84896">
        <ele>206</ele>
        <time>2017-05-04T12:47:49.000Z</time>
      </trkpt>
      <trkpt lat="46.21481" lon="4.84896">
        <ele>206</ele>
        <time>2017-05-04T12:47:50.000Z</time>
      </trkpt>
      <trkpt lat="46.2148" lon="4.84895">
        <ele>206</ele>
        <time>2017-05-04T12:47:51.000Z</time>
      </trkpt>
      <trkpt lat="46.21479" lon="4.84896">
        <ele>206</ele>
        <time>2017-05-04T12:47:52.000Z</time>
      </trkpt>
      <trkpt lat="46.21478" lon="4.84896">
        <ele>207</ele>
        <time>2017-05-04T12:47:53.000Z</time>
      </trkpt>
      <trkpt lat="46.21477" lon="4.84896">
        <ele>206</ele>
        <time>2017-05-04T12:47:54.000Z</time>
      </trkpt>
      <trkpt lat="46.21475" lon="4.84896">
        <ele>206</ele>
        <time>2017-05-04T12:47:55.000Z</time>
      </trkpt>
      <trkpt lat="46.21474" lon="4.84895">
        <ele>206</ele>
        <time>2017-05-04T12:47:56.000Z</time>
      </trkpt>
      <trkpt lat="46.21473" lon="4.84895">
        <ele>206</ele>
        <time>2017-05-04T12:47:57.000Z</time>
      </trkpt>
      <trkpt lat="46.21472" lon="4.84895">
        <ele>205</ele>
        <time>2017-05-04T12:47:58.000Z</time>
      </trkpt>
      <trkpt lat="46.21471" lon="4.84895">
        <ele>205</ele>
        <time>2017-05-04T12:47:59.000Z</time>
      </trkpt>
      <trkpt lat="46.2147" lon="4.84895">
        <ele>205</ele>
        <time>2017-05-04T12:48:00.000Z</time>
      </trkpt>
      <trkpt lat="46.21468" lon="4.84895">
        <ele>206</ele>
        <time>2017-05-04T12:48:01.000Z</time>
      </trkpt>
      <trkpt lat="46.21467" lon="4.84895">
        <ele>206</ele>
        <time>2017-05-04T12:48:02.000Z</time>
      </trkpt>
      <trkpt lat="46.21466" lon="4.84895">
        <ele>206</ele>
        <time>2017-05-04T12:48:03.000Z</time>
      </trkpt>
      <trkpt lat="46.21465" lon="4.84895">
        <ele>206</ele>
        <time>2017-05-04T12:48:04.000Z</time>
      </trkpt>
      <trkpt lat="46.21464" lon="4.84895">
        <ele>206</ele>
        <time>2017-05-04T12:48:05.000Z</time>
      </trkpt>
      <trkpt lat="46.21462" lon="4.84895">
        <ele>206</ele>
        <time>2017-05-04T12:48:06.000Z</time>
      </trkpt>
      <trkpt lat="46.21461" lon="4.84895">
        <ele>206</ele>
        <time>2017-05-04T12:48:07.000Z</time>
      </trkpt>
      <trkpt lat="46.2146" lon="4.84895">
        <ele>205</ele>
        <time>2017-05-04T12:48:08.000Z</time>
      </trkpt>
      <trkpt lat="46.21459" lon="4.84895">
        <ele>206</ele>
        <time>2017-05-04T12:48:09.000Z</time>
      </trkpt>
      <trkpt lat="46.21458" lon="4.84895">
        <ele>206</ele>
        <time>2017-05-04T12:48:10.000Z</time>
      </trkpt>
      <trkpt lat="46.21456" lon="4.84894">
        <ele>206</ele>
        <time>2017-05-04T12:48:11.000Z</time>
      </trkpt>
      <trkpt lat="46.21455" lon="4.84894">
        <ele>207</ele>
        <time>2017-05-04T12:48:12.000Z</time>
      </trkpt>
      <trkpt lat="46.21454" lon="4.84894">
        <ele>206</ele>
        <time>2017-05-04T12:48:13.000Z</time>
      </trkpt>
      <trkpt lat="46.21453" lon="4.84895">
        <ele>207</ele>
        <time>2017-05-04T12:48:14.000Z</time>
      </trkpt>
      <trkpt lat="46.21451" lon="4.84894">
        <ele>206</ele>
        <time>2017-05-04T12:48:15.000Z</time>
      </trkpt>
      <trkpt lat="46.2145" lon="4.84894">
        <ele>206</ele>
        <time>2017-05-04T12:48:16.000Z</time>
      </trkpt>
      <trkpt lat="46.21449" lon="4.84894">
        <ele>205</ele>
        <time>2017-05-04T12:48:17.000Z</time>
      </trkpt>
      <trkpt lat="46.21448" lon="4.84894">
        <ele>205</ele>
        <time>2017-05-04T12:48:18.000Z</time>
      </trkpt>
      <trkpt lat="46.21447" lon="4.84894">
        <ele>205</ele>
        <time>2017-05-04T12:48:19.000Z</time>
      </trkpt>
      <trkpt lat="46.21446" lon="4.84894">
        <ele>205</ele>
        <time>2017-05-04T12:48:20.000Z</time>
      </trkpt>
      <trkpt lat="46.21445" lon="4.84894">
        <ele>205</ele>
        <time>2017-05-04T12:48:21.000Z</time>
      </trkpt>
      <trkpt lat="46.21443" lon="4.84894">
        <ele>205</ele>
        <time>2017-05-04T12:48:22.000Z</time>
      </trkpt>
      <trkpt lat="46.21442" lon="4.84894">
        <ele>205</ele>
        <time>2017-05-04T12:48:23.000Z</time>
      </trkpt>
      <trkpt lat="46.21441" lon="4.84894">
        <ele>205</ele>
        <time>2017-05-04T12:48:24.000Z</time>
      </trkpt>
      <trkpt lat="46.21439" lon="4.84894">
        <ele>205</ele>
        <time>2017-05-04T12:48:25.000Z</time>
      </trkpt>
      <trkpt lat="46.21438" lon="4.84894">
        <ele>205</ele>
        <time>2017-05-04T12:48:26.000Z</time>
      </trkpt>
      <trkpt lat="46.21437" lon="4.84895">
        <ele>204</ele>
        <time>2017-05-04T12:48:27.000Z</time>
      </trkpt>
      <trkpt lat="46.21436" lon="4.84895">
        <ele>205</ele>
        <time>2017-05-04T12:48:28.000Z</time>
      </trkpt>
      <trkpt lat="46.21434" lon="4.84895">
        <ele>205</ele>
        <time>2017-05-04T12:48:29.000Z</time>
      </trkpt>
      <trkpt lat="46.21433" lon="4.84895">
        <ele>205</ele>
        <time>2017-05-04T12:48:30.000Z</time>
      </trkpt>
      <trkpt lat="46.21432" lon="4.84895">
        <ele>204</ele>
        <time>2017-05-04T12:48:31.000Z</time>
      </trkpt>
      <trkpt lat="46.21431" lon="4.84895">
        <ele>204</ele>
        <time>2017-05-04T12:48:32.000Z</time>
      </trkpt>
      <trkpt lat="46.2143" lon="4.84895">
        <ele>204</ele>
        <time>2017-05-04T12:48:33.000Z</time>
      </trkpt>
      <trkpt lat="46.21428" lon="4.84895">
        <ele>204</ele>
        <time>2017-05-04T12:48:34.000Z</time>
      </trkpt>
      <trkpt lat="46.21427" lon="4.84895">
        <ele>205</ele>
        <time>2017-05-04T12:48:35.000Z</time>
      </trkpt>
      <trkpt lat="46.21426" lon="4.84895">
        <ele>205</ele>
        <time>2017-05-04T12:48:36.000Z</time>
      </trkpt>
      <trkpt lat="46.21424" lon="4.84896">
        <ele>205</ele>
        <time>2017-05-04T12:48:37.000Z</time>
      </trkpt>
      <trkpt lat="46.21423" lon="4.84896">
        <ele>205</ele>
        <time>2017-05-04T12:48:38.000Z</time>
      </trkpt>
      <trkpt lat="46.21422" lon="4.84896">
        <ele>205</ele>
        <time>2017-05-04T12:48:39.000Z</time>
      </trkpt>
      <trkpt lat="46.2142" lon="4.84897">
        <ele>205</ele>
        <time>2017-05-04T12:48:40.000Z</time>
      </trkpt>
      <trkpt lat="46.21419" lon="4.84897">
        <ele>206</ele>
        <time>2017-05-04T12:48:41.000Z</time>
      </trkpt>
      <trkpt lat="46.21418" lon="4.84897">
        <ele>206</ele>
        <time>2017-05-04T12:48:42.000Z</time>
      </trkpt>
      <trkpt lat="46.21416" lon="4.84897">
        <ele>206</ele>
        <time>2017-05-04T12:48:43.000Z</time>
      </trkpt>
      <trkpt lat="46.21415" lon="4.84898">
        <ele>207</ele>
        <time>2017-05-04T12:48:44.000Z</time>
      </trkpt>
      <trkpt lat="46.21414" lon="4.84898">
        <ele>207</ele>
        <time>2017-05-04T12:48:45.000Z</time>
      </trkpt>
      <trkpt lat="46.21412" lon="4.84898">
        <ele>207</ele>
        <time>2017-05-04T12:48:46.000Z</time>
      </trkpt>
      <trkpt lat="46.21411" lon="4.84898">
        <ele>207</ele>
        <time>2017-05-04T12:48:47.000Z</time>
      </trkpt>
      <trkpt lat="46.2141" lon="4.84898">
        <ele>207</ele>
        <time>2017-05-04T12:48:48.000Z</time>
      </trkpt>
      <trkpt lat="46.21408" lon="4.84898">
        <ele>207</ele>
        <time>2017-05-04T12:48:49.000Z</time>
      </trkpt>
      <trkpt lat="46.21407" lon="4.84899">
        <ele>208</ele>
        <time>2017-05-04T12:48:50.000Z</time>
      </trkpt>
      <trkpt lat="46.21406" lon="4.84899">
        <ele>208</ele>
        <time>2017-05-04T12:48:51.000Z</time>
      </trkpt>
      <trkpt lat="46.21405" lon="4.849">
        <ele>209</ele>
        <time>2017-05-04T12:48:52.000Z</time>
      </trkpt>
      <trkpt lat="46.21403" lon="4.849">
        <ele>209</ele>
        <time>2017-05-04T12:48:53.000Z</time>
      </trkpt>
      <trkpt lat="46.21402" lon="4.849">
        <ele>209</ele>
        <time>2017-05-04T12:48:54.000Z</time>
      </trkpt>
      <trkpt lat="46.21401" lon="4.84901">
        <ele>209</ele>
        <time>2017-05-04T12:48:55.000Z</time>
      </trkpt>
      <trkpt lat="46.21399" lon="4.84901">
        <ele>209</ele>
        <time>2017-05-04T12:48:56.000Z</time>
      </trkpt>
      <trkpt lat="46.21398" lon="4.84901">
        <ele>209</ele>
        <time>2017-05-04T12:48:57.000Z</time>
      </trkpt>
      <trkpt lat="46.21397" lon="4.84902">
        <ele>209</ele>
        <time>2017-05-04T12:48:58.000Z</time>
      </trkpt>
      <trkpt lat="46.21396" lon="4.84902">
        <ele>209</ele>
        <time>2017-05-04T12:48:59.000Z</time>
      </trkpt>
      <trkpt lat="46.21394" lon="4.84903">
        <ele>209</ele>
        <time>2017-05-04T12:49:00.000Z</time>
      </trkpt>
      <trkpt lat="46.21393" lon="4.84903">
        <ele>209</ele>
        <time>2017-05-04T12:49:01.000Z</time>
      </trkpt>
      <trkpt lat="46.21392" lon="4.84903">
        <ele>209</ele>
        <time>2017-05-04T12:49:02.000Z</time>
      </trkpt>
      <trkpt lat="46.21391" lon="4.84903">
        <ele>209</ele>
        <time>2017-05-04T12:49:03.000Z</time>
      </trkpt>
      <trkpt lat="46.21389" lon="4.84903">
        <ele>209</ele>
        <time>2017-05-04T12:49:04.000Z</time>
      </trkpt>
      <trkpt lat="46.21388" lon="4.84904">
        <ele>209</ele>
        <time>2017-05-04T12:49:05.000Z</time>
      </trkpt>
      <trkpt lat="46.21387" lon="4.84904">
        <ele>209</ele>
        <time>2017-05-04T12:49:06.000Z</time>
      </trkpt>
      <trkpt lat="46.21386" lon="4.84905">
        <ele>209</ele>
        <time>2017-05-04T12:49:07.000Z</time>
      </trkpt>
      <trkpt lat="46.21384" lon="4.84905">
        <ele>210</ele>
        <time>2017-05-04T12:49:08.000Z</time>
      </trkpt>
      <trkpt lat="46.21383" lon="4.84905">
        <ele>210</ele>
        <time>2017-05-04T12:49:09.000Z</time>
      </trkpt>
      <trkpt lat="46.21382" lon="4.84906">
        <ele>210</ele>
        <time>2017-05-04T12:49:10.000Z</time>
      </trkpt>
      <trkpt lat="46.2138" lon="4.84906">
        <ele>211</ele>
        <time>2017-05-04T12:49:11.000Z</time>
      </trkpt>
      <trkpt lat="46.21379" lon="4.84906">
        <ele>211</ele>
        <time>2017-05-04T12:49:12.000Z</time>
      </trkpt>
      <trkpt lat="46.21378" lon="4.84907">
        <ele>211</ele>
        <time>2017-05-04T12:49:13.000Z</time>
      </trkpt>
      <trkpt lat="46.21376" lon="4.84907">
        <ele>211</ele>
        <time>2017-05-04T12:49:14.000Z</time>
      </trkpt>
      <trkpt lat="46.21375" lon="4.84907">
        <ele>211</ele>
        <time>2017-05-04T12:49:15.000Z</time>
      </trkpt>
      <trkpt lat="46.21374" lon="4.84907">
        <ele>211</ele>
        <time>2017-05-04T12:49:16.000Z</time>
      </trkpt>
      <trkpt lat="46.21373" lon="4.84908">
        <ele>211</ele>
        <time>2017-05-04T12:49:17.000Z</time>
      </trkpt>
      <trkpt lat="46.21372" lon="4.84908">
        <ele>211</ele>
        <time>2017-05-04T12:49:18.000Z</time>
      </trkpt>
      <trkpt lat="46.21371" lon="4.84909">
        <ele>211</ele>
        <time>2017-05-04T12:49:19.000Z</time>
      </trkpt>
      <trkpt lat="46.21369" lon="4.84909">
        <ele>211</ele>
        <time>2017-05-04T12:49:20.000Z</time>
      </trkpt>
      <trkpt lat="46.21368" lon="4.84909">
        <ele>211</ele>
        <time>2017-05-04T12:49:21.000Z</time>
      </trkpt>
      <trkpt lat="46.21367" lon="4.8491">
        <ele>211</ele>
        <time>2017-05-04T12:49:22.000Z</time>
      </trkpt>
      <trkpt lat="46.21366" lon="4.8491">
        <ele>211</ele>
        <time>2017-05-04T12:49:23.000Z</time>
      </trkpt>
      <trkpt lat="46.21365" lon="4.84911">
        <ele>211</ele>
        <time>2017-05-04T12:49:24.000Z</time>
      </trkpt>
      <trkpt lat="46.21364" lon="4.84911">
        <ele>211</ele>
        <time>2017-05-04T12:49:25.000Z</time>
      </trkpt>
      <trkpt lat="46.21362" lon="4.84911">
        <ele>210</ele>
        <time>2017-05-04T12:49:26.000Z</time>
      </trkpt>
      <trkpt lat="46.21361" lon="4.84912">
        <ele>210</ele>
        <time>2017-05-04T12:49:27.000Z</time>
      </trkpt>
      <trkpt lat="46.2136" lon="4.84912">
        <ele>211</ele>
        <time>2017-05-04T12:49:28.000Z</time>
      </trkpt>
      <trkpt lat="46.21359" lon="4.84912">
        <ele>211</ele>
        <time>2017-05-04T12:49:29.000Z</time>
      </trkpt>
      <trkpt lat="46.21357" lon="4.84913">
        <ele>211</ele>
        <time>2017-05-04T12:49:30.000Z</time>
      </trkpt>
      <trkpt lat="46.21356" lon="4.84913">
        <ele>211</ele>
        <time>2017-05-04T12:49:31.000Z</time>
      </trkpt>
      <trkpt lat="46.21355" lon="4.84913">
        <ele>211</ele>
        <time>2017-05-04T12:49:32.000Z</time>
      </trkpt>
      <trkpt lat="46.21354" lon="4.84914">
        <ele>211</ele>
        <time>2017-05-04T12:49:33.000Z</time>
      </trkpt>
      <trkpt lat="46.21353" lon="4.84914">
        <ele>211</ele>
        <time>2017-05-04T12:49:34.000Z</time>
      </trkpt>
      <trkpt lat="46.21352" lon="4.84915">
        <ele>211</ele>
        <time>2017-05-04T12:49:35.000Z</time>
      </trkpt>
      <trkpt lat="46.2135" lon="4.84915">
        <ele>211</ele>
        <time>2017-05-04T12:49:36.000Z</time>
      </trkpt>
      <trkpt lat="46.21349" lon="4.84915">
        <ele>211</ele>
        <time>2017-05-04T12:49:37.000Z</time>
      </trkpt>
      <trkpt lat="46.21348" lon="4.84916">
        <ele>212</ele>
        <time>2017-05-04T12:49:38.000Z</time>
      </trkpt>
      <trkpt lat="46.21347" lon="4.84916">
        <ele>211</ele>
        <time>2017-05-04T12:49:39.000Z</time>
      </trkpt>
      <trkpt lat="46.21345" lon="4.84916">
        <ele>211</ele>
        <time>2017-05-04T12:49:40.000Z</time>
      </trkpt>
      <trkpt lat="46.21344" lon="4.84917">
        <ele>211</ele>
        <time>2017-05-04T12:49:41.000Z</time>
      </trkpt>
      <trkpt lat="46.21343" lon="4.84917">
        <ele>211</ele>
        <time>2017-05-04T12:49:42.000Z</time>
      </trkpt>
      <trkpt lat="46.21342" lon="4.84917">
        <ele>211</ele>
        <time>2017-05-04T12:49:43.000Z</time>
      </trkpt>
      <trkpt lat="46.21341" lon="4.84918">
        <ele>211</ele>
        <time>2017-05-04T12:49:44.000Z</time>
      </trkpt>
      <trkpt lat="46.21339" lon="4.84918">
        <ele>211</ele>
        <time>2017-05-04T12:49:45.000Z</time>
      </trkpt>
      <trkpt lat="46.21338" lon="4.84918">
        <ele>211</ele>
        <time>2017-05-04T12:49:46.000Z</time>
      </trkpt>
      <trkpt lat="46.21337" lon="4.84919">
        <ele>212</ele>
        <time>2017-05-04T12:49:47.000Z</time>
      </trkpt>
      <trkpt lat="46.21336" lon="4.84919">
        <ele>211</ele>
        <time>2017-05-04T12:49:48.000Z</time>
      </trkpt>
      <trkpt lat="46.21334" lon="4.8492">
        <ele>211</ele>
        <time>2017-05-04T12:49:49.000Z</time>
      </trkpt>
      <trkpt lat="46.21333" lon="4.8492">
        <ele>211</ele>
        <time>2017-05-04T12:49:50.000Z</time>
      </trkpt>
      <trkpt lat="46.21332" lon="4.8492">
        <ele>211</ele>
        <time>2017-05-04T12:49:51.000Z</time>
      </trkpt>
      <trkpt lat="46.21331" lon="4.8492">
        <ele>211</ele>
        <time>2017-05-04T12:49:52.000Z</time>
      </trkpt>
      <trkpt lat="46.2133" lon="4.84921">
        <ele>211</ele>
        <time>2017-05-04T12:49:53.000Z</time>
      </trkpt>
      <trkpt lat="46.21329" lon="4.84921">
        <ele>211</ele>
        <time>2017-05-04T12:49:54.000Z</time>
      </trkpt>
      <trkpt lat="46.21327" lon="4.84921">
        <ele>211</ele>
        <time>2017-05-04T12:49:55.000Z</time>
      </trkpt>
      <trkpt lat="46.21326" lon="4.84921">
        <ele>211</ele>
        <time>2017-05-04T12:49:56.000Z</time>
      </trkpt>
      <trkpt lat="46.21325" lon="4.84922">
        <ele>211</ele>
        <time>2017-05-04T12:49:57.000Z</time>
      </trkpt>
      <trkpt lat="46.21324" lon="4.84922">
        <ele>211</ele>
        <time>2017-05-04T12:49:58.000Z</time>
      </trkpt>
      <trkpt lat="46.21323" lon="4.84922">
        <ele>211</ele>
        <time>2017-05-04T12:49:59.000Z</time>
      </trkpt>
      <trkpt lat="46.21322" lon="4.84922">
        <ele>211</ele>
        <time>2017-05-04T12:50:00.000Z</time>
      </trkpt>
      <trkpt lat="46.21321" lon="4.84922">
        <ele>211</ele>
        <time>2017-05-04T12:50:01.000Z</time>
      </trkpt>
      <trkpt lat="46.21319" lon="4.84922">
        <ele>211</ele>
        <time>2017-05-04T12:50:02.000Z</time>
      </trkpt>
      <trkpt lat="46.21318" lon="4.84923">
        <ele>211</ele>
        <time>2017-05-04T12:50:03.000Z</time>
      </trkpt>
      <trkpt lat="46.21317" lon="4.84923">
        <ele>211</ele>
        <time>2017-05-04T12:50:04.000Z</time>
      </trkpt>
      <trkpt lat="46.21316" lon="4.84923">
        <ele>211</ele>
        <time>2017-05-04T12:50:05.000Z</time>
      </trkpt>
      <trkpt lat="46.21315" lon="4.84923">
        <ele>211</ele>
        <time>2017-05-04T12:50:06.000Z</time>
      </trkpt>
      <trkpt lat="46.21313" lon="4.84923">
        <ele>210</ele>
        <time>2017-05-04T12:50:07.000Z</time>
      </trkpt>
      <trkpt lat="46.21313" lon="4.84923">
        <ele>210</ele>
        <time>2017-05-04T12:50:08.000Z</time>
      </trkpt>
      <trkpt lat="46.21311" lon="4.84924">
        <ele>211</ele>
        <time>2017-05-04T12:50:09.000Z</time>
      </trkpt>
      <trkpt lat="46.2131" lon="4.84924">
        <ele>211</ele>
        <time>2017-05-04T12:50:10.000Z</time>
      </trkpt>
      <trkpt lat="46.21309" lon="4.84924">
        <ele>210</ele>
        <time>2017-05-04T12:50:11.000Z</time>
      </trkpt>
      <trkpt lat="46.21308" lon="4.84924">
        <ele>210</ele>
        <time>2017-05-04T12:50:12.000Z</time>
      </trkpt>
      <trkpt lat="46.21307" lon="4.84924">
        <ele>210</ele>
        <time>2017-05-04T12:50:13.000Z</time>
      </trkpt>
      <trkpt lat="46.21306" lon="4.84925">
        <ele>210</ele>
        <time>2017-05-04T12:50:14.000Z</time>
      </trkpt>
      <trkpt lat="46.21305" lon="4.84925">
        <ele>210</ele>
        <time>2017-05-04T12:50:15.000Z</time>
      </trkpt>
      <trkpt lat="46.21304" lon="4.84925">
        <ele>210</ele>
        <time>2017-05-04T12:50:16.000Z</time>
      </trkpt>
      <trkpt lat="46.21303" lon="4.84925">
        <ele>210</ele>
        <time>2017-05-04T12:50:17.000Z</time>
      </trkpt>
      <trkpt lat="46.21302" lon="4.84926">
        <ele>209</ele>
        <time>2017-05-04T12:50:18.000Z</time>
      </trkpt>
      <trkpt lat="46.21301" lon="4.84926">
        <ele>209</ele>
        <time>2017-05-04T12:50:19.000Z</time>
      </trkpt>
      <trkpt lat="46.213" lon="4.84926">
        <ele>209</ele>
        <time>2017-05-04T12:50:20.000Z</time>
      </trkpt>
      <trkpt lat="46.21299" lon="4.84927">
        <ele>209</ele>
        <time>2017-05-04T12:50:21.000Z</time>
      </trkpt>
      <trkpt lat="46.21298" lon="4.84927">
        <ele>208</ele>
        <time>2017-05-04T12:50:22.000Z</time>
      </trkpt>
      <trkpt lat="46.21297" lon="4.84927">
        <ele>208</ele>
        <time>2017-05-04T12:50:23.000Z</time>
      </trkpt>
      <trkpt lat="46.21296" lon="4.84927">
        <ele>208</ele>
        <time>2017-05-04T12:50:24.000Z</time>
      </trkpt>
      <trkpt lat="46.21295" lon="4.84928">
        <ele>208</ele>
        <time>2017-05-04T12:50:25.000Z</time>
      </trkpt>
      <trkpt lat="46.21294" lon="4.84928">
        <ele>207</ele>
        <time>2017-05-04T12:50:26.000Z</time>
      </trkpt>
      <trkpt lat="46.21293" lon="4.84928">
        <ele>208</ele>
        <time>2017-05-04T12:50:27.000Z</time>
      </trkpt>
      <trkpt lat="46.21292" lon="4.84928">
        <ele>208</ele>
        <time>2017-05-04T12:50:28.000Z</time>
      </trkpt>
      <trkpt lat="46.21291" lon="4.84928">
        <ele>209</ele>
        <time>2017-05-04T12:50:29.000Z</time>
      </trkpt>
      <trkpt lat="46.2129" lon="4.84928">
        <ele>209</ele>
        <time>2017-05-04T12:50:30.000Z</time>
      </trkpt>
      <trkpt lat="46.21288" lon="4.84928">
        <ele>209</ele>
        <time>2017-05-04T12:50:31.000Z</time>
      </trkpt>
      <trkpt lat="46.21287" lon="4.84928">
        <ele>209</ele>
        <time>2017-05-04T12:50:32.000Z</time>
      </trkpt>
      <trkpt lat="46.21286" lon="4.84928">
        <ele>209</ele>
        <time>2017-05-04T12:50:33.000Z</time>
      </trkpt>
      <trkpt lat="46.21285" lon="4.84928">
        <ele>209</ele>
        <time>2017-05-04T12:50:34.000Z</time>
      </trkpt>
      <trkpt lat="46.21284" lon="4.84929">
        <ele>209</ele>
        <time>2017-05-04T12:50:35.000Z</time>
      </trkpt>
      <trkpt lat="46.21282" lon="4.84929">
        <ele>210</ele>
        <time>2017-05-04T12:50:36.000Z</time>
      </trkpt>
      <trkpt lat="46.21281" lon="4.84929">
        <ele>209</ele>
        <time>2017-05-04T12:50:37.000Z</time>
      </trkpt>
      <trkpt lat="46.2128" lon="4.84929">
        <ele>209</ele>
        <time>2017-05-04T12:50:38.000Z</time>
      </trkpt>
      <trkpt lat="46.21279" lon="4.84929">
        <ele>210</ele>
        <time>2017-05-04T12:50:39.000Z</time>
      </trkpt>
      <trkpt lat="46.21278" lon="4.84929">
        <ele>210</ele>
        <time>2017-05-04T12:50:40.000Z</time>
      </trkpt>
      <trkpt lat="46.21277" lon="4.84929">
        <ele>210</ele>
        <time>2017-05-04T12:50:41.000Z</time>
      </trkpt>
      <trkpt lat="46.21275" lon="4.84929">
        <ele>210</ele>
        <time>2017-05-04T12:50:42.000Z</time>
      </trkpt>
      <trkpt lat="46.21274" lon="4.84928">
        <ele>210</ele>
        <time>2017-05-04T12:50:43.000Z</time>
      </trkpt>
      <trkpt lat="46.21273" lon="4.84928">
        <ele>210</ele>
        <time>2017-05-04T12:50:44.000Z</time>
      </trkpt>
      <trkpt lat="46.21272" lon="4.84928">
        <ele>210</ele>
        <time>2017-05-04T12:50:45.000Z</time>
      </trkpt>
      <trkpt lat="46.21271" lon="4.84928">
        <ele>211</ele>
        <time>2017-05-04T12:50:46.000Z</time>
      </trkpt>
      <trkpt lat="46.2127" lon="4.84928">
        <ele>211</ele>
        <time>2017-05-04T12:50:47.000Z</time>
      </trkpt>
      <trkpt lat="46.21269" lon="4.84927">
        <ele>211</ele>
        <time>2017-05-04T12:50:48.000Z</time>
      </trkpt>
      <trkpt lat="46.21268" lon="4.84927">
        <ele>211</ele>
        <time>2017-05-04T12:50:49.000Z</time>
      </trkpt>
      <trkpt lat="46.21267" lon="4.84927">
        <ele>211</ele>
        <time>2017-05-04T12:50:50.000Z</time>
      </trkpt>
      <trkpt lat="46.21265" lon="4.84927">
        <ele>211</ele>
        <time>2017-05-04T12:50:51.000Z</time>
      </trkpt>
      <trkpt lat="46.21264" lon="4.84927">
        <ele>211</ele>
        <time>2017-05-04T12:50:52.000Z</time>
      </trkpt>
      <trkpt lat="46.21263" lon="4.84927">
        <ele>211</ele>
        <time>2017-05-04T12:50:53.000Z</time>
      </trkpt>
      <trkpt lat="46.21262" lon="4.84927">
        <ele>211</ele>
        <time>2017-05-04T12:50:54.000Z</time>
      </trkpt>
      <trkpt lat="46.21261" lon="4.84927">
        <ele>211</ele>
        <time>2017-05-04T12:50:55.000Z</time>
      </trkpt>
      <trkpt lat="46.21261" lon="4.84927">
        <ele>211</ele>
        <time>2017-05-04T12:50:56.000Z</time>
      </trkpt>
      <trkpt lat="46.2126" lon="4.84927">
        <ele>211</ele>
        <time>2017-05-04T12:50:57.000Z</time>
      </trkpt>
      <trkpt lat="46.21259" lon="4.84927">
        <ele>211</ele>
        <time>2017-05-04T12:50:58.000Z</time>
      </trkpt>
      <trkpt lat="46.21259" lon="4.84927">
        <ele>211</ele>
        <time>2017-05-04T12:50:59.000Z</time>
      </trkpt>
      <trkpt lat="46.21259" lon="4.84927">
        <ele>211</ele>
        <time>2017-05-04T12:51:00.000Z</time>
      </trkpt>
      <trkpt lat="46.21259" lon="4.84927">
        <ele>211</ele>
        <time>2017-05-04T12:51:01.000Z</time>
      </trkpt>
      <trkpt lat="46.21259" lon="4.84927">
        <ele>211</ele>
        <time>2017-05-04T12:51:02.000Z</time>
      </trkpt>
      <trkpt lat="46.21259" lon="4.84928">
        <ele>211</ele>
        <time>2017-05-04T12:51:03.000Z</time>
      </trkpt>
      <trkpt lat="46.21259" lon="4.84928">
        <ele>211</ele>
        <time>2017-05-04T12:51:04.000Z</time>
      </trkpt>
      <trkpt lat="46.21259" lon="4.84928">
        <ele>211</ele>
        <time>2017-05-04T12:51:05.000Z</time>
      </trkpt>
      <trkpt lat="46.21258" lon="4.84928">
        <ele>211</ele>
        <time>2017-05-04T12:51:06.000Z</time>
      </trkpt>
      <trkpt lat="46.21258" lon="4.84928">
        <ele>211</ele>
        <time>2017-05-04T12:51:07.000Z</time>
      </trkpt>
      <trkpt lat="46.21258" lon="4.84928">
        <ele>211</ele>
        <time>2017-05-04T12:51:08.000Z</time>
      </trkpt>
      <trkpt lat="46.21258" lon="4.84928">
        <ele>211</ele>
        <time>2017-05-04T12:51:09.000Z</time>
      </trkpt>
      <trkpt lat="46.21258" lon="4.84928">
        <ele>211</ele>
        <time>2017-05-04T12:51:10.000Z</time>
      </trkpt>
      <trkpt lat="46.21258" lon="4.84928">
        <ele>211</ele>
        <time>2017-05-04T12:51:11.000Z</time>
      </trkpt>
      <trkpt lat="46.21258" lon="4.84928">
        <ele>211</ele>
        <time>2017-05-04T12:51:12.000Z</time>
      </trkpt>
      <trkpt lat="46.21258" lon="4.84928">
        <ele>211</ele>
        <time>2017-05-04T12:51:13.000Z</time>
      </trkpt>
      <trkpt lat="46.21258" lon="4.84928">
        <ele>211</ele>
        <time>2017-05-04T12:51:14.000Z</time>
      </trkpt>
      <trkpt lat="46.21258" lon="4.84928">
        <ele>211</ele>
        <time>2017-05-04T12:51:15.000Z</time>
      </trkpt>
      <trkpt lat="46.21258" lon="4.84928">
        <ele>211</ele>
        <time>2017-05-04T12:51:16.000Z</time>
      </trkpt>
      <trkpt lat="46.21258" lon="4.84928">
        <ele>211</ele>
        <time>2017-05-04T12:51:17.000Z</time>
      </trkpt>
      <trkpt lat="46.21258" lon="4.84928">
        <ele>211</ele>
        <time>2017-05-04T12:51:18.000Z</time>
      </trkpt>
      <trkpt lat="46.21258" lon="4.84928">
        <ele>211</ele>
        <time>2017-05-04T12:51:19.000Z</time>
      </trkpt>
      <trkpt lat="46.21258" lon="4.84928">
        <ele>211</ele>
        <time>2017-05-04T12:51:20.000Z</time>
      </trkpt>
      <trkpt lat="46.21258" lon="4.84928">
        <ele>212</ele>
        <time>2017-05-04T12:51:21.000Z</time>
      </trkpt>
      <trkpt lat="46.21258" lon="4.84928">
        <ele>212</ele>
        <time>2017-05-04T12:51:22.000Z</time>
      </trkpt>
      <trkpt lat="46.21258" lon="4.84928">
        <ele>211</ele>
        <time>2017-05-04T12:51:23.000Z</time>
      </trkpt>
      <trkpt lat="46.21258" lon="4.84928">
        <ele>211</ele>
        <time>2017-05-04T12:51:24.000Z</time>
      </trkpt>
      <trkpt lat="46.21258" lon="4.84928">
        <ele>211</ele>
        <time>2017-05-04T12:51:25.000Z</time>
      </trkpt>
      <trkpt lat="46.21258" lon="4.84928">
        <ele>211</ele>
        <time>2017-05-04T12:51:26.000Z</time>
      </trkpt>
      <trkpt lat="46.21258" lon="4.84928">
        <ele>211</ele>
        <time>2017-05-04T12:51:27.000Z</time>
      </trkpt>
      <trkpt lat="46.21258" lon="4.84928">
        <ele>211</ele>
        <time>2017-05-04T12:51:28.000Z</time>
      </trkpt>
      <trkpt lat="46.21258" lon="4.84928">
        <ele>211</ele>
        <time>2017-05-04T12:51:29.000Z</time>
      </trkpt>
      <trkpt lat="46.21258" lon="4.84928">
        <ele>211</ele>
        <time>2017-05-04T12:51:30.000Z</time>
      </trkpt>
      <trkpt lat="46.21258" lon="4.84928">
        <ele>211</ele>
        <time>2017-05-04T12:51:31.000Z</time>
      </trkpt>
      <trkpt lat="46.21258" lon="4.84928">
        <ele>211</ele>
        <time>2017-05-04T12:51:32.000Z</time>
      </trkpt>
      <trkpt lat="46.21258" lon="4.84928">
        <ele>211</ele>
        <time>2017-05-04T12:51:33.000Z</time>
      </trkpt>
      <trkpt lat="46.21258" lon="4.84928">
        <ele>210</ele>
        <time>2017-05-04T12:51:34.000Z</time>
      </trkpt>
      <trkpt lat="46.21258" lon="4.84928">
        <ele>210</ele>
        <time>2017-05-04T12:51:35.000Z</time>
      </trkpt>
      <trkpt lat="46.21258" lon="4.84928">
        <ele>210</ele>
        <time>2017-05-04T12:51:36.000Z</time>
      </trkpt>
      <trkpt lat="46.21258" lon="4.84928">
        <ele>210</ele>
        <time>2017-05-04T12:51:37.000Z</time>
      </trkpt>
      <trkpt lat="46.21258" lon="4.84928">
        <ele>210</ele>
        <time>2017-05-04T12:51:38.000Z</time>
      </trkpt>
      <trkpt lat="46.21258" lon="4.84928">
        <ele>210</ele>
        <time>2017-05-04T12:51:39.000Z</time>
      </trkpt>
      <trkpt lat="46.21258" lon="4.84928">
        <ele>210</ele>
        <time>2017-05-04T12:51:40.000Z</time>
      </trkpt>
      <trkpt lat="46.21258" lon="4.84927">
        <ele>210</ele>
        <time>2017-05-04T12:51:41.000Z</time>
      </trkpt>
      <trkpt lat="46.21258" lon="4.84927">
        <ele>210</ele>
        <time>2017-05-04T12:51:42.000Z</time>
      </trkpt>
      <trkpt lat="46.21258" lon="4.84927">
        <ele>210</ele>
        <time>2017-05-04T12:51:43.000Z</time>
      </trkpt>
      <trkpt lat="46.21258" lon="4.84927">
        <ele>210</ele>
        <time>2017-05-04T12:51:44.000Z</time>
      </trkpt>
      <trkpt lat="46.21258" lon="4.84927">
        <ele>210</ele>
        <time>2017-05-04T12:51:45.000Z</time>
      </trkpt>
      <trkpt lat="46.21257" lon="4.84927">
        <ele>210</ele>
        <time>2017-05-04T12:51:46.000Z</time>
      </trkpt>
      <trkpt lat="46.21257" lon="4.84927">
        <ele>211</ele>
        <time>2017-05-04T12:51:47.000Z</time>
      </trkpt>
      <trkpt lat="46.21257" lon="4.84927">
        <ele>210</ele>
        <time>2017-05-04T12:51:48.000Z</time>
      </trkpt>
      <trkpt lat="46.21256" lon="4.84928">
        <ele>210</ele>
        <time>2017-05-04T12:51:49.000Z</time>
      </trkpt>
      <trkpt lat="46.21256" lon="4.84928">
        <ele>210</ele>
        <time>2017-05-04T12:51:50.000Z</time>
      </trkpt>
      <trkpt lat="46.21255" lon="4.84928">
        <ele>210</ele>
        <time>2017-05-04T12:51:51.000Z</time>
      </trkpt>
      <trkpt lat="46.21255" lon="4.84928">
        <ele>210</ele>
        <time>2017-05-04T12:51:52.000Z</time>
      </trkpt>
      <trkpt lat="46.21255" lon="4.84928">
        <ele>210</ele>
        <time>2017-05-04T12:51:53.000Z</time>
      </trkpt>
      <trkpt lat="46.21254" lon="4.84927">
        <ele>210</ele>
        <time>2017-05-04T12:51:54.000Z</time>
      </trkpt>
      <trkpt lat="46.21253" lon="4.84927">
        <ele>210</ele>
        <time>2017-05-04T12:51:55.000Z</time>
      </trkpt>
      <trkpt lat="46.21253" lon="4.84927">
        <ele>210</ele>
        <time>2017-05-04T12:51:56.000Z</time>
      </trkpt>
      <trkpt lat="46.21253" lon="4.84927">
        <ele>210</ele>
        <time>2017-05-04T12:51:57.000Z</time>
      </trkpt>
      <trkpt lat="46.21252" lon="4.84928">
        <ele>210</ele>
        <time>2017-05-04T12:51:58.000Z</time>
      </trkpt>
      <trkpt lat="46.21253" lon="4.84928">
        <ele>210</ele>
        <time>2017-05-04T12:51:59.000Z</time>
      </trkpt>
      <trkpt lat="46.21253" lon="4.84928">
        <ele>210</ele>
        <time>2017-05-04T12:52:00.000Z</time>
      </trkpt>
      <trkpt lat="46.21253" lon="4.84928">
        <ele>210</ele>
        <time>2017-05-04T12:52:01.000Z</time>
      </trkpt>
      <trkpt lat="46.21253" lon="4.84928">
        <ele>210</ele>
        <time>2017-05-04T12:52:02.000Z</time>
      </trkpt>
      <trkpt lat="46.21253" lon="4.84928">
        <ele>210</ele>
        <time>2017-05-04T12:52:03.000Z</time>
      </trkpt>
      <trkpt lat="46.21253" lon="4.84928">
        <ele>210</ele>
        <time>2017-05-04T12:52:04.000Z</time>
      </trkpt>
      <trkpt lat="46.21253" lon="4.84928">
        <ele>211</ele>
        <time>2017-05-04T12:52:05.000Z</time>
      </trkpt>
      <trkpt lat="46.21253" lon="4.84928">
        <ele>211</ele>
        <time>2017-05-04T12:52:06.000Z</time>
      </trkpt>
      <trkpt lat="46.21253" lon="4.84928">
        <ele>211</ele>
        <time>2017-05-04T12:52:07.000Z</time>
      </trkpt>
      <trkpt lat="46.21253" lon="4.84928">
        <ele>211</ele>
        <time>2017-05-04T12:52:08.000Z</time>
      </trkpt>
      <trkpt lat="46.21253" lon="4.84928">
        <ele>211</ele>
        <time>2017-05-04T12:52:09.000Z</time>
      </trkpt>
      <trkpt lat="46.21253" lon="4.84928">
        <ele>211</ele>
        <time>2017-05-04T12:52:10.000Z</time>
      </trkpt>
      <trkpt lat="46.21253" lon="4.84928">
        <ele>211</ele>
        <time>2017-05-04T12:52:11.000Z</time>
      </trkpt>
      <trkpt lat="46.21253" lon="4.84928">
        <ele>211</ele>
        <time>2017-05-04T12:52:12.000Z</time>
      </trkpt>
      <trkpt lat="46.21253" lon="4.84928">
        <ele>211</ele>
        <time>2017-05-04T12:52:13.000Z</time>
      </trkpt>
      <trkpt lat="46.21253" lon="4.84928">
        <ele>211</ele>
        <time>2017-05-04T12:52:14.000Z</time>
      </trkpt>
      <trkpt lat="46.21253" lon="4.84928">
        <ele>211</ele>
        <time>2017-05-04T12:52:15.000Z</time>
      </trkpt>
      <trkpt lat="46.21253" lon="4.84927">
        <ele>212</ele>
        <time>2017-05-04T12:52:16.000Z</time>
      </trkpt>
      <trkpt lat="46.21253" lon="4.84927">
        <ele>211</ele>
        <time>2017-05-04T12:52:17.000Z</time>
      </trkpt>
      <trkpt lat="46.21252" lon="4.84927">
        <ele>211</ele>
        <time>2017-05-04T12:52:18.000Z</time>
      </trkpt>
      <trkpt lat="46.21252" lon="4.84927">
        <ele>211</ele>
        <time>2017-05-04T12:52:19.000Z</time>
      </trkpt>
      <trkpt lat="46.21251" lon="4.84927">
        <ele>211</ele>
        <time>2017-05-04T12:52:20.000Z</time>
      </trkpt>
      <trkpt lat="46.21251" lon="4.84928">
        <ele>211</ele>
        <time>2017-05-04T12:52:21.000Z</time>
      </trkpt>
      <trkpt lat="46.21251" lon="4.84928">
        <ele>211</ele>
        <time>2017-05-04T12:52:22.000Z</time>
      </trkpt>
      <trkpt lat="46.21251" lon="4.84928">
        <ele>211</ele>
        <time>2017-05-04T12:52:23.000Z</time>
      </trkpt>
      <trkpt lat="46.21251" lon="4.84928">
        <ele>211</ele>
        <time>2017-05-04T12:52:24.000Z</time>
      </trkpt>
      <trkpt lat="46.21251" lon="4.84928">
        <ele>211</ele>
        <time>2017-05-04T12:52:25.000Z</time>
      </trkpt>
      <trkpt lat="46.21251" lon="4.84928">
        <ele>211</ele>
        <time>2017-05-04T12:52:26.000Z</time>
      </trkpt>
      <trkpt lat="46.21251" lon="4.84928">
        <ele>211</ele>
        <time>2017-05-04T12:52:27.000Z</time>
      </trkpt>
      <trkpt lat="46.21251" lon="4.84928">
        <ele>211</ele>
        <time>2017-05-04T12:52:28.000Z</time>
      </trkpt>
      <trkpt lat="46.21251" lon="4.84928">
        <ele>212</ele>
        <time>2017-05-04T12:52:29.000Z</time>
      </trkpt>
      <trkpt lat="46.21251" lon="4.84928">
        <ele>212</ele>
        <time>2017-05-04T12:52:30.000Z</time>
      </trkpt>
      <trkpt lat="46.21251" lon="4.84928">
        <ele>212</ele>
        <time>2017-05-04T12:52:31.000Z</time>
      </trkpt>
      <trkpt lat="46.21251" lon="4.84928">
        <ele>212</ele>
        <time>2017-05-04T12:52:32.000Z</time>
      </trkpt>
      <trkpt lat="46.21251" lon="4.84928">
        <ele>212</ele>
        <time>2017-05-04T12:52:33.000Z</time>
      </trkpt>
      <trkpt lat="46.21251" lon="4.84928">
        <ele>212</ele>
        <time>2017-05-04T12:52:34.000Z</time>
      </trkpt>
      <trkpt lat="46.21251" lon="4.84928">
        <ele>211</ele>
        <time>2017-05-04T12:52:35.000Z</time>
      </trkpt>
      <trkpt lat="46.21251" lon="4.84928">
        <ele>211</ele>
        <time>2017-05-04T12:52:36.000Z</time>
      </trkpt>
      <trkpt lat="46.21251" lon="4.84929">
        <ele>211</ele>
        <time>2017-05-04T12:52:37.000Z</time>
      </trkpt>
      <trkpt lat="46.2125" lon="4.84929">
        <ele>211</ele>
        <time>2017-05-04T12:52:38.000Z</time>
      </trkpt>
      <trkpt lat="46.2125" lon="4.84929">
        <ele>211</ele>
        <time>2017-05-04T12:52:39.000Z</time>
      </trkpt>
      <trkpt lat="46.21251" lon="4.84929">
        <ele>211</ele>
        <time>2017-05-04T12:52:40.000Z</time>
      </trkpt>
      <trkpt lat="46.21251" lon="4.84928">
        <ele>211</ele>
        <time>2017-05-04T12:52:41.000Z</time>
      </trkpt>
      <trkpt lat="46.21251" lon="4.84928">
        <ele>211</ele>
        <time>2017-05-04T12:52:42.000Z</time>
      </trkpt>
      <trkpt lat="46.21252" lon="4.84927">
        <ele>211</ele>
        <time>2017-05-04T12:52:43.000Z</time>
      </trkpt>
      <trkpt lat="46.21252" lon="4.84927">
        <ele>211</ele>
        <time>2017-05-04T12:52:44.000Z</time>
      </trkpt>
      <trkpt lat="46.21252" lon="4.84927">
        <ele>211</ele>
        <time>2017-05-04T12:52:45.000Z</time>
      </trkpt>
      <trkpt lat="46.21252" lon="4.84928">
        <ele>211</ele>
        <time>2017-05-04T12:52:46.000Z</time>
      </trkpt>
      <trkpt lat="46.21252" lon="4.84927">
        <ele>211</ele>
        <time>2017-05-04T12:52:47.000Z</time>
      </trkpt>
      <trkpt lat="46.21252" lon="4.84927">
        <ele>211</ele>
        <time>2017-05-04T12:52:48.000Z</time>
      </trkpt>
      <trkpt lat="46.21252" lon="4.84927">
        <ele>210</ele>
        <time>2017-05-04T12:52:49.000Z</time>
      </trkpt>
      <trkpt lat="46.21252" lon="4.84927">
        <ele>210</ele>
        <time>2017-05-04T12:52:50.000Z</time>
      </trkpt>
      <trkpt lat="46.21252" lon="4.84927">
        <ele>210</ele>
        <time>2017-05-04T12:52:51.000Z</time>
      </trkpt>
      <trkpt lat="46.21252" lon="4.84927">
        <ele>210</ele>
        <time>2017-05-04T12:52:52.000Z</time>
      </trkpt>
      <trkpt lat="46.21252" lon="4.84927">
        <ele>210</ele>
        <time>2017-05-04T12:52:53.000Z</time>
      </trkpt>
      <trkpt lat="46.21252" lon="4.84927">
        <ele>210</ele>
        <time>2017-05-04T12:52:54.000Z</time>
      </trkpt>
      <trkpt lat="46.21252" lon="4.84927">
        <ele>210</ele>
        <time>2017-05-04T12:52:55.000Z</time>
      </trkpt>
      <trkpt lat="46.21252" lon="4.84927">
        <ele>210</ele>
        <time>2017-05-04T12:52:56.000Z</time>
      </trkpt>
      <trkpt lat="46.21252" lon="4.84927">
        <ele>209</ele>
        <time>2017-05-04T12:52:57.000Z</time>
      </trkpt>
      <trkpt lat="46.21251" lon="4.84926">
        <ele>210</ele>
        <time>2017-05-04T12:52:58.000Z</time>
      </trkpt>
      <trkpt lat="46.21251" lon="4.84926">
        <ele>210</ele>
        <time>2017-05-04T12:52:59.000Z</time>
      </trkpt>
      <trkpt lat="46.2125" lon="4.84926">
        <ele>210</ele>
        <time>2017-05-04T12:53:00.000Z</time>
      </trkpt>
      <trkpt lat="46.2125" lon="4.84925">
        <ele>210</ele>
        <time>2017-05-04T12:53:01.000Z</time>
      </trkpt>
      <trkpt lat="46.21249" lon="4.84925">
        <ele>210</ele>
        <time>2017-05-04T12:53:02.000Z</time>
      </trkpt>
      <trkpt lat="46.21249" lon="4.84924">
        <ele>210</ele>
        <time>2017-05-04T12:53:03.000Z</time>
      </trkpt>
      <trkpt lat="46.21248" lon="4.84924">
        <ele>209</ele>
        <time>2017-05-04T12:53:04.000Z</time>
      </trkpt>
      <trkpt lat="46.21247" lon="4.84924">
        <ele>209</ele>
        <time>2017-05-04T12:53:05.000Z</time>
      </trkpt>
      <trkpt lat="46.21246" lon="4.84923">
        <ele>209</ele>
        <time>2017-05-04T12:53:06.000Z</time>
      </trkpt>
      <trkpt lat="46.21246" lon="4.84923">
        <ele>209</ele>
        <time>2017-05-04T12:53:07.000Z</time>
      </trkpt>
      <trkpt lat="46.21245" lon="4.84923">
        <ele>209</ele>
        <time>2017-05-04T12:53:08.000Z</time>
      </trkpt>
      <trkpt lat="46.21244" lon="4.84922">
        <ele>210</ele>
        <time>2017-05-04T12:53:09.000Z</time>
      </trkpt>
      <trkpt lat="46.21243" lon="4.84922">
        <ele>209</ele>
        <time>2017-05-04T12:53:10.000Z</time>
      </trkpt>
      <trkpt lat="46.21242" lon="4.84922">
        <ele>209</ele>
        <time>2017-05-04T12:53:11.000Z</time>
      </trkpt>
      <trkpt lat="46.21241" lon="4.84921">
        <ele>209</ele>
        <time>2017-05-04T12:53:12.000Z</time>
      </trkpt>
      <trkpt lat="46.2124" lon="4.84921">
        <ele>209</ele>
        <time>2017-05-04T12:53:13.000Z</time>
      </trkpt>
      <trkpt lat="46.21239" lon="4.8492">
        <ele>209</ele>
        <time>2017-05-04T12:53:14.000Z</time>
      </trkpt>
      <trkpt lat="46.21238" lon="4.8492">
        <ele>210</ele>
        <time>2017-05-04T12:53:15.000Z</time>
      </trkpt>
      <trkpt lat="46.21237" lon="4.8492">
        <ele>209</ele>
        <time>2017-05-04T12:53:16.000Z</time>
      </trkpt>
      <trkpt lat="46.21236" lon="4.84919">
        <ele>210</ele>
        <time>2017-05-04T12:53:17.000Z</time>
      </trkpt>
      <trkpt lat="46.21235" lon="4.84919">
        <ele>210</ele>
        <time>2017-05-04T12:53:18.000Z</time>
      </trkpt>
      <trkpt lat="46.21234" lon="4.84919">
        <ele>210</ele>
        <time>2017-05-04T12:53:19.000Z</time>
      </trkpt>
      <trkpt lat="46.21233" lon="4.84919">
        <ele>210</ele>
        <time>2017-05-04T12:53:20.000Z</time>
      </trkpt>
      <trkpt lat="46.21231" lon="4.84918">
        <ele>210</ele>
        <time>2017-05-04T12:53:21.000Z</time>
      </trkpt>
      <trkpt lat="46.2123" lon="4.84918">
        <ele>210</ele>
        <time>2017-05-04T12:53:22.000Z</time>
      </trkpt>
      <trkpt lat="46.21229" lon="4.84918">
        <ele>210</ele>
        <time>2017-05-04T12:53:23.000Z</time>
      </trkpt>
      <trkpt lat="46.21228" lon="4.84918">
        <ele>210</ele>
        <time>2017-05-04T12:53:24.000Z</time>
      </trkpt>
      <trkpt lat="46.21227" lon="4.84918">
        <ele>210</ele>
        <time>2017-05-04T12:53:25.000Z</time>
      </trkpt>
      <trkpt lat="46.21226" lon="4.84917">
        <ele>210</ele>
        <time>2017-05-04T12:53:26.000Z</time>
      </trkpt>
      <trkpt lat="46.21225" lon="4.84917">
        <ele>210</ele>
        <time>2017-05-04T12:53:27.000Z</time>
      </trkpt>
      <trkpt lat="46.21224" lon="4.84917">
        <ele>209</ele>
        <time>2017-05-04T12:53:28.000Z</time>
      </trkpt>
      <trkpt lat="46.21222" lon="4.84916">
        <ele>210</ele>
        <time>2017-05-04T12:53:29.000Z</time>
      </trkpt>
      <trkpt lat="46.21221" lon="4.84916">
        <ele>210</ele>
        <time>2017-05-04T12:53:30.000Z</time>
      </trkpt>
      <trkpt lat="46.2122" lon="4.84915">
        <ele>210</ele>
        <time>2017-05-04T12:53:31.000Z</time>
      </trkpt>
      <trkpt lat="46.21219" lon="4.84915">
        <ele>210</ele>
        <time>2017-05-04T12:53:32.000Z</time>
      </trkpt>
      <trkpt lat="46.21218" lon="4.84915">
        <ele>209</ele>
        <time>2017-05-04T12:53:33.000Z</time>
      </trkpt>
      <trkpt lat="46.21217" lon="4.84914">
        <ele>210</ele>
        <time>2017-05-04T12:53:34.000Z</time>
      </trkpt>
      <trkpt lat="46.21216" lon="4.84914">
        <ele>209</ele>
        <time>2017-05-04T12:53:35.000Z</time>
      </trkpt>
      <trkpt lat="46.21215" lon="4.84914">
        <ele>210</ele>
        <time>2017-05-04T12:53:36.000Z</time>
      </trkpt>
      <trkpt lat="46.21214" lon="4.84913">
        <ele>210</ele>
        <time>2017-05-04T12:53:37.000Z</time>
      </trkpt>
      <trkpt lat="46.21213" lon="4.84913">
        <ele>210</ele>
        <time>2017-05-04T12:53:38.000Z</time>
      </trkpt>
      <trkpt lat="46.21212" lon="4.84913">
        <ele>209</ele>
        <time>2017-05-04T12:53:39.000Z</time>
      </trkpt>
      <trkpt lat="46.21211" lon="4.84912">
        <ele>210</ele>
        <time>2017-05-04T12:53:40.000Z</time>
      </trkpt>
      <trkpt lat="46.2121" lon="4.84912">
        <ele>210</ele>
        <time>2017-05-04T12:53:41.000Z</time>
      </trkpt>
      <trkpt lat="46.21209" lon="4.84911">
        <ele>210</ele>
        <time>2017-05-04T12:53:42.000Z</time>
      </trkpt>
      <trkpt lat="46.21208" lon="4.84911">
        <ele>210</ele>
        <time>2017-05-04T12:53:43.000Z</time>
      </trkpt>
      <trkpt lat="46.21207" lon="4.84911">
        <ele>210</ele>
        <time>2017-05-04T12:53:44.000Z</time>
      </trkpt>
      <trkpt lat="46.21206" lon="4.8491">
        <ele>210</ele>
        <time>2017-05-04T12:53:45.000Z</time>
      </trkpt>
      <trkpt lat="46.21204" lon="4.8491">
        <ele>210</ele>
        <time>2017-05-04T12:53:46.000Z</time>
      </trkpt>
      <trkpt lat="46.21203" lon="4.8491">
        <ele>210</ele>
        <time>2017-05-04T12:53:47.000Z</time>
      </trkpt>
      <trkpt lat="46.21202" lon="4.84909">
        <ele>210</ele>
        <time>2017-05-04T12:53:48.000Z</time>
      </trkpt>
      <trkpt lat="46.21201" lon="4.84909">
        <ele>210</ele>
        <time>2017-05-04T12:53:49.000Z</time>
      </trkpt>
      <trkpt lat="46.212" lon="4.84909">
        <ele>210</ele>
        <time>2017-05-04T12:53:50.000Z</time>
      </trkpt>
      <trkpt lat="46.21199" lon="4.84908">
        <ele>210</ele>
        <time>2017-05-04T12:53:51.000Z</time>
      </trkpt>
      <trkpt lat="46.21198" lon="4.84908">
        <ele>210</ele>
        <time>2017-05-04T12:53:52.000Z</time>
      </trkpt>
      <trkpt lat="46.21197" lon="4.84908">
        <ele>210</ele>
        <time>2017-05-04T12:53:53.000Z</time>
      </trkpt>
      <trkpt lat="46.21196" lon="4.84907">
        <ele>209</ele>
        <time>2017-05-04T12:53:54.000Z</time>
      </trkpt>
      <trkpt lat="46.21195" lon="4.84907">
        <ele>209</ele>
        <time>2017-05-04T12:53:55.000Z</time>
      </trkpt>
      <trkpt lat="46.21194" lon="4.84907">
        <ele>209</ele>
        <time>2017-05-04T12:53:56.000Z</time>
      </trkpt>
      <trkpt lat="46.21193" lon="4.84907">
        <ele>209</ele>
        <time>2017-05-04T12:53:57.000Z</time>
      </trkpt>
      <trkpt lat="46.21191" lon="4.84906">
        <ele>209</ele>
        <time>2017-05-04T12:53:58.000Z</time>
      </trkpt>
      <trkpt lat="46.2119" lon="4.84906">
        <ele>210</ele>
        <time>2017-05-04T12:53:59.000Z</time>
      </trkpt>
      <trkpt lat="46.21189" lon="4.84905">
        <ele>210</ele>
        <time>2017-05-04T12:54:00.000Z</time>
      </trkpt>
      <trkpt lat="46.21188" lon="4.84905">
        <ele>210</ele>
        <time>2017-05-04T12:54:01.000Z</time>
      </trkpt>
      <trkpt lat="46.21187" lon="4.84904">
        <ele>210</ele>
        <time>2017-05-04T12:54:02.000Z</time>
      </trkpt>
      <trkpt lat="46.21186" lon="4.84904">
        <ele>209</ele>
        <time>2017-05-04T12:54:03.000Z</time>
      </trkpt>
      <trkpt lat="46.21185" lon="4.84904">
        <ele>210</ele>
        <time>2017-05-04T12:54:04.000Z</time>
      </trkpt>
      <trkpt lat="46.21183" lon="4.84903">
        <ele>209</ele>
        <time>2017-05-04T12:54:05.000Z</time>
      </trkpt>
      <trkpt lat="46.21182" lon="4.84903">
        <ele>209</ele>
        <time>2017-05-04T12:54:06.000Z</time>
      </trkpt>
      <trkpt lat="46.21181" lon="4.84903">
        <ele>209</ele>
        <time>2017-05-04T12:54:07.000Z</time>
      </trkpt>
      <trkpt lat="46.2118" lon="4.84902">
        <ele>209</ele>
        <time>2017-05-04T12:54:08.000Z</time>
      </trkpt>
      <trkpt lat="46.21179" lon="4.84902">
        <ele>209</ele>
        <time>2017-05-04T12:54:09.000Z</time>
      </trkpt>
      <trkpt lat="46.21178" lon="4.84901">
        <ele>209</ele>
        <time>2017-05-04T12:54:10.000Z</time>
      </trkpt>
      <trkpt lat="46.21177" lon="4.84901">
        <ele>209</ele>
        <time>2017-05-04T12:54:11.000Z</time>
      </trkpt>
      <trkpt lat="46.21176" lon="4.849">
        <ele>210</ele>
        <time>2017-05-04T12:54:12.000Z</time>
      </trkpt>
      <trkpt lat="46.21175" lon="4.84899">
        <ele>210</ele>
        <time>2017-05-04T12:54:13.000Z</time>
      </trkpt>
      <trkpt lat="46.21174" lon="4.84899">
        <ele>209</ele>
        <time>2017-05-04T12:54:14.000Z</time>
      </trkpt>
      <trkpt lat="46.21173" lon="4.84899">
        <ele>210</ele>
        <time>2017-05-04T12:54:15.000Z</time>
      </trkpt>
      <trkpt lat="46.21172" lon="4.84899">
        <ele>209</ele>
        <time>2017-05-04T12:54:16.000Z</time>
      </trkpt>
      <trkpt lat="46.21171" lon="4.84898">
        <ele>209</ele>
        <time>2017-05-04T12:54:17.000Z</time>
      </trkpt>
      <trkpt lat="46.2117" lon="4.84898">
        <ele>210</ele>
        <time>2017-05-04T12:54:18.000Z</time>
      </trkpt>
      <trkpt lat="46.21169" lon="4.84897">
        <ele>209</ele>
        <time>2017-05-04T12:54:19.000Z</time>
      </trkpt>
      <trkpt lat="46.21168" lon="4.84897">
        <ele>210</ele>
        <time>2017-05-04T12:54:20.000Z</time>
      </trkpt>
      <trkpt lat="46.21167" lon="4.84897">
        <ele>210</ele>
        <time>2017-05-04T12:54:21.000Z</time>
      </trkpt>
      <trkpt lat="46.21166" lon="4.84896">
        <ele>209</ele>
        <time>2017-05-04T12:54:22.000Z</time>
      </trkpt>
      <trkpt lat="46.21164" lon="4.84896">
        <ele>209</ele>
        <time>2017-05-04T12:54:23.000Z</time>
      </trkpt>
      <trkpt lat="46.21163" lon="4.84895">
        <ele>209</ele>
        <time>2017-05-04T12:54:24.000Z</time>
      </trkpt>
      <trkpt lat="46.21162" lon="4.84895">
        <ele>210</ele>
        <time>2017-05-04T12:54:25.000Z</time>
      </trkpt>
      <trkpt lat="46.21161" lon="4.84894">
        <ele>210</ele>
        <time>2017-05-04T12:54:26.000Z</time>
      </trkpt>
      <trkpt lat="46.2116" lon="4.84894">
        <ele>210</ele>
        <time>2017-05-04T12:54:27.000Z</time>
      </trkpt>
      <trkpt lat="46.21159" lon="4.84894">
        <ele>210</ele>
        <time>2017-05-04T12:54:28.000Z</time>
      </trkpt>
      <trkpt lat="46.21158" lon="4.84893">
        <ele>210</ele>
        <time>2017-05-04T12:54:29.000Z</time>
      </trkpt>
      <trkpt lat="46.21156" lon="4.84893">
        <ele>209</ele>
        <time>2017-05-04T12:54:30.000Z</time>
      </trkpt>
      <trkpt lat="46.21155" lon="4.84892">
        <ele>209</ele>
        <time>2017-05-04T12:54:31.000Z</time>
      </trkpt>
      <trkpt lat="46.21154" lon="4.84892">
        <ele>209</ele>
        <time>2017-05-04T12:54:32.000Z</time>
      </trkpt>
      <trkpt lat="46.21153" lon="4.84892">
        <ele>209</ele>
        <time>2017-05-04T12:54:33.000Z</time>
      </trkpt>
      <trkpt lat="46.21152" lon="4.84892">
        <ele>209</ele>
        <time>2017-05-04T12:54:34.000Z</time>
      </trkpt>
      <trkpt lat="46.21151" lon="4.84891">
        <ele>209</ele>
        <time>2017-05-04T12:54:35.000Z</time>
      </trkpt>
      <trkpt lat="46.2115" lon="4.84891">
        <ele>209</ele>
        <time>2017-05-04T12:54:36.000Z</time>
      </trkpt>
      <trkpt lat="46.21149" lon="4.8489">
        <ele>209</ele>
        <time>2017-05-04T12:54:37.000Z</time>
      </trkpt>
      <trkpt lat="46.21147" lon="4.8489">
        <ele>209</ele>
        <time>2017-05-04T12:54:38.000Z</time>
      </trkpt>
      <trkpt lat="46.21146" lon="4.8489">
        <ele>209</ele>
        <time>2017-05-04T12:54:39.000Z</time>
      </trkpt>
      <trkpt lat="46.21145" lon="4.8489">
        <ele>210</ele>
        <time>2017-05-04T12:54:40.000Z</time>
      </trkpt>
      <trkpt lat="46.21144" lon="4.84889">
        <ele>209</ele>
        <time>2017-05-04T12:54:41.000Z</time>
      </trkpt>
      <trkpt lat="46.21143" lon="4.84889">
        <ele>209</ele>
        <time>2017-05-04T12:54:42.000Z</time>
      </trkpt>
      <trkpt lat="46.21142" lon="4.84889">
        <ele>209</ele>
        <time>2017-05-04T12:54:43.000Z</time>
      </trkpt>
      <trkpt lat="46.2114" lon="4.84889">
        <ele>209</ele>
        <time>2017-05-04T12:54:44.000Z</time>
      </trkpt>
      <trkpt lat="46.21139" lon="4.84888">
        <ele>209</ele>
        <time>2017-05-04T12:54:45.000Z</time>
      </trkpt>
      <trkpt lat="46.21138" lon="4.84888">
        <ele>208</ele>
        <time>2017-05-04T12:54:46.000Z</time>
      </trkpt>
      <trkpt lat="46.21137" lon="4.84887">
        <ele>208</ele>
        <time>2017-05-04T12:54:47.000Z</time>
      </trkpt>
      <trkpt lat="46.21136" lon="4.84887">
        <ele>209</ele>
        <time>2017-05-04T12:54:48.000Z</time>
      </trkpt>
      <trkpt lat="46.21135" lon="4.84886">
        <ele>209</ele>
        <time>2017-05-04T12:54:49.000Z</time>
      </trkpt>
      <trkpt lat="46.21133" lon="4.84886">
        <ele>209</ele>
        <time>2017-05-04T12:54:50.000Z</time>
      </trkpt>
      <trkpt lat="46.21132" lon="4.84885">
        <ele>209</ele>
        <time>2017-05-04T12:54:51.000Z</time>
      </trkpt>
      <trkpt lat="46.21131" lon="4.84885">
        <ele>209</ele>
        <time>2017-05-04T12:54:52.000Z</time>
      </trkpt>
      <trkpt lat="46.2113" lon="4.84884">
        <ele>208</ele>
        <time>2017-05-04T12:54:53.000Z</time>
      </trkpt>
      <trkpt lat="46.21129" lon="4.84884">
        <ele>209</ele>
        <time>2017-05-04T12:54:54.000Z</time>
      </trkpt>
      <trkpt lat="46.21128" lon="4.84883">
        <ele>209</ele>
        <time>2017-05-04T12:54:55.000Z</time>
      </trkpt>
      <trkpt lat="46.21127" lon="4.84883">
        <ele>209</ele>
        <time>2017-05-04T12:54:56.000Z</time>
      </trkpt>
      <trkpt lat="46.21126" lon="4.84882">
        <ele>209</ele>
        <time>2017-05-04T12:54:57.000Z</time>
      </trkpt>
      <trkpt lat="46.21125" lon="4.84882">
        <ele>209</ele>
        <time>2017-05-04T12:54:58.000Z</time>
      </trkpt>
      <trkpt lat="46.21124" lon="4.84882">
        <ele>209</ele>
        <time>2017-05-04T12:54:59.000Z</time>
      </trkpt>
      <trkpt lat="46.21123" lon="4.84881">
        <ele>209</ele>
        <time>2017-05-04T12:55:00.000Z</time>
      </trkpt>
      <trkpt lat="46.21122" lon="4.84881">
        <ele>209</ele>
        <time>2017-05-04T12:55:01.000Z</time>
      </trkpt>
      <trkpt lat="46.21122" lon="4.84881">
        <ele>209</ele>
        <time>2017-05-04T12:55:02.000Z</time>
      </trkpt>
      <trkpt lat="46.21121" lon="4.8488">
        <ele>209</ele>
        <time>2017-05-04T12:55:03.000Z</time>
      </trkpt>
      <trkpt lat="46.2112" lon="4.8488">
        <ele>209</ele>
        <time>2017-05-04T12:55:04.000Z</time>
      </trkpt>
      <trkpt lat="46.21119" lon="4.84879">
        <ele>209</ele>
        <time>2017-05-04T12:55:05.000Z</time>
      </trkpt>
      <trkpt lat="46.21118" lon="4.84879">
        <ele>209</ele>
        <time>2017-05-04T12:55:06.000Z</time>
      </trkpt>
      <trkpt lat="46.21118" lon="4.84878">
        <ele>209</ele>
        <time>2017-05-04T12:55:07.000Z</time>
      </trkpt>
      <trkpt lat="46.21117" lon="4.84877">
        <ele>208</ele>
        <time>2017-05-04T12:55:08.000Z</time>
      </trkpt>
      <trkpt lat="46.21116" lon="4.84876">
        <ele>208</ele>
        <time>2017-05-04T12:55:09.000Z</time>
      </trkpt>
      <trkpt lat="46.21116" lon="4.84876">
        <ele>209</ele>
        <time>2017-05-04T12:55:10.000Z</time>
      </trkpt>
      <trkpt lat="46.21115" lon="4.84875">
        <ele>209</ele>
        <time>2017-05-04T12:55:11.000Z</time>
      </trkpt>
      <trkpt lat="46.21114" lon="4.84873">
        <ele>209</ele>
        <time>2017-05-04T12:55:12.000Z</time>
      </trkpt>
      <trkpt lat="46.21114" lon="4.84872">
        <ele>209</ele>
        <time>2017-05-04T12:55:13.000Z</time>
      </trkpt>
      <trkpt lat="46.21113" lon="4.84871">
        <ele>209</ele>
        <time>2017-05-04T12:55:14.000Z</time>
      </trkpt>
      <trkpt lat="46.21113" lon="4.84869">
        <ele>209</ele>
        <time>2017-05-04T12:55:15.000Z</time>
      </trkpt>
      <trkpt lat="46.21113" lon="4.84868">
        <ele>209</ele>
        <time>2017-05-04T12:55:16.000Z</time>
      </trkpt>
      <trkpt lat="46.21113" lon="4.84867">
        <ele>209</ele>
        <time>2017-05-04T12:55:17.000Z</time>
      </trkpt>
      <trkpt lat="46.21113" lon="4.84866">
        <ele>209</ele>
        <time>2017-05-04T12:55:18.000Z</time>
      </trkpt>
      <trkpt lat="46.21113" lon="4.84865">
        <ele>209</ele>
        <time>2017-05-04T12:55:19.000Z</time>
      </trkpt>
      <trkpt lat="46.21113" lon="4.84863">
        <ele>209</ele>
        <time>2017-05-04T12:55:20.000Z</time>
      </trkpt>
      <trkpt lat="46.21112" lon="4.84862">
        <ele>209</ele>
        <time>2017-05-04T12:55:21.000Z</time>
      </trkpt>
      <trkpt lat="46.21112" lon="4.84861">
        <ele>209</ele>
        <time>2017-05-04T12:55:22.000Z</time>
      </trkpt>
      <trkpt lat="46.21112" lon="4.84859">
        <ele>210</ele>
        <time>2017-05-04T12:55:23.000Z</time>
      </trkpt>
      <trkpt lat="46.21112" lon="4.84858">
        <ele>210</ele>
        <time>2017-05-04T12:55:24.000Z</time>
      </trkpt>
      <trkpt lat="46.21112" lon="4.84857">
        <ele>210</ele>
        <time>2017-05-04T12:55:25.000Z</time>
      </trkpt>
      <trkpt lat="46.21112" lon="4.84856">
        <ele>210</ele>
        <time>2017-05-04T12:55:26.000Z</time>
      </trkpt>
      <trkpt lat="46.21112" lon="4.84854">
        <ele>210</ele>
        <time>2017-05-04T12:55:27.000Z</time>
      </trkpt>
      <trkpt lat="46.21112" lon="4.84853">
        <ele>210</ele>
        <time>2017-05-04T12:55:28.000Z</time>
      </trkpt>
      <trkpt lat="46.21112" lon="4.84852">
        <ele>210</ele>
        <time>2017-05-04T12:55:29.000Z</time>
      </trkpt>
      <trkpt lat="46.21111" lon="4.84851">
        <ele>209</ele>
        <time>2017-05-04T12:55:30.000Z</time>
      </trkpt>
      <trkpt lat="46.21111" lon="4.84849">
        <ele>209</ele>
        <time>2017-05-04T12:55:31.000Z</time>
      </trkpt>
      <trkpt lat="46.21111" lon="4.84848">
        <ele>209</ele>
        <time>2017-05-04T12:55:32.000Z</time>
      </trkpt>
      <trkpt lat="46.21111" lon="4.84847">
        <ele>209</ele>
        <time>2017-05-04T12:55:33.000Z</time>
      </trkpt>
      <trkpt lat="46.21111" lon="4.84846">
        <ele>210</ele>
        <time>2017-05-04T12:55:34.000Z</time>
      </trkpt>
      <trkpt lat="46.21111" lon="4.84844">
        <ele>210</ele>
        <time>2017-05-04T12:55:35.000Z</time>
      </trkpt>
      <trkpt lat="46.21111" lon="4.84843">
        <ele>210</ele>
        <time>2017-05-04T12:55:36.000Z</time>
      </trkpt>
      <trkpt lat="46.21111" lon="4.84842">
        <ele>210</ele>
        <time>2017-05-04T12:55:37.000Z</time>
      </trkpt>
      <trkpt lat="46.21111" lon="4.8484">
        <ele>210</ele>
        <time>2017-05-04T12:55:38.000Z</time>
      </trkpt>
      <trkpt lat="46.2111" lon="4.84838">
        <ele>210</ele>
        <time>2017-05-04T12:55:39.000Z</time>
      </trkpt>
      <trkpt lat="46.2111" lon="4.84837">
        <ele>210</ele>
        <time>2017-05-04T12:55:40.000Z</time>
      </trkpt>
      <trkpt lat="46.2111" lon="4.84835">
        <ele>210</ele>
        <time>2017-05-04T12:55:41.000Z</time>
      </trkpt>
      <trkpt lat="46.2111" lon="4.84834">
        <ele>210</ele>
        <time>2017-05-04T12:55:42.000Z</time>
      </trkpt>
      <trkpt lat="46.2111" lon="4.84833">
        <ele>210</ele>
        <time>2017-05-04T12:55:43.000Z</time>
      </trkpt>
      <trkpt lat="46.2111" lon="4.84831">
        <ele>210</ele>
        <time>2017-05-04T12:55:44.000Z</time>
      </trkpt>
      <trkpt lat="46.21111" lon="4.8483">
        <ele>210</ele>
        <time>2017-05-04T12:55:45.000Z</time>
      </trkpt>
      <trkpt lat="46.21111" lon="4.84828">
        <ele>209</ele>
        <time>2017-05-04T12:55:46.000Z</time>
      </trkpt>
      <trkpt lat="46.21111" lon="4.84827">
        <ele>210</ele>
        <time>2017-05-04T12:55:47.000Z</time>
      </trkpt>
      <trkpt lat="46.21111" lon="4.84826">
        <ele>209</ele>
        <time>2017-05-04T12:55:48.000Z</time>
      </trkpt>
      <trkpt lat="46.21111" lon="4.84824">
        <ele>209</ele>
        <time>2017-05-04T12:55:49.000Z</time>
      </trkpt>
      <trkpt lat="46.21111" lon="4.84823">
        <ele>209</ele>
        <time>2017-05-04T12:55:50.000Z</time>
      </trkpt>
      <trkpt lat="46.21112" lon="4.84821">
        <ele>209</ele>
        <time>2017-05-04T12:55:51.000Z</time>
      </trkpt>
      <trkpt lat="46.21112" lon="4.8482">
        <ele>209</ele>
        <time>2017-05-04T12:55:52.000Z</time>
      </trkpt>
      <trkpt lat="46.21112" lon="4.84818">
        <ele>209</ele>
        <time>2017-05-04T12:55:53.000Z</time>
      </trkpt>
      <trkpt lat="46.21112" lon="4.84817">
        <ele>209</ele>
        <time>2017-05-04T12:55:54.000Z</time>
      </trkpt>
      <trkpt lat="46.21112" lon="4.84816">
        <ele>209</ele>
        <time>2017-05-04T12:55:55.000Z</time>
      </trkpt>
      <trkpt lat="46.21113" lon="4.84814">
        <ele>209</ele>
        <time>2017-05-04T12:55:56.000Z</time>
      </trkpt>
      <trkpt lat="46.21113" lon="4.84813">
        <ele>208</ele>
        <time>2017-05-04T12:55:57.000Z</time>
      </trkpt>
      <trkpt lat="46.21113" lon="4.84812">
        <ele>209</ele>
        <time>2017-05-04T12:55:58.000Z</time>
      </trkpt>
      <trkpt lat="46.21113" lon="4.84811">
        <ele>209</ele>
        <time>2017-05-04T12:55:59.000Z</time>
      </trkpt>
      <trkpt lat="46.21113" lon="4.84809">
        <ele>209</ele>
        <time>2017-05-04T12:56:00.000Z</time>
      </trkpt>
      <trkpt lat="46.21114" lon="4.84808">
        <ele>209</ele>
        <time>2017-05-04T12:56:01.000Z</time>
      </trkpt>
      <trkpt lat="46.21114" lon="4.84807">
        <ele>209</ele>
        <time>2017-05-04T12:56:02.000Z</time>
      </trkpt>
      <trkpt lat="46.21114" lon="4.84805">
        <ele>209</ele>
        <time>2017-05-04T12:56:03.000Z</time>
      </trkpt>
      <trkpt lat="46.21114" lon="4.84804">
        <ele>209</ele>
        <time>2017-05-04T12:56:04.000Z</time>
      </trkpt>
      <trkpt lat="46.21114" lon="4.84803">
        <ele>209</ele>
        <time>2017-05-04T12:56:05.000Z</time>
      </trkpt>
      <trkpt lat="46.21114" lon="4.84801">
        <ele>209</ele>
        <time>2017-05-04T12:56:06.000Z</time>
      </trkpt>
      <trkpt lat="46.21114" lon="4.848">
        <ele>209</ele>
        <time>2017-05-04T12:56:07.000Z</time>
      </trkpt>
      <trkpt lat="46.21115" lon="4.84799">
        <ele>209</ele>
        <time>2017-05-04T12:56:08.000Z</time>
      </trkpt>
      <trkpt lat="46.21115" lon="4.84798">
        <ele>209</ele>
        <time>2017-05-04T12:56:09.000Z</time>
      </trkpt>
      <trkpt lat="46.21115" lon="4.84797">
        <ele>208</ele>
        <time>2017-05-04T12:56:10.000Z</time>
      </trkpt>
      <trkpt lat="46.21115" lon="4.84796">
        <ele>207</ele>
        <time>2017-05-04T12:56:11.000Z</time>
      </trkpt>
      <trkpt lat="46.21115" lon="4.84795">
        <ele>207</ele>
        <time>2017-05-04T12:56:12.000Z</time>
      </trkpt>
      <trkpt lat="46.21116" lon="4.84794">
        <ele>206</ele>
        <time>2017-05-04T12:56:13.000Z</time>
      </trkpt>
      <trkpt lat="46.21116" lon="4.84792">
        <ele>206</ele>
        <time>2017-05-04T12:56:14.000Z</time>
      </trkpt>
      <trkpt lat="46.21116" lon="4.84791">
        <ele>206</ele>
        <time>2017-05-04T12:56:15.000Z</time>
      </trkpt>
      <trkpt lat="46.21116" lon="4.8479">
        <ele>206</ele>
        <time>2017-05-04T12:56:16.000Z</time>
      </trkpt>
      <trkpt lat="46.21117" lon="4.84789">
        <ele>205</ele>
        <time>2017-05-04T12:56:17.000Z</time>
      </trkpt>
      <trkpt lat="46.21117" lon="4.84788">
        <ele>205</ele>
        <time>2017-05-04T12:56:18.000Z</time>
      </trkpt>
      <trkpt lat="46.21117" lon="4.84787">
        <ele>205</ele>
        <time>2017-05-04T12:56:19.000Z</time>
      </trkpt>
      <trkpt lat="46.21118" lon="4.84785">
        <ele>205</ele>
        <time>2017-05-04T12:56:20.000Z</time>
      </trkpt>
      <trkpt lat="46.21118" lon="4.84784">
        <ele>205</ele>
        <time>2017-05-04T12:56:21.000Z</time>
      </trkpt>
      <trkpt lat="46.21118" lon="4.84783">
        <ele>205</ele>
        <time>2017-05-04T12:56:22.000Z</time>
      </trkpt>
      <trkpt lat="46.21118" lon="4.84782">
        <ele>206</ele>
        <time>2017-05-04T12:56:23.000Z</time>
      </trkpt>
      <trkpt lat="46.21118" lon="4.84781">
        <ele>205</ele>
        <time>2017-05-04T12:56:24.000Z</time>
      </trkpt>
      <trkpt lat="46.21118" lon="4.8478">
        <ele>205</ele>
        <time>2017-05-04T12:56:25.000Z</time>
      </trkpt>
      <trkpt lat="46.21118" lon="4.84779">
        <ele>205</ele>
        <time>2017-05-04T12:56:26.000Z</time>
      </trkpt>
      <trkpt lat="46.21118" lon="4.84778">
        <ele>205</ele>
        <time>2017-05-04T12:56:27.000Z</time>
      </trkpt>
      <trkpt lat="46.21119" lon="4.84776">
        <ele>206</ele>
        <time>2017-05-04T12:56:28.000Z</time>
      </trkpt>
      <trkpt lat="46.21119" lon="4.84775">
        <ele>205</ele>
        <time>2017-05-04T12:56:29.000Z</time>
      </trkpt>
      <trkpt lat="46.21119" lon="4.84773">
        <ele>205</ele>
        <time>2017-05-04T12:56:30.000Z</time>
      </trkpt>
      <trkpt lat="46.2112" lon="4.84772">
        <ele>206</ele>
        <time>2017-05-04T12:56:31.000Z</time>
      </trkpt>
      <trkpt lat="46.2112" lon="4.8477">
        <ele>205</ele>
        <time>2017-05-04T12:56:32.000Z</time>
      </trkpt>
      <trkpt lat="46.2112" lon="4.84769">
        <ele>205</ele>
        <time>2017-05-04T12:56:33.000Z</time>
      </trkpt>
      <trkpt lat="46.2112" lon="4.84768">
        <ele>205</ele>
        <time>2017-05-04T12:56:34.000Z</time>
      </trkpt>
      <trkpt lat="46.21119" lon="4.84767">
        <ele>203</ele>
        <time>2017-05-04T12:56:35.000Z</time>
      </trkpt>
      <trkpt lat="46.21119" lon="4.84766">
        <ele>203</ele>
        <time>2017-05-04T12:56:36.000Z</time>
      </trkpt>
      <trkpt lat="46.21118" lon="4.84765">
        <ele>203</ele>
        <time>2017-05-04T12:56:37.000Z</time>
      </trkpt>
      <trkpt lat="46.21117" lon="4.84765">
        <ele>202</ele>
        <time>2017-05-04T12:56:38.000Z</time>
      </trkpt>
      <trkpt lat="46.21116" lon="4.84764">
        <ele>202</ele>
        <time>2017-05-04T12:56:39.000Z</time>
      </trkpt>
      <trkpt lat="46.21116" lon="4.84763">
        <ele>202</ele>
        <time>2017-05-04T12:56:40.000Z</time>
      </trkpt>
      <trkpt lat="46.21115" lon="4.84763">
        <ele>201</ele>
        <time>2017-05-04T12:56:41.000Z</time>
      </trkpt>
      <trkpt lat="46.21115" lon="4.84762">
        <ele>201</ele>
        <time>2017-05-04T12:56:42.000Z</time>
      </trkpt>
      <trkpt lat="46.21115" lon="4.84762">
        <ele>201</ele>
        <time>2017-05-04T12:56:43.000Z</time>
      </trkpt>
      <trkpt lat="46.21115" lon="4.84762">
        <ele>201</ele>
        <time>2017-05-04T12:56:44.000Z</time>
      </trkpt>
      <trkpt lat="46.21115" lon="4.84762">
        <ele>201</ele>
        <time>2017-05-04T12:56:45.000Z</time>
      </trkpt>
      <trkpt lat="46.21115" lon="4.84762">
        <ele>202</ele>
        <time>2017-05-04T12:56:46.000Z</time>
      </trkpt>
      <trkpt lat="46.21115" lon="4.84762">
        <ele>201</ele>
        <time>2017-05-04T12:56:47.000Z</time>
      </trkpt>
      <trkpt lat="46.21115" lon="4.84762">
        <ele>202</ele>
        <time>2017-05-04T12:56:48.000Z</time>
      </trkpt>
      <trkpt lat="46.21115" lon="4.84762">
        <ele>202</ele>
        <time>2017-05-04T12:56:49.000Z</time>
      </trkpt>
      <trkpt lat="46.21116" lon="4.84762">
        <ele>202</ele>
        <time>2017-05-04T12:56:50.000Z</time>
      </trkpt>
      <trkpt lat="46.21116" lon="4.84762">
        <ele>202</ele>
        <time>2017-05-04T12:56:51.000Z</time>
      </trkpt>
      <trkpt lat="46.21116" lon="4.84762">
        <ele>202</ele>
        <time>2017-05-04T12:56:52.000Z</time>
      </trkpt>
      <trkpt lat="46.21116" lon="4.84762">
        <ele>202</ele>
        <time>2017-05-04T12:56:53.000Z</time>
      </trkpt>
      <trkpt lat="46.21116" lon="4.84762">
        <ele>202</ele>
        <time>2017-05-04T12:56:54.000Z</time>
      </trkpt>
      <trkpt lat="46.21116" lon="4.84762">
        <ele>202</ele>
        <time>2017-05-04T12:56:55.000Z</time>
      </trkpt>
      <trkpt lat="46.21116" lon="4.84762">
        <ele>202</ele>
        <time>2017-05-04T12:56:56.000Z</time>
      </trkpt>
      <trkpt lat="46.21116" lon="4.84762">
        <ele>202</ele>
        <time>2017-05-04T12:56:57.000Z</time>
      </trkpt>
      <trkpt lat="46.21116" lon="4.84762">
        <ele>202</ele>
        <time>2017-05-04T12:56:58.000Z</time>
      </trkpt>
      <trkpt lat="46.21115" lon="4.84762">
        <ele>202</ele>
        <time>2017-05-04T12:56:59.000Z</time>
      </trkpt>
      <trkpt lat="46.21115" lon="4.84762">
        <ele>202</ele>
        <time>2017-05-04T12:57:00.000Z</time>
      </trkpt>
      <trkpt lat="46.21115" lon="4.84762">
        <ele>202</ele>
        <time>2017-05-04T12:57:01.000Z</time>
      </trkpt>
      <trkpt lat="46.21114" lon="4.84762">
        <ele>201</ele>
        <time>2017-05-04T12:57:02.000Z</time>
      </trkpt>
      <trkpt lat="46.21114" lon="4.84762">
        <ele>201</ele>
        <time>2017-05-04T12:57:03.000Z</time>
      </trkpt>
      <trkpt lat="46.21114" lon="4.84761">
        <ele>201</ele>
        <time>2017-05-04T12:57:04.000Z</time>
      </trkpt>
      <trkpt lat="46.21114" lon="4.84761">
        <ele>201</ele>
        <time>2017-05-04T12:57:05.000Z</time>
      </trkpt>
      <trkpt lat="46.21113" lon="4.84761">
        <ele>201</ele>
        <time>2017-05-04T12:57:06.000Z</time>
      </trkpt>
      <trkpt lat="46.21113" lon="4.84761">
        <ele>201</ele>
        <time>2017-05-04T12:57:07.000Z</time>
      </trkpt>
      <trkpt lat="46.21113" lon="4.84761">
        <ele>201</ele>
        <time>2017-05-04T12:57:08.000Z</time>
      </trkpt>
      <trkpt lat="46.21113" lon="4.84761">
        <ele>201</ele>
        <time>2017-05-04T12:57:09.000Z</time>
      </trkpt>
      <trkpt lat="46.21113" lon="4.84761">
        <ele>201</ele>
        <time>2017-05-04T12:57:10.000Z</time>
      </trkpt>
      <trkpt lat="46.21113" lon="4.84761">
        <ele>201</ele>
        <time>2017-05-04T12:57:11.000Z</time>
      </trkpt>
      <trkpt lat="46.21113" lon="4.84761">
        <ele>201</ele>
        <time>2017-05-04T12:57:12.000Z</time>
      </trkpt>
      <trkpt lat="46.21113" lon="4.84761">
        <ele>201</ele>
        <time>2017-05-04T12:57:13.000Z</time>
      </trkpt>
      <trkpt lat="46.21112" lon="4.84761">
        <ele>201</ele>
        <time>2017-05-04T12:57:14.000Z</time>
      </trkpt>
      <trkpt lat="46.21112" lon="4.84761">
        <ele>200</ele>
        <time>2017-05-04T12:57:15.000Z</time>
      </trkpt>
      <trkpt lat="46.21111" lon="4.84761">
        <ele>200</ele>
        <time>2017-05-04T12:57:16.000Z</time>
      </trkpt>
      <trkpt lat="46.21111" lon="4.84761">
        <ele>200</ele>
        <time>2017-05-04T12:57:17.000Z</time>
      </trkpt>
      <trkpt lat="46.2111" lon="4.84761">
        <ele>200</ele>
        <time>2017-05-04T12:57:18.000Z</time>
      </trkpt>
      <trkpt lat="46.2111" lon="4.84761">
        <ele>201</ele>
        <time>2017-05-04T12:57:19.000Z</time>
      </trkpt>
      <trkpt lat="46.2111" lon="4.84761">
        <ele>201</ele>
        <time>2017-05-04T12:57:20.000Z</time>
      </trkpt>
      <trkpt lat="46.2111" lon="4.84761">
        <ele>201</ele>
        <time>2017-05-04T12:57:21.000Z</time>
      </trkpt>
      <trkpt lat="46.2111" lon="4.84761">
        <ele>202</ele>
        <time>2017-05-04T12:57:22.000Z</time>
      </trkpt>
      <trkpt lat="46.21109" lon="4.84761">
        <ele>202</ele>
        <time>2017-05-04T12:57:23.000Z</time>
      </trkpt>
      <trkpt lat="46.21109" lon="4.84761">
        <ele>202</ele>
        <time>2017-05-04T12:57:24.000Z</time>
      </trkpt>
      <trkpt lat="46.21109" lon="4.84761">
        <ele>202</ele>
        <time>2017-05-04T12:57:25.000Z</time>
      </trkpt>
      <trkpt lat="46.21109" lon="4.84761">
        <ele>202</ele>
        <time>2017-05-04T12:57:26.000Z</time>
      </trkpt>
      <trkpt lat="46.21109" lon="4.84761">
        <ele>202</ele>
        <time>2017-05-04T12:57:27.000Z</time>
      </trkpt>
      <trkpt lat="46.2111" lon="4.84761">
        <ele>202</ele>
        <time>2017-05-04T12:57:28.000Z</time>
      </trkpt>
      <trkpt lat="46.2111" lon="4.84762">
        <ele>203</ele>
        <time>2017-05-04T12:57:29.000Z</time>
      </trkpt>
      <trkpt lat="46.2111" lon="4.84762">
        <ele>203</ele>
        <time>2017-05-04T12:57:30.000Z</time>
      </trkpt>
      <trkpt lat="46.2111" lon="4.84762">
        <ele>203</ele>
        <time>2017-05-04T12:57:31.000Z</time>
      </trkpt>
      <trkpt lat="46.21111" lon="4.84762">
        <ele>204</ele>
        <time>2017-05-04T12:57:32.000Z</time>
      </trkpt>
      <trkpt lat="46.21111" lon="4.84762">
        <ele>204</ele>
        <time>2017-05-04T12:57:33.000Z</time>
      </trkpt>
      <trkpt lat="46.21111" lon="4.84762">
        <ele>205</ele>
        <time>2017-05-04T12:57:34.000Z</time>
      </trkpt>
      <trkpt lat="46.21112" lon="4.84762">
        <ele>205</ele>
        <time>2017-05-04T12:57:35.000Z</time>
      </trkpt>
      <trkpt lat="46.21112" lon="4.84763">
        <ele>206</ele>
        <time>2017-05-04T12:57:36.000Z</time>
      </trkpt>
      <trkpt lat="46.21113" lon="4.84763">
        <ele>206</ele>
        <time>2017-05-04T12:57:37.000Z</time>
      </trkpt>
      <trkpt lat="46.21113" lon="4.84763">
        <ele>207</ele>
        <time>2017-05-04T12:57:38.000Z</time>
      </trkpt>
      <trkpt lat="46.21114" lon="4.84764">
        <ele>208</ele>
        <time>2017-05-04T12:57:39.000Z</time>
      </trkpt>
      <trkpt lat="46.21115" lon="4.84765">
        <ele>207</ele>
        <time>2017-05-04T12:57:40.000Z</time>
      </trkpt>
      <trkpt lat="46.21115" lon="4.84765">
        <ele>208</ele>
        <time>2017-05-04T12:57:41.000Z</time>
      </trkpt>
      <trkpt lat="46.21116" lon="4.84766">
        <ele>208</ele>
        <time>2017-05-04T12:57:42.000Z</time>
      </trkpt>
      <trkpt lat="46.21116" lon="4.84766">
        <ele>208</ele>
        <time>2017-05-04T12:57:43.000Z</time>
      </trkpt>
      <trkpt lat="46.21117" lon="4.84767">
        <ele>208</ele>
        <time>2017-05-04T12:57:44.000Z</time>
      </trkpt>
      <trkpt lat="46.21117" lon="4.84767">
        <ele>208</ele>
        <time>2017-05-04T12:57:45.000Z</time>
      </trkpt>
      <trkpt lat="46.21118" lon="4.84767">
        <ele>207</ele>
        <time>2017-05-04T12:57:46.000Z</time>
      </trkpt>
      <trkpt lat="46.21118" lon="4.84766">
        <ele>207</ele>
        <time>2017-05-04T12:57:47.000Z</time>
      </trkpt>
      <trkpt lat="46.21118" lon="4.84766">
        <ele>207</ele>
        <time>2017-05-04T12:57:48.000Z</time>
      </trkpt>
      <trkpt lat="46.21118" lon="4.84766">
        <ele>206</ele>
        <time>2017-05-04T12:57:49.000Z</time>
      </trkpt>
      <trkpt lat="46.21118" lon="4.84766">
        <ele>206</ele>
        <time>2017-05-04T12:57:50.000Z</time>
      </trkpt>
      <trkpt lat="46.21118" lon="4.84766">
        <ele>205</ele>
        <time>2017-05-04T12:57:51.000Z</time>
      </trkpt>
      <trkpt lat="46.21118" lon="4.84766">
        <ele>205</ele>
        <time>2017-05-04T12:57:52.000Z</time>
      </trkpt>
      <trkpt lat="46.21118" lon="4.84766">
        <ele>205</ele>
        <time>2017-05-04T12:57:53.000Z</time>
      </trkpt>
      <trkpt lat="46.21119" lon="4.84765">
        <ele>205</ele>
        <time>2017-05-04T12:57:54.000Z</time>
      </trkpt>
      <trkpt lat="46.21119" lon="4.84765">
        <ele>205</ele>
        <time>2017-05-04T12:57:55.000Z</time>
      </trkpt>
      <trkpt lat="46.21119" lon="4.84765">
        <ele>205</ele>
        <time>2017-05-04T12:57:56.000Z</time>
      </trkpt>
      <trkpt lat="46.21119" lon="4.84764">
        <ele>205</ele>
        <time>2017-05-04T12:57:57.000Z</time>
      </trkpt>
      <trkpt lat="46.21119" lon="4.84764">
        <ele>205</ele>
        <time>2017-05-04T12:57:58.000Z</time>
      </trkpt>
      <trkpt lat="46.21119" lon="4.84764">
        <ele>205</ele>
        <time>2017-05-04T12:57:59.000Z</time>
      </trkpt>
      <trkpt lat="46.21119" lon="4.84764">
        <ele>206</ele>
        <time>2017-05-04T12:58:00.000Z</time>
      </trkpt>
      <trkpt lat="46.21119" lon="4.84764">
        <ele>206</ele>
        <time>2017-05-04T12:58:01.000Z</time>
      </trkpt>
      <trkpt lat="46.21118" lon="4.84764">
        <ele>205</ele>
        <time>2017-05-04T12:58:02.000Z</time>
      </trkpt>
      <trkpt lat="46.21118" lon="4.84763">
        <ele>205</ele>
        <time>2017-05-04T12:58:03.000Z</time>
      </trkpt>
      <trkpt lat="46.21118" lon="4.84763">
        <ele>205</ele>
        <time>2017-05-04T12:58:04.000Z</time>
      </trkpt>
      <trkpt lat="46.21118" lon="4.84763">
        <ele>205</ele>
        <time>2017-05-04T12:58:05.000Z</time>
      </trkpt>
      <trkpt lat="46.21117" lon="4.84762">
        <ele>205</ele>
        <time>2017-05-04T12:58:06.000Z</time>
      </trkpt>
      <trkpt lat="46.21117" lon="4.84762">
        <ele>204</ele>
        <time>2017-05-04T12:58:07.000Z</time>
      </trkpt>
      <trkpt lat="46.21117" lon="4.84762">
        <ele>204</ele>
        <time>2017-05-04T12:58:08.000Z</time>
      </trkpt>
      <trkpt lat="46.21116" lon="4.84761">
        <ele>204</ele>
        <time>2017-05-04T12:58:09.000Z</time>
      </trkpt>
      <trkpt lat="46.21116" lon="4.84761">
        <ele>204</ele>
        <time>2017-05-04T12:58:10.000Z</time>
      </trkpt>
      <trkpt lat="46.21116" lon="4.84761">
        <ele>203</ele>
        <time>2017-05-04T12:58:11.000Z</time>
      </trkpt>
      <trkpt lat="46.21115" lon="4.8476">
        <ele>203</ele>
        <time>2017-05-04T12:58:12.000Z</time>
      </trkpt>
      <trkpt lat="46.21115" lon="4.8476">
        <ele>203</ele>
        <time>2017-05-04T12:58:13.000Z</time>
      </trkpt>
      <trkpt lat="46.21114" lon="4.84759">
        <ele>203</ele>
        <time>2017-05-04T12:58:14.000Z</time>
      </trkpt>
      <trkpt lat="46.21114" lon="4.84759">
        <ele>202</ele>
        <time>2017-05-04T12:58:15.000Z</time>
      </trkpt>
      <trkpt lat="46.21114" lon="4.84759">
        <ele>202</ele>
        <time>2017-05-04T12:58:16.000Z</time>
      </trkpt>
      <trkpt lat="46.21114" lon="4.84759">
        <ele>202</ele>
        <time>2017-05-04T12:58:17.000Z</time>
      </trkpt>
      <trkpt lat="46.21113" lon="4.84758">
        <ele>202</ele>
        <time>2017-05-04T12:58:18.000Z</time>
      </trkpt>
      <trkpt lat="46.21113" lon="4.84758">
        <ele>201</ele>
        <time>2017-05-04T12:58:19.000Z</time>
      </trkpt>
      <trkpt lat="46.21112" lon="4.84758">
        <ele>201</ele>
        <time>2017-05-04T12:58:20.000Z</time>
      </trkpt>
      <trkpt lat="46.21112" lon="4.84758">
        <ele>201</ele>
        <time>2017-05-04T12:58:21.000Z</time>
      </trkpt>
      <trkpt lat="46.21111" lon="4.84758">
        <ele>200</ele>
        <time>2017-05-04T12:58:22.000Z</time>
      </trkpt>
      <trkpt lat="46.2111" lon="4.84758">
        <ele>199</ele>
        <time>2017-05-04T12:58:23.000Z</time>
      </trkpt>
      <trkpt lat="46.2111" lon="4.84758">
        <ele>199</ele>
        <time>2017-05-04T12:58:24.000Z</time>
      </trkpt>
      <trkpt lat="46.21109" lon="4.84758">
        <ele>199</ele>
        <time>2017-05-04T12:58:25.000Z</time>
      </trkpt>
      <trkpt lat="46.21108" lon="4.84758">
        <ele>199</ele>
        <time>2017-05-04T12:58:26.000Z</time>
      </trkpt>
      <trkpt lat="46.21107" lon="4.84758">
        <ele>198</ele>
        <time>2017-05-04T12:58:27.000Z</time>
      </trkpt>
      <trkpt lat="46.21107" lon="4.84757">
        <ele>198</ele>
        <time>2017-05-04T12:58:28.000Z</time>
      </trkpt>
      <trkpt lat="46.21106" lon="4.84757">
        <ele>198</ele>
        <time>2017-05-04T12:58:29.000Z</time>
      </trkpt>
      <trkpt lat="46.21105" lon="4.84757">
        <ele>198</ele>
        <time>2017-05-04T12:58:30.000Z</time>
      </trkpt>
      <trkpt lat="46.21104" lon="4.84756">
        <ele>198</ele>
        <time>2017-05-04T12:58:31.000Z</time>
      </trkpt>
      <trkpt lat="46.21104" lon="4.84756">
        <ele>197</ele>
        <time>2017-05-04T12:58:32.000Z</time>
      </trkpt>
      <trkpt lat="46.21103" lon="4.84756">
        <ele>197</ele>
        <time>2017-05-04T12:58:33.000Z</time>
      </trkpt>
      <trkpt lat="46.21102" lon="4.84756">
        <ele>197</ele>
        <time>2017-05-04T12:58:34.000Z</time>
      </trkpt>
      <trkpt lat="46.21102" lon="4.84756">
        <ele>197</ele>
        <time>2017-05-04T12:58:35.000Z</time>
      </trkpt>
      <trkpt lat="46.21101" lon="4.84756">
        <ele>197</ele>
        <time>2017-05-04T12:58:36.000Z</time>
      </trkpt>
      <trkpt lat="46.211" lon="4.84755">
        <ele>196</ele>
        <time>2017-05-04T12:58:37.000Z</time>
      </trkpt>
      <trkpt lat="46.211" lon="4.84754">
        <ele>197</ele>
        <time>2017-05-04T12:58:38.000Z</time>
      </trkpt>
      <trkpt lat="46.21099" lon="4.84754">
        <ele>197</ele>
        <time>2017-05-04T12:58:39.000Z</time>
      </trkpt>
      <trkpt lat="46.21099" lon="4.84753">
        <ele>196</ele>
        <time>2017-05-04T12:58:40.000Z</time>
      </trkpt>
      <trkpt lat="46.21098" lon="4.84752">
        <ele>196</ele>
        <time>2017-05-04T12:58:41.000Z</time>
      </trkpt>
      <trkpt lat="46.21097" lon="4.84751">
        <ele>196</ele>
        <time>2017-05-04T12:58:42.000Z</time>
      </trkpt>
      <trkpt lat="46.21097" lon="4.84751">
        <ele>197</ele>
        <time>2017-05-04T12:58:43.000Z</time>
      </trkpt>
      <trkpt lat="46.21096" lon="4.8475">
        <ele>196</ele>
        <time>2017-05-04T12:58:44.000Z</time>
      </trkpt>
      <trkpt lat="46.21095" lon="4.84749">
        <ele>196</ele>
        <time>2017-05-04T12:58:45.000Z</time>
      </trkpt>
      <trkpt lat="46.21095" lon="4.84748">
        <ele>196</ele>
        <time>2017-05-04T12:58:46.000Z</time>
      </trkpt>
      <trkpt lat="46.21094" lon="4.84747">
        <ele>196</ele>
        <time>2017-05-04T12:58:47.000Z</time>
      </trkpt>
      <trkpt lat="46.21093" lon="4.84746">
        <ele>196</ele>
        <time>2017-05-04T12:58:48.000Z</time>
      </trkpt>
      <trkpt lat="46.21093" lon="4.84745">
        <ele>196</ele>
        <time>2017-05-04T12:58:49.000Z</time>
      </trkpt>
      <trkpt lat="46.21092" lon="4.84745">
        <ele>196</ele>
        <time>2017-05-04T12:58:50.000Z</time>
      </trkpt>
      <trkpt lat="46.21092" lon="4.84744">
        <ele>196</ele>
        <time>2017-05-04T12:58:51.000Z</time>
      </trkpt>
      <trkpt lat="46.21092" lon="4.84743">
        <ele>196</ele>
        <time>2017-05-04T12:58:52.000Z</time>
      </trkpt>
      <trkpt lat="46.21091" lon="4.84742">
        <ele>196</ele>
        <time>2017-05-04T12:58:53.000Z</time>
      </trkpt>
      <trkpt lat="46.21091" lon="4.84741">
        <ele>195</ele>
        <time>2017-05-04T12:58:54.000Z</time>
      </trkpt>
      <trkpt lat="46.2109" lon="4.8474">
        <ele>195</ele>
        <time>2017-05-04T12:58:55.000Z</time>
      </trkpt>
      <trkpt lat="46.21089" lon="4.8474">
        <ele>195</ele>
        <time>2017-05-04T12:58:56.000Z</time>
      </trkpt>
      <trkpt lat="46.21089" lon="4.84739">
        <ele>194</ele>
        <time>2017-05-04T12:58:57.000Z</time>
      </trkpt>
      <trkpt lat="46.21088" lon="4.84739">
        <ele>194</ele>
        <time>2017-05-04T12:58:58.000Z</time>
      </trkpt>
      <trkpt lat="46.21087" lon="4.84738">
        <ele>194</ele>
        <time>2017-05-04T12:58:59.000Z</time>
      </trkpt>
      <trkpt lat="46.21087" lon="4.84738">
        <ele>193</ele>
        <time>2017-05-04T12:59:00.000Z</time>
      </trkpt>
      <trkpt lat="46.21087" lon="4.84737">
        <ele>193</ele>
        <time>2017-05-04T12:59:01.000Z</time>
      </trkpt>
      <trkpt lat="46.21086" lon="4.84736">
        <ele>194</ele>
        <time>2017-05-04T12:59:02.000Z</time>
      </trkpt>
      <trkpt lat="46.21085" lon="4.84736">
        <ele>194</ele>
        <time>2017-05-04T12:59:03.000Z</time>
      </trkpt>
      <trkpt lat="46.21085" lon="4.84735">
        <ele>194</ele>
        <time>2017-05-04T12:59:04.000Z</time>
      </trkpt>
      <trkpt lat="46.21085" lon="4.84734">
        <ele>194</ele>
        <time>2017-05-04T12:59:05.000Z</time>
      </trkpt>
      <trkpt lat="46.21084" lon="4.84734">
        <ele>195</ele>
        <time>2017-05-04T12:59:06.000Z</time>
      </trkpt>
      <trkpt lat="46.21084" lon="4.84733">
        <ele>195</ele>
        <time>2017-05-04T12:59:07.000Z</time>
      </trkpt>
      <trkpt lat="46.21083" lon="4.84732">
        <ele>195</ele>
        <time>2017-05-04T12:59:08.000Z</time>
      </trkpt>
      <trkpt lat="46.21083" lon="4.84731">
        <ele>194</ele>
        <time>2017-05-04T12:59:09.000Z</time>
      </trkpt>
      <trkpt lat="46.21082" lon="4.8473">
        <ele>194</ele>
        <time>2017-05-04T12:59:10.000Z</time>
      </trkpt>
      <trkpt lat="46.21082" lon="4.84729">
        <ele>194</ele>
        <time>2017-05-04T12:59:11.000Z</time>
      </trkpt>
      <trkpt lat="46.21081" lon="4.84728">
        <ele>194</ele>
        <time>2017-05-04T12:59:12.000Z</time>
      </trkpt>
      <trkpt lat="46.21081" lon="4.84727">
        <ele>194</ele>
        <time>2017-05-04T12:59:13.000Z</time>
      </trkpt>
      <trkpt lat="46.21081" lon="4.84727">
        <ele>194</ele>
        <time>2017-05-04T12:59:14.000Z</time>
      </trkpt>
      <trkpt lat="46.2108" lon="4.84726">
        <ele>194</ele>
        <time>2017-05-04T12:59:15.000Z</time>
      </trkpt>
      <trkpt lat="46.2108" lon="4.84725">
        <ele>194</ele>
        <time>2017-05-04T12:59:16.000Z</time>
      </trkpt>
      <trkpt lat="46.2108" lon="4.84724">
        <ele>194</ele>
        <time>2017-05-04T12:59:17.000Z</time>
      </trkpt>
      <trkpt lat="46.2108" lon="4.84723">
        <ele>194</ele>
        <time>2017-05-04T12:59:18.000Z</time>
      </trkpt>
      <trkpt lat="46.2108" lon="4.84723">
        <ele>193</ele>
        <time>2017-05-04T12:59:19.000Z</time>
      </trkpt>
      <trkpt lat="46.2108" lon="4.84722">
        <ele>193</ele>
        <time>2017-05-04T12:59:20.000Z</time>
      </trkpt>
      <trkpt lat="46.21079" lon="4.84721">
        <ele>193</ele>
        <time>2017-05-04T12:59:21.000Z</time>
      </trkpt>
      <trkpt lat="46.21079" lon="4.84721">
        <ele>193</ele>
        <time>2017-05-04T12:59:22.000Z</time>
      </trkpt>
      <trkpt lat="46.21079" lon="4.8472">
        <ele>194</ele>
        <time>2017-05-04T12:59:23.000Z</time>
      </trkpt>
      <trkpt lat="46.21079" lon="4.84719">
        <ele>193</ele>
        <time>2017-05-04T12:59:24.000Z</time>
      </trkpt>
      <trkpt lat="46.21079" lon="4.84718">
        <ele>193</ele>
        <time>2017-05-04T12:59:25.000Z</time>
      </trkpt>
      <trkpt lat="46.21079" lon="4.84718">
        <ele>194</ele>
        <time>2017-05-04T12:59:26.000Z</time>
      </trkpt>
      <trkpt lat="46.21079" lon="4.84717">
        <ele>194</ele>
        <time>2017-05-04T12:59:27.000Z</time>
      </trkpt>
      <trkpt lat="46.21079" lon="4.84716">
        <ele>193</ele>
        <time>2017-05-04T12:59:28.000Z</time>
      </trkpt>
      <trkpt lat="46.21079" lon="4.84716">
        <ele>193</ele>
        <time>2017-05-04T12:59:29.000Z</time>
      </trkpt>
      <trkpt lat="46.21079" lon="4.84715">
        <ele>193</ele>
        <time>2017-05-04T12:59:30.000Z</time>
      </trkpt>
      <trkpt lat="46.21079" lon="4.84714">
        <ele>193</ele>
        <time>2017-05-04T12:59:31.000Z</time>
      </trkpt>
      <trkpt lat="46.21079" lon="4.84714">
        <ele>194</ele>
        <time>2017-05-04T12:59:32.000Z</time>
      </trkpt>
      <trkpt lat="46.21079" lon="4.84713">
        <ele>194</ele>
        <time>2017-05-04T12:59:33.000Z</time>
      </trkpt>
      <trkpt lat="46.21079" lon="4.84712">
        <ele>193</ele>
        <time>2017-05-04T12:59:34.000Z</time>
      </trkpt>
      <trkpt lat="46.21079" lon="4.84712">
        <ele>193</ele>
        <time>2017-05-04T12:59:35.000Z</time>
      </trkpt>
      <trkpt lat="46.21079" lon="4.84711">
        <ele>194</ele>
        <time>2017-05-04T12:59:36.000Z</time>
      </trkpt>
      <trkpt lat="46.21079" lon="4.8471">
        <ele>194</ele>
        <time>2017-05-04T12:59:37.000Z</time>
      </trkpt>
      <trkpt lat="46.21079" lon="4.8471">
        <ele>195</ele>
        <time>2017-05-04T12:59:38.000Z</time>
      </trkpt>
      <trkpt lat="46.21079" lon="4.84709">
        <ele>196</ele>
        <time>2017-05-04T12:59:39.000Z</time>
      </trkpt>
      <trkpt lat="46.21079" lon="4.84709">
        <ele>196</ele>
        <time>2017-05-04T12:59:40.000Z</time>
      </trkpt>
      <trkpt lat="46.21079" lon="4.84708">
        <ele>197</ele>
        <time>2017-05-04T12:59:41.000Z</time>
      </trkpt>
      <trkpt lat="46.21079" lon="4.84707">
        <ele>197</ele>
        <time>2017-05-04T12:59:42.000Z</time>
      </trkpt>
      <trkpt lat="46.21079" lon="4.84707">
        <ele>197</ele>
        <time>2017-05-04T12:59:43.000Z</time>
      </trkpt>
      <trkpt lat="46.21079" lon="4.84706">
        <ele>197</ele>
        <time>2017-05-04T12:59:44.000Z</time>
      </trkpt>
      <trkpt lat="46.21079" lon="4.84705">
        <ele>197</ele>
        <time>2017-05-04T12:59:45.000Z</time>
      </trkpt>
      <trkpt lat="46.21079" lon="4.84704">
        <ele>197</ele>
        <time>2017-05-04T12:59:46.000Z</time>
      </trkpt>
      <trkpt lat="46.21078" lon="4.84703">
        <ele>197</ele>
        <time>2017-05-04T12:59:47.000Z</time>
      </trkpt>
      <trkpt lat="46.21078" lon="4.84702">
        <ele>197</ele>
        <time>2017-05-04T12:59:48.000Z</time>
      </trkpt>
      <trkpt lat="46.21077" lon="4.84701">
        <ele>198</ele>
        <time>2017-05-04T12:59:49.000Z</time>
      </trkpt>
      <trkpt lat="46.21077" lon="4.847">
        <ele>198</ele>
        <time>2017-05-04T12:59:50.000Z</time>
      </trkpt>
      <trkpt lat="46.21076" lon="4.84699">
        <ele>199</ele>
        <time>2017-05-04T12:59:51.000Z</time>
      </trkpt>
      <trkpt lat="46.21076" lon="4.84698">
        <ele>200</ele>
        <time>2017-05-04T12:59:52.000Z</time>
      </trkpt>
      <trkpt lat="46.21076" lon="4.84697">
        <ele>200</ele>
        <time>2017-05-04T12:59:53.000Z</time>
      </trkpt>
      <trkpt lat="46.21075" lon="4.84695">
        <ele>200</ele>
        <time>2017-05-04T12:59:54.000Z</time>
      </trkpt>
      <trkpt lat="46.21075" lon="4.84694">
        <ele>199</ele>
        <time>2017-05-04T12:59:55.000Z</time>
      </trkpt>
      <trkpt lat="46.21075" lon="4.84693">
        <ele>199</ele>
        <time>2017-05-04T12:59:56.000Z</time>
      </trkpt>
      <trkpt lat="46.21075" lon="4.84691">
        <ele>199</ele>
        <time>2017-05-04T12:59:57.000Z</time>
      </trkpt>
      <trkpt lat="46.21074" lon="4.8469">
        <ele>199</ele>
        <time>2017-05-04T12:59:58.000Z</time>
      </trkpt>
      <trkpt lat="46.21074" lon="4.84689">
        <ele>200</ele>
        <time>2017-05-04T12:59:59.000Z</time>
      </trkpt>
      <trkpt lat="46.21074" lon="4.84688">
        <ele>200</ele>
        <time>2017-05-04T13:00:00.000Z</time>
      </trkpt>
      <trkpt lat="46.21074" lon="4.84687">
        <ele>200</ele>
        <time>2017-05-04T13:00:01.000Z</time>
      </trkpt>
      <trkpt lat="46.21073" lon="4.84686">
        <ele>200</ele>
        <time>2017-05-04T13:00:02.000Z</time>
      </trkpt>
      <trkpt lat="46.21073" lon="4.84685">
        <ele>200</ele>
        <time>2017-05-04T13:00:03.000Z</time>
      </trkpt>
      <trkpt lat="46.21073" lon="4.84684">
        <ele>200</ele>
        <time>2017-05-04T13:00:04.000Z</time>
      </trkpt>
      <trkpt lat="46.21072" lon="4.84683">
        <ele>201</ele>
        <time>2017-05-04T13:00:05.000Z</time>
      </trkpt>
      <trkpt lat="46.21072" lon="4.84682">
        <ele>202</ele>
        <time>2017-05-04T13:00:06.000Z</time>
      </trkpt>
      <trkpt lat="46.21071" lon="4.8468">
        <ele>203</ele>
        <time>2017-05-04T13:00:07.000Z</time>
      </trkpt>
      <trkpt lat="46.21071" lon="4.84679">
        <ele>203</ele>
        <time>2017-05-04T13:00:08.000Z</time>
      </trkpt>
      <trkpt lat="46.21071" lon="4.84678">
        <ele>203</ele>
        <time>2017-05-04T13:00:09.000Z</time>
      </trkpt>
      <trkpt lat="46.21071" lon="4.84677">
        <ele>203</ele>
        <time>2017-05-04T13:00:10.000Z</time>
      </trkpt>
      <trkpt lat="46.2107" lon="4.84677">
        <ele>203</ele>
        <time>2017-05-04T13:00:11.000Z</time>
      </trkpt>
      <trkpt lat="46.2107" lon="4.84676">
        <ele>203</ele>
        <time>2017-05-04T13:00:12.000Z</time>
      </trkpt>
      <trkpt lat="46.21069" lon="4.84676">
        <ele>203</ele>
        <time>2017-05-04T13:00:13.000Z</time>
      </trkpt>
      <trkpt lat="46.21069" lon="4.84675">
        <ele>202</ele>
        <time>2017-05-04T13:00:14.000Z</time>
      </trkpt>
      <trkpt lat="46.21068" lon="4.84674">
        <ele>201</ele>
        <time>2017-05-04T13:00:15.000Z</time>
      </trkpt>
      <trkpt lat="46.21067" lon="4.84673">
        <ele>200</ele>
        <time>2017-05-04T13:00:16.000Z</time>
      </trkpt>
      <trkpt lat="46.21066" lon="4.84672">
        <ele>200</ele>
        <time>2017-05-04T13:00:17.000Z</time>
      </trkpt>
      <trkpt lat="46.21065" lon="4.84672">
        <ele>200</ele>
        <time>2017-05-04T13:00:18.000Z</time>
      </trkpt>
      <trkpt lat="46.21065" lon="4.84672">
        <ele>200</ele>
        <time>2017-05-04T13:00:19.000Z</time>
      </trkpt>
      <trkpt lat="46.21064" lon="4.84672">
        <ele>200</ele>
        <time>2017-05-04T13:00:20.000Z</time>
      </trkpt>
      <trkpt lat="46.21064" lon="4.84671">
        <ele>201</ele>
        <time>2017-05-04T13:00:21.000Z</time>
      </trkpt>
      <trkpt lat="46.21063" lon="4.84671">
        <ele>201</ele>
        <time>2017-05-04T13:00:22.000Z</time>
      </trkpt>
      <trkpt lat="46.21062" lon="4.8467">
        <ele>200</ele>
        <time>2017-05-04T13:00:23.000Z</time>
      </trkpt>
      <trkpt lat="46.2106" lon="4.8467">
        <ele>200</ele>
        <time>2017-05-04T13:00:24.000Z</time>
      </trkpt>
      <trkpt lat="46.21059" lon="4.84669">
        <ele>200</ele>
        <time>2017-05-04T13:00:25.000Z</time>
      </trkpt>
      <trkpt lat="46.21058" lon="4.84668">
        <ele>200</ele>
        <time>2017-05-04T13:00:26.000Z</time>
      </trkpt>
      <trkpt lat="46.21057" lon="4.84668">
        <ele>200</ele>
        <time>2017-05-04T13:00:27.000Z</time>
      </trkpt>
      <trkpt lat="46.21057" lon="4.84667">
        <ele>200</ele>
        <time>2017-05-04T13:00:28.000Z</time>
      </trkpt>
      <trkpt lat="46.21056" lon="4.84667">
        <ele>200</ele>
        <time>2017-05-04T13:00:29.000Z</time>
      </trkpt>
      <trkpt lat="46.21055" lon="4.84665">
        <ele>200</ele>
        <time>2017-05-04T13:00:30.000Z</time>
      </trkpt>
      <trkpt lat="46.21054" lon="4.84664">
        <ele>200</ele>
        <time>2017-05-04T13:00:31.000Z</time>
      </trkpt>
      <trkpt lat="46.21054" lon="4.84664">
        <ele>200</ele>
        <time>2017-05-04T13:00:32.000Z</time>
      </trkpt>
      <trkpt lat="46.21053" lon="4.84663">
        <ele>200</ele>
        <time>2017-05-04T13:00:33.000Z</time>
      </trkpt>
      <trkpt lat="46.21053" lon="4.84663">
        <ele>201</ele>
        <time>2017-05-04T13:00:34.000Z</time>
      </trkpt>
      <trkpt lat="46.21052" lon="4.84662">
        <ele>201</ele>
        <time>2017-05-04T13:00:35.000Z</time>
      </trkpt>
      <trkpt lat="46.21052" lon="4.84662">
        <ele>201</ele>
        <time>2017-05-04T13:00:36.000Z</time>
      </trkpt>
      <trkpt lat="46.21052" lon="4.84661">
        <ele>201</ele>
        <time>2017-05-04T13:00:37.000Z</time>
      </trkpt>
      <trkpt lat="46.21051" lon="4.84661">
        <ele>201</ele>
        <time>2017-05-04T13:00:38.000Z</time>
      </trkpt>
      <trkpt lat="46.21051" lon="4.8466">
        <ele>201</ele>
        <time>2017-05-04T13:00:39.000Z</time>
      </trkpt>
      <trkpt lat="46.2105" lon="4.8466">
        <ele>202</ele>
        <time>2017-05-04T13:00:40.000Z</time>
      </trkpt>
      <trkpt lat="46.21049" lon="4.8466">
        <ele>201</ele>
        <time>2017-05-04T13:00:41.000Z</time>
      </trkpt>
      <trkpt lat="46.21049" lon="4.84659">
        <ele>202</ele>
        <time>2017-05-04T13:00:42.000Z</time>
      </trkpt>
      <trkpt lat="46.21048" lon="4.84659">
        <ele>201</ele>
        <time>2017-05-04T13:00:43.000Z</time>
      </trkpt>
      <trkpt lat="46.21047" lon="4.84658">
        <ele>201</ele>
        <time>2017-05-04T13:00:44.000Z</time>
      </trkpt>
      <trkpt lat="46.21046" lon="4.84658">
        <ele>201</ele>
        <time>2017-05-04T13:00:45.000Z</time>
      </trkpt>
      <trkpt lat="46.21045" lon="4.84657">
        <ele>200</ele>
        <time>2017-05-04T13:00:46.000Z</time>
      </trkpt>
      <trkpt lat="46.21045" lon="4.84657">
        <ele>200</ele>
        <time>2017-05-04T13:00:47.000Z</time>
      </trkpt>
      <trkpt lat="46.21044" lon="4.84657">
        <ele>200</ele>
        <time>2017-05-04T13:00:48.000Z</time>
      </trkpt>
      <trkpt lat="46.21043" lon="4.84657">
        <ele>199</ele>
        <time>2017-05-04T13:00:49.000Z</time>
      </trkpt>
      <trkpt lat="46.21042" lon="4.84657">
        <ele>198</ele>
        <time>2017-05-04T13:00:50.000Z</time>
      </trkpt>
      <trkpt lat="46.21041" lon="4.84656">
        <ele>198</ele>
        <time>2017-05-04T13:00:51.000Z</time>
      </trkpt>
      <trkpt lat="46.21041" lon="4.84656">
        <ele>198</ele>
        <time>2017-05-04T13:00:52.000Z</time>
      </trkpt>
      <trkpt lat="46.2104" lon="4.84656">
        <ele>197</ele>
        <time>2017-05-04T13:00:53.000Z</time>
      </trkpt>
      <trkpt lat="46.21039" lon="4.84655">
        <ele>197</ele>
        <time>2017-05-04T13:00:54.000Z</time>
      </trkpt>
      <trkpt lat="46.21039" lon="4.84655">
        <ele>197</ele>
        <time>2017-05-04T13:00:55.000Z</time>
      </trkpt>
      <trkpt lat="46.21039" lon="4.84655">
        <ele>197</ele>
        <time>2017-05-04T13:00:56.000Z</time>
      </trkpt>
      <trkpt lat="46.21038" lon="4.84654">
        <ele>198</ele>
        <time>2017-05-04T13:00:57.000Z</time>
      </trkpt>
      <trkpt lat="46.21037" lon="4.84654">
        <ele>197</ele>
        <time>2017-05-04T13:00:58.000Z</time>
      </trkpt>
      <trkpt lat="46.21037" lon="4.84653">
        <ele>197</ele>
        <time>2017-05-04T13:00:59.000Z</time>
      </trkpt>
      <trkpt lat="46.21036" lon="4.84653">
        <ele>197</ele>
        <time>2017-05-04T13:01:00.000Z</time>
      </trkpt>
      <trkpt lat="46.21035" lon="4.84653">
        <ele>197</ele>
        <time>2017-05-04T13:01:01.000Z</time>
      </trkpt>
      <trkpt lat="46.21034" lon="4.84653">
        <ele>197</ele>
        <time>2017-05-04T13:01:02.000Z</time>
      </trkpt>
      <trkpt lat="46.21033" lon="4.84652">
        <ele>198</ele>
        <time>2017-05-04T13:01:03.000Z</time>
      </trkpt>
      <trkpt lat="46.21032" lon="4.84652">
        <ele>198</ele>
        <time>2017-05-04T13:01:04.000Z</time>
      </trkpt>
      <trkpt lat="46.21031" lon="4.84652">
        <ele>197</ele>
        <time>2017-05-04T13:01:05.000Z</time>
      </trkpt>
      <trkpt lat="46.2103" lon="4.84651">
        <ele>197</ele>
        <time>2017-05-04T13:01:06.000Z</time>
      </trkpt>
      <trkpt lat="46.21029" lon="4.8465">
        <ele>196</ele>
        <time>2017-05-04T13:01:07.000Z</time>
      </trkpt>
      <trkpt lat="46.21027" lon="4.8465">
        <ele>195</ele>
        <time>2017-05-04T13:01:08.000Z</time>
      </trkpt>
      <trkpt lat="46.21024" lon="4.84649">
        <ele>194</ele>
        <time>2017-05-04T13:01:09.000Z</time>
      </trkpt>
      <trkpt lat="46.21022" lon="4.84649">
        <ele>194</ele>
        <time>2017-05-04T13:01:10.000Z</time>
      </trkpt>
      <trkpt lat="46.2102" lon="4.84648">
        <ele>194</ele>
        <time>2017-05-04T13:01:11.000Z</time>
      </trkpt>
      <trkpt lat="46.21019" lon="4.84647">
        <ele>194</ele>
        <time>2017-05-04T13:01:12.000Z</time>
      </trkpt>
      <trkpt lat="46.21019" lon="4.84647">
        <ele>193</ele>
        <time>2017-05-04T13:01:13.000Z</time>
      </trkpt>
      <trkpt lat="46.21018" lon="4.84646">
        <ele>193</ele>
        <time>2017-05-04T13:01:14.000Z</time>
      </trkpt>
      <trkpt lat="46.21018" lon="4.84646">
        <ele>193</ele>
        <time>2017-05-04T13:01:15.000Z</time>
      </trkpt>
      <trkpt lat="46.21017" lon="4.84645">
        <ele>192</ele>
        <time>2017-05-04T13:01:16.000Z</time>
      </trkpt>
      <trkpt lat="46.21017" lon="4.84645">
        <ele>192</ele>
        <time>2017-05-04T13:01:17.000Z</time>
      </trkpt>
      <trkpt lat="46.21017" lon="4.84644">
        <ele>192</ele>
        <time>2017-05-04T13:01:18.000Z</time>
      </trkpt>
      <trkpt lat="46.21016" lon="4.84644">
        <ele>191</ele>
        <time>2017-05-04T13:01:19.000Z</time>
      </trkpt>
      <trkpt lat="46.21016" lon="4.84643">
        <ele>191</ele>
        <time>2017-05-04T13:01:20.000Z</time>
      </trkpt>
      <trkpt lat="46.21016" lon="4.84642">
        <ele>191</ele>
        <time>2017-05-04T13:01:21.000Z</time>
      </trkpt>
      <trkpt lat="46.21016" lon="4.84642">
        <ele>191</ele>
        <time>2017-05-04T13:01:22.000Z</time>
      </trkpt>
      <trkpt lat="46.21016" lon="4.84641">
        <ele>191</ele>
        <time>2017-05-04T13:01:23.000Z</time>
      </trkpt>
      <trkpt lat="46.21015" lon="4.84641">
        <ele>192</ele>
        <time>2017-05-04T13:01:24.000Z</time>
      </trkpt>
      <trkpt lat="46.21015" lon="4.8464">
        <ele>192</ele>
        <time>2017-05-04T13:01:25.000Z</time>
      </trkpt>
      <trkpt lat="46.21014" lon="4.8464">
        <ele>192</ele>
        <time>2017-05-04T13:01:26.000Z</time>
      </trkpt>
      <trkpt lat="46.21014" lon="4.84639">
        <ele>192</ele>
        <time>2017-05-04T13:01:27.000Z</time>
      </trkpt>
      <trkpt lat="46.21014" lon="4.84639">
        <ele>192</ele>
        <time>2017-05-04T13:01:28.000Z</time>
      </trkpt>
      <trkpt lat="46.21013" lon="4.84638">
        <ele>191</ele>
        <time>2017-05-04T13:01:29.000Z</time>
      </trkpt>
      <trkpt lat="46.21013" lon="4.84638">
        <ele>191</ele>
        <time>2017-05-04T13:01:30.000Z</time>
      </trkpt>
      <trkpt lat="46.21013" lon="4.84637">
        <ele>192</ele>
        <time>2017-05-04T13:01:31.000Z</time>
      </trkpt>
      <trkpt lat="46.21013" lon="4.84637">
        <ele>192</ele>
        <time>2017-05-04T13:01:32.000Z</time>
      </trkpt>
      <trkpt lat="46.21012" lon="4.84636">
        <ele>192</ele>
        <time>2017-05-04T13:01:33.000Z</time>
      </trkpt>
      <trkpt lat="46.21012" lon="4.84635">
        <ele>192</ele>
        <time>2017-05-04T13:01:34.000Z</time>
      </trkpt>
      <trkpt lat="46.21011" lon="4.84635">
        <ele>192</ele>
        <time>2017-05-04T13:01:35.000Z</time>
      </trkpt>
      <trkpt lat="46.21011" lon="4.84634">
        <ele>192</ele>
        <time>2017-05-04T13:01:36.000Z</time>
      </trkpt>
      <trkpt lat="46.21011" lon="4.84633">
        <ele>191</ele>
        <time>2017-05-04T13:01:37.000Z</time>
      </trkpt>
      <trkpt lat="46.21011" lon="4.84633">
        <ele>192</ele>
        <time>2017-05-04T13:01:38.000Z</time>
      </trkpt>
      <trkpt lat="46.21011" lon="4.84632">
        <ele>192</ele>
        <time>2017-05-04T13:01:39.000Z</time>
      </trkpt>
      <trkpt lat="46.2101" lon="4.84632">
        <ele>191</ele>
        <time>2017-05-04T13:01:40.000Z</time>
      </trkpt>
      <trkpt lat="46.2101" lon="4.84631">
        <ele>191</ele>
        <time>2017-05-04T13:01:41.000Z</time>
      </trkpt>
      <trkpt lat="46.2101" lon="4.8463">
        <ele>190</ele>
        <time>2017-05-04T13:01:42.000Z</time>
      </trkpt>
      <trkpt lat="46.2101" lon="4.84629">
        <ele>189</ele>
        <time>2017-05-04T13:01:43.000Z</time>
      </trkpt>
      <trkpt lat="46.2101" lon="4.84627">
        <ele>188</ele>
        <time>2017-05-04T13:01:44.000Z</time>
      </trkpt>
      <trkpt lat="46.21011" lon="4.84625">
        <ele>188</ele>
        <time>2017-05-04T13:01:45.000Z</time>
      </trkpt>
      <trkpt lat="46.21011" lon="4.84623">
        <ele>188</ele>
        <time>2017-05-04T13:01:46.000Z</time>
      </trkpt>
      <trkpt lat="46.21011" lon="4.84622">
        <ele>188</ele>
        <time>2017-05-04T13:01:47.000Z</time>
      </trkpt>
      <trkpt lat="46.21011" lon="4.8462">
        <ele>188</ele>
        <time>2017-05-04T13:01:48.000Z</time>
      </trkpt>
      <trkpt lat="46.21011" lon="4.84618">
        <ele>188</ele>
        <time>2017-05-04T13:01:49.000Z</time>
      </trkpt>
      <trkpt lat="46.21011" lon="4.84616">
        <ele>187</ele>
        <time>2017-05-04T13:01:50.000Z</time>
      </trkpt>
      <trkpt lat="46.21012" lon="4.84614">
        <ele>187</ele>
        <time>2017-05-04T13:01:51.000Z</time>
      </trkpt>
      <trkpt lat="46.21011" lon="4.84612">
        <ele>188</ele>
        <time>2017-05-04T13:01:52.000Z</time>
      </trkpt>
      <trkpt lat="46.21011" lon="4.84611">
        <ele>188</ele>
        <time>2017-05-04T13:01:53.000Z</time>
      </trkpt>
      <trkpt lat="46.21011" lon="4.8461">
        <ele>188</ele>
        <time>2017-05-04T13:01:54.000Z</time>
      </trkpt>
      <trkpt lat="46.21011" lon="4.84609">
        <ele>188</ele>
        <time>2017-05-04T13:01:55.000Z</time>
      </trkpt>
      <trkpt lat="46.21011" lon="4.84608">
        <ele>188</ele>
        <time>2017-05-04T13:01:56.000Z</time>
      </trkpt>
      <trkpt lat="46.21011" lon="4.84606">
        <ele>188</ele>
        <time>2017-05-04T13:01:57.000Z</time>
      </trkpt>
      <trkpt lat="46.2101" lon="4.84605">
        <ele>188</ele>
        <time>2017-05-04T13:01:58.000Z</time>
      </trkpt>
      <trkpt lat="46.2101" lon="4.84603">
        <ele>189</ele>
        <time>2017-05-04T13:01:59.000Z</time>
      </trkpt>
      <trkpt lat="46.2101" lon="4.84601">
        <ele>190</ele>
        <time>2017-05-04T13:02:00.000Z</time>
      </trkpt>
      <trkpt lat="46.21009" lon="4.846">
        <ele>190</ele>
        <time>2017-05-04T13:02:01.000Z</time>
      </trkpt>
      <trkpt lat="46.21009" lon="4.84599">
        <ele>190</ele>
        <time>2017-05-04T13:02:02.000Z</time>
      </trkpt>
      <trkpt lat="46.21009" lon="4.84597">
        <ele>190</ele>
        <time>2017-05-04T13:02:03.000Z</time>
      </trkpt>
      <trkpt lat="46.21009" lon="4.84596">
        <ele>190</ele>
        <time>2017-05-04T13:02:04.000Z</time>
      </trkpt>
      <trkpt lat="46.21008" lon="4.84595">
        <ele>190</ele>
        <time>2017-05-04T13:02:05.000Z</time>
      </trkpt>
      <trkpt lat="46.21008" lon="4.84593">
        <ele>189</ele>
        <time>2017-05-04T13:02:06.000Z</time>
      </trkpt>
      <trkpt lat="46.21007" lon="4.84592">
        <ele>189</ele>
        <time>2017-05-04T13:02:07.000Z</time>
      </trkpt>
      <trkpt lat="46.21007" lon="4.8459">
        <ele>188</ele>
        <time>2017-05-04T13:02:08.000Z</time>
      </trkpt>
      <trkpt lat="46.21006" lon="4.84589">
        <ele>188</ele>
        <time>2017-05-04T13:02:09.000Z</time>
      </trkpt>
      <trkpt lat="46.21005" lon="4.84587">
        <ele>188</ele>
        <time>2017-05-04T13:02:10.000Z</time>
      </trkpt>
      <trkpt lat="46.21004" lon="4.84586">
        <ele>188</ele>
        <time>2017-05-04T13:02:11.000Z</time>
      </trkpt>
      <trkpt lat="46.21004" lon="4.84584">
        <ele>188</ele>
        <time>2017-05-04T13:02:12.000Z</time>
      </trkpt>
      <trkpt lat="46.21003" lon="4.84583">
        <ele>188</ele>
        <time>2017-05-04T13:02:13.000Z</time>
      </trkpt>
      <trkpt lat="46.21002" lon="4.84582">
        <ele>187</ele>
        <time>2017-05-04T13:02:14.000Z</time>
      </trkpt>
      <trkpt lat="46.21001" lon="4.8458">
        <ele>186</ele>
        <time>2017-05-04T13:02:15.000Z</time>
      </trkpt>
      <trkpt lat="46.21" lon="4.84579">
        <ele>187</ele>
        <time>2017-05-04T13:02:16.000Z</time>
      </trkpt>
      <trkpt lat="46.20999" lon="4.84577">
        <ele>187</ele>
        <time>2017-05-04T13:02:17.000Z</time>
      </trkpt>
      <trkpt lat="46.20999" lon="4.84576">
        <ele>187</ele>
        <time>2017-05-04T13:02:18.000Z</time>
      </trkpt>
      <trkpt lat="46.20998" lon="4.84575">
        <ele>187</ele>
        <time>2017-05-04T13:02:19.000Z</time>
      </trkpt>
      <trkpt lat="46.20998" lon="4.84574">
        <ele>187</ele>
        <time>2017-05-04T13:02:20.000Z</time>
      </trkpt>
      <trkpt lat="46.20997" lon="4.84572">
        <ele>187</ele>
        <time>2017-05-04T13:02:21.000Z</time>
      </trkpt>
      <trkpt lat="46.20996" lon="4.84571">
        <ele>186</ele>
        <time>2017-05-04T13:02:22.000Z</time>
      </trkpt>
      <trkpt lat="46.20995" lon="4.8457">
        <ele>186</ele>
        <time>2017-05-04T13:02:23.000Z</time>
      </trkpt>
      <trkpt lat="46.20994" lon="4.8457">
        <ele>186</ele>
        <time>2017-05-04T13:02:24.000Z</time>
      </trkpt>
      <trkpt lat="46.20993" lon="4.84569">
        <ele>186</ele>
        <time>2017-05-04T13:02:25.000Z</time>
      </trkpt>
      <trkpt lat="46.20992" lon="4.84568">
        <ele>186</ele>
        <time>2017-05-04T13:02:26.000Z</time>
      </trkpt>
      <trkpt lat="46.20991" lon="4.84567">
        <ele>186</ele>
        <time>2017-05-04T13:02:27.000Z</time>
      </trkpt>
      <trkpt lat="46.20991" lon="4.84566">
        <ele>186</ele>
        <time>2017-05-04T13:02:28.000Z</time>
      </trkpt>
      <trkpt lat="46.2099" lon="4.84565">
        <ele>186</ele>
        <time>2017-05-04T13:02:29.000Z</time>
      </trkpt>
      <trkpt lat="46.2099" lon="4.84564">
        <ele>185</ele>
        <time>2017-05-04T13:02:30.000Z</time>
      </trkpt>
      <trkpt lat="46.2099" lon="4.84563">
        <ele>185</ele>
        <time>2017-05-04T13:02:31.000Z</time>
      </trkpt>
      <trkpt lat="46.2099" lon="4.84562">
        <ele>185</ele>
        <time>2017-05-04T13:02:32.000Z</time>
      </trkpt>
      <trkpt lat="46.2099" lon="4.84561">
        <ele>185</ele>
        <time>2017-05-04T13:02:33.000Z</time>
      </trkpt>
      <trkpt lat="46.2099" lon="4.8456">
        <ele>186</ele>
        <time>2017-05-04T13:02:34.000Z</time>
      </trkpt>
      <trkpt lat="46.2099" lon="4.84559">
        <ele>186</ele>
        <time>2017-05-04T13:02:35.000Z</time>
      </trkpt>
      <trkpt lat="46.20989" lon="4.84558">
        <ele>186</ele>
        <time>2017-05-04T13:02:36.000Z</time>
      </trkpt>
      <trkpt lat="46.20989" lon="4.84557">
        <ele>186</ele>
        <time>2017-05-04T13:02:37.000Z</time>
      </trkpt>
      <trkpt lat="46.20989" lon="4.84555">
        <ele>187</ele>
        <time>2017-05-04T13:02:38.000Z</time>
      </trkpt>
      <trkpt lat="46.20988" lon="4.84554">
        <ele>187</ele>
        <time>2017-05-04T13:02:39.000Z</time>
      </trkpt>
      <trkpt lat="46.20988" lon="4.84552">
        <ele>188</ele>
        <time>2017-05-04T13:02:40.000Z</time>
      </trkpt>
      <trkpt lat="46.20987" lon="4.84551">
        <ele>188</ele>
        <time>2017-05-04T13:02:41.000Z</time>
      </trkpt>
      <trkpt lat="46.20987" lon="4.84549">
        <ele>189</ele>
        <time>2017-05-04T13:02:42.000Z</time>
      </trkpt>
      <trkpt lat="46.20986" lon="4.84548">
        <ele>189</ele>
        <time>2017-05-04T13:02:43.000Z</time>
      </trkpt>
      <trkpt lat="46.20985" lon="4.84546">
        <ele>189</ele>
        <time>2017-05-04T13:02:44.000Z</time>
      </trkpt>
      <trkpt lat="46.20985" lon="4.84544">
        <ele>188</ele>
        <time>2017-05-04T13:02:45.000Z</time>
      </trkpt>
      <trkpt lat="46.20984" lon="4.84542">
        <ele>188</ele>
        <time>2017-05-04T13:02:46.000Z</time>
      </trkpt>
      <trkpt lat="46.20983" lon="4.8454">
        <ele>187</ele>
        <time>2017-05-04T13:02:47.000Z</time>
      </trkpt>
      <trkpt lat="46.20982" lon="4.84537">
        <ele>186</ele>
        <time>2017-05-04T13:02:48.000Z</time>
      </trkpt>
      <trkpt lat="46.20981" lon="4.84536">
        <ele>187</ele>
        <time>2017-05-04T13:02:49.000Z</time>
      </trkpt>
      <trkpt lat="46.20981" lon="4.84534">
        <ele>187</ele>
        <time>2017-05-04T13:02:50.000Z</time>
      </trkpt>
      <trkpt lat="46.20981" lon="4.84532">
        <ele>187</ele>
        <time>2017-05-04T13:02:51.000Z</time>
      </trkpt>
      <trkpt lat="46.20981" lon="4.84531">
        <ele>188</ele>
        <time>2017-05-04T13:02:52.000Z</time>
      </trkpt>
      <trkpt lat="46.20981" lon="4.8453">
        <ele>188</ele>
        <time>2017-05-04T13:02:53.000Z</time>
      </trkpt>
      <trkpt lat="46.2098" lon="4.84528">
        <ele>187</ele>
        <time>2017-05-04T13:02:54.000Z</time>
      </trkpt>
      <trkpt lat="46.2098" lon="4.84527">
        <ele>187</ele>
        <time>2017-05-04T13:02:55.000Z</time>
      </trkpt>
      <trkpt lat="46.2098" lon="4.84526">
        <ele>187</ele>
        <time>2017-05-04T13:02:56.000Z</time>
      </trkpt>
      <trkpt lat="46.2098" lon="4.84525">
        <ele>187</ele>
        <time>2017-05-04T13:02:57.000Z</time>
      </trkpt>
      <trkpt lat="46.2098" lon="4.84523">
        <ele>187</ele>
        <time>2017-05-04T13:02:58.000Z</time>
      </trkpt>
      <trkpt lat="46.2098" lon="4.84522">
        <ele>187</ele>
        <time>2017-05-04T13:02:59.000Z</time>
      </trkpt>
      <trkpt lat="46.2098" lon="4.84521">
        <ele>187</ele>
        <time>2017-05-04T13:03:00.000Z</time>
      </trkpt>
      <trkpt lat="46.2098" lon="4.8452">
        <ele>188</ele>
        <time>2017-05-04T13:03:01.000Z</time>
      </trkpt>
      <trkpt lat="46.20979" lon="4.84518">
        <ele>188</ele>
        <time>2017-05-04T13:03:02.000Z</time>
      </trkpt>
      <trkpt lat="46.20979" lon="4.84517">
        <ele>189</ele>
        <time>2017-05-04T13:03:03.000Z</time>
      </trkpt>
      <trkpt lat="46.20979" lon="4.84516">
        <ele>189</ele>
        <time>2017-05-04T13:03:04.000Z</time>
      </trkpt>
      <trkpt lat="46.20979" lon="4.84515">
        <ele>189</ele>
        <time>2017-05-04T13:03:05.000Z</time>
      </trkpt>
      <trkpt lat="46.20978" lon="4.84513">
        <ele>188</ele>
        <time>2017-05-04T13:03:06.000Z</time>
      </trkpt>
      <trkpt lat="46.20978" lon="4.84512">
        <ele>188</ele>
        <time>2017-05-04T13:03:07.000Z</time>
      </trkpt>
      <trkpt lat="46.20978" lon="4.8451">
        <ele>187</ele>
        <time>2017-05-04T13:03:08.000Z</time>
      </trkpt>
      <trkpt lat="46.20977" lon="4.84509">
        <ele>187</ele>
        <time>2017-05-04T13:03:09.000Z</time>
      </trkpt>
      <trkpt lat="46.20977" lon="4.84508">
        <ele>188</ele>
        <time>2017-05-04T13:03:10.000Z</time>
      </trkpt>
      <trkpt lat="46.20976" lon="4.84507">
        <ele>187</ele>
        <time>2017-05-04T13:03:11.000Z</time>
      </trkpt>
      <trkpt lat="46.20976" lon="4.84506">
        <ele>187</ele>
        <time>2017-05-04T13:03:12.000Z</time>
      </trkpt>
      <trkpt lat="46.20975" lon="4.84505">
        <ele>189</ele>
        <time>2017-05-04T13:03:13.000Z</time>
      </trkpt>
      <trkpt lat="46.20974" lon="4.84503">
        <ele>190</ele>
        <time>2017-05-04T13:03:14.000Z</time>
      </trkpt>
      <trkpt lat="46.20974" lon="4.84502">
        <ele>190</ele>
        <time>2017-05-04T13:03:15.000Z</time>
      </trkpt>
      <trkpt lat="46.20974" lon="4.845">
        <ele>191</ele>
        <time>2017-05-04T13:03:16.000Z</time>
      </trkpt>
      <trkpt lat="46.20973" lon="4.84499">
        <ele>192</ele>
        <time>2017-05-04T13:03:17.000Z</time>
      </trkpt>
      <trkpt lat="46.20973" lon="4.84497">
        <ele>191</ele>
        <time>2017-05-04T13:03:18.000Z</time>
      </trkpt>
      <trkpt lat="46.20972" lon="4.84496">
        <ele>190</ele>
        <time>2017-05-04T13:03:19.000Z</time>
      </trkpt>
      <trkpt lat="46.20972" lon="4.84494">
        <ele>190</ele>
        <time>2017-05-04T13:03:20.000Z</time>
      </trkpt>
      <trkpt lat="46.20971" lon="4.84492">
        <ele>190</ele>
        <time>2017-05-04T13:03:21.000Z</time>
      </trkpt>
      <trkpt lat="46.20971" lon="4.84491">
        <ele>190</ele>
        <time>2017-05-04T13:03:22.000Z</time>
      </trkpt>
      <trkpt lat="46.2097" lon="4.8449">
        <ele>189</ele>
        <time>2017-05-04T13:03:23.000Z</time>
      </trkpt>
      <trkpt lat="46.2097" lon="4.84489">
        <ele>190</ele>
        <time>2017-05-04T13:03:24.000Z</time>
      </trkpt>
      <trkpt lat="46.2097" lon="4.84488">
        <ele>191</ele>
        <time>2017-05-04T13:03:25.000Z</time>
      </trkpt>
      <trkpt lat="46.2097" lon="4.84487">
        <ele>191</ele>
        <time>2017-05-04T13:03:26.000Z</time>
      </trkpt>
      <trkpt lat="46.20971" lon="4.84486">
        <ele>191</ele>
        <time>2017-05-04T13:03:27.000Z</time>
      </trkpt>
      <trkpt lat="46.20971" lon="4.84484">
        <ele>191</ele>
        <time>2017-05-04T13:03:28.000Z</time>
      </trkpt>
      <trkpt lat="46.20972" lon="4.84483">
        <ele>192</ele>
        <time>2017-05-04T13:03:29.000Z</time>
      </trkpt>
      <trkpt lat="46.20972" lon="4.84482">
        <ele>192</ele>
        <time>2017-05-04T13:03:30.000Z</time>
      </trkpt>
      <trkpt lat="46.20973" lon="4.84481">
        <ele>192</ele>
        <time>2017-05-04T13:03:31.000Z</time>
      </trkpt>
      <trkpt lat="46.20973" lon="4.8448">
        <ele>192</ele>
        <time>2017-05-04T13:03:32.000Z</time>
      </trkpt>
      <trkpt lat="46.20974" lon="4.84479">
        <ele>191</ele>
        <time>2017-05-04T13:03:33.000Z</time>
      </trkpt>
      <trkpt lat="46.20974" lon="4.84478">
        <ele>191</ele>
        <time>2017-05-04T13:03:34.000Z</time>
      </trkpt>
      <trkpt lat="46.20975" lon="4.84477">
        <ele>190</ele>
        <time>2017-05-04T13:03:35.000Z</time>
      </trkpt>
      <trkpt lat="46.20976" lon="4.84477">
        <ele>190</ele>
        <time>2017-05-04T13:03:36.000Z</time>
      </trkpt>
      <trkpt lat="46.20977" lon="4.84476">
        <ele>190</ele>
        <time>2017-05-04T13:03:37.000Z</time>
      </trkpt>
      <trkpt lat="46.20977" lon="4.84475">
        <ele>190</ele>
        <time>2017-05-04T13:03:38.000Z</time>
      </trkpt>
      <trkpt lat="46.20978" lon="4.84475">
        <ele>190</ele>
        <time>2017-05-04T13:03:39.000Z</time>
      </trkpt>
      <trkpt lat="46.20978" lon="4.84475">
        <ele>191</ele>
        <time>2017-05-04T13:03:40.000Z</time>
      </trkpt>
      <trkpt lat="46.20979" lon="4.84475">
        <ele>191</ele>
        <time>2017-05-04T13:03:41.000Z</time>
      </trkpt>
      <trkpt lat="46.2098" lon="4.84474">
        <ele>191</ele>
        <time>2017-05-04T13:03:42.000Z</time>
      </trkpt>
      <trkpt lat="46.2098" lon="4.84474">
        <ele>191</ele>
        <time>2017-05-04T13:03:43.000Z</time>
      </trkpt>
      <trkpt lat="46.20981" lon="4.84474">
        <ele>191</ele>
        <time>2017-05-04T13:03:44.000Z</time>
      </trkpt>
      <trkpt lat="46.20982" lon="4.84474">
        <ele>191</ele>
        <time>2017-05-04T13:03:45.000Z</time>
      </trkpt>
      <trkpt lat="46.20982" lon="4.84474">
        <ele>192</ele>
        <time>2017-05-04T13:03:46.000Z</time>
      </trkpt>
      <trkpt lat="46.20983" lon="4.84474">
        <ele>192</ele>
        <time>2017-05-04T13:03:47.000Z</time>
      </trkpt>
      <trkpt lat="46.20984" lon="4.84474">
        <ele>192</ele>
        <time>2017-05-04T13:03:48.000Z</time>
      </trkpt>
      <trkpt lat="46.20985" lon="4.84474">
        <ele>192</ele>
        <time>2017-05-04T13:03:49.000Z</time>
      </trkpt>
      <trkpt lat="46.20986" lon="4.84473">
        <ele>193</ele>
        <time>2017-05-04T13:03:50.000Z</time>
      </trkpt>
      <trkpt lat="46.20987" lon="4.84473">
        <ele>192</ele>
        <time>2017-05-04T13:03:51.000Z</time>
      </trkpt>
      <trkpt lat="46.20988" lon="4.84474">
        <ele>193</ele>
        <time>2017-05-04T13:03:52.000Z</time>
      </trkpt>
      <trkpt lat="46.20989" lon="4.84474">
        <ele>192</ele>
        <time>2017-05-04T13:03:53.000Z</time>
      </trkpt>
      <trkpt lat="46.20989" lon="4.84474">
        <ele>191</ele>
        <time>2017-05-04T13:03:54.000Z</time>
      </trkpt>
      <trkpt lat="46.2099" lon="4.84473">
        <ele>191</ele>
        <time>2017-05-04T13:03:55.000Z</time>
      </trkpt>
      <trkpt lat="46.20991" lon="4.84473">
        <ele>191</ele>
        <time>2017-05-04T13:03:56.000Z</time>
      </trkpt>
      <trkpt lat="46.20992" lon="4.84473">
        <ele>192</ele>
        <time>2017-05-04T13:03:57.000Z</time>
      </trkpt>
      <trkpt lat="46.20993" lon="4.84473">
        <ele>193</ele>
        <time>2017-05-04T13:03:58.000Z</time>
      </trkpt>
      <trkpt lat="46.20993" lon="4.84473">
        <ele>192</ele>
        <time>2017-05-04T13:03:59.000Z</time>
      </trkpt>
      <trkpt lat="46.20994" lon="4.84473">
        <ele>192</ele>
        <time>2017-05-04T13:04:00.000Z</time>
      </trkpt>
      <trkpt lat="46.20995" lon="4.84473">
        <ele>192</ele>
        <time>2017-05-04T13:04:01.000Z</time>
      </trkpt>
      <trkpt lat="46.20996" lon="4.84472">
        <ele>191</ele>
        <time>2017-05-04T13:04:02.000Z</time>
      </trkpt>
      <trkpt lat="46.20997" lon="4.84471">
        <ele>191</ele>
        <time>2017-05-04T13:04:03.000Z</time>
      </trkpt>
      <trkpt lat="46.20998" lon="4.8447">
        <ele>190</ele>
        <time>2017-05-04T13:04:04.000Z</time>
      </trkpt>
      <trkpt lat="46.20999" lon="4.84468">
        <ele>189</ele>
        <time>2017-05-04T13:04:05.000Z</time>
      </trkpt>
      <trkpt lat="46.21" lon="4.84467">
        <ele>189</ele>
        <time>2017-05-04T13:04:06.000Z</time>
      </trkpt>
      <trkpt lat="46.21001" lon="4.84466">
        <ele>189</ele>
        <time>2017-05-04T13:04:07.000Z</time>
      </trkpt>
      <trkpt lat="46.21002" lon="4.84465">
        <ele>190</ele>
        <time>2017-05-04T13:04:08.000Z</time>
      </trkpt>
      <trkpt lat="46.21002" lon="4.84463">
        <ele>189</ele>
        <time>2017-05-04T13:04:09.000Z</time>
      </trkpt>
      <trkpt lat="46.21003" lon="4.84462">
        <ele>188</ele>
        <time>2017-05-04T13:04:10.000Z</time>
      </trkpt>
      <trkpt lat="46.21003" lon="4.8446">
        <ele>188</ele>
        <time>2017-05-04T13:04:11.000Z</time>
      </trkpt>
      <trkpt lat="46.21004" lon="4.84459">
        <ele>188</ele>
        <time>2017-05-04T13:04:12.000Z</time>
      </trkpt>
      <trkpt lat="46.21004" lon="4.84458">
        <ele>188</ele>
        <time>2017-05-04T13:04:13.000Z</time>
      </trkpt>
      <trkpt lat="46.21004" lon="4.84457">
        <ele>188</ele>
        <time>2017-05-04T13:04:14.000Z</time>
      </trkpt>
      <trkpt lat="46.21004" lon="4.84456">
        <ele>188</ele>
        <time>2017-05-04T13:04:15.000Z</time>
      </trkpt>
      <trkpt lat="46.21004" lon="4.84455">
        <ele>188</ele>
        <time>2017-05-04T13:04:16.000Z</time>
      </trkpt>
      <trkpt lat="46.21004" lon="4.84454">
        <ele>187</ele>
        <time>2017-05-04T13:04:17.000Z</time>
      </trkpt>
      <trkpt lat="46.21003" lon="4.84453">
        <ele>187</ele>
        <time>2017-05-04T13:04:18.000Z</time>
      </trkpt>
      <trkpt lat="46.21003" lon="4.84452">
        <ele>188</ele>
        <time>2017-05-04T13:04:19.000Z</time>
      </trkpt>
      <trkpt lat="46.21003" lon="4.84451">
        <ele>188</ele>
        <time>2017-05-04T13:04:20.000Z</time>
      </trkpt>
      <trkpt lat="46.21003" lon="4.84451">
        <ele>188</ele>
        <time>2017-05-04T13:04:21.000Z</time>
      </trkpt>
      <trkpt lat="46.21003" lon="4.8445">
        <ele>188</ele>
        <time>2017-05-04T13:04:22.000Z</time>
      </trkpt>
      <trkpt lat="46.21003" lon="4.84449">
        <ele>188</ele>
        <time>2017-05-04T13:04:23.000Z</time>
      </trkpt>
      <trkpt lat="46.21003" lon="4.84448">
        <ele>188</ele>
        <time>2017-05-04T13:04:24.000Z</time>
      </trkpt>
      <trkpt lat="46.21002" lon="4.84447">
        <ele>188</ele>
        <time>2017-05-04T13:04:25.000Z</time>
      </trkpt>
      <trkpt lat="46.21002" lon="4.84446">
        <ele>187</ele>
        <time>2017-05-04T13:04:26.000Z</time>
      </trkpt>
      <trkpt lat="46.21001" lon="4.84445">
        <ele>188</ele>
        <time>2017-05-04T13:04:27.000Z</time>
      </trkpt>
      <trkpt lat="46.21001" lon="4.84445">
        <ele>188</ele>
        <time>2017-05-04T13:04:28.000Z</time>
      </trkpt>
      <trkpt lat="46.21" lon="4.84444">
        <ele>188</ele>
        <time>2017-05-04T13:04:29.000Z</time>
      </trkpt>
      <trkpt lat="46.21" lon="4.84443">
        <ele>188</ele>
        <time>2017-05-04T13:04:30.000Z</time>
      </trkpt>
      <trkpt lat="46.21" lon="4.84443">
        <ele>188</ele>
        <time>2017-05-04T13:04:31.000Z</time>
      </trkpt>
      <trkpt lat="46.20999" lon="4.84442">
        <ele>188</ele>
        <time>2017-05-04T13:04:32.000Z</time>
      </trkpt>
      <trkpt lat="46.20999" lon="4.84441">
        <ele>187</ele>
        <time>2017-05-04T13:04:33.000Z</time>
      </trkpt>
      <trkpt lat="46.20998" lon="4.8444">
        <ele>187</ele>
        <time>2017-05-04T13:04:34.000Z</time>
      </trkpt>
      <trkpt lat="46.20998" lon="4.84439">
        <ele>187</ele>
        <time>2017-05-04T13:04:35.000Z</time>
      </trkpt>
      <trkpt lat="46.20997" lon="4.84439">
        <ele>186</ele>
        <time>2017-05-04T13:04:36.000Z</time>
      </trkpt>
      <trkpt lat="46.20997" lon="4.84438">
        <ele>187</ele>
        <time>2017-05-04T13:04:37.000Z</time>
      </trkpt>
      <trkpt lat="46.20997" lon="4.84438">
        <ele>187</ele>
        <time>2017-05-04T13:04:38.000Z</time>
      </trkpt>
      <trkpt lat="46.20997" lon="4.84438">
        <ele>187</ele>
        <time>2017-05-04T13:04:39.000Z</time>
      </trkpt>
      <trkpt lat="46.20997" lon="4.84437">
        <ele>187</ele>
        <time>2017-05-04T13:04:40.000Z</time>
      </trkpt>
      <trkpt lat="46.20997" lon="4.84437">
        <ele>187</ele>
        <time>2017-05-04T13:04:41.000Z</time>
      </trkpt>
      <trkpt lat="46.20998" lon="4.84437">
        <ele>187</ele>
        <time>2017-05-04T13:04:42.000Z</time>
      </trkpt>
      <trkpt lat="46.20998" lon="4.84437">
        <ele>188</ele>
        <time>2017-05-04T13:04:43.000Z</time>
      </trkpt>
      <trkpt lat="46.20998" lon="4.84437">
        <ele>188</ele>
        <time>2017-05-04T13:04:44.000Z</time>
      </trkpt>
      <trkpt lat="46.20998" lon="4.84437">
        <ele>188</ele>
        <time>2017-05-04T13:04:45.000Z</time>
      </trkpt>
      <trkpt lat="46.20999" lon="4.84437">
        <ele>189</ele>
        <time>2017-05-04T13:04:46.000Z</time>
      </trkpt>
      <trkpt lat="46.20999" lon="4.84437">
        <ele>189</ele>
        <time>2017-05-04T13:04:47.000Z</time>
      </trkpt>
      <trkpt lat="46.20999" lon="4.84436">
        <ele>188</ele>
        <time>2017-05-04T13:04:48.000Z</time>
      </trkpt>
      <trkpt lat="46.20999" lon="4.84436">
        <ele>189</ele>
        <time>2017-05-04T13:04:49.000Z</time>
      </trkpt>
      <trkpt lat="46.20999" lon="4.84436">
        <ele>189</ele>
        <time>2017-05-04T13:04:50.000Z</time>
      </trkpt>
      <trkpt lat="46.20999" lon="4.84435">
        <ele>189</ele>
        <time>2017-05-04T13:04:51.000Z</time>
      </trkpt>
      <trkpt lat="46.20999" lon="4.84435">
        <ele>188</ele>
        <time>2017-05-04T13:04:52.000Z</time>
      </trkpt>
      <trkpt lat="46.20999" lon="4.84434">
        <ele>187</ele>
        <time>2017-05-04T13:04:53.000Z</time>
      </trkpt>
      <trkpt lat="46.20999" lon="4.84433">
        <ele>188</ele>
        <time>2017-05-04T13:04:54.000Z</time>
      </trkpt>
      <trkpt lat="46.20998" lon="4.84432">
        <ele>188</ele>
        <time>2017-05-04T13:04:55.000Z</time>
      </trkpt>
      <trkpt lat="46.20998" lon="4.84431">
        <ele>187</ele>
        <time>2017-05-04T13:04:56.000Z</time>
      </trkpt>
      <trkpt lat="46.20998" lon="4.8443">
        <ele>188</ele>
        <time>2017-05-04T13:04:57.000Z</time>
      </trkpt>
      <trkpt lat="46.20997" lon="4.84429">
        <ele>188</ele>
        <time>2017-05-04T13:04:58.000Z</time>
      </trkpt>
      <trkpt lat="46.20997" lon="4.84428">
        <ele>188</ele>
        <time>2017-05-04T13:04:59.000Z</time>
      </trkpt>
      <trkpt lat="46.20997" lon="4.84427">
        <ele>188</ele>
        <time>2017-05-04T13:05:00.000Z</time>
      </trkpt>
      <trkpt lat="46.20997" lon="4.84426">
        <ele>188</ele>
        <time>2017-05-04T13:05:01.000Z</time>
      </trkpt>
      <trkpt lat="46.20997" lon="4.84425">
        <ele>187</ele>
        <time>2017-05-04T13:05:02.000Z</time>
      </trkpt>
      <trkpt lat="46.20997" lon="4.84424">
        <ele>186</ele>
        <time>2017-05-04T13:05:03.000Z</time>
      </trkpt>
      <trkpt lat="46.20997" lon="4.84423">
        <ele>186</ele>
        <time>2017-05-04T13:05:04.000Z</time>
      </trkpt>
      <trkpt lat="46.20997" lon="4.84422">
        <ele>187</ele>
        <time>2017-05-04T13:05:05.000Z</time>
      </trkpt>
      <trkpt lat="46.20997" lon="4.8442">
        <ele>187</ele>
        <time>2017-05-04T13:05:06.000Z</time>
      </trkpt>
      <trkpt lat="46.20997" lon="4.84419">
        <ele>188</ele>
        <time>2017-05-04T13:05:07.000Z</time>
      </trkpt>
      <trkpt lat="46.20997" lon="4.84418">
        <ele>187</ele>
        <time>2017-05-04T13:05:08.000Z</time>
      </trkpt>
      <trkpt lat="46.20997" lon="4.84417">
        <ele>187</ele>
        <time>2017-05-04T13:05:09.000Z</time>
      </trkpt>
      <trkpt lat="46.20997" lon="4.84416">
        <ele>187</ele>
        <time>2017-05-04T13:05:10.000Z</time>
      </trkpt>
      <trkpt lat="46.20997" lon="4.84415">
        <ele>187</ele>
        <time>2017-05-04T13:05:11.000Z</time>
      </trkpt>
      <trkpt lat="46.20996" lon="4.84414">
        <ele>187</ele>
        <time>2017-05-04T13:05:12.000Z</time>
      </trkpt>
      <trkpt lat="46.20996" lon="4.84413">
        <ele>187</ele>
        <time>2017-05-04T13:05:13.000Z</time>
      </trkpt>
      <trkpt lat="46.20996" lon="4.84412">
        <ele>187</ele>
        <time>2017-05-04T13:05:14.000Z</time>
      </trkpt>
      <trkpt lat="46.20996" lon="4.84412">
        <ele>188</ele>
        <time>2017-05-04T13:05:15.000Z</time>
      </trkpt>
      <trkpt lat="46.20996" lon="4.84411">
        <ele>187</ele>
        <time>2017-05-04T13:05:16.000Z</time>
      </trkpt>
      <trkpt lat="46.20995" lon="4.8441">
        <ele>186</ele>
        <time>2017-05-04T13:05:17.000Z</time>
      </trkpt>
      <trkpt lat="46.20994" lon="4.84408">
        <ele>186</ele>
        <time>2017-05-04T13:05:18.000Z</time>
      </trkpt>
      <trkpt lat="46.20994" lon="4.84406">
        <ele>187</ele>
        <time>2017-05-04T13:05:19.000Z</time>
      </trkpt>
      <trkpt lat="46.20993" lon="4.84405">
        <ele>187</ele>
        <time>2017-05-04T13:05:20.000Z</time>
      </trkpt>
      <trkpt lat="46.20993" lon="4.84404">
        <ele>187</ele>
        <time>2017-05-04T13:05:21.000Z</time>
      </trkpt>
      <trkpt lat="46.20993" lon="4.84403">
        <ele>187</ele>
        <time>2017-05-04T13:05:22.000Z</time>
      </trkpt>
      <trkpt lat="46.20993" lon="4.84402">
        <ele>188</ele>
        <time>2017-05-04T13:05:23.000Z</time>
      </trkpt>
      <trkpt lat="46.20993" lon="4.84401">
        <ele>188</ele>
        <time>2017-05-04T13:05:24.000Z</time>
      </trkpt>
      <trkpt lat="46.20993" lon="4.844">
        <ele>188</ele>
        <time>2017-05-04T13:05:25.000Z</time>
      </trkpt>
      <trkpt lat="46.20992" lon="4.844">
        <ele>188</ele>
        <time>2017-05-04T13:05:26.000Z</time>
      </trkpt>
      <trkpt lat="46.20992" lon="4.844">
        <ele>188</ele>
        <time>2017-05-04T13:05:27.000Z</time>
      </trkpt>
      <trkpt lat="46.20992" lon="4.844">
        <ele>188</ele>
        <time>2017-05-04T13:05:28.000Z</time>
      </trkpt>
      <trkpt lat="46.20992" lon="4.844">
        <ele>188</ele>
        <time>2017-05-04T13:05:29.000Z</time>
      </trkpt>
      <trkpt lat="46.20992" lon="4.844">
        <ele>188</ele>
        <time>2017-05-04T13:05:30.000Z</time>
      </trkpt>
      <trkpt lat="46.20991" lon="4.844">
        <ele>188</ele>
        <time>2017-05-04T13:05:31.000Z</time>
      </trkpt>
      <trkpt lat="46.20991" lon="4.844">
        <ele>188</ele>
        <time>2017-05-04T13:05:32.000Z</time>
      </trkpt>
      <trkpt lat="46.20991" lon="4.844">
        <ele>188</ele>
        <time>2017-05-04T13:05:33.000Z</time>
      </trkpt>
      <trkpt lat="46.20991" lon="4.844">
        <ele>188</ele>
        <time>2017-05-04T13:05:34.000Z</time>
      </trkpt>
      <trkpt lat="46.20991" lon="4.844">
        <ele>188</ele>
        <time>2017-05-04T13:05:35.000Z</time>
      </trkpt>
      <trkpt lat="46.20992" lon="4.844">
        <ele>188</ele>
        <time>2017-05-04T13:05:36.000Z</time>
      </trkpt>
      <trkpt lat="46.20992" lon="4.844">
        <ele>188</ele>
        <time>2017-05-04T13:05:37.000Z</time>
      </trkpt>
      <trkpt lat="46.20992" lon="4.844">
        <ele>188</ele>
        <time>2017-05-04T13:05:38.000Z</time>
      </trkpt>
      <trkpt lat="46.20992" lon="4.844">
        <ele>188</ele>
        <time>2017-05-04T13:05:39.000Z</time>
      </trkpt>
      <trkpt lat="46.20992" lon="4.84401">
        <ele>188</ele>
        <time>2017-05-04T13:05:40.000Z</time>
      </trkpt>
      <trkpt lat="46.20992" lon="4.84401">
        <ele>188</ele>
        <time>2017-05-04T13:05:41.000Z</time>
      </trkpt>
      <trkpt lat="46.20992" lon="4.84401">
        <ele>188</ele>
        <time>2017-05-04T13:05:42.000Z</time>
      </trkpt>
      <trkpt lat="46.20992" lon="4.84401">
        <ele>188</ele>
        <time>2017-05-04T13:05:43.000Z</time>
      </trkpt>
      <trkpt lat="46.20992" lon="4.844">
        <ele>187</ele>
        <time>2017-05-04T13:05:44.000Z</time>
      </trkpt>
      <trkpt lat="46.20992" lon="4.844">
        <ele>187</ele>
        <time>2017-05-04T13:05:45.000Z</time>
      </trkpt>
      <trkpt lat="46.20991" lon="4.84399">
        <ele>187</ele>
        <time>2017-05-04T13:05:46.000Z</time>
      </trkpt>
      <trkpt lat="46.20991" lon="4.84399">
        <ele>188</ele>
        <time>2017-05-04T13:05:47.000Z</time>
      </trkpt>
      <trkpt lat="46.20991" lon="4.84399">
        <ele>188</ele>
        <time>2017-05-04T13:05:48.000Z</time>
      </trkpt>
      <trkpt lat="46.20992" lon="4.84399">
        <ele>187</ele>
        <time>2017-05-04T13:05:49.000Z</time>
      </trkpt>
      <trkpt lat="46.20992" lon="4.844">
        <ele>187</ele>
        <time>2017-05-04T13:05:50.000Z</time>
      </trkpt>
      <trkpt lat="46.20992" lon="4.844">
        <ele>187</ele>
        <time>2017-05-04T13:05:51.000Z</time>
      </trkpt>
      <trkpt lat="46.20992" lon="4.844">
        <ele>187</ele>
        <time>2017-05-04T13:05:52.000Z</time>
      </trkpt>
      <trkpt lat="46.20992" lon="4.84399">
        <ele>187</ele>
        <time>2017-05-04T13:05:53.000Z</time>
      </trkpt>
      <trkpt lat="46.20993" lon="4.84399">
        <ele>188</ele>
        <time>2017-05-04T13:05:54.000Z</time>
      </trkpt>
      <trkpt lat="46.20992" lon="4.84399">
        <ele>188</ele>
        <time>2017-05-04T13:05:55.000Z</time>
      </trkpt>
      <trkpt lat="46.20992" lon="4.84399">
        <ele>188</ele>
        <time>2017-05-04T13:05:56.000Z</time>
      </trkpt>
      <trkpt lat="46.20992" lon="4.84399">
        <ele>188</ele>
        <time>2017-05-04T13:05:57.000Z</time>
      </trkpt>
      <trkpt lat="46.20992" lon="4.84399">
        <ele>187</ele>
        <time>2017-05-04T13:05:58.000Z</time>
      </trkpt>
      <trkpt lat="46.20992" lon="4.84399">
        <ele>187</ele>
        <time>2017-05-04T13:05:59.000Z</time>
      </trkpt>
      <trkpt lat="46.20992" lon="4.84399">
        <ele>187</ele>
        <time>2017-05-04T13:06:00.000Z</time>
      </trkpt>
      <trkpt lat="46.20992" lon="4.84399">
        <ele>187</ele>
        <time>2017-05-04T13:06:01.000Z</time>
      </trkpt>
      <trkpt lat="46.20992" lon="4.84399">
        <ele>188</ele>
        <time>2017-05-04T13:06:02.000Z</time>
      </trkpt>
      <trkpt lat="46.20992" lon="4.84399">
        <ele>188</ele>
        <time>2017-05-04T13:06:03.000Z</time>
      </trkpt>
      <trkpt lat="46.20992" lon="4.84399">
        <ele>187</ele>
        <time>2017-05-04T13:06:04.000Z</time>
      </trkpt>
      <trkpt lat="46.20992" lon="4.84399">
        <ele>187</ele>
        <time>2017-05-04T13:06:05.000Z</time>
      </trkpt>
      <trkpt lat="46.20992" lon="4.84399">
        <ele>188</ele>
        <time>2017-05-04T13:06:06.000Z</time>
      </trkpt>
      <trkpt lat="46.20992" lon="4.844">
        <ele>188</ele>
        <time>2017-05-04T13:06:07.000Z</time>
      </trkpt>
      <trkpt lat="46.20992" lon="4.844">
        <ele>187</ele>
        <time>2017-05-04T13:06:08.000Z</time>
      </trkpt>
      <trkpt lat="46.20992" lon="4.844">
        <ele>187</ele>
        <time>2017-05-04T13:06:09.000Z</time>
      </trkpt>
      <trkpt lat="46.20992" lon="4.844">
        <ele>187</ele>
        <time>2017-05-04T13:06:10.000Z</time>
      </trkpt>
      <trkpt lat="46.20992" lon="4.84401">
        <ele>187</ele>
        <time>2017-05-04T13:06:11.000Z</time>
      </trkpt>
      <trkpt lat="46.20992" lon="4.84401">
        <ele>187</ele>
        <time>2017-05-04T13:06:12.000Z</time>
      </trkpt>
      <trkpt lat="46.20992" lon="4.84401">
        <ele>186</ele>
        <time>2017-05-04T13:06:13.000Z</time>
      </trkpt>
      <trkpt lat="46.20992" lon="4.844">
        <ele>186</ele>
        <time>2017-05-04T13:06:14.000Z</time>
      </trkpt>
      <trkpt lat="46.20992" lon="4.84401">
        <ele>186</ele>
        <time>2017-05-04T13:06:15.000Z</time>
      </trkpt>
      <trkpt lat="46.20992" lon="4.84401">
        <ele>186</ele>
        <time>2017-05-04T13:06:16.000Z</time>
      </trkpt>
      <trkpt lat="46.20992" lon="4.84401">
        <ele>187</ele>
        <time>2017-05-04T13:06:17.000Z</time>
      </trkpt>
      <trkpt lat="46.20993" lon="4.84401">
        <ele>187</ele>
        <time>2017-05-04T13:06:18.000Z</time>
      </trkpt>
      <trkpt lat="46.20993" lon="4.84402">
        <ele>186</ele>
        <time>2017-05-04T13:06:19.000Z</time>
      </trkpt>
      <trkpt lat="46.20994" lon="4.84402">
        <ele>186</ele>
        <time>2017-05-04T13:06:20.000Z</time>
      </trkpt>
      <trkpt lat="46.20995" lon="4.84403">
        <ele>185</ele>
        <time>2017-05-04T13:06:21.000Z</time>
      </trkpt>
      <trkpt lat="46.20996" lon="4.84403">
        <ele>186</ele>
        <time>2017-05-04T13:06:22.000Z</time>
      </trkpt>
      <trkpt lat="46.20996" lon="4.84404">
        <ele>186</ele>
        <time>2017-05-04T13:06:23.000Z</time>
      </trkpt>
      <trkpt lat="46.20996" lon="4.84404">
        <ele>186</ele>
        <time>2017-05-04T13:06:24.000Z</time>
      </trkpt>
      <trkpt lat="46.20996" lon="4.84405">
        <ele>186</ele>
        <time>2017-05-04T13:06:25.000Z</time>
      </trkpt>
      <trkpt lat="46.20997" lon="4.84405">
        <ele>186</ele>
        <time>2017-05-04T13:06:26.000Z</time>
      </trkpt>
      <trkpt lat="46.20997" lon="4.84405">
        <ele>186</ele>
        <time>2017-05-04T13:06:27.000Z</time>
      </trkpt>
      <trkpt lat="46.20997" lon="4.84405">
        <ele>187</ele>
        <time>2017-05-04T13:06:28.000Z</time>
      </trkpt>
      <trkpt lat="46.20997" lon="4.84405">
        <ele>187</ele>
        <time>2017-05-04T13:06:29.000Z</time>
      </trkpt>
      <trkpt lat="46.20997" lon="4.84405">
        <ele>187</ele>
        <time>2017-05-04T13:06:30.000Z</time>
      </trkpt>
      <trkpt lat="46.20997" lon="4.84405">
        <ele>187</ele>
        <time>2017-05-04T13:06:31.000Z</time>
      </trkpt>
      <trkpt lat="46.20997" lon="4.84405">
        <ele>187</ele>
        <time>2017-05-04T13:06:32.000Z</time>
      </trkpt>
      <trkpt lat="46.20997" lon="4.84405">
        <ele>187</ele>
        <time>2017-05-04T13:06:33.000Z</time>
      </trkpt>
      <trkpt lat="46.20997" lon="4.84405">
        <ele>187</ele>
        <time>2017-05-04T13:06:34.000Z</time>
      </trkpt>
      <trkpt lat="46.20997" lon="4.84406">
        <ele>187</ele>
        <time>2017-05-04T13:06:35.000Z</time>
      </trkpt>
      <trkpt lat="46.20997" lon="4.84406">
        <ele>187</ele>
        <time>2017-05-04T13:06:36.000Z</time>
      </trkpt>
      <trkpt lat="46.20997" lon="4.84406">
        <ele>187</ele>
        <time>2017-05-04T13:06:37.000Z</time>
      </trkpt>
      <trkpt lat="46.20997" lon="4.84406">
        <ele>187</ele>
        <time>2017-05-04T13:06:38.000Z</time>
      </trkpt>
      <trkpt lat="46.20997" lon="4.84406">
        <ele>187</ele>
        <time>2017-05-04T13:06:39.000Z</time>
      </trkpt>
      <trkpt lat="46.20997" lon="4.84406">
        <ele>187</ele>
        <time>2017-05-04T13:06:40.000Z</time>
      </trkpt>
      <trkpt lat="46.20997" lon="4.84405">
        <ele>187</ele>
        <time>2017-05-04T13:06:41.000Z</time>
      </trkpt>
      <trkpt lat="46.20997" lon="4.84405">
        <ele>187</ele>
        <time>2017-05-04T13:06:42.000Z</time>
      </trkpt>
      <trkpt lat="46.20997" lon="4.84405">
        <ele>188</ele>
        <time>2017-05-04T13:06:43.000Z</time>
      </trkpt>
      <trkpt lat="46.20997" lon="4.84405">
        <ele>188</ele>
        <time>2017-05-04T13:06:44.000Z</time>
      </trkpt>
      <trkpt lat="46.20997" lon="4.84405">
        <ele>188</ele>
        <time>2017-05-04T13:06:45.000Z</time>
      </trkpt>
      <trkpt lat="46.20997" lon="4.84404">
        <ele>188</ele>
        <time>2017-05-04T13:06:46.000Z</time>
      </trkpt>
      <trkpt lat="46.20997" lon="4.84404">
        <ele>188</ele>
        <time>2017-05-04T13:06:47.000Z</time>
      </trkpt>
      <trkpt lat="46.20997" lon="4.84403">
        <ele>187</ele>
        <time>2017-05-04T13:06:48.000Z</time>
      </trkpt>
      <trkpt lat="46.20997" lon="4.84403">
        <ele>187</ele>
        <time>2017-05-04T13:06:49.000Z</time>
      </trkpt>
      <trkpt lat="46.20997" lon="4.84403">
        <ele>187</ele>
        <time>2017-05-04T13:06:50.000Z</time>
      </trkpt>
      <trkpt lat="46.20997" lon="4.84403">
        <ele>187</ele>
        <time>2017-05-04T13:06:51.000Z</time>
      </trkpt>
      <trkpt lat="46.20997" lon="4.84403">
        <ele>187</ele>
        <time>2017-05-04T13:06:52.000Z</time>
      </trkpt>
      <trkpt lat="46.20997" lon="4.84403">
        <ele>187</ele>
        <time>2017-05-04T13:06:53.000Z</time>
      </trkpt>
      <trkpt lat="46.20997" lon="4.84403">
        <ele>187</ele>
        <time>2017-05-04T13:06:54.000Z</time>
      </trkpt>
      <trkpt lat="46.20996" lon="4.84403">
        <ele>187</ele>
        <time>2017-05-04T13:06:55.000Z</time>
      </trkpt>
      <trkpt lat="46.20996" lon="4.84403">
        <ele>186</ele>
        <time>2017-05-04T13:06:56.000Z</time>
      </trkpt>
      <trkpt lat="46.20996" lon="4.84403">
        <ele>186</ele>
        <time>2017-05-04T13:06:57.000Z</time>
      </trkpt>
      <trkpt lat="46.20996" lon="4.84403">
        <ele>186</ele>
        <time>2017-05-04T13:06:58.000Z</time>
      </trkpt>
      <trkpt lat="46.20996" lon="4.84403">
        <ele>186</ele>
        <time>2017-05-04T13:06:59.000Z</time>
      </trkpt>
      <trkpt lat="46.20996" lon="4.84403">
        <ele>186</ele>
        <time>2017-05-04T13:07:00.000Z</time>
      </trkpt>
      <trkpt lat="46.20996" lon="4.84403">
        <ele>186</ele>
        <time>2017-05-04T13:07:01.000Z</time>
      </trkpt>
      <trkpt lat="46.20996" lon="4.84403">
        <ele>186</ele>
        <time>2017-05-04T13:07:02.000Z</time>
      </trkpt>
      <trkpt lat="46.20996" lon="4.84403">
        <ele>186</ele>
        <time>2017-05-04T13:07:03.000Z</time>
      </trkpt>
      <trkpt lat="46.20996" lon="4.84403">
        <ele>186</ele>
        <time>2017-05-04T13:07:04.000Z</time>
      </trkpt>
      <trkpt lat="46.20996" lon="4.84403">
        <ele>185</ele>
        <time>2017-05-04T13:07:05.000Z</time>
      </trkpt>
      <trkpt lat="46.20996" lon="4.84403">
        <ele>186</ele>
        <time>2017-05-04T13:07:06.000Z</time>
      </trkpt>
      <trkpt lat="46.20996" lon="4.84403">
        <ele>186</ele>
        <time>2017-05-04T13:07:07.000Z</time>
      </trkpt>
      <trkpt lat="46.20996" lon="4.84403">
        <ele>186</ele>
        <time>2017-05-04T13:07:08.000Z</time>
      </trkpt>
      <trkpt lat="46.20996" lon="4.84403">
        <ele>186</ele>
        <time>2017-05-04T13:07:09.000Z</time>
      </trkpt>
      <trkpt lat="46.20996" lon="4.84403">
        <ele>187</ele>
        <time>2017-05-04T13:07:10.000Z</time>
      </trkpt>
      <trkpt lat="46.20996" lon="4.84403">
        <ele>187</ele>
        <time>2017-05-04T13:07:11.000Z</time>
      </trkpt>
      <trkpt lat="46.20996" lon="4.84403">
        <ele>187</ele>
        <time>2017-05-04T13:07:12.000Z</time>
      </trkpt>
      <trkpt lat="46.20996" lon="4.84403">
        <ele>187</ele>
        <time>2017-05-04T13:07:13.000Z</time>
      </trkpt>
      <trkpt lat="46.20996" lon="4.84403">
        <ele>188</ele>
        <time>2017-05-04T13:07:14.000Z</time>
      </trkpt>
      <trkpt lat="46.20996" lon="4.84404">
        <ele>188</ele>
        <time>2017-05-04T13:07:15.000Z</time>
      </trkpt>
      <trkpt lat="46.20996" lon="4.84404">
        <ele>188</ele>
        <time>2017-05-04T13:07:16.000Z</time>
      </trkpt>
      <trkpt lat="46.20996" lon="4.84404">
        <ele>188</ele>
        <time>2017-05-04T13:07:17.000Z</time>
      </trkpt>
      <trkpt lat="46.20996" lon="4.84404">
        <ele>188</ele>
        <time>2017-05-04T13:07:18.000Z</time>
      </trkpt>
      <trkpt lat="46.20996" lon="4.84404">
        <ele>188</ele>
        <time>2017-05-04T13:07:19.000Z</time>
      </trkpt>
      <trkpt lat="46.20996" lon="4.84404">
        <ele>188</ele>
        <time>2017-05-04T13:07:20.000Z</time>
      </trkpt>
      <trkpt lat="46.20996" lon="4.84404">
        <ele>188</ele>
        <time>2017-05-04T13:07:21.000Z</time>
      </trkpt>
      <trkpt lat="46.20996" lon="4.84404">
        <ele>188</ele>
        <time>2017-05-04T13:07:22.000Z</time>
      </trkpt>
      <trkpt lat="46.20996" lon="4.84405">
        <ele>188</ele>
        <time>2017-05-04T13:07:23.000Z</time>
      </trkpt>
      <trkpt lat="46.20996" lon="4.84405">
        <ele>187</ele>
        <time>2017-05-04T13:07:24.000Z</time>
      </trkpt>
      <trkpt lat="46.20996" lon="4.84405">
        <ele>187</ele>
        <time>2017-05-04T13:07:25.000Z</time>
      </trkpt>
      <trkpt lat="46.20996" lon="4.84405">
        <ele>187</ele>
        <time>2017-05-04T13:07:26.000Z</time>
      </trkpt>
      <trkpt lat="46.20996" lon="4.84405">
        <ele>187</ele>
        <time>2017-05-04T13:07:27.000Z</time>
      </trkpt>
      <trkpt lat="46.20996" lon="4.84406">
        <ele>187</ele>
        <time>2017-05-04T13:07:28.000Z</time>
      </trkpt>
      <trkpt lat="46.20996" lon="4.84406">
        <ele>187</ele>
        <time>2017-05-04T13:07:29.000Z</time>
      </trkpt>
      <trkpt lat="46.20996" lon="4.84405">
        <ele>187</ele>
        <time>2017-05-04T13:07:30.000Z</time>
      </trkpt>
      <trkpt lat="46.20997" lon="4.84405">
        <ele>187</ele>
        <time>2017-05-04T13:07:31.000Z</time>
      </trkpt>
      <trkpt lat="46.20997" lon="4.84405">
        <ele>187</ele>
        <time>2017-05-04T13:07:32.000Z</time>
      </trkpt>
      <trkpt lat="46.20997" lon="4.84405">
        <ele>187</ele>
        <time>2017-05-04T13:07:33.000Z</time>
      </trkpt>
      <trkpt lat="46.20997" lon="4.84405">
        <ele>187</ele>
        <time>2017-05-04T13:07:34.000Z</time>
      </trkpt>
      <trkpt lat="46.20997" lon="4.84405">
        <ele>187</ele>
        <time>2017-05-04T13:07:35.000Z</time>
      </trkpt>
      <trkpt lat="46.20997" lon="4.84405">
        <ele>187</ele>
        <time>2017-05-04T13:07:36.000Z</time>
      </trkpt>
      <trkpt lat="46.20997" lon="4.84405">
        <ele>187</ele>
        <time>2017-05-04T13:07:37.000Z</time>
      </trkpt>
      <trkpt lat="46.20997" lon="4.84405">
        <ele>187</ele>
        <time>2017-05-04T13:07:38.000Z</time>
      </trkpt>
      <trkpt lat="46.20998" lon="4.84405">
        <ele>186</ele>
        <time>2017-05-04T13:07:39.000Z</time>
      </trkpt>
      <trkpt lat="46.20998" lon="4.84404">
        <ele>187</ele>
        <time>2017-05-04T13:07:40.000Z</time>
      </trkpt>
      <trkpt lat="46.20998" lon="4.84404">
        <ele>187</ele>
        <time>2017-05-04T13:07:41.000Z</time>
      </trkpt>
      <trkpt lat="46.20998" lon="4.84404">
        <ele>187</ele>
        <time>2017-05-04T13:07:42.000Z</time>
      </trkpt>
      <trkpt lat="46.20998" lon="4.84404">
        <ele>187</ele>
        <time>2017-05-04T13:07:43.000Z</time>
      </trkpt>
      <trkpt lat="46.20998" lon="4.84404">
        <ele>186</ele>
        <time>2017-05-04T13:07:44.000Z</time>
      </trkpt>
      <trkpt lat="46.20997" lon="4.84404">
        <ele>186</ele>
        <time>2017-05-04T13:07:45.000Z</time>
      </trkpt>
      <trkpt lat="46.20997" lon="4.84404">
        <ele>186</ele>
        <time>2017-05-04T13:07:46.000Z</time>
      </trkpt>
      <trkpt lat="46.20997" lon="4.84403">
        <ele>186</ele>
        <time>2017-05-04T13:07:47.000Z</time>
      </trkpt>
      <trkpt lat="46.20997" lon="4.84403">
        <ele>186</ele>
        <time>2017-05-04T13:07:48.000Z</time>
      </trkpt>
      <trkpt lat="46.20996" lon="4.84404">
        <ele>186</ele>
        <time>2017-05-04T13:07:49.000Z</time>
      </trkpt>
      <trkpt lat="46.20996" lon="4.84404">
        <ele>186</ele>
        <time>2017-05-04T13:07:50.000Z</time>
      </trkpt>
      <trkpt lat="46.20996" lon="4.84404">
        <ele>186</ele>
        <time>2017-05-04T13:07:51.000Z</time>
      </trkpt>
      <trkpt lat="46.20996" lon="4.84404">
        <ele>186</ele>
        <time>2017-05-04T13:07:52.000Z</time>
      </trkpt>
      <trkpt lat="46.20996" lon="4.84404">
        <ele>186</ele>
        <time>2017-05-04T13:07:53.000Z</time>
      </trkpt>
      <trkpt lat="46.20996" lon="4.84404">
        <ele>186</ele>
        <time>2017-05-04T13:07:54.000Z</time>
      </trkpt>
      <trkpt lat="46.20996" lon="4.84404">
        <ele>186</ele>
        <time>2017-05-04T13:07:55.000Z</time>
      </trkpt>
      <trkpt lat="46.20996" lon="4.84404">
        <ele>186</ele>
        <time>2017-05-04T13:07:56.000Z</time>
      </trkpt>
      <trkpt lat="46.20996" lon="4.84404">
        <ele>186</ele>
        <time>2017-05-04T13:07:57.000Z</time>
      </trkpt>
      <trkpt lat="46.20996" lon="4.84404">
        <ele>186</ele>
        <time>2017-05-04T13:07:58.000Z</time>
      </trkpt>
      <trkpt lat="46.20996" lon="4.84404">
        <ele>186</ele>
        <time>2017-05-04T13:07:59.000Z</time>
      </trkpt>
      <trkpt lat="46.20995" lon="4.84404">
        <ele>186</ele>
        <time>2017-05-04T13:08:00.000Z</time>
      </trkpt>
      <trkpt lat="46.20995" lon="4.84404">
        <ele>186</ele>
        <time>2017-05-04T13:08:01.000Z</time>
      </trkpt>
      <trkpt lat="46.20995" lon="4.84404">
        <ele>186</ele>
        <time>2017-05-04T13:08:02.000Z</time>
      </trkpt>
      <trkpt lat="46.20995" lon="4.84404">
        <ele>186</ele>
        <time>2017-05-04T13:08:03.000Z</time>
      </trkpt>
      <trkpt lat="46.20995" lon="4.84404">
        <ele>186</ele>
        <time>2017-05-04T13:08:04.000Z</time>
      </trkpt>
      <trkpt lat="46.20995" lon="4.84404">
        <ele>186</ele>
        <time>2017-05-04T13:08:05.000Z</time>
      </trkpt>
      <trkpt lat="46.20995" lon="4.84404">
        <ele>187</ele>
        <time>2017-05-04T13:08:06.000Z</time>
      </trkpt>
      <trkpt lat="46.20995" lon="4.84404">
        <ele>186</ele>
        <time>2017-05-04T13:08:07.000Z</time>
      </trkpt>
      <trkpt lat="46.20995" lon="4.84404">
        <ele>187</ele>
        <time>2017-05-04T13:08:08.000Z</time>
      </trkpt>
      <trkpt lat="46.20996" lon="4.84403">
        <ele>186</ele>
        <time>2017-05-04T13:08:09.000Z</time>
      </trkpt>
      <trkpt lat="46.20996" lon="4.84402">
        <ele>185</ele>
        <time>2017-05-04T13:08:10.000Z</time>
      </trkpt>
      <trkpt lat="46.20996" lon="4.84402">
        <ele>185</ele>
        <time>2017-05-04T13:08:11.000Z</time>
      </trkpt>
      <trkpt lat="46.20996" lon="4.84401">
        <ele>185</ele>
        <time>2017-05-04T13:08:12.000Z</time>
      </trkpt>
      <trkpt lat="46.20996" lon="4.84401">
        <ele>185</ele>
        <time>2017-05-04T13:08:13.000Z</time>
      </trkpt>
      <trkpt lat="46.20996" lon="4.84401">
        <ele>185</ele>
        <time>2017-05-04T13:08:14.000Z</time>
      </trkpt>
      <trkpt lat="46.20995" lon="4.84401">
        <ele>186</ele>
        <time>2017-05-04T13:08:15.000Z</time>
      </trkpt>
      <trkpt lat="46.20995" lon="4.84402">
        <ele>186</ele>
        <time>2017-05-04T13:08:16.000Z</time>
      </trkpt>
      <trkpt lat="46.20995" lon="4.84402">
        <ele>186</ele>
        <time>2017-05-04T13:08:17.000Z</time>
      </trkpt>
      <trkpt lat="46.20995" lon="4.84402">
        <ele>186</ele>
        <time>2017-05-04T13:08:18.000Z</time>
      </trkpt>
      <trkpt lat="46.20995" lon="4.84402">
        <ele>186</ele>
        <time>2017-05-04T13:08:19.000Z</time>
      </trkpt>
      <trkpt lat="46.20995" lon="4.84402">
        <ele>186</ele>
        <time>2017-05-04T13:08:20.000Z</time>
      </trkpt>
      <trkpt lat="46.20995" lon="4.84401">
        <ele>186</ele>
        <time>2017-05-04T13:08:21.000Z</time>
      </trkpt>
      <trkpt lat="46.20995" lon="4.84401">
        <ele>186</ele>
        <time>2017-05-04T13:08:22.000Z</time>
      </trkpt>
      <trkpt lat="46.20995" lon="4.84401">
        <ele>186</ele>
        <time>2017-05-04T13:08:23.000Z</time>
      </trkpt>
      <trkpt lat="46.20995" lon="4.84401">
        <ele>186</ele>
        <time>2017-05-04T13:08:24.000Z</time>
      </trkpt>
      <trkpt lat="46.20995" lon="4.84401">
        <ele>186</ele>
        <time>2017-05-04T13:08:25.000Z</time>
      </trkpt>
      <trkpt lat="46.20995" lon="4.844">
        <ele>186</ele>
        <time>2017-05-04T13:08:26.000Z</time>
      </trkpt>
      <trkpt lat="46.20995" lon="4.84401">
        <ele>185</ele>
        <time>2017-05-04T13:08:27.000Z</time>
      </trkpt>
      <trkpt lat="46.20995" lon="4.84401">
        <ele>185</ele>
        <time>2017-05-04T13:08:28.000Z</time>
      </trkpt>
      <trkpt lat="46.20995" lon="4.84401">
        <ele>185</ele>
        <time>2017-05-04T13:08:29.000Z</time>
      </trkpt>
      <trkpt lat="46.20995" lon="4.84401">
        <ele>185</ele>
        <time>2017-05-04T13:08:30.000Z</time>
      </trkpt>
      <trkpt lat="46.20995" lon="4.844">
        <ele>185</ele>
        <time>2017-05-04T13:08:31.000Z</time>
      </trkpt>
      <trkpt lat="46.20995" lon="4.844">
        <ele>185</ele>
        <time>2017-05-04T13:08:32.000Z</time>
      </trkpt>
      <trkpt lat="46.20995" lon="4.844">
        <ele>185</ele>
        <time>2017-05-04T13:08:33.000Z</time>
      </trkpt>
      <trkpt lat="46.20995" lon="4.844">
        <ele>185</ele>
        <time>2017-05-04T13:08:34.000Z</time>
      </trkpt>
      <trkpt lat="46.20995" lon="4.844">
        <ele>185</ele>
        <time>2017-05-04T13:08:35.000Z</time>
      </trkpt>
      <trkpt lat="46.20995" lon="4.844">
        <ele>185</ele>
        <time>2017-05-04T13:08:36.000Z</time>
      </trkpt>
      <trkpt lat="46.20995" lon="4.844">
        <ele>185</ele>
        <time>2017-05-04T13:08:37.000Z</time>
      </trkpt>
      <trkpt lat="46.20995" lon="4.84399">
        <ele>185</ele>
        <time>2017-05-04T13:08:38.000Z</time>
      </trkpt>
      <trkpt lat="46.20994" lon="4.84399">
        <ele>184</ele>
        <time>2017-05-04T13:08:39.000Z</time>
      </trkpt>
      <trkpt lat="46.20994" lon="4.84399">
        <ele>184</ele>
        <time>2017-05-04T13:08:40.000Z</time>
      </trkpt>
      <trkpt lat="46.20994" lon="4.84399">
        <ele>184</ele>
        <time>2017-05-04T13:08:41.000Z</time>
      </trkpt>
      <trkpt lat="46.20994" lon="4.84399">
        <ele>184</ele>
        <time>2017-05-04T13:08:42.000Z</time>
      </trkpt>
      <trkpt lat="46.20994" lon="4.84399">
        <ele>185</ele>
        <time>2017-05-04T13:08:43.000Z</time>
      </trkpt>
      <trkpt lat="46.20994" lon="4.84399">
        <ele>185</ele>
        <time>2017-05-04T13:08:44.000Z</time>
      </trkpt>
      <trkpt lat="46.20994" lon="4.84399">
        <ele>186</ele>
        <time>2017-05-04T13:08:45.000Z</time>
      </trkpt>
      <trkpt lat="46.20994" lon="4.84399">
        <ele>186</ele>
        <time>2017-05-04T13:08:46.000Z</time>
      </trkpt>
      <trkpt lat="46.20994" lon="4.84399">
        <ele>186</ele>
        <time>2017-05-04T13:08:47.000Z</time>
      </trkpt>
      <trkpt lat="46.20994" lon="4.844">
        <ele>186</ele>
        <time>2017-05-04T13:08:48.000Z</time>
      </trkpt>
      <trkpt lat="46.20994" lon="4.844">
        <ele>186</ele>
        <time>2017-05-04T13:08:49.000Z</time>
      </trkpt>
      <trkpt lat="46.20994" lon="4.844">
        <ele>186</ele>
        <time>2017-05-04T13:08:50.000Z</time>
      </trkpt>
      <trkpt lat="46.20994" lon="4.844">
        <ele>186</ele>
        <time>2017-05-04T13:08:51.000Z</time>
      </trkpt>
      <trkpt lat="46.20994" lon="4.844">
        <ele>186</ele>
        <time>2017-05-04T13:08:52.000Z</time>
      </trkpt>
      <trkpt lat="46.20994" lon="4.844">
        <ele>185</ele>
        <time>2017-05-04T13:08:53.000Z</time>
      </trkpt>
      <trkpt lat="46.20994" lon="4.844">
        <ele>185</ele>
        <time>2017-05-04T13:08:54.000Z</time>
      </trkpt>
      <trkpt lat="46.20994" lon="4.844">
        <ele>184</ele>
        <time>2017-05-04T13:08:55.000Z</time>
      </trkpt>
      <trkpt lat="46.20994" lon="4.844">
        <ele>184</ele>
        <time>2017-05-04T13:08:56.000Z</time>
      </trkpt>
      <trkpt lat="46.20994" lon="4.844">
        <ele>184</ele>
        <time>2017-05-04T13:08:57.000Z</time>
      </trkpt>
      <trkpt lat="46.20994" lon="4.844">
        <ele>183</ele>
        <time>2017-05-04T13:08:58.000Z</time>
      </trkpt>
      <trkpt lat="46.20995" lon="4.844">
        <ele>183</ele>
        <time>2017-05-04T13:08:59.000Z</time>
      </trkpt>
      <trkpt lat="46.20995" lon="4.844">
        <ele>184</ele>
        <time>2017-05-04T13:09:00.000Z</time>
      </trkpt>
      <trkpt lat="46.20995" lon="4.844">
        <ele>184</ele>
        <time>2017-05-04T13:09:01.000Z</time>
      </trkpt>
      <trkpt lat="46.20995" lon="4.844">
        <ele>184</ele>
        <time>2017-05-04T13:09:02.000Z</time>
      </trkpt>
      <trkpt lat="46.20995" lon="4.844">
        <ele>184</ele>
        <time>2017-05-04T13:09:03.000Z</time>
      </trkpt>
      <trkpt lat="46.20995" lon="4.844">
        <ele>184</ele>
        <time>2017-05-04T13:09:04.000Z</time>
      </trkpt>
      <trkpt lat="46.20995" lon="4.84399">
        <ele>184</ele>
        <time>2017-05-04T13:09:05.000Z</time>
      </trkpt>
      <trkpt lat="46.20995" lon="4.84399">
        <ele>184</ele>
        <time>2017-05-04T13:09:06.000Z</time>
      </trkpt>
      <trkpt lat="46.20995" lon="4.84399">
        <ele>184</ele>
        <time>2017-05-04T13:09:07.000Z</time>
      </trkpt>
      <trkpt lat="46.20995" lon="4.84399">
        <ele>184</ele>
        <time>2017-05-04T13:09:08.000Z</time>
      </trkpt>
      <trkpt lat="46.20995" lon="4.84399">
        <ele>185</ele>
        <time>2017-05-04T13:09:09.000Z</time>
      </trkpt>
      <trkpt lat="46.20994" lon="4.84399">
        <ele>185</ele>
        <time>2017-05-04T13:09:10.000Z</time>
      </trkpt>
      <trkpt lat="46.20994" lon="4.84399">
        <ele>185</ele>
        <time>2017-05-04T13:09:11.000Z</time>
      </trkpt>
      <trkpt lat="46.20994" lon="4.84399">
        <ele>185</ele>
        <time>2017-05-04T13:09:12.000Z</time>
      </trkpt>
      <trkpt lat="46.20994" lon="4.84399">
        <ele>186</ele>
        <time>2017-05-04T13:09:13.000Z</time>
      </trkpt>
      <trkpt lat="46.20994" lon="4.84399">
        <ele>186</ele>
        <time>2017-05-04T13:09:14.000Z</time>
      </trkpt>
      <trkpt lat="46.20994" lon="4.84399">
        <ele>186</ele>
        <time>2017-05-04T13:09:15.000Z</time>
      </trkpt>
      <trkpt lat="46.20994" lon="4.84399">
        <ele>186</ele>
        <time>2017-05-04T13:09:16.000Z</time>
      </trkpt>
      <trkpt lat="46.20995" lon="4.84399">
        <ele>186</ele>
        <time>2017-05-04T13:09:17.000Z</time>
      </trkpt>
      <trkpt lat="46.20995" lon="4.84399">
        <ele>186</ele>
        <time>2017-05-04T13:09:18.000Z</time>
      </trkpt>
      <trkpt lat="46.20995" lon="4.84399">
        <ele>186</ele>
        <time>2017-05-04T13:09:19.000Z</time>
      </trkpt>
      <trkpt lat="46.20995" lon="4.84399">
        <ele>186</ele>
        <time>2017-05-04T13:09:20.000Z</time>
      </trkpt>
      <trkpt lat="46.20995" lon="4.84399">
        <ele>186</ele>
        <time>2017-05-04T13:09:21.000Z</time>
      </trkpt>
      <trkpt lat="46.20995" lon="4.84399">
        <ele>186</ele>
        <time>2017-05-04T13:09:22.000Z</time>
      </trkpt>
      <trkpt lat="46.20995" lon="4.84399">
        <ele>186</ele>
        <time>2017-05-04T13:09:23.000Z</time>
      </trkpt>
      <trkpt lat="46.20995" lon="4.84399">
        <ele>186</ele>
        <time>2017-05-04T13:09:24.000Z</time>
      </trkpt>
      <trkpt lat="46.20995" lon="4.84399">
        <ele>186</ele>
        <time>2017-05-04T13:09:25.000Z</time>
      </trkpt>
      <trkpt lat="46.20995" lon="4.84399">
        <ele>186</ele>
        <time>2017-05-04T13:09:26.000Z</time>
      </trkpt>
      <trkpt lat="46.20995" lon="4.84399">
        <ele>186</ele>
        <time>2017-05-04T13:09:27.000Z</time>
      </trkpt>
      <trkpt lat="46.20995" lon="4.84399">
        <ele>186</ele>
        <time>2017-05-04T13:09:28.000Z</time>
      </trkpt>
      <trkpt lat="46.20995" lon="4.84399">
        <ele>186</ele>
        <time>2017-05-04T13:09:29.000Z</time>
      </trkpt>
      <trkpt lat="46.20995" lon="4.84399">
        <ele>186</ele>
        <time>2017-05-04T13:09:30.000Z</time>
      </trkpt>
      <trkpt lat="46.20995" lon="4.844">
        <ele>185</ele>
        <time>2017-05-04T13:09:31.000Z</time>
      </trkpt>
      <trkpt lat="46.20995" lon="4.844">
        <ele>185</ele>
        <time>2017-05-04T13:09:32.000Z</time>
      </trkpt>
      <trkpt lat="46.20995" lon="4.844">
        <ele>185</ele>
        <time>2017-05-04T13:09:33.000Z</time>
      </trkpt>
      <trkpt lat="46.20995" lon="4.844">
        <ele>185</ele>
        <time>2017-05-04T13:09:34.000Z</time>
      </trkpt>
      <trkpt lat="46.20995" lon="4.844">
        <ele>185</ele>
        <time>2017-05-04T13:09:35.000Z</time>
      </trkpt>
      <trkpt lat="46.20995" lon="4.844">
        <ele>185</ele>
        <time>2017-05-04T13:09:36.000Z</time>
      </trkpt>
      <trkpt lat="46.20995" lon="4.844">
        <ele>185</ele>
        <time>2017-05-04T13:09:37.000Z</time>
      </trkpt>
      <trkpt lat="46.20995" lon="4.84399">
        <ele>186</ele>
        <time>2017-05-04T13:09:38.000Z</time>
      </trkpt>
      <trkpt lat="46.20995" lon="4.84399">
        <ele>186</ele>
        <time>2017-05-04T13:09:39.000Z</time>
      </trkpt>
      <trkpt lat="46.20995" lon="4.84399">
        <ele>186</ele>
        <time>2017-05-04T13:09:40.000Z</time>
      </trkpt>
      <trkpt lat="46.20995" lon="4.84399">
        <ele>186</ele>
        <time>2017-05-04T13:09:41.000Z</time>
      </trkpt>
      <trkpt lat="46.20994" lon="4.84399">
        <ele>186</ele>
        <time>2017-05-04T13:09:42.000Z</time>
      </trkpt>
      <trkpt lat="46.20994" lon="4.84399">
        <ele>186</ele>
        <time>2017-05-04T13:09:43.000Z</time>
      </trkpt>
      <trkpt lat="46.20994" lon="4.84399">
        <ele>185</ele>
        <time>2017-05-04T13:09:44.000Z</time>
      </trkpt>
      <trkpt lat="46.20994" lon="4.84399">
        <ele>185</ele>
        <time>2017-05-04T13:09:45.000Z</time>
      </trkpt>
      <trkpt lat="46.20994" lon="4.84399">
        <ele>185</ele>
        <time>2017-05-04T13:09:46.000Z</time>
      </trkpt>
      <trkpt lat="46.20994" lon="4.84399">
        <ele>185</ele>
        <time>2017-05-04T13:09:47.000Z</time>
      </trkpt>
      <trkpt lat="46.20994" lon="4.844">
        <ele>185</ele>
        <time>2017-05-04T13:09:48.000Z</time>
      </trkpt>
      <trkpt lat="46.20994" lon="4.844">
        <ele>185</ele>
        <time>2017-05-04T13:09:49.000Z</time>
      </trkpt>
      <trkpt lat="46.20994" lon="4.844">
        <ele>184</ele>
        <time>2017-05-04T13:09:50.000Z</time>
      </trkpt>
      <trkpt lat="46.20994" lon="4.844">
        <ele>184</ele>
        <time>2017-05-04T13:09:51.000Z</time>
      </trkpt>
      <trkpt lat="46.20994" lon="4.844">
        <ele>184</ele>
        <time>2017-05-04T13:09:52.000Z</time>
      </trkpt>
      <trkpt lat="46.20994" lon="4.844">
        <ele>184</ele>
        <time>2017-05-04T13:09:53.000Z</time>
      </trkpt>
      <trkpt lat="46.20994" lon="4.844">
        <ele>184</ele>
        <time>2017-05-04T13:09:54.000Z</time>
      </trkpt>
      <trkpt lat="46.20994" lon="4.844">
        <ele>184</ele>
        <time>2017-05-04T13:09:55.000Z</time>
      </trkpt>
      <trkpt lat="46.20994" lon="4.84399">
        <ele>184</ele>
        <time>2017-05-04T13:09:56.000Z</time>
      </trkpt>
      <trkpt lat="46.20994" lon="4.84399">
        <ele>184</ele>
        <time>2017-05-04T13:09:57.000Z</time>
      </trkpt>
      <trkpt lat="46.20994" lon="4.84399">
        <ele>185</ele>
        <time>2017-05-04T13:09:58.000Z</time>
      </trkpt>
      <trkpt lat="46.20994" lon="4.844">
        <ele>184</ele>
        <time>2017-05-04T13:09:59.000Z</time>
      </trkpt>
      <trkpt lat="46.20994" lon="4.844">
        <ele>184</ele>
        <time>2017-05-04T13:10:00.000Z</time>
      </trkpt>
      <trkpt lat="46.20993" lon="4.844">
        <ele>184</ele>
        <time>2017-05-04T13:10:01.000Z</time>
      </trkpt>
      <trkpt lat="46.20993" lon="4.844">
        <ele>184</ele>
        <time>2017-05-04T13:10:02.000Z</time>
      </trkpt>
      <trkpt lat="46.20993" lon="4.844">
        <ele>184</ele>
        <time>2017-05-04T13:10:03.000Z</time>
      </trkpt>
      <trkpt lat="46.20993" lon="4.84399">
        <ele>184</ele>
        <time>2017-05-04T13:10:04.000Z</time>
      </trkpt>
      <trkpt lat="46.20993" lon="4.84399">
        <ele>184</ele>
        <time>2017-05-04T13:10:05.000Z</time>
      </trkpt>
      <trkpt lat="46.20993" lon="4.84399">
        <ele>184</ele>
        <time>2017-05-04T13:10:06.000Z</time>
      </trkpt>
      <trkpt lat="46.20993" lon="4.844">
        <ele>184</ele>
        <time>2017-05-04T13:10:07.000Z</time>
      </trkpt>
      <trkpt lat="46.20993" lon="4.84399">
        <ele>184</ele>
        <time>2017-05-04T13:10:08.000Z</time>
      </trkpt>
      <trkpt lat="46.20993" lon="4.84399">
        <ele>184</ele>
        <time>2017-05-04T13:10:09.000Z</time>
      </trkpt>
      <trkpt lat="46.20994" lon="4.84399">
        <ele>184</ele>
        <time>2017-05-04T13:10:10.000Z</time>
      </trkpt>
      <trkpt lat="46.20994" lon="4.84399">
        <ele>185</ele>
        <time>2017-05-04T13:10:11.000Z</time>
      </trkpt>
      <trkpt lat="46.20993" lon="4.84399">
        <ele>185</ele>
        <time>2017-05-04T13:10:12.000Z</time>
      </trkpt>
      <trkpt lat="46.20993" lon="4.84399">
        <ele>185</ele>
        <time>2017-05-04T13:10:13.000Z</time>
      </trkpt>
      <trkpt lat="46.20993" lon="4.84399">
        <ele>185</ele>
        <time>2017-05-04T13:10:14.000Z</time>
      </trkpt>
      <trkpt lat="46.20993" lon="4.844">
        <ele>185</ele>
        <time>2017-05-04T13:10:15.000Z</time>
      </trkpt>
      <trkpt lat="46.20993" lon="4.844">
        <ele>185</ele>
        <time>2017-05-04T13:10:16.000Z</time>
      </trkpt>
      <trkpt lat="46.20993" lon="4.844">
        <ele>185</ele>
        <time>2017-05-04T13:10:17.000Z</time>
      </trkpt>
      <trkpt lat="46.20993" lon="4.844">
        <ele>185</ele>
        <time>2017-05-04T13:10:18.000Z</time>
      </trkpt>
      <trkpt lat="46.20994" lon="4.844">
        <ele>185</ele>
        <time>2017-05-04T13:10:19.000Z</time>
      </trkpt>
      <trkpt lat="46.20994" lon="4.844">
        <ele>185</ele>
        <time>2017-05-04T13:10:20.000Z</time>
      </trkpt>
      <trkpt lat="46.20994" lon="4.84399">
        <ele>186</ele>
        <time>2017-05-04T13:10:21.000Z</time>
      </trkpt>
      <trkpt lat="46.20994" lon="4.84399">
        <ele>186</ele>
        <time>2017-05-04T13:10:22.000Z</time>
      </trkpt>
      <trkpt lat="46.20994" lon="4.84399">
        <ele>186</ele>
        <time>2017-05-04T13:10:23.000Z</time>
      </trkpt>
      <trkpt lat="46.20994" lon="4.84399">
        <ele>186</ele>
        <time>2017-05-04T13:10:24.000Z</time>
      </trkpt>
      <trkpt lat="46.20994" lon="4.84399">
        <ele>186</ele>
        <time>2017-05-04T13:10:25.000Z</time>
      </trkpt>
      <trkpt lat="46.20994" lon="4.84399">
        <ele>187</ele>
        <time>2017-05-04T13:10:26.000Z</time>
      </trkpt>
      <trkpt lat="46.20994" lon="4.84399">
        <ele>187</ele>
        <time>2017-05-04T13:10:27.000Z</time>
      </trkpt>
      <trkpt lat="46.20994" lon="4.84399">
        <ele>187</ele>
        <time>2017-05-04T13:10:28.000Z</time>
      </trkpt>
      <trkpt lat="46.20994" lon="4.84399">
        <ele>187</ele>
        <time>2017-05-04T13:10:29.000Z</time>
      </trkpt>
      <trkpt lat="46.20994" lon="4.84399">
        <ele>187</ele>
        <time>2017-05-04T13:10:30.000Z</time>
      </trkpt>
      <trkpt lat="46.20994" lon="4.84399">
        <ele>187</ele>
        <time>2017-05-04T13:10:31.000Z</time>
      </trkpt>
      <trkpt lat="46.20995" lon="4.84399">
        <ele>187</ele>
        <time>2017-05-04T13:10:32.000Z</time>
      </trkpt>
      <trkpt lat="46.20995" lon="4.84399">
        <ele>188</ele>
        <time>2017-05-04T13:10:33.000Z</time>
      </trkpt>
      <trkpt lat="46.20995" lon="4.84399">
        <ele>188</ele>
        <time>2017-05-04T13:10:34.000Z</time>
      </trkpt>
      <trkpt lat="46.20995" lon="4.844">
        <ele>188</ele>
        <time>2017-05-04T13:10:35.000Z</time>
      </trkpt>
      <trkpt lat="46.20995" lon="4.844">
        <ele>188</ele>
        <time>2017-05-04T13:10:36.000Z</time>
      </trkpt>
      <trkpt lat="46.20995" lon="4.844">
        <ele>189</ele>
        <time>2017-05-04T13:10:37.000Z</time>
      </trkpt>
      <trkpt lat="46.20995" lon="4.844">
        <ele>189</ele>
        <time>2017-05-04T13:10:38.000Z</time>
      </trkpt>
      <trkpt lat="46.20995" lon="4.844">
        <ele>189</ele>
        <time>2017-05-04T13:10:39.000Z</time>
      </trkpt>
      <trkpt lat="46.20995" lon="4.844">
        <ele>189</ele>
        <time>2017-05-04T13:10:40.000Z</time>
      </trkpt>
      <trkpt lat="46.20995" lon="4.844">
        <ele>189</ele>
        <time>2017-05-04T13:10:41.000Z</time>
      </trkpt>
      <trkpt lat="46.20995" lon="4.844">
        <ele>189</ele>
        <time>2017-05-04T13:10:42.000Z</time>
      </trkpt>
      <trkpt lat="46.20995" lon="4.844">
        <ele>189</ele>
        <time>2017-05-04T13:10:43.000Z</time>
      </trkpt>
      <trkpt lat="46.20996" lon="4.844">
        <ele>189</ele>
        <time>2017-05-04T13:10:44.000Z</time>
      </trkpt>
      <trkpt lat="46.20996" lon="4.844">
        <ele>189</ele>
        <time>2017-05-04T13:10:45.000Z</time>
      </trkpt>
      <trkpt lat="46.20996" lon="4.844">
        <ele>190</ele>
        <time>2017-05-04T13:10:46.000Z</time>
      </trkpt>
      <trkpt lat="46.20996" lon="4.84401">
        <ele>189</ele>
        <time>2017-05-04T13:10:47.000Z</time>
      </trkpt>
      <trkpt lat="46.20996" lon="4.84401">
        <ele>189</ele>
        <time>2017-05-04T13:10:48.000Z</time>
      </trkpt>
      <trkpt lat="46.20996" lon="4.84401">
        <ele>189</ele>
        <time>2017-05-04T13:10:49.000Z</time>
      </trkpt>
      <trkpt lat="46.20997" lon="4.84401">
        <ele>189</ele>
        <time>2017-05-04T13:10:50.000Z</time>
      </trkpt>
      <trkpt lat="46.20997" lon="4.84401">
        <ele>189</ele>
        <time>2017-05-04T13:10:51.000Z</time>
      </trkpt>
      <trkpt lat="46.20997" lon="4.84402">
        <ele>189</ele>
        <time>2017-05-04T13:10:52.000Z</time>
      </trkpt>
      <trkpt lat="46.20998" lon="4.84402">
        <ele>189</ele>
        <time>2017-05-04T13:10:53.000Z</time>
      </trkpt>
      <trkpt lat="46.20998" lon="4.84402">
        <ele>189</ele>
        <time>2017-05-04T13:10:54.000Z</time>
      </trkpt>
      <trkpt lat="46.20998" lon="4.84403">
        <ele>189</ele>
        <time>2017-05-04T13:10:55.000Z</time>
      </trkpt>
      <trkpt lat="46.20998" lon="4.84403">
        <ele>189</ele>
        <time>2017-05-04T13:10:56.000Z</time>
      </trkpt>
      <trkpt lat="46.20998" lon="4.84403">
        <ele>188</ele>
        <time>2017-05-04T13:10:57.000Z</time>
      </trkpt>
      <trkpt lat="46.20998" lon="4.84403">
        <ele>188</ele>
        <time>2017-05-04T13:10:58.000Z</time>
      </trkpt>
      <trkpt lat="46.20998" lon="4.84403">
        <ele>188</ele>
        <time>2017-05-04T13:10:59.000Z</time>
      </trkpt>
      <trkpt lat="46.20998" lon="4.84403">
        <ele>188</ele>
        <time>2017-05-04T13:11:00.000Z</time>
      </trkpt>
      <trkpt lat="46.20998" lon="4.84403">
        <ele>188</ele>
        <time>2017-05-04T13:11:01.000Z</time>
      </trkpt>
      <trkpt lat="46.20998" lon="4.84403">
        <ele>188</ele>
        <time>2017-05-04T13:11:02.000Z</time>
      </trkpt>
      <trkpt lat="46.20998" lon="4.84403">
        <ele>188</ele>
        <time>2017-05-04T13:11:03.000Z</time>
      </trkpt>
      <trkpt lat="46.20997" lon="4.84402">
        <ele>188</ele>
        <time>2017-05-04T13:11:04.000Z</time>
      </trkpt>
      <trkpt lat="46.20997" lon="4.84402">
        <ele>188</ele>
        <time>2017-05-04T13:11:05.000Z</time>
      </trkpt>
      <trkpt lat="46.20996" lon="4.84401">
        <ele>187</ele>
        <time>2017-05-04T13:11:06.000Z</time>
      </trkpt>
      <trkpt lat="46.20996" lon="4.84401">
        <ele>187</ele>
        <time>2017-05-04T13:11:07.000Z</time>
      </trkpt>
      <trkpt lat="46.20996" lon="4.84401">
        <ele>187</ele>
        <time>2017-05-04T13:11:08.000Z</time>
      </trkpt>
      <trkpt lat="46.20995" lon="4.84401">
        <ele>187</ele>
        <time>2017-05-04T13:11:09.000Z</time>
      </trkpt>
      <trkpt lat="46.20995" lon="4.84401">
        <ele>187</ele>
        <time>2017-05-04T13:11:10.000Z</time>
      </trkpt>
      <trkpt lat="46.20995" lon="4.84401">
        <ele>187</ele>
        <time>2017-05-04T13:11:11.000Z</time>
      </trkpt>
      <trkpt lat="46.20996" lon="4.84401">
        <ele>187</ele>
        <time>2017-05-04T13:11:12.000Z</time>
      </trkpt>
      <trkpt lat="46.20996" lon="4.84401">
        <ele>188</ele>
        <time>2017-05-04T13:11:13.000Z</time>
      </trkpt>
      <trkpt lat="46.20996" lon="4.84401">
        <ele>187</ele>
        <time>2017-05-04T13:11:14.000Z</time>
      </trkpt>
      <trkpt lat="46.20996" lon="4.84401">
        <ele>187</ele>
        <time>2017-05-04T13:11:15.000Z</time>
      </trkpt>
      <trkpt lat="46.20996" lon="4.84401">
        <ele>187</ele>
        <time>2017-05-04T13:11:16.000Z</time>
      </trkpt>
      <trkpt lat="46.20996" lon="4.84401">
        <ele>186</ele>
        <time>2017-05-04T13:11:17.000Z</time>
      </trkpt>
      <trkpt lat="46.20996" lon="4.84401">
        <ele>186</ele>
        <time>2017-05-04T13:11:18.000Z</time>
      </trkpt>
      <trkpt lat="46.20996" lon="4.84401">
        <ele>186</ele>
        <time>2017-05-04T13:11:19.000Z</time>
      </trkpt>
      <trkpt lat="46.20997" lon="4.84401">
        <ele>186</ele>
        <time>2017-05-04T13:11:20.000Z</time>
      </trkpt>
      <trkpt lat="46.20997" lon="4.84402">
        <ele>186</ele>
        <time>2017-05-04T13:11:21.000Z</time>
      </trkpt>
      <trkpt lat="46.20997" lon="4.84402">
        <ele>186</ele>
        <time>2017-05-04T13:11:22.000Z</time>
      </trkpt>
      <trkpt lat="46.20997" lon="4.84402">
        <ele>186</ele>
        <time>2017-05-04T13:11:23.000Z</time>
      </trkpt>
      <trkpt lat="46.20998" lon="4.84402">
        <ele>186</ele>
        <time>2017-05-04T13:11:24.000Z</time>
      </trkpt>
      <trkpt lat="46.20998" lon="4.84403">
        <ele>186</ele>
        <time>2017-05-04T13:11:25.000Z</time>
      </trkpt>
      <trkpt lat="46.20998" lon="4.84403">
        <ele>186</ele>
        <time>2017-05-04T13:11:26.000Z</time>
      </trkpt>
      <trkpt lat="46.20997" lon="4.84403">
        <ele>185</ele>
        <time>2017-05-04T13:11:27.000Z</time>
      </trkpt>
      <trkpt lat="46.20997" lon="4.84403">
        <ele>185</ele>
        <time>2017-05-04T13:11:28.000Z</time>
      </trkpt>
      <trkpt lat="46.20997" lon="4.84403">
        <ele>185</ele>
        <time>2017-05-04T13:11:29.000Z</time>
      </trkpt>
      <trkpt lat="46.20997" lon="4.84403">
        <ele>185</ele>
        <time>2017-05-04T13:11:30.000Z</time>
      </trkpt>
      <trkpt lat="46.20997" lon="4.84403">
        <ele>185</ele>
        <time>2017-05-04T13:11:31.000Z</time>
      </trkpt>
      <trkpt lat="46.20997" lon="4.84403">
        <ele>185</ele>
        <time>2017-05-04T13:11:32.000Z</time>
      </trkpt>
      <trkpt lat="46.20996" lon="4.84403">
        <ele>184</ele>
        <time>2017-05-04T13:11:33.000Z</time>
      </trkpt>
      <trkpt lat="46.20996" lon="4.84403">
        <ele>184</ele>
        <time>2017-05-04T13:11:34.000Z</time>
      </trkpt>
      <trkpt lat="46.20996" lon="4.84404">
        <ele>184</ele>
        <time>2017-05-04T13:11:35.000Z</time>
      </trkpt>
      <trkpt lat="46.20995" lon="4.84404">
        <ele>184</ele>
        <time>2017-05-04T13:11:36.000Z</time>
      </trkpt>
      <trkpt lat="46.20995" lon="4.84404">
        <ele>184</ele>
        <time>2017-05-04T13:11:37.000Z</time>
      </trkpt>
      <trkpt lat="46.20995" lon="4.84404">
        <ele>184</ele>
        <time>2017-05-04T13:11:38.000Z</time>
      </trkpt>
      <trkpt lat="46.20995" lon="4.84404">
        <ele>185</ele>
        <time>2017-05-04T13:11:39.000Z</time>
      </trkpt>
      <trkpt lat="46.20995" lon="4.84403">
        <ele>185</ele>
        <time>2017-05-04T13:11:40.000Z</time>
      </trkpt>
      <trkpt lat="46.20995" lon="4.84404">
        <ele>185</ele>
        <time>2017-05-04T13:11:41.000Z</time>
      </trkpt>
      <trkpt lat="46.20995" lon="4.84404">
        <ele>185</ele>
        <time>2017-05-04T13:11:42.000Z</time>
      </trkpt>
      <trkpt lat="46.20995" lon="4.84404">
        <ele>185</ele>
        <time>2017-05-04T13:11:43.000Z</time>
      </trkpt>
      <trkpt lat="46.20995" lon="4.84404">
        <ele>185</ele>
        <time>2017-05-04T13:11:44.000Z</time>
      </trkpt>
      <trkpt lat="46.20995" lon="4.84404">
        <ele>185</ele>
        <time>2017-05-04T13:11:45.000Z</time>
      </trkpt>
      <trkpt lat="46.20995" lon="4.84404">
        <ele>186</ele>
        <time>2017-05-04T13:11:46.000Z</time>
      </trkpt>
      <trkpt lat="46.20996" lon="4.84404">
        <ele>186</ele>
        <time>2017-05-04T13:11:47.000Z</time>
      </trkpt>
      <trkpt lat="46.20996" lon="4.84404">
        <ele>186</ele>
        <time>2017-05-04T13:11:48.000Z</time>
      </trkpt>
      <trkpt lat="46.20996" lon="4.84404">
        <ele>186</ele>
        <time>2017-05-04T13:11:49.000Z</time>
      </trkpt>
      <trkpt lat="46.20996" lon="4.84404">
        <ele>186</ele>
        <time>2017-05-04T13:11:50.000Z</time>
      </trkpt>
      <trkpt lat="46.20996" lon="4.84404">
        <ele>186</ele>
        <time>2017-05-04T13:11:51.000Z</time>
      </trkpt>
      <trkpt lat="46.20996" lon="4.84404">
        <ele>186</ele>
        <time>2017-05-04T13:11:52.000Z</time>
      </trkpt>
      <trkpt lat="46.20996" lon="4.84404">
        <ele>186</ele>
        <time>2017-05-04T13:11:53.000Z</time>
      </trkpt>
      <trkpt lat="46.20996" lon="4.84404">
        <ele>186</ele>
        <time>2017-05-04T13:11:54.000Z</time>
      </trkpt>
      <trkpt lat="46.20996" lon="4.84404">
        <ele>186</ele>
        <time>2017-05-04T13:11:55.000Z</time>
      </trkpt>
      <trkpt lat="46.20997" lon="4.84404">
        <ele>186</ele>
        <time>2017-05-04T13:11:56.000Z</time>
      </trkpt>
      <trkpt lat="46.20997" lon="4.84404">
        <ele>186</ele>
        <time>2017-05-04T13:11:57.000Z</time>
      </trkpt>
      <trkpt lat="46.20997" lon="4.84404">
        <ele>186</ele>
        <time>2017-05-04T13:11:58.000Z</time>
      </trkpt>
      <trkpt lat="46.20998" lon="4.84404">
        <ele>186</ele>
        <time>2017-05-04T13:11:59.000Z</time>
      </trkpt>
      <trkpt lat="46.20998" lon="4.84404">
        <ele>187</ele>
        <time>2017-05-04T13:12:00.000Z</time>
      </trkpt>
      <trkpt lat="46.20998" lon="4.84403">
        <ele>187</ele>
        <time>2017-05-04T13:12:01.000Z</time>
      </trkpt>
      <trkpt lat="46.20998" lon="4.84404">
        <ele>186</ele>
        <time>2017-05-04T13:12:02.000Z</time>
      </trkpt>
      <trkpt lat="46.20997" lon="4.84404">
        <ele>186</ele>
        <time>2017-05-04T13:12:03.000Z</time>
      </trkpt>
      <trkpt lat="46.20997" lon="4.84405">
        <ele>186</ele>
        <time>2017-05-04T13:12:04.000Z</time>
      </trkpt>
      <trkpt lat="46.20996" lon="4.84405">
        <ele>186</ele>
        <time>2017-05-04T13:12:05.000Z</time>
      </trkpt>
      <trkpt lat="46.20996" lon="4.84406">
        <ele>186</ele>
        <time>2017-05-04T13:12:06.000Z</time>
      </trkpt>
      <trkpt lat="46.20996" lon="4.84406">
        <ele>186</ele>
        <time>2017-05-04T13:12:07.000Z</time>
      </trkpt>
      <trkpt lat="46.20996" lon="4.84406">
        <ele>186</ele>
        <time>2017-05-04T13:12:08.000Z</time>
      </trkpt>
      <trkpt lat="46.20996" lon="4.84406">
        <ele>186</ele>
        <time>2017-05-04T13:12:09.000Z</time>
      </trkpt>
      <trkpt lat="46.20996" lon="4.84406">
        <ele>186</ele>
        <time>2017-05-04T13:12:10.000Z</time>
      </trkpt>
      <trkpt lat="46.20996" lon="4.84406">
        <ele>187</ele>
        <time>2017-05-04T13:12:11.000Z</time>
      </trkpt>
      <trkpt lat="46.20996" lon="4.84406">
        <ele>187</ele>
        <time>2017-05-04T13:12:12.000Z</time>
      </trkpt>
      <trkpt lat="46.20996" lon="4.84405">
        <ele>187</ele>
        <time>2017-05-04T13:12:13.000Z</time>
      </trkpt>
      <trkpt lat="46.20996" lon="4.84405">
        <ele>187</ele>
        <time>2017-05-04T13:12:14.000Z</time>
      </trkpt>
      <trkpt lat="46.20996" lon="4.84405">
        <ele>187</ele>
        <time>2017-05-04T13:12:15.000Z</time>
      </trkpt>
      <trkpt lat="46.20996" lon="4.84405">
        <ele>187</ele>
        <time>2017-05-04T13:12:16.000Z</time>
      </trkpt>
      <trkpt lat="46.20996" lon="4.84405">
        <ele>187</ele>
        <time>2017-05-04T13:12:17.000Z</time>
      </trkpt>
      <trkpt lat="46.20996" lon="4.84404">
        <ele>186</ele>
        <time>2017-05-04T13:12:18.000Z</time>
      </trkpt>
      <trkpt lat="46.20996" lon="4.84404">
        <ele>186</ele>
        <time>2017-05-04T13:12:19.000Z</time>
      </trkpt>
      <trkpt lat="46.20996" lon="4.84404">
        <ele>186</ele>
        <time>2017-05-04T13:12:20.000Z</time>
      </trkpt>
      <trkpt lat="46.20996" lon="4.84404">
        <ele>186</ele>
        <time>2017-05-04T13:12:21.000Z</time>
      </trkpt>
      <trkpt lat="46.20996" lon="4.84403">
        <ele>186</ele>
        <time>2017-05-04T13:12:22.000Z</time>
      </trkpt>
      <trkpt lat="46.20997" lon="4.84403">
        <ele>186</ele>
        <time>2017-05-04T13:12:23.000Z</time>
      </trkpt>
      <trkpt lat="46.20997" lon="4.84403">
        <ele>186</ele>
        <time>2017-05-04T13:12:24.000Z</time>
      </trkpt>
      <trkpt lat="46.20997" lon="4.84403">
        <ele>186</ele>
        <time>2017-05-04T13:12:25.000Z</time>
      </trkpt>
      <trkpt lat="46.20997" lon="4.84403">
        <ele>186</ele>
        <time>2017-05-04T13:12:26.000Z</time>
      </trkpt>
      <trkpt lat="46.20996" lon="4.84403">
        <ele>186</ele>
        <time>2017-05-04T13:12:27.000Z</time>
      </trkpt>
      <trkpt lat="46.20996" lon="4.84404">
        <ele>186</ele>
        <time>2017-05-04T13:12:28.000Z</time>
      </trkpt>
      <trkpt lat="46.20996" lon="4.84404">
        <ele>186</ele>
        <time>2017-05-04T13:12:29.000Z</time>
      </trkpt>
      <trkpt lat="46.20996" lon="4.84404">
        <ele>186</ele>
        <time>2017-05-04T13:12:30.000Z</time>
      </trkpt>
      <trkpt lat="46.20996" lon="4.84404">
        <ele>186</ele>
        <time>2017-05-04T13:12:31.000Z</time>
      </trkpt>
      <trkpt lat="46.20996" lon="4.84404">
        <ele>187</ele>
        <time>2017-05-04T13:12:32.000Z</time>
      </trkpt>
      <trkpt lat="46.20996" lon="4.84404">
        <ele>187</ele>
        <time>2017-05-04T13:12:33.000Z</time>
      </trkpt>
      <trkpt lat="46.20997" lon="4.84404">
        <ele>188</ele>
        <time>2017-05-04T13:12:34.000Z</time>
      </trkpt>
      <trkpt lat="46.20997" lon="4.84404">
        <ele>188</ele>
        <time>2017-05-04T13:12:35.000Z</time>
      </trkpt>
      <trkpt lat="46.20997" lon="4.84404">
        <ele>188</ele>
        <time>2017-05-04T13:12:36.000Z</time>
      </trkpt>
      <trkpt lat="46.20997" lon="4.84404">
        <ele>188</ele>
        <time>2017-05-04T13:12:37.000Z</time>
      </trkpt>
      <trkpt lat="46.20997" lon="4.84404">
        <ele>188</ele>
        <time>2017-05-04T13:12:38.000Z</time>
      </trkpt>
      <trkpt lat="46.20997" lon="4.84404">
        <ele>189</ele>
        <time>2017-05-04T13:12:39.000Z</time>
      </trkpt>
      <trkpt lat="46.20997" lon="4.84404">
        <ele>189</ele>
        <time>2017-05-04T13:12:40.000Z</time>
      </trkpt>
      <trkpt lat="46.20997" lon="4.84404">
        <ele>189</ele>
        <time>2017-05-04T13:12:41.000Z</time>
      </trkpt>
      <trkpt lat="46.20997" lon="4.84404">
        <ele>189</ele>
        <time>2017-05-04T13:12:42.000Z</time>
      </trkpt>
      <trkpt lat="46.20997" lon="4.84404">
        <ele>189</ele>
        <time>2017-05-04T13:12:43.000Z</time>
      </trkpt>
      <trkpt lat="46.20996" lon="4.84404">
        <ele>189</ele>
        <time>2017-05-04T13:12:44.000Z</time>
      </trkpt>
      <trkpt lat="46.20996" lon="4.84404">
        <ele>189</ele>
        <time>2017-05-04T13:12:45.000Z</time>
      </trkpt>
      <trkpt lat="46.20996" lon="4.84403">
        <ele>189</ele>
        <time>2017-05-04T13:12:46.000Z</time>
      </trkpt>
      <trkpt lat="46.20996" lon="4.84403">
        <ele>189</ele>
        <time>2017-05-04T13:12:47.000Z</time>
      </trkpt>
      <trkpt lat="46.20996" lon="4.84403">
        <ele>190</ele>
        <time>2017-05-04T13:12:48.000Z</time>
      </trkpt>
      <trkpt lat="46.20996" lon="4.84403">
        <ele>190</ele>
        <time>2017-05-04T13:12:49.000Z</time>
      </trkpt>
      <trkpt lat="46.20996" lon="4.84403">
        <ele>190</ele>
        <time>2017-05-04T13:12:50.000Z</time>
      </trkpt>
      <trkpt lat="46.20996" lon="4.84403">
        <ele>190</ele>
        <time>2017-05-04T13:12:51.000Z</time>
      </trkpt>
      <trkpt lat="46.20996" lon="4.84403">
        <ele>190</ele>
        <time>2017-05-04T13:12:52.000Z</time>
      </trkpt>
      <trkpt lat="46.20996" lon="4.84403">
        <ele>190</ele>
        <time>2017-05-04T13:12:53.000Z</time>
      </trkpt>
      <trkpt lat="46.20996" lon="4.84403">
        <ele>190</ele>
        <time>2017-05-04T13:12:54.000Z</time>
      </trkpt>
      <trkpt lat="46.20996" lon="4.84403">
        <ele>190</ele>
        <time>2017-05-04T13:12:55.000Z</time>
      </trkpt>
      <trkpt lat="46.20996" lon="4.84403">
        <ele>190</ele>
        <time>2017-05-04T13:12:56.000Z</time>
      </trkpt>
      <trkpt lat="46.20996" lon="4.84404">
        <ele>190</ele>
        <time>2017-05-04T13:12:57.000Z</time>
      </trkpt>
      <trkpt lat="46.20996" lon="4.84404">
        <ele>190</ele>
        <time>2017-05-04T13:12:58.000Z</time>
      </trkpt>
      <trkpt lat="46.20996" lon="4.84403">
        <ele>190</ele>
        <time>2017-05-04T13:12:59.000Z</time>
      </trkpt>
      <trkpt lat="46.20997" lon="4.84403">
        <ele>189</ele>
        <time>2017-05-04T13:13:00.000Z</time>
      </trkpt>
      <trkpt lat="46.20997" lon="4.84403">
        <ele>190</ele>
        <time>2017-05-04T13:13:01.000Z</time>
      </trkpt>
      <trkpt lat="46.20997" lon="4.84403">
        <ele>188</ele>
        <time>2017-05-04T13:13:02.000Z</time>
      </trkpt>
      <trkpt lat="46.20997" lon="4.84403">
        <ele>188</ele>
        <time>2017-05-04T13:13:03.000Z</time>
      </trkpt>
      <trkpt lat="46.20997" lon="4.84403">
        <ele>188</ele>
        <time>2017-05-04T13:13:04.000Z</time>
      </trkpt>
      <trkpt lat="46.20996" lon="4.84403">
        <ele>188</ele>
        <time>2017-05-04T13:13:05.000Z</time>
      </trkpt>
      <trkpt lat="46.20997" lon="4.84403">
        <ele>187</ele>
        <time>2017-05-04T13:13:06.000Z</time>
      </trkpt>
      <trkpt lat="46.20997" lon="4.84403">
        <ele>187</ele>
        <time>2017-05-04T13:13:07.000Z</time>
      </trkpt>
      <trkpt lat="46.20997" lon="4.84403">
        <ele>188</ele>
        <time>2017-05-04T13:13:08.000Z</time>
      </trkpt>
      <trkpt lat="46.20997" lon="4.84403">
        <ele>189</ele>
        <time>2017-05-04T13:13:09.000Z</time>
      </trkpt>
      <trkpt lat="46.20998" lon="4.84403">
        <ele>189</ele>
        <time>2017-05-04T13:13:10.000Z</time>
      </trkpt>
      <trkpt lat="46.20998" lon="4.84403">
        <ele>189</ele>
        <time>2017-05-04T13:13:11.000Z</time>
      </trkpt>
      <trkpt lat="46.20997" lon="4.84403">
        <ele>190</ele>
        <time>2017-05-04T13:13:12.000Z</time>
      </trkpt>
      <trkpt lat="46.20997" lon="4.84403">
        <ele>190</ele>
        <time>2017-05-04T13:13:13.000Z</time>
      </trkpt>
      <trkpt lat="46.20997" lon="4.84403">
        <ele>190</ele>
        <time>2017-05-04T13:13:14.000Z</time>
      </trkpt>
      <trkpt lat="46.20997" lon="4.84403">
        <ele>191</ele>
        <time>2017-05-04T13:13:15.000Z</time>
      </trkpt>
      <trkpt lat="46.20997" lon="4.84403">
        <ele>191</ele>
        <time>2017-05-04T13:13:16.000Z</time>
      </trkpt>
      <trkpt lat="46.20997" lon="4.84403">
        <ele>191</ele>
        <time>2017-05-04T13:13:17.000Z</time>
      </trkpt>
      <trkpt lat="46.20997" lon="4.84403">
        <ele>191</ele>
        <time>2017-05-04T13:13:18.000Z</time>
      </trkpt>
      <trkpt lat="46.20997" lon="4.84403">
        <ele>191</ele>
        <time>2017-05-04T13:13:19.000Z</time>
      </trkpt>
      <trkpt lat="46.20997" lon="4.84404">
        <ele>192</ele>
        <time>2017-05-04T13:13:20.000Z</time>
      </trkpt>
      <trkpt lat="46.20996" lon="4.84404">
        <ele>192</ele>
        <time>2017-05-04T13:13:21.000Z</time>
      </trkpt>
      <trkpt lat="46.20996" lon="4.84404">
        <ele>192</ele>
        <time>2017-05-04T13:13:22.000Z</time>
      </trkpt>
      <trkpt lat="46.20996" lon="4.84404">
        <ele>192</ele>
        <time>2017-05-04T13:13:23.000Z</time>
      </trkpt>
      <trkpt lat="46.20996" lon="4.84404">
        <ele>192</ele>
        <time>2017-05-04T13:13:24.000Z</time>
      </trkpt>
      <trkpt lat="46.20996" lon="4.84404">
        <ele>192</ele>
        <time>2017-05-04T13:13:25.000Z</time>
      </trkpt>
      <trkpt lat="46.20996" lon="4.84404">
        <ele>192</ele>
        <time>2017-05-04T13:13:26.000Z</time>
      </trkpt>
      <trkpt lat="46.20995" lon="4.84404">
        <ele>192</ele>
        <time>2017-05-04T13:13:27.000Z</time>
      </trkpt>
      <trkpt lat="46.20995" lon="4.84404">
        <ele>192</ele>
        <time>2017-05-04T13:13:28.000Z</time>
      </trkpt>
      <trkpt lat="46.20995" lon="4.84404">
        <ele>193</ele>
        <time>2017-05-04T13:13:29.000Z</time>
      </trkpt>
      <trkpt lat="46.20995" lon="4.84404">
        <ele>193</ele>
        <time>2017-05-04T13:13:30.000Z</time>
      </trkpt>
      <trkpt lat="46.20995" lon="4.84404">
        <ele>193</ele>
        <time>2017-05-04T13:13:31.000Z</time>
      </trkpt>
      <trkpt lat="46.20995" lon="4.84404">
        <ele>193</ele>
        <time>2017-05-04T13:13:32.000Z</time>
      </trkpt>
      <trkpt lat="46.20995" lon="4.84404">
        <ele>193</ele>
        <time>2017-05-04T13:13:33.000Z</time>
      </trkpt>
      <trkpt lat="46.20995" lon="4.84404">
        <ele>193</ele>
        <time>2017-05-04T13:13:34.000Z</time>
      </trkpt>
      <trkpt lat="46.20995" lon="4.84404">
        <ele>193</ele>
        <time>2017-05-04T13:13:35.000Z</time>
      </trkpt>
      <trkpt lat="46.20995" lon="4.84404">
        <ele>192</ele>
        <time>2017-05-04T13:13:36.000Z</time>
      </trkpt>
      <trkpt lat="46.20995" lon="4.84404">
        <ele>192</ele>
        <time>2017-05-04T13:13:37.000Z</time>
      </trkpt>
      <trkpt lat="46.20995" lon="4.84404">
        <ele>192</ele>
        <time>2017-05-04T13:13:38.000Z</time>
      </trkpt>
      <trkpt lat="46.20995" lon="4.84405">
        <ele>192</ele>
        <time>2017-05-04T13:13:39.000Z</time>
      </trkpt>
      <trkpt lat="46.20995" lon="4.84405">
        <ele>192</ele>
        <time>2017-05-04T13:13:40.000Z</time>
      </trkpt>
      <trkpt lat="46.20995" lon="4.84405">
        <ele>192</ele>
        <time>2017-05-04T13:13:41.000Z</time>
      </trkpt>
      <trkpt lat="46.20995" lon="4.84405">
        <ele>193</ele>
        <time>2017-05-04T13:13:42.000Z</time>
      </trkpt>
      <trkpt lat="46.20995" lon="4.84405">
        <ele>193</ele>
        <time>2017-05-04T13:13:43.000Z</time>
      </trkpt>
      <trkpt lat="46.20995" lon="4.84405">
        <ele>193</ele>
        <time>2017-05-04T13:13:44.000Z</time>
      </trkpt>
      <trkpt lat="46.20995" lon="4.84405">
        <ele>193</ele>
        <time>2017-05-04T13:13:45.000Z</time>
      </trkpt>
      <trkpt lat="46.20994" lon="4.84405">
        <ele>193</ele>
        <time>2017-05-04T13:13:46.000Z</time>
      </trkpt>
      <trkpt lat="46.20994" lon="4.84404">
        <ele>193</ele>
        <time>2017-05-04T13:13:47.000Z</time>
      </trkpt>
      <trkpt lat="46.20994" lon="4.84404">
        <ele>193</ele>
        <time>2017-05-04T13:13:48.000Z</time>
      </trkpt>
      <trkpt lat="46.20994" lon="4.84405">
        <ele>193</ele>
        <time>2017-05-04T13:13:49.000Z</time>
      </trkpt>
      <trkpt lat="46.20994" lon="4.84405">
        <ele>193</ele>
        <time>2017-05-04T13:13:50.000Z</time>
      </trkpt>
      <trkpt lat="46.20994" lon="4.84405">
        <ele>194</ele>
        <time>2017-05-04T13:13:51.000Z</time>
      </trkpt>
      <trkpt lat="46.20994" lon="4.84405">
        <ele>194</ele>
        <time>2017-05-04T13:13:52.000Z</time>
      </trkpt>
      <trkpt lat="46.20994" lon="4.84405">
        <ele>194</ele>
        <time>2017-05-04T13:13:53.000Z</time>
      </trkpt>
      <trkpt lat="46.20994" lon="4.84405">
        <ele>194</ele>
        <time>2017-05-04T13:13:54.000Z</time>
      </trkpt>
      <trkpt lat="46.20994" lon="4.84405">
        <ele>194</ele>
        <time>2017-05-04T13:13:55.000Z</time>
      </trkpt>
      <trkpt lat="46.20994" lon="4.84405">
        <ele>194</ele>
        <time>2017-05-04T13:13:56.000Z</time>
      </trkpt>
      <trkpt lat="46.20994" lon="4.84405">
        <ele>194</ele>
        <time>2017-05-04T13:13:57.000Z</time>
      </trkpt>
      <trkpt lat="46.20994" lon="4.84405">
        <ele>194</ele>
        <time>2017-05-04T13:13:58.000Z</time>
      </trkpt>
      <trkpt lat="46.20994" lon="4.84405">
        <ele>193</ele>
        <time>2017-05-04T13:13:59.000Z</time>
      </trkpt>
      <trkpt lat="46.20994" lon="4.84404">
        <ele>193</ele>
        <time>2017-05-04T13:14:00.000Z</time>
      </trkpt>
      <trkpt lat="46.20994" lon="4.84404">
        <ele>193</ele>
        <time>2017-05-04T13:14:01.000Z</time>
      </trkpt>
      <trkpt lat="46.20994" lon="4.84404">
        <ele>193</ele>
        <time>2017-05-04T13:14:02.000Z</time>
      </trkpt>
      <trkpt lat="46.20994" lon="4.84404">
        <ele>193</ele>
        <time>2017-05-04T13:14:03.000Z</time>
      </trkpt>
      <trkpt lat="46.20994" lon="4.84404">
        <ele>194</ele>
        <time>2017-05-04T13:14:04.000Z</time>
      </trkpt>
      <trkpt lat="46.20995" lon="4.84404">
        <ele>193</ele>
        <time>2017-05-04T13:14:05.000Z</time>
      </trkpt>
      <trkpt lat="46.20995" lon="4.84404">
        <ele>194</ele>
        <time>2017-05-04T13:14:06.000Z</time>
      </trkpt>
      <trkpt lat="46.20995" lon="4.84404">
        <ele>193</ele>
        <time>2017-05-04T13:14:07.000Z</time>
      </trkpt>
      <trkpt lat="46.20995" lon="4.84404">
        <ele>193</ele>
        <time>2017-05-04T13:14:08.000Z</time>
      </trkpt>
      <trkpt lat="46.20995" lon="4.84404">
        <ele>193</ele>
        <time>2017-05-04T13:14:09.000Z</time>
      </trkpt>
      <trkpt lat="46.20995" lon="4.84404">
        <ele>192</ele>
        <time>2017-05-04T13:14:10.000Z</time>
      </trkpt>
      <trkpt lat="46.20995" lon="4.84404">
        <ele>192</ele>
        <time>2017-05-04T13:14:11.000Z</time>
      </trkpt>
      <trkpt lat="46.20996" lon="4.84404">
        <ele>192</ele>
        <time>2017-05-04T13:14:12.000Z</time>
      </trkpt>
      <trkpt lat="46.20996" lon="4.84404">
        <ele>192</ele>
        <time>2017-05-04T13:14:13.000Z</time>
      </trkpt>
      <trkpt lat="46.20996" lon="4.84403">
        <ele>192</ele>
        <time>2017-05-04T13:14:14.000Z</time>
      </trkpt>
      <trkpt lat="46.20996" lon="4.84403">
        <ele>192</ele>
        <time>2017-05-04T13:14:15.000Z</time>
      </trkpt>
      <trkpt lat="46.20996" lon="4.84403">
        <ele>192</ele>
        <time>2017-05-04T13:14:16.000Z</time>
      </trkpt>
      <trkpt lat="46.20996" lon="4.84403">
        <ele>192</ele>
        <time>2017-05-04T13:14:17.000Z</time>
      </trkpt>
      <trkpt lat="46.20996" lon="4.84403">
        <ele>192</ele>
        <time>2017-05-04T13:14:18.000Z</time>
      </trkpt>
      <trkpt lat="46.20996" lon="4.84403">
        <ele>192</ele>
        <time>2017-05-04T13:14:19.000Z</time>
      </trkpt>
      <trkpt lat="46.20996" lon="4.84403">
        <ele>192</ele>
        <time>2017-05-04T13:14:20.000Z</time>
      </trkpt>
      <trkpt lat="46.20996" lon="4.84403">
        <ele>192</ele>
        <time>2017-05-04T13:14:21.000Z</time>
      </trkpt>
      <trkpt lat="46.20997" lon="4.84403">
        <ele>192</ele>
        <time>2017-05-04T13:14:22.000Z</time>
      </trkpt>
      <trkpt lat="46.20997" lon="4.84403">
        <ele>191</ele>
        <time>2017-05-04T13:14:23.000Z</time>
      </trkpt>
      <trkpt lat="46.20997" lon="4.84403">
        <ele>191</ele>
        <time>2017-05-04T13:14:24.000Z</time>
      </trkpt>
      <trkpt lat="46.20997" lon="4.84403">
        <ele>191</ele>
        <time>2017-05-04T13:14:25.000Z</time>
      </trkpt>
      <trkpt lat="46.20997" lon="4.84403">
        <ele>191</ele>
        <time>2017-05-04T13:14:26.000Z</time>
      </trkpt>
      <trkpt lat="46.20997" lon="4.84403">
        <ele>191</ele>
        <time>2017-05-04T13:14:27.000Z</time>
      </trkpt>
      <trkpt lat="46.20997" lon="4.84403">
        <ele>191</ele>
        <time>2017-05-04T13:14:28.000Z</time>
      </trkpt>
      <trkpt lat="46.20997" lon="4.84403">
        <ele>191</ele>
        <time>2017-05-04T13:14:29.000Z</time>
      </trkpt>
      <trkpt lat="46.20997" lon="4.84403">
        <ele>191</ele>
        <time>2017-05-04T13:14:30.000Z</time>
      </trkpt>
      <trkpt lat="46.20997" lon="4.84403">
        <ele>191</ele>
        <time>2017-05-04T13:14:31.000Z</time>
      </trkpt>
      <trkpt lat="46.20997" lon="4.84403">
        <ele>191</ele>
        <time>2017-05-04T13:14:32.000Z</time>
      </trkpt>
      <trkpt lat="46.20997" lon="4.84403">
        <ele>192</ele>
        <time>2017-05-04T13:14:33.000Z</time>
      </trkpt>
      <trkpt lat="46.20997" lon="4.84403">
        <ele>192</ele>
        <time>2017-05-04T13:14:34.000Z</time>
      </trkpt>
      <trkpt lat="46.20997" lon="4.84403">
        <ele>191</ele>
        <time>2017-05-04T13:14:35.000Z</time>
      </trkpt>
      <trkpt lat="46.20997" lon="4.84403">
        <ele>191</ele>
        <time>2017-05-04T13:14:36.000Z</time>
      </trkpt>
      <trkpt lat="46.20998" lon="4.84403">
        <ele>191</ele>
        <time>2017-05-04T13:14:37.000Z</time>
      </trkpt>
      <trkpt lat="46.20998" lon="4.84403">
        <ele>191</ele>
        <time>2017-05-04T13:14:38.000Z</time>
      </trkpt>
      <trkpt lat="46.20997" lon="4.84403">
        <ele>191</ele>
        <time>2017-05-04T13:14:39.000Z</time>
      </trkpt>
      <trkpt lat="46.20997" lon="4.84403">
        <ele>190</ele>
        <time>2017-05-04T13:14:40.000Z</time>
      </trkpt>
      <trkpt lat="46.20997" lon="4.84403">
        <ele>190</ele>
        <time>2017-05-04T13:14:41.000Z</time>
      </trkpt>
      <trkpt lat="46.20997" lon="4.84403">
        <ele>190</ele>
        <time>2017-05-04T13:14:42.000Z</time>
      </trkpt>
      <trkpt lat="46.20997" lon="4.84403">
        <ele>190</ele>
        <time>2017-05-04T13:14:43.000Z</time>
      </trkpt>
      <trkpt lat="46.20997" lon="4.84403">
        <ele>189</ele>
        <time>2017-05-04T13:14:44.000Z</time>
      </trkpt>
      <trkpt lat="46.20997" lon="4.84403">
        <ele>189</ele>
        <time>2017-05-04T13:14:45.000Z</time>
      </trkpt>
      <trkpt lat="46.20997" lon="4.84403">
        <ele>188</ele>
        <time>2017-05-04T13:14:46.000Z</time>
      </trkpt>
      <trkpt lat="46.20997" lon="4.84403">
        <ele>188</ele>
        <time>2017-05-04T13:14:47.000Z</time>
      </trkpt>
      <trkpt lat="46.20997" lon="4.84403">
        <ele>187</ele>
        <time>2017-05-04T13:14:48.000Z</time>
      </trkpt>
      <trkpt lat="46.20997" lon="4.84403">
        <ele>187</ele>
        <time>2017-05-04T13:14:49.000Z</time>
      </trkpt>
      <trkpt lat="46.20997" lon="4.84403">
        <ele>187</ele>
        <time>2017-05-04T13:14:50.000Z</time>
      </trkpt>
      <trkpt lat="46.20997" lon="4.84403">
        <ele>187</ele>
        <time>2017-05-04T13:14:51.000Z</time>
      </trkpt>
      <trkpt lat="46.20997" lon="4.84403">
        <ele>187</ele>
        <time>2017-05-04T13:14:52.000Z</time>
      </trkpt>
      <trkpt lat="46.20997" lon="4.84403">
        <ele>186</ele>
        <time>2017-05-04T13:14:53.000Z</time>
      </trkpt>
      <trkpt lat="46.20997" lon="4.84403">
        <ele>186</ele>
        <time>2017-05-04T13:14:54.000Z</time>
      </trkpt>
      <trkpt lat="46.20997" lon="4.84403">
        <ele>185</ele>
        <time>2017-05-04T13:14:55.000Z</time>
      </trkpt>
      <trkpt lat="46.20997" lon="4.84403">
        <ele>185</ele>
        <time>2017-05-04T13:14:56.000Z</time>
      </trkpt>
      <trkpt lat="46.20997" lon="4.84402">
        <ele>185</ele>
        <time>2017-05-04T13:14:57.000Z</time>
      </trkpt>
      <trkpt lat="46.20997" lon="4.84402">
        <ele>185</ele>
        <time>2017-05-04T13:14:58.000Z</time>
      </trkpt>
      <trkpt lat="46.20996" lon="4.84402">
        <ele>185</ele>
        <time>2017-05-04T13:14:59.000Z</time>
      </trkpt>
      <trkpt lat="46.20996" lon="4.84401">
        <ele>185</ele>
        <time>2017-05-04T13:15:00.000Z</time>
      </trkpt>
      <trkpt lat="46.20996" lon="4.84401">
        <ele>185</ele>
        <time>2017-05-04T13:15:01.000Z</time>
      </trkpt>
      <trkpt lat="46.20996" lon="4.84399">
        <ele>185</ele>
        <time>2017-05-04T13:15:02.000Z</time>
      </trkpt>
      <trkpt lat="46.20996" lon="4.84398">
        <ele>186</ele>
        <time>2017-05-04T13:15:03.000Z</time>
      </trkpt>
      <trkpt lat="46.20995" lon="4.84398">
        <ele>186</ele>
        <time>2017-05-04T13:15:04.000Z</time>
      </trkpt>
      <trkpt lat="46.20994" lon="4.84397">
        <ele>186</ele>
        <time>2017-05-04T13:15:05.000Z</time>
      </trkpt>
      <trkpt lat="46.20993" lon="4.84397">
        <ele>186</ele>
        <time>2017-05-04T13:15:06.000Z</time>
      </trkpt>
      <trkpt lat="46.20992" lon="4.84397">
        <ele>186</ele>
        <time>2017-05-04T13:15:07.000Z</time>
      </trkpt>
      <trkpt lat="46.20992" lon="4.84397">
        <ele>186</ele>
        <time>2017-05-04T13:15:08.000Z</time>
      </trkpt>
      <trkpt lat="46.20991" lon="4.84397">
        <ele>186</ele>
        <time>2017-05-04T13:15:09.000Z</time>
      </trkpt>
      <trkpt lat="46.2099" lon="4.84397">
        <ele>186</ele>
        <time>2017-05-04T13:15:10.000Z</time>
      </trkpt>
      <trkpt lat="46.20989" lon="4.84397">
        <ele>186</ele>
        <time>2017-05-04T13:15:11.000Z</time>
      </trkpt>
      <trkpt lat="46.20988" lon="4.84397">
        <ele>186</ele>
        <time>2017-05-04T13:15:12.000Z</time>
      </trkpt>
      <trkpt lat="46.20987" lon="4.84397">
        <ele>185</ele>
        <time>2017-05-04T13:15:13.000Z</time>
      </trkpt>
      <trkpt lat="46.20986" lon="4.84397">
        <ele>185</ele>
        <time>2017-05-04T13:15:14.000Z</time>
      </trkpt>
      <trkpt lat="46.20986" lon="4.84397">
        <ele>185</ele>
        <time>2017-05-04T13:15:15.000Z</time>
      </trkpt>
      <trkpt lat="46.20985" lon="4.84397">
        <ele>185</ele>
        <time>2017-05-04T13:15:16.000Z</time>
      </trkpt>
      <trkpt lat="46.20985" lon="4.84397">
        <ele>185</ele>
        <time>2017-05-04T13:15:17.000Z</time>
      </trkpt>
      <trkpt lat="46.20985" lon="4.84397">
        <ele>185</ele>
        <time>2017-05-04T13:15:18.000Z</time>
      </trkpt>
      <trkpt lat="46.20985" lon="4.84397">
        <ele>185</ele>
        <time>2017-05-04T13:15:19.000Z</time>
      </trkpt>
      <trkpt lat="46.20984" lon="4.84397">
        <ele>185</ele>
        <time>2017-05-04T13:15:20.000Z</time>
      </trkpt>
      <trkpt lat="46.20984" lon="4.84397">
        <ele>185</ele>
        <time>2017-05-04T13:15:21.000Z</time>
      </trkpt>
      <trkpt lat="46.20983" lon="4.84397">
        <ele>185</ele>
        <time>2017-05-04T13:15:22.000Z</time>
      </trkpt>
      <trkpt lat="46.20983" lon="4.84397">
        <ele>185</ele>
        <time>2017-05-04T13:15:23.000Z</time>
      </trkpt>
      <trkpt lat="46.20982" lon="4.84397">
        <ele>185</ele>
        <time>2017-05-04T13:15:24.000Z</time>
      </trkpt>
      <trkpt lat="46.20981" lon="4.84397">
        <ele>186</ele>
        <time>2017-05-04T13:15:25.000Z</time>
      </trkpt>
      <trkpt lat="46.20981" lon="4.84397">
        <ele>186</ele>
        <time>2017-05-04T13:15:26.000Z</time>
      </trkpt>
      <trkpt lat="46.2098" lon="4.84397">
        <ele>186</ele>
        <time>2017-05-04T13:15:27.000Z</time>
      </trkpt>
      <trkpt lat="46.2098" lon="4.84397">
        <ele>187</ele>
        <time>2017-05-04T13:15:28.000Z</time>
      </trkpt>
      <trkpt lat="46.20979" lon="4.84397">
        <ele>187</ele>
        <time>2017-05-04T13:15:29.000Z</time>
      </trkpt>
      <trkpt lat="46.20978" lon="4.84397">
        <ele>187</ele>
        <time>2017-05-04T13:15:30.000Z</time>
      </trkpt>
      <trkpt lat="46.20977" lon="4.84398">
        <ele>186</ele>
        <time>2017-05-04T13:15:31.000Z</time>
      </trkpt>
      <trkpt lat="46.20976" lon="4.84398">
        <ele>187</ele>
        <time>2017-05-04T13:15:32.000Z</time>
      </trkpt>
      <trkpt lat="46.20975" lon="4.84398">
        <ele>187</ele>
        <time>2017-05-04T13:15:33.000Z</time>
      </trkpt>
      <trkpt lat="46.20974" lon="4.84399">
        <ele>186</ele>
        <time>2017-05-04T13:15:34.000Z</time>
      </trkpt>
      <trkpt lat="46.20973" lon="4.84399">
        <ele>187</ele>
        <time>2017-05-04T13:15:35.000Z</time>
      </trkpt>
      <trkpt lat="46.20972" lon="4.84399">
        <ele>187</ele>
        <time>2017-05-04T13:15:36.000Z</time>
      </trkpt>
      <trkpt lat="46.20971" lon="4.84399">
        <ele>187</ele>
        <time>2017-05-04T13:15:37.000Z</time>
      </trkpt>
      <trkpt lat="46.20971" lon="4.84399">
        <ele>187</ele>
        <time>2017-05-04T13:15:38.000Z</time>
      </trkpt>
      <trkpt lat="46.2097" lon="4.84399">
        <ele>188</ele>
        <time>2017-05-04T13:15:39.000Z</time>
      </trkpt>
      <trkpt lat="46.20969" lon="4.84399">
        <ele>188</ele>
        <time>2017-05-04T13:15:40.000Z</time>
      </trkpt>
      <trkpt lat="46.20968" lon="4.84399">
        <ele>188</ele>
        <time>2017-05-04T13:15:41.000Z</time>
      </trkpt>
      <trkpt lat="46.20967" lon="4.84399">
        <ele>188</ele>
        <time>2017-05-04T13:15:42.000Z</time>
      </trkpt>
      <trkpt lat="46.20966" lon="4.84399">
        <ele>188</ele>
        <time>2017-05-04T13:15:43.000Z</time>
      </trkpt>
      <trkpt lat="46.20965" lon="4.84399">
        <ele>188</ele>
        <time>2017-05-04T13:15:44.000Z</time>
      </trkpt>
      <trkpt lat="46.20964" lon="4.84399">
        <ele>188</ele>
        <time>2017-05-04T13:15:45.000Z</time>
      </trkpt>
      <trkpt lat="46.20963" lon="4.84399">
        <ele>188</ele>
        <time>2017-05-04T13:15:46.000Z</time>
      </trkpt>
      <trkpt lat="46.20962" lon="4.84399">
        <ele>188</ele>
        <time>2017-05-04T13:15:47.000Z</time>
      </trkpt>
      <trkpt lat="46.20962" lon="4.84399">
        <ele>188</ele>
        <time>2017-05-04T13:15:48.000Z</time>
      </trkpt>
      <trkpt lat="46.20961" lon="4.844">
        <ele>187</ele>
        <time>2017-05-04T13:15:49.000Z</time>
      </trkpt>
      <trkpt lat="46.20961" lon="4.84401">
        <ele>187</ele>
        <time>2017-05-04T13:15:50.000Z</time>
      </trkpt>
      <trkpt lat="46.20961" lon="4.84402">
        <ele>188</ele>
        <time>2017-05-04T13:15:51.000Z</time>
      </trkpt>
      <trkpt lat="46.2096" lon="4.84402">
        <ele>188</ele>
        <time>2017-05-04T13:15:52.000Z</time>
      </trkpt>
      <trkpt lat="46.20959" lon="4.84402">
        <ele>188</ele>
        <time>2017-05-04T13:15:53.000Z</time>
      </trkpt>
      <trkpt lat="46.20959" lon="4.84402">
        <ele>188</ele>
        <time>2017-05-04T13:15:54.000Z</time>
      </trkpt>
      <trkpt lat="46.20958" lon="4.84403">
        <ele>187</ele>
        <time>2017-05-04T13:15:55.000Z</time>
      </trkpt>
      <trkpt lat="46.20957" lon="4.84403">
        <ele>187</ele>
        <time>2017-05-04T13:15:56.000Z</time>
      </trkpt>
      <trkpt lat="46.20957" lon="4.84404">
        <ele>187</ele>
        <time>2017-05-04T13:15:57.000Z</time>
      </trkpt>
      <trkpt lat="46.20956" lon="4.84404">
        <ele>188</ele>
        <time>2017-05-04T13:15:58.000Z</time>
      </trkpt>
      <trkpt lat="46.20956" lon="4.84403">
        <ele>189</ele>
        <time>2017-05-04T13:15:59.000Z</time>
      </trkpt>
      <trkpt lat="46.20955" lon="4.84403">
        <ele>189</ele>
        <time>2017-05-04T13:16:00.000Z</time>
      </trkpt>
      <trkpt lat="46.20955" lon="4.84403">
        <ele>189</ele>
        <time>2017-05-04T13:16:01.000Z</time>
      </trkpt>
      <trkpt lat="46.20954" lon="4.84403">
        <ele>190</ele>
        <time>2017-05-04T13:16:02.000Z</time>
      </trkpt>
      <trkpt lat="46.20954" lon="4.84403">
        <ele>189</ele>
        <time>2017-05-04T13:16:03.000Z</time>
      </trkpt>
      <trkpt lat="46.20954" lon="4.84403">
        <ele>189</ele>
        <time>2017-05-04T13:16:04.000Z</time>
      </trkpt>
      <trkpt lat="46.20954" lon="4.84403">
        <ele>189</ele>
        <time>2017-05-04T13:16:05.000Z</time>
      </trkpt>
      <trkpt lat="46.20953" lon="4.84403">
        <ele>189</ele>
        <time>2017-05-04T13:16:06.000Z</time>
      </trkpt>
      <trkpt lat="46.20953" lon="4.84404">
        <ele>188</ele>
        <time>2017-05-04T13:16:07.000Z</time>
      </trkpt>
      <trkpt lat="46.20952" lon="4.84405">
        <ele>189</ele>
        <time>2017-05-04T13:16:08.000Z</time>
      </trkpt>
      <trkpt lat="46.20951" lon="4.84405">
        <ele>189</ele>
        <time>2017-05-04T13:16:09.000Z</time>
      </trkpt>
      <trkpt lat="46.20951" lon="4.84406">
        <ele>189</ele>
        <time>2017-05-04T13:16:10.000Z</time>
      </trkpt>
      <trkpt lat="46.2095" lon="4.84406">
        <ele>189</ele>
        <time>2017-05-04T13:16:11.000Z</time>
      </trkpt>
      <trkpt lat="46.2095" lon="4.84407">
        <ele>189</ele>
        <time>2017-05-04T13:16:12.000Z</time>
      </trkpt>
      <trkpt lat="46.2095" lon="4.84407">
        <ele>190</ele>
        <time>2017-05-04T13:16:13.000Z</time>
      </trkpt>
      <trkpt lat="46.2095" lon="4.84407">
        <ele>189</ele>
        <time>2017-05-04T13:16:14.000Z</time>
      </trkpt>
      <trkpt lat="46.2095" lon="4.84407">
        <ele>189</ele>
        <time>2017-05-04T13:16:15.000Z</time>
      </trkpt>
      <trkpt lat="46.2095" lon="4.84407">
        <ele>190</ele>
        <time>2017-05-04T13:16:16.000Z</time>
      </trkpt>
      <trkpt lat="46.2095" lon="4.84407">
        <ele>190</ele>
        <time>2017-05-04T13:16:17.000Z</time>
      </trkpt>
      <trkpt lat="46.2095" lon="4.84407">
        <ele>190</ele>
        <time>2017-05-04T13:16:18.000Z</time>
      </trkpt>
      <trkpt lat="46.2095" lon="4.84407">
        <ele>190</ele>
        <time>2017-05-04T13:16:19.000Z</time>
      </trkpt>
      <trkpt lat="46.2095" lon="4.84407">
        <ele>190</ele>
        <time>2017-05-04T13:16:20.000Z</time>
      </trkpt>
      <trkpt lat="46.2095" lon="4.84407">
        <ele>190</ele>
        <time>2017-05-04T13:16:21.000Z</time>
      </trkpt>
      <trkpt lat="46.2095" lon="4.84407">
        <ele>190</ele>
        <time>2017-05-04T13:16:22.000Z</time>
      </trkpt>
      <trkpt lat="46.2095" lon="4.84407">
        <ele>190</ele>
        <time>2017-05-04T13:16:23.000Z</time>
      </trkpt>
      <trkpt lat="46.2095" lon="4.84407">
        <ele>190</ele>
        <time>2017-05-04T13:16:24.000Z</time>
      </trkpt>
      <trkpt lat="46.2095" lon="4.84407">
        <ele>191</ele>
        <time>2017-05-04T13:16:25.000Z</time>
      </trkpt>
      <trkpt lat="46.2095" lon="4.84407">
        <ele>191</ele>
        <time>2017-05-04T13:16:26.000Z</time>
      </trkpt>
      <trkpt lat="46.2095" lon="4.84407">
        <ele>191</ele>
        <time>2017-05-04T13:16:27.000Z</time>
      </trkpt>
      <trkpt lat="46.2095" lon="4.84406">
        <ele>191</ele>
        <time>2017-05-04T13:16:28.000Z</time>
      </trkpt>
      <trkpt lat="46.2095" lon="4.84406">
        <ele>191</ele>
        <time>2017-05-04T13:16:29.000Z</time>
      </trkpt>
      <trkpt lat="46.2095" lon="4.84406">
        <ele>191</ele>
        <time>2017-05-04T13:16:30.000Z</time>
      </trkpt>
      <trkpt lat="46.2095" lon="4.84406">
        <ele>191</ele>
        <time>2017-05-04T13:16:31.000Z</time>
      </trkpt>
      <trkpt lat="46.2095" lon="4.84406">
        <ele>191</ele>
        <time>2017-05-04T13:16:32.000Z</time>
      </trkpt>
      <trkpt lat="46.2095" lon="4.84406">
        <ele>191</ele>
        <time>2017-05-04T13:16:33.000Z</time>
      </trkpt>
      <trkpt lat="46.20949" lon="4.84406">
        <ele>191</ele>
        <time>2017-05-04T13:16:34.000Z</time>
      </trkpt>
      <trkpt lat="46.20948" lon="4.84406">
        <ele>190</ele>
        <time>2017-05-04T13:16:35.000Z</time>
      </trkpt>
      <trkpt lat="46.20947" lon="4.84406">
        <ele>190</ele>
        <time>2017-05-04T13:16:36.000Z</time>
      </trkpt>
      <trkpt lat="46.20946" lon="4.84406">
        <ele>189</ele>
        <time>2017-05-04T13:16:37.000Z</time>
      </trkpt>
      <trkpt lat="46.20945" lon="4.84406">
        <ele>189</ele>
        <time>2017-05-04T13:16:38.000Z</time>
      </trkpt>
      <trkpt lat="46.20944" lon="4.84406">
        <ele>189</ele>
        <time>2017-05-04T13:16:39.000Z</time>
      </trkpt>
      <trkpt lat="46.20943" lon="4.84406">
        <ele>189</ele>
        <time>2017-05-04T13:16:40.000Z</time>
      </trkpt>
      <trkpt lat="46.20942" lon="4.84406">
        <ele>189</ele>
        <time>2017-05-04T13:16:41.000Z</time>
      </trkpt>
      <trkpt lat="46.20941" lon="4.84407">
        <ele>189</ele>
        <time>2017-05-04T13:16:42.000Z</time>
      </trkpt>
      <trkpt lat="46.2094" lon="4.84407">
        <ele>189</ele>
        <time>2017-05-04T13:16:43.000Z</time>
      </trkpt>
      <trkpt lat="46.2094" lon="4.84407">
        <ele>189</ele>
        <time>2017-05-04T13:16:44.000Z</time>
      </trkpt>
      <trkpt lat="46.20939" lon="4.84407">
        <ele>189</ele>
        <time>2017-05-04T13:16:45.000Z</time>
      </trkpt>
      <trkpt lat="46.20938" lon="4.84408">
        <ele>189</ele>
        <time>2017-05-04T13:16:46.000Z</time>
      </trkpt>
      <trkpt lat="46.20937" lon="4.84408">
        <ele>188</ele>
        <time>2017-05-04T13:16:47.000Z</time>
      </trkpt>
      <trkpt lat="46.20936" lon="4.84408">
        <ele>188</ele>
        <time>2017-05-04T13:16:48.000Z</time>
      </trkpt>
      <trkpt lat="46.20934" lon="4.84408">
        <ele>188</ele>
        <time>2017-05-04T13:16:49.000Z</time>
      </trkpt>
      <trkpt lat="46.20933" lon="4.84409">
        <ele>188</ele>
        <time>2017-05-04T13:16:50.000Z</time>
      </trkpt>
      <trkpt lat="46.20932" lon="4.84409">
        <ele>187</ele>
        <time>2017-05-04T13:16:51.000Z</time>
      </trkpt>
      <trkpt lat="46.20931" lon="4.84409">
        <ele>188</ele>
        <time>2017-05-04T13:16:52.000Z</time>
      </trkpt>
      <trkpt lat="46.2093" lon="4.84409">
        <ele>189</ele>
        <time>2017-05-04T13:16:53.000Z</time>
      </trkpt>
      <trkpt lat="46.20929" lon="4.84409">
        <ele>188</ele>
        <time>2017-05-04T13:16:54.000Z</time>
      </trkpt>
      <trkpt lat="46.20927" lon="4.8441">
        <ele>189</ele>
        <time>2017-05-04T13:16:55.000Z</time>
      </trkpt>
      <trkpt lat="46.20926" lon="4.8441">
        <ele>189</ele>
        <time>2017-05-04T13:16:56.000Z</time>
      </trkpt>
      <trkpt lat="46.20925" lon="4.8441">
        <ele>189</ele>
        <time>2017-05-04T13:16:57.000Z</time>
      </trkpt>
      <trkpt lat="46.20924" lon="4.8441">
        <ele>189</ele>
        <time>2017-05-04T13:16:58.000Z</time>
      </trkpt>
      <trkpt lat="46.20922" lon="4.8441">
        <ele>188</ele>
        <time>2017-05-04T13:16:59.000Z</time>
      </trkpt>
      <trkpt lat="46.20921" lon="4.8441">
        <ele>188</ele>
        <time>2017-05-04T13:17:00.000Z</time>
      </trkpt>
      <trkpt lat="46.2092" lon="4.8441">
        <ele>188</ele>
        <time>2017-05-04T13:17:01.000Z</time>
      </trkpt>
      <trkpt lat="46.20918" lon="4.8441">
        <ele>188</ele>
        <time>2017-05-04T13:17:02.000Z</time>
      </trkpt>
      <trkpt lat="46.20917" lon="4.8441">
        <ele>188</ele>
        <time>2017-05-04T13:17:03.000Z</time>
      </trkpt>
      <trkpt lat="46.20916" lon="4.8441">
        <ele>188</ele>
        <time>2017-05-04T13:17:04.000Z</time>
      </trkpt>
      <trkpt lat="46.20915" lon="4.8441">
        <ele>188</ele>
        <time>2017-05-04T13:17:05.000Z</time>
      </trkpt>
      <trkpt lat="46.20914" lon="4.8441">
        <ele>189</ele>
        <time>2017-05-04T13:17:06.000Z</time>
      </trkpt>
      <trkpt lat="46.20913" lon="4.84411">
        <ele>189</ele>
        <time>2017-05-04T13:17:07.000Z</time>
      </trkpt>
      <trkpt lat="46.20912" lon="4.84411">
        <ele>190</ele>
        <time>2017-05-04T13:17:08.000Z</time>
      </trkpt>
      <trkpt lat="46.20911" lon="4.84411">
        <ele>189</ele>
        <time>2017-05-04T13:17:09.000Z</time>
      </trkpt>
      <trkpt lat="46.2091" lon="4.84412">
        <ele>189</ele>
        <time>2017-05-04T13:17:10.000Z</time>
      </trkpt>
      <trkpt lat="46.20908" lon="4.84412">
        <ele>189</ele>
        <time>2017-05-04T13:17:11.000Z</time>
      </trkpt>
      <trkpt lat="46.20907" lon="4.84412">
        <ele>189</ele>
        <time>2017-05-04T13:17:12.000Z</time>
      </trkpt>
      <trkpt lat="46.20906" lon="4.84412">
        <ele>188</ele>
        <time>2017-05-04T13:17:13.000Z</time>
      </trkpt>
      <trkpt lat="46.20905" lon="4.84412">
        <ele>188</ele>
        <time>2017-05-04T13:17:14.000Z</time>
      </trkpt>
      <trkpt lat="46.20904" lon="4.84412">
        <ele>188</ele>
        <time>2017-05-04T13:17:15.000Z</time>
      </trkpt>
      <trkpt lat="46.20903" lon="4.84412">
        <ele>188</ele>
        <time>2017-05-04T13:17:16.000Z</time>
      </trkpt>
      <trkpt lat="46.20901" lon="4.84412">
        <ele>188</ele>
        <time>2017-05-04T13:17:17.000Z</time>
      </trkpt>
      <trkpt lat="46.209" lon="4.84411">
        <ele>188</ele>
        <time>2017-05-04T13:17:18.000Z</time>
      </trkpt>
      <trkpt lat="46.20899" lon="4.84411">
        <ele>188</ele>
        <time>2017-05-04T13:17:19.000Z</time>
      </trkpt>
      <trkpt lat="46.20898" lon="4.84411">
        <ele>189</ele>
        <time>2017-05-04T13:17:20.000Z</time>
      </trkpt>
      <trkpt lat="46.20897" lon="4.8441">
        <ele>189</ele>
        <time>2017-05-04T13:17:21.000Z</time>
      </trkpt>
      <trkpt lat="46.20896" lon="4.8441">
        <ele>189</ele>
        <time>2017-05-04T13:17:22.000Z</time>
      </trkpt>
      <trkpt lat="46.20895" lon="4.84409">
        <ele>189</ele>
        <time>2017-05-04T13:17:23.000Z</time>
      </trkpt>
      <trkpt lat="46.20894" lon="4.84409">
        <ele>189</ele>
        <time>2017-05-04T13:17:24.000Z</time>
      </trkpt>
      <trkpt lat="46.20893" lon="4.84408">
        <ele>190</ele>
        <time>2017-05-04T13:17:25.000Z</time>
      </trkpt>
      <trkpt lat="46.20893" lon="4.84408">
        <ele>190</ele>
        <time>2017-05-04T13:17:26.000Z</time>
      </trkpt>
      <trkpt lat="46.20892" lon="4.84407">
        <ele>189</ele>
        <time>2017-05-04T13:17:27.000Z</time>
      </trkpt>
      <trkpt lat="46.20891" lon="4.84406">
        <ele>189</ele>
        <time>2017-05-04T13:17:28.000Z</time>
      </trkpt>
      <trkpt lat="46.20891" lon="4.84406">
        <ele>189</ele>
        <time>2017-05-04T13:17:29.000Z</time>
      </trkpt>
      <trkpt lat="46.2089" lon="4.84405">
        <ele>189</ele>
        <time>2017-05-04T13:17:30.000Z</time>
      </trkpt>
      <trkpt lat="46.20889" lon="4.84405">
        <ele>189</ele>
        <time>2017-05-04T13:17:31.000Z</time>
      </trkpt>
      <trkpt lat="46.20888" lon="4.84404">
        <ele>189</ele>
        <time>2017-05-04T13:17:32.000Z</time>
      </trkpt>
      <trkpt lat="46.20887" lon="4.84404">
        <ele>189</ele>
        <time>2017-05-04T13:17:33.000Z</time>
      </trkpt>
      <trkpt lat="46.20886" lon="4.84404">
        <ele>190</ele>
        <time>2017-05-04T13:17:34.000Z</time>
      </trkpt>
      <trkpt lat="46.20885" lon="4.84403">
        <ele>190</ele>
        <time>2017-05-04T13:17:35.000Z</time>
      </trkpt>
      <trkpt lat="46.20884" lon="4.84402">
        <ele>190</ele>
        <time>2017-05-04T13:17:36.000Z</time>
      </trkpt>
      <trkpt lat="46.20883" lon="4.84402">
        <ele>190</ele>
        <time>2017-05-04T13:17:37.000Z</time>
      </trkpt>
      <trkpt lat="46.20882" lon="4.84401">
        <ele>190</ele>
        <time>2017-05-04T13:17:38.000Z</time>
      </trkpt>
      <trkpt lat="46.20881" lon="4.84401">
        <ele>190</ele>
        <time>2017-05-04T13:17:39.000Z</time>
      </trkpt>
      <trkpt lat="46.20881" lon="4.844">
        <ele>190</ele>
        <time>2017-05-04T13:17:40.000Z</time>
      </trkpt>
      <trkpt lat="46.2088" lon="4.844">
        <ele>190</ele>
        <time>2017-05-04T13:17:41.000Z</time>
      </trkpt>
      <trkpt lat="46.20879" lon="4.84399">
        <ele>190</ele>
        <time>2017-05-04T13:17:42.000Z</time>
      </trkpt>
      <trkpt lat="46.20878" lon="4.84399">
        <ele>190</ele>
        <time>2017-05-04T13:17:43.000Z</time>
      </trkpt>
      <trkpt lat="46.20877" lon="4.84398">
        <ele>190</ele>
        <time>2017-05-04T13:17:44.000Z</time>
      </trkpt>
      <trkpt lat="46.20876" lon="4.84397">
        <ele>190</ele>
        <time>2017-05-04T13:17:45.000Z</time>
      </trkpt>
      <trkpt lat="46.20876" lon="4.84397">
        <ele>190</ele>
        <time>2017-05-04T13:17:46.000Z</time>
      </trkpt>
      <trkpt lat="46.20875" lon="4.84396">
        <ele>190</ele>
        <time>2017-05-04T13:17:47.000Z</time>
      </trkpt>
      <trkpt lat="46.20874" lon="4.84396">
        <ele>190</ele>
        <time>2017-05-04T13:17:48.000Z</time>
      </trkpt>
      <trkpt lat="46.20873" lon="4.84395">
        <ele>190</ele>
        <time>2017-05-04T13:17:49.000Z</time>
      </trkpt>
      <trkpt lat="46.20873" lon="4.84395">
        <ele>191</ele>
        <time>2017-05-04T13:17:50.000Z</time>
      </trkpt>
      <trkpt lat="46.20872" lon="4.84394">
        <ele>191</ele>
        <time>2017-05-04T13:17:51.000Z</time>
      </trkpt>
      <trkpt lat="46.20871" lon="4.84394">
        <ele>191</ele>
        <time>2017-05-04T13:17:52.000Z</time>
      </trkpt>
      <trkpt lat="46.2087" lon="4.84393">
        <ele>191</ele>
        <time>2017-05-04T13:17:53.000Z</time>
      </trkpt>
      <trkpt lat="46.20869" lon="4.84393">
        <ele>190</ele>
        <time>2017-05-04T13:17:54.000Z</time>
      </trkpt>
      <trkpt lat="46.20868" lon="4.84392">
        <ele>190</ele>
        <time>2017-05-04T13:17:55.000Z</time>
      </trkpt>
      <trkpt lat="46.20868" lon="4.84392">
        <ele>189</ele>
        <time>2017-05-04T13:17:56.000Z</time>
      </trkpt>
      <trkpt lat="46.20867" lon="4.84392">
        <ele>189</ele>
        <time>2017-05-04T13:17:57.000Z</time>
      </trkpt>
      <trkpt lat="46.20866" lon="4.84391">
        <ele>190</ele>
        <time>2017-05-04T13:17:58.000Z</time>
      </trkpt>
      <trkpt lat="46.20865" lon="4.84391">
        <ele>191</ele>
        <time>2017-05-04T13:17:59.000Z</time>
      </trkpt>
      <trkpt lat="46.20864" lon="4.8439">
        <ele>190</ele>
        <time>2017-05-04T13:18:00.000Z</time>
      </trkpt>
      <trkpt lat="46.20863" lon="4.8439">
        <ele>190</ele>
        <time>2017-05-04T13:18:01.000Z</time>
      </trkpt>
      <trkpt lat="46.20862" lon="4.8439">
        <ele>190</ele>
        <time>2017-05-04T13:18:02.000Z</time>
      </trkpt>
      <trkpt lat="46.20861" lon="4.84389">
        <ele>190</ele>
        <time>2017-05-04T13:18:03.000Z</time>
      </trkpt>
      <trkpt lat="46.2086" lon="4.84389">
        <ele>190</ele>
        <time>2017-05-04T13:18:04.000Z</time>
      </trkpt>
      <trkpt lat="46.20859" lon="4.84388">
        <ele>191</ele>
        <time>2017-05-04T13:18:05.000Z</time>
      </trkpt>
      <trkpt lat="46.20858" lon="4.84387">
        <ele>191</ele>
        <time>2017-05-04T13:18:06.000Z</time>
      </trkpt>
      <trkpt lat="46.20857" lon="4.84387">
        <ele>191</ele>
        <time>2017-05-04T13:18:07.000Z</time>
      </trkpt>
      <trkpt lat="46.20856" lon="4.84386">
        <ele>191</ele>
        <time>2017-05-04T13:18:08.000Z</time>
      </trkpt>
      <trkpt lat="46.20855" lon="4.84386">
        <ele>191</ele>
        <time>2017-05-04T13:18:09.000Z</time>
      </trkpt>
      <trkpt lat="46.20854" lon="4.84385">
        <ele>191</ele>
        <time>2017-05-04T13:18:10.000Z</time>
      </trkpt>
      <trkpt lat="46.20854" lon="4.84384">
        <ele>191</ele>
        <time>2017-05-04T13:18:11.000Z</time>
      </trkpt>
      <trkpt lat="46.20853" lon="4.84384">
        <ele>191</ele>
        <time>2017-05-04T13:18:12.000Z</time>
      </trkpt>
      <trkpt lat="46.20852" lon="4.84383">
        <ele>191</ele>
        <time>2017-05-04T13:18:13.000Z</time>
      </trkpt>
      <trkpt lat="46.20851" lon="4.84383">
        <ele>191</ele>
        <time>2017-05-04T13:18:14.000Z</time>
      </trkpt>
      <trkpt lat="46.2085" lon="4.84382">
        <ele>192</ele>
        <time>2017-05-04T13:18:15.000Z</time>
      </trkpt>
      <trkpt lat="46.2085" lon="4.84382">
        <ele>191</ele>
        <time>2017-05-04T13:18:16.000Z</time>
      </trkpt>
      <trkpt lat="46.20849" lon="4.84382">
        <ele>192</ele>
        <time>2017-05-04T13:18:17.000Z</time>
      </trkpt>
      <trkpt lat="46.20848" lon="4.84381">
        <ele>192</ele>
        <time>2017-05-04T13:18:18.000Z</time>
      </trkpt>
      <trkpt lat="46.20847" lon="4.84381">
        <ele>192</ele>
        <time>2017-05-04T13:18:19.000Z</time>
      </trkpt>
      <trkpt lat="46.20846" lon="4.8438">
        <ele>192</ele>
        <time>2017-05-04T13:18:20.000Z</time>
      </trkpt>
      <trkpt lat="46.20845" lon="4.84379">
        <ele>192</ele>
        <time>2017-05-04T13:18:21.000Z</time>
      </trkpt>
      <trkpt lat="46.20844" lon="4.84379">
        <ele>192</ele>
        <time>2017-05-04T13:18:22.000Z</time>
      </trkpt>
      <trkpt lat="46.20843" lon="4.84378">
        <ele>192</ele>
        <time>2017-05-04T13:18:23.000Z</time>
      </trkpt>
      <trkpt lat="46.20842" lon="4.84378">
        <ele>192</ele>
        <time>2017-05-04T13:18:24.000Z</time>
      </trkpt>
      <trkpt lat="46.20841" lon="4.84378">
        <ele>192</ele>
        <time>2017-05-04T13:18:25.000Z</time>
      </trkpt>
      <trkpt lat="46.2084" lon="4.84377">
        <ele>192</ele>
        <time>2017-05-04T13:18:26.000Z</time>
      </trkpt>
      <trkpt lat="46.20839" lon="4.84377">
        <ele>192</ele>
        <time>2017-05-04T13:18:27.000Z</time>
      </trkpt>
      <trkpt lat="46.20838" lon="4.84376">
        <ele>192</ele>
        <time>2017-05-04T13:18:28.000Z</time>
      </trkpt>
      <trkpt lat="46.20837" lon="4.84376">
        <ele>192</ele>
        <time>2017-05-04T13:18:29.000Z</time>
      </trkpt>
      <trkpt lat="46.20836" lon="4.84375">
        <ele>193</ele>
        <time>2017-05-04T13:18:30.000Z</time>
      </trkpt>
      <trkpt lat="46.20835" lon="4.84375">
        <ele>193</ele>
        <time>2017-05-04T13:18:31.000Z</time>
      </trkpt>
      <trkpt lat="46.20834" lon="4.84374">
        <ele>193</ele>
        <time>2017-05-04T13:18:32.000Z</time>
      </trkpt>
      <trkpt lat="46.20833" lon="4.84374">
        <ele>192</ele>
        <time>2017-05-04T13:18:33.000Z</time>
      </trkpt>
      <trkpt lat="46.20833" lon="4.84374">
        <ele>192</ele>
        <time>2017-05-04T13:18:34.000Z</time>
      </trkpt>
      <trkpt lat="46.20832" lon="4.84374">
        <ele>192</ele>
        <time>2017-05-04T13:18:35.000Z</time>
      </trkpt>
      <trkpt lat="46.20832" lon="4.84374">
        <ele>192</ele>
        <time>2017-05-04T13:18:36.000Z</time>
      </trkpt>
      <trkpt lat="46.20831" lon="4.84374">
        <ele>192</ele>
        <time>2017-05-04T13:18:37.000Z</time>
      </trkpt>
      <trkpt lat="46.20831" lon="4.84373">
        <ele>192</ele>
        <time>2017-05-04T13:18:38.000Z</time>
      </trkpt>
      <trkpt lat="46.2083" lon="4.84373">
        <ele>192</ele>
        <time>2017-05-04T13:18:39.000Z</time>
      </trkpt>
      <trkpt lat="46.20829" lon="4.84372">
        <ele>192</ele>
        <time>2017-05-04T13:18:40.000Z</time>
      </trkpt>
      <trkpt lat="46.20829" lon="4.84371">
        <ele>192</ele>
        <time>2017-05-04T13:18:41.000Z</time>
      </trkpt>
      <trkpt lat="46.20828" lon="4.8437">
        <ele>192</ele>
        <time>2017-05-04T13:18:42.000Z</time>
      </trkpt>
      <trkpt lat="46.20827" lon="4.8437">
        <ele>192</ele>
        <time>2017-05-04T13:18:43.000Z</time>
      </trkpt>
      <trkpt lat="46.20826" lon="4.84369">
        <ele>192</ele>
        <time>2017-05-04T13:18:44.000Z</time>
      </trkpt>
      <trkpt lat="46.20825" lon="4.84368">
        <ele>192</ele>
        <time>2017-05-04T13:18:45.000Z</time>
      </trkpt>
      <trkpt lat="46.20824" lon="4.84368">
        <ele>192</ele>
        <time>2017-05-04T13:18:46.000Z</time>
      </trkpt>
      <trkpt lat="46.20823" lon="4.84367">
        <ele>192</ele>
        <time>2017-05-04T13:18:47.000Z</time>
      </trkpt>
      <trkpt lat="46.20822" lon="4.84366">
        <ele>192</ele>
        <time>2017-05-04T13:18:48.000Z</time>
      </trkpt>
      <trkpt lat="46.20821" lon="4.84365">
        <ele>192</ele>
        <time>2017-05-04T13:18:49.000Z</time>
      </trkpt>
      <trkpt lat="46.2082" lon="4.84364">
        <ele>192</ele>
        <time>2017-05-04T13:18:50.000Z</time>
      </trkpt>
      <trkpt lat="46.20818" lon="4.84364">
        <ele>192</ele>
        <time>2017-05-04T13:18:51.000Z</time>
      </trkpt>
      <trkpt lat="46.20817" lon="4.84363">
        <ele>192</ele>
        <time>2017-05-04T13:18:52.000Z</time>
      </trkpt>
      <trkpt lat="46.20815" lon="4.84362">
        <ele>192</ele>
        <time>2017-05-04T13:18:53.000Z</time>
      </trkpt>
      <trkpt lat="46.20814" lon="4.84361">
        <ele>192</ele>
        <time>2017-05-04T13:18:54.000Z</time>
      </trkpt>
      <trkpt lat="46.20813" lon="4.8436">
        <ele>192</ele>
        <time>2017-05-04T13:18:55.000Z</time>
      </trkpt>
      <trkpt lat="46.20812" lon="4.84359">
        <ele>192</ele>
        <time>2017-05-04T13:18:56.000Z</time>
      </trkpt>
      <trkpt lat="46.20811" lon="4.84359">
        <ele>192</ele>
        <time>2017-05-04T13:18:57.000Z</time>
      </trkpt>
      <trkpt lat="46.20809" lon="4.84358">
        <ele>192</ele>
        <time>2017-05-04T13:18:58.000Z</time>
      </trkpt>
      <trkpt lat="46.20808" lon="4.84357">
        <ele>192</ele>
        <time>2017-05-04T13:18:59.000Z</time>
      </trkpt>
      <trkpt lat="46.20807" lon="4.84356">
        <ele>192</ele>
        <time>2017-05-04T13:19:00.000Z</time>
      </trkpt>
      <trkpt lat="46.20806" lon="4.84356">
        <ele>192</ele>
        <time>2017-05-04T13:19:01.000Z</time>
      </trkpt>
      <trkpt lat="46.20805" lon="4.84355">
        <ele>192</ele>
        <time>2017-05-04T13:19:02.000Z</time>
      </trkpt>
      <trkpt lat="46.20804" lon="4.84354">
        <ele>192</ele>
        <time>2017-05-04T13:19:03.000Z</time>
      </trkpt>
      <trkpt lat="46.20803" lon="4.84354">
        <ele>192</ele>
        <time>2017-05-04T13:19:04.000Z</time>
      </trkpt>
      <trkpt lat="46.20802" lon="4.84353">
        <ele>192</ele>
        <time>2017-05-04T13:19:05.000Z</time>
      </trkpt>
      <trkpt lat="46.20801" lon="4.84352">
        <ele>192</ele>
        <time>2017-05-04T13:19:06.000Z</time>
      </trkpt>
      <trkpt lat="46.208" lon="4.84352">
        <ele>192</ele>
        <time>2017-05-04T13:19:07.000Z</time>
      </trkpt>
      <trkpt lat="46.20799" lon="4.84351">
        <ele>192</ele>
        <time>2017-05-04T13:19:08.000Z</time>
      </trkpt>
      <trkpt lat="46.20798" lon="4.8435">
        <ele>192</ele>
        <time>2017-05-04T13:19:09.000Z</time>
      </trkpt>
      <trkpt lat="46.20797" lon="4.8435">
        <ele>191</ele>
        <time>2017-05-04T13:19:10.000Z</time>
      </trkpt>
      <trkpt lat="46.20796" lon="4.84349">
        <ele>192</ele>
        <time>2017-05-04T13:19:11.000Z</time>
      </trkpt>
      <trkpt lat="46.20795" lon="4.84348">
        <ele>192</ele>
        <time>2017-05-04T13:19:12.000Z</time>
      </trkpt>
      <trkpt lat="46.20794" lon="4.84348">
        <ele>191</ele>
        <time>2017-05-04T13:19:13.000Z</time>
      </trkpt>
      <trkpt lat="46.20793" lon="4.84347">
        <ele>192</ele>
        <time>2017-05-04T13:19:14.000Z</time>
      </trkpt>
      <trkpt lat="46.20792" lon="4.84347">
        <ele>192</ele>
        <time>2017-05-04T13:19:15.000Z</time>
      </trkpt>
      <trkpt lat="46.20791" lon="4.84346">
        <ele>192</ele>
        <time>2017-05-04T13:19:16.000Z</time>
      </trkpt>
      <trkpt lat="46.2079" lon="4.84345">
        <ele>192</ele>
        <time>2017-05-04T13:19:17.000Z</time>
      </trkpt>
      <trkpt lat="46.20789" lon="4.84344">
        <ele>192</ele>
        <time>2017-05-04T13:19:18.000Z</time>
      </trkpt>
      <trkpt lat="46.20788" lon="4.84344">
        <ele>192</ele>
        <time>2017-05-04T13:19:19.000Z</time>
      </trkpt>
      <trkpt lat="46.20788" lon="4.84343">
        <ele>192</ele>
        <time>2017-05-04T13:19:20.000Z</time>
      </trkpt>
      <trkpt lat="46.20787" lon="4.84343">
        <ele>193</ele>
        <time>2017-05-04T13:19:21.000Z</time>
      </trkpt>
      <trkpt lat="46.20786" lon="4.84342">
        <ele>192</ele>
        <time>2017-05-04T13:19:22.000Z</time>
      </trkpt>
      <trkpt lat="46.20785" lon="4.84341">
        <ele>192</ele>
        <time>2017-05-04T13:19:23.000Z</time>
      </trkpt>
      <trkpt lat="46.20784" lon="4.8434">
        <ele>192</ele>
        <time>2017-05-04T13:19:24.000Z</time>
      </trkpt>
      <trkpt lat="46.20783" lon="4.8434">
        <ele>192</ele>
        <time>2017-05-04T13:19:25.000Z</time>
      </trkpt>
      <trkpt lat="46.20782" lon="4.84339">
        <ele>192</ele>
        <time>2017-05-04T13:19:26.000Z</time>
      </trkpt>
      <trkpt lat="46.20781" lon="4.84339">
        <ele>193</ele>
        <time>2017-05-04T13:19:27.000Z</time>
      </trkpt>
      <trkpt lat="46.2078" lon="4.84338">
        <ele>193</ele>
        <time>2017-05-04T13:19:28.000Z</time>
      </trkpt>
      <trkpt lat="46.20779" lon="4.84338">
        <ele>193</ele>
        <time>2017-05-04T13:19:29.000Z</time>
      </trkpt>
      <trkpt lat="46.20778" lon="4.84337">
        <ele>193</ele>
        <time>2017-05-04T13:19:30.000Z</time>
      </trkpt>
      <trkpt lat="46.20777" lon="4.84336">
        <ele>193</ele>
        <time>2017-05-04T13:19:31.000Z</time>
      </trkpt>
      <trkpt lat="46.20776" lon="4.84336">
        <ele>193</ele>
        <time>2017-05-04T13:19:32.000Z</time>
      </trkpt>
      <trkpt lat="46.20775" lon="4.84335">
        <ele>193</ele>
        <time>2017-05-04T13:19:33.000Z</time>
      </trkpt>
      <trkpt lat="46.20774" lon="4.84334">
        <ele>193</ele>
        <time>2017-05-04T13:19:34.000Z</time>
      </trkpt>
      <trkpt lat="46.20773" lon="4.84334">
        <ele>193</ele>
        <time>2017-05-04T13:19:35.000Z</time>
      </trkpt>
      <trkpt lat="46.20772" lon="4.84333">
        <ele>193</ele>
        <time>2017-05-04T13:19:36.000Z</time>
      </trkpt>
      <trkpt lat="46.20772" lon="4.84333">
        <ele>193</ele>
        <time>2017-05-04T13:19:37.000Z</time>
      </trkpt>
      <trkpt lat="46.20771" lon="4.84332">
        <ele>193</ele>
        <time>2017-05-04T13:19:38.000Z</time>
      </trkpt>
      <trkpt lat="46.2077" lon="4.84332">
        <ele>193</ele>
        <time>2017-05-04T13:19:39.000Z</time>
      </trkpt>
      <trkpt lat="46.20769" lon="4.84331">
        <ele>193</ele>
        <time>2017-05-04T13:19:40.000Z</time>
      </trkpt>
      <trkpt lat="46.20768" lon="4.84331">
        <ele>193</ele>
        <time>2017-05-04T13:19:41.000Z</time>
      </trkpt>
      <trkpt lat="46.20767" lon="4.8433">
        <ele>193</ele>
        <time>2017-05-04T13:19:42.000Z</time>
      </trkpt>
      <trkpt lat="46.20766" lon="4.8433">
        <ele>193</ele>
        <time>2017-05-04T13:19:43.000Z</time>
      </trkpt>
      <trkpt lat="46.20765" lon="4.84329">
        <ele>193</ele>
        <time>2017-05-04T13:19:44.000Z</time>
      </trkpt>
      <trkpt lat="46.20764" lon="4.84328">
        <ele>193</ele>
        <time>2017-05-04T13:19:45.000Z</time>
      </trkpt>
      <trkpt lat="46.20763" lon="4.84328">
        <ele>193</ele>
        <time>2017-05-04T13:19:46.000Z</time>
      </trkpt>
      <trkpt lat="46.20763" lon="4.84327">
        <ele>193</ele>
        <time>2017-05-04T13:19:47.000Z</time>
      </trkpt>
      <trkpt lat="46.20762" lon="4.84327">
        <ele>193</ele>
        <time>2017-05-04T13:19:48.000Z</time>
      </trkpt>
      <trkpt lat="46.20761" lon="4.84326">
        <ele>193</ele>
        <time>2017-05-04T13:19:49.000Z</time>
      </trkpt>
      <trkpt lat="46.2076" lon="4.84326">
        <ele>193</ele>
        <time>2017-05-04T13:19:50.000Z</time>
      </trkpt>
      <trkpt lat="46.20759" lon="4.84325">
        <ele>193</ele>
        <time>2017-05-04T13:19:51.000Z</time>
      </trkpt>
      <trkpt lat="46.20759" lon="4.84325">
        <ele>193</ele>
        <time>2017-05-04T13:19:52.000Z</time>
      </trkpt>
      <trkpt lat="46.20758" lon="4.84325">
        <ele>193</ele>
        <time>2017-05-04T13:19:53.000Z</time>
      </trkpt>
      <trkpt lat="46.20758" lon="4.84324">
        <ele>193</ele>
        <time>2017-05-04T13:19:54.000Z</time>
      </trkpt>
      <trkpt lat="46.20757" lon="4.84324">
        <ele>193</ele>
        <time>2017-05-04T13:19:55.000Z</time>
      </trkpt>
      <trkpt lat="46.20756" lon="4.84323">
        <ele>193</ele>
        <time>2017-05-04T13:19:56.000Z</time>
      </trkpt>
      <trkpt lat="46.20755" lon="4.84322">
        <ele>194</ele>
        <time>2017-05-04T13:19:57.000Z</time>
      </trkpt>
      <trkpt lat="46.20754" lon="4.84322">
        <ele>194</ele>
        <time>2017-05-04T13:19:58.000Z</time>
      </trkpt>
      <trkpt lat="46.20753" lon="4.84321">
        <ele>194</ele>
        <time>2017-05-04T13:19:59.000Z</time>
      </trkpt>
      <trkpt lat="46.20752" lon="4.84321">
        <ele>194</ele>
        <time>2017-05-04T13:20:00.000Z</time>
      </trkpt>
      <trkpt lat="46.20752" lon="4.84321">
        <ele>194</ele>
        <time>2017-05-04T13:20:01.000Z</time>
      </trkpt>
      <trkpt lat="46.20751" lon="4.8432">
        <ele>194</ele>
        <time>2017-05-04T13:20:02.000Z</time>
      </trkpt>
      <trkpt lat="46.2075" lon="4.84319">
        <ele>194</ele>
        <time>2017-05-04T13:20:03.000Z</time>
      </trkpt>
      <trkpt lat="46.20749" lon="4.84319">
        <ele>194</ele>
        <time>2017-05-04T13:20:04.000Z</time>
      </trkpt>
      <trkpt lat="46.20748" lon="4.84318">
        <ele>194</ele>
        <time>2017-05-04T13:20:05.000Z</time>
      </trkpt>
      <trkpt lat="46.20747" lon="4.84318">
        <ele>194</ele>
        <time>2017-05-04T13:20:06.000Z</time>
      </trkpt>
      <trkpt lat="46.20747" lon="4.84317">
        <ele>194</ele>
        <time>2017-05-04T13:20:07.000Z</time>
      </trkpt>
      <trkpt lat="46.20746" lon="4.84316">
        <ele>195</ele>
        <time>2017-05-04T13:20:08.000Z</time>
      </trkpt>
      <trkpt lat="46.20745" lon="4.84316">
        <ele>195</ele>
        <time>2017-05-04T13:20:09.000Z</time>
      </trkpt>
      <trkpt lat="46.20744" lon="4.84315">
        <ele>194</ele>
        <time>2017-05-04T13:20:10.000Z</time>
      </trkpt>
      <trkpt lat="46.20743" lon="4.84314">
        <ele>194</ele>
        <time>2017-05-04T13:20:11.000Z</time>
      </trkpt>
      <trkpt lat="46.20742" lon="4.84314">
        <ele>194</ele>
        <time>2017-05-04T13:20:12.000Z</time>
      </trkpt>
      <trkpt lat="46.20741" lon="4.84313">
        <ele>194</ele>
        <time>2017-05-04T13:20:13.000Z</time>
      </trkpt>
      <trkpt lat="46.2074" lon="4.84312">
        <ele>194</ele>
        <time>2017-05-04T13:20:14.000Z</time>
      </trkpt>
      <trkpt lat="46.20739" lon="4.84312">
        <ele>193</ele>
        <time>2017-05-04T13:20:15.000Z</time>
      </trkpt>
      <trkpt lat="46.20738" lon="4.84311">
        <ele>193</ele>
        <time>2017-05-04T13:20:16.000Z</time>
      </trkpt>
      <trkpt lat="46.20737" lon="4.8431">
        <ele>193</ele>
        <time>2017-05-04T13:20:17.000Z</time>
      </trkpt>
      <trkpt lat="46.20736" lon="4.8431">
        <ele>193</ele>
        <time>2017-05-04T13:20:18.000Z</time>
      </trkpt>
      <trkpt lat="46.20735" lon="4.84309">
        <ele>193</ele>
        <time>2017-05-04T13:20:19.000Z</time>
      </trkpt>
      <trkpt lat="46.20734" lon="4.84309">
        <ele>193</ele>
        <time>2017-05-04T13:20:20.000Z</time>
      </trkpt>
      <trkpt lat="46.20734" lon="4.84308">
        <ele>193</ele>
        <time>2017-05-04T13:20:21.000Z</time>
      </trkpt>
      <trkpt lat="46.20733" lon="4.84307">
        <ele>193</ele>
        <time>2017-05-04T13:20:22.000Z</time>
      </trkpt>
      <trkpt lat="46.20732" lon="4.84307">
        <ele>193</ele>
        <time>2017-05-04T13:20:23.000Z</time>
      </trkpt>
      <trkpt lat="46.20731" lon="4.84306">
        <ele>193</ele>
        <time>2017-05-04T13:20:24.000Z</time>
      </trkpt>
      <trkpt lat="46.2073" lon="4.84305">
        <ele>193</ele>
        <time>2017-05-04T13:20:25.000Z</time>
      </trkpt>
      <trkpt lat="46.20729" lon="4.84305">
        <ele>193</ele>
        <time>2017-05-04T13:20:26.000Z</time>
      </trkpt>
      <trkpt lat="46.20728" lon="4.84304">
        <ele>193</ele>
        <time>2017-05-04T13:20:27.000Z</time>
      </trkpt>
      <trkpt lat="46.20727" lon="4.84304">
        <ele>194</ele>
        <time>2017-05-04T13:20:28.000Z</time>
      </trkpt>
      <trkpt lat="46.20726" lon="4.84303">
        <ele>194</ele>
        <time>2017-05-04T13:20:29.000Z</time>
      </trkpt>
      <trkpt lat="46.20726" lon="4.84302">
        <ele>194</ele>
        <time>2017-05-04T13:20:30.000Z</time>
      </trkpt>
      <trkpt lat="46.20725" lon="4.84302">
        <ele>194</ele>
        <time>2017-05-04T13:20:31.000Z</time>
      </trkpt>
      <trkpt lat="46.20724" lon="4.84301">
        <ele>194</ele>
        <time>2017-05-04T13:20:32.000Z</time>
      </trkpt>
      <trkpt lat="46.20723" lon="4.843">
        <ele>194</ele>
        <time>2017-05-04T13:20:33.000Z</time>
      </trkpt>
      <trkpt lat="46.20722" lon="4.843">
        <ele>194</ele>
        <time>2017-05-04T13:20:34.000Z</time>
      </trkpt>
      <trkpt lat="46.20721" lon="4.84299">
        <ele>194</ele>
        <time>2017-05-04T13:20:35.000Z</time>
      </trkpt>
      <trkpt lat="46.2072" lon="4.84299">
        <ele>194</ele>
        <time>2017-05-04T13:20:36.000Z</time>
      </trkpt>
      <trkpt lat="46.20719" lon="4.84298">
        <ele>194</ele>
        <time>2017-05-04T13:20:37.000Z</time>
      </trkpt>
      <trkpt lat="46.20719" lon="4.84298">
        <ele>194</ele>
        <time>2017-05-04T13:20:38.000Z</time>
      </trkpt>
      <trkpt lat="46.20718" lon="4.84297">
        <ele>194</ele>
        <time>2017-05-04T13:20:39.000Z</time>
      </trkpt>
      <trkpt lat="46.20717" lon="4.84297">
        <ele>193</ele>
        <time>2017-05-04T13:20:40.000Z</time>
      </trkpt>
      <trkpt lat="46.20716" lon="4.84296">
        <ele>193</ele>
        <time>2017-05-04T13:20:41.000Z</time>
      </trkpt>
      <trkpt lat="46.20715" lon="4.84296">
        <ele>194</ele>
        <time>2017-05-04T13:20:42.000Z</time>
      </trkpt>
      <trkpt lat="46.20714" lon="4.84295">
        <ele>194</ele>
        <time>2017-05-04T13:20:43.000Z</time>
      </trkpt>
      <trkpt lat="46.20713" lon="4.84294">
        <ele>194</ele>
        <time>2017-05-04T13:20:44.000Z</time>
      </trkpt>
      <trkpt lat="46.20712" lon="4.84294">
        <ele>194</ele>
        <time>2017-05-04T13:20:45.000Z</time>
      </trkpt>
      <trkpt lat="46.20711" lon="4.84293">
        <ele>194</ele>
        <time>2017-05-04T13:20:46.000Z</time>
      </trkpt>
      <trkpt lat="46.2071" lon="4.84292">
        <ele>194</ele>
        <time>2017-05-04T13:20:47.000Z</time>
      </trkpt>
      <trkpt lat="46.20709" lon="4.84292">
        <ele>195</ele>
        <time>2017-05-04T13:20:48.000Z</time>
      </trkpt>
      <trkpt lat="46.20709" lon="4.84291">
        <ele>194</ele>
        <time>2017-05-04T13:20:49.000Z</time>
      </trkpt>
      <trkpt lat="46.20708" lon="4.84291">
        <ele>195</ele>
        <time>2017-05-04T13:20:50.000Z</time>
      </trkpt>
      <trkpt lat="46.20707" lon="4.8429">
        <ele>194</ele>
        <time>2017-05-04T13:20:51.000Z</time>
      </trkpt>
      <trkpt lat="46.20706" lon="4.84289">
        <ele>194</ele>
        <time>2017-05-04T13:20:52.000Z</time>
      </trkpt>
      <trkpt lat="46.20705" lon="4.84289">
        <ele>194</ele>
        <time>2017-05-04T13:20:53.000Z</time>
      </trkpt>
      <trkpt lat="46.20704" lon="4.84288">
        <ele>194</ele>
        <time>2017-05-04T13:20:54.000Z</time>
      </trkpt>
      <trkpt lat="46.20703" lon="4.84287">
        <ele>194</ele>
        <time>2017-05-04T13:20:55.000Z</time>
      </trkpt>
      <trkpt lat="46.20702" lon="4.84287">
        <ele>195</ele>
        <time>2017-05-04T13:20:56.000Z</time>
      </trkpt>
      <trkpt lat="46.20701" lon="4.84286">
        <ele>194</ele>
        <time>2017-05-04T13:20:57.000Z</time>
      </trkpt>
      <trkpt lat="46.207" lon="4.84286">
        <ele>194</ele>
        <time>2017-05-04T13:20:58.000Z</time>
      </trkpt>
      <trkpt lat="46.20699" lon="4.84285">
        <ele>194</ele>
        <time>2017-05-04T13:20:59.000Z</time>
      </trkpt>
      <trkpt lat="46.20699" lon="4.84284">
        <ele>195</ele>
        <time>2017-05-04T13:21:00.000Z</time>
      </trkpt>
      <trkpt lat="46.20698" lon="4.84284">
        <ele>195</ele>
        <time>2017-05-04T13:21:01.000Z</time>
      </trkpt>
      <trkpt lat="46.20697" lon="4.84283">
        <ele>195</ele>
        <time>2017-05-04T13:21:02.000Z</time>
      </trkpt>
      <trkpt lat="46.20696" lon="4.84283">
        <ele>195</ele>
        <time>2017-05-04T13:21:03.000Z</time>
      </trkpt>
      <trkpt lat="46.20695" lon="4.84282">
        <ele>195</ele>
        <time>2017-05-04T13:21:04.000Z</time>
      </trkpt>
      <trkpt lat="46.20694" lon="4.84281">
        <ele>195</ele>
        <time>2017-05-04T13:21:05.000Z</time>
      </trkpt>
      <trkpt lat="46.20693" lon="4.84281">
        <ele>195</ele>
        <time>2017-05-04T13:21:06.000Z</time>
      </trkpt>
      <trkpt lat="46.20692" lon="4.8428">
        <ele>195</ele>
        <time>2017-05-04T13:21:07.000Z</time>
      </trkpt>
      <trkpt lat="46.20691" lon="4.8428">
        <ele>195</ele>
        <time>2017-05-04T13:21:08.000Z</time>
      </trkpt>
      <trkpt lat="46.2069" lon="4.84279">
        <ele>195</ele>
        <time>2017-05-04T13:21:09.000Z</time>
      </trkpt>
      <trkpt lat="46.2069" lon="4.84279">
        <ele>195</ele>
        <time>2017-05-04T13:21:10.000Z</time>
      </trkpt>
      <trkpt lat="46.20689" lon="4.84278">
        <ele>195</ele>
        <time>2017-05-04T13:21:11.000Z</time>
      </trkpt>
      <trkpt lat="46.20688" lon="4.84277">
        <ele>195</ele>
        <time>2017-05-04T13:21:12.000Z</time>
      </trkpt>
      <trkpt lat="46.20687" lon="4.84277">
        <ele>195</ele>
        <time>2017-05-04T13:21:13.000Z</time>
      </trkpt>
      <trkpt lat="46.20686" lon="4.84276">
        <ele>195</ele>
        <time>2017-05-04T13:21:14.000Z</time>
      </trkpt>
      <trkpt lat="46.20685" lon="4.84275">
        <ele>195</ele>
        <time>2017-05-04T13:21:15.000Z</time>
      </trkpt>
      <trkpt lat="46.20684" lon="4.84275">
        <ele>195</ele>
        <time>2017-05-04T13:21:16.000Z</time>
      </trkpt>
      <trkpt lat="46.20683" lon="4.84274">
        <ele>195</ele>
        <time>2017-05-04T13:21:17.000Z</time>
      </trkpt>
      <trkpt lat="46.20683" lon="4.84274">
        <ele>195</ele>
        <time>2017-05-04T13:21:18.000Z</time>
      </trkpt>
      <trkpt lat="46.20682" lon="4.84273">
        <ele>195</ele>
        <time>2017-05-04T13:21:19.000Z</time>
      </trkpt>
      <trkpt lat="46.20681" lon="4.84273">
        <ele>195</ele>
        <time>2017-05-04T13:21:20.000Z</time>
      </trkpt>
      <trkpt lat="46.2068" lon="4.84272">
        <ele>195</ele>
        <time>2017-05-04T13:21:21.000Z</time>
      </trkpt>
      <trkpt lat="46.20679" lon="4.84271">
        <ele>196</ele>
        <time>2017-05-04T13:21:22.000Z</time>
      </trkpt>
      <trkpt lat="46.20678" lon="4.84271">
        <ele>196</ele>
        <time>2017-05-04T13:21:23.000Z</time>
      </trkpt>
      <trkpt lat="46.20678" lon="4.8427">
        <ele>196</ele>
        <time>2017-05-04T13:21:24.000Z</time>
      </trkpt>
      <trkpt lat="46.20677" lon="4.8427">
        <ele>196</ele>
        <time>2017-05-04T13:21:25.000Z</time>
      </trkpt>
      <trkpt lat="46.20676" lon="4.84269">
        <ele>196</ele>
        <time>2017-05-04T13:21:26.000Z</time>
      </trkpt>
      <trkpt lat="46.20675" lon="4.84269">
        <ele>196</ele>
        <time>2017-05-04T13:21:27.000Z</time>
      </trkpt>
      <trkpt lat="46.20674" lon="4.84268">
        <ele>196</ele>
        <time>2017-05-04T13:21:28.000Z</time>
      </trkpt>
      <trkpt lat="46.20673" lon="4.84268">
        <ele>196</ele>
        <time>2017-05-04T13:21:29.000Z</time>
      </trkpt>
      <trkpt lat="46.20672" lon="4.84267">
        <ele>196</ele>
        <time>2017-05-04T13:21:30.000Z</time>
      </trkpt>
      <trkpt lat="46.20671" lon="4.84266">
        <ele>196</ele>
        <time>2017-05-04T13:21:31.000Z</time>
      </trkpt>
      <trkpt lat="46.2067" lon="4.84266">
        <ele>196</ele>
        <time>2017-05-04T13:21:32.000Z</time>
      </trkpt>
      <trkpt lat="46.20669" lon="4.84265">
        <ele>196</ele>
        <time>2017-05-04T13:21:33.000Z</time>
      </trkpt>
      <trkpt lat="46.20668" lon="4.84265">
        <ele>197</ele>
        <time>2017-05-04T13:21:34.000Z</time>
      </trkpt>
      <trkpt lat="46.20667" lon="4.84264">
        <ele>197</ele>
        <time>2017-05-04T13:21:35.000Z</time>
      </trkpt>
      <trkpt lat="46.20666" lon="4.84264">
        <ele>197</ele>
        <time>2017-05-04T13:21:36.000Z</time>
      </trkpt>
      <trkpt lat="46.20665" lon="4.84263">
        <ele>197</ele>
        <time>2017-05-04T13:21:37.000Z</time>
      </trkpt>
      <trkpt lat="46.20664" lon="4.84262">
        <ele>197</ele>
        <time>2017-05-04T13:21:38.000Z</time>
      </trkpt>
      <trkpt lat="46.20663" lon="4.84262">
        <ele>197</ele>
        <time>2017-05-04T13:21:39.000Z</time>
      </trkpt>
      <trkpt lat="46.20661" lon="4.84261">
        <ele>197</ele>
        <time>2017-05-04T13:21:40.000Z</time>
      </trkpt>
      <trkpt lat="46.2066" lon="4.8426">
        <ele>197</ele>
        <time>2017-05-04T13:21:41.000Z</time>
      </trkpt>
      <trkpt lat="46.20659" lon="4.8426">
        <ele>197</ele>
        <time>2017-05-04T13:21:42.000Z</time>
      </trkpt>
      <trkpt lat="46.20658" lon="4.84259">
        <ele>197</ele>
        <time>2017-05-04T13:21:43.000Z</time>
      </trkpt>
      <trkpt lat="46.20657" lon="4.84259">
        <ele>197</ele>
        <time>2017-05-04T13:21:44.000Z</time>
      </trkpt>
      <trkpt lat="46.20656" lon="4.84258">
        <ele>197</ele>
        <time>2017-05-04T13:21:45.000Z</time>
      </trkpt>
      <trkpt lat="46.20655" lon="4.84258">
        <ele>197</ele>
        <time>2017-05-04T13:21:46.000Z</time>
      </trkpt>
      <trkpt lat="46.20654" lon="4.84257">
        <ele>197</ele>
        <time>2017-05-04T13:21:47.000Z</time>
      </trkpt>
      <trkpt lat="46.20653" lon="4.84257">
        <ele>197</ele>
        <time>2017-05-04T13:21:48.000Z</time>
      </trkpt>
      <trkpt lat="46.20652" lon="4.84256">
        <ele>197</ele>
        <time>2017-05-04T13:21:49.000Z</time>
      </trkpt>
      <trkpt lat="46.20651" lon="4.84255">
        <ele>198</ele>
        <time>2017-05-04T13:21:50.000Z</time>
      </trkpt>
      <trkpt lat="46.2065" lon="4.84255">
        <ele>198</ele>
        <time>2017-05-04T13:21:51.000Z</time>
      </trkpt>
      <trkpt lat="46.20648" lon="4.84254">
        <ele>198</ele>
        <time>2017-05-04T13:21:52.000Z</time>
      </trkpt>
      <trkpt lat="46.20647" lon="4.84253">
        <ele>198</ele>
        <time>2017-05-04T13:21:53.000Z</time>
      </trkpt>
      <trkpt lat="46.20646" lon="4.84253">
        <ele>198</ele>
        <time>2017-05-04T13:21:54.000Z</time>
      </trkpt>
      <trkpt lat="46.20645" lon="4.84252">
        <ele>198</ele>
        <time>2017-05-04T13:21:55.000Z</time>
      </trkpt>
      <trkpt lat="46.20644" lon="4.84252">
        <ele>198</ele>
        <time>2017-05-04T13:21:56.000Z</time>
      </trkpt>
      <trkpt lat="46.20643" lon="4.84251">
        <ele>197</ele>
        <time>2017-05-04T13:21:57.000Z</time>
      </trkpt>
      <trkpt lat="46.20642" lon="4.84251">
        <ele>197</ele>
        <time>2017-05-04T13:21:58.000Z</time>
      </trkpt>
      <trkpt lat="46.20641" lon="4.8425">
        <ele>197</ele>
        <time>2017-05-04T13:21:59.000Z</time>
      </trkpt>
      <trkpt lat="46.20639" lon="4.8425">
        <ele>196</ele>
        <time>2017-05-04T13:22:00.000Z</time>
      </trkpt>
      <trkpt lat="46.20638" lon="4.84249">
        <ele>197</ele>
        <time>2017-05-04T13:22:01.000Z</time>
      </trkpt>
      <trkpt lat="46.20637" lon="4.84249">
        <ele>196</ele>
        <time>2017-05-04T13:22:02.000Z</time>
      </trkpt>
      <trkpt lat="46.20636" lon="4.84248">
        <ele>197</ele>
        <time>2017-05-04T13:22:03.000Z</time>
      </trkpt>
      <trkpt lat="46.20635" lon="4.84248">
        <ele>197</ele>
        <time>2017-05-04T13:22:04.000Z</time>
      </trkpt>
      <trkpt lat="46.20634" lon="4.84247">
        <ele>197</ele>
        <time>2017-05-04T13:22:05.000Z</time>
      </trkpt>
      <trkpt lat="46.20633" lon="4.84246">
        <ele>197</ele>
        <time>2017-05-04T13:22:06.000Z</time>
      </trkpt>
      <trkpt lat="46.20632" lon="4.84246">
        <ele>197</ele>
        <time>2017-05-04T13:22:07.000Z</time>
      </trkpt>
      <trkpt lat="46.20631" lon="4.84245">
        <ele>197</ele>
        <time>2017-05-04T13:22:08.000Z</time>
      </trkpt>
      <trkpt lat="46.2063" lon="4.84244">
        <ele>197</ele>
        <time>2017-05-04T13:22:09.000Z</time>
      </trkpt>
      <trkpt lat="46.20629" lon="4.84244">
        <ele>197</ele>
        <time>2017-05-04T13:22:10.000Z</time>
      </trkpt>
      <trkpt lat="46.20628" lon="4.84243">
        <ele>197</ele>
        <time>2017-05-04T13:22:11.000Z</time>
      </trkpt>
      <trkpt lat="46.20627" lon="4.84243">
        <ele>197</ele>
        <time>2017-05-04T13:22:12.000Z</time>
      </trkpt>
      <trkpt lat="46.20626" lon="4.84242">
        <ele>197</ele>
        <time>2017-05-04T13:22:13.000Z</time>
      </trkpt>
      <trkpt lat="46.20625" lon="4.84242">
        <ele>197</ele>
        <time>2017-05-04T13:22:14.000Z</time>
      </trkpt>
      <trkpt lat="46.20623" lon="4.84241">
        <ele>197</ele>
        <time>2017-05-04T13:22:15.000Z</time>
      </trkpt>
      <trkpt lat="46.20622" lon="4.84241">
        <ele>197</ele>
        <time>2017-05-04T13:22:16.000Z</time>
      </trkpt>
      <trkpt lat="46.20621" lon="4.8424">
        <ele>196</ele>
        <time>2017-05-04T13:22:17.000Z</time>
      </trkpt>
      <trkpt lat="46.2062" lon="4.8424">
        <ele>197</ele>
        <time>2017-05-04T13:22:18.000Z</time>
      </trkpt>
      <trkpt lat="46.20619" lon="4.84239">
        <ele>198</ele>
        <time>2017-05-04T13:22:19.000Z</time>
      </trkpt>
      <trkpt lat="46.20618" lon="4.84238">
        <ele>198</ele>
        <time>2017-05-04T13:22:20.000Z</time>
      </trkpt>
      <trkpt lat="46.20617" lon="4.84237">
        <ele>199</ele>
        <time>2017-05-04T13:22:21.000Z</time>
      </trkpt>
      <trkpt lat="46.20616" lon="4.84236">
        <ele>200</ele>
        <time>2017-05-04T13:22:22.000Z</time>
      </trkpt>
      <trkpt lat="46.20615" lon="4.84236">
        <ele>199</ele>
        <time>2017-05-04T13:22:23.000Z</time>
      </trkpt>
      <trkpt lat="46.20614" lon="4.84235">
        <ele>200</ele>
        <time>2017-05-04T13:22:24.000Z</time>
      </trkpt>
      <trkpt lat="46.20613" lon="4.84234">
        <ele>199</ele>
        <time>2017-05-04T13:22:25.000Z</time>
      </trkpt>
      <trkpt lat="46.20612" lon="4.84234">
        <ele>200</ele>
        <time>2017-05-04T13:22:26.000Z</time>
      </trkpt>
      <trkpt lat="46.20611" lon="4.84233">
        <ele>200</ele>
        <time>2017-05-04T13:22:27.000Z</time>
      </trkpt>
      <trkpt lat="46.2061" lon="4.84233">
        <ele>200</ele>
        <time>2017-05-04T13:22:28.000Z</time>
      </trkpt>
      <trkpt lat="46.20609" lon="4.84232">
        <ele>200</ele>
        <time>2017-05-04T13:22:29.000Z</time>
      </trkpt>
      <trkpt lat="46.20608" lon="4.84232">
        <ele>200</ele>
        <time>2017-05-04T13:22:30.000Z</time>
      </trkpt>
      <trkpt lat="46.20607" lon="4.84232">
        <ele>200</ele>
        <time>2017-05-04T13:22:31.000Z</time>
      </trkpt>
      <trkpt lat="46.20606" lon="4.84232">
        <ele>201</ele>
        <time>2017-05-04T13:22:32.000Z</time>
      </trkpt>
      <trkpt lat="46.20605" lon="4.84232">
        <ele>200</ele>
        <time>2017-05-04T13:22:33.000Z</time>
      </trkpt>
      <trkpt lat="46.20604" lon="4.84233">
        <ele>200</ele>
        <time>2017-05-04T13:22:34.000Z</time>
      </trkpt>
      <trkpt lat="46.20603" lon="4.84234">
        <ele>200</ele>
        <time>2017-05-04T13:22:35.000Z</time>
      </trkpt>
      <trkpt lat="46.20603" lon="4.84236">
        <ele>200</ele>
        <time>2017-05-04T13:22:36.000Z</time>
      </trkpt>
      <trkpt lat="46.20602" lon="4.84237">
        <ele>201</ele>
        <time>2017-05-04T13:22:37.000Z</time>
      </trkpt>
      <trkpt lat="46.20602" lon="4.84238">
        <ele>201</ele>
        <time>2017-05-04T13:22:38.000Z</time>
      </trkpt>
      <trkpt lat="46.20601" lon="4.84239">
        <ele>201</ele>
        <time>2017-05-04T13:22:39.000Z</time>
      </trkpt>
      <trkpt lat="46.20601" lon="4.8424">
        <ele>201</ele>
        <time>2017-05-04T13:22:40.000Z</time>
      </trkpt>
      <trkpt lat="46.206" lon="4.84241">
        <ele>200</ele>
        <time>2017-05-04T13:22:41.000Z</time>
      </trkpt>
      <trkpt lat="46.206" lon="4.84242">
        <ele>200</ele>
        <time>2017-05-04T13:22:42.000Z</time>
      </trkpt>
      <trkpt lat="46.20599" lon="4.84242">
        <ele>200</ele>
        <time>2017-05-04T13:22:43.000Z</time>
      </trkpt>
      <trkpt lat="46.20599" lon="4.84243">
        <ele>200</ele>
        <time>2017-05-04T13:22:44.000Z</time>
      </trkpt>
      <trkpt lat="46.20599" lon="4.84244">
        <ele>200</ele>
        <time>2017-05-04T13:22:45.000Z</time>
      </trkpt>
      <trkpt lat="46.20599" lon="4.84244">
        <ele>200</ele>
        <time>2017-05-04T13:22:46.000Z</time>
      </trkpt>
      <trkpt lat="46.20599" lon="4.84244">
        <ele>200</ele>
        <time>2017-05-04T13:22:47.000Z</time>
      </trkpt>
      <trkpt lat="46.20599" lon="4.84243">
        <ele>200</ele>
        <time>2017-05-04T13:22:48.000Z</time>
      </trkpt>
      <trkpt lat="46.20599" lon="4.84243">
        <ele>201</ele>
        <time>2017-05-04T13:22:49.000Z</time>
      </trkpt>
      <trkpt lat="46.20599" lon="4.84244">
        <ele>200</ele>
        <time>2017-05-04T13:22:50.000Z</time>
      </trkpt>
      <trkpt lat="46.20599" lon="4.84244">
        <ele>201</ele>
        <time>2017-05-04T13:22:51.000Z</time>
      </trkpt>
      <trkpt lat="46.20599" lon="4.84244">
        <ele>201</ele>
        <time>2017-05-04T13:22:52.000Z</time>
      </trkpt>
      <trkpt lat="46.20599" lon="4.84244">
        <ele>201</ele>
        <time>2017-05-04T13:22:53.000Z</time>
      </trkpt>
      <trkpt lat="46.20599" lon="4.84245">
        <ele>201</ele>
        <time>2017-05-04T13:22:54.000Z</time>
      </trkpt>
      <trkpt lat="46.20599" lon="4.84246">
        <ele>201</ele>
        <time>2017-05-04T13:22:55.000Z</time>
      </trkpt>
      <trkpt lat="46.20599" lon="4.84247">
        <ele>201</ele>
        <time>2017-05-04T13:22:56.000Z</time>
      </trkpt>
      <trkpt lat="46.20599" lon="4.84248">
        <ele>201</ele>
        <time>2017-05-04T13:22:57.000Z</time>
      </trkpt>
      <trkpt lat="46.20599" lon="4.84249">
        <ele>201</ele>
        <time>2017-05-04T13:22:58.000Z</time>
      </trkpt>
      <trkpt lat="46.20599" lon="4.8425">
        <ele>201</ele>
        <time>2017-05-04T13:22:59.000Z</time>
      </trkpt>
      <trkpt lat="46.20599" lon="4.84251">
        <ele>201</ele>
        <time>2017-05-04T13:23:00.000Z</time>
      </trkpt>
      <trkpt lat="46.20599" lon="4.84252">
        <ele>201</ele>
        <time>2017-05-04T13:23:01.000Z</time>
      </trkpt>
      <trkpt lat="46.20598" lon="4.84253">
        <ele>201</ele>
        <time>2017-05-04T13:23:02.000Z</time>
      </trkpt>
      <trkpt lat="46.20598" lon="4.84254">
        <ele>201</ele>
        <time>2017-05-04T13:23:03.000Z</time>
      </trkpt>
      <trkpt lat="46.20598" lon="4.84256">
        <ele>200</ele>
        <time>2017-05-04T13:23:04.000Z</time>
      </trkpt>
      <trkpt lat="46.20598" lon="4.84257">
        <ele>200</ele>
        <time>2017-05-04T13:23:05.000Z</time>
      </trkpt>
      <trkpt lat="46.20597" lon="4.84258">
        <ele>201</ele>
        <time>2017-05-04T13:23:06.000Z</time>
      </trkpt>
      <trkpt lat="46.20597" lon="4.8426">
        <ele>201</ele>
        <time>2017-05-04T13:23:07.000Z</time>
      </trkpt>
      <trkpt lat="46.20597" lon="4.84261">
        <ele>201</ele>
        <time>2017-05-04T13:23:08.000Z</time>
      </trkpt>
      <trkpt lat="46.20597" lon="4.84262">
        <ele>201</ele>
        <time>2017-05-04T13:23:09.000Z</time>
      </trkpt>
      <trkpt lat="46.20597" lon="4.84264">
        <ele>201</ele>
        <time>2017-05-04T13:23:10.000Z</time>
      </trkpt>
      <trkpt lat="46.20597" lon="4.84265">
        <ele>201</ele>
        <time>2017-05-04T13:23:11.000Z</time>
      </trkpt>
      <trkpt lat="46.20597" lon="4.84266">
        <ele>201</ele>
        <time>2017-05-04T13:23:12.000Z</time>
      </trkpt>
      <trkpt lat="46.20596" lon="4.84267">
        <ele>202</ele>
        <time>2017-05-04T13:23:13.000Z</time>
      </trkpt>
      <trkpt lat="46.20596" lon="4.84269">
        <ele>201</ele>
        <time>2017-05-04T13:23:14.000Z</time>
      </trkpt>
      <trkpt lat="46.20596" lon="4.8427">
        <ele>201</ele>
        <time>2017-05-04T13:23:15.000Z</time>
      </trkpt>
      <trkpt lat="46.20596" lon="4.84271">
        <ele>201</ele>
        <time>2017-05-04T13:23:16.000Z</time>
      </trkpt>
      <trkpt lat="46.20595" lon="4.84273">
        <ele>201</ele>
        <time>2017-05-04T13:23:17.000Z</time>
      </trkpt>
      <trkpt lat="46.20595" lon="4.84275">
        <ele>202</ele>
        <time>2017-05-04T13:23:18.000Z</time>
      </trkpt>
      <trkpt lat="46.20595" lon="4.84276">
        <ele>202</ele>
        <time>2017-05-04T13:23:19.000Z</time>
      </trkpt>
      <trkpt lat="46.20595" lon="4.84279">
        <ele>202</ele>
        <time>2017-05-04T13:23:20.000Z</time>
      </trkpt>
      <trkpt lat="46.20595" lon="4.8428">
        <ele>201</ele>
        <time>2017-05-04T13:23:21.000Z</time>
      </trkpt>
      <trkpt lat="46.20594" lon="4.84282">
        <ele>201</ele>
        <time>2017-05-04T13:23:22.000Z</time>
      </trkpt>
      <trkpt lat="46.20594" lon="4.84285">
        <ele>201</ele>
        <time>2017-05-04T13:23:23.000Z</time>
      </trkpt>
      <trkpt lat="46.20594" lon="4.84286">
        <ele>201</ele>
        <time>2017-05-04T13:23:24.000Z</time>
      </trkpt>
      <trkpt lat="46.20594" lon="4.84288">
        <ele>201</ele>
        <time>2017-05-04T13:23:25.000Z</time>
      </trkpt>
      <trkpt lat="46.20594" lon="4.84289">
        <ele>201</ele>
        <time>2017-05-04T13:23:26.000Z</time>
      </trkpt>
      <trkpt lat="46.20594" lon="4.84291">
        <ele>201</ele>
        <time>2017-05-04T13:23:27.000Z</time>
      </trkpt>
      <trkpt lat="46.20593" lon="4.84292">
        <ele>200</ele>
        <time>2017-05-04T13:23:28.000Z</time>
      </trkpt>
      <trkpt lat="46.20593" lon="4.84294">
        <ele>201</ele>
        <time>2017-05-04T13:23:29.000Z</time>
      </trkpt>
      <trkpt lat="46.20593" lon="4.84296">
        <ele>200</ele>
        <time>2017-05-04T13:23:30.000Z</time>
      </trkpt>
      <trkpt lat="46.20593" lon="4.84298">
        <ele>201</ele>
        <time>2017-05-04T13:23:31.000Z</time>
      </trkpt>
      <trkpt lat="46.20593" lon="4.84299">
        <ele>200</ele>
        <time>2017-05-04T13:23:32.000Z</time>
      </trkpt>
      <trkpt lat="46.20593" lon="4.84301">
        <ele>201</ele>
        <time>2017-05-04T13:23:33.000Z</time>
      </trkpt>
      <trkpt lat="46.20593" lon="4.84303">
        <ele>201</ele>
        <time>2017-05-04T13:23:34.000Z</time>
      </trkpt>
      <trkpt lat="46.20593" lon="4.84304">
        <ele>201</ele>
        <time>2017-05-04T13:23:35.000Z</time>
      </trkpt>
      <trkpt lat="46.20594" lon="4.84306">
        <ele>200</ele>
        <time>2017-05-04T13:23:36.000Z</time>
      </trkpt>
      <trkpt lat="46.20594" lon="4.84308">
        <ele>201</ele>
        <time>2017-05-04T13:23:37.000Z</time>
      </trkpt>
      <trkpt lat="46.20594" lon="4.84309">
        <ele>201</ele>
        <time>2017-05-04T13:23:38.000Z</time>
      </trkpt>
      <trkpt lat="46.20594" lon="4.84311">
        <ele>201</ele>
        <time>2017-05-04T13:23:39.000Z</time>
      </trkpt>
      <trkpt lat="46.20594" lon="4.84313">
        <ele>201</ele>
        <time>2017-05-04T13:23:40.000Z</time>
      </trkpt>
      <trkpt lat="46.20594" lon="4.84315">
        <ele>201</ele>
        <time>2017-05-04T13:23:41.000Z</time>
      </trkpt>
      <trkpt lat="46.20594" lon="4.84316">
        <ele>201</ele>
        <time>2017-05-04T13:23:42.000Z</time>
      </trkpt>
      <trkpt lat="46.20594" lon="4.84318">
        <ele>202</ele>
        <time>2017-05-04T13:23:43.000Z</time>
      </trkpt>
      <trkpt lat="46.20594" lon="4.84319">
        <ele>201</ele>
        <time>2017-05-04T13:23:44.000Z</time>
      </trkpt>
      <trkpt lat="46.20594" lon="4.84321">
        <ele>201</ele>
        <time>2017-05-04T13:23:45.000Z</time>
      </trkpt>
      <trkpt lat="46.20594" lon="4.84322">
        <ele>201</ele>
        <time>2017-05-04T13:23:46.000Z</time>
      </trkpt>
      <trkpt lat="46.20594" lon="4.84324">
        <ele>200</ele>
        <time>2017-05-04T13:23:47.000Z</time>
      </trkpt>
      <trkpt lat="46.20594" lon="4.84325">
        <ele>200</ele>
        <time>2017-05-04T13:23:48.000Z</time>
      </trkpt>
      <trkpt lat="46.20594" lon="4.84327">
        <ele>200</ele>
        <time>2017-05-04T13:23:49.000Z</time>
      </trkpt>
      <trkpt lat="46.20594" lon="4.84329">
        <ele>200</ele>
        <time>2017-05-04T13:23:50.000Z</time>
      </trkpt>
      <trkpt lat="46.20594" lon="4.8433">
        <ele>199</ele>
        <time>2017-05-04T13:23:51.000Z</time>
      </trkpt>
      <trkpt lat="46.20594" lon="4.84331">
        <ele>199</ele>
        <time>2017-05-04T13:23:52.000Z</time>
      </trkpt>
      <trkpt lat="46.20594" lon="4.84333">
        <ele>199</ele>
        <time>2017-05-04T13:23:53.000Z</time>
      </trkpt>
      <trkpt lat="46.20594" lon="4.84334">
        <ele>199</ele>
        <time>2017-05-04T13:23:54.000Z</time>
      </trkpt>
      <trkpt lat="46.20594" lon="4.84336">
        <ele>199</ele>
        <time>2017-05-04T13:23:55.000Z</time>
      </trkpt>
      <trkpt lat="46.20594" lon="4.84338">
        <ele>199</ele>
        <time>2017-05-04T13:23:56.000Z</time>
      </trkpt>
      <trkpt lat="46.20593" lon="4.84339">
        <ele>199</ele>
        <time>2017-05-04T13:23:57.000Z</time>
      </trkpt>
      <trkpt lat="46.20593" lon="4.84341">
        <ele>200</ele>
        <time>2017-05-04T13:23:58.000Z</time>
      </trkpt>
      <trkpt lat="46.20593" lon="4.84343">
        <ele>199</ele>
        <time>2017-05-04T13:23:59.000Z</time>
      </trkpt>
      <trkpt lat="46.20593" lon="4.84345">
        <ele>198</ele>
        <time>2017-05-04T13:24:00.000Z</time>
      </trkpt>
      <trkpt lat="46.20593" lon="4.84346">
        <ele>198</ele>
        <time>2017-05-04T13:24:01.000Z</time>
      </trkpt>
      <trkpt lat="46.20593" lon="4.84348">
        <ele>198</ele>
        <time>2017-05-04T13:24:02.000Z</time>
      </trkpt>
      <trkpt lat="46.20593" lon="4.84349">
        <ele>199</ele>
        <time>2017-05-04T13:24:03.000Z</time>
      </trkpt>
      <trkpt lat="46.20593" lon="4.84351">
        <ele>198</ele>
        <time>2017-05-04T13:24:04.000Z</time>
      </trkpt>
      <trkpt lat="46.20593" lon="4.84352">
        <ele>198</ele>
        <time>2017-05-04T13:24:05.000Z</time>
      </trkpt>
      <trkpt lat="46.20593" lon="4.84354">
        <ele>198</ele>
        <time>2017-05-04T13:24:06.000Z</time>
      </trkpt>
      <trkpt lat="46.20593" lon="4.84355">
        <ele>199</ele>
        <time>2017-05-04T13:24:07.000Z</time>
      </trkpt>
      <trkpt lat="46.20593" lon="4.84357">
        <ele>199</ele>
        <time>2017-05-04T13:24:08.000Z</time>
      </trkpt>
      <trkpt lat="46.20593" lon="4.84359">
        <ele>199</ele>
        <time>2017-05-04T13:24:09.000Z</time>
      </trkpt>
      <trkpt lat="46.20593" lon="4.8436">
        <ele>198</ele>
        <time>2017-05-04T13:24:10.000Z</time>
      </trkpt>
      <trkpt lat="46.20593" lon="4.84362">
        <ele>199</ele>
        <time>2017-05-04T13:24:11.000Z</time>
      </trkpt>
      <trkpt lat="46.20593" lon="4.84363">
        <ele>198</ele>
        <time>2017-05-04T13:24:12.000Z</time>
      </trkpt>
      <trkpt lat="46.20593" lon="4.84365">
        <ele>198</ele>
        <time>2017-05-04T13:24:13.000Z</time>
      </trkpt>
      <trkpt lat="46.20593" lon="4.84367">
        <ele>198</ele>
        <time>2017-05-04T13:24:14.000Z</time>
      </trkpt>
      <trkpt lat="46.20593" lon="4.84369">
        <ele>199</ele>
        <time>2017-05-04T13:24:15.000Z</time>
      </trkpt>
      <trkpt lat="46.20593" lon="4.8437">
        <ele>199</ele>
        <time>2017-05-04T13:24:16.000Z</time>
      </trkpt>
      <trkpt lat="46.20593" lon="4.84372">
        <ele>199</ele>
        <time>2017-05-04T13:24:17.000Z</time>
      </trkpt>
      <trkpt lat="46.20593" lon="4.84374">
        <ele>198</ele>
        <time>2017-05-04T13:24:18.000Z</time>
      </trkpt>
      <trkpt lat="46.20593" lon="4.84375">
        <ele>199</ele>
        <time>2017-05-04T13:24:19.000Z</time>
      </trkpt>
      <trkpt lat="46.20593" lon="4.84376">
        <ele>199</ele>
        <time>2017-05-04T13:24:20.000Z</time>
      </trkpt>
      <trkpt lat="46.20593" lon="4.84378">
        <ele>199</ele>
        <time>2017-05-04T13:24:21.000Z</time>
      </trkpt>
      <trkpt lat="46.20593" lon="4.8438">
        <ele>199</ele>
        <time>2017-05-04T13:24:22.000Z</time>
      </trkpt>
      <trkpt lat="46.20593" lon="4.84381">
        <ele>199</ele>
        <time>2017-05-04T13:24:23.000Z</time>
      </trkpt>
      <trkpt lat="46.20593" lon="4.84383">
        <ele>199</ele>
        <time>2017-05-04T13:24:24.000Z</time>
      </trkpt>
      <trkpt lat="46.20593" lon="4.84384">
        <ele>199</ele>
        <time>2017-05-04T13:24:25.000Z</time>
      </trkpt>
      <trkpt lat="46.20592" lon="4.84386">
        <ele>199</ele>
        <time>2017-05-04T13:24:26.000Z</time>
      </trkpt>
      <trkpt lat="46.20592" lon="4.84388">
        <ele>199</ele>
        <time>2017-05-04T13:24:27.000Z</time>
      </trkpt>
      <trkpt lat="46.20592" lon="4.8439">
        <ele>199</ele>
        <time>2017-05-04T13:24:28.000Z</time>
      </trkpt>
      <trkpt lat="46.20592" lon="4.84391">
        <ele>199</ele>
        <time>2017-05-04T13:24:29.000Z</time>
      </trkpt>
      <trkpt lat="46.20592" lon="4.84393">
        <ele>199</ele>
        <time>2017-05-04T13:24:30.000Z</time>
      </trkpt>
      <trkpt lat="46.20592" lon="4.84394">
        <ele>199</ele>
        <time>2017-05-04T13:24:31.000Z</time>
      </trkpt>
      <trkpt lat="46.20592" lon="4.84396">
        <ele>200</ele>
        <time>2017-05-04T13:24:32.000Z</time>
      </trkpt>
      <trkpt lat="46.20593" lon="4.84398">
        <ele>199</ele>
        <time>2017-05-04T13:24:33.000Z</time>
      </trkpt>
      <trkpt lat="46.20593" lon="4.84399">
        <ele>199</ele>
        <time>2017-05-04T13:24:34.000Z</time>
      </trkpt>
      <trkpt lat="46.20593" lon="4.84401">
        <ele>199</ele>
        <time>2017-05-04T13:24:35.000Z</time>
      </trkpt>
      <trkpt lat="46.20592" lon="4.84403">
        <ele>199</ele>
        <time>2017-05-04T13:24:36.000Z</time>
      </trkpt>
      <trkpt lat="46.20592" lon="4.84404">
        <ele>199</ele>
        <time>2017-05-04T13:24:37.000Z</time>
      </trkpt>
      <trkpt lat="46.20592" lon="4.84406">
        <ele>199</ele>
        <time>2017-05-04T13:24:38.000Z</time>
      </trkpt>
      <trkpt lat="46.20592" lon="4.84407">
        <ele>199</ele>
        <time>2017-05-04T13:24:39.000Z</time>
      </trkpt>
      <trkpt lat="46.20592" lon="4.84409">
        <ele>198</ele>
        <time>2017-05-04T13:24:40.000Z</time>
      </trkpt>
      <trkpt lat="46.20592" lon="4.8441">
        <ele>198</ele>
        <time>2017-05-04T13:24:41.000Z</time>
      </trkpt>
      <trkpt lat="46.20592" lon="4.84412">
        <ele>199</ele>
        <time>2017-05-04T13:24:42.000Z</time>
      </trkpt>
      <trkpt lat="46.20592" lon="4.84413">
        <ele>199</ele>
        <time>2017-05-04T13:24:43.000Z</time>
      </trkpt>
      <trkpt lat="46.20592" lon="4.84415">
        <ele>199</ele>
        <time>2017-05-04T13:24:44.000Z</time>
      </trkpt>
      <trkpt lat="46.20592" lon="4.84417">
        <ele>198</ele>
        <time>2017-05-04T13:24:45.000Z</time>
      </trkpt>
      <trkpt lat="46.20592" lon="4.84418">
        <ele>199</ele>
        <time>2017-05-04T13:24:46.000Z</time>
      </trkpt>
      <trkpt lat="46.20592" lon="4.8442">
        <ele>198</ele>
        <time>2017-05-04T13:24:47.000Z</time>
      </trkpt>
      <trkpt lat="46.20592" lon="4.84421">
        <ele>198</ele>
        <time>2017-05-04T13:24:48.000Z</time>
      </trkpt>
      <trkpt lat="46.20592" lon="4.84423">
        <ele>198</ele>
        <time>2017-05-04T13:24:49.000Z</time>
      </trkpt>
      <trkpt lat="46.20593" lon="4.84424">
        <ele>198</ele>
        <time>2017-05-04T13:24:50.000Z</time>
      </trkpt>
      <trkpt lat="46.20593" lon="4.84425">
        <ele>197</ele>
        <time>2017-05-04T13:24:51.000Z</time>
      </trkpt>
      <trkpt lat="46.20593" lon="4.84427">
        <ele>197</ele>
        <time>2017-05-04T13:24:52.000Z</time>
      </trkpt>
      <trkpt lat="46.20592" lon="4.84428">
        <ele>198</ele>
        <time>2017-05-04T13:24:53.000Z</time>
      </trkpt>
      <trkpt lat="46.20592" lon="4.8443">
        <ele>198</ele>
        <time>2017-05-04T13:24:54.000Z</time>
      </trkpt>
      <trkpt lat="46.20592" lon="4.84431">
        <ele>198</ele>
        <time>2017-05-04T13:24:55.000Z</time>
      </trkpt>
      <trkpt lat="46.20592" lon="4.84433">
        <ele>198</ele>
        <time>2017-05-04T13:24:56.000Z</time>
      </trkpt>
      <trkpt lat="46.20591" lon="4.84435">
        <ele>198</ele>
        <time>2017-05-04T13:24:57.000Z</time>
      </trkpt>
      <trkpt lat="46.20591" lon="4.84436">
        <ele>198</ele>
        <time>2017-05-04T13:24:58.000Z</time>
      </trkpt>
      <trkpt lat="46.20591" lon="4.84438">
        <ele>197</ele>
        <time>2017-05-04T13:24:59.000Z</time>
      </trkpt>
      <trkpt lat="46.20591" lon="4.84439">
        <ele>197</ele>
        <time>2017-05-04T13:25:00.000Z</time>
      </trkpt>
      <trkpt lat="46.20591" lon="4.84441">
        <ele>197</ele>
        <time>2017-05-04T13:25:01.000Z</time>
      </trkpt>
      <trkpt lat="46.20591" lon="4.84442">
        <ele>197</ele>
        <time>2017-05-04T13:25:02.000Z</time>
      </trkpt>
      <trkpt lat="46.2059" lon="4.84444">
        <ele>197</ele>
        <time>2017-05-04T13:25:03.000Z</time>
      </trkpt>
      <trkpt lat="46.2059" lon="4.84445">
        <ele>197</ele>
        <time>2017-05-04T13:25:04.000Z</time>
      </trkpt>
      <trkpt lat="46.2059" lon="4.84447">
        <ele>197</ele>
        <time>2017-05-04T13:25:05.000Z</time>
      </trkpt>
      <trkpt lat="46.2059" lon="4.84449">
        <ele>197</ele>
        <time>2017-05-04T13:25:06.000Z</time>
      </trkpt>
      <trkpt lat="46.2059" lon="4.84451">
        <ele>197</ele>
        <time>2017-05-04T13:25:07.000Z</time>
      </trkpt>
      <trkpt lat="46.2059" lon="4.84453">
        <ele>197</ele>
        <time>2017-05-04T13:25:08.000Z</time>
      </trkpt>
      <trkpt lat="46.2059" lon="4.84454">
        <ele>197</ele>
        <time>2017-05-04T13:25:09.000Z</time>
      </trkpt>
      <trkpt lat="46.2059" lon="4.84456">
        <ele>196</ele>
        <time>2017-05-04T13:25:10.000Z</time>
      </trkpt>
      <trkpt lat="46.2059" lon="4.84458">
        <ele>196</ele>
        <time>2017-05-04T13:25:11.000Z</time>
      </trkpt>
      <trkpt lat="46.20589" lon="4.84459">
        <ele>197</ele>
        <time>2017-05-04T13:25:12.000Z</time>
      </trkpt>
      <trkpt lat="46.20589" lon="4.84461">
        <ele>197</ele>
        <time>2017-05-04T13:25:13.000Z</time>
      </trkpt>
      <trkpt lat="46.20589" lon="4.84463">
        <ele>198</ele>
        <time>2017-05-04T13:25:14.000Z</time>
      </trkpt>
      <trkpt lat="46.20589" lon="4.84465">
        <ele>198</ele>
        <time>2017-05-04T13:25:15.000Z</time>
      </trkpt>
      <trkpt lat="46.20589" lon="4.84467">
        <ele>197</ele>
        <time>2017-05-04T13:25:16.000Z</time>
      </trkpt>
      <trkpt lat="46.20589" lon="4.84468">
        <ele>197</ele>
        <time>2017-05-04T13:25:17.000Z</time>
      </trkpt>
      <trkpt lat="46.20589" lon="4.8447">
        <ele>197</ele>
        <time>2017-05-04T13:25:18.000Z</time>
      </trkpt>
      <trkpt lat="46.20588" lon="4.84472">
        <ele>197</ele>
        <time>2017-05-04T13:25:19.000Z</time>
      </trkpt>
      <trkpt lat="46.20588" lon="4.84473">
        <ele>197</ele>
        <time>2017-05-04T13:25:20.000Z</time>
      </trkpt>
      <trkpt lat="46.20588" lon="4.84475">
        <ele>197</ele>
        <time>2017-05-04T13:25:21.000Z</time>
      </trkpt>
      <trkpt lat="46.20588" lon="4.84477">
        <ele>197</ele>
        <time>2017-05-04T13:25:22.000Z</time>
      </trkpt>
      <trkpt lat="46.20588" lon="4.84479">
        <ele>197</ele>
        <time>2017-05-04T13:25:23.000Z</time>
      </trkpt>
      <trkpt lat="46.20588" lon="4.84481">
        <ele>197</ele>
        <time>2017-05-04T13:25:24.000Z</time>
      </trkpt>
      <trkpt lat="46.20587" lon="4.84483">
        <ele>197</ele>
        <time>2017-05-04T13:25:25.000Z</time>
      </trkpt>
      <trkpt lat="46.20587" lon="4.84485">
        <ele>197</ele>
        <time>2017-05-04T13:25:26.000Z</time>
      </trkpt>
      <trkpt lat="46.20587" lon="4.84486">
        <ele>197</ele>
        <time>2017-05-04T13:25:27.000Z</time>
      </trkpt>
      <trkpt lat="46.20587" lon="4.84488">
        <ele>197</ele>
        <time>2017-05-04T13:25:28.000Z</time>
      </trkpt>
      <trkpt lat="46.20587" lon="4.8449">
        <ele>197</ele>
        <time>2017-05-04T13:25:29.000Z</time>
      </trkpt>
      <trkpt lat="46.20586" lon="4.84491">
        <ele>197</ele>
        <time>2017-05-04T13:25:30.000Z</time>
      </trkpt>
      <trkpt lat="46.20586" lon="4.84493">
        <ele>196</ele>
        <time>2017-05-04T13:25:31.000Z</time>
      </trkpt>
      <trkpt lat="46.20586" lon="4.84494">
        <ele>196</ele>
        <time>2017-05-04T13:25:32.000Z</time>
      </trkpt>
      <trkpt lat="46.20586" lon="4.84496">
        <ele>196</ele>
        <time>2017-05-04T13:25:33.000Z</time>
      </trkpt>
      <trkpt lat="46.20586" lon="4.84498">
        <ele>196</ele>
        <time>2017-05-04T13:25:34.000Z</time>
      </trkpt>
      <trkpt lat="46.20586" lon="4.845">
        <ele>196</ele>
        <time>2017-05-04T13:25:35.000Z</time>
      </trkpt>
      <trkpt lat="46.20586" lon="4.84501">
        <ele>196</ele>
        <time>2017-05-04T13:25:36.000Z</time>
      </trkpt>
      <trkpt lat="46.20586" lon="4.84503">
        <ele>196</ele>
        <time>2017-05-04T13:25:37.000Z</time>
      </trkpt>
      <trkpt lat="46.20585" lon="4.84505">
        <ele>196</ele>
        <time>2017-05-04T13:25:38.000Z</time>
      </trkpt>
      <trkpt lat="46.20585" lon="4.84507">
        <ele>197</ele>
        <time>2017-05-04T13:25:39.000Z</time>
      </trkpt>
      <trkpt lat="46.20585" lon="4.84509">
        <ele>197</ele>
        <time>2017-05-04T13:25:40.000Z</time>
      </trkpt>
      <trkpt lat="46.20584" lon="4.8451">
        <ele>196</ele>
        <time>2017-05-04T13:25:41.000Z</time>
      </trkpt>
      <trkpt lat="46.20584" lon="4.84512">
        <ele>196</ele>
        <time>2017-05-04T13:25:42.000Z</time>
      </trkpt>
      <trkpt lat="46.20584" lon="4.84513">
        <ele>196</ele>
        <time>2017-05-04T13:25:43.000Z</time>
      </trkpt>
      <trkpt lat="46.20584" lon="4.84515">
        <ele>196</ele>
        <time>2017-05-04T13:25:44.000Z</time>
      </trkpt>
      <trkpt lat="46.20583" lon="4.84517">
        <ele>195</ele>
        <time>2017-05-04T13:25:45.000Z</time>
      </trkpt>
      <trkpt lat="46.20583" lon="4.84518">
        <ele>195</ele>
        <time>2017-05-04T13:25:46.000Z</time>
      </trkpt>
      <trkpt lat="46.20583" lon="4.8452">
        <ele>195</ele>
        <time>2017-05-04T13:25:47.000Z</time>
      </trkpt>
      <trkpt lat="46.20582" lon="4.84522">
        <ele>196</ele>
        <time>2017-05-04T13:25:48.000Z</time>
      </trkpt>
      <trkpt lat="46.20582" lon="4.84523">
        <ele>195</ele>
        <time>2017-05-04T13:25:49.000Z</time>
      </trkpt>
      <trkpt lat="46.20582" lon="4.84525">
        <ele>196</ele>
        <time>2017-05-04T13:25:50.000Z</time>
      </trkpt>
      <trkpt lat="46.20581" lon="4.84526">
        <ele>195</ele>
        <time>2017-05-04T13:25:51.000Z</time>
      </trkpt>
      <trkpt lat="46.20581" lon="4.84528">
        <ele>196</ele>
        <time>2017-05-04T13:25:52.000Z</time>
      </trkpt>
      <trkpt lat="46.2058" lon="4.84529">
        <ele>196</ele>
        <time>2017-05-04T13:25:53.000Z</time>
      </trkpt>
      <trkpt lat="46.2058" lon="4.84531">
        <ele>196</ele>
        <time>2017-05-04T13:25:54.000Z</time>
      </trkpt>
      <trkpt lat="46.20579" lon="4.84532">
        <ele>195</ele>
        <time>2017-05-04T13:25:55.000Z</time>
      </trkpt>
      <trkpt lat="46.20578" lon="4.84533">
        <ele>195</ele>
        <time>2017-05-04T13:25:56.000Z</time>
      </trkpt>
      <trkpt lat="46.20577" lon="4.84534">
        <ele>195</ele>
        <time>2017-05-04T13:25:57.000Z</time>
      </trkpt>
      <trkpt lat="46.20576" lon="4.84535">
        <ele>195</ele>
        <time>2017-05-04T13:25:58.000Z</time>
      </trkpt>
      <trkpt lat="46.20575" lon="4.84536">
        <ele>194</ele>
        <time>2017-05-04T13:25:59.000Z</time>
      </trkpt>
      <trkpt lat="46.20574" lon="4.84537">
        <ele>194</ele>
        <time>2017-05-04T13:26:00.000Z</time>
      </trkpt>
      <trkpt lat="46.20574" lon="4.84537">
        <ele>193</ele>
        <time>2017-05-04T13:26:01.000Z</time>
      </trkpt>
      <trkpt lat="46.20573" lon="4.84537">
        <ele>192</ele>
        <time>2017-05-04T13:26:02.000Z</time>
      </trkpt>
      <trkpt lat="46.20572" lon="4.84538">
        <ele>192</ele>
        <time>2017-05-04T13:26:03.000Z</time>
      </trkpt>
      <trkpt lat="46.20571" lon="4.84538">
        <ele>192</ele>
        <time>2017-05-04T13:26:04.000Z</time>
      </trkpt>
      <trkpt lat="46.2057" lon="4.84538">
        <ele>192</ele>
        <time>2017-05-04T13:26:05.000Z</time>
      </trkpt>
      <trkpt lat="46.20569" lon="4.84539">
        <ele>192</ele>
        <time>2017-05-04T13:26:06.000Z</time>
      </trkpt>
      <trkpt lat="46.20567" lon="4.84539">
        <ele>192</ele>
        <time>2017-05-04T13:26:07.000Z</time>
      </trkpt>
      <trkpt lat="46.20566" lon="4.84539">
        <ele>191</ele>
        <time>2017-05-04T13:26:08.000Z</time>
      </trkpt>
      <trkpt lat="46.20565" lon="4.84539">
        <ele>192</ele>
        <time>2017-05-04T13:26:09.000Z</time>
      </trkpt>
      <trkpt lat="46.20564" lon="4.84539">
        <ele>191</ele>
        <time>2017-05-04T13:26:10.000Z</time>
      </trkpt>
      <trkpt lat="46.20563" lon="4.84539">
        <ele>191</ele>
        <time>2017-05-04T13:26:11.000Z</time>
      </trkpt>
      <trkpt lat="46.20561" lon="4.84539">
        <ele>191</ele>
        <time>2017-05-04T13:26:12.000Z</time>
      </trkpt>
      <trkpt lat="46.2056" lon="4.84539">
        <ele>191</ele>
        <time>2017-05-04T13:26:13.000Z</time>
      </trkpt>
      <trkpt lat="46.20559" lon="4.84539">
        <ele>191</ele>
        <time>2017-05-04T13:26:14.000Z</time>
      </trkpt>
      <trkpt lat="46.20557" lon="4.84539">
        <ele>191</ele>
        <time>2017-05-04T13:26:15.000Z</time>
      </trkpt>
      <trkpt lat="46.20556" lon="4.84539">
        <ele>191</ele>
        <time>2017-05-04T13:26:16.000Z</time>
      </trkpt>
      <trkpt lat="46.20555" lon="4.84539">
        <ele>191</ele>
        <time>2017-05-04T13:26:17.000Z</time>
      </trkpt>
      <trkpt lat="46.20554" lon="4.84538">
        <ele>191</ele>
        <time>2017-05-04T13:26:18.000Z</time>
      </trkpt>
      <trkpt lat="46.20552" lon="4.84538">
        <ele>191</ele>
        <time>2017-05-04T13:26:19.000Z</time>
      </trkpt>
      <trkpt lat="46.20551" lon="4.84538">
        <ele>191</ele>
        <time>2017-05-04T13:26:20.000Z</time>
      </trkpt>
      <trkpt lat="46.2055" lon="4.84538">
        <ele>191</ele>
        <time>2017-05-04T13:26:21.000Z</time>
      </trkpt>
      <trkpt lat="46.20549" lon="4.84538">
        <ele>191</ele>
        <time>2017-05-04T13:26:22.000Z</time>
      </trkpt>
      <trkpt lat="46.20547" lon="4.84538">
        <ele>191</ele>
        <time>2017-05-04T13:26:23.000Z</time>
      </trkpt>
      <trkpt lat="46.20546" lon="4.84538">
        <ele>192</ele>
        <time>2017-05-04T13:26:24.000Z</time>
      </trkpt>
      <trkpt lat="46.20545" lon="4.84538">
        <ele>192</ele>
        <time>2017-05-04T13:26:25.000Z</time>
      </trkpt>
      <trkpt lat="46.20544" lon="4.84538">
        <ele>192</ele>
        <time>2017-05-04T13:26:26.000Z</time>
      </trkpt>
      <trkpt lat="46.20543" lon="4.84538">
        <ele>192</ele>
        <time>2017-05-04T13:26:27.000Z</time>
      </trkpt>
      <trkpt lat="46.20541" lon="4.84538">
        <ele>192</ele>
        <time>2017-05-04T13:26:28.000Z</time>
      </trkpt>
      <trkpt lat="46.2054" lon="4.84538">
        <ele>192</ele>
        <time>2017-05-04T13:26:29.000Z</time>
      </trkpt>
      <trkpt lat="46.20539" lon="4.84538">
        <ele>192</ele>
        <time>2017-05-04T13:26:30.000Z</time>
      </trkpt>
      <trkpt lat="46.20538" lon="4.84539">
        <ele>192</ele>
        <time>2017-05-04T13:26:31.000Z</time>
      </trkpt>
      <trkpt lat="46.20537" lon="4.8454">
        <ele>192</ele>
        <time>2017-05-04T13:26:32.000Z</time>
      </trkpt>
      <trkpt lat="46.20536" lon="4.84541">
        <ele>192</ele>
        <time>2017-05-04T13:26:33.000Z</time>
      </trkpt>
      <trkpt lat="46.20535" lon="4.84541">
        <ele>191</ele>
        <time>2017-05-04T13:26:34.000Z</time>
      </trkpt>
      <trkpt lat="46.20534" lon="4.84542">
        <ele>192</ele>
        <time>2017-05-04T13:26:35.000Z</time>
      </trkpt>
      <trkpt lat="46.20533" lon="4.84543">
        <ele>192</ele>
        <time>2017-05-04T13:26:36.000Z</time>
      </trkpt>
      <trkpt lat="46.20532" lon="4.84545">
        <ele>191</ele>
        <time>2017-05-04T13:26:37.000Z</time>
      </trkpt>
      <trkpt lat="46.20531" lon="4.84546">
        <ele>191</ele>
        <time>2017-05-04T13:26:38.000Z</time>
      </trkpt>
      <trkpt lat="46.2053" lon="4.84548">
        <ele>192</ele>
        <time>2017-05-04T13:26:39.000Z</time>
      </trkpt>
      <trkpt lat="46.2053" lon="4.84549">
        <ele>192</ele>
        <time>2017-05-04T13:26:40.000Z</time>
      </trkpt>
      <trkpt lat="46.20529" lon="4.8455">
        <ele>192</ele>
        <time>2017-05-04T13:26:41.000Z</time>
      </trkpt>
      <trkpt lat="46.20529" lon="4.84551">
        <ele>192</ele>
        <time>2017-05-04T13:26:42.000Z</time>
      </trkpt>
      <trkpt lat="46.20528" lon="4.84552">
        <ele>192</ele>
        <time>2017-05-04T13:26:43.000Z</time>
      </trkpt>
      <trkpt lat="46.20528" lon="4.84553">
        <ele>193</ele>
        <time>2017-05-04T13:26:44.000Z</time>
      </trkpt>
      <trkpt lat="46.20527" lon="4.84554">
        <ele>193</ele>
        <time>2017-05-04T13:26:45.000Z</time>
      </trkpt>
      <trkpt lat="46.20527" lon="4.84555">
        <ele>193</ele>
        <time>2017-05-04T13:26:46.000Z</time>
      </trkpt>
      <trkpt lat="46.20527" lon="4.84556">
        <ele>194</ele>
        <time>2017-05-04T13:26:47.000Z</time>
      </trkpt>
      <trkpt lat="46.20526" lon="4.84557">
        <ele>195</ele>
        <time>2017-05-04T13:26:48.000Z</time>
      </trkpt>
      <trkpt lat="46.20526" lon="4.84559">
        <ele>195</ele>
        <time>2017-05-04T13:26:49.000Z</time>
      </trkpt>
      <trkpt lat="46.20526" lon="4.8456">
        <ele>195</ele>
        <time>2017-05-04T13:26:50.000Z</time>
      </trkpt>
      <trkpt lat="46.20525" lon="4.84561">
        <ele>195</ele>
        <time>2017-05-04T13:26:51.000Z</time>
      </trkpt>
      <trkpt lat="46.20525" lon="4.84563">
        <ele>195</ele>
        <time>2017-05-04T13:26:52.000Z</time>
      </trkpt>
      <trkpt lat="46.20525" lon="4.84564">
        <ele>195</ele>
        <time>2017-05-04T13:26:53.000Z</time>
      </trkpt>
      <trkpt lat="46.20525" lon="4.84565">
        <ele>195</ele>
        <time>2017-05-04T13:26:54.000Z</time>
      </trkpt>
      <trkpt lat="46.20525" lon="4.84567">
        <ele>195</ele>
        <time>2017-05-04T13:26:55.000Z</time>
      </trkpt>
      <trkpt lat="46.20524" lon="4.84568">
        <ele>195</ele>
        <time>2017-05-04T13:26:56.000Z</time>
      </trkpt>
      <trkpt lat="46.20524" lon="4.84569">
        <ele>195</ele>
        <time>2017-05-04T13:26:57.000Z</time>
      </trkpt>
      <trkpt lat="46.20524" lon="4.8457">
        <ele>195</ele>
        <time>2017-05-04T13:26:58.000Z</time>
      </trkpt>
      <trkpt lat="46.20524" lon="4.84571">
        <ele>194</ele>
        <time>2017-05-04T13:26:59.000Z</time>
      </trkpt>
      <trkpt lat="46.20523" lon="4.84572">
        <ele>194</ele>
        <time>2017-05-04T13:27:00.000Z</time>
      </trkpt>
      <trkpt lat="46.20523" lon="4.84573">
        <ele>194</ele>
        <time>2017-05-04T13:27:01.000Z</time>
      </trkpt>
      <trkpt lat="46.20522" lon="4.84575">
        <ele>195</ele>
        <time>2017-05-04T13:27:02.000Z</time>
      </trkpt>
      <trkpt lat="46.20522" lon="4.84577">
        <ele>195</ele>
        <time>2017-05-04T13:27:03.000Z</time>
      </trkpt>
      <trkpt lat="46.20522" lon="4.84578">
        <ele>195</ele>
        <time>2017-05-04T13:27:04.000Z</time>
      </trkpt>
      <trkpt lat="46.20521" lon="4.84579">
        <ele>196</ele>
        <time>2017-05-04T13:27:05.000Z</time>
      </trkpt>
      <trkpt lat="46.20521" lon="4.84581">
        <ele>195</ele>
        <time>2017-05-04T13:27:06.000Z</time>
      </trkpt>
      <trkpt lat="46.20521" lon="4.84582">
        <ele>196</ele>
        <time>2017-05-04T13:27:07.000Z</time>
      </trkpt>
      <trkpt lat="46.2052" lon="4.84584">
        <ele>197</ele>
        <time>2017-05-04T13:27:08.000Z</time>
      </trkpt>
      <trkpt lat="46.2052" lon="4.84585">
        <ele>196</ele>
        <time>2017-05-04T13:27:09.000Z</time>
      </trkpt>
      <trkpt lat="46.2052" lon="4.84586">
        <ele>196</ele>
        <time>2017-05-04T13:27:10.000Z</time>
      </trkpt>
      <trkpt lat="46.2052" lon="4.84588">
        <ele>196</ele>
        <time>2017-05-04T13:27:11.000Z</time>
      </trkpt>
      <trkpt lat="46.20519" lon="4.84589">
        <ele>196</ele>
        <time>2017-05-04T13:27:12.000Z</time>
      </trkpt>
      <trkpt lat="46.20519" lon="4.84591">
        <ele>197</ele>
        <time>2017-05-04T13:27:13.000Z</time>
      </trkpt>
      <trkpt lat="46.20519" lon="4.84592">
        <ele>197</ele>
        <time>2017-05-04T13:27:14.000Z</time>
      </trkpt>
      <trkpt lat="46.20519" lon="4.84594">
        <ele>197</ele>
        <time>2017-05-04T13:27:15.000Z</time>
      </trkpt>
      <trkpt lat="46.20518" lon="4.84596">
        <ele>197</ele>
        <time>2017-05-04T13:27:16.000Z</time>
      </trkpt>
      <trkpt lat="46.20518" lon="4.84597">
        <ele>197</ele>
        <time>2017-05-04T13:27:17.000Z</time>
      </trkpt>
      <trkpt lat="46.20518" lon="4.84599">
        <ele>197</ele>
        <time>2017-05-04T13:27:18.000Z</time>
      </trkpt>
      <trkpt lat="46.20518" lon="4.846">
        <ele>197</ele>
        <time>2017-05-04T13:27:19.000Z</time>
      </trkpt>
      <trkpt lat="46.20517" lon="4.84602">
        <ele>197</ele>
        <time>2017-05-04T13:27:20.000Z</time>
      </trkpt>
      <trkpt lat="46.20517" lon="4.84603">
        <ele>197</ele>
        <time>2017-05-04T13:27:21.000Z</time>
      </trkpt>
      <trkpt lat="46.20517" lon="4.84605">
        <ele>197</ele>
        <time>2017-05-04T13:27:22.000Z</time>
      </trkpt>
      <trkpt lat="46.20517" lon="4.84607">
        <ele>197</ele>
        <time>2017-05-04T13:27:23.000Z</time>
      </trkpt>
      <trkpt lat="46.20516" lon="4.84608">
        <ele>197</ele>
        <time>2017-05-04T13:27:24.000Z</time>
      </trkpt>
      <trkpt lat="46.20516" lon="4.8461">
        <ele>197</ele>
        <time>2017-05-04T13:27:25.000Z</time>
      </trkpt>
      <trkpt lat="46.20516" lon="4.84611">
        <ele>198</ele>
        <time>2017-05-04T13:27:26.000Z</time>
      </trkpt>
      <trkpt lat="46.20516" lon="4.84613">
        <ele>198</ele>
        <time>2017-05-04T13:27:27.000Z</time>
      </trkpt>
      <trkpt lat="46.20516" lon="4.84615">
        <ele>198</ele>
        <time>2017-05-04T13:27:28.000Z</time>
      </trkpt>
      <trkpt lat="46.20515" lon="4.84616">
        <ele>198</ele>
        <time>2017-05-04T13:27:29.000Z</time>
      </trkpt>
      <trkpt lat="46.20515" lon="4.84618">
        <ele>198</ele>
        <time>2017-05-04T13:27:30.000Z</time>
      </trkpt>
      <trkpt lat="46.20515" lon="4.84619">
        <ele>198</ele>
        <time>2017-05-04T13:27:31.000Z</time>
      </trkpt>
      <trkpt lat="46.20515" lon="4.84621">
        <ele>198</ele>
        <time>2017-05-04T13:27:32.000Z</time>
      </trkpt>
      <trkpt lat="46.20515" lon="4.84622">
        <ele>198</ele>
        <time>2017-05-04T13:27:33.000Z</time>
      </trkpt>
      <trkpt lat="46.20515" lon="4.84624">
        <ele>198</ele>
        <time>2017-05-04T13:27:34.000Z</time>
      </trkpt>
      <trkpt lat="46.20514" lon="4.84625">
        <ele>198</ele>
        <time>2017-05-04T13:27:35.000Z</time>
      </trkpt>
      <trkpt lat="46.20514" lon="4.84626">
        <ele>198</ele>
        <time>2017-05-04T13:27:36.000Z</time>
      </trkpt>
      <trkpt lat="46.20514" lon="4.84628">
        <ele>198</ele>
        <time>2017-05-04T13:27:37.000Z</time>
      </trkpt>
      <trkpt lat="46.20514" lon="4.84629">
        <ele>198</ele>
        <time>2017-05-04T13:27:38.000Z</time>
      </trkpt>
      <trkpt lat="46.20514" lon="4.84631">
        <ele>198</ele>
        <time>2017-05-04T13:27:39.000Z</time>
      </trkpt>
      <trkpt lat="46.20514" lon="4.84632">
        <ele>198</ele>
        <time>2017-05-04T13:27:40.000Z</time>
      </trkpt>
      <trkpt lat="46.20513" lon="4.84634">
        <ele>198</ele>
        <time>2017-05-04T13:27:41.000Z</time>
      </trkpt>
      <trkpt lat="46.20513" lon="4.84635">
        <ele>198</ele>
        <time>2017-05-04T13:27:42.000Z</time>
      </trkpt>
      <trkpt lat="46.20513" lon="4.84637">
        <ele>198</ele>
        <time>2017-05-04T13:27:43.000Z</time>
      </trkpt>
      <trkpt lat="46.20513" lon="4.84638">
        <ele>198</ele>
        <time>2017-05-04T13:27:44.000Z</time>
      </trkpt>
      <trkpt lat="46.20513" lon="4.8464">
        <ele>198</ele>
        <time>2017-05-04T13:27:45.000Z</time>
      </trkpt>
      <trkpt lat="46.20513" lon="4.84641">
        <ele>198</ele>
        <time>2017-05-04T13:27:46.000Z</time>
      </trkpt>
      <trkpt lat="46.20513" lon="4.84642">
        <ele>198</ele>
        <time>2017-05-04T13:27:47.000Z</time>
      </trkpt>
      <trkpt lat="46.20513" lon="4.84643">
        <ele>198</ele>
        <time>2017-05-04T13:27:48.000Z</time>
      </trkpt>
      <trkpt lat="46.20513" lon="4.84644">
        <ele>197</ele>
        <time>2017-05-04T13:27:49.000Z</time>
      </trkpt>
      <trkpt lat="46.20512" lon="4.84645">
        <ele>197</ele>
        <time>2017-05-04T13:27:50.000Z</time>
      </trkpt>
      <trkpt lat="46.20512" lon="4.84647">
        <ele>197</ele>
        <time>2017-05-04T13:27:51.000Z</time>
      </trkpt>
      <trkpt lat="46.20512" lon="4.84648">
        <ele>197</ele>
        <time>2017-05-04T13:27:52.000Z</time>
      </trkpt>
      <trkpt lat="46.20512" lon="4.84649">
        <ele>197</ele>
        <time>2017-05-04T13:27:53.000Z</time>
      </trkpt>
      <trkpt lat="46.20511" lon="4.84651">
        <ele>198</ele>
        <time>2017-05-04T13:27:54.000Z</time>
      </trkpt>
      <trkpt lat="46.20511" lon="4.84652">
        <ele>198</ele>
        <time>2017-05-04T13:27:55.000Z</time>
      </trkpt>
      <trkpt lat="46.20511" lon="4.84654">
        <ele>198</ele>
        <time>2017-05-04T13:27:56.000Z</time>
      </trkpt>
      <trkpt lat="46.2051" lon="4.84655">
        <ele>198</ele>
        <time>2017-05-04T13:27:57.000Z</time>
      </trkpt>
      <trkpt lat="46.2051" lon="4.84657">
        <ele>198</ele>
        <time>2017-05-04T13:27:58.000Z</time>
      </trkpt>
      <trkpt lat="46.2051" lon="4.84658">
        <ele>198</ele>
        <time>2017-05-04T13:27:59.000Z</time>
      </trkpt>
      <trkpt lat="46.2051" lon="4.8466">
        <ele>198</ele>
        <time>2017-05-04T13:28:00.000Z</time>
      </trkpt>
      <trkpt lat="46.2051" lon="4.84661">
        <ele>198</ele>
        <time>2017-05-04T13:28:01.000Z</time>
      </trkpt>
      <trkpt lat="46.2051" lon="4.84663">
        <ele>198</ele>
        <time>2017-05-04T13:28:02.000Z</time>
      </trkpt>
      <trkpt lat="46.20509" lon="4.84664">
        <ele>198</ele>
        <time>2017-05-04T13:28:03.000Z</time>
      </trkpt>
      <trkpt lat="46.20509" lon="4.84665">
        <ele>198</ele>
        <time>2017-05-04T13:28:04.000Z</time>
      </trkpt>
      <trkpt lat="46.20509" lon="4.84667">
        <ele>198</ele>
        <time>2017-05-04T13:28:05.000Z</time>
      </trkpt>
      <trkpt lat="46.20509" lon="4.84668">
        <ele>198</ele>
        <time>2017-05-04T13:28:06.000Z</time>
      </trkpt>
      <trkpt lat="46.20508" lon="4.8467">
        <ele>198</ele>
        <time>2017-05-04T13:28:07.000Z</time>
      </trkpt>
      <trkpt lat="46.20508" lon="4.84671">
        <ele>198</ele>
        <time>2017-05-04T13:28:08.000Z</time>
      </trkpt>
      <trkpt lat="46.20508" lon="4.84672">
        <ele>198</ele>
        <time>2017-05-04T13:28:09.000Z</time>
      </trkpt>
      <trkpt lat="46.20508" lon="4.84674">
        <ele>198</ele>
        <time>2017-05-04T13:28:10.000Z</time>
      </trkpt>
      <trkpt lat="46.20507" lon="4.84675">
        <ele>198</ele>
        <time>2017-05-04T13:28:11.000Z</time>
      </trkpt>
      <trkpt lat="46.20507" lon="4.84676">
        <ele>198</ele>
        <time>2017-05-04T13:28:12.000Z</time>
      </trkpt>
      <trkpt lat="46.20507" lon="4.84677">
        <ele>198</ele>
        <time>2017-05-04T13:28:13.000Z</time>
      </trkpt>
      <trkpt lat="46.20506" lon="4.84679">
        <ele>198</ele>
        <time>2017-05-04T13:28:14.000Z</time>
      </trkpt>
      <trkpt lat="46.20506" lon="4.8468">
        <ele>198</ele>
        <time>2017-05-04T13:28:15.000Z</time>
      </trkpt>
      <trkpt lat="46.20506" lon="4.84681">
        <ele>198</ele>
        <time>2017-05-04T13:28:16.000Z</time>
      </trkpt>
      <trkpt lat="46.20506" lon="4.84683">
        <ele>198</ele>
        <time>2017-05-04T13:28:17.000Z</time>
      </trkpt>
      <trkpt lat="46.20505" lon="4.84684">
        <ele>198</ele>
        <time>2017-05-04T13:28:18.000Z</time>
      </trkpt>
      <trkpt lat="46.20505" lon="4.84686">
        <ele>198</ele>
        <time>2017-05-04T13:28:19.000Z</time>
      </trkpt>
      <trkpt lat="46.20505" lon="4.84687">
        <ele>198</ele>
        <time>2017-05-04T13:28:20.000Z</time>
      </trkpt>
      <trkpt lat="46.20505" lon="4.84688">
        <ele>198</ele>
        <time>2017-05-04T13:28:21.000Z</time>
      </trkpt>
      <trkpt lat="46.20505" lon="4.8469">
        <ele>198</ele>
        <time>2017-05-04T13:28:22.000Z</time>
      </trkpt>
      <trkpt lat="46.20504" lon="4.84691">
        <ele>198</ele>
        <time>2017-05-04T13:28:23.000Z</time>
      </trkpt>
      <trkpt lat="46.20504" lon="4.84693">
        <ele>198</ele>
        <time>2017-05-04T13:28:24.000Z</time>
      </trkpt>
      <trkpt lat="46.20504" lon="4.84694">
        <ele>197</ele>
        <time>2017-05-04T13:28:25.000Z</time>
      </trkpt>
      <trkpt lat="46.20504" lon="4.84695">
        <ele>197</ele>
        <time>2017-05-04T13:28:26.000Z</time>
      </trkpt>
      <trkpt lat="46.20503" lon="4.84697">
        <ele>197</ele>
        <time>2017-05-04T13:28:27.000Z</time>
      </trkpt>
      <trkpt lat="46.20503" lon="4.84698">
        <ele>197</ele>
        <time>2017-05-04T13:28:28.000Z</time>
      </trkpt>
      <trkpt lat="46.20503" lon="4.847">
        <ele>198</ele>
        <time>2017-05-04T13:28:29.000Z</time>
      </trkpt>
      <trkpt lat="46.20502" lon="4.84701">
        <ele>198</ele>
        <time>2017-05-04T13:28:30.000Z</time>
      </trkpt>
      <trkpt lat="46.20502" lon="4.84703">
        <ele>198</ele>
        <time>2017-05-04T13:28:31.000Z</time>
      </trkpt>
      <trkpt lat="46.20502" lon="4.84704">
        <ele>198</ele>
        <time>2017-05-04T13:28:32.000Z</time>
      </trkpt>
      <trkpt lat="46.20502" lon="4.84706">
        <ele>198</ele>
        <time>2017-05-04T13:28:33.000Z</time>
      </trkpt>
      <trkpt lat="46.20501" lon="4.84707">
        <ele>198</ele>
        <time>2017-05-04T13:28:34.000Z</time>
      </trkpt>
      <trkpt lat="46.20501" lon="4.84709">
        <ele>198</ele>
        <time>2017-05-04T13:28:35.000Z</time>
      </trkpt>
      <trkpt lat="46.20501" lon="4.8471">
        <ele>198</ele>
        <time>2017-05-04T13:28:36.000Z</time>
      </trkpt>
      <trkpt lat="46.20501" lon="4.84712">
        <ele>198</ele>
        <time>2017-05-04T13:28:37.000Z</time>
      </trkpt>
      <trkpt lat="46.205" lon="4.84713">
        <ele>198</ele>
        <time>2017-05-04T13:28:38.000Z</time>
      </trkpt>
      <trkpt lat="46.205" lon="4.84715">
        <ele>199</ele>
        <time>2017-05-04T13:28:39.000Z</time>
      </trkpt>
      <trkpt lat="46.205" lon="4.84716">
        <ele>199</ele>
        <time>2017-05-04T13:28:40.000Z</time>
      </trkpt>
      <trkpt lat="46.205" lon="4.84718">
        <ele>199</ele>
        <time>2017-05-04T13:28:41.000Z</time>
      </trkpt>
      <trkpt lat="46.20499" lon="4.84719">
        <ele>199</ele>
        <time>2017-05-04T13:28:42.000Z</time>
      </trkpt>
      <trkpt lat="46.20499" lon="4.84721">
        <ele>199</ele>
        <time>2017-05-04T13:28:43.000Z</time>
      </trkpt>
      <trkpt lat="46.20499" lon="4.84722">
        <ele>199</ele>
        <time>2017-05-04T13:28:44.000Z</time>
      </trkpt>
      <trkpt lat="46.20499" lon="4.84724">
        <ele>199</ele>
        <time>2017-05-04T13:28:45.000Z</time>
      </trkpt>
      <trkpt lat="46.20498" lon="4.84725">
        <ele>198</ele>
        <time>2017-05-04T13:28:46.000Z</time>
      </trkpt>
      <trkpt lat="46.20498" lon="4.84726">
        <ele>198</ele>
        <time>2017-05-04T13:28:47.000Z</time>
      </trkpt>
      <trkpt lat="46.20498" lon="4.84728">
        <ele>198</ele>
        <time>2017-05-04T13:28:48.000Z</time>
      </trkpt>
      <trkpt lat="46.20498" lon="4.84729">
        <ele>198</ele>
        <time>2017-05-04T13:28:49.000Z</time>
      </trkpt>
      <trkpt lat="46.20498" lon="4.84731">
        <ele>198</ele>
        <time>2017-05-04T13:28:50.000Z</time>
      </trkpt>
      <trkpt lat="46.20497" lon="4.84732">
        <ele>198</ele>
        <time>2017-05-04T13:28:51.000Z</time>
      </trkpt>
      <trkpt lat="46.20497" lon="4.84734">
        <ele>198</ele>
        <time>2017-05-04T13:28:52.000Z</time>
      </trkpt>
      <trkpt lat="46.20497" lon="4.84735">
        <ele>198</ele>
        <time>2017-05-04T13:28:53.000Z</time>
      </trkpt>
      <trkpt lat="46.20497" lon="4.84737">
        <ele>198</ele>
        <time>2017-05-04T13:28:54.000Z</time>
      </trkpt>
      <trkpt lat="46.20496" lon="4.84738">
        <ele>198</ele>
        <time>2017-05-04T13:28:55.000Z</time>
      </trkpt>
      <trkpt lat="46.20496" lon="4.8474">
        <ele>198</ele>
        <time>2017-05-04T13:28:56.000Z</time>
      </trkpt>
      <trkpt lat="46.20496" lon="4.84741">
        <ele>198</ele>
        <time>2017-05-04T13:28:57.000Z</time>
      </trkpt>
      <trkpt lat="46.20496" lon="4.84743">
        <ele>198</ele>
        <time>2017-05-04T13:28:58.000Z</time>
      </trkpt>
      <trkpt lat="46.20496" lon="4.84744">
        <ele>198</ele>
        <time>2017-05-04T13:28:59.000Z</time>
      </trkpt>
      <trkpt lat="46.20495" lon="4.84746">
        <ele>198</ele>
        <time>2017-05-04T13:29:00.000Z</time>
      </trkpt>
      <trkpt lat="46.20495" lon="4.84747">
        <ele>199</ele>
        <time>2017-05-04T13:29:01.000Z</time>
      </trkpt>
      <trkpt lat="46.20495" lon="4.84749">
        <ele>199</ele>
        <time>2017-05-04T13:29:02.000Z</time>
      </trkpt>
      <trkpt lat="46.20494" lon="4.8475">
        <ele>199</ele>
        <time>2017-05-04T13:29:03.000Z</time>
      </trkpt>
      <trkpt lat="46.20494" lon="4.84752">
        <ele>199</ele>
        <time>2017-05-04T13:29:04.000Z</time>
      </trkpt>
      <trkpt lat="46.20494" lon="4.84754">
        <ele>199</ele>
        <time>2017-05-04T13:29:05.000Z</time>
      </trkpt>
      <trkpt lat="46.20494" lon="4.84755">
        <ele>199</ele>
        <time>2017-05-04T13:29:06.000Z</time>
      </trkpt>
      <trkpt lat="46.20494" lon="4.84757">
        <ele>200</ele>
        <time>2017-05-04T13:29:07.000Z</time>
      </trkpt>
      <trkpt lat="46.20493" lon="4.84758">
        <ele>200</ele>
        <time>2017-05-04T13:29:08.000Z</time>
      </trkpt>
      <trkpt lat="46.20493" lon="4.8476">
        <ele>200</ele>
        <time>2017-05-04T13:29:09.000Z</time>
      </trkpt>
      <trkpt lat="46.20493" lon="4.84761">
        <ele>200</ele>
        <time>2017-05-04T13:29:10.000Z</time>
      </trkpt>
      <trkpt lat="46.20492" lon="4.84762">
        <ele>200</ele>
        <time>2017-05-04T13:29:11.000Z</time>
      </trkpt>
      <trkpt lat="46.20492" lon="4.84764">
        <ele>200</ele>
        <time>2017-05-04T13:29:12.000Z</time>
      </trkpt>
      <trkpt lat="46.20492" lon="4.84765">
        <ele>200</ele>
        <time>2017-05-04T13:29:13.000Z</time>
      </trkpt>
      <trkpt lat="46.20492" lon="4.84766">
        <ele>200</ele>
        <time>2017-05-04T13:29:14.000Z</time>
      </trkpt>
      <trkpt lat="46.20491" lon="4.84768">
        <ele>200</ele>
        <time>2017-05-04T13:29:15.000Z</time>
      </trkpt>
      <trkpt lat="46.20491" lon="4.84769">
        <ele>200</ele>
        <time>2017-05-04T13:29:16.000Z</time>
      </trkpt>
      <trkpt lat="46.20491" lon="4.8477">
        <ele>200</ele>
        <time>2017-05-04T13:29:17.000Z</time>
      </trkpt>
      <trkpt lat="46.20491" lon="4.84772">
        <ele>200</ele>
        <time>2017-05-04T13:29:18.000Z</time>
      </trkpt>
      <trkpt lat="46.20491" lon="4.84773">
        <ele>200</ele>
        <time>2017-05-04T13:29:19.000Z</time>
      </trkpt>
      <trkpt lat="46.2049" lon="4.84775">
        <ele>200</ele>
        <time>2017-05-04T13:29:20.000Z</time>
      </trkpt>
      <trkpt lat="46.2049" lon="4.84776">
        <ele>200</ele>
        <time>2017-05-04T13:29:21.000Z</time>
      </trkpt>
      <trkpt lat="46.2049" lon="4.84777">
        <ele>201</ele>
        <time>2017-05-04T13:29:22.000Z</time>
      </trkpt>
      <trkpt lat="46.2049" lon="4.84779">
        <ele>201</ele>
        <time>2017-05-04T13:29:23.000Z</time>
      </trkpt>
      <trkpt lat="46.2049" lon="4.8478">
        <ele>201</ele>
        <time>2017-05-04T13:29:24.000Z</time>
      </trkpt>
      <trkpt lat="46.20489" lon="4.84781">
        <ele>201</ele>
        <time>2017-05-04T13:29:25.000Z</time>
      </trkpt>
      <trkpt lat="46.20489" lon="4.84782">
        <ele>200</ele>
        <time>2017-05-04T13:29:26.000Z</time>
      </trkpt>
      <trkpt lat="46.20489" lon="4.84784">
        <ele>200</ele>
        <time>2017-05-04T13:29:27.000Z</time>
      </trkpt>
      <trkpt lat="46.20489" lon="4.84785">
        <ele>200</ele>
        <time>2017-05-04T13:29:28.000Z</time>
      </trkpt>
      <trkpt lat="46.20489" lon="4.84786">
        <ele>201</ele>
        <time>2017-05-04T13:29:29.000Z</time>
      </trkpt>
      <trkpt lat="46.20488" lon="4.84788">
        <ele>201</ele>
        <time>2017-05-04T13:29:30.000Z</time>
      </trkpt>
      <trkpt lat="46.20488" lon="4.84789">
        <ele>201</ele>
        <time>2017-05-04T13:29:31.000Z</time>
      </trkpt>
      <trkpt lat="46.20488" lon="4.8479">
        <ele>201</ele>
        <time>2017-05-04T13:29:32.000Z</time>
      </trkpt>
      <trkpt lat="46.20488" lon="4.84792">
        <ele>201</ele>
        <time>2017-05-04T13:29:33.000Z</time>
      </trkpt>
      <trkpt lat="46.20487" lon="4.84793">
        <ele>201</ele>
        <time>2017-05-04T13:29:34.000Z</time>
      </trkpt>
      <trkpt lat="46.20487" lon="4.84794">
        <ele>201</ele>
        <time>2017-05-04T13:29:35.000Z</time>
      </trkpt>
      <trkpt lat="46.20487" lon="4.84796">
        <ele>201</ele>
        <time>2017-05-04T13:29:36.000Z</time>
      </trkpt>
      <trkpt lat="46.20487" lon="4.84797">
        <ele>201</ele>
        <time>2017-05-04T13:29:37.000Z</time>
      </trkpt>
      <trkpt lat="46.20487" lon="4.84798">
        <ele>201</ele>
        <time>2017-05-04T13:29:38.000Z</time>
      </trkpt>
      <trkpt lat="46.20487" lon="4.84799">
        <ele>201</ele>
        <time>2017-05-04T13:29:39.000Z</time>
      </trkpt>
      <trkpt lat="46.20487" lon="4.848">
        <ele>201</ele>
        <time>2017-05-04T13:29:40.000Z</time>
      </trkpt>
      <trkpt lat="46.20486" lon="4.84801">
        <ele>201</ele>
        <time>2017-05-04T13:29:41.000Z</time>
      </trkpt>
      <trkpt lat="46.20486" lon="4.84803">
        <ele>201</ele>
        <time>2017-05-04T13:29:42.000Z</time>
      </trkpt>
      <trkpt lat="46.20486" lon="4.84804">
        <ele>201</ele>
        <time>2017-05-04T13:29:43.000Z</time>
      </trkpt>
      <trkpt lat="46.20486" lon="4.84805">
        <ele>202</ele>
        <time>2017-05-04T13:29:44.000Z</time>
      </trkpt>
      <trkpt lat="46.20486" lon="4.84807">
        <ele>202</ele>
        <time>2017-05-04T13:29:45.000Z</time>
      </trkpt>
      <trkpt lat="46.20485" lon="4.84808">
        <ele>201</ele>
        <time>2017-05-04T13:29:46.000Z</time>
      </trkpt>
      <trkpt lat="46.20485" lon="4.84809">
        <ele>201</ele>
        <time>2017-05-04T13:29:47.000Z</time>
      </trkpt>
      <trkpt lat="46.20485" lon="4.8481">
        <ele>201</ele>
        <time>2017-05-04T13:29:48.000Z</time>
      </trkpt>
      <trkpt lat="46.20485" lon="4.84811">
        <ele>201</ele>
        <time>2017-05-04T13:29:49.000Z</time>
      </trkpt>
      <trkpt lat="46.20485" lon="4.84812">
        <ele>201</ele>
        <time>2017-05-04T13:29:50.000Z</time>
      </trkpt>
      <trkpt lat="46.20485" lon="4.84813">
        <ele>201</ele>
        <time>2017-05-04T13:29:51.000Z</time>
      </trkpt>
      <trkpt lat="46.20485" lon="4.84814">
        <ele>201</ele>
        <time>2017-05-04T13:29:52.000Z</time>
      </trkpt>
      <trkpt lat="46.20485" lon="4.84815">
        <ele>201</ele>
        <time>2017-05-04T13:29:53.000Z</time>
      </trkpt>
      <trkpt lat="46.20485" lon="4.84815">
        <ele>202</ele>
        <time>2017-05-04T13:29:54.000Z</time>
      </trkpt>
      <trkpt lat="46.20485" lon="4.84815">
        <ele>201</ele>
        <time>2017-05-04T13:29:55.000Z</time>
      </trkpt>
      <trkpt lat="46.20485" lon="4.84815">
        <ele>201</ele>
        <time>2017-05-04T13:29:56.000Z</time>
      </trkpt>
      <trkpt lat="46.20485" lon="4.84815">
        <ele>201</ele>
        <time>2017-05-04T13:29:57.000Z</time>
      </trkpt>
      <trkpt lat="46.20485" lon="4.84815">
        <ele>201</ele>
        <time>2017-05-04T13:29:58.000Z</time>
      </trkpt>
      <trkpt lat="46.20485" lon="4.84815">
        <ele>202</ele>
        <time>2017-05-04T13:29:59.000Z</time>
      </trkpt>
      <trkpt lat="46.20485" lon="4.84815">
        <ele>202</ele>
        <time>2017-05-04T13:30:00.000Z</time>
      </trkpt>
      <trkpt lat="46.20485" lon="4.84815">
        <ele>202</ele>
        <time>2017-05-04T13:30:01.000Z</time>
      </trkpt>
      <trkpt lat="46.20484" lon="4.84816">
        <ele>202</ele>
        <time>2017-05-04T13:30:02.000Z</time>
      </trkpt>
      <trkpt lat="46.20484" lon="4.84816">
        <ele>202</ele>
        <time>2017-05-04T13:30:03.000Z</time>
      </trkpt>
      <trkpt lat="46.20484" lon="4.84816">
        <ele>202</ele>
        <time>2017-05-04T13:30:04.000Z</time>
      </trkpt>
      <trkpt lat="46.20484" lon="4.84817">
        <ele>202</ele>
        <time>2017-05-04T13:30:05.000Z</time>
      </trkpt>
      <trkpt lat="46.20484" lon="4.84817">
        <ele>202</ele>
        <time>2017-05-04T13:30:06.000Z</time>
      </trkpt>
      <trkpt lat="46.20483" lon="4.84818">
        <ele>202</ele>
        <time>2017-05-04T13:30:07.000Z</time>
      </trkpt>
      <trkpt lat="46.20483" lon="4.84818">
        <ele>202</ele>
        <time>2017-05-04T13:30:08.000Z</time>
      </trkpt>
      <trkpt lat="46.20483" lon="4.84819">
        <ele>200</ele>
        <time>2017-05-04T13:30:09.000Z</time>
      </trkpt>
      <trkpt lat="46.20483" lon="4.84819">
        <ele>200</ele>
        <time>2017-05-04T13:30:10.000Z</time>
      </trkpt>
      <trkpt lat="46.20483" lon="4.84819">
        <ele>200</ele>
        <time>2017-05-04T13:30:11.000Z</time>
      </trkpt>
      <trkpt lat="46.20483" lon="4.84819">
        <ele>200</ele>
        <time>2017-05-04T13:30:12.000Z</time>
      </trkpt>
      <trkpt lat="46.20483" lon="4.84819">
        <ele>200</ele>
        <time>2017-05-04T13:30:13.000Z</time>
      </trkpt>
      <trkpt lat="46.20483" lon="4.84819">
        <ele>201</ele>
        <time>2017-05-04T13:30:14.000Z</time>
      </trkpt>
      <trkpt lat="46.20483" lon="4.84819">
        <ele>201</ele>
        <time>2017-05-04T13:30:15.000Z</time>
      </trkpt>
      <trkpt lat="46.20483" lon="4.84819">
        <ele>201</ele>
        <time>2017-05-04T13:30:16.000Z</time>
      </trkpt>
      <trkpt lat="46.20483" lon="4.84819">
        <ele>201</ele>
        <time>2017-05-04T13:30:17.000Z</time>
      </trkpt>
      <trkpt lat="46.20483" lon="4.84819">
        <ele>200</ele>
        <time>2017-05-04T13:30:18.000Z</time>
      </trkpt>
      <trkpt lat="46.20483" lon="4.84819">
        <ele>201</ele>
        <time>2017-05-04T13:30:19.000Z</time>
      </trkpt>
      <trkpt lat="46.20483" lon="4.84819">
        <ele>200</ele>
        <time>2017-05-04T13:30:20.000Z</time>
      </trkpt>
      <trkpt lat="46.20483" lon="4.84819">
        <ele>200</ele>
        <time>2017-05-04T13:30:21.000Z</time>
      </trkpt>
      <trkpt lat="46.20483" lon="4.84819">
        <ele>200</ele>
        <time>2017-05-04T13:30:22.000Z</time>
      </trkpt>
      <trkpt lat="46.20483" lon="4.84818">
        <ele>200</ele>
        <time>2017-05-04T13:30:23.000Z</time>
      </trkpt>
      <trkpt lat="46.20483" lon="4.84818">
        <ele>201</ele>
        <time>2017-05-04T13:30:24.000Z</time>
      </trkpt>
      <trkpt lat="46.20483" lon="4.84817">
        <ele>200</ele>
        <time>2017-05-04T13:30:25.000Z</time>
      </trkpt>
      <trkpt lat="46.20483" lon="4.84817">
        <ele>200</ele>
        <time>2017-05-04T13:30:26.000Z</time>
      </trkpt>
      <trkpt lat="46.20482" lon="4.84816">
        <ele>200</ele>
        <time>2017-05-04T13:30:27.000Z</time>
      </trkpt>
      <trkpt lat="46.20481" lon="4.84815">
        <ele>200</ele>
        <time>2017-05-04T13:30:28.000Z</time>
      </trkpt>
      <trkpt lat="46.20481" lon="4.84815">
        <ele>200</ele>
        <time>2017-05-04T13:30:29.000Z</time>
      </trkpt>
      <trkpt lat="46.2048" lon="4.84814">
        <ele>200</ele>
        <time>2017-05-04T13:30:30.000Z</time>
      </trkpt>
      <trkpt lat="46.20479" lon="4.84814">
        <ele>199</ele>
        <time>2017-05-04T13:30:31.000Z</time>
      </trkpt>
      <trkpt lat="46.20478" lon="4.84813">
        <ele>200</ele>
        <time>2017-05-04T13:30:32.000Z</time>
      </trkpt>
      <trkpt lat="46.20477" lon="4.84813">
        <ele>200</ele>
        <time>2017-05-04T13:30:33.000Z</time>
      </trkpt>
      <trkpt lat="46.20476" lon="4.84813">
        <ele>200</ele>
        <time>2017-05-04T13:30:34.000Z</time>
      </trkpt>
      <trkpt lat="46.20475" lon="4.84812">
        <ele>200</ele>
        <time>2017-05-04T13:30:35.000Z</time>
      </trkpt>
      <trkpt lat="46.20474" lon="4.84812">
        <ele>201</ele>
        <time>2017-05-04T13:30:36.000Z</time>
      </trkpt>
      <trkpt lat="46.20473" lon="4.84812">
        <ele>201</ele>
        <time>2017-05-04T13:30:37.000Z</time>
      </trkpt>
      <trkpt lat="46.20472" lon="4.84811">
        <ele>201</ele>
        <time>2017-05-04T13:30:38.000Z</time>
      </trkpt>
      <trkpt lat="46.20471" lon="4.84811">
        <ele>201</ele>
        <time>2017-05-04T13:30:39.000Z</time>
      </trkpt>
      <trkpt lat="46.2047" lon="4.84811">
        <ele>201</ele>
        <time>2017-05-04T13:30:40.000Z</time>
      </trkpt>
      <trkpt lat="46.2047" lon="4.8481">
        <ele>200</ele>
        <time>2017-05-04T13:30:41.000Z</time>
      </trkpt>
      <trkpt lat="46.20469" lon="4.84809">
        <ele>201</ele>
        <time>2017-05-04T13:30:42.000Z</time>
      </trkpt>
      <trkpt lat="46.20468" lon="4.84809">
        <ele>200</ele>
        <time>2017-05-04T13:30:43.000Z</time>
      </trkpt>
      <trkpt lat="46.20467" lon="4.84808">
        <ele>200</ele>
        <time>2017-05-04T13:30:44.000Z</time>
      </trkpt>
      <trkpt lat="46.20466" lon="4.84807">
        <ele>200</ele>
        <time>2017-05-04T13:30:45.000Z</time>
      </trkpt>
      <trkpt lat="46.20464" lon="4.84806">
        <ele>200</ele>
        <time>2017-05-04T13:30:46.000Z</time>
      </trkpt>
      <trkpt lat="46.20463" lon="4.84806">
        <ele>200</ele>
        <time>2017-05-04T13:30:47.000Z</time>
      </trkpt>
      <trkpt lat="46.20462" lon="4.84805">
        <ele>200</ele>
        <time>2017-05-04T13:30:48.000Z</time>
      </trkpt>
      <trkpt lat="46.20461" lon="4.84804">
        <ele>200</ele>
        <time>2017-05-04T13:30:49.000Z</time>
      </trkpt>
      <trkpt lat="46.2046" lon="4.84804">
        <ele>200</ele>
        <time>2017-05-04T13:30:50.000Z</time>
      </trkpt>
      <trkpt lat="46.20459" lon="4.84803">
        <ele>200</ele>
        <time>2017-05-04T13:30:51.000Z</time>
      </trkpt>
      <trkpt lat="46.20458" lon="4.84802">
        <ele>200</ele>
        <time>2017-05-04T13:30:52.000Z</time>
      </trkpt>
      <trkpt lat="46.20457" lon="4.84801">
        <ele>200</ele>
        <time>2017-05-04T13:30:53.000Z</time>
      </trkpt>
      <trkpt lat="46.20456" lon="4.84801">
        <ele>200</ele>
        <time>2017-05-04T13:30:54.000Z</time>
      </trkpt>
      <trkpt lat="46.20455" lon="4.848">
        <ele>200</ele>
        <time>2017-05-04T13:30:55.000Z</time>
      </trkpt>
      <trkpt lat="46.20454" lon="4.848">
        <ele>200</ele>
        <time>2017-05-04T13:30:56.000Z</time>
      </trkpt>
      <trkpt lat="46.20453" lon="4.84799">
        <ele>200</ele>
        <time>2017-05-04T13:30:57.000Z</time>
      </trkpt>
      <trkpt lat="46.20451" lon="4.84798">
        <ele>200</ele>
        <time>2017-05-04T13:30:58.000Z</time>
      </trkpt>
      <trkpt lat="46.2045" lon="4.84798">
        <ele>200</ele>
        <time>2017-05-04T13:30:59.000Z</time>
      </trkpt>
      <trkpt lat="46.20449" lon="4.84797">
        <ele>200</ele>
        <time>2017-05-04T13:31:00.000Z</time>
      </trkpt>
      <trkpt lat="46.20448" lon="4.84797">
        <ele>200</ele>
        <time>2017-05-04T13:31:01.000Z</time>
      </trkpt>
      <trkpt lat="46.20447" lon="4.84796">
        <ele>200</ele>
        <time>2017-05-04T13:31:02.000Z</time>
      </trkpt>
      <trkpt lat="46.20446" lon="4.84796">
        <ele>200</ele>
        <time>2017-05-04T13:31:03.000Z</time>
      </trkpt>
      <trkpt lat="46.20445" lon="4.84795">
        <ele>200</ele>
        <time>2017-05-04T13:31:04.000Z</time>
      </trkpt>
      <trkpt lat="46.20444" lon="4.84794">
        <ele>200</ele>
        <time>2017-05-04T13:31:05.000Z</time>
      </trkpt>
      <trkpt lat="46.20443" lon="4.84793">
        <ele>200</ele>
        <time>2017-05-04T13:31:06.000Z</time>
      </trkpt>
      <trkpt lat="46.20442" lon="4.84793">
        <ele>200</ele>
        <time>2017-05-04T13:31:07.000Z</time>
      </trkpt>
      <trkpt lat="46.20441" lon="4.84792">
        <ele>200</ele>
        <time>2017-05-04T13:31:08.000Z</time>
      </trkpt>
      <trkpt lat="46.2044" lon="4.84791">
        <ele>200</ele>
        <time>2017-05-04T13:31:09.000Z</time>
      </trkpt>
      <trkpt lat="46.20439" lon="4.84791">
        <ele>200</ele>
        <time>2017-05-04T13:31:10.000Z</time>
      </trkpt>
      <trkpt lat="46.20438" lon="4.8479">
        <ele>200</ele>
        <time>2017-05-04T13:31:11.000Z</time>
      </trkpt>
      <trkpt lat="46.20437" lon="4.8479">
        <ele>200</ele>
        <time>2017-05-04T13:31:12.000Z</time>
      </trkpt>
      <trkpt lat="46.20436" lon="4.84789">
        <ele>200</ele>
        <time>2017-05-04T13:31:13.000Z</time>
      </trkpt>
      <trkpt lat="46.20435" lon="4.84789">
        <ele>200</ele>
        <time>2017-05-04T13:31:14.000Z</time>
      </trkpt>
      <trkpt lat="46.20434" lon="4.84788">
        <ele>200</ele>
        <time>2017-05-04T13:31:15.000Z</time>
      </trkpt>
      <trkpt lat="46.20433" lon="4.84788">
        <ele>200</ele>
        <time>2017-05-04T13:31:16.000Z</time>
      </trkpt>
      <trkpt lat="46.20432" lon="4.84787">
        <ele>200</ele>
        <time>2017-05-04T13:31:17.000Z</time>
      </trkpt>
      <trkpt lat="46.20432" lon="4.84787">
        <ele>200</ele>
        <time>2017-05-04T13:31:18.000Z</time>
      </trkpt>
      <trkpt lat="46.20431" lon="4.84786">
        <ele>200</ele>
        <time>2017-05-04T13:31:19.000Z</time>
      </trkpt>
      <trkpt lat="46.20431" lon="4.84786">
        <ele>200</ele>
        <time>2017-05-04T13:31:20.000Z</time>
      </trkpt>
      <trkpt lat="46.2043" lon="4.84785">
        <ele>200</ele>
        <time>2017-05-04T13:31:21.000Z</time>
      </trkpt>
      <trkpt lat="46.20429" lon="4.84784">
        <ele>200</ele>
        <time>2017-05-04T13:31:22.000Z</time>
      </trkpt>
      <trkpt lat="46.20428" lon="4.84784">
        <ele>200</ele>
        <time>2017-05-04T13:31:23.000Z</time>
      </trkpt>
      <trkpt lat="46.20427" lon="4.84783">
        <ele>200</ele>
        <time>2017-05-04T13:31:24.000Z</time>
      </trkpt>
      <trkpt lat="46.20426" lon="4.84782">
        <ele>200</ele>
        <time>2017-05-04T13:31:25.000Z</time>
      </trkpt>
      <trkpt lat="46.20425" lon="4.84782">
        <ele>200</ele>
        <time>2017-05-04T13:31:26.000Z</time>
      </trkpt>
      <trkpt lat="46.20424" lon="4.84781">
        <ele>200</ele>
        <time>2017-05-04T13:31:27.000Z</time>
      </trkpt>
      <trkpt lat="46.20423" lon="4.84781">
        <ele>200</ele>
        <time>2017-05-04T13:31:28.000Z</time>
      </trkpt>
      <trkpt lat="46.20422" lon="4.8478">
        <ele>200</ele>
        <time>2017-05-04T13:31:29.000Z</time>
      </trkpt>
      <trkpt lat="46.20421" lon="4.8478">
        <ele>200</ele>
        <time>2017-05-04T13:31:30.000Z</time>
      </trkpt>
      <trkpt lat="46.2042" lon="4.84779">
        <ele>200</ele>
        <time>2017-05-04T13:31:31.000Z</time>
      </trkpt>
      <trkpt lat="46.20419" lon="4.84778">
        <ele>200</ele>
        <time>2017-05-04T13:31:32.000Z</time>
      </trkpt>
      <trkpt lat="46.20418" lon="4.84778">
        <ele>200</ele>
        <time>2017-05-04T13:31:33.000Z</time>
      </trkpt>
      <trkpt lat="46.20417" lon="4.84777">
        <ele>200</ele>
        <time>2017-05-04T13:31:34.000Z</time>
      </trkpt>
      <trkpt lat="46.20416" lon="4.84777">
        <ele>200</ele>
        <time>2017-05-04T13:31:35.000Z</time>
      </trkpt>
      <trkpt lat="46.20415" lon="4.84777">
        <ele>200</ele>
        <time>2017-05-04T13:31:36.000Z</time>
      </trkpt>
      <trkpt lat="46.20415" lon="4.84776">
        <ele>200</ele>
        <time>2017-05-04T13:31:37.000Z</time>
      </trkpt>
      <trkpt lat="46.20414" lon="4.84776">
        <ele>200</ele>
        <time>2017-05-04T13:31:38.000Z</time>
      </trkpt>
      <trkpt lat="46.20413" lon="4.84775">
        <ele>200</ele>
        <time>2017-05-04T13:31:39.000Z</time>
      </trkpt>
      <trkpt lat="46.20412" lon="4.84775">
        <ele>200</ele>
        <time>2017-05-04T13:31:40.000Z</time>
      </trkpt>
      <trkpt lat="46.20411" lon="4.84774">
        <ele>200</ele>
        <time>2017-05-04T13:31:41.000Z</time>
      </trkpt>
      <trkpt lat="46.20409" lon="4.84774">
        <ele>200</ele>
        <time>2017-05-04T13:31:42.000Z</time>
      </trkpt>
      <trkpt lat="46.20408" lon="4.84773">
        <ele>200</ele>
        <time>2017-05-04T13:31:43.000Z</time>
      </trkpt>
      <trkpt lat="46.20407" lon="4.84773">
        <ele>200</ele>
        <time>2017-05-04T13:31:44.000Z</time>
      </trkpt>
      <trkpt lat="46.20406" lon="4.84773">
        <ele>200</ele>
        <time>2017-05-04T13:31:45.000Z</time>
      </trkpt>
      <trkpt lat="46.20405" lon="4.84772">
        <ele>200</ele>
        <time>2017-05-04T13:31:46.000Z</time>
      </trkpt>
      <trkpt lat="46.20404" lon="4.84772">
        <ele>200</ele>
        <time>2017-05-04T13:31:47.000Z</time>
      </trkpt>
      <trkpt lat="46.20403" lon="4.84771">
        <ele>200</ele>
        <time>2017-05-04T13:31:48.000Z</time>
      </trkpt>
      <trkpt lat="46.20402" lon="4.84771">
        <ele>200</ele>
        <time>2017-05-04T13:31:49.000Z</time>
      </trkpt>
      <trkpt lat="46.20401" lon="4.84771">
        <ele>200</ele>
        <time>2017-05-04T13:31:50.000Z</time>
      </trkpt>
      <trkpt lat="46.204" lon="4.8477">
        <ele>200</ele>
        <time>2017-05-04T13:31:51.000Z</time>
      </trkpt>
      <trkpt lat="46.20399" lon="4.8477">
        <ele>200</ele>
        <time>2017-05-04T13:31:52.000Z</time>
      </trkpt>
      <trkpt lat="46.20398" lon="4.8477">
        <ele>200</ele>
        <time>2017-05-04T13:31:53.000Z</time>
      </trkpt>
      <trkpt lat="46.20397" lon="4.8477">
        <ele>200</ele>
        <time>2017-05-04T13:31:54.000Z</time>
      </trkpt>
      <trkpt lat="46.20396" lon="4.84769">
        <ele>200</ele>
        <time>2017-05-04T13:31:55.000Z</time>
      </trkpt>
      <trkpt lat="46.20395" lon="4.84769">
        <ele>201</ele>
        <time>2017-05-04T13:31:56.000Z</time>
      </trkpt>
      <trkpt lat="46.20394" lon="4.84769">
        <ele>200</ele>
        <time>2017-05-04T13:31:57.000Z</time>
      </trkpt>
      <trkpt lat="46.20393" lon="4.84768">
        <ele>201</ele>
        <time>2017-05-04T13:31:58.000Z</time>
      </trkpt>
      <trkpt lat="46.20392" lon="4.84768">
        <ele>201</ele>
        <time>2017-05-04T13:31:59.000Z</time>
      </trkpt>
      <trkpt lat="46.20391" lon="4.84768">
        <ele>201</ele>
        <time>2017-05-04T13:32:00.000Z</time>
      </trkpt>
      <trkpt lat="46.2039" lon="4.84768">
        <ele>201</ele>
        <time>2017-05-04T13:32:01.000Z</time>
      </trkpt>
      <trkpt lat="46.20389" lon="4.84767">
        <ele>201</ele>
        <time>2017-05-04T13:32:02.000Z</time>
      </trkpt>
      <trkpt lat="46.20388" lon="4.84767">
        <ele>201</ele>
        <time>2017-05-04T13:32:03.000Z</time>
      </trkpt>
      <trkpt lat="46.20387" lon="4.84767">
        <ele>201</ele>
        <time>2017-05-04T13:32:04.000Z</time>
      </trkpt>
      <trkpt lat="46.20386" lon="4.84767">
        <ele>201</ele>
        <time>2017-05-04T13:32:05.000Z</time>
      </trkpt>
      <trkpt lat="46.20385" lon="4.84766">
        <ele>201</ele>
        <time>2017-05-04T13:32:06.000Z</time>
      </trkpt>
      <trkpt lat="46.20384" lon="4.84766">
        <ele>201</ele>
        <time>2017-05-04T13:32:07.000Z</time>
      </trkpt>
      <trkpt lat="46.20383" lon="4.84766">
        <ele>201</ele>
        <time>2017-05-04T13:32:08.000Z</time>
      </trkpt>
      <trkpt lat="46.20382" lon="4.84766">
        <ele>201</ele>
        <time>2017-05-04T13:32:09.000Z</time>
      </trkpt>
      <trkpt lat="46.20381" lon="4.84765">
        <ele>201</ele>
        <time>2017-05-04T13:32:10.000Z</time>
      </trkpt>
      <trkpt lat="46.2038" lon="4.84765">
        <ele>201</ele>
        <time>2017-05-04T13:32:11.000Z</time>
      </trkpt>
      <trkpt lat="46.20379" lon="4.84765">
        <ele>201</ele>
        <time>2017-05-04T13:32:12.000Z</time>
      </trkpt>
      <trkpt lat="46.20378" lon="4.84765">
        <ele>201</ele>
        <time>2017-05-04T13:32:13.000Z</time>
      </trkpt>
      <trkpt lat="46.20377" lon="4.84765">
        <ele>201</ele>
        <time>2017-05-04T13:32:14.000Z</time>
      </trkpt>
      <trkpt lat="46.20376" lon="4.84765">
        <ele>202</ele>
        <time>2017-05-04T13:32:15.000Z</time>
      </trkpt>
      <trkpt lat="46.20375" lon="4.84764">
        <ele>202</ele>
        <time>2017-05-04T13:32:16.000Z</time>
      </trkpt>
      <trkpt lat="46.20374" lon="4.84764">
        <ele>202</ele>
        <time>2017-05-04T13:32:17.000Z</time>
      </trkpt>
      <trkpt lat="46.20373" lon="4.84764">
        <ele>202</ele>
        <time>2017-05-04T13:32:18.000Z</time>
      </trkpt>
      <trkpt lat="46.20372" lon="4.84764">
        <ele>202</ele>
        <time>2017-05-04T13:32:19.000Z</time>
      </trkpt>
      <trkpt lat="46.20371" lon="4.84763">
        <ele>202</ele>
        <time>2017-05-04T13:32:20.000Z</time>
      </trkpt>
      <trkpt lat="46.2037" lon="4.84763">
        <ele>202</ele>
        <time>2017-05-04T13:32:21.000Z</time>
      </trkpt>
      <trkpt lat="46.20369" lon="4.84763">
        <ele>202</ele>
        <time>2017-05-04T13:32:22.000Z</time>
      </trkpt>
      <trkpt lat="46.20368" lon="4.84763">
        <ele>202</ele>
        <time>2017-05-04T13:32:23.000Z</time>
      </trkpt>
      <trkpt lat="46.20367" lon="4.84763">
        <ele>203</ele>
        <time>2017-05-04T13:32:24.000Z</time>
      </trkpt>
      <trkpt lat="46.20366" lon="4.84763">
        <ele>203</ele>
        <time>2017-05-04T13:32:25.000Z</time>
      </trkpt>
      <trkpt lat="46.20365" lon="4.84762">
        <ele>203</ele>
        <time>2017-05-04T13:32:26.000Z</time>
      </trkpt>
      <trkpt lat="46.20364" lon="4.84762">
        <ele>202</ele>
        <time>2017-05-04T13:32:27.000Z</time>
      </trkpt>
      <trkpt lat="46.20363" lon="4.84761">
        <ele>202</ele>
        <time>2017-05-04T13:32:28.000Z</time>
      </trkpt>
      <trkpt lat="46.20362" lon="4.84761">
        <ele>202</ele>
        <time>2017-05-04T13:32:29.000Z</time>
      </trkpt>
      <trkpt lat="46.20361" lon="4.8476">
        <ele>202</ele>
        <time>2017-05-04T13:32:30.000Z</time>
      </trkpt>
      <trkpt lat="46.2036" lon="4.8476">
        <ele>202</ele>
        <time>2017-05-04T13:32:31.000Z</time>
      </trkpt>
      <trkpt lat="46.20359" lon="4.84759">
        <ele>202</ele>
        <time>2017-05-04T13:32:32.000Z</time>
      </trkpt>
      <trkpt lat="46.20358" lon="4.84759">
        <ele>202</ele>
        <time>2017-05-04T13:32:33.000Z</time>
      </trkpt>
      <trkpt lat="46.20358" lon="4.84758">
        <ele>202</ele>
        <time>2017-05-04T13:32:34.000Z</time>
      </trkpt>
      <trkpt lat="46.20357" lon="4.84758">
        <ele>202</ele>
        <time>2017-05-04T13:32:35.000Z</time>
      </trkpt>
      <trkpt lat="46.20355" lon="4.84758">
        <ele>202</ele>
        <time>2017-05-04T13:32:36.000Z</time>
      </trkpt>
      <trkpt lat="46.20354" lon="4.84757">
        <ele>202</ele>
        <time>2017-05-04T13:32:37.000Z</time>
      </trkpt>
      <trkpt lat="46.20353" lon="4.84757">
        <ele>202</ele>
        <time>2017-05-04T13:32:38.000Z</time>
      </trkpt>
      <trkpt lat="46.20353" lon="4.84756">
        <ele>202</ele>
        <time>2017-05-04T13:32:39.000Z</time>
      </trkpt>
      <trkpt lat="46.20352" lon="4.84756">
        <ele>202</ele>
        <time>2017-05-04T13:32:40.000Z</time>
      </trkpt>
      <trkpt lat="46.20351" lon="4.84755">
        <ele>202</ele>
        <time>2017-05-04T13:32:41.000Z</time>
      </trkpt>
      <trkpt lat="46.2035" lon="4.84755">
        <ele>202</ele>
        <time>2017-05-04T13:32:42.000Z</time>
      </trkpt>
      <trkpt lat="46.20349" lon="4.84754">
        <ele>202</ele>
        <time>2017-05-04T13:32:43.000Z</time>
      </trkpt>
      <trkpt lat="46.20348" lon="4.84754">
        <ele>202</ele>
        <time>2017-05-04T13:32:44.000Z</time>
      </trkpt>
      <trkpt lat="46.20347" lon="4.84753">
        <ele>202</ele>
        <time>2017-05-04T13:32:45.000Z</time>
      </trkpt>
      <trkpt lat="46.20346" lon="4.84753">
        <ele>202</ele>
        <time>2017-05-04T13:32:46.000Z</time>
      </trkpt>
      <trkpt lat="46.20345" lon="4.84752">
        <ele>202</ele>
        <time>2017-05-04T13:32:47.000Z</time>
      </trkpt>
      <trkpt lat="46.20344" lon="4.84751">
        <ele>202</ele>
        <time>2017-05-04T13:32:48.000Z</time>
      </trkpt>
      <trkpt lat="46.20343" lon="4.84751">
        <ele>202</ele>
        <time>2017-05-04T13:32:49.000Z</time>
      </trkpt>
      <trkpt lat="46.20342" lon="4.8475">
        <ele>202</ele>
        <time>2017-05-04T13:32:50.000Z</time>
      </trkpt>
      <trkpt lat="46.20341" lon="4.8475">
        <ele>202</ele>
        <time>2017-05-04T13:32:51.000Z</time>
      </trkpt>
      <trkpt lat="46.2034" lon="4.84749">
        <ele>202</ele>
        <time>2017-05-04T13:32:52.000Z</time>
      </trkpt>
      <trkpt lat="46.20339" lon="4.84749">
        <ele>202</ele>
        <time>2017-05-04T13:32:53.000Z</time>
      </trkpt>
      <trkpt lat="46.20338" lon="4.84748">
        <ele>203</ele>
        <time>2017-05-04T13:32:54.000Z</time>
      </trkpt>
      <trkpt lat="46.20337" lon="4.84748">
        <ele>202</ele>
        <time>2017-05-04T13:32:55.000Z</time>
      </trkpt>
      <trkpt lat="46.20336" lon="4.84748">
        <ele>202</ele>
        <time>2017-05-04T13:32:56.000Z</time>
      </trkpt>
      <trkpt lat="46.20335" lon="4.84747">
        <ele>202</ele>
        <time>2017-05-04T13:32:57.000Z</time>
      </trkpt>
      <trkpt lat="46.20334" lon="4.84747">
        <ele>202</ele>
        <time>2017-05-04T13:32:58.000Z</time>
      </trkpt>
      <trkpt lat="46.20333" lon="4.84747">
        <ele>203</ele>
        <time>2017-05-04T13:32:59.000Z</time>
      </trkpt>
      <trkpt lat="46.20332" lon="4.84746">
        <ele>202</ele>
        <time>2017-05-04T13:33:00.000Z</time>
      </trkpt>
      <trkpt lat="46.20331" lon="4.84746">
        <ele>202</ele>
        <time>2017-05-04T13:33:01.000Z</time>
      </trkpt>
      <trkpt lat="46.2033" lon="4.84746">
        <ele>202</ele>
        <time>2017-05-04T13:33:02.000Z</time>
      </trkpt>
      <trkpt lat="46.20329" lon="4.84745">
        <ele>202</ele>
        <time>2017-05-04T13:33:03.000Z</time>
      </trkpt>
      <trkpt lat="46.20328" lon="4.84745">
        <ele>202</ele>
        <time>2017-05-04T13:33:04.000Z</time>
      </trkpt>
      <trkpt lat="46.20327" lon="4.84745">
        <ele>202</ele>
        <time>2017-05-04T13:33:05.000Z</time>
      </trkpt>
      <trkpt lat="46.20326" lon="4.84745">
        <ele>202</ele>
        <time>2017-05-04T13:33:06.000Z</time>
      </trkpt>
      <trkpt lat="46.20325" lon="4.84745">
        <ele>202</ele>
        <time>2017-05-04T13:33:07.000Z</time>
      </trkpt>
      <trkpt lat="46.20324" lon="4.84744">
        <ele>202</ele>
        <time>2017-05-04T13:33:08.000Z</time>
      </trkpt>
      <trkpt lat="46.20323" lon="4.84744">
        <ele>202</ele>
        <time>2017-05-04T13:33:09.000Z</time>
      </trkpt>
      <trkpt lat="46.20322" lon="4.84744">
        <ele>202</ele>
        <time>2017-05-04T13:33:10.000Z</time>
      </trkpt>
      <trkpt lat="46.20321" lon="4.84744">
        <ele>202</ele>
        <time>2017-05-04T13:33:11.000Z</time>
      </trkpt>
      <trkpt lat="46.2032" lon="4.84744">
        <ele>202</ele>
        <time>2017-05-04T13:33:12.000Z</time>
      </trkpt>
      <trkpt lat="46.20319" lon="4.84744">
        <ele>202</ele>
        <time>2017-05-04T13:33:13.000Z</time>
      </trkpt>
      <trkpt lat="46.20318" lon="4.84743">
        <ele>202</ele>
        <time>2017-05-04T13:33:14.000Z</time>
      </trkpt>
      <trkpt lat="46.20317" lon="4.84743">
        <ele>203</ele>
        <time>2017-05-04T13:33:15.000Z</time>
      </trkpt>
      <trkpt lat="46.20316" lon="4.84743">
        <ele>202</ele>
        <time>2017-05-04T13:33:16.000Z</time>
      </trkpt>
      <trkpt lat="46.20315" lon="4.84743">
        <ele>202</ele>
        <time>2017-05-04T13:33:17.000Z</time>
      </trkpt>
      <trkpt lat="46.20314" lon="4.84743">
        <ele>203</ele>
        <time>2017-05-04T13:33:18.000Z</time>
      </trkpt>
      <trkpt lat="46.20313" lon="4.84743">
        <ele>202</ele>
        <time>2017-05-04T13:33:19.000Z</time>
      </trkpt>
      <trkpt lat="46.20312" lon="4.84742">
        <ele>203</ele>
        <time>2017-05-04T13:33:20.000Z</time>
      </trkpt>
      <trkpt lat="46.20311" lon="4.84742">
        <ele>202</ele>
        <time>2017-05-04T13:33:21.000Z</time>
      </trkpt>
      <trkpt lat="46.2031" lon="4.84742">
        <ele>202</ele>
        <time>2017-05-04T13:33:22.000Z</time>
      </trkpt>
      <trkpt lat="46.20309" lon="4.84742">
        <ele>202</ele>
        <time>2017-05-04T13:33:23.000Z</time>
      </trkpt>
      <trkpt lat="46.20308" lon="4.84742">
        <ele>202</ele>
        <time>2017-05-04T13:33:24.000Z</time>
      </trkpt>
      <trkpt lat="46.20307" lon="4.84742">
        <ele>202</ele>
        <time>2017-05-04T13:33:25.000Z</time>
      </trkpt>
      <trkpt lat="46.20306" lon="4.84742">
        <ele>202</ele>
        <time>2017-05-04T13:33:26.000Z</time>
      </trkpt>
      <trkpt lat="46.20305" lon="4.84742">
        <ele>202</ele>
        <time>2017-05-04T13:33:27.000Z</time>
      </trkpt>
      <trkpt lat="46.20304" lon="4.84742">
        <ele>202</ele>
        <time>2017-05-04T13:33:28.000Z</time>
      </trkpt>
      <trkpt lat="46.20303" lon="4.84741">
        <ele>203</ele>
        <time>2017-05-04T13:33:29.000Z</time>
      </trkpt>
      <trkpt lat="46.20302" lon="4.84741">
        <ele>203</ele>
        <time>2017-05-04T13:33:30.000Z</time>
      </trkpt>
      <trkpt lat="46.20301" lon="4.84741">
        <ele>203</ele>
        <time>2017-05-04T13:33:31.000Z</time>
      </trkpt>
      <trkpt lat="46.203" lon="4.84741">
        <ele>202</ele>
        <time>2017-05-04T13:33:32.000Z</time>
      </trkpt>
      <trkpt lat="46.20299" lon="4.84741">
        <ele>202</ele>
        <time>2017-05-04T13:33:33.000Z</time>
      </trkpt>
      <trkpt lat="46.20298" lon="4.8474">
        <ele>202</ele>
        <time>2017-05-04T13:33:34.000Z</time>
      </trkpt>
      <trkpt lat="46.20297" lon="4.8474">
        <ele>202</ele>
        <time>2017-05-04T13:33:35.000Z</time>
      </trkpt>
      <trkpt lat="46.20296" lon="4.8474">
        <ele>202</ele>
        <time>2017-05-04T13:33:36.000Z</time>
      </trkpt>
      <trkpt lat="46.20295" lon="4.8474">
        <ele>203</ele>
        <time>2017-05-04T13:33:37.000Z</time>
      </trkpt>
      <trkpt lat="46.20294" lon="4.8474">
        <ele>203</ele>
        <time>2017-05-04T13:33:38.000Z</time>
      </trkpt>
      <trkpt lat="46.20293" lon="4.84739">
        <ele>203</ele>
        <time>2017-05-04T13:33:39.000Z</time>
      </trkpt>
      <trkpt lat="46.20292" lon="4.84739">
        <ele>202</ele>
        <time>2017-05-04T13:33:40.000Z</time>
      </trkpt>
      <trkpt lat="46.2029" lon="4.84739">
        <ele>202</ele>
        <time>2017-05-04T13:33:41.000Z</time>
      </trkpt>
      <trkpt lat="46.20289" lon="4.84739">
        <ele>203</ele>
        <time>2017-05-04T13:33:42.000Z</time>
      </trkpt>
      <trkpt lat="46.20288" lon="4.84739">
        <ele>203</ele>
        <time>2017-05-04T13:33:43.000Z</time>
      </trkpt>
      <trkpt lat="46.20287" lon="4.84739">
        <ele>202</ele>
        <time>2017-05-04T13:33:44.000Z</time>
      </trkpt>
      <trkpt lat="46.20286" lon="4.84739">
        <ele>203</ele>
        <time>2017-05-04T13:33:45.000Z</time>
      </trkpt>
      <trkpt lat="46.20285" lon="4.84739">
        <ele>203</ele>
        <time>2017-05-04T13:33:46.000Z</time>
      </trkpt>
      <trkpt lat="46.20284" lon="4.84739">
        <ele>203</ele>
        <time>2017-05-04T13:33:47.000Z</time>
      </trkpt>
      <trkpt lat="46.20283" lon="4.84739">
        <ele>203</ele>
        <time>2017-05-04T13:33:48.000Z</time>
      </trkpt>
      <trkpt lat="46.20282" lon="4.84739">
        <ele>203</ele>
        <time>2017-05-04T13:33:49.000Z</time>
      </trkpt>
      <trkpt lat="46.20281" lon="4.84738">
        <ele>203</ele>
        <time>2017-05-04T13:33:50.000Z</time>
      </trkpt>
      <trkpt lat="46.20281" lon="4.84738">
        <ele>203</ele>
        <time>2017-05-04T13:33:51.000Z</time>
      </trkpt>
      <trkpt lat="46.2028" lon="4.84738">
        <ele>203</ele>
        <time>2017-05-04T13:33:52.000Z</time>
      </trkpt>
      <trkpt lat="46.20279" lon="4.84738">
        <ele>203</ele>
        <time>2017-05-04T13:33:53.000Z</time>
      </trkpt>
      <trkpt lat="46.20278" lon="4.84738">
        <ele>203</ele>
        <time>2017-05-04T13:33:54.000Z</time>
      </trkpt>
      <trkpt lat="46.20277" lon="4.84737">
        <ele>203</ele>
        <time>2017-05-04T13:33:55.000Z</time>
      </trkpt>
      <trkpt lat="46.20276" lon="4.84737">
        <ele>203</ele>
        <time>2017-05-04T13:33:56.000Z</time>
      </trkpt>
      <trkpt lat="46.20275" lon="4.84737">
        <ele>203</ele>
        <time>2017-05-04T13:33:57.000Z</time>
      </trkpt>
      <trkpt lat="46.20275" lon="4.84737">
        <ele>204</ele>
        <time>2017-05-04T13:33:58.000Z</time>
      </trkpt>
      <trkpt lat="46.20274" lon="4.84736">
        <ele>204</ele>
        <time>2017-05-04T13:33:59.000Z</time>
      </trkpt>
      <trkpt lat="46.20273" lon="4.84736">
        <ele>204</ele>
        <time>2017-05-04T13:34:00.000Z</time>
      </trkpt>
      <trkpt lat="46.20272" lon="4.84736">
        <ele>204</ele>
        <time>2017-05-04T13:34:01.000Z</time>
      </trkpt>
      <trkpt lat="46.20271" lon="4.84736">
        <ele>204</ele>
        <time>2017-05-04T13:34:02.000Z</time>
      </trkpt>
      <trkpt lat="46.2027" lon="4.84735">
        <ele>204</ele>
        <time>2017-05-04T13:34:03.000Z</time>
      </trkpt>
      <trkpt lat="46.20268" lon="4.84735">
        <ele>204</ele>
        <time>2017-05-04T13:34:04.000Z</time>
      </trkpt>
      <trkpt lat="46.20268" lon="4.84735">
        <ele>204</ele>
        <time>2017-05-04T13:34:05.000Z</time>
      </trkpt>
      <trkpt lat="46.20266" lon="4.84735">
        <ele>204</ele>
        <time>2017-05-04T13:34:06.000Z</time>
      </trkpt>
      <trkpt lat="46.20265" lon="4.84735">
        <ele>204</ele>
        <time>2017-05-04T13:34:07.000Z</time>
      </trkpt>
      <trkpt lat="46.20264" lon="4.84735">
        <ele>203</ele>
        <time>2017-05-04T13:34:08.000Z</time>
      </trkpt>
      <trkpt lat="46.20263" lon="4.84734">
        <ele>203</ele>
        <time>2017-05-04T13:34:09.000Z</time>
      </trkpt>
      <trkpt lat="46.20262" lon="4.84734">
        <ele>203</ele>
        <time>2017-05-04T13:34:10.000Z</time>
      </trkpt>
      <trkpt lat="46.20261" lon="4.84734">
        <ele>204</ele>
        <time>2017-05-04T13:34:11.000Z</time>
      </trkpt>
      <trkpt lat="46.2026" lon="4.84733">
        <ele>204</ele>
        <time>2017-05-04T13:34:12.000Z</time>
      </trkpt>
      <trkpt lat="46.20259" lon="4.84733">
        <ele>204</ele>
        <time>2017-05-04T13:34:13.000Z</time>
      </trkpt>
      <trkpt lat="46.20258" lon="4.84733">
        <ele>204</ele>
        <time>2017-05-04T13:34:14.000Z</time>
      </trkpt>
      <trkpt lat="46.20257" lon="4.84733">
        <ele>204</ele>
        <time>2017-05-04T13:34:15.000Z</time>
      </trkpt>
      <trkpt lat="46.20255" lon="4.84733">
        <ele>204</ele>
        <time>2017-05-04T13:34:16.000Z</time>
      </trkpt>
      <trkpt lat="46.20254" lon="4.84732">
        <ele>203</ele>
        <time>2017-05-04T13:34:17.000Z</time>
      </trkpt>
      <trkpt lat="46.20253" lon="4.84732">
        <ele>203</ele>
        <time>2017-05-04T13:34:18.000Z</time>
      </trkpt>
      <trkpt lat="46.20252" lon="4.84732">
        <ele>204</ele>
        <time>2017-05-04T13:34:19.000Z</time>
      </trkpt>
      <trkpt lat="46.20251" lon="4.84732">
        <ele>204</ele>
        <time>2017-05-04T13:34:20.000Z</time>
      </trkpt>
      <trkpt lat="46.2025" lon="4.84732">
        <ele>204</ele>
        <time>2017-05-04T13:34:21.000Z</time>
      </trkpt>
      <trkpt lat="46.20249" lon="4.84732">
        <ele>204</ele>
        <time>2017-05-04T13:34:22.000Z</time>
      </trkpt>
      <trkpt lat="46.20248" lon="4.84732">
        <ele>203</ele>
        <time>2017-05-04T13:34:23.000Z</time>
      </trkpt>
      <trkpt lat="46.20247" lon="4.84732">
        <ele>203</ele>
        <time>2017-05-04T13:34:24.000Z</time>
      </trkpt>
      <trkpt lat="46.20246" lon="4.84732">
        <ele>203</ele>
        <time>2017-05-04T13:34:25.000Z</time>
      </trkpt>
      <trkpt lat="46.20245" lon="4.84732">
        <ele>203</ele>
        <time>2017-05-04T13:34:26.000Z</time>
      </trkpt>
      <trkpt lat="46.20244" lon="4.84732">
        <ele>203</ele>
        <time>2017-05-04T13:34:27.000Z</time>
      </trkpt>
      <trkpt lat="46.20243" lon="4.84731">
        <ele>203</ele>
        <time>2017-05-04T13:34:28.000Z</time>
      </trkpt>
      <trkpt lat="46.20243" lon="4.84731">
        <ele>203</ele>
        <time>2017-05-04T13:34:29.000Z</time>
      </trkpt>
      <trkpt lat="46.20242" lon="4.84731">
        <ele>203</ele>
        <time>2017-05-04T13:34:30.000Z</time>
      </trkpt>
      <trkpt lat="46.20241" lon="4.84731">
        <ele>203</ele>
        <time>2017-05-04T13:34:31.000Z</time>
      </trkpt>
      <trkpt lat="46.2024" lon="4.84731">
        <ele>204</ele>
        <time>2017-05-04T13:34:32.000Z</time>
      </trkpt>
      <trkpt lat="46.20239" lon="4.8473">
        <ele>203</ele>
        <time>2017-05-04T13:34:33.000Z</time>
      </trkpt>
      <trkpt lat="46.20238" lon="4.8473">
        <ele>204</ele>
        <time>2017-05-04T13:34:34.000Z</time>
      </trkpt>
      <trkpt lat="46.20236" lon="4.8473">
        <ele>205</ele>
        <time>2017-05-04T13:34:35.000Z</time>
      </trkpt>
      <trkpt lat="46.20235" lon="4.84729">
        <ele>205</ele>
        <time>2017-05-04T13:34:36.000Z</time>
      </trkpt>
      <trkpt lat="46.20234" lon="4.84729">
        <ele>205</ele>
        <time>2017-05-04T13:34:37.000Z</time>
      </trkpt>
      <trkpt lat="46.20233" lon="4.84728">
        <ele>205</ele>
        <time>2017-05-04T13:34:38.000Z</time>
      </trkpt>
      <trkpt lat="46.20232" lon="4.84728">
        <ele>206</ele>
        <time>2017-05-04T13:34:39.000Z</time>
      </trkpt>
      <trkpt lat="46.20231" lon="4.84727">
        <ele>206</ele>
        <time>2017-05-04T13:34:40.000Z</time>
      </trkpt>
      <trkpt lat="46.2023" lon="4.84727">
        <ele>206</ele>
        <time>2017-05-04T13:34:41.000Z</time>
      </trkpt>
      <trkpt lat="46.20229" lon="4.84726">
        <ele>206</ele>
        <time>2017-05-04T13:34:42.000Z</time>
      </trkpt>
      <trkpt lat="46.20228" lon="4.84726">
        <ele>206</ele>
        <time>2017-05-04T13:34:43.000Z</time>
      </trkpt>
      <trkpt lat="46.20227" lon="4.84725">
        <ele>206</ele>
        <time>2017-05-04T13:34:44.000Z</time>
      </trkpt>
      <trkpt lat="46.20226" lon="4.84724">
        <ele>206</ele>
        <time>2017-05-04T13:34:45.000Z</time>
      </trkpt>
      <trkpt lat="46.20225" lon="4.84724">
        <ele>206</ele>
        <time>2017-05-04T13:34:46.000Z</time>
      </trkpt>
      <trkpt lat="46.20224" lon="4.84723">
        <ele>206</ele>
        <time>2017-05-04T13:34:47.000Z</time>
      </trkpt>
      <trkpt lat="46.20222" lon="4.84722">
        <ele>206</ele>
        <time>2017-05-04T13:34:48.000Z</time>
      </trkpt>
      <trkpt lat="46.20221" lon="4.84722">
        <ele>206</ele>
        <time>2017-05-04T13:34:49.000Z</time>
      </trkpt>
      <trkpt lat="46.2022" lon="4.84721">
        <ele>206</ele>
        <time>2017-05-04T13:34:50.000Z</time>
      </trkpt>
      <trkpt lat="46.20219" lon="4.84721">
        <ele>207</ele>
        <time>2017-05-04T13:34:51.000Z</time>
      </trkpt>
      <trkpt lat="46.20218" lon="4.8472">
        <ele>207</ele>
        <time>2017-05-04T13:34:52.000Z</time>
      </trkpt>
      <trkpt lat="46.20217" lon="4.8472">
        <ele>207</ele>
        <time>2017-05-04T13:34:53.000Z</time>
      </trkpt>
      <trkpt lat="46.20216" lon="4.84719">
        <ele>207</ele>
        <time>2017-05-04T13:34:54.000Z</time>
      </trkpt>
      <trkpt lat="46.20215" lon="4.84719">
        <ele>207</ele>
        <time>2017-05-04T13:34:55.000Z</time>
      </trkpt>
      <trkpt lat="46.20214" lon="4.84718">
        <ele>207</ele>
        <time>2017-05-04T13:34:56.000Z</time>
      </trkpt>
      <trkpt lat="46.20213" lon="4.84718">
        <ele>207</ele>
        <time>2017-05-04T13:34:57.000Z</time>
      </trkpt>
      <trkpt lat="46.20212" lon="4.84717">
        <ele>207</ele>
        <time>2017-05-04T13:34:58.000Z</time>
      </trkpt>
      <trkpt lat="46.20211" lon="4.84717">
        <ele>207</ele>
        <time>2017-05-04T13:34:59.000Z</time>
      </trkpt>
      <trkpt lat="46.2021" lon="4.84717">
        <ele>207</ele>
        <time>2017-05-04T13:35:00.000Z</time>
      </trkpt>
      <trkpt lat="46.20209" lon="4.84716">
        <ele>207</ele>
        <time>2017-05-04T13:35:01.000Z</time>
      </trkpt>
      <trkpt lat="46.20207" lon="4.84716">
        <ele>207</ele>
        <time>2017-05-04T13:35:02.000Z</time>
      </trkpt>
      <trkpt lat="46.20206" lon="4.84715">
        <ele>207</ele>
        <time>2017-05-04T13:35:03.000Z</time>
      </trkpt>
      <trkpt lat="46.20205" lon="4.84715">
        <ele>207</ele>
        <time>2017-05-04T13:35:04.000Z</time>
      </trkpt>
      <trkpt lat="46.20204" lon="4.84714">
        <ele>207</ele>
        <time>2017-05-04T13:35:05.000Z</time>
      </trkpt>
      <trkpt lat="46.20203" lon="4.84714">
        <ele>208</ele>
        <time>2017-05-04T13:35:06.000Z</time>
      </trkpt>
      <trkpt lat="46.20202" lon="4.84714">
        <ele>208</ele>
        <time>2017-05-04T13:35:07.000Z</time>
      </trkpt>
      <trkpt lat="46.20201" lon="4.84714">
        <ele>208</ele>
        <time>2017-05-04T13:35:08.000Z</time>
      </trkpt>
      <trkpt lat="46.202" lon="4.84713">
        <ele>208</ele>
        <time>2017-05-04T13:35:09.000Z</time>
      </trkpt>
      <trkpt lat="46.20199" lon="4.84713">
        <ele>208</ele>
        <time>2017-05-04T13:35:10.000Z</time>
      </trkpt>
      <trkpt lat="46.20198" lon="4.84713">
        <ele>208</ele>
        <time>2017-05-04T13:35:11.000Z</time>
      </trkpt>
      <trkpt lat="46.20197" lon="4.84712">
        <ele>208</ele>
        <time>2017-05-04T13:35:12.000Z</time>
      </trkpt>
      <trkpt lat="46.20196" lon="4.84712">
        <ele>207</ele>
        <time>2017-05-04T13:35:13.000Z</time>
      </trkpt>
      <trkpt lat="46.20195" lon="4.84712">
        <ele>208</ele>
        <time>2017-05-04T13:35:14.000Z</time>
      </trkpt>
      <trkpt lat="46.20194" lon="4.84712">
        <ele>208</ele>
        <time>2017-05-04T13:35:15.000Z</time>
      </trkpt>
      <trkpt lat="46.20193" lon="4.84711">
        <ele>208</ele>
        <time>2017-05-04T13:35:16.000Z</time>
      </trkpt>
      <trkpt lat="46.20192" lon="4.84711">
        <ele>208</ele>
        <time>2017-05-04T13:35:17.000Z</time>
      </trkpt>
      <trkpt lat="46.20191" lon="4.8471">
        <ele>208</ele>
        <time>2017-05-04T13:35:18.000Z</time>
      </trkpt>
      <trkpt lat="46.2019" lon="4.8471">
        <ele>208</ele>
        <time>2017-05-04T13:35:19.000Z</time>
      </trkpt>
      <trkpt lat="46.20189" lon="4.8471">
        <ele>208</ele>
        <time>2017-05-04T13:35:20.000Z</time>
      </trkpt>
      <trkpt lat="46.20188" lon="4.8471">
        <ele>208</ele>
        <time>2017-05-04T13:35:21.000Z</time>
      </trkpt>
      <trkpt lat="46.20188" lon="4.8471">
        <ele>208</ele>
        <time>2017-05-04T13:35:22.000Z</time>
      </trkpt>
      <trkpt lat="46.20187" lon="4.8471">
        <ele>209</ele>
        <time>2017-05-04T13:35:23.000Z</time>
      </trkpt>
      <trkpt lat="46.20187" lon="4.8471">
        <ele>208</ele>
        <time>2017-05-04T13:35:24.000Z</time>
      </trkpt>
      <trkpt lat="46.20187" lon="4.84711">
        <ele>209</ele>
        <time>2017-05-04T13:35:25.000Z</time>
      </trkpt>
      <trkpt lat="46.20187" lon="4.84711">
        <ele>208</ele>
        <time>2017-05-04T13:35:26.000Z</time>
      </trkpt>
      <trkpt lat="46.20187" lon="4.84711">
        <ele>208</ele>
        <time>2017-05-04T13:35:27.000Z</time>
      </trkpt>
      <trkpt lat="46.20187" lon="4.84711">
        <ele>208</ele>
        <time>2017-05-04T13:35:28.000Z</time>
      </trkpt>
      <trkpt lat="46.20187" lon="4.84711">
        <ele>208</ele>
        <time>2017-05-04T13:35:29.000Z</time>
      </trkpt>
      <trkpt lat="46.20187" lon="4.8471">
        <ele>208</ele>
        <time>2017-05-04T13:35:30.000Z</time>
      </trkpt>
      <trkpt lat="46.20187" lon="4.8471">
        <ele>208</ele>
        <time>2017-05-04T13:35:31.000Z</time>
      </trkpt>
      <trkpt lat="46.20187" lon="4.8471">
        <ele>208</ele>
        <time>2017-05-04T13:35:32.000Z</time>
      </trkpt>
      <trkpt lat="46.20187" lon="4.8471">
        <ele>208</ele>
        <time>2017-05-04T13:35:33.000Z</time>
      </trkpt>
      <trkpt lat="46.20187" lon="4.8471">
        <ele>208</ele>
        <time>2017-05-04T13:35:34.000Z</time>
      </trkpt>
      <trkpt lat="46.20187" lon="4.8471">
        <ele>208</ele>
        <time>2017-05-04T13:35:35.000Z</time>
      </trkpt>
      <trkpt lat="46.20187" lon="4.84711">
        <ele>208</ele>
        <time>2017-05-04T13:35:36.000Z</time>
      </trkpt>
      <trkpt lat="46.20187" lon="4.84711">
        <ele>208</ele>
        <time>2017-05-04T13:35:37.000Z</time>
      </trkpt>
      <trkpt lat="46.20187" lon="4.84711">
        <ele>209</ele>
        <time>2017-05-04T13:35:38.000Z</time>
      </trkpt>
      <trkpt lat="46.20187" lon="4.84711">
        <ele>209</ele>
        <time>2017-05-04T13:35:39.000Z</time>
      </trkpt>
      <trkpt lat="46.20187" lon="4.84711">
        <ele>209</ele>
        <time>2017-05-04T13:35:40.000Z</time>
      </trkpt>
      <trkpt lat="46.20186" lon="4.84711">
        <ele>209</ele>
        <time>2017-05-04T13:35:41.000Z</time>
      </trkpt>
      <trkpt lat="46.20186" lon="4.84711">
        <ele>209</ele>
        <time>2017-05-04T13:35:42.000Z</time>
      </trkpt>
      <trkpt lat="46.20186" lon="4.84712">
        <ele>208</ele>
        <time>2017-05-04T13:35:43.000Z</time>
      </trkpt>
      <trkpt lat="46.20187" lon="4.84712">
        <ele>208</ele>
        <time>2017-05-04T13:35:44.000Z</time>
      </trkpt>
      <trkpt lat="46.20188" lon="4.84713">
        <ele>208</ele>
        <time>2017-05-04T13:35:45.000Z</time>
      </trkpt>
      <trkpt lat="46.20188" lon="4.84713">
        <ele>208</ele>
        <time>2017-05-04T13:35:46.000Z</time>
      </trkpt>
      <trkpt lat="46.20189" lon="4.84713">
        <ele>208</ele>
        <time>2017-05-04T13:35:47.000Z</time>
      </trkpt>
      <trkpt lat="46.20189" lon="4.84713">
        <ele>209</ele>
        <time>2017-05-04T13:35:48.000Z</time>
      </trkpt>
      <trkpt lat="46.20189" lon="4.84713">
        <ele>209</ele>
        <time>2017-05-04T13:35:49.000Z</time>
      </trkpt>
      <trkpt lat="46.20189" lon="4.84713">
        <ele>209</ele>
        <time>2017-05-04T13:35:50.000Z</time>
      </trkpt>
      <trkpt lat="46.20189" lon="4.84713">
        <ele>209</ele>
        <time>2017-05-04T13:35:51.000Z</time>
      </trkpt>
      <trkpt lat="46.20189" lon="4.84713">
        <ele>209</ele>
        <time>2017-05-04T13:35:52.000Z</time>
      </trkpt>
      <trkpt lat="46.20189" lon="4.84713">
        <ele>209</ele>
        <time>2017-05-04T13:35:53.000Z</time>
      </trkpt>
      <trkpt lat="46.20189" lon="4.84713">
        <ele>209</ele>
        <time>2017-05-04T13:35:54.000Z</time>
      </trkpt>
      <trkpt lat="46.20189" lon="4.84713">
        <ele>208</ele>
        <time>2017-05-04T13:35:55.000Z</time>
      </trkpt>
      <trkpt lat="46.20189" lon="4.84713">
        <ele>208</ele>
        <time>2017-05-04T13:35:56.000Z</time>
      </trkpt>
      <trkpt lat="46.20188" lon="4.84713">
        <ele>209</ele>
        <time>2017-05-04T13:35:57.000Z</time>
      </trkpt>
      <trkpt lat="46.20188" lon="4.84713">
        <ele>208</ele>
        <time>2017-05-04T13:35:58.000Z</time>
      </trkpt>
      <trkpt lat="46.20188" lon="4.84712">
        <ele>209</ele>
        <time>2017-05-04T13:35:59.000Z</time>
      </trkpt>
      <trkpt lat="46.20187" lon="4.84711">
        <ele>208</ele>
        <time>2017-05-04T13:36:00.000Z</time>
      </trkpt>
      <trkpt lat="46.20186" lon="4.84711">
        <ele>208</ele>
        <time>2017-05-04T13:36:01.000Z</time>
      </trkpt>
      <trkpt lat="46.20185" lon="4.8471">
        <ele>208</ele>
        <time>2017-05-04T13:36:02.000Z</time>
      </trkpt>
      <trkpt lat="46.20185" lon="4.8471">
        <ele>208</ele>
        <time>2017-05-04T13:36:03.000Z</time>
      </trkpt>
      <trkpt lat="46.20184" lon="4.8471">
        <ele>208</ele>
        <time>2017-05-04T13:36:04.000Z</time>
      </trkpt>
      <trkpt lat="46.20183" lon="4.8471">
        <ele>207</ele>
        <time>2017-05-04T13:36:05.000Z</time>
      </trkpt>
      <trkpt lat="46.20183" lon="4.8471">
        <ele>207</ele>
        <time>2017-05-04T13:36:06.000Z</time>
      </trkpt>
      <trkpt lat="46.20183" lon="4.8471">
        <ele>207</ele>
        <time>2017-05-04T13:36:07.000Z</time>
      </trkpt>
      <trkpt lat="46.20183" lon="4.8471">
        <ele>207</ele>
        <time>2017-05-04T13:36:08.000Z</time>
      </trkpt>
      <trkpt lat="46.20183" lon="4.8471">
        <ele>207</ele>
        <time>2017-05-04T13:36:09.000Z</time>
      </trkpt>
      <trkpt lat="46.20183" lon="4.84711">
        <ele>207</ele>
        <time>2017-05-04T13:36:10.000Z</time>
      </trkpt>
      <trkpt lat="46.20183" lon="4.84711">
        <ele>207</ele>
        <time>2017-05-04T13:36:11.000Z</time>
      </trkpt>
      <trkpt lat="46.20183" lon="4.84711">
        <ele>207</ele>
        <time>2017-05-04T13:36:12.000Z</time>
      </trkpt>
      <trkpt lat="46.20183" lon="4.8471">
        <ele>207</ele>
        <time>2017-05-04T13:36:13.000Z</time>
      </trkpt>
      <trkpt lat="46.20183" lon="4.84711">
        <ele>207</ele>
        <time>2017-05-04T13:36:14.000Z</time>
      </trkpt>
      <trkpt lat="46.20182" lon="4.84711">
        <ele>206</ele>
        <time>2017-05-04T13:36:15.000Z</time>
      </trkpt>
      <trkpt lat="46.20182" lon="4.84711">
        <ele>206</ele>
        <time>2017-05-04T13:36:16.000Z</time>
      </trkpt>
      <trkpt lat="46.20181" lon="4.84711">
        <ele>206</ele>
        <time>2017-05-04T13:36:17.000Z</time>
      </trkpt>
      <trkpt lat="46.2018" lon="4.84711">
        <ele>206</ele>
        <time>2017-05-04T13:36:18.000Z</time>
      </trkpt>
      <trkpt lat="46.20179" lon="4.84711">
        <ele>206</ele>
        <time>2017-05-04T13:36:19.000Z</time>
      </trkpt>
      <trkpt lat="46.20178" lon="4.84711">
        <ele>206</ele>
        <time>2017-05-04T13:36:20.000Z</time>
      </trkpt>
      <trkpt lat="46.20177" lon="4.84712">
        <ele>206</ele>
        <time>2017-05-04T13:36:21.000Z</time>
      </trkpt>
      <trkpt lat="46.20176" lon="4.84712">
        <ele>206</ele>
        <time>2017-05-04T13:36:22.000Z</time>
      </trkpt>
      <trkpt lat="46.20175" lon="4.84712">
        <ele>206</ele>
        <time>2017-05-04T13:36:23.000Z</time>
      </trkpt>
      <trkpt lat="46.20174" lon="4.84713">
        <ele>206</ele>
        <time>2017-05-04T13:36:24.000Z</time>
      </trkpt>
      <trkpt lat="46.20173" lon="4.84713">
        <ele>206</ele>
        <time>2017-05-04T13:36:25.000Z</time>
      </trkpt>
      <trkpt lat="46.20172" lon="4.84713">
        <ele>206</ele>
        <time>2017-05-04T13:36:26.000Z</time>
      </trkpt>
      <trkpt lat="46.20171" lon="4.84713">
        <ele>205</ele>
        <time>2017-05-04T13:36:27.000Z</time>
      </trkpt>
      <trkpt lat="46.2017" lon="4.84714">
        <ele>205</ele>
        <time>2017-05-04T13:36:28.000Z</time>
      </trkpt>
      <trkpt lat="46.2017" lon="4.84714">
        <ele>205</ele>
        <time>2017-05-04T13:36:29.000Z</time>
      </trkpt>
      <trkpt lat="46.20169" lon="4.84714">
        <ele>205</ele>
        <time>2017-05-04T13:36:30.000Z</time>
      </trkpt>
      <trkpt lat="46.20168" lon="4.84714">
        <ele>205</ele>
        <time>2017-05-04T13:36:31.000Z</time>
      </trkpt>
      <trkpt lat="46.20167" lon="4.84714">
        <ele>205</ele>
        <time>2017-05-04T13:36:32.000Z</time>
      </trkpt>
      <trkpt lat="46.20166" lon="4.84714">
        <ele>205</ele>
        <time>2017-05-04T13:36:33.000Z</time>
      </trkpt>
      <trkpt lat="46.20166" lon="4.84714">
        <ele>205</ele>
        <time>2017-05-04T13:36:34.000Z</time>
      </trkpt>
      <trkpt lat="46.20165" lon="4.84714">
        <ele>205</ele>
        <time>2017-05-04T13:36:35.000Z</time>
      </trkpt>
      <trkpt lat="46.20164" lon="4.84714">
        <ele>205</ele>
        <time>2017-05-04T13:36:36.000Z</time>
      </trkpt>
      <trkpt lat="46.20164" lon="4.84714">
        <ele>205</ele>
        <time>2017-05-04T13:36:37.000Z</time>
      </trkpt>
      <trkpt lat="46.20163" lon="4.84714">
        <ele>205</ele>
        <time>2017-05-04T13:36:38.000Z</time>
      </trkpt>
      <trkpt lat="46.20162" lon="4.84714">
        <ele>205</ele>
        <time>2017-05-04T13:36:39.000Z</time>
      </trkpt>
      <trkpt lat="46.20162" lon="4.84714">
        <ele>205</ele>
        <time>2017-05-04T13:36:40.000Z</time>
      </trkpt>
      <trkpt lat="46.20161" lon="4.84714">
        <ele>205</ele>
        <time>2017-05-04T13:36:41.000Z</time>
      </trkpt>
      <trkpt lat="46.20161" lon="4.84714">
        <ele>205</ele>
        <time>2017-05-04T13:36:42.000Z</time>
      </trkpt>
      <trkpt lat="46.20161" lon="4.84714">
        <ele>206</ele>
        <time>2017-05-04T13:36:43.000Z</time>
      </trkpt>
      <trkpt lat="46.2016" lon="4.84714">
        <ele>206</ele>
        <time>2017-05-04T13:36:44.000Z</time>
      </trkpt>
      <trkpt lat="46.2016" lon="4.84714">
        <ele>207</ele>
        <time>2017-05-04T13:36:45.000Z</time>
      </trkpt>
      <trkpt lat="46.2016" lon="4.84714">
        <ele>207</ele>
        <time>2017-05-04T13:36:46.000Z</time>
      </trkpt>
      <trkpt lat="46.2016" lon="4.84714">
        <ele>207</ele>
        <time>2017-05-04T13:36:47.000Z</time>
      </trkpt>
      <trkpt lat="46.2016" lon="4.84714">
        <ele>207</ele>
        <time>2017-05-04T13:36:48.000Z</time>
      </trkpt>
      <trkpt lat="46.2016" lon="4.84714">
        <ele>208</ele>
        <time>2017-05-04T13:36:49.000Z</time>
      </trkpt>
      <trkpt lat="46.2016" lon="4.84714">
        <ele>207</ele>
        <time>2017-05-04T13:36:50.000Z</time>
      </trkpt>
      <trkpt lat="46.2016" lon="4.84714">
        <ele>208</ele>
        <time>2017-05-04T13:36:51.000Z</time>
      </trkpt>
      <trkpt lat="46.2016" lon="4.84714">
        <ele>208</ele>
        <time>2017-05-04T13:36:52.000Z</time>
      </trkpt>
      <trkpt lat="46.2016" lon="4.84714">
        <ele>208</ele>
        <time>2017-05-04T13:36:53.000Z</time>
      </trkpt>
      <trkpt lat="46.2016" lon="4.84714">
        <ele>208</ele>
        <time>2017-05-04T13:36:54.000Z</time>
      </trkpt>
      <trkpt lat="46.2016" lon="4.84714">
        <ele>209</ele>
        <time>2017-05-04T13:36:55.000Z</time>
      </trkpt>
      <trkpt lat="46.2016" lon="4.84714">
        <ele>209</ele>
        <time>2017-05-04T13:36:56.000Z</time>
      </trkpt>
      <trkpt lat="46.2016" lon="4.84714">
        <ele>210</ele>
        <time>2017-05-04T13:36:57.000Z</time>
      </trkpt>
      <trkpt lat="46.2016" lon="4.84714">
        <ele>210</ele>
        <time>2017-05-04T13:36:58.000Z</time>
      </trkpt>
      <trkpt lat="46.20159" lon="4.84714">
        <ele>210</ele>
        <time>2017-05-04T13:36:59.000Z</time>
      </trkpt>
      <trkpt lat="46.20159" lon="4.84714">
        <ele>210</ele>
        <time>2017-05-04T13:37:00.000Z</time>
      </trkpt>
      <trkpt lat="46.20159" lon="4.84714">
        <ele>211</ele>
        <time>2017-05-04T13:37:01.000Z</time>
      </trkpt>
      <trkpt lat="46.20159" lon="4.84713">
        <ele>211</ele>
        <time>2017-05-04T13:37:02.000Z</time>
      </trkpt>
      <trkpt lat="46.20159" lon="4.84713">
        <ele>211</ele>
        <time>2017-05-04T13:37:03.000Z</time>
      </trkpt>
      <trkpt lat="46.20159" lon="4.84713">
        <ele>211</ele>
        <time>2017-05-04T13:37:04.000Z</time>
      </trkpt>
      <trkpt lat="46.20159" lon="4.84713">
        <ele>211</ele>
        <time>2017-05-04T13:37:05.000Z</time>
      </trkpt>
      <trkpt lat="46.20158" lon="4.84713">
        <ele>211</ele>
        <time>2017-05-04T13:37:06.000Z</time>
      </trkpt>
      <trkpt lat="46.20158" lon="4.84713">
        <ele>211</ele>
        <time>2017-05-04T13:37:07.000Z</time>
      </trkpt>
      <trkpt lat="46.20157" lon="4.84713">
        <ele>210</ele>
        <time>2017-05-04T13:37:08.000Z</time>
      </trkpt>
      <trkpt lat="46.20155" lon="4.84713">
        <ele>210</ele>
        <time>2017-05-04T13:37:09.000Z</time>
      </trkpt>
      <trkpt lat="46.20154" lon="4.84713">
        <ele>211</ele>
        <time>2017-05-04T13:37:10.000Z</time>
      </trkpt>
      <trkpt lat="46.20153" lon="4.84713">
        <ele>210</ele>
        <time>2017-05-04T13:37:11.000Z</time>
      </trkpt>
      <trkpt lat="46.20152" lon="4.84713">
        <ele>210</ele>
        <time>2017-05-04T13:37:12.000Z</time>
      </trkpt>
      <trkpt lat="46.20151" lon="4.84713">
        <ele>209</ele>
        <time>2017-05-04T13:37:13.000Z</time>
      </trkpt>
      <trkpt lat="46.20149" lon="4.84713">
        <ele>209</ele>
        <time>2017-05-04T13:37:14.000Z</time>
      </trkpt>
      <trkpt lat="46.20148" lon="4.84713">
        <ele>209</ele>
        <time>2017-05-04T13:37:15.000Z</time>
      </trkpt>
      <trkpt lat="46.20146" lon="4.84713">
        <ele>209</ele>
        <time>2017-05-04T13:37:16.000Z</time>
      </trkpt>
      <trkpt lat="46.20145" lon="4.84714">
        <ele>209</ele>
        <time>2017-05-04T13:37:17.000Z</time>
      </trkpt>
      <trkpt lat="46.20144" lon="4.84714">
        <ele>209</ele>
        <time>2017-05-04T13:37:18.000Z</time>
      </trkpt>
      <trkpt lat="46.20142" lon="4.84714">
        <ele>209</ele>
        <time>2017-05-04T13:37:19.000Z</time>
      </trkpt>
      <trkpt lat="46.20141" lon="4.84714">
        <ele>209</ele>
        <time>2017-05-04T13:37:20.000Z</time>
      </trkpt>
      <trkpt lat="46.2014" lon="4.84714">
        <ele>209</ele>
        <time>2017-05-04T13:37:21.000Z</time>
      </trkpt>
      <trkpt lat="46.20139" lon="4.84713">
        <ele>209</ele>
        <time>2017-05-04T13:37:22.000Z</time>
      </trkpt>
      <trkpt lat="46.20138" lon="4.84713">
        <ele>208</ele>
        <time>2017-05-04T13:37:23.000Z</time>
      </trkpt>
      <trkpt lat="46.20136" lon="4.84713">
        <ele>208</ele>
        <time>2017-05-04T13:37:24.000Z</time>
      </trkpt>
      <trkpt lat="46.20135" lon="4.84713">
        <ele>208</ele>
        <time>2017-05-04T13:37:25.000Z</time>
      </trkpt>
      <trkpt lat="46.20134" lon="4.84713">
        <ele>207</ele>
        <time>2017-05-04T13:37:26.000Z</time>
      </trkpt>
      <trkpt lat="46.20133" lon="4.84713">
        <ele>207</ele>
        <time>2017-05-04T13:37:27.000Z</time>
      </trkpt>
      <trkpt lat="46.20132" lon="4.84713">
        <ele>206</ele>
        <time>2017-05-04T13:37:28.000Z</time>
      </trkpt>
      <trkpt lat="46.20131" lon="4.84713">
        <ele>206</ele>
        <time>2017-05-04T13:37:29.000Z</time>
      </trkpt>
      <trkpt lat="46.2013" lon="4.84713">
        <ele>206</ele>
        <time>2017-05-04T13:37:30.000Z</time>
      </trkpt>
      <trkpt lat="46.20129" lon="4.84714">
        <ele>206</ele>
        <time>2017-05-04T13:37:31.000Z</time>
      </trkpt>
      <trkpt lat="46.20127" lon="4.84714">
        <ele>206</ele>
        <time>2017-05-04T13:37:32.000Z</time>
      </trkpt>
      <trkpt lat="46.20126" lon="4.84714">
        <ele>206</ele>
        <time>2017-05-04T13:37:33.000Z</time>
      </trkpt>
      <trkpt lat="46.20125" lon="4.84714">
        <ele>206</ele>
        <time>2017-05-04T13:37:34.000Z</time>
      </trkpt>
      <trkpt lat="46.20124" lon="4.84714">
        <ele>206</ele>
        <time>2017-05-04T13:37:35.000Z</time>
      </trkpt>
      <trkpt lat="46.20123" lon="4.84714">
        <ele>206</ele>
        <time>2017-05-04T13:37:36.000Z</time>
      </trkpt>
      <trkpt lat="46.20121" lon="4.84714">
        <ele>206</ele>
        <time>2017-05-04T13:37:37.000Z</time>
      </trkpt>
      <trkpt lat="46.2012" lon="4.84714">
        <ele>206</ele>
        <time>2017-05-04T13:37:38.000Z</time>
      </trkpt>
      <trkpt lat="46.20119" lon="4.84714">
        <ele>206</ele>
        <time>2017-05-04T13:37:39.000Z</time>
      </trkpt>
      <trkpt lat="46.20118" lon="4.84714">
        <ele>206</ele>
        <time>2017-05-04T13:37:40.000Z</time>
      </trkpt>
      <trkpt lat="46.20117" lon="4.84714">
        <ele>205</ele>
        <time>2017-05-04T13:37:41.000Z</time>
      </trkpt>
      <trkpt lat="46.20116" lon="4.84714">
        <ele>205</ele>
        <time>2017-05-04T13:37:42.000Z</time>
      </trkpt>
      <trkpt lat="46.20114" lon="4.84714">
        <ele>205</ele>
        <time>2017-05-04T13:37:43.000Z</time>
      </trkpt>
      <trkpt lat="46.20113" lon="4.84715">
        <ele>205</ele>
        <time>2017-05-04T13:37:44.000Z</time>
      </trkpt>
      <trkpt lat="46.20112" lon="4.84715">
        <ele>205</ele>
        <time>2017-05-04T13:37:45.000Z</time>
      </trkpt>
      <trkpt lat="46.20111" lon="4.84715">
        <ele>204</ele>
        <time>2017-05-04T13:37:46.000Z</time>
      </trkpt>
      <trkpt lat="46.2011" lon="4.84715">
        <ele>204</ele>
        <time>2017-05-04T13:37:47.000Z</time>
      </trkpt>
      <trkpt lat="46.20109" lon="4.84715">
        <ele>205</ele>
        <time>2017-05-04T13:37:48.000Z</time>
      </trkpt>
      <trkpt lat="46.20108" lon="4.84714">
        <ele>205</ele>
        <time>2017-05-04T13:37:49.000Z</time>
      </trkpt>
      <trkpt lat="46.20106" lon="4.84714">
        <ele>205</ele>
        <time>2017-05-04T13:37:50.000Z</time>
      </trkpt>
      <trkpt lat="46.20105" lon="4.84714">
        <ele>205</ele>
        <time>2017-05-04T13:37:51.000Z</time>
      </trkpt>
      <trkpt lat="46.20104" lon="4.84714">
        <ele>205</ele>
        <time>2017-05-04T13:37:52.000Z</time>
      </trkpt>
      <trkpt lat="46.20103" lon="4.84714">
        <ele>205</ele>
        <time>2017-05-04T13:37:53.000Z</time>
      </trkpt>
      <trkpt lat="46.20102" lon="4.84714">
        <ele>205</ele>
        <time>2017-05-04T13:37:54.000Z</time>
      </trkpt>
      <trkpt lat="46.201" lon="4.84714">
        <ele>205</ele>
        <time>2017-05-04T13:37:55.000Z</time>
      </trkpt>
      <trkpt lat="46.20099" lon="4.84714">
        <ele>205</ele>
        <time>2017-05-04T13:37:56.000Z</time>
      </trkpt>
      <trkpt lat="46.20098" lon="4.84715">
        <ele>205</ele>
        <time>2017-05-04T13:37:57.000Z</time>
      </trkpt>
      <trkpt lat="46.20097" lon="4.84715">
        <ele>206</ele>
        <time>2017-05-04T13:37:58.000Z</time>
      </trkpt>
      <trkpt lat="46.20097" lon="4.84715">
        <ele>207</ele>
        <time>2017-05-04T13:37:59.000Z</time>
      </trkpt>
      <trkpt lat="46.20096" lon="4.84715">
        <ele>207</ele>
        <time>2017-05-04T13:38:00.000Z</time>
      </trkpt>
      <trkpt lat="46.20095" lon="4.84715">
        <ele>207</ele>
        <time>2017-05-04T13:38:01.000Z</time>
      </trkpt>
      <trkpt lat="46.20094" lon="4.84715">
        <ele>207</ele>
        <time>2017-05-04T13:38:02.000Z</time>
      </trkpt>
      <trkpt lat="46.20093" lon="4.84715">
        <ele>207</ele>
        <time>2017-05-04T13:38:03.000Z</time>
      </trkpt>
      <trkpt lat="46.20092" lon="4.84714">
        <ele>208</ele>
        <time>2017-05-04T13:38:04.000Z</time>
      </trkpt>
      <trkpt lat="46.20091" lon="4.84714">
        <ele>208</ele>
        <time>2017-05-04T13:38:05.000Z</time>
      </trkpt>
      <trkpt lat="46.20089" lon="4.84714">
        <ele>208</ele>
        <time>2017-05-04T13:38:06.000Z</time>
      </trkpt>
      <trkpt lat="46.20088" lon="4.84714">
        <ele>209</ele>
        <time>2017-05-04T13:38:07.000Z</time>
      </trkpt>
      <trkpt lat="46.20087" lon="4.84713">
        <ele>209</ele>
        <time>2017-05-04T13:38:08.000Z</time>
      </trkpt>
      <trkpt lat="46.20086" lon="4.84713">
        <ele>209</ele>
        <time>2017-05-04T13:38:09.000Z</time>
      </trkpt>
      <trkpt lat="46.20085" lon="4.84713">
        <ele>209</ele>
        <time>2017-05-04T13:38:10.000Z</time>
      </trkpt>
      <trkpt lat="46.20084" lon="4.84713">
        <ele>209</ele>
        <time>2017-05-04T13:38:11.000Z</time>
      </trkpt>
      <trkpt lat="46.20083" lon="4.84713">
        <ele>210</ele>
        <time>2017-05-04T13:38:12.000Z</time>
      </trkpt>
      <trkpt lat="46.20082" lon="4.84713">
        <ele>210</ele>
        <time>2017-05-04T13:38:13.000Z</time>
      </trkpt>
      <trkpt lat="46.20081" lon="4.84712">
        <ele>210</ele>
        <time>2017-05-04T13:38:14.000Z</time>
      </trkpt>
      <trkpt lat="46.2008" lon="4.84712">
        <ele>211</ele>
        <time>2017-05-04T13:38:15.000Z</time>
      </trkpt>
      <trkpt lat="46.20079" lon="4.84712">
        <ele>211</ele>
        <time>2017-05-04T13:38:16.000Z</time>
      </trkpt>
      <trkpt lat="46.20078" lon="4.84712">
        <ele>211</ele>
        <time>2017-05-04T13:38:17.000Z</time>
      </trkpt>
      <trkpt lat="46.20077" lon="4.84712">
        <ele>212</ele>
        <time>2017-05-04T13:38:18.000Z</time>
      </trkpt>
      <trkpt lat="46.20076" lon="4.84712">
        <ele>213</ele>
        <time>2017-05-04T13:38:19.000Z</time>
      </trkpt>
      <trkpt lat="46.20075" lon="4.84712">
        <ele>213</ele>
        <time>2017-05-04T13:38:20.000Z</time>
      </trkpt>
      <trkpt lat="46.20074" lon="4.84712">
        <ele>214</ele>
        <time>2017-05-04T13:38:21.000Z</time>
      </trkpt>
      <trkpt lat="46.20072" lon="4.84712">
        <ele>214</ele>
        <time>2017-05-04T13:38:22.000Z</time>
      </trkpt>
      <trkpt lat="46.20071" lon="4.84711">
        <ele>214</ele>
        <time>2017-05-04T13:38:23.000Z</time>
      </trkpt>
      <trkpt lat="46.2007" lon="4.84711">
        <ele>214</ele>
        <time>2017-05-04T13:38:24.000Z</time>
      </trkpt>
      <trkpt lat="46.20068" lon="4.8471">
        <ele>211</ele>
        <time>2017-05-04T13:38:25.000Z</time>
      </trkpt>
      <trkpt lat="46.20067" lon="4.8471">
        <ele>211</ele>
        <time>2017-05-04T13:38:26.000Z</time>
      </trkpt>
      <trkpt lat="46.20065" lon="4.84709">
        <ele>210</ele>
        <time>2017-05-04T13:38:27.000Z</time>
      </trkpt>
      <trkpt lat="46.20064" lon="4.84709">
        <ele>210</ele>
        <time>2017-05-04T13:38:28.000Z</time>
      </trkpt>
      <trkpt lat="46.20063" lon="4.84708">
        <ele>210</ele>
        <time>2017-05-04T13:38:29.000Z</time>
      </trkpt>
      <trkpt lat="46.20061" lon="4.84708">
        <ele>211</ele>
        <time>2017-05-04T13:38:30.000Z</time>
      </trkpt>
      <trkpt lat="46.2006" lon="4.84707">
        <ele>212</ele>
        <time>2017-05-04T13:38:31.000Z</time>
      </trkpt>
      <trkpt lat="46.20059" lon="4.84706">
        <ele>212</ele>
        <time>2017-05-04T13:38:32.000Z</time>
      </trkpt>
      <trkpt lat="46.20058" lon="4.84705">
        <ele>212</ele>
        <time>2017-05-04T13:38:33.000Z</time>
      </trkpt>
      <trkpt lat="46.20057" lon="4.84705">
        <ele>211</ele>
        <time>2017-05-04T13:38:34.000Z</time>
      </trkpt>
      <trkpt lat="46.20055" lon="4.84704">
        <ele>212</ele>
        <time>2017-05-04T13:38:35.000Z</time>
      </trkpt>
      <trkpt lat="46.20054" lon="4.84704">
        <ele>212</ele>
        <time>2017-05-04T13:38:36.000Z</time>
      </trkpt>
      <trkpt lat="46.20053" lon="4.84703">
        <ele>211</ele>
        <time>2017-05-04T13:38:37.000Z</time>
      </trkpt>
      <trkpt lat="46.20052" lon="4.84703">
        <ele>212</ele>
        <time>2017-05-04T13:38:38.000Z</time>
      </trkpt>
      <trkpt lat="46.20051" lon="4.84702">
        <ele>212</ele>
        <time>2017-05-04T13:38:39.000Z</time>
      </trkpt>
      <trkpt lat="46.2005" lon="4.84702">
        <ele>212</ele>
        <time>2017-05-04T13:38:40.000Z</time>
      </trkpt>
      <trkpt lat="46.20048" lon="4.84701">
        <ele>212</ele>
        <time>2017-05-04T13:38:41.000Z</time>
      </trkpt>
      <trkpt lat="46.20047" lon="4.84701">
        <ele>213</ele>
        <time>2017-05-04T13:38:42.000Z</time>
      </trkpt>
      <trkpt lat="46.20046" lon="4.847">
        <ele>213</ele>
        <time>2017-05-04T13:38:43.000Z</time>
      </trkpt>
      <trkpt lat="46.20045" lon="4.847">
        <ele>213</ele>
        <time>2017-05-04T13:38:44.000Z</time>
      </trkpt>
      <trkpt lat="46.20044" lon="4.84699">
        <ele>213</ele>
        <time>2017-05-04T13:38:45.000Z</time>
      </trkpt>
      <trkpt lat="46.20043" lon="4.84699">
        <ele>212</ele>
        <time>2017-05-04T13:38:46.000Z</time>
      </trkpt>
      <trkpt lat="46.20041" lon="4.84698">
        <ele>212</ele>
        <time>2017-05-04T13:38:47.000Z</time>
      </trkpt>
      <trkpt lat="46.2004" lon="4.84697">
        <ele>212</ele>
        <time>2017-05-04T13:38:48.000Z</time>
      </trkpt>
      <trkpt lat="46.20039" lon="4.84696">
        <ele>211</ele>
        <time>2017-05-04T13:38:49.000Z</time>
      </trkpt>
      <trkpt lat="46.20037" lon="4.84695">
        <ele>211</ele>
        <time>2017-05-04T13:38:50.000Z</time>
      </trkpt>
      <trkpt lat="46.20036" lon="4.84695">
        <ele>211</ele>
        <time>2017-05-04T13:38:51.000Z</time>
      </trkpt>
      <trkpt lat="46.20035" lon="4.84694">
        <ele>211</ele>
        <time>2017-05-04T13:38:52.000Z</time>
      </trkpt>
      <trkpt lat="46.20034" lon="4.84693">
        <ele>211</ele>
        <time>2017-05-04T13:38:53.000Z</time>
      </trkpt>
      <trkpt lat="46.20033" lon="4.84693">
        <ele>211</ele>
        <time>2017-05-04T13:38:54.000Z</time>
      </trkpt>
      <trkpt lat="46.20031" lon="4.84692">
        <ele>212</ele>
        <time>2017-05-04T13:38:55.000Z</time>
      </trkpt>
      <trkpt lat="46.2003" lon="4.84692">
        <ele>212</ele>
        <time>2017-05-04T13:38:56.000Z</time>
      </trkpt>
      <trkpt lat="46.20029" lon="4.84691">
        <ele>212</ele>
        <time>2017-05-04T13:38:57.000Z</time>
      </trkpt>
      <trkpt lat="46.20028" lon="4.84691">
        <ele>212</ele>
        <time>2017-05-04T13:38:58.000Z</time>
      </trkpt>
      <trkpt lat="46.20027" lon="4.84691">
        <ele>212</ele>
        <time>2017-05-04T13:38:59.000Z</time>
      </trkpt>
      <trkpt lat="46.20026" lon="4.8469">
        <ele>212</ele>
        <time>2017-05-04T13:39:00.000Z</time>
      </trkpt>
      <trkpt lat="46.20025" lon="4.8469">
        <ele>212</ele>
        <time>2017-05-04T13:39:01.000Z</time>
      </trkpt>
      <trkpt lat="46.20024" lon="4.8469">
        <ele>212</ele>
        <time>2017-05-04T13:39:02.000Z</time>
      </trkpt>
      <trkpt lat="46.20023" lon="4.84689">
        <ele>212</ele>
        <time>2017-05-04T13:39:03.000Z</time>
      </trkpt>
      <trkpt lat="46.20022" lon="4.84689">
        <ele>212</ele>
        <time>2017-05-04T13:39:04.000Z</time>
      </trkpt>
      <trkpt lat="46.20021" lon="4.84689">
        <ele>212</ele>
        <time>2017-05-04T13:39:05.000Z</time>
      </trkpt>
      <trkpt lat="46.2002" lon="4.84689">
        <ele>212</ele>
        <time>2017-05-04T13:39:06.000Z</time>
      </trkpt>
      <trkpt lat="46.20019" lon="4.84688">
        <ele>212</ele>
        <time>2017-05-04T13:39:07.000Z</time>
      </trkpt>
      <trkpt lat="46.20018" lon="4.84688">
        <ele>212</ele>
        <time>2017-05-04T13:39:08.000Z</time>
      </trkpt>
      <trkpt lat="46.20017" lon="4.84687">
        <ele>212</ele>
        <time>2017-05-04T13:39:09.000Z</time>
      </trkpt>
      <trkpt lat="46.20016" lon="4.84687">
        <ele>212</ele>
        <time>2017-05-04T13:39:10.000Z</time>
      </trkpt>
      <trkpt lat="46.20015" lon="4.84687">
        <ele>212</ele>
        <time>2017-05-04T13:39:11.000Z</time>
      </trkpt>
      <trkpt lat="46.20014" lon="4.84687">
        <ele>211</ele>
        <time>2017-05-04T13:39:12.000Z</time>
      </trkpt>
      <trkpt lat="46.20013" lon="4.84687">
        <ele>211</ele>
        <time>2017-05-04T13:39:13.000Z</time>
      </trkpt>
      <trkpt lat="46.20013" lon="4.84687">
        <ele>211</ele>
        <time>2017-05-04T13:39:14.000Z</time>
      </trkpt>
      <trkpt lat="46.20012" lon="4.84687">
        <ele>211</ele>
        <time>2017-05-04T13:39:15.000Z</time>
      </trkpt>
      <trkpt lat="46.20011" lon="4.84686">
        <ele>211</ele>
        <time>2017-05-04T13:39:16.000Z</time>
      </trkpt>
      <trkpt lat="46.2001" lon="4.84686">
        <ele>210</ele>
        <time>2017-05-04T13:39:17.000Z</time>
      </trkpt>
      <trkpt lat="46.20009" lon="4.84686">
        <ele>210</ele>
        <time>2017-05-04T13:39:18.000Z</time>
      </trkpt>
      <trkpt lat="46.20007" lon="4.84686">
        <ele>211</ele>
        <time>2017-05-04T13:39:19.000Z</time>
      </trkpt>
      <trkpt lat="46.20006" lon="4.84685">
        <ele>211</ele>
        <time>2017-05-04T13:39:20.000Z</time>
      </trkpt>
      <trkpt lat="46.20005" lon="4.84684">
        <ele>212</ele>
        <time>2017-05-04T13:39:21.000Z</time>
      </trkpt>
      <trkpt lat="46.20004" lon="4.84684">
        <ele>212</ele>
        <time>2017-05-04T13:39:22.000Z</time>
      </trkpt>
      <trkpt lat="46.20003" lon="4.84683">
        <ele>212</ele>
        <time>2017-05-04T13:39:23.000Z</time>
      </trkpt>
      <trkpt lat="46.20002" lon="4.84683">
        <ele>213</ele>
        <time>2017-05-04T13:39:24.000Z</time>
      </trkpt>
      <trkpt lat="46.20001" lon="4.84682">
        <ele>213</ele>
        <time>2017-05-04T13:39:25.000Z</time>
      </trkpt>
      <trkpt lat="46.2" lon="4.84682">
        <ele>212</ele>
        <time>2017-05-04T13:39:26.000Z</time>
      </trkpt>
      <trkpt lat="46.19999" lon="4.84681">
        <ele>212</ele>
        <time>2017-05-04T13:39:27.000Z</time>
      </trkpt>
      <trkpt lat="46.19998" lon="4.8468">
        <ele>213</ele>
        <time>2017-05-04T13:39:28.000Z</time>
      </trkpt>
      <trkpt lat="46.19996" lon="4.8468">
        <ele>213</ele>
        <time>2017-05-04T13:39:29.000Z</time>
      </trkpt>
      <trkpt lat="46.19995" lon="4.84679">
        <ele>214</ele>
        <time>2017-05-04T13:39:30.000Z</time>
      </trkpt>
      <trkpt lat="46.19994" lon="4.84679">
        <ele>214</ele>
        <time>2017-05-04T13:39:31.000Z</time>
      </trkpt>
      <trkpt lat="46.19993" lon="4.84678">
        <ele>214</ele>
        <time>2017-05-04T13:39:32.000Z</time>
      </trkpt>
      <trkpt lat="46.19992" lon="4.84678">
        <ele>214</ele>
        <time>2017-05-04T13:39:33.000Z</time>
      </trkpt>
      <trkpt lat="46.1999" lon="4.84677">
        <ele>214</ele>
        <time>2017-05-04T13:39:34.000Z</time>
      </trkpt>
      <trkpt lat="46.19989" lon="4.84676">
        <ele>214</ele>
        <time>2017-05-04T13:39:35.000Z</time>
      </trkpt>
      <trkpt lat="46.19988" lon="4.84676">
        <ele>214</ele>
        <time>2017-05-04T13:39:36.000Z</time>
      </trkpt>
      <trkpt lat="46.19987" lon="4.84675">
        <ele>214</ele>
        <time>2017-05-04T13:39:37.000Z</time>
      </trkpt>
      <trkpt lat="46.19985" lon="4.84675">
        <ele>214</ele>
        <time>2017-05-04T13:39:38.000Z</time>
      </trkpt>
      <trkpt lat="46.19984" lon="4.84674">
        <ele>214</ele>
        <time>2017-05-04T13:39:39.000Z</time>
      </trkpt>
      <trkpt lat="46.19983" lon="4.84673">
        <ele>214</ele>
        <time>2017-05-04T13:39:40.000Z</time>
      </trkpt>
      <trkpt lat="46.19982" lon="4.84673">
        <ele>214</ele>
        <time>2017-05-04T13:39:41.000Z</time>
      </trkpt>
      <trkpt lat="46.19981" lon="4.84673">
        <ele>214</ele>
        <time>2017-05-04T13:39:42.000Z</time>
      </trkpt>
      <trkpt lat="46.19979" lon="4.84672">
        <ele>214</ele>
        <time>2017-05-04T13:39:43.000Z</time>
      </trkpt>
      <trkpt lat="46.19978" lon="4.84672">
        <ele>214</ele>
        <time>2017-05-04T13:39:44.000Z</time>
      </trkpt>
      <trkpt lat="46.19977" lon="4.84671">
        <ele>214</ele>
        <time>2017-05-04T13:39:45.000Z</time>
      </trkpt>
      <trkpt lat="46.19976" lon="4.84671">
        <ele>214</ele>
        <time>2017-05-04T13:39:46.000Z</time>
      </trkpt>
      <trkpt lat="46.19975" lon="4.8467">
        <ele>214</ele>
        <time>2017-05-04T13:39:47.000Z</time>
      </trkpt>
      <trkpt lat="46.19974" lon="4.8467">
        <ele>213</ele>
        <time>2017-05-04T13:39:48.000Z</time>
      </trkpt>
      <trkpt lat="46.19973" lon="4.8467">
        <ele>213</ele>
        <time>2017-05-04T13:39:49.000Z</time>
      </trkpt>
      <trkpt lat="46.19972" lon="4.84669">
        <ele>212</ele>
        <time>2017-05-04T13:39:50.000Z</time>
      </trkpt>
      <trkpt lat="46.19971" lon="4.84669">
        <ele>212</ele>
        <time>2017-05-04T13:39:51.000Z</time>
      </trkpt>
      <trkpt lat="46.1997" lon="4.84669">
        <ele>212</ele>
        <time>2017-05-04T13:39:52.000Z</time>
      </trkpt>
      <trkpt lat="46.19969" lon="4.84668">
        <ele>211</ele>
        <time>2017-05-04T13:39:53.000Z</time>
      </trkpt>
      <trkpt lat="46.19968" lon="4.84668">
        <ele>211</ele>
        <time>2017-05-04T13:39:54.000Z</time>
      </trkpt>
      <trkpt lat="46.19967" lon="4.84667">
        <ele>211</ele>
        <time>2017-05-04T13:39:55.000Z</time>
      </trkpt>
      <trkpt lat="46.19967" lon="4.84667">
        <ele>210</ele>
        <time>2017-05-04T13:39:56.000Z</time>
      </trkpt>
      <trkpt lat="46.19966" lon="4.84666">
        <ele>210</ele>
        <time>2017-05-04T13:39:57.000Z</time>
      </trkpt>
      <trkpt lat="46.19965" lon="4.84665">
        <ele>210</ele>
        <time>2017-05-04T13:39:58.000Z</time>
      </trkpt>
      <trkpt lat="46.19964" lon="4.84665">
        <ele>211</ele>
        <time>2017-05-04T13:39:59.000Z</time>
      </trkpt>
      <trkpt lat="46.19963" lon="4.84664">
        <ele>210</ele>
        <time>2017-05-04T13:40:00.000Z</time>
      </trkpt>
      <trkpt lat="46.19962" lon="4.84664">
        <ele>210</ele>
        <time>2017-05-04T13:40:01.000Z</time>
      </trkpt>
      <trkpt lat="46.19961" lon="4.84664">
        <ele>211</ele>
        <time>2017-05-04T13:40:02.000Z</time>
      </trkpt>
      <trkpt lat="46.1996" lon="4.84664">
        <ele>211</ele>
        <time>2017-05-04T13:40:03.000Z</time>
      </trkpt>
      <trkpt lat="46.19959" lon="4.84664">
        <ele>212</ele>
        <time>2017-05-04T13:40:04.000Z</time>
      </trkpt>
      <trkpt lat="46.19958" lon="4.84664">
        <ele>212</ele>
        <time>2017-05-04T13:40:05.000Z</time>
      </trkpt>
      <trkpt lat="46.19956" lon="4.84664">
        <ele>211</ele>
        <time>2017-05-04T13:40:06.000Z</time>
      </trkpt>
      <trkpt lat="46.19955" lon="4.84663">
        <ele>211</ele>
        <time>2017-05-04T13:40:07.000Z</time>
      </trkpt>
      <trkpt lat="46.19953" lon="4.84662">
        <ele>211</ele>
        <time>2017-05-04T13:40:08.000Z</time>
      </trkpt>
      <trkpt lat="46.19952" lon="4.84661">
        <ele>211</ele>
        <time>2017-05-04T13:40:09.000Z</time>
      </trkpt>
      <trkpt lat="46.19951" lon="4.84661">
        <ele>211</ele>
        <time>2017-05-04T13:40:10.000Z</time>
      </trkpt>
      <trkpt lat="46.1995" lon="4.84661">
        <ele>211</ele>
        <time>2017-05-04T13:40:11.000Z</time>
      </trkpt>
      <trkpt lat="46.19949" lon="4.84661">
        <ele>211</ele>
        <time>2017-05-04T13:40:12.000Z</time>
      </trkpt>
      <trkpt lat="46.19948" lon="4.8466">
        <ele>211</ele>
        <time>2017-05-04T13:40:13.000Z</time>
      </trkpt>
      <trkpt lat="46.19946" lon="4.8466">
        <ele>211</ele>
        <time>2017-05-04T13:40:14.000Z</time>
      </trkpt>
      <trkpt lat="46.19945" lon="4.84659">
        <ele>211</ele>
        <time>2017-05-04T13:40:15.000Z</time>
      </trkpt>
      <trkpt lat="46.19944" lon="4.84659">
        <ele>211</ele>
        <time>2017-05-04T13:40:16.000Z</time>
      </trkpt>
      <trkpt lat="46.19943" lon="4.84658">
        <ele>211</ele>
        <time>2017-05-04T13:40:17.000Z</time>
      </trkpt>
      <trkpt lat="46.19942" lon="4.84658">
        <ele>211</ele>
        <time>2017-05-04T13:40:18.000Z</time>
      </trkpt>
      <trkpt lat="46.19941" lon="4.84657">
        <ele>211</ele>
        <time>2017-05-04T13:40:19.000Z</time>
      </trkpt>
      <trkpt lat="46.1994" lon="4.84657">
        <ele>211</ele>
        <time>2017-05-04T13:40:20.000Z</time>
      </trkpt>
      <trkpt lat="46.19939" lon="4.84656">
        <ele>211</ele>
        <time>2017-05-04T13:40:21.000Z</time>
      </trkpt>
      <trkpt lat="46.19937" lon="4.84656">
        <ele>211</ele>
        <time>2017-05-04T13:40:22.000Z</time>
      </trkpt>
      <trkpt lat="46.19936" lon="4.84656">
        <ele>211</ele>
        <time>2017-05-04T13:40:23.000Z</time>
      </trkpt>
      <trkpt lat="46.19935" lon="4.84655">
        <ele>211</ele>
        <time>2017-05-04T13:40:24.000Z</time>
      </trkpt>
      <trkpt lat="46.19934" lon="4.84655">
        <ele>211</ele>
        <time>2017-05-04T13:40:25.000Z</time>
      </trkpt>
      <trkpt lat="46.19933" lon="4.84654">
        <ele>211</ele>
        <time>2017-05-04T13:40:26.000Z</time>
      </trkpt>
      <trkpt lat="46.19932" lon="4.84654">
        <ele>211</ele>
        <time>2017-05-04T13:40:27.000Z</time>
      </trkpt>
      <trkpt lat="46.19931" lon="4.84653">
        <ele>211</ele>
        <time>2017-05-04T13:40:28.000Z</time>
      </trkpt>
      <trkpt lat="46.1993" lon="4.84653">
        <ele>211</ele>
        <time>2017-05-04T13:40:29.000Z</time>
      </trkpt>
      <trkpt lat="46.19929" lon="4.84652">
        <ele>211</ele>
        <time>2017-05-04T13:40:30.000Z</time>
      </trkpt>
      <trkpt lat="46.19928" lon="4.84652">
        <ele>211</ele>
        <time>2017-05-04T13:40:31.000Z</time>
      </trkpt>
      <trkpt lat="46.19927" lon="4.84651">
        <ele>211</ele>
        <time>2017-05-04T13:40:32.000Z</time>
      </trkpt>
      <trkpt lat="46.19926" lon="4.84651">
        <ele>211</ele>
        <time>2017-05-04T13:40:33.000Z</time>
      </trkpt>
      <trkpt lat="46.19926" lon="4.84651">
        <ele>211</ele>
        <time>2017-05-04T13:40:34.000Z</time>
      </trkpt>
      <trkpt lat="46.19925" lon="4.8465">
        <ele>211</ele>
        <time>2017-05-04T13:40:35.000Z</time>
      </trkpt>
      <trkpt lat="46.19924" lon="4.8465">
        <ele>211</ele>
        <time>2017-05-04T13:40:36.000Z</time>
      </trkpt>
      <trkpt lat="46.19923" lon="4.8465">
        <ele>211</ele>
        <time>2017-05-04T13:40:37.000Z</time>
      </trkpt>
      <trkpt lat="46.19922" lon="4.84649">
        <ele>211</ele>
        <time>2017-05-04T13:40:38.000Z</time>
      </trkpt>
      <trkpt lat="46.19921" lon="4.84649">
        <ele>211</ele>
        <time>2017-05-04T13:40:39.000Z</time>
      </trkpt>
      <trkpt lat="46.1992" lon="4.84649">
        <ele>211</ele>
        <time>2017-05-04T13:40:40.000Z</time>
      </trkpt>
      <trkpt lat="46.19918" lon="4.84649">
        <ele>211</ele>
        <time>2017-05-04T13:40:41.000Z</time>
      </trkpt>
      <trkpt lat="46.19917" lon="4.84649">
        <ele>212</ele>
        <time>2017-05-04T13:40:42.000Z</time>
      </trkpt>
      <trkpt lat="46.19916" lon="4.84648">
        <ele>212</ele>
        <time>2017-05-04T13:40:43.000Z</time>
      </trkpt>
      <trkpt lat="46.19915" lon="4.84648">
        <ele>212</ele>
        <time>2017-05-04T13:40:44.000Z</time>
      </trkpt>
      <trkpt lat="46.19914" lon="4.84648">
        <ele>212</ele>
        <time>2017-05-04T13:40:45.000Z</time>
      </trkpt>
      <trkpt lat="46.19913" lon="4.84647">
        <ele>212</ele>
        <time>2017-05-04T13:40:46.000Z</time>
      </trkpt>
      <trkpt lat="46.19912" lon="4.84647">
        <ele>212</ele>
        <time>2017-05-04T13:40:47.000Z</time>
      </trkpt>
      <trkpt lat="46.19911" lon="4.84646">
        <ele>212</ele>
        <time>2017-05-04T13:40:48.000Z</time>
      </trkpt>
      <trkpt lat="46.19909" lon="4.84646">
        <ele>212</ele>
        <time>2017-05-04T13:40:49.000Z</time>
      </trkpt>
      <trkpt lat="46.19909" lon="4.84646">
        <ele>212</ele>
        <time>2017-05-04T13:40:50.000Z</time>
      </trkpt>
      <trkpt lat="46.19908" lon="4.84646">
        <ele>212</ele>
        <time>2017-05-04T13:40:51.000Z</time>
      </trkpt>
      <trkpt lat="46.19907" lon="4.84645">
        <ele>212</ele>
        <time>2017-05-04T13:40:52.000Z</time>
      </trkpt>
      <trkpt lat="46.19906" lon="4.84645">
        <ele>212</ele>
        <time>2017-05-04T13:40:53.000Z</time>
      </trkpt>
      <trkpt lat="46.19904" lon="4.84644">
        <ele>212</ele>
        <time>2017-05-04T13:40:54.000Z</time>
      </trkpt>
      <trkpt lat="46.19903" lon="4.84644">
        <ele>212</ele>
        <time>2017-05-04T13:40:55.000Z</time>
      </trkpt>
      <trkpt lat="46.19902" lon="4.84644">
        <ele>211</ele>
        <time>2017-05-04T13:40:56.000Z</time>
      </trkpt>
      <trkpt lat="46.19901" lon="4.84643">
        <ele>211</ele>
        <time>2017-05-04T13:40:57.000Z</time>
      </trkpt>
      <trkpt lat="46.199" lon="4.84643">
        <ele>212</ele>
        <time>2017-05-04T13:40:58.000Z</time>
      </trkpt>
      <trkpt lat="46.19899" lon="4.84642">
        <ele>212</ele>
        <time>2017-05-04T13:40:59.000Z</time>
      </trkpt>
      <trkpt lat="46.19898" lon="4.84642">
        <ele>212</ele>
        <time>2017-05-04T13:41:00.000Z</time>
      </trkpt>
      <trkpt lat="46.19897" lon="4.84642">
        <ele>212</ele>
        <time>2017-05-04T13:41:01.000Z</time>
      </trkpt>
      <trkpt lat="46.19896" lon="4.84641">
        <ele>212</ele>
        <time>2017-05-04T13:41:02.000Z</time>
      </trkpt>
      <trkpt lat="46.19895" lon="4.84641">
        <ele>211</ele>
        <time>2017-05-04T13:41:03.000Z</time>
      </trkpt>
      <trkpt lat="46.19894" lon="4.8464">
        <ele>211</ele>
        <time>2017-05-04T13:41:04.000Z</time>
      </trkpt>
      <trkpt lat="46.19893" lon="4.8464">
        <ele>211</ele>
        <time>2017-05-04T13:41:05.000Z</time>
      </trkpt>
      <trkpt lat="46.19892" lon="4.8464">
        <ele>211</ele>
        <time>2017-05-04T13:41:06.000Z</time>
      </trkpt>
      <trkpt lat="46.19891" lon="4.84639">
        <ele>211</ele>
        <time>2017-05-04T13:41:07.000Z</time>
      </trkpt>
      <trkpt lat="46.1989" lon="4.84639">
        <ele>211</ele>
        <time>2017-05-04T13:41:08.000Z</time>
      </trkpt>
      <trkpt lat="46.19889" lon="4.84639">
        <ele>211</ele>
        <time>2017-05-04T13:41:09.000Z</time>
      </trkpt>
      <trkpt lat="46.19889" lon="4.84638">
        <ele>211</ele>
        <time>2017-05-04T13:41:10.000Z</time>
      </trkpt>
      <trkpt lat="46.19887" lon="4.84638">
        <ele>211</ele>
        <time>2017-05-04T13:41:11.000Z</time>
      </trkpt>
      <trkpt lat="46.19886" lon="4.84637">
        <ele>211</ele>
        <time>2017-05-04T13:41:12.000Z</time>
      </trkpt>
      <trkpt lat="46.19885" lon="4.84636">
        <ele>211</ele>
        <time>2017-05-04T13:41:13.000Z</time>
      </trkpt>
      <trkpt lat="46.19883" lon="4.84636">
        <ele>212</ele>
        <time>2017-05-04T13:41:14.000Z</time>
      </trkpt>
      <trkpt lat="46.19882" lon="4.84635">
        <ele>212</ele>
        <time>2017-05-04T13:41:15.000Z</time>
      </trkpt>
      <trkpt lat="46.1988" lon="4.84635">
        <ele>212</ele>
        <time>2017-05-04T13:41:16.000Z</time>
      </trkpt>
      <trkpt lat="46.19878" lon="4.84635">
        <ele>213</ele>
        <time>2017-05-04T13:41:17.000Z</time>
      </trkpt>
      <trkpt lat="46.19877" lon="4.84634">
        <ele>213</ele>
        <time>2017-05-04T13:41:18.000Z</time>
      </trkpt>
      <trkpt lat="46.19875" lon="4.84634">
        <ele>212</ele>
        <time>2017-05-04T13:41:19.000Z</time>
      </trkpt>
      <trkpt lat="46.19874" lon="4.84633">
        <ele>212</ele>
        <time>2017-05-04T13:41:20.000Z</time>
      </trkpt>
      <trkpt lat="46.19873" lon="4.84633">
        <ele>212</ele>
        <time>2017-05-04T13:41:21.000Z</time>
      </trkpt>
      <trkpt lat="46.19871" lon="4.84632">
        <ele>211</ele>
        <time>2017-05-04T13:41:22.000Z</time>
      </trkpt>
      <trkpt lat="46.1987" lon="4.84631">
        <ele>211</ele>
        <time>2017-05-04T13:41:23.000Z</time>
      </trkpt>
      <trkpt lat="46.19869" lon="4.8463">
        <ele>211</ele>
        <time>2017-05-04T13:41:24.000Z</time>
      </trkpt>
      <trkpt lat="46.19867" lon="4.8463">
        <ele>211</ele>
        <time>2017-05-04T13:41:25.000Z</time>
      </trkpt>
      <trkpt lat="46.19866" lon="4.8463">
        <ele>212</ele>
        <time>2017-05-04T13:41:26.000Z</time>
      </trkpt>
      <trkpt lat="46.19865" lon="4.84629">
        <ele>212</ele>
        <time>2017-05-04T13:41:27.000Z</time>
      </trkpt>
      <trkpt lat="46.19864" lon="4.84629">
        <ele>212</ele>
        <time>2017-05-04T13:41:28.000Z</time>
      </trkpt>
      <trkpt lat="46.19862" lon="4.84629">
        <ele>212</ele>
        <time>2017-05-04T13:41:29.000Z</time>
      </trkpt>
      <trkpt lat="46.19861" lon="4.84628">
        <ele>212</ele>
        <time>2017-05-04T13:41:30.000Z</time>
      </trkpt>
      <trkpt lat="46.19859" lon="4.84628">
        <ele>212</ele>
        <time>2017-05-04T13:41:31.000Z</time>
      </trkpt>
      <trkpt lat="46.19858" lon="4.84627">
        <ele>212</ele>
        <time>2017-05-04T13:41:32.000Z</time>
      </trkpt>
      <trkpt lat="46.19856" lon="4.84627">
        <ele>212</ele>
        <time>2017-05-04T13:41:33.000Z</time>
      </trkpt>
      <trkpt lat="46.19855" lon="4.84627">
        <ele>212</ele>
        <time>2017-05-04T13:41:34.000Z</time>
      </trkpt>
      <trkpt lat="46.19853" lon="4.84627">
        <ele>212</ele>
        <time>2017-05-04T13:41:35.000Z</time>
      </trkpt>
      <trkpt lat="46.19852" lon="4.84627">
        <ele>212</ele>
        <time>2017-05-04T13:41:36.000Z</time>
      </trkpt>
      <trkpt lat="46.19851" lon="4.84627">
        <ele>212</ele>
        <time>2017-05-04T13:41:37.000Z</time>
      </trkpt>
      <trkpt lat="46.19849" lon="4.84627">
        <ele>212</ele>
        <time>2017-05-04T13:41:38.000Z</time>
      </trkpt>
      <trkpt lat="46.19848" lon="4.84627">
        <ele>213</ele>
        <time>2017-05-04T13:41:39.000Z</time>
      </trkpt>
      <trkpt lat="46.19846" lon="4.84628">
        <ele>213</ele>
        <time>2017-05-04T13:41:40.000Z</time>
      </trkpt>
      <trkpt lat="46.19845" lon="4.84628">
        <ele>213</ele>
        <time>2017-05-04T13:41:41.000Z</time>
      </trkpt>
      <trkpt lat="46.19844" lon="4.84629">
        <ele>214</ele>
        <time>2017-05-04T13:41:42.000Z</time>
      </trkpt>
      <trkpt lat="46.19842" lon="4.8463">
        <ele>214</ele>
        <time>2017-05-04T13:41:43.000Z</time>
      </trkpt>
      <trkpt lat="46.19841" lon="4.84631">
        <ele>214</ele>
        <time>2017-05-04T13:41:44.000Z</time>
      </trkpt>
      <trkpt lat="46.1984" lon="4.84632">
        <ele>214</ele>
        <time>2017-05-04T13:41:45.000Z</time>
      </trkpt>
      <trkpt lat="46.19839" lon="4.84633">
        <ele>215</ele>
        <time>2017-05-04T13:41:46.000Z</time>
      </trkpt>
      <trkpt lat="46.19838" lon="4.84635">
        <ele>215</ele>
        <time>2017-05-04T13:41:47.000Z</time>
      </trkpt>
      <trkpt lat="46.19837" lon="4.84636">
        <ele>215</ele>
        <time>2017-05-04T13:41:48.000Z</time>
      </trkpt>
      <trkpt lat="46.19836" lon="4.84638">
        <ele>215</ele>
        <time>2017-05-04T13:41:49.000Z</time>
      </trkpt>
      <trkpt lat="46.19835" lon="4.84639">
        <ele>215</ele>
        <time>2017-05-04T13:41:50.000Z</time>
      </trkpt>
      <trkpt lat="46.19834" lon="4.84641">
        <ele>216</ele>
        <time>2017-05-04T13:41:51.000Z</time>
      </trkpt>
      <trkpt lat="46.19833" lon="4.84643">
        <ele>216</ele>
        <time>2017-05-04T13:41:52.000Z</time>
      </trkpt>
      <trkpt lat="46.19832" lon="4.84644">
        <ele>216</ele>
        <time>2017-05-04T13:41:53.000Z</time>
      </trkpt>
      <trkpt lat="46.19832" lon="4.84646">
        <ele>215</ele>
        <time>2017-05-04T13:41:54.000Z</time>
      </trkpt>
      <trkpt lat="46.19831" lon="4.84647">
        <ele>215</ele>
        <time>2017-05-04T13:41:55.000Z</time>
      </trkpt>
      <trkpt lat="46.19831" lon="4.84649">
        <ele>216</ele>
        <time>2017-05-04T13:41:56.000Z</time>
      </trkpt>
      <trkpt lat="46.1983" lon="4.8465">
        <ele>216</ele>
        <time>2017-05-04T13:41:57.000Z</time>
      </trkpt>
      <trkpt lat="46.1983" lon="4.84652">
        <ele>216</ele>
        <time>2017-05-04T13:41:58.000Z</time>
      </trkpt>
      <trkpt lat="46.1983" lon="4.84654">
        <ele>216</ele>
        <time>2017-05-04T13:41:59.000Z</time>
      </trkpt>
      <trkpt lat="46.19829" lon="4.84656">
        <ele>215</ele>
        <time>2017-05-04T13:42:00.000Z</time>
      </trkpt>
      <trkpt lat="46.19829" lon="4.84658">
        <ele>216</ele>
        <time>2017-05-04T13:42:01.000Z</time>
      </trkpt>
      <trkpt lat="46.19829" lon="4.84659">
        <ele>215</ele>
        <time>2017-05-04T13:42:02.000Z</time>
      </trkpt>
      <trkpt lat="46.19829" lon="4.84661">
        <ele>216</ele>
        <time>2017-05-04T13:42:03.000Z</time>
      </trkpt>
      <trkpt lat="46.19828" lon="4.84663">
        <ele>216</ele>
        <time>2017-05-04T13:42:04.000Z</time>
      </trkpt>
      <trkpt lat="46.19828" lon="4.84665">
        <ele>216</ele>
        <time>2017-05-04T13:42:05.000Z</time>
      </trkpt>
      <trkpt lat="46.19827" lon="4.84666">
        <ele>216</ele>
        <time>2017-05-04T13:42:06.000Z</time>
      </trkpt>
      <trkpt lat="46.19827" lon="4.84668">
        <ele>216</ele>
        <time>2017-05-04T13:42:07.000Z</time>
      </trkpt>
      <trkpt lat="46.19826" lon="4.8467">
        <ele>217</ele>
        <time>2017-05-04T13:42:08.000Z</time>
      </trkpt>
      <trkpt lat="46.19826" lon="4.84672">
        <ele>218</ele>
        <time>2017-05-04T13:42:09.000Z</time>
      </trkpt>
      <trkpt lat="46.19825" lon="4.84674">
        <ele>217</ele>
        <time>2017-05-04T13:42:10.000Z</time>
      </trkpt>
      <trkpt lat="46.19825" lon="4.84676">
        <ele>217</ele>
        <time>2017-05-04T13:42:11.000Z</time>
      </trkpt>
      <trkpt lat="46.19825" lon="4.84678">
        <ele>217</ele>
        <time>2017-05-04T13:42:12.000Z</time>
      </trkpt>
      <trkpt lat="46.19825" lon="4.84679">
        <ele>217</ele>
        <time>2017-05-04T13:42:13.000Z</time>
      </trkpt>
      <trkpt lat="46.19824" lon="4.84681">
        <ele>216</ele>
        <time>2017-05-04T13:42:14.000Z</time>
      </trkpt>
      <trkpt lat="46.19824" lon="4.84682">
        <ele>216</ele>
        <time>2017-05-04T13:42:15.000Z</time>
      </trkpt>
      <trkpt lat="46.19824" lon="4.84684">
        <ele>216</ele>
        <time>2017-05-04T13:42:16.000Z</time>
      </trkpt>
      <trkpt lat="46.19824" lon="4.84686">
        <ele>216</ele>
        <time>2017-05-04T13:42:17.000Z</time>
      </trkpt>
      <trkpt lat="46.19824" lon="4.84687">
        <ele>216</ele>
        <time>2017-05-04T13:42:18.000Z</time>
      </trkpt>
      <trkpt lat="46.19824" lon="4.84689">
        <ele>216</ele>
        <time>2017-05-04T13:42:19.000Z</time>
      </trkpt>
      <trkpt lat="46.19824" lon="4.8469">
        <ele>215</ele>
        <time>2017-05-04T13:42:20.000Z</time>
      </trkpt>
      <trkpt lat="46.19823" lon="4.84692">
        <ele>215</ele>
        <time>2017-05-04T13:42:21.000Z</time>
      </trkpt>
      <trkpt lat="46.19823" lon="4.84694">
        <ele>215</ele>
        <time>2017-05-04T13:42:22.000Z</time>
      </trkpt>
      <trkpt lat="46.19823" lon="4.84695">
        <ele>215</ele>
        <time>2017-05-04T13:42:23.000Z</time>
      </trkpt>
      <trkpt lat="46.19823" lon="4.84696">
        <ele>215</ele>
        <time>2017-05-04T13:42:24.000Z</time>
      </trkpt>
      <trkpt lat="46.19823" lon="4.84698">
        <ele>215</ele>
        <time>2017-05-04T13:42:25.000Z</time>
      </trkpt>
      <trkpt lat="46.19822" lon="4.84699">
        <ele>215</ele>
        <time>2017-05-04T13:42:26.000Z</time>
      </trkpt>
      <trkpt lat="46.19822" lon="4.84701">
        <ele>215</ele>
        <time>2017-05-04T13:42:27.000Z</time>
      </trkpt>
      <trkpt lat="46.19822" lon="4.84702">
        <ele>215</ele>
        <time>2017-05-04T13:42:28.000Z</time>
      </trkpt>
      <trkpt lat="46.19822" lon="4.84704">
        <ele>215</ele>
        <time>2017-05-04T13:42:29.000Z</time>
      </trkpt>
      <trkpt lat="46.19822" lon="4.84706">
        <ele>215</ele>
        <time>2017-05-04T13:42:30.000Z</time>
      </trkpt>
      <trkpt lat="46.19821" lon="4.84707">
        <ele>215</ele>
        <time>2017-05-04T13:42:31.000Z</time>
      </trkpt>
      <trkpt lat="46.19821" lon="4.84709">
        <ele>215</ele>
        <time>2017-05-04T13:42:32.000Z</time>
      </trkpt>
      <trkpt lat="46.19821" lon="4.8471">
        <ele>215</ele>
        <time>2017-05-04T13:42:33.000Z</time>
      </trkpt>
      <trkpt lat="46.19821" lon="4.84711">
        <ele>215</ele>
        <time>2017-05-04T13:42:34.000Z</time>
      </trkpt>
      <trkpt lat="46.1982" lon="4.84713">
        <ele>215</ele>
        <time>2017-05-04T13:42:35.000Z</time>
      </trkpt>
      <trkpt lat="46.1982" lon="4.84714">
        <ele>215</ele>
        <time>2017-05-04T13:42:36.000Z</time>
      </trkpt>
      <trkpt lat="46.1982" lon="4.84716">
        <ele>215</ele>
        <time>2017-05-04T13:42:37.000Z</time>
      </trkpt>
      <trkpt lat="46.19819" lon="4.84718">
        <ele>215</ele>
        <time>2017-05-04T13:42:38.000Z</time>
      </trkpt>
      <trkpt lat="46.19819" lon="4.84719">
        <ele>215</ele>
        <time>2017-05-04T13:42:39.000Z</time>
      </trkpt>
      <trkpt lat="46.19819" lon="4.8472">
        <ele>215</ele>
        <time>2017-05-04T13:42:40.000Z</time>
      </trkpt>
      <trkpt lat="46.19819" lon="4.84722">
        <ele>215</ele>
        <time>2017-05-04T13:42:41.000Z</time>
      </trkpt>
      <trkpt lat="46.19819" lon="4.84723">
        <ele>216</ele>
        <time>2017-05-04T13:42:42.000Z</time>
      </trkpt>
      <trkpt lat="46.19818" lon="4.84725">
        <ele>216</ele>
        <time>2017-05-04T13:42:43.000Z</time>
      </trkpt>
      <trkpt lat="46.19818" lon="4.84726">
        <ele>216</ele>
        <time>2017-05-04T13:42:44.000Z</time>
      </trkpt>
      <trkpt lat="46.19818" lon="4.84728">
        <ele>216</ele>
        <time>2017-05-04T13:42:45.000Z</time>
      </trkpt>
      <trkpt lat="46.19818" lon="4.8473">
        <ele>216</ele>
        <time>2017-05-04T13:42:46.000Z</time>
      </trkpt>
      <trkpt lat="46.19818" lon="4.84731">
        <ele>217</ele>
        <time>2017-05-04T13:42:47.000Z</time>
      </trkpt>
      <trkpt lat="46.19818" lon="4.84733">
        <ele>216</ele>
        <time>2017-05-04T13:42:48.000Z</time>
      </trkpt>
      <trkpt lat="46.19818" lon="4.84734">
        <ele>216</ele>
        <time>2017-05-04T13:42:49.000Z</time>
      </trkpt>
      <trkpt lat="46.19817" lon="4.84736">
        <ele>217</ele>
        <time>2017-05-04T13:42:50.000Z</time>
      </trkpt>
      <trkpt lat="46.19817" lon="4.84737">
        <ele>217</ele>
        <time>2017-05-04T13:42:51.000Z</time>
      </trkpt>
      <trkpt lat="46.19817" lon="4.84739">
        <ele>217</ele>
        <time>2017-05-04T13:42:52.000Z</time>
      </trkpt>
      <trkpt lat="46.19817" lon="4.84741">
        <ele>216</ele>
        <time>2017-05-04T13:42:53.000Z</time>
      </trkpt>
      <trkpt lat="46.19817" lon="4.84742">
        <ele>216</ele>
        <time>2017-05-04T13:42:54.000Z</time>
      </trkpt>
      <trkpt lat="46.19817" lon="4.84744">
        <ele>216</ele>
        <time>2017-05-04T13:42:55.000Z</time>
      </trkpt>
      <trkpt lat="46.19817" lon="4.84745">
        <ele>216</ele>
        <time>2017-05-04T13:42:56.000Z</time>
      </trkpt>
      <trkpt lat="46.19816" lon="4.84747">
        <ele>216</ele>
        <time>2017-05-04T13:42:57.000Z</time>
      </trkpt>
      <trkpt lat="46.19816" lon="4.84749">
        <ele>216</ele>
        <time>2017-05-04T13:42:58.000Z</time>
      </trkpt>
      <trkpt lat="46.19816" lon="4.8475">
        <ele>216</ele>
        <time>2017-05-04T13:42:59.000Z</time>
      </trkpt>
      <trkpt lat="46.19816" lon="4.84752">
        <ele>216</ele>
        <time>2017-05-04T13:43:00.000Z</time>
      </trkpt>
      <trkpt lat="46.19816" lon="4.84753">
        <ele>216</ele>
        <time>2017-05-04T13:43:01.000Z</time>
      </trkpt>
      <trkpt lat="46.19816" lon="4.84755">
        <ele>216</ele>
        <time>2017-05-04T13:43:02.000Z</time>
      </trkpt>
      <trkpt lat="46.19816" lon="4.84756">
        <ele>216</ele>
        <time>2017-05-04T13:43:03.000Z</time>
      </trkpt>
      <trkpt lat="46.19815" lon="4.84758">
        <ele>216</ele>
        <time>2017-05-04T13:43:04.000Z</time>
      </trkpt>
      <trkpt lat="46.19815" lon="4.84759">
        <ele>216</ele>
        <time>2017-05-04T13:43:05.000Z</time>
      </trkpt>
      <trkpt lat="46.19814" lon="4.8476">
        <ele>216</ele>
        <time>2017-05-04T13:43:06.000Z</time>
      </trkpt>
      <trkpt lat="46.19814" lon="4.84762">
        <ele>216</ele>
        <time>2017-05-04T13:43:07.000Z</time>
      </trkpt>
      <trkpt lat="46.19814" lon="4.84763">
        <ele>216</ele>
        <time>2017-05-04T13:43:08.000Z</time>
      </trkpt>
      <trkpt lat="46.19814" lon="4.84765">
        <ele>216</ele>
        <time>2017-05-04T13:43:09.000Z</time>
      </trkpt>
      <trkpt lat="46.19813" lon="4.84766">
        <ele>215</ele>
        <time>2017-05-04T13:43:10.000Z</time>
      </trkpt>
      <trkpt lat="46.19813" lon="4.84768">
        <ele>215</ele>
        <time>2017-05-04T13:43:11.000Z</time>
      </trkpt>
      <trkpt lat="46.19812" lon="4.84769">
        <ele>215</ele>
        <time>2017-05-04T13:43:12.000Z</time>
      </trkpt>
      <trkpt lat="46.19812" lon="4.84771">
        <ele>215</ele>
        <time>2017-05-04T13:43:13.000Z</time>
      </trkpt>
      <trkpt lat="46.19812" lon="4.84772">
        <ele>215</ele>
        <time>2017-05-04T13:43:14.000Z</time>
      </trkpt>
      <trkpt lat="46.19812" lon="4.84774">
        <ele>215</ele>
        <time>2017-05-04T13:43:15.000Z</time>
      </trkpt>
      <trkpt lat="46.19812" lon="4.84775">
        <ele>214</ele>
        <time>2017-05-04T13:43:16.000Z</time>
      </trkpt>
      <trkpt lat="46.19811" lon="4.84776">
        <ele>214</ele>
        <time>2017-05-04T13:43:17.000Z</time>
      </trkpt>
      <trkpt lat="46.19811" lon="4.84778">
        <ele>213</ele>
        <time>2017-05-04T13:43:18.000Z</time>
      </trkpt>
      <trkpt lat="46.19811" lon="4.84779">
        <ele>212</ele>
        <time>2017-05-04T13:43:19.000Z</time>
      </trkpt>
      <trkpt lat="46.19811" lon="4.84781">
        <ele>212</ele>
        <time>2017-05-04T13:43:20.000Z</time>
      </trkpt>
      <trkpt lat="46.19811" lon="4.84782">
        <ele>212</ele>
        <time>2017-05-04T13:43:21.000Z</time>
      </trkpt>
      <trkpt lat="46.19811" lon="4.84784">
        <ele>212</ele>
        <time>2017-05-04T13:43:22.000Z</time>
      </trkpt>
      <trkpt lat="46.1981" lon="4.84785">
        <ele>211</ele>
        <time>2017-05-04T13:43:23.000Z</time>
      </trkpt>
      <trkpt lat="46.1981" lon="4.84787">
        <ele>211</ele>
        <time>2017-05-04T13:43:24.000Z</time>
      </trkpt>
      <trkpt lat="46.1981" lon="4.84788">
        <ele>210</ele>
        <time>2017-05-04T13:43:25.000Z</time>
      </trkpt>
      <trkpt lat="46.1981" lon="4.8479">
        <ele>210</ele>
        <time>2017-05-04T13:43:26.000Z</time>
      </trkpt>
      <trkpt lat="46.19809" lon="4.84792">
        <ele>210</ele>
        <time>2017-05-04T13:43:27.000Z</time>
      </trkpt>
      <trkpt lat="46.19809" lon="4.84793">
        <ele>210</ele>
        <time>2017-05-04T13:43:28.000Z</time>
      </trkpt>
      <trkpt lat="46.19809" lon="4.84795">
        <ele>210</ele>
        <time>2017-05-04T13:43:29.000Z</time>
      </trkpt>
      <trkpt lat="46.19809" lon="4.84796">
        <ele>211</ele>
        <time>2017-05-04T13:43:30.000Z</time>
      </trkpt>
      <trkpt lat="46.19809" lon="4.84798">
        <ele>211</ele>
        <time>2017-05-04T13:43:31.000Z</time>
      </trkpt>
      <trkpt lat="46.19808" lon="4.848">
        <ele>211</ele>
        <time>2017-05-04T13:43:32.000Z</time>
      </trkpt>
      <trkpt lat="46.19808" lon="4.84802">
        <ele>212</ele>
        <time>2017-05-04T13:43:33.000Z</time>
      </trkpt>
      <trkpt lat="46.19808" lon="4.84804">
        <ele>212</ele>
        <time>2017-05-04T13:43:34.000Z</time>
      </trkpt>
      <trkpt lat="46.19808" lon="4.84806">
        <ele>212</ele>
        <time>2017-05-04T13:43:35.000Z</time>
      </trkpt>
      <trkpt lat="46.19808" lon="4.84807">
        <ele>212</ele>
        <time>2017-05-04T13:43:36.000Z</time>
      </trkpt>
      <trkpt lat="46.19808" lon="4.84809">
        <ele>212</ele>
        <time>2017-05-04T13:43:37.000Z</time>
      </trkpt>
      <trkpt lat="46.19807" lon="4.84811">
        <ele>213</ele>
        <time>2017-05-04T13:43:38.000Z</time>
      </trkpt>
      <trkpt lat="46.19807" lon="4.84813">
        <ele>212</ele>
        <time>2017-05-04T13:43:39.000Z</time>
      </trkpt>
      <trkpt lat="46.19807" lon="4.84814">
        <ele>213</ele>
        <time>2017-05-04T13:43:40.000Z</time>
      </trkpt>
      <trkpt lat="46.19807" lon="4.84816">
        <ele>213</ele>
        <time>2017-05-04T13:43:41.000Z</time>
      </trkpt>
      <trkpt lat="46.19807" lon="4.84818">
        <ele>213</ele>
        <time>2017-05-04T13:43:42.000Z</time>
      </trkpt>
      <trkpt lat="46.19807" lon="4.84819">
        <ele>212</ele>
        <time>2017-05-04T13:43:43.000Z</time>
      </trkpt>
      <trkpt lat="46.19806" lon="4.84821">
        <ele>212</ele>
        <time>2017-05-04T13:43:44.000Z</time>
      </trkpt>
      <trkpt lat="46.19806" lon="4.84823">
        <ele>212</ele>
        <time>2017-05-04T13:43:45.000Z</time>
      </trkpt>
      <trkpt lat="46.19806" lon="4.84824">
        <ele>212</ele>
        <time>2017-05-04T13:43:46.000Z</time>
      </trkpt>
      <trkpt lat="46.19806" lon="4.84826">
        <ele>212</ele>
        <time>2017-05-04T13:43:47.000Z</time>
      </trkpt>
      <trkpt lat="46.19806" lon="4.84828">
        <ele>212</ele>
        <time>2017-05-04T13:43:48.000Z</time>
      </trkpt>
      <trkpt lat="46.19806" lon="4.84829">
        <ele>212</ele>
        <time>2017-05-04T13:43:49.000Z</time>
      </trkpt>
      <trkpt lat="46.19806" lon="4.84831">
        <ele>212</ele>
        <time>2017-05-04T13:43:50.000Z</time>
      </trkpt>
      <trkpt lat="46.19806" lon="4.84832">
        <ele>212</ele>
        <time>2017-05-04T13:43:51.000Z</time>
      </trkpt>
      <trkpt lat="46.19806" lon="4.84834">
        <ele>212</ele>
        <time>2017-05-04T13:43:52.000Z</time>
      </trkpt>
      <trkpt lat="46.19805" lon="4.84836">
        <ele>212</ele>
        <time>2017-05-04T13:43:53.000Z</time>
      </trkpt>
      <trkpt lat="46.19805" lon="4.84837">
        <ele>211</ele>
        <time>2017-05-04T13:43:54.000Z</time>
      </trkpt>
      <trkpt lat="46.19805" lon="4.84839">
        <ele>211</ele>
        <time>2017-05-04T13:43:55.000Z</time>
      </trkpt>
      <trkpt lat="46.19805" lon="4.8484">
        <ele>211</ele>
        <time>2017-05-04T13:43:56.000Z</time>
      </trkpt>
      <trkpt lat="46.19805" lon="4.84842">
        <ele>211</ele>
        <time>2017-05-04T13:43:57.000Z</time>
      </trkpt>
      <trkpt lat="46.19804" lon="4.84843">
        <ele>211</ele>
        <time>2017-05-04T13:43:58.000Z</time>
      </trkpt>
      <trkpt lat="46.19804" lon="4.84845">
        <ele>211</ele>
        <time>2017-05-04T13:43:59.000Z</time>
      </trkpt>
      <trkpt lat="46.19804" lon="4.84846">
        <ele>212</ele>
        <time>2017-05-04T13:44:00.000Z</time>
      </trkpt>
      <trkpt lat="46.19803" lon="4.84848">
        <ele>212</ele>
        <time>2017-05-04T13:44:01.000Z</time>
      </trkpt>
      <trkpt lat="46.19803" lon="4.84849">
        <ele>211</ele>
        <time>2017-05-04T13:44:02.000Z</time>
      </trkpt>
      <trkpt lat="46.19803" lon="4.84851">
        <ele>211</ele>
        <time>2017-05-04T13:44:03.000Z</time>
      </trkpt>
      <trkpt lat="46.19803" lon="4.84852">
        <ele>211</ele>
        <time>2017-05-04T13:44:04.000Z</time>
      </trkpt>
      <trkpt lat="46.19802" lon="4.84854">
        <ele>211</ele>
        <time>2017-05-04T13:44:05.000Z</time>
      </trkpt>
      <trkpt lat="46.19802" lon="4.84855">
        <ele>211</ele>
        <time>2017-05-04T13:44:06.000Z</time>
      </trkpt>
      <trkpt lat="46.19802" lon="4.84857">
        <ele>211</ele>
        <time>2017-05-04T13:44:07.000Z</time>
      </trkpt>
      <trkpt lat="46.19802" lon="4.84859">
        <ele>211</ele>
        <time>2017-05-04T13:44:08.000Z</time>
      </trkpt>
      <trkpt lat="46.19801" lon="4.8486">
        <ele>211</ele>
        <time>2017-05-04T13:44:09.000Z</time>
      </trkpt>
      <trkpt lat="46.19801" lon="4.84862">
        <ele>212</ele>
        <time>2017-05-04T13:44:10.000Z</time>
      </trkpt>
      <trkpt lat="46.198" lon="4.84864">
        <ele>212</ele>
        <time>2017-05-04T13:44:11.000Z</time>
      </trkpt>
      <trkpt lat="46.198" lon="4.84865">
        <ele>212</ele>
        <time>2017-05-04T13:44:12.000Z</time>
      </trkpt>
      <trkpt lat="46.198" lon="4.84867">
        <ele>212</ele>
        <time>2017-05-04T13:44:13.000Z</time>
      </trkpt>
      <trkpt lat="46.198" lon="4.84869">
        <ele>213</ele>
        <time>2017-05-04T13:44:14.000Z</time>
      </trkpt>
      <trkpt lat="46.19799" lon="4.84871">
        <ele>212</ele>
        <time>2017-05-04T13:44:15.000Z</time>
      </trkpt>
      <trkpt lat="46.19799" lon="4.84873">
        <ele>212</ele>
        <time>2017-05-04T13:44:16.000Z</time>
      </trkpt>
      <trkpt lat="46.19799" lon="4.84875">
        <ele>213</ele>
        <time>2017-05-04T13:44:17.000Z</time>
      </trkpt>
      <trkpt lat="46.19798" lon="4.84877">
        <ele>213</ele>
        <time>2017-05-04T13:44:18.000Z</time>
      </trkpt>
      <trkpt lat="46.19798" lon="4.84879">
        <ele>213</ele>
        <time>2017-05-04T13:44:19.000Z</time>
      </trkpt>
      <trkpt lat="46.19798" lon="4.84881">
        <ele>214</ele>
        <time>2017-05-04T13:44:20.000Z</time>
      </trkpt>
      <trkpt lat="46.19798" lon="4.84883">
        <ele>214</ele>
        <time>2017-05-04T13:44:21.000Z</time>
      </trkpt>
      <trkpt lat="46.19798" lon="4.84885">
        <ele>214</ele>
        <time>2017-05-04T13:44:22.000Z</time>
      </trkpt>
      <trkpt lat="46.19798" lon="4.84886">
        <ele>215</ele>
        <time>2017-05-04T13:44:23.000Z</time>
      </trkpt>
      <trkpt lat="46.19797" lon="4.84888">
        <ele>214</ele>
        <time>2017-05-04T13:44:24.000Z</time>
      </trkpt>
      <trkpt lat="46.19798" lon="4.84888">
        <ele>215</ele>
        <time>2017-05-04T13:44:25.000Z</time>
      </trkpt>
      <trkpt lat="46.19798" lon="4.84888">
        <ele>215</ele>
        <time>2017-05-04T13:44:26.000Z</time>
      </trkpt>
      <trkpt lat="46.19798" lon="4.84889">
        <ele>215</ele>
        <time>2017-05-04T13:44:27.000Z</time>
      </trkpt>
      <trkpt lat="46.19799" lon="4.84889">
        <ele>215</ele>
        <time>2017-05-04T13:44:28.000Z</time>
      </trkpt>
      <trkpt lat="46.19799" lon="4.84889">
        <ele>215</ele>
        <time>2017-05-04T13:44:29.000Z</time>
      </trkpt>
      <trkpt lat="46.19799" lon="4.8489">
        <ele>215</ele>
        <time>2017-05-04T13:44:30.000Z</time>
      </trkpt>
      <trkpt lat="46.19798" lon="4.84891">
        <ele>216</ele>
        <time>2017-05-04T13:44:31.000Z</time>
      </trkpt>
      <trkpt lat="46.19798" lon="4.84892">
        <ele>216</ele>
        <time>2017-05-04T13:44:32.000Z</time>
      </trkpt>
      <trkpt lat="46.19797" lon="4.84894">
        <ele>216</ele>
        <time>2017-05-04T13:44:33.000Z</time>
      </trkpt>
      <trkpt lat="46.19797" lon="4.84896">
        <ele>216</ele>
        <time>2017-05-04T13:44:34.000Z</time>
      </trkpt>
      <trkpt lat="46.19796" lon="4.84897">
        <ele>216</ele>
        <time>2017-05-04T13:44:35.000Z</time>
      </trkpt>
      <trkpt lat="46.19796" lon="4.84899">
        <ele>216</ele>
        <time>2017-05-04T13:44:36.000Z</time>
      </trkpt>
      <trkpt lat="46.19796" lon="4.84901">
        <ele>216</ele>
        <time>2017-05-04T13:44:37.000Z</time>
      </trkpt>
      <trkpt lat="46.19795" lon="4.84903">
        <ele>216</ele>
        <time>2017-05-04T13:44:38.000Z</time>
      </trkpt>
      <trkpt lat="46.19795" lon="4.84905">
        <ele>216</ele>
        <time>2017-05-04T13:44:39.000Z</time>
      </trkpt>
      <trkpt lat="46.19795" lon="4.84907">
        <ele>216</ele>
        <time>2017-05-04T13:44:40.000Z</time>
      </trkpt>
      <trkpt lat="46.19795" lon="4.84908">
        <ele>216</ele>
        <time>2017-05-04T13:44:41.000Z</time>
      </trkpt>
      <trkpt lat="46.19795" lon="4.8491">
        <ele>216</ele>
        <time>2017-05-04T13:44:42.000Z</time>
      </trkpt>
      <trkpt lat="46.19795" lon="4.84912">
        <ele>216</ele>
        <time>2017-05-04T13:44:43.000Z</time>
      </trkpt>
      <trkpt lat="46.19795" lon="4.84914">
        <ele>216</ele>
        <time>2017-05-04T13:44:44.000Z</time>
      </trkpt>
      <trkpt lat="46.19795" lon="4.84916">
        <ele>215</ele>
        <time>2017-05-04T13:44:45.000Z</time>
      </trkpt>
      <trkpt lat="46.19795" lon="4.84917">
        <ele>215</ele>
        <time>2017-05-04T13:44:46.000Z</time>
      </trkpt>
      <trkpt lat="46.19795" lon="4.84919">
        <ele>215</ele>
        <time>2017-05-04T13:44:47.000Z</time>
      </trkpt>
      <trkpt lat="46.19795" lon="4.8492">
        <ele>215</ele>
        <time>2017-05-04T13:44:48.000Z</time>
      </trkpt>
      <trkpt lat="46.19796" lon="4.84922">
        <ele>215</ele>
        <time>2017-05-04T13:44:49.000Z</time>
      </trkpt>
      <trkpt lat="46.19796" lon="4.84923">
        <ele>215</ele>
        <time>2017-05-04T13:44:50.000Z</time>
      </trkpt>
      <trkpt lat="46.19796" lon="4.84925">
        <ele>215</ele>
        <time>2017-05-04T13:44:51.000Z</time>
      </trkpt>
      <trkpt lat="46.19797" lon="4.84926">
        <ele>215</ele>
        <time>2017-05-04T13:44:52.000Z</time>
      </trkpt>
      <trkpt lat="46.19798" lon="4.84927">
        <ele>215</ele>
        <time>2017-05-04T13:44:53.000Z</time>
      </trkpt>
      <trkpt lat="46.19798" lon="4.84928">
        <ele>215</ele>
        <time>2017-05-04T13:44:54.000Z</time>
      </trkpt>
      <trkpt lat="46.19799" lon="4.84929">
        <ele>215</ele>
        <time>2017-05-04T13:44:55.000Z</time>
      </trkpt>
      <trkpt lat="46.198" lon="4.8493">
        <ele>215</ele>
        <time>2017-05-04T13:44:56.000Z</time>
      </trkpt>
      <trkpt lat="46.198" lon="4.84931">
        <ele>214</ele>
        <time>2017-05-04T13:44:57.000Z</time>
      </trkpt>
      <trkpt lat="46.19801" lon="4.84932">
        <ele>214</ele>
        <time>2017-05-04T13:44:58.000Z</time>
      </trkpt>
      <trkpt lat="46.19802" lon="4.84933">
        <ele>214</ele>
        <time>2017-05-04T13:44:59.000Z</time>
      </trkpt>
      <trkpt lat="46.19803" lon="4.84933">
        <ele>214</ele>
        <time>2017-05-04T13:45:00.000Z</time>
      </trkpt>
      <trkpt lat="46.19804" lon="4.84934">
        <ele>214</ele>
        <time>2017-05-04T13:45:01.000Z</time>
      </trkpt>
      <trkpt lat="46.19805" lon="4.84935">
        <ele>214</ele>
        <time>2017-05-04T13:45:02.000Z</time>
      </trkpt>
      <trkpt lat="46.19805" lon="4.84935">
        <ele>214</ele>
        <time>2017-05-04T13:45:03.000Z</time>
      </trkpt>
      <trkpt lat="46.19806" lon="4.84936">
        <ele>213</ele>
        <time>2017-05-04T13:45:04.000Z</time>
      </trkpt>
      <trkpt lat="46.19807" lon="4.84936">
        <ele>213</ele>
        <time>2017-05-04T13:45:05.000Z</time>
      </trkpt>
      <trkpt lat="46.19808" lon="4.84936">
        <ele>213</ele>
        <time>2017-05-04T13:45:06.000Z</time>
      </trkpt>
      <trkpt lat="46.1981" lon="4.84937">
        <ele>213</ele>
        <time>2017-05-04T13:45:07.000Z</time>
      </trkpt>
      <trkpt lat="46.19811" lon="4.84937">
        <ele>213</ele>
        <time>2017-05-04T13:45:08.000Z</time>
      </trkpt>
      <trkpt lat="46.19812" lon="4.84937">
        <ele>213</ele>
        <time>2017-05-04T13:45:09.000Z</time>
      </trkpt>
      <trkpt lat="46.19813" lon="4.84938">
        <ele>213</ele>
        <time>2017-05-04T13:45:10.000Z</time>
      </trkpt>
      <trkpt lat="46.19814" lon="4.84938">
        <ele>213</ele>
        <time>2017-05-04T13:45:11.000Z</time>
      </trkpt>
      <trkpt lat="46.19815" lon="4.84938">
        <ele>213</ele>
        <time>2017-05-04T13:45:12.000Z</time>
      </trkpt>
      <trkpt lat="46.19816" lon="4.84938">
        <ele>213</ele>
        <time>2017-05-04T13:45:13.000Z</time>
      </trkpt>
      <trkpt lat="46.19817" lon="4.84938">
        <ele>212</ele>
        <time>2017-05-04T13:45:14.000Z</time>
      </trkpt>
      <trkpt lat="46.19818" lon="4.84939">
        <ele>211</ele>
        <time>2017-05-04T13:45:15.000Z</time>
      </trkpt>
      <trkpt lat="46.19819" lon="4.84939">
        <ele>212</ele>
        <time>2017-05-04T13:45:16.000Z</time>
      </trkpt>
      <trkpt lat="46.1982" lon="4.84939">
        <ele>212</ele>
        <time>2017-05-04T13:45:17.000Z</time>
      </trkpt>
      <trkpt lat="46.19821" lon="4.84939">
        <ele>212</ele>
        <time>2017-05-04T13:45:18.000Z</time>
      </trkpt>
      <trkpt lat="46.19822" lon="4.84939">
        <ele>212</ele>
        <time>2017-05-04T13:45:19.000Z</time>
      </trkpt>
      <trkpt lat="46.19823" lon="4.84939">
        <ele>212</ele>
        <time>2017-05-04T13:45:20.000Z</time>
      </trkpt>
      <trkpt lat="46.19825" lon="4.84939">
        <ele>213</ele>
        <time>2017-05-04T13:45:21.000Z</time>
      </trkpt>
      <trkpt lat="46.19826" lon="4.84939">
        <ele>212</ele>
        <time>2017-05-04T13:45:22.000Z</time>
      </trkpt>
      <trkpt lat="46.19827" lon="4.84938">
        <ele>212</ele>
        <time>2017-05-04T13:45:23.000Z</time>
      </trkpt>
      <trkpt lat="46.19828" lon="4.84938">
        <ele>212</ele>
        <time>2017-05-04T13:45:24.000Z</time>
      </trkpt>
      <trkpt lat="46.19829" lon="4.84938">
        <ele>213</ele>
        <time>2017-05-04T13:45:25.000Z</time>
      </trkpt>
      <trkpt lat="46.1983" lon="4.84938">
        <ele>213</ele>
        <time>2017-05-04T13:45:26.000Z</time>
      </trkpt>
      <trkpt lat="46.19831" lon="4.84938">
        <ele>213</ele>
        <time>2017-05-04T13:45:27.000Z</time>
      </trkpt>
      <trkpt lat="46.19833" lon="4.84938">
        <ele>213</ele>
        <time>2017-05-04T13:45:28.000Z</time>
      </trkpt>
      <trkpt lat="46.19834" lon="4.84938">
        <ele>213</ele>
        <time>2017-05-04T13:45:29.000Z</time>
      </trkpt>
      <trkpt lat="46.19835" lon="4.84938">
        <ele>213</ele>
        <time>2017-05-04T13:45:30.000Z</time>
      </trkpt>
      <trkpt lat="46.19836" lon="4.84938">
        <ele>213</ele>
        <time>2017-05-04T13:45:31.000Z</time>
      </trkpt>
      <trkpt lat="46.19837" lon="4.84939">
        <ele>212</ele>
        <time>2017-05-04T13:45:32.000Z</time>
      </trkpt>
      <trkpt lat="46.19838" lon="4.84939">
        <ele>212</ele>
        <time>2017-05-04T13:45:33.000Z</time>
      </trkpt>
      <trkpt lat="46.19839" lon="4.84939">
        <ele>211</ele>
        <time>2017-05-04T13:45:34.000Z</time>
      </trkpt>
      <trkpt lat="46.1984" lon="4.84939">
        <ele>211</ele>
        <time>2017-05-04T13:45:35.000Z</time>
      </trkpt>
      <trkpt lat="46.19841" lon="4.84939">
        <ele>212</ele>
        <time>2017-05-04T13:45:36.000Z</time>
      </trkpt>
      <trkpt lat="46.19842" lon="4.8494">
        <ele>212</ele>
        <time>2017-05-04T13:45:37.000Z</time>
      </trkpt>
      <trkpt lat="46.19843" lon="4.8494">
        <ele>212</ele>
        <time>2017-05-04T13:45:38.000Z</time>
      </trkpt>
      <trkpt lat="46.19844" lon="4.8494">
        <ele>212</ele>
        <time>2017-05-04T13:45:39.000Z</time>
      </trkpt>
      <trkpt lat="46.19845" lon="4.8494">
        <ele>212</ele>
        <time>2017-05-04T13:45:40.000Z</time>
      </trkpt>
      <trkpt lat="46.19846" lon="4.84939">
        <ele>212</ele>
        <time>2017-05-04T13:45:41.000Z</time>
      </trkpt>
      <trkpt lat="46.19847" lon="4.8494">
        <ele>211</ele>
        <time>2017-05-04T13:45:42.000Z</time>
      </trkpt>
      <trkpt lat="46.19848" lon="4.8494">
        <ele>211</ele>
        <time>2017-05-04T13:45:43.000Z</time>
      </trkpt>
      <trkpt lat="46.19849" lon="4.8494">
        <ele>211</ele>
        <time>2017-05-04T13:45:44.000Z</time>
      </trkpt>
      <trkpt lat="46.19851" lon="4.8494">
        <ele>211</ele>
        <time>2017-05-04T13:45:45.000Z</time>
      </trkpt>
      <trkpt lat="46.19852" lon="4.8494">
        <ele>211</ele>
        <time>2017-05-04T13:45:46.000Z</time>
      </trkpt>
      <trkpt lat="46.19853" lon="4.8494">
        <ele>211</ele>
        <time>2017-05-04T13:45:47.000Z</time>
      </trkpt>
      <trkpt lat="46.19854" lon="4.8494">
        <ele>211</ele>
        <time>2017-05-04T13:45:48.000Z</time>
      </trkpt>
      <trkpt lat="46.19856" lon="4.8494">
        <ele>211</ele>
        <time>2017-05-04T13:45:49.000Z</time>
      </trkpt>
      <trkpt lat="46.19857" lon="4.8494">
        <ele>211</ele>
        <time>2017-05-04T13:45:50.000Z</time>
      </trkpt>
      <trkpt lat="46.19858" lon="4.8494">
        <ele>211</ele>
        <time>2017-05-04T13:45:51.000Z</time>
      </trkpt>
      <trkpt lat="46.19859" lon="4.84941">
        <ele>211</ele>
        <time>2017-05-04T13:45:52.000Z</time>
      </trkpt>
      <trkpt lat="46.1986" lon="4.84941">
        <ele>211</ele>
        <time>2017-05-04T13:45:53.000Z</time>
      </trkpt>
      <trkpt lat="46.19861" lon="4.84942">
        <ele>211</ele>
        <time>2017-05-04T13:45:54.000Z</time>
      </trkpt>
      <trkpt lat="46.19862" lon="4.84942">
        <ele>211</ele>
        <time>2017-05-04T13:45:55.000Z</time>
      </trkpt>
      <trkpt lat="46.19863" lon="4.84942">
        <ele>212</ele>
        <time>2017-05-04T13:45:56.000Z</time>
      </trkpt>
      <trkpt lat="46.19864" lon="4.84943">
        <ele>212</ele>
        <time>2017-05-04T13:45:57.000Z</time>
      </trkpt>
      <trkpt lat="46.19866" lon="4.84944">
        <ele>212</ele>
        <time>2017-05-04T13:45:58.000Z</time>
      </trkpt>
      <trkpt lat="46.19867" lon="4.84944">
        <ele>212</ele>
        <time>2017-05-04T13:45:59.000Z</time>
      </trkpt>
      <trkpt lat="46.19868" lon="4.84945">
        <ele>212</ele>
        <time>2017-05-04T13:46:00.000Z</time>
      </trkpt>
      <trkpt lat="46.19869" lon="4.84946">
        <ele>212</ele>
        <time>2017-05-04T13:46:01.000Z</time>
      </trkpt>
      <trkpt lat="46.1987" lon="4.84946">
        <ele>212</ele>
        <time>2017-05-04T13:46:02.000Z</time>
      </trkpt>
      <trkpt lat="46.1987" lon="4.84947">
        <ele>212</ele>
        <time>2017-05-04T13:46:03.000Z</time>
      </trkpt>
      <trkpt lat="46.19871" lon="4.84948">
        <ele>212</ele>
        <time>2017-05-04T13:46:04.000Z</time>
      </trkpt>
      <trkpt lat="46.19872" lon="4.84949">
        <ele>212</ele>
        <time>2017-05-04T13:46:05.000Z</time>
      </trkpt>
      <trkpt lat="46.19873" lon="4.84951">
        <ele>212</ele>
        <time>2017-05-04T13:46:06.000Z</time>
      </trkpt>
      <trkpt lat="46.19874" lon="4.84952">
        <ele>213</ele>
        <time>2017-05-04T13:46:07.000Z</time>
      </trkpt>
      <trkpt lat="46.19874" lon="4.84953">
        <ele>212</ele>
        <time>2017-05-04T13:46:08.000Z</time>
      </trkpt>
      <trkpt lat="46.19875" lon="4.84954">
        <ele>212</ele>
        <time>2017-05-04T13:46:09.000Z</time>
      </trkpt>
      <trkpt lat="46.19875" lon="4.84955">
        <ele>213</ele>
        <time>2017-05-04T13:46:10.000Z</time>
      </trkpt>
      <trkpt lat="46.19876" lon="4.84956">
        <ele>213</ele>
        <time>2017-05-04T13:46:11.000Z</time>
      </trkpt>
      <trkpt lat="46.19876" lon="4.84957">
        <ele>213</ele>
        <time>2017-05-04T13:46:12.000Z</time>
      </trkpt>
      <trkpt lat="46.19876" lon="4.84958">
        <ele>213</ele>
        <time>2017-05-04T13:46:13.000Z</time>
      </trkpt>
      <trkpt lat="46.19877" lon="4.84959">
        <ele>213</ele>
        <time>2017-05-04T13:46:14.000Z</time>
      </trkpt>
      <trkpt lat="46.19877" lon="4.8496">
        <ele>213</ele>
        <time>2017-05-04T13:46:15.000Z</time>
      </trkpt>
      <trkpt lat="46.19877" lon="4.84962">
        <ele>213</ele>
        <time>2017-05-04T13:46:16.000Z</time>
      </trkpt>
      <trkpt lat="46.19878" lon="4.84963">
        <ele>213</ele>
        <time>2017-05-04T13:46:17.000Z</time>
      </trkpt>
      <trkpt lat="46.19878" lon="4.84965">
        <ele>213</ele>
        <time>2017-05-04T13:46:18.000Z</time>
      </trkpt>
      <trkpt lat="46.19878" lon="4.84966">
        <ele>213</ele>
        <time>2017-05-04T13:46:19.000Z</time>
      </trkpt>
      <trkpt lat="46.19879" lon="4.84967">
        <ele>213</ele>
        <time>2017-05-04T13:46:20.000Z</time>
      </trkpt>
      <trkpt lat="46.19879" lon="4.84969">
        <ele>213</ele>
        <time>2017-05-04T13:46:21.000Z</time>
      </trkpt>
      <trkpt lat="46.19879" lon="4.84971">
        <ele>214</ele>
        <time>2017-05-04T13:46:22.000Z</time>
      </trkpt>
      <trkpt lat="46.19879" lon="4.84972">
        <ele>214</ele>
        <time>2017-05-04T13:46:23.000Z</time>
      </trkpt>
      <trkpt lat="46.1988" lon="4.84974">
        <ele>214</ele>
        <time>2017-05-04T13:46:24.000Z</time>
      </trkpt>
      <trkpt lat="46.1988" lon="4.84975">
        <ele>214</ele>
        <time>2017-05-04T13:46:25.000Z</time>
      </trkpt>
      <trkpt lat="46.1988" lon="4.84977">
        <ele>214</ele>
        <time>2017-05-04T13:46:26.000Z</time>
      </trkpt>
      <trkpt lat="46.1988" lon="4.84978">
        <ele>214</ele>
        <time>2017-05-04T13:46:27.000Z</time>
      </trkpt>
      <trkpt lat="46.1988" lon="4.8498">
        <ele>214</ele>
        <time>2017-05-04T13:46:28.000Z</time>
      </trkpt>
      <trkpt lat="46.1988" lon="4.84981">
        <ele>214</ele>
        <time>2017-05-04T13:46:29.000Z</time>
      </trkpt>
      <trkpt lat="46.1988" lon="4.84983">
        <ele>214</ele>
        <time>2017-05-04T13:46:30.000Z</time>
      </trkpt>
      <trkpt lat="46.1988" lon="4.84985">
        <ele>214</ele>
        <time>2017-05-04T13:46:31.000Z</time>
      </trkpt>
      <trkpt lat="46.19879" lon="4.84986">
        <ele>214</ele>
        <time>2017-05-04T13:46:32.000Z</time>
      </trkpt>
      <trkpt lat="46.19879" lon="4.84988">
        <ele>214</ele>
        <time>2017-05-04T13:46:33.000Z</time>
      </trkpt>
      <trkpt lat="46.19879" lon="4.84989">
        <ele>213</ele>
        <time>2017-05-04T13:46:34.000Z</time>
      </trkpt>
      <trkpt lat="46.19879" lon="4.84991">
        <ele>213</ele>
        <time>2017-05-04T13:46:35.000Z</time>
      </trkpt>
      <trkpt lat="46.19879" lon="4.84992">
        <ele>213</ele>
        <time>2017-05-04T13:46:36.000Z</time>
      </trkpt>
      <trkpt lat="46.19879" lon="4.84994">
        <ele>213</ele>
        <time>2017-05-04T13:46:37.000Z</time>
      </trkpt>
      <trkpt lat="46.19879" lon="4.84996">
        <ele>213</ele>
        <time>2017-05-04T13:46:38.000Z</time>
      </trkpt>
      <trkpt lat="46.19879" lon="4.84997">
        <ele>213</ele>
        <time>2017-05-04T13:46:39.000Z</time>
      </trkpt>
      <trkpt lat="46.19879" lon="4.84999">
        <ele>213</ele>
        <time>2017-05-04T13:46:40.000Z</time>
      </trkpt>
      <trkpt lat="46.19879" lon="4.85">
        <ele>213</ele>
        <time>2017-05-04T13:46:41.000Z</time>
      </trkpt>
      <trkpt lat="46.19878" lon="4.85002">
        <ele>213</ele>
        <time>2017-05-04T13:46:42.000Z</time>
      </trkpt>
      <trkpt lat="46.19879" lon="4.85003">
        <ele>213</ele>
        <time>2017-05-04T13:46:43.000Z</time>
      </trkpt>
      <trkpt lat="46.19879" lon="4.85005">
        <ele>213</ele>
        <time>2017-05-04T13:46:44.000Z</time>
      </trkpt>
      <trkpt lat="46.19879" lon="4.85007">
        <ele>213</ele>
        <time>2017-05-04T13:46:45.000Z</time>
      </trkpt>
      <trkpt lat="46.19879" lon="4.85008">
        <ele>214</ele>
        <time>2017-05-04T13:46:46.000Z</time>
      </trkpt>
      <trkpt lat="46.19879" lon="4.8501">
        <ele>214</ele>
        <time>2017-05-04T13:46:47.000Z</time>
      </trkpt>
      <trkpt lat="46.19879" lon="4.85012">
        <ele>214</ele>
        <time>2017-05-04T13:46:48.000Z</time>
      </trkpt>
      <trkpt lat="46.19878" lon="4.85013">
        <ele>214</ele>
        <time>2017-05-04T13:46:49.000Z</time>
      </trkpt>
      <trkpt lat="46.19878" lon="4.85015">
        <ele>214</ele>
        <time>2017-05-04T13:46:50.000Z</time>
      </trkpt>
      <trkpt lat="46.19878" lon="4.85017">
        <ele>214</ele>
        <time>2017-05-04T13:46:51.000Z</time>
      </trkpt>
      <trkpt lat="46.19878" lon="4.85018">
        <ele>214</ele>
        <time>2017-05-04T13:46:52.000Z</time>
      </trkpt>
      <trkpt lat="46.19878" lon="4.8502">
        <ele>214</ele>
        <time>2017-05-04T13:46:53.000Z</time>
      </trkpt>
      <trkpt lat="46.19878" lon="4.85021">
        <ele>214</ele>
        <time>2017-05-04T13:46:54.000Z</time>
      </trkpt>
      <trkpt lat="46.19878" lon="4.85023">
        <ele>214</ele>
        <time>2017-05-04T13:46:55.000Z</time>
      </trkpt>
      <trkpt lat="46.19878" lon="4.85025">
        <ele>214</ele>
        <time>2017-05-04T13:46:56.000Z</time>
      </trkpt>
      <trkpt lat="46.19878" lon="4.85027">
        <ele>214</ele>
        <time>2017-05-04T13:46:57.000Z</time>
      </trkpt>
      <trkpt lat="46.19878" lon="4.85029">
        <ele>214</ele>
        <time>2017-05-04T13:46:58.000Z</time>
      </trkpt>
      <trkpt lat="46.19878" lon="4.8503">
        <ele>214</ele>
        <time>2017-05-04T13:46:59.000Z</time>
      </trkpt>
      <trkpt lat="46.19877" lon="4.85032">
        <ele>213</ele>
        <time>2017-05-04T13:47:00.000Z</time>
      </trkpt>
      <trkpt lat="46.19877" lon="4.85034">
        <ele>214</ele>
        <time>2017-05-04T13:47:01.000Z</time>
      </trkpt>
      <trkpt lat="46.19877" lon="4.85036">
        <ele>213</ele>
        <time>2017-05-04T13:47:02.000Z</time>
      </trkpt>
      <trkpt lat="46.19877" lon="4.85038">
        <ele>213</ele>
        <time>2017-05-04T13:47:03.000Z</time>
      </trkpt>
      <trkpt lat="46.19877" lon="4.8504">
        <ele>213</ele>
        <time>2017-05-04T13:47:04.000Z</time>
      </trkpt>
      <trkpt lat="46.19877" lon="4.85041">
        <ele>213</ele>
        <time>2017-05-04T13:47:05.000Z</time>
      </trkpt>
      <trkpt lat="46.19877" lon="4.85043">
        <ele>213</ele>
        <time>2017-05-04T13:47:06.000Z</time>
      </trkpt>
      <trkpt lat="46.19877" lon="4.85045">
        <ele>213</ele>
        <time>2017-05-04T13:47:07.000Z</time>
      </trkpt>
      <trkpt lat="46.19877" lon="4.85046">
        <ele>213</ele>
        <time>2017-05-04T13:47:08.000Z</time>
      </trkpt>
      <trkpt lat="46.19877" lon="4.85048">
        <ele>213</ele>
        <time>2017-05-04T13:47:09.000Z</time>
      </trkpt>
      <trkpt lat="46.19877" lon="4.8505">
        <ele>213</ele>
        <time>2017-05-04T13:47:10.000Z</time>
      </trkpt>
      <trkpt lat="46.19876" lon="4.85052">
        <ele>214</ele>
        <time>2017-05-04T13:47:11.000Z</time>
      </trkpt>
      <trkpt lat="46.19876" lon="4.85054">
        <ele>214</ele>
        <time>2017-05-04T13:47:12.000Z</time>
      </trkpt>
      <trkpt lat="46.19876" lon="4.85055">
        <ele>213</ele>
        <time>2017-05-04T13:47:13.000Z</time>
      </trkpt>
      <trkpt lat="46.19876" lon="4.85057">
        <ele>214</ele>
        <time>2017-05-04T13:47:14.000Z</time>
      </trkpt>
      <trkpt lat="46.19876" lon="4.85059">
        <ele>213</ele>
        <time>2017-05-04T13:47:15.000Z</time>
      </trkpt>
      <trkpt lat="46.19876" lon="4.85061">
        <ele>213</ele>
        <time>2017-05-04T13:47:16.000Z</time>
      </trkpt>
      <trkpt lat="46.19876" lon="4.85062">
        <ele>213</ele>
        <time>2017-05-04T13:47:17.000Z</time>
      </trkpt>
      <trkpt lat="46.19876" lon="4.85064">
        <ele>213</ele>
        <time>2017-05-04T13:47:18.000Z</time>
      </trkpt>
      <trkpt lat="46.19876" lon="4.85065">
        <ele>213</ele>
        <time>2017-05-04T13:47:19.000Z</time>
      </trkpt>
      <trkpt lat="46.19876" lon="4.85067">
        <ele>213</ele>
        <time>2017-05-04T13:47:20.000Z</time>
      </trkpt>
      <trkpt lat="46.19876" lon="4.85069">
        <ele>213</ele>
        <time>2017-05-04T13:47:21.000Z</time>
      </trkpt>
      <trkpt lat="46.19876" lon="4.85071">
        <ele>213</ele>
        <time>2017-05-04T13:47:22.000Z</time>
      </trkpt>
      <trkpt lat="46.19876" lon="4.85073">
        <ele>213</ele>
        <time>2017-05-04T13:47:23.000Z</time>
      </trkpt>
      <trkpt lat="46.19876" lon="4.85075">
        <ele>213</ele>
        <time>2017-05-04T13:47:24.000Z</time>
      </trkpt>
      <trkpt lat="46.19876" lon="4.85076">
        <ele>213</ele>
        <time>2017-05-04T13:47:25.000Z</time>
      </trkpt>
      <trkpt lat="46.19876" lon="4.85078">
        <ele>213</ele>
        <time>2017-05-04T13:47:26.000Z</time>
      </trkpt>
      <trkpt lat="46.19876" lon="4.85079">
        <ele>213</ele>
        <time>2017-05-04T13:47:27.000Z</time>
      </trkpt>
      <trkpt lat="46.19875" lon="4.85081">
        <ele>214</ele>
        <time>2017-05-04T13:47:28.000Z</time>
      </trkpt>
      <trkpt lat="46.19875" lon="4.85083">
        <ele>213</ele>
        <time>2017-05-04T13:47:29.000Z</time>
      </trkpt>
      <trkpt lat="46.19875" lon="4.85084">
        <ele>213</ele>
        <time>2017-05-04T13:47:30.000Z</time>
      </trkpt>
      <trkpt lat="46.19875" lon="4.85086">
        <ele>213</ele>
        <time>2017-05-04T13:47:31.000Z</time>
      </trkpt>
      <trkpt lat="46.19875" lon="4.85088">
        <ele>214</ele>
        <time>2017-05-04T13:47:32.000Z</time>
      </trkpt>
      <trkpt lat="46.19875" lon="4.85089">
        <ele>214</ele>
        <time>2017-05-04T13:47:33.000Z</time>
      </trkpt>
      <trkpt lat="46.19875" lon="4.85091">
        <ele>214</ele>
        <time>2017-05-04T13:47:34.000Z</time>
      </trkpt>
      <trkpt lat="46.19875" lon="4.85092">
        <ele>213</ele>
        <time>2017-05-04T13:47:35.000Z</time>
      </trkpt>
      <trkpt lat="46.19875" lon="4.85093">
        <ele>213</ele>
        <time>2017-05-04T13:47:36.000Z</time>
      </trkpt>
      <trkpt lat="46.19875" lon="4.85095">
        <ele>213</ele>
        <time>2017-05-04T13:47:37.000Z</time>
      </trkpt>
      <trkpt lat="46.19875" lon="4.85096">
        <ele>213</ele>
        <time>2017-05-04T13:47:38.000Z</time>
      </trkpt>
      <trkpt lat="46.19875" lon="4.85098">
        <ele>214</ele>
        <time>2017-05-04T13:47:39.000Z</time>
      </trkpt>
      <trkpt lat="46.19875" lon="4.85099">
        <ele>213</ele>
        <time>2017-05-04T13:47:40.000Z</time>
      </trkpt>
      <trkpt lat="46.19875" lon="4.85101">
        <ele>213</ele>
        <time>2017-05-04T13:47:41.000Z</time>
      </trkpt>
      <trkpt lat="46.19875" lon="4.85102">
        <ele>213</ele>
        <time>2017-05-04T13:47:42.000Z</time>
      </trkpt>
      <trkpt lat="46.19875" lon="4.85103">
        <ele>213</ele>
        <time>2017-05-04T13:47:43.000Z</time>
      </trkpt>
      <trkpt lat="46.19875" lon="4.85104">
        <ele>213</ele>
        <time>2017-05-04T13:47:44.000Z</time>
      </trkpt>
      <trkpt lat="46.19875" lon="4.85105">
        <ele>213</ele>
        <time>2017-05-04T13:47:45.000Z</time>
      </trkpt>
      <trkpt lat="46.19875" lon="4.85106">
        <ele>213</ele>
        <time>2017-05-04T13:47:46.000Z</time>
      </trkpt>
      <trkpt lat="46.19876" lon="4.85108">
        <ele>213</ele>
        <time>2017-05-04T13:47:47.000Z</time>
      </trkpt>
      <trkpt lat="46.19876" lon="4.85109">
        <ele>213</ele>
        <time>2017-05-04T13:47:48.000Z</time>
      </trkpt>
      <trkpt lat="46.19877" lon="4.8511">
        <ele>213</ele>
        <time>2017-05-04T13:47:49.000Z</time>
      </trkpt>
      <trkpt lat="46.19877" lon="4.85111">
        <ele>213</ele>
        <time>2017-05-04T13:47:50.000Z</time>
      </trkpt>
      <trkpt lat="46.19878" lon="4.85112">
        <ele>213</ele>
        <time>2017-05-04T13:47:51.000Z</time>
      </trkpt>
      <trkpt lat="46.19878" lon="4.85113">
        <ele>213</ele>
        <time>2017-05-04T13:47:52.000Z</time>
      </trkpt>
      <trkpt lat="46.19879" lon="4.85114">
        <ele>213</ele>
        <time>2017-05-04T13:47:53.000Z</time>
      </trkpt>
      <trkpt lat="46.19879" lon="4.85115">
        <ele>214</ele>
        <time>2017-05-04T13:47:54.000Z</time>
      </trkpt>
      <trkpt lat="46.19879" lon="4.85115">
        <ele>214</ele>
        <time>2017-05-04T13:47:55.000Z</time>
      </trkpt>
      <trkpt lat="46.19879" lon="4.85116">
        <ele>213</ele>
        <time>2017-05-04T13:47:56.000Z</time>
      </trkpt>
      <trkpt lat="46.1988" lon="4.85116">
        <ele>213</ele>
        <time>2017-05-04T13:47:57.000Z</time>
      </trkpt>
      <trkpt lat="46.1988" lon="4.85117">
        <ele>213</ele>
        <time>2017-05-04T13:47:58.000Z</time>
      </trkpt>
      <trkpt lat="46.19881" lon="4.85117">
        <ele>213</ele>
        <time>2017-05-04T13:47:59.000Z</time>
      </trkpt>
      <trkpt lat="46.19882" lon="4.85118">
        <ele>213</ele>
        <time>2017-05-04T13:48:00.000Z</time>
      </trkpt>
      <trkpt lat="46.19883" lon="4.85119">
        <ele>213</ele>
        <time>2017-05-04T13:48:01.000Z</time>
      </trkpt>
      <trkpt lat="46.19883" lon="4.85119">
        <ele>213</ele>
        <time>2017-05-04T13:48:02.000Z</time>
      </trkpt>
      <trkpt lat="46.19884" lon="4.8512">
        <ele>213</ele>
        <time>2017-05-04T13:48:03.000Z</time>
      </trkpt>
      <trkpt lat="46.19885" lon="4.85121">
        <ele>213</ele>
        <time>2017-05-04T13:48:04.000Z</time>
      </trkpt>
      <trkpt lat="46.19886" lon="4.85121">
        <ele>213</ele>
        <time>2017-05-04T13:48:05.000Z</time>
      </trkpt>
      <trkpt lat="46.19888" lon="4.85122">
        <ele>213</ele>
        <time>2017-05-04T13:48:06.000Z</time>
      </trkpt>
      <trkpt lat="46.19889" lon="4.85122">
        <ele>213</ele>
        <time>2017-05-04T13:48:07.000Z</time>
      </trkpt>
      <trkpt lat="46.1989" lon="4.85122">
        <ele>213</ele>
        <time>2017-05-04T13:48:08.000Z</time>
      </trkpt>
      <trkpt lat="46.19891" lon="4.85122">
        <ele>213</ele>
        <time>2017-05-04T13:48:09.000Z</time>
      </trkpt>
      <trkpt lat="46.19892" lon="4.85122">
        <ele>213</ele>
        <time>2017-05-04T13:48:10.000Z</time>
      </trkpt>
      <trkpt lat="46.19893" lon="4.85122">
        <ele>213</ele>
        <time>2017-05-04T13:48:11.000Z</time>
      </trkpt>
      <trkpt lat="46.19895" lon="4.85122">
        <ele>213</ele>
        <time>2017-05-04T13:48:12.000Z</time>
      </trkpt>
      <trkpt lat="46.19896" lon="4.85122">
        <ele>213</ele>
        <time>2017-05-04T13:48:13.000Z</time>
      </trkpt>
      <trkpt lat="46.19897" lon="4.85122">
        <ele>213</ele>
        <time>2017-05-04T13:48:14.000Z</time>
      </trkpt>
      <trkpt lat="46.19899" lon="4.85123">
        <ele>213</ele>
        <time>2017-05-04T13:48:15.000Z</time>
      </trkpt>
      <trkpt lat="46.199" lon="4.85123">
        <ele>213</ele>
        <time>2017-05-04T13:48:16.000Z</time>
      </trkpt>
      <trkpt lat="46.19901" lon="4.85123">
        <ele>213</ele>
        <time>2017-05-04T13:48:17.000Z</time>
      </trkpt>
      <trkpt lat="46.19902" lon="4.85123">
        <ele>213</ele>
        <time>2017-05-04T13:48:18.000Z</time>
      </trkpt>
      <trkpt lat="46.19903" lon="4.85123">
        <ele>213</ele>
        <time>2017-05-04T13:48:19.000Z</time>
      </trkpt>
      <trkpt lat="46.19904" lon="4.85123">
        <ele>213</ele>
        <time>2017-05-04T13:48:20.000Z</time>
      </trkpt>
      <trkpt lat="46.19905" lon="4.85123">
        <ele>213</ele>
        <time>2017-05-04T13:48:21.000Z</time>
      </trkpt>
      <trkpt lat="46.19905" lon="4.85123">
        <ele>212</ele>
        <time>2017-05-04T13:48:22.000Z</time>
      </trkpt>
      <trkpt lat="46.19906" lon="4.85123">
        <ele>212</ele>
        <time>2017-05-04T13:48:23.000Z</time>
      </trkpt>
      <trkpt lat="46.19907" lon="4.85122">
        <ele>212</ele>
        <time>2017-05-04T13:48:24.000Z</time>
      </trkpt>
      <trkpt lat="46.19908" lon="4.85122">
        <ele>212</ele>
        <time>2017-05-04T13:48:25.000Z</time>
      </trkpt>
      <trkpt lat="46.19909" lon="4.85122">
        <ele>212</ele>
        <time>2017-05-04T13:48:26.000Z</time>
      </trkpt>
      <trkpt lat="46.1991" lon="4.85122">
        <ele>212</ele>
        <time>2017-05-04T13:48:27.000Z</time>
      </trkpt>
      <trkpt lat="46.19911" lon="4.85122">
        <ele>212</ele>
        <time>2017-05-04T13:48:28.000Z</time>
      </trkpt>
      <trkpt lat="46.19912" lon="4.85122">
        <ele>212</ele>
        <time>2017-05-04T13:48:29.000Z</time>
      </trkpt>
      <trkpt lat="46.19914" lon="4.85122">
        <ele>212</ele>
        <time>2017-05-04T13:48:30.000Z</time>
      </trkpt>
      <trkpt lat="46.19915" lon="4.85122">
        <ele>212</ele>
        <time>2017-05-04T13:48:31.000Z</time>
      </trkpt>
      <trkpt lat="46.19916" lon="4.85122">
        <ele>212</ele>
        <time>2017-05-04T13:48:32.000Z</time>
      </trkpt>
      <trkpt lat="46.19917" lon="4.85122">
        <ele>212</ele>
        <time>2017-05-04T13:48:33.000Z</time>
      </trkpt>
      <trkpt lat="46.19918" lon="4.85122">
        <ele>212</ele>
        <time>2017-05-04T13:48:34.000Z</time>
      </trkpt>
      <trkpt lat="46.19919" lon="4.85122">
        <ele>212</ele>
        <time>2017-05-04T13:48:35.000Z</time>
      </trkpt>
      <trkpt lat="46.1992" lon="4.85122">
        <ele>212</ele>
        <time>2017-05-04T13:48:36.000Z</time>
      </trkpt>
      <trkpt lat="46.19921" lon="4.85122">
        <ele>212</ele>
        <time>2017-05-04T13:48:37.000Z</time>
      </trkpt>
      <trkpt lat="46.19922" lon="4.85122">
        <ele>212</ele>
        <time>2017-05-04T13:48:38.000Z</time>
      </trkpt>
      <trkpt lat="46.19923" lon="4.85122">
        <ele>212</ele>
        <time>2017-05-04T13:48:39.000Z</time>
      </trkpt>
      <trkpt lat="46.19924" lon="4.85122">
        <ele>212</ele>
        <time>2017-05-04T13:48:40.000Z</time>
      </trkpt>
      <trkpt lat="46.19925" lon="4.85122">
        <ele>212</ele>
        <time>2017-05-04T13:48:41.000Z</time>
      </trkpt>
      <trkpt lat="46.19926" lon="4.85122">
        <ele>212</ele>
        <time>2017-05-04T13:48:42.000Z</time>
      </trkpt>
      <trkpt lat="46.19927" lon="4.85122">
        <ele>212</ele>
        <time>2017-05-04T13:48:43.000Z</time>
      </trkpt>
      <trkpt lat="46.19928" lon="4.85122">
        <ele>212</ele>
        <time>2017-05-04T13:48:44.000Z</time>
      </trkpt>
      <trkpt lat="46.19929" lon="4.85122">
        <ele>211</ele>
        <time>2017-05-04T13:48:45.000Z</time>
      </trkpt>
      <trkpt lat="46.19931" lon="4.85122">
        <ele>212</ele>
        <time>2017-05-04T13:48:46.000Z</time>
      </trkpt>
      <trkpt lat="46.19932" lon="4.85122">
        <ele>212</ele>
        <time>2017-05-04T13:48:47.000Z</time>
      </trkpt>
      <trkpt lat="46.19933" lon="4.85122">
        <ele>212</ele>
        <time>2017-05-04T13:48:48.000Z</time>
      </trkpt>
      <trkpt lat="46.19934" lon="4.85122">
        <ele>211</ele>
        <time>2017-05-04T13:48:49.000Z</time>
      </trkpt>
      <trkpt lat="46.19935" lon="4.85122">
        <ele>211</ele>
        <time>2017-05-04T13:48:50.000Z</time>
      </trkpt>
      <trkpt lat="46.19936" lon="4.85122">
        <ele>211</ele>
        <time>2017-05-04T13:48:51.000Z</time>
      </trkpt>
      <trkpt lat="46.19937" lon="4.85122">
        <ele>211</ele>
        <time>2017-05-04T13:48:52.000Z</time>
      </trkpt>
      <trkpt lat="46.19938" lon="4.85122">
        <ele>211</ele>
        <time>2017-05-04T13:48:53.000Z</time>
      </trkpt>
      <trkpt lat="46.1994" lon="4.85122">
        <ele>211</ele>
        <time>2017-05-04T13:48:54.000Z</time>
      </trkpt>
      <trkpt lat="46.19941" lon="4.85122">
        <ele>211</ele>
        <time>2017-05-04T13:48:55.000Z</time>
      </trkpt>
      <trkpt lat="46.19942" lon="4.85122">
        <ele>211</ele>
        <time>2017-05-04T13:48:56.000Z</time>
      </trkpt>
      <trkpt lat="46.19943" lon="4.85122">
        <ele>211</ele>
        <time>2017-05-04T13:48:57.000Z</time>
      </trkpt>
      <trkpt lat="46.19944" lon="4.85122">
        <ele>211</ele>
        <time>2017-05-04T13:48:58.000Z</time>
      </trkpt>
      <trkpt lat="46.19945" lon="4.85122">
        <ele>211</ele>
        <time>2017-05-04T13:48:59.000Z</time>
      </trkpt>
      <trkpt lat="46.19947" lon="4.85122">
        <ele>211</ele>
        <time>2017-05-04T13:49:00.000Z</time>
      </trkpt>
      <trkpt lat="46.19948" lon="4.85122">
        <ele>211</ele>
        <time>2017-05-04T13:49:01.000Z</time>
      </trkpt>
      <trkpt lat="46.19949" lon="4.85122">
        <ele>211</ele>
        <time>2017-05-04T13:49:02.000Z</time>
      </trkpt>
      <trkpt lat="46.1995" lon="4.85122">
        <ele>211</ele>
        <time>2017-05-04T13:49:03.000Z</time>
      </trkpt>
      <trkpt lat="46.19951" lon="4.85122">
        <ele>211</ele>
        <time>2017-05-04T13:49:04.000Z</time>
      </trkpt>
      <trkpt lat="46.19952" lon="4.85122">
        <ele>211</ele>
        <time>2017-05-04T13:49:05.000Z</time>
      </trkpt>
      <trkpt lat="46.19953" lon="4.85121">
        <ele>211</ele>
        <time>2017-05-04T13:49:06.000Z</time>
      </trkpt>
      <trkpt lat="46.19954" lon="4.85121">
        <ele>211</ele>
        <time>2017-05-04T13:49:07.000Z</time>
      </trkpt>
      <trkpt lat="46.19955" lon="4.85121">
        <ele>211</ele>
        <time>2017-05-04T13:49:08.000Z</time>
      </trkpt>
      <trkpt lat="46.19956" lon="4.85121">
        <ele>211</ele>
        <time>2017-05-04T13:49:09.000Z</time>
      </trkpt>
      <trkpt lat="46.19957" lon="4.85121">
        <ele>211</ele>
        <time>2017-05-04T13:49:10.000Z</time>
      </trkpt>
      <trkpt lat="46.19958" lon="4.85121">
        <ele>211</ele>
        <time>2017-05-04T13:49:11.000Z</time>
      </trkpt>
      <trkpt lat="46.1996" lon="4.85121">
        <ele>211</ele>
        <time>2017-05-04T13:49:12.000Z</time>
      </trkpt>
      <trkpt lat="46.19961" lon="4.85121">
        <ele>211</ele>
        <time>2017-05-04T13:49:13.000Z</time>
      </trkpt>
      <trkpt lat="46.19962" lon="4.85121">
        <ele>211</ele>
        <time>2017-05-04T13:49:14.000Z</time>
      </trkpt>
      <trkpt lat="46.19963" lon="4.85121">
        <ele>211</ele>
        <time>2017-05-04T13:49:15.000Z</time>
      </trkpt>
      <trkpt lat="46.19964" lon="4.85121">
        <ele>210</ele>
        <time>2017-05-04T13:49:16.000Z</time>
      </trkpt>
      <trkpt lat="46.19965" lon="4.85121">
        <ele>210</ele>
        <time>2017-05-04T13:49:17.000Z</time>
      </trkpt>
      <trkpt lat="46.19966" lon="4.85122">
        <ele>210</ele>
        <time>2017-05-04T13:49:18.000Z</time>
      </trkpt>
      <trkpt lat="46.19967" lon="4.85122">
        <ele>211</ele>
        <time>2017-05-04T13:49:19.000Z</time>
      </trkpt>
      <trkpt lat="46.19969" lon="4.85122">
        <ele>211</ele>
        <time>2017-05-04T13:49:20.000Z</time>
      </trkpt>
      <trkpt lat="46.1997" lon="4.85122">
        <ele>211</ele>
        <time>2017-05-04T13:49:21.000Z</time>
      </trkpt>
      <trkpt lat="46.19971" lon="4.85122">
        <ele>211</ele>
        <time>2017-05-04T13:49:22.000Z</time>
      </trkpt>
      <trkpt lat="46.19972" lon="4.85122">
        <ele>211</ele>
        <time>2017-05-04T13:49:23.000Z</time>
      </trkpt>
      <trkpt lat="46.19973" lon="4.85122">
        <ele>210</ele>
        <time>2017-05-04T13:49:24.000Z</time>
      </trkpt>
      <trkpt lat="46.19974" lon="4.85122">
        <ele>210</ele>
        <time>2017-05-04T13:49:25.000Z</time>
      </trkpt>
      <trkpt lat="46.19975" lon="4.85122">
        <ele>210</ele>
        <time>2017-05-04T13:49:26.000Z</time>
      </trkpt>
      <trkpt lat="46.19976" lon="4.85122">
        <ele>210</ele>
        <time>2017-05-04T13:49:27.000Z</time>
      </trkpt>
      <trkpt lat="46.19977" lon="4.85122">
        <ele>210</ele>
        <time>2017-05-04T13:49:28.000Z</time>
      </trkpt>
      <trkpt lat="46.19978" lon="4.85123">
        <ele>210</ele>
        <time>2017-05-04T13:49:29.000Z</time>
      </trkpt>
      <trkpt lat="46.19979" lon="4.85123">
        <ele>210</ele>
        <time>2017-05-04T13:49:30.000Z</time>
      </trkpt>
      <trkpt lat="46.1998" lon="4.85123">
        <ele>210</ele>
        <time>2017-05-04T13:49:31.000Z</time>
      </trkpt>
      <trkpt lat="46.19981" lon="4.85123">
        <ele>210</ele>
        <time>2017-05-04T13:49:32.000Z</time>
      </trkpt>
      <trkpt lat="46.19982" lon="4.85124">
        <ele>210</ele>
        <time>2017-05-04T13:49:33.000Z</time>
      </trkpt>
      <trkpt lat="46.19983" lon="4.85124">
        <ele>210</ele>
        <time>2017-05-04T13:49:34.000Z</time>
      </trkpt>
      <trkpt lat="46.19984" lon="4.85124">
        <ele>210</ele>
        <time>2017-05-04T13:49:35.000Z</time>
      </trkpt>
      <trkpt lat="46.19985" lon="4.85124">
        <ele>210</ele>
        <time>2017-05-04T13:49:36.000Z</time>
      </trkpt>
      <trkpt lat="46.19987" lon="4.85125">
        <ele>210</ele>
        <time>2017-05-04T13:49:37.000Z</time>
      </trkpt>
      <trkpt lat="46.19988" lon="4.85125">
        <ele>210</ele>
        <time>2017-05-04T13:49:38.000Z</time>
      </trkpt>
      <trkpt lat="46.19989" lon="4.85125">
        <ele>210</ele>
        <time>2017-05-04T13:49:39.000Z</time>
      </trkpt>
      <trkpt lat="46.1999" lon="4.85126">
        <ele>210</ele>
        <time>2017-05-04T13:49:40.000Z</time>
      </trkpt>
      <trkpt lat="46.19991" lon="4.85126">
        <ele>210</ele>
        <time>2017-05-04T13:49:41.000Z</time>
      </trkpt>
      <trkpt lat="46.19992" lon="4.85126">
        <ele>210</ele>
        <time>2017-05-04T13:49:42.000Z</time>
      </trkpt>
      <trkpt lat="46.19992" lon="4.85127">
        <ele>211</ele>
        <time>2017-05-04T13:49:43.000Z</time>
      </trkpt>
      <trkpt lat="46.19993" lon="4.85127">
        <ele>211</ele>
        <time>2017-05-04T13:49:44.000Z</time>
      </trkpt>
      <trkpt lat="46.19994" lon="4.85127">
        <ele>210</ele>
        <time>2017-05-04T13:49:45.000Z</time>
      </trkpt>
      <trkpt lat="46.19995" lon="4.85128">
        <ele>210</ele>
        <time>2017-05-04T13:49:46.000Z</time>
      </trkpt>
      <trkpt lat="46.19997" lon="4.85128">
        <ele>210</ele>
        <time>2017-05-04T13:49:47.000Z</time>
      </trkpt>
      <trkpt lat="46.19998" lon="4.85128">
        <ele>210</ele>
        <time>2017-05-04T13:49:48.000Z</time>
      </trkpt>
      <trkpt lat="46.19999" lon="4.85129">
        <ele>210</ele>
        <time>2017-05-04T13:49:49.000Z</time>
      </trkpt>
      <trkpt lat="46.2" lon="4.85129">
        <ele>210</ele>
        <time>2017-05-04T13:49:50.000Z</time>
      </trkpt>
      <trkpt lat="46.20001" lon="4.85129">
        <ele>210</ele>
        <time>2017-05-04T13:49:51.000Z</time>
      </trkpt>
      <trkpt lat="46.20003" lon="4.8513">
        <ele>210</ele>
        <time>2017-05-04T13:49:52.000Z</time>
      </trkpt>
      <trkpt lat="46.20004" lon="4.8513">
        <ele>210</ele>
        <time>2017-05-04T13:49:53.000Z</time>
      </trkpt>
      <trkpt lat="46.20005" lon="4.85131">
        <ele>210</ele>
        <time>2017-05-04T13:49:54.000Z</time>
      </trkpt>
      <trkpt lat="46.20006" lon="4.85131">
        <ele>210</ele>
        <time>2017-05-04T13:49:55.000Z</time>
      </trkpt>
      <trkpt lat="46.20007" lon="4.85131">
        <ele>211</ele>
        <time>2017-05-04T13:49:56.000Z</time>
      </trkpt>
      <trkpt lat="46.20008" lon="4.85132">
        <ele>211</ele>
        <time>2017-05-04T13:49:57.000Z</time>
      </trkpt>
      <trkpt lat="46.2001" lon="4.85132">
        <ele>211</ele>
        <time>2017-05-04T13:49:58.000Z</time>
      </trkpt>
      <trkpt lat="46.20011" lon="4.85132">
        <ele>211</ele>
        <time>2017-05-04T13:49:59.000Z</time>
      </trkpt>
      <trkpt lat="46.20012" lon="4.85132">
        <ele>211</ele>
        <time>2017-05-04T13:50:00.000Z</time>
      </trkpt>
      <trkpt lat="46.20013" lon="4.85132">
        <ele>211</ele>
        <time>2017-05-04T13:50:01.000Z</time>
      </trkpt>
      <trkpt lat="46.20014" lon="4.85133">
        <ele>210</ele>
        <time>2017-05-04T13:50:02.000Z</time>
      </trkpt>
      <trkpt lat="46.20015" lon="4.85133">
        <ele>210</ele>
        <time>2017-05-04T13:50:03.000Z</time>
      </trkpt>
      <trkpt lat="46.20016" lon="4.85133">
        <ele>211</ele>
        <time>2017-05-04T13:50:04.000Z</time>
      </trkpt>
      <trkpt lat="46.20017" lon="4.85133">
        <ele>211</ele>
        <time>2017-05-04T13:50:05.000Z</time>
      </trkpt>
      <trkpt lat="46.20019" lon="4.85134">
        <ele>211</ele>
        <time>2017-05-04T13:50:06.000Z</time>
      </trkpt>
      <trkpt lat="46.2002" lon="4.85134">
        <ele>211</ele>
        <time>2017-05-04T13:50:07.000Z</time>
      </trkpt>
      <trkpt lat="46.20021" lon="4.85134">
        <ele>211</ele>
        <time>2017-05-04T13:50:08.000Z</time>
      </trkpt>
      <trkpt lat="46.20022" lon="4.85134">
        <ele>211</ele>
        <time>2017-05-04T13:50:09.000Z</time>
      </trkpt>
      <trkpt lat="46.20023" lon="4.85134">
        <ele>210</ele>
        <time>2017-05-04T13:50:10.000Z</time>
      </trkpt>
      <trkpt lat="46.20024" lon="4.85134">
        <ele>210</ele>
        <time>2017-05-04T13:50:11.000Z</time>
      </trkpt>
      <trkpt lat="46.20025" lon="4.85134">
        <ele>210</ele>
        <time>2017-05-04T13:50:12.000Z</time>
      </trkpt>
      <trkpt lat="46.20026" lon="4.85134">
        <ele>211</ele>
        <time>2017-05-04T13:50:13.000Z</time>
      </trkpt>
      <trkpt lat="46.20027" lon="4.85134">
        <ele>211</ele>
        <time>2017-05-04T13:50:14.000Z</time>
      </trkpt>
      <trkpt lat="46.20028" lon="4.85134">
        <ele>211</ele>
        <time>2017-05-04T13:50:15.000Z</time>
      </trkpt>
      <trkpt lat="46.20029" lon="4.85134">
        <ele>211</ele>
        <time>2017-05-04T13:50:16.000Z</time>
      </trkpt>
      <trkpt lat="46.2003" lon="4.85134">
        <ele>211</ele>
        <time>2017-05-04T13:50:17.000Z</time>
      </trkpt>
      <trkpt lat="46.20032" lon="4.85134">
        <ele>211</ele>
        <time>2017-05-04T13:50:18.000Z</time>
      </trkpt>
      <trkpt lat="46.20033" lon="4.85134">
        <ele>211</ele>
        <time>2017-05-04T13:50:19.000Z</time>
      </trkpt>
      <trkpt lat="46.20034" lon="4.85134">
        <ele>211</ele>
        <time>2017-05-04T13:50:20.000Z</time>
      </trkpt>
      <trkpt lat="46.20035" lon="4.85134">
        <ele>211</ele>
        <time>2017-05-04T13:50:21.000Z</time>
      </trkpt>
      <trkpt lat="46.20036" lon="4.85134">
        <ele>211</ele>
        <time>2017-05-04T13:50:22.000Z</time>
      </trkpt>
      <trkpt lat="46.20037" lon="4.85134">
        <ele>211</ele>
        <time>2017-05-04T13:50:23.000Z</time>
      </trkpt>
      <trkpt lat="46.20038" lon="4.85134">
        <ele>211</ele>
        <time>2017-05-04T13:50:24.000Z</time>
      </trkpt>
      <trkpt lat="46.20039" lon="4.85134">
        <ele>211</ele>
        <time>2017-05-04T13:50:25.000Z</time>
      </trkpt>
      <trkpt lat="46.2004" lon="4.85134">
        <ele>211</ele>
        <time>2017-05-04T13:50:26.000Z</time>
      </trkpt>
      <trkpt lat="46.20041" lon="4.85134">
        <ele>211</ele>
        <time>2017-05-04T13:50:27.000Z</time>
      </trkpt>
      <trkpt lat="46.20042" lon="4.85134">
        <ele>211</ele>
        <time>2017-05-04T13:50:28.000Z</time>
      </trkpt>
      <trkpt lat="46.20043" lon="4.85134">
        <ele>211</ele>
        <time>2017-05-04T13:50:29.000Z</time>
      </trkpt>
      <trkpt lat="46.20044" lon="4.85134">
        <ele>210</ele>
        <time>2017-05-04T13:50:30.000Z</time>
      </trkpt>
      <trkpt lat="46.20045" lon="4.85133">
        <ele>210</ele>
        <time>2017-05-04T13:50:31.000Z</time>
      </trkpt>
      <trkpt lat="46.20046" lon="4.85133">
        <ele>210</ele>
        <time>2017-05-04T13:50:32.000Z</time>
      </trkpt>
      <trkpt lat="46.20046" lon="4.85133">
        <ele>210</ele>
        <time>2017-05-04T13:50:33.000Z</time>
      </trkpt>
      <trkpt lat="46.20047" lon="4.85133">
        <ele>210</ele>
        <time>2017-05-04T13:50:34.000Z</time>
      </trkpt>
      <trkpt lat="46.20048" lon="4.85133">
        <ele>210</ele>
        <time>2017-05-04T13:50:35.000Z</time>
      </trkpt>
      <trkpt lat="46.20049" lon="4.85133">
        <ele>210</ele>
        <time>2017-05-04T13:50:36.000Z</time>
      </trkpt>
      <trkpt lat="46.2005" lon="4.85132">
        <ele>210</ele>
        <time>2017-05-04T13:50:37.000Z</time>
      </trkpt>
      <trkpt lat="46.20051" lon="4.85132">
        <ele>210</ele>
        <time>2017-05-04T13:50:38.000Z</time>
      </trkpt>
      <trkpt lat="46.20052" lon="4.85132">
        <ele>210</ele>
        <time>2017-05-04T13:50:39.000Z</time>
      </trkpt>
      <trkpt lat="46.20053" lon="4.85132">
        <ele>210</ele>
        <time>2017-05-04T13:50:40.000Z</time>
      </trkpt>
      <trkpt lat="46.20054" lon="4.85132">
        <ele>209</ele>
        <time>2017-05-04T13:50:41.000Z</time>
      </trkpt>
      <trkpt lat="46.20055" lon="4.85132">
        <ele>209</ele>
        <time>2017-05-04T13:50:42.000Z</time>
      </trkpt>
      <trkpt lat="46.20056" lon="4.85132">
        <ele>209</ele>
        <time>2017-05-04T13:50:43.000Z</time>
      </trkpt>
      <trkpt lat="46.20056" lon="4.85132">
        <ele>209</ele>
        <time>2017-05-04T13:50:44.000Z</time>
      </trkpt>
      <trkpt lat="46.20057" lon="4.85132">
        <ele>208</ele>
        <time>2017-05-04T13:50:45.000Z</time>
      </trkpt>
      <trkpt lat="46.20058" lon="4.85132">
        <ele>208</ele>
        <time>2017-05-04T13:50:46.000Z</time>
      </trkpt>
      <trkpt lat="46.20058" lon="4.85132">
        <ele>207</ele>
        <time>2017-05-04T13:50:47.000Z</time>
      </trkpt>
      <trkpt lat="46.20059" lon="4.85132">
        <ele>207</ele>
        <time>2017-05-04T13:50:48.000Z</time>
      </trkpt>
      <trkpt lat="46.2006" lon="4.85132">
        <ele>207</ele>
        <time>2017-05-04T13:50:49.000Z</time>
      </trkpt>
      <trkpt lat="46.20061" lon="4.85132">
        <ele>206</ele>
        <time>2017-05-04T13:50:50.000Z</time>
      </trkpt>
      <trkpt lat="46.20062" lon="4.85132">
        <ele>206</ele>
        <time>2017-05-04T13:50:51.000Z</time>
      </trkpt>
      <trkpt lat="46.20063" lon="4.85133">
        <ele>206</ele>
        <time>2017-05-04T13:50:52.000Z</time>
      </trkpt>
      <trkpt lat="46.20064" lon="4.85133">
        <ele>206</ele>
        <time>2017-05-04T13:50:53.000Z</time>
      </trkpt>
      <trkpt lat="46.20066" lon="4.85133">
        <ele>206</ele>
        <time>2017-05-04T13:50:54.000Z</time>
      </trkpt>
      <trkpt lat="46.20067" lon="4.85133">
        <ele>205</ele>
        <time>2017-05-04T13:50:55.000Z</time>
      </trkpt>
      <trkpt lat="46.20068" lon="4.85133">
        <ele>205</ele>
        <time>2017-05-04T13:50:56.000Z</time>
      </trkpt>
      <trkpt lat="46.20069" lon="4.85133">
        <ele>205</ele>
        <time>2017-05-04T13:50:57.000Z</time>
      </trkpt>
      <trkpt lat="46.2007" lon="4.85133">
        <ele>206</ele>
        <time>2017-05-04T13:50:58.000Z</time>
      </trkpt>
      <trkpt lat="46.20071" lon="4.85133">
        <ele>206</ele>
        <time>2017-05-04T13:50:59.000Z</time>
      </trkpt>
      <trkpt lat="46.20072" lon="4.85133">
        <ele>206</ele>
        <time>2017-05-04T13:51:00.000Z</time>
      </trkpt>
      <trkpt lat="46.20073" lon="4.85133">
        <ele>206</ele>
        <time>2017-05-04T13:51:01.000Z</time>
      </trkpt>
      <trkpt lat="46.20075" lon="4.85134">
        <ele>206</ele>
        <time>2017-05-04T13:51:02.000Z</time>
      </trkpt>
      <trkpt lat="46.20076" lon="4.85134">
        <ele>206</ele>
        <time>2017-05-04T13:51:03.000Z</time>
      </trkpt>
      <trkpt lat="46.20077" lon="4.85134">
        <ele>206</ele>
        <time>2017-05-04T13:51:04.000Z</time>
      </trkpt>
      <trkpt lat="46.20079" lon="4.85134">
        <ele>207</ele>
        <time>2017-05-04T13:51:05.000Z</time>
      </trkpt>
      <trkpt lat="46.2008" lon="4.85134">
        <ele>207</ele>
        <time>2017-05-04T13:51:06.000Z</time>
      </trkpt>
      <trkpt lat="46.20081" lon="4.85134">
        <ele>207</ele>
        <time>2017-05-04T13:51:07.000Z</time>
      </trkpt>
      <trkpt lat="46.20082" lon="4.85134">
        <ele>207</ele>
        <time>2017-05-04T13:51:08.000Z</time>
      </trkpt>
      <trkpt lat="46.20083" lon="4.85134">
        <ele>206</ele>
        <time>2017-05-04T13:51:09.000Z</time>
      </trkpt>
      <trkpt lat="46.20084" lon="4.85135">
        <ele>206</ele>
        <time>2017-05-04T13:51:10.000Z</time>
      </trkpt>
      <trkpt lat="46.20085" lon="4.85135">
        <ele>206</ele>
        <time>2017-05-04T13:51:11.000Z</time>
      </trkpt>
      <trkpt lat="46.20086" lon="4.85135">
        <ele>206</ele>
        <time>2017-05-04T13:51:12.000Z</time>
      </trkpt>
      <trkpt lat="46.20088" lon="4.85135">
        <ele>206</ele>
        <time>2017-05-04T13:51:13.000Z</time>
      </trkpt>
      <trkpt lat="46.20089" lon="4.85135">
        <ele>206</ele>
        <time>2017-05-04T13:51:14.000Z</time>
      </trkpt>
      <trkpt lat="46.2009" lon="4.85135">
        <ele>206</ele>
        <time>2017-05-04T13:51:15.000Z</time>
      </trkpt>
      <trkpt lat="46.20091" lon="4.85136">
        <ele>207</ele>
        <time>2017-05-04T13:51:16.000Z</time>
      </trkpt>
      <trkpt lat="46.20092" lon="4.85136">
        <ele>207</ele>
        <time>2017-05-04T13:51:17.000Z</time>
      </trkpt>
      <trkpt lat="46.20094" lon="4.85136">
        <ele>207</ele>
        <time>2017-05-04T13:51:18.000Z</time>
      </trkpt>
      <trkpt lat="46.20095" lon="4.85137">
        <ele>206</ele>
        <time>2017-05-04T13:51:19.000Z</time>
      </trkpt>
      <trkpt lat="46.20096" lon="4.85137">
        <ele>206</ele>
        <time>2017-05-04T13:51:20.000Z</time>
      </trkpt>
      <trkpt lat="46.20098" lon="4.85138">
        <ele>206</ele>
        <time>2017-05-04T13:51:21.000Z</time>
      </trkpt>
      <trkpt lat="46.20099" lon="4.85138">
        <ele>206</ele>
        <time>2017-05-04T13:51:22.000Z</time>
      </trkpt>
      <trkpt lat="46.201" lon="4.85138">
        <ele>206</ele>
        <time>2017-05-04T13:51:23.000Z</time>
      </trkpt>
      <trkpt lat="46.20102" lon="4.85139">
        <ele>206</ele>
        <time>2017-05-04T13:51:24.000Z</time>
      </trkpt>
      <trkpt lat="46.20103" lon="4.85139">
        <ele>207</ele>
        <time>2017-05-04T13:51:25.000Z</time>
      </trkpt>
      <trkpt lat="46.20105" lon="4.8514">
        <ele>207</ele>
        <time>2017-05-04T13:51:26.000Z</time>
      </trkpt>
      <trkpt lat="46.20106" lon="4.85141">
        <ele>208</ele>
        <time>2017-05-04T13:51:27.000Z</time>
      </trkpt>
      <trkpt lat="46.20108" lon="4.85142">
        <ele>208</ele>
        <time>2017-05-04T13:51:28.000Z</time>
      </trkpt>
      <trkpt lat="46.20109" lon="4.85142">
        <ele>208</ele>
        <time>2017-05-04T13:51:29.000Z</time>
      </trkpt>
      <trkpt lat="46.2011" lon="4.85143">
        <ele>209</ele>
        <time>2017-05-04T13:51:30.000Z</time>
      </trkpt>
      <trkpt lat="46.20112" lon="4.85143">
        <ele>209</ele>
        <time>2017-05-04T13:51:31.000Z</time>
      </trkpt>
      <trkpt lat="46.20113" lon="4.85143">
        <ele>209</ele>
        <time>2017-05-04T13:51:32.000Z</time>
      </trkpt>
      <trkpt lat="46.20114" lon="4.85144">
        <ele>209</ele>
        <time>2017-05-04T13:51:33.000Z</time>
      </trkpt>
      <trkpt lat="46.20115" lon="4.85144">
        <ele>209</ele>
        <time>2017-05-04T13:51:34.000Z</time>
      </trkpt>
      <trkpt lat="46.20117" lon="4.85145">
        <ele>209</ele>
        <time>2017-05-04T13:51:35.000Z</time>
      </trkpt>
      <trkpt lat="46.20118" lon="4.85145">
        <ele>209</ele>
        <time>2017-05-04T13:51:36.000Z</time>
      </trkpt>
      <trkpt lat="46.20119" lon="4.85145">
        <ele>209</ele>
        <time>2017-05-04T13:51:37.000Z</time>
      </trkpt>
      <trkpt lat="46.2012" lon="4.85146">
        <ele>208</ele>
        <time>2017-05-04T13:51:38.000Z</time>
      </trkpt>
      <trkpt lat="46.20121" lon="4.85146">
        <ele>208</ele>
        <time>2017-05-04T13:51:39.000Z</time>
      </trkpt>
      <trkpt lat="46.20122" lon="4.85146">
        <ele>208</ele>
        <time>2017-05-04T13:51:40.000Z</time>
      </trkpt>
      <trkpt lat="46.20123" lon="4.85146">
        <ele>209</ele>
        <time>2017-05-04T13:51:41.000Z</time>
      </trkpt>
      <trkpt lat="46.20124" lon="4.85147">
        <ele>210</ele>
        <time>2017-05-04T13:51:42.000Z</time>
      </trkpt>
      <trkpt lat="46.20126" lon="4.85147">
        <ele>210</ele>
        <time>2017-05-04T13:51:43.000Z</time>
      </trkpt>
      <trkpt lat="46.20127" lon="4.85148">
        <ele>210</ele>
        <time>2017-05-04T13:51:44.000Z</time>
      </trkpt>
      <trkpt lat="46.20128" lon="4.85148">
        <ele>210</ele>
        <time>2017-05-04T13:51:45.000Z</time>
      </trkpt>
      <trkpt lat="46.20129" lon="4.85148">
        <ele>210</ele>
        <time>2017-05-04T13:51:46.000Z</time>
      </trkpt>
      <trkpt lat="46.20131" lon="4.85148">
        <ele>211</ele>
        <time>2017-05-04T13:51:47.000Z</time>
      </trkpt>
      <trkpt lat="46.20132" lon="4.85149">
        <ele>211</ele>
        <time>2017-05-04T13:51:48.000Z</time>
      </trkpt>
      <trkpt lat="46.20133" lon="4.85149">
        <ele>211</ele>
        <time>2017-05-04T13:51:49.000Z</time>
      </trkpt>
      <trkpt lat="46.20134" lon="4.85149">
        <ele>211</ele>
        <time>2017-05-04T13:51:50.000Z</time>
      </trkpt>
      <trkpt lat="46.20135" lon="4.85149">
        <ele>211</ele>
        <time>2017-05-04T13:51:51.000Z</time>
      </trkpt>
      <trkpt lat="46.20136" lon="4.85149">
        <ele>211</ele>
        <time>2017-05-04T13:51:52.000Z</time>
      </trkpt>
      <trkpt lat="46.20137" lon="4.85149">
        <ele>211</ele>
        <time>2017-05-04T13:51:53.000Z</time>
      </trkpt>
      <trkpt lat="46.20139" lon="4.85149">
        <ele>211</ele>
        <time>2017-05-04T13:51:54.000Z</time>
      </trkpt>
      <trkpt lat="46.2014" lon="4.85149">
        <ele>211</ele>
        <time>2017-05-04T13:51:55.000Z</time>
      </trkpt>
      <trkpt lat="46.20141" lon="4.85149">
        <ele>210</ele>
        <time>2017-05-04T13:51:56.000Z</time>
      </trkpt>
      <trkpt lat="46.20142" lon="4.85149">
        <ele>210</ele>
        <time>2017-05-04T13:51:57.000Z</time>
      </trkpt>
      <trkpt lat="46.20143" lon="4.85149">
        <ele>210</ele>
        <time>2017-05-04T13:51:58.000Z</time>
      </trkpt>
      <trkpt lat="46.20145" lon="4.85149">
        <ele>210</ele>
        <time>2017-05-04T13:51:59.000Z</time>
      </trkpt>
      <trkpt lat="46.20146" lon="4.85149">
        <ele>210</ele>
        <time>2017-05-04T13:52:00.000Z</time>
      </trkpt>
      <trkpt lat="46.20147" lon="4.85149">
        <ele>210</ele>
        <time>2017-05-04T13:52:01.000Z</time>
      </trkpt>
      <trkpt lat="46.20148" lon="4.85149">
        <ele>210</ele>
        <time>2017-05-04T13:52:02.000Z</time>
      </trkpt>
      <trkpt lat="46.20149" lon="4.85149">
        <ele>210</ele>
        <time>2017-05-04T13:52:03.000Z</time>
      </trkpt>
      <trkpt lat="46.20151" lon="4.85149">
        <ele>210</ele>
        <time>2017-05-04T13:52:04.000Z</time>
      </trkpt>
      <trkpt lat="46.20152" lon="4.85149">
        <ele>210</ele>
        <time>2017-05-04T13:52:05.000Z</time>
      </trkpt>
      <trkpt lat="46.20153" lon="4.85149">
        <ele>210</ele>
        <time>2017-05-04T13:52:06.000Z</time>
      </trkpt>
      <trkpt lat="46.20154" lon="4.85149">
        <ele>210</ele>
        <time>2017-05-04T13:52:07.000Z</time>
      </trkpt>
      <trkpt lat="46.20155" lon="4.85149">
        <ele>210</ele>
        <time>2017-05-04T13:52:08.000Z</time>
      </trkpt>
      <trkpt lat="46.20156" lon="4.85149">
        <ele>210</ele>
        <time>2017-05-04T13:52:09.000Z</time>
      </trkpt>
      <trkpt lat="46.20157" lon="4.85148">
        <ele>210</ele>
        <time>2017-05-04T13:52:10.000Z</time>
      </trkpt>
      <trkpt lat="46.20159" lon="4.85148">
        <ele>210</ele>
        <time>2017-05-04T13:52:11.000Z</time>
      </trkpt>
      <trkpt lat="46.2016" lon="4.85148">
        <ele>210</ele>
        <time>2017-05-04T13:52:12.000Z</time>
      </trkpt>
      <trkpt lat="46.20161" lon="4.85148">
        <ele>210</ele>
        <time>2017-05-04T13:52:13.000Z</time>
      </trkpt>
      <trkpt lat="46.20162" lon="4.85148">
        <ele>210</ele>
        <time>2017-05-04T13:52:14.000Z</time>
      </trkpt>
      <trkpt lat="46.20163" lon="4.85148">
        <ele>210</ele>
        <time>2017-05-04T13:52:15.000Z</time>
      </trkpt>
      <trkpt lat="46.20165" lon="4.85147">
        <ele>209</ele>
        <time>2017-05-04T13:52:16.000Z</time>
      </trkpt>
      <trkpt lat="46.20166" lon="4.85147">
        <ele>209</ele>
        <time>2017-05-04T13:52:17.000Z</time>
      </trkpt>
      <trkpt lat="46.20167" lon="4.85147">
        <ele>209</ele>
        <time>2017-05-04T13:52:18.000Z</time>
      </trkpt>
      <trkpt lat="46.20168" lon="4.85147">
        <ele>209</ele>
        <time>2017-05-04T13:52:19.000Z</time>
      </trkpt>
      <trkpt lat="46.20169" lon="4.85147">
        <ele>209</ele>
        <time>2017-05-04T13:52:20.000Z</time>
      </trkpt>
      <trkpt lat="46.2017" lon="4.85147">
        <ele>209</ele>
        <time>2017-05-04T13:52:21.000Z</time>
      </trkpt>
      <trkpt lat="46.20171" lon="4.85147">
        <ele>208</ele>
        <time>2017-05-04T13:52:22.000Z</time>
      </trkpt>
      <trkpt lat="46.20172" lon="4.85146">
        <ele>209</ele>
        <time>2017-05-04T13:52:23.000Z</time>
      </trkpt>
      <trkpt lat="46.20173" lon="4.85146">
        <ele>209</ele>
        <time>2017-05-04T13:52:24.000Z</time>
      </trkpt>
      <trkpt lat="46.20174" lon="4.85146">
        <ele>209</ele>
        <time>2017-05-04T13:52:25.000Z</time>
      </trkpt>
      <trkpt lat="46.20175" lon="4.85146">
        <ele>209</ele>
        <time>2017-05-04T13:52:26.000Z</time>
      </trkpt>
      <trkpt lat="46.20176" lon="4.85146">
        <ele>209</ele>
        <time>2017-05-04T13:52:27.000Z</time>
      </trkpt>
      <trkpt lat="46.20177" lon="4.85146">
        <ele>208</ele>
        <time>2017-05-04T13:52:28.000Z</time>
      </trkpt>
      <trkpt lat="46.20178" lon="4.85145">
        <ele>209</ele>
        <time>2017-05-04T13:52:29.000Z</time>
      </trkpt>
      <trkpt lat="46.20179" lon="4.85145">
        <ele>208</ele>
        <time>2017-05-04T13:52:30.000Z</time>
      </trkpt>
      <trkpt lat="46.2018" lon="4.85145">
        <ele>208</ele>
        <time>2017-05-04T13:52:31.000Z</time>
      </trkpt>
      <trkpt lat="46.20182" lon="4.85145">
        <ele>208</ele>
        <time>2017-05-04T13:52:32.000Z</time>
      </trkpt>
      <trkpt lat="46.20183" lon="4.85144">
        <ele>209</ele>
        <time>2017-05-04T13:52:33.000Z</time>
      </trkpt>
      <trkpt lat="46.20184" lon="4.85144">
        <ele>208</ele>
        <time>2017-05-04T13:52:34.000Z</time>
      </trkpt>
      <trkpt lat="46.20185" lon="4.85144">
        <ele>208</ele>
        <time>2017-05-04T13:52:35.000Z</time>
      </trkpt>
      <trkpt lat="46.20186" lon="4.85143">
        <ele>208</ele>
        <time>2017-05-04T13:52:36.000Z</time>
      </trkpt>
      <trkpt lat="46.20187" lon="4.85143">
        <ele>208</ele>
        <time>2017-05-04T13:52:37.000Z</time>
      </trkpt>
      <trkpt lat="46.20188" lon="4.85143">
        <ele>208</ele>
        <time>2017-05-04T13:52:38.000Z</time>
      </trkpt>
      <trkpt lat="46.2019" lon="4.85143">
        <ele>208</ele>
        <time>2017-05-04T13:52:39.000Z</time>
      </trkpt>
      <trkpt lat="46.20191" lon="4.85143">
        <ele>208</ele>
        <time>2017-05-04T13:52:40.000Z</time>
      </trkpt>
      <trkpt lat="46.20192" lon="4.85142">
        <ele>208</ele>
        <time>2017-05-04T13:52:41.000Z</time>
      </trkpt>
      <trkpt lat="46.20193" lon="4.85142">
        <ele>208</ele>
        <time>2017-05-04T13:52:42.000Z</time>
      </trkpt>
      <trkpt lat="46.20194" lon="4.85142">
        <ele>208</ele>
        <time>2017-05-04T13:52:43.000Z</time>
      </trkpt>
      <trkpt lat="46.20195" lon="4.85142">
        <ele>207</ele>
        <time>2017-05-04T13:52:44.000Z</time>
      </trkpt>
      <trkpt lat="46.20196" lon="4.85142">
        <ele>207</ele>
        <time>2017-05-04T13:52:45.000Z</time>
      </trkpt>
      <trkpt lat="46.20197" lon="4.85142">
        <ele>207</ele>
        <time>2017-05-04T13:52:46.000Z</time>
      </trkpt>
      <trkpt lat="46.20198" lon="4.85142">
        <ele>207</ele>
        <time>2017-05-04T13:52:47.000Z</time>
      </trkpt>
      <trkpt lat="46.20199" lon="4.85142">
        <ele>208</ele>
        <time>2017-05-04T13:52:48.000Z</time>
      </trkpt>
      <trkpt lat="46.20199" lon="4.85141">
        <ele>208</ele>
        <time>2017-05-04T13:52:49.000Z</time>
      </trkpt>
      <trkpt lat="46.20199" lon="4.85141">
        <ele>208</ele>
        <time>2017-05-04T13:52:50.000Z</time>
      </trkpt>
      <trkpt lat="46.20198" lon="4.85141">
        <ele>208</ele>
        <time>2017-05-04T13:52:51.000Z</time>
      </trkpt>
      <trkpt lat="46.20198" lon="4.8514">
        <ele>208</ele>
        <time>2017-05-04T13:52:52.000Z</time>
      </trkpt>
      <trkpt lat="46.20198" lon="4.8514">
        <ele>208</ele>
        <time>2017-05-04T13:52:53.000Z</time>
      </trkpt>
      <trkpt lat="46.20198" lon="4.8514">
        <ele>208</ele>
        <time>2017-05-04T13:52:54.000Z</time>
      </trkpt>
      <trkpt lat="46.20197" lon="4.8514">
        <ele>209</ele>
        <time>2017-05-04T13:52:55.000Z</time>
      </trkpt>
      <trkpt lat="46.20197" lon="4.8514">
        <ele>209</ele>
        <time>2017-05-04T13:52:56.000Z</time>
      </trkpt>
      <trkpt lat="46.20196" lon="4.85141">
        <ele>210</ele>
        <time>2017-05-04T13:52:57.000Z</time>
      </trkpt>
      <trkpt lat="46.20196" lon="4.85141">
        <ele>210</ele>
        <time>2017-05-04T13:52:58.000Z</time>
      </trkpt>
      <trkpt lat="46.20196" lon="4.85142">
        <ele>210</ele>
        <time>2017-05-04T13:52:59.000Z</time>
      </trkpt>
      <trkpt lat="46.20196" lon="4.85142">
        <ele>210</ele>
        <time>2017-05-04T13:53:00.000Z</time>
      </trkpt>
      <trkpt lat="46.20196" lon="4.85142">
        <ele>210</ele>
        <time>2017-05-04T13:53:01.000Z</time>
      </trkpt>
      <trkpt lat="46.20196" lon="4.85142">
        <ele>210</ele>
        <time>2017-05-04T13:53:02.000Z</time>
      </trkpt>
      <trkpt lat="46.20196" lon="4.85142">
        <ele>210</ele>
        <time>2017-05-04T13:53:03.000Z</time>
      </trkpt>
      <trkpt lat="46.20196" lon="4.85142">
        <ele>210</ele>
        <time>2017-05-04T13:53:04.000Z</time>
      </trkpt>
      <trkpt lat="46.20196" lon="4.8514">
        <ele>209</ele>
        <time>2017-05-04T13:53:05.000Z</time>
      </trkpt>
      <trkpt lat="46.20197" lon="4.85139">
        <ele>209</ele>
        <time>2017-05-04T13:53:06.000Z</time>
      </trkpt>
      <trkpt lat="46.20197" lon="4.85138">
        <ele>209</ele>
        <time>2017-05-04T13:53:07.000Z</time>
      </trkpt>
      <trkpt lat="46.20197" lon="4.85137">
        <ele>209</ele>
        <time>2017-05-04T13:53:08.000Z</time>
      </trkpt>
      <trkpt lat="46.20198" lon="4.85136">
        <ele>209</ele>
        <time>2017-05-04T13:53:09.000Z</time>
      </trkpt>
      <trkpt lat="46.20198" lon="4.85137">
        <ele>209</ele>
        <time>2017-05-04T13:53:10.000Z</time>
      </trkpt>
      <trkpt lat="46.20199" lon="4.85137">
        <ele>208</ele>
        <time>2017-05-04T13:53:11.000Z</time>
      </trkpt>
      <trkpt lat="46.20199" lon="4.85138">
        <ele>208</ele>
        <time>2017-05-04T13:53:12.000Z</time>
      </trkpt>
      <trkpt lat="46.20199" lon="4.85138">
        <ele>208</ele>
        <time>2017-05-04T13:53:13.000Z</time>
      </trkpt>
      <trkpt lat="46.20199" lon="4.85138">
        <ele>208</ele>
        <time>2017-05-04T13:53:14.000Z</time>
      </trkpt>
      <trkpt lat="46.20199" lon="4.85138">
        <ele>209</ele>
        <time>2017-05-04T13:53:15.000Z</time>
      </trkpt>
      <trkpt lat="46.202" lon="4.85138">
        <ele>209</ele>
        <time>2017-05-04T13:53:16.000Z</time>
      </trkpt>
      <trkpt lat="46.202" lon="4.85138">
        <ele>209</ele>
        <time>2017-05-04T13:53:17.000Z</time>
      </trkpt>
      <trkpt lat="46.202" lon="4.85138">
        <ele>209</ele>
        <time>2017-05-04T13:53:18.000Z</time>
      </trkpt>
      <trkpt lat="46.202" lon="4.85139">
        <ele>209</ele>
        <time>2017-05-04T13:53:19.000Z</time>
      </trkpt>
      <trkpt lat="46.202" lon="4.85139">
        <ele>209</ele>
        <time>2017-05-04T13:53:20.000Z</time>
      </trkpt>
      <trkpt lat="46.20201" lon="4.85139">
        <ele>209</ele>
        <time>2017-05-04T13:53:21.000Z</time>
      </trkpt>
      <trkpt lat="46.20201" lon="4.8514">
        <ele>209</ele>
        <time>2017-05-04T13:53:22.000Z</time>
      </trkpt>
      <trkpt lat="46.20202" lon="4.8514">
        <ele>209</ele>
        <time>2017-05-04T13:53:23.000Z</time>
      </trkpt>
      <trkpt lat="46.20202" lon="4.85141">
        <ele>209</ele>
        <time>2017-05-04T13:53:24.000Z</time>
      </trkpt>
      <trkpt lat="46.20202" lon="4.85142">
        <ele>209</ele>
        <time>2017-05-04T13:53:25.000Z</time>
      </trkpt>
      <trkpt lat="46.20202" lon="4.85142">
        <ele>209</ele>
        <time>2017-05-04T13:53:26.000Z</time>
      </trkpt>
      <trkpt lat="46.20202" lon="4.85142">
        <ele>209</ele>
        <time>2017-05-04T13:53:27.000Z</time>
      </trkpt>
      <trkpt lat="46.20202" lon="4.85142">
        <ele>210</ele>
        <time>2017-05-04T13:53:28.000Z</time>
      </trkpt>
      <trkpt lat="46.20202" lon="4.85142">
        <ele>210</ele>
        <time>2017-05-04T13:53:29.000Z</time>
      </trkpt>
      <trkpt lat="46.20202" lon="4.85142">
        <ele>210</ele>
        <time>2017-05-04T13:53:30.000Z</time>
      </trkpt>
      <trkpt lat="46.20202" lon="4.85142">
        <ele>210</ele>
        <time>2017-05-04T13:53:31.000Z</time>
      </trkpt>
      <trkpt lat="46.20202" lon="4.85142">
        <ele>210</ele>
        <time>2017-05-04T13:53:32.000Z</time>
      </trkpt>
      <trkpt lat="46.20202" lon="4.85142">
        <ele>210</ele>
        <time>2017-05-04T13:53:33.000Z</time>
      </trkpt>
      <trkpt lat="46.20202" lon="4.85141">
        <ele>210</ele>
        <time>2017-05-04T13:53:34.000Z</time>
      </trkpt>
      <trkpt lat="46.20202" lon="4.85141">
        <ele>210</ele>
        <time>2017-05-04T13:53:35.000Z</time>
      </trkpt>
      <trkpt lat="46.20202" lon="4.85142">
        <ele>210</ele>
        <time>2017-05-04T13:53:36.000Z</time>
      </trkpt>
      <trkpt lat="46.20202" lon="4.85142">
        <ele>210</ele>
        <time>2017-05-04T13:53:37.000Z</time>
      </trkpt>
      <trkpt lat="46.20202" lon="4.85142">
        <ele>210</ele>
        <time>2017-05-04T13:53:38.000Z</time>
      </trkpt>
      <trkpt lat="46.20202" lon="4.85142">
        <ele>210</ele>
        <time>2017-05-04T13:53:39.000Z</time>
      </trkpt>
      <trkpt lat="46.20202" lon="4.85142">
        <ele>210</ele>
        <time>2017-05-04T13:53:40.000Z</time>
      </trkpt>
      <trkpt lat="46.20202" lon="4.85142">
        <ele>210</ele>
        <time>2017-05-04T13:53:41.000Z</time>
      </trkpt>
      <trkpt lat="46.20202" lon="4.85142">
        <ele>210</ele>
        <time>2017-05-04T13:53:42.000Z</time>
      </trkpt>
      <trkpt lat="46.20202" lon="4.85142">
        <ele>210</ele>
        <time>2017-05-04T13:53:43.000Z</time>
      </trkpt>
      <trkpt lat="46.20202" lon="4.85142">
        <ele>211</ele>
        <time>2017-05-04T13:53:44.000Z</time>
      </trkpt>
      <trkpt lat="46.20202" lon="4.85142">
        <ele>211</ele>
        <time>2017-05-04T13:53:45.000Z</time>
      </trkpt>
      <trkpt lat="46.20202" lon="4.85142">
        <ele>211</ele>
        <time>2017-05-04T13:53:46.000Z</time>
      </trkpt>
      <trkpt lat="46.20202" lon="4.85142">
        <ele>212</ele>
        <time>2017-05-04T13:53:47.000Z</time>
      </trkpt>
      <trkpt lat="46.20202" lon="4.85142">
        <ele>212</ele>
        <time>2017-05-04T13:53:48.000Z</time>
      </trkpt>
      <trkpt lat="46.20201" lon="4.85142">
        <ele>212</ele>
        <time>2017-05-04T13:53:49.000Z</time>
      </trkpt>
      <trkpt lat="46.20201" lon="4.85142">
        <ele>212</ele>
        <time>2017-05-04T13:53:50.000Z</time>
      </trkpt>
      <trkpt lat="46.20201" lon="4.85142">
        <ele>212</ele>
        <time>2017-05-04T13:53:51.000Z</time>
      </trkpt>
      <trkpt lat="46.202" lon="4.85142">
        <ele>211</ele>
        <time>2017-05-04T13:53:52.000Z</time>
      </trkpt>
      <trkpt lat="46.20199" lon="4.85142">
        <ele>212</ele>
        <time>2017-05-04T13:53:53.000Z</time>
      </trkpt>
      <trkpt lat="46.20199" lon="4.85142">
        <ele>211</ele>
        <time>2017-05-04T13:53:54.000Z</time>
      </trkpt>
      <trkpt lat="46.20199" lon="4.85142">
        <ele>211</ele>
        <time>2017-05-04T13:53:55.000Z</time>
      </trkpt>
      <trkpt lat="46.20199" lon="4.85142">
        <ele>210</ele>
        <time>2017-05-04T13:53:56.000Z</time>
      </trkpt>
      <trkpt lat="46.20199" lon="4.85142">
        <ele>210</ele>
        <time>2017-05-04T13:53:57.000Z</time>
      </trkpt>
      <trkpt lat="46.20199" lon="4.85142">
        <ele>210</ele>
        <time>2017-05-04T13:53:58.000Z</time>
      </trkpt>
      <trkpt lat="46.20199" lon="4.85142">
        <ele>210</ele>
        <time>2017-05-04T13:53:59.000Z</time>
      </trkpt>
      <trkpt lat="46.202" lon="4.85142">
        <ele>210</ele>
        <time>2017-05-04T13:54:00.000Z</time>
      </trkpt>
      <trkpt lat="46.202" lon="4.85143">
        <ele>210</ele>
        <time>2017-05-04T13:54:01.000Z</time>
      </trkpt>
      <trkpt lat="46.202" lon="4.85143">
        <ele>210</ele>
        <time>2017-05-04T13:54:02.000Z</time>
      </trkpt>
      <trkpt lat="46.202" lon="4.85143">
        <ele>210</ele>
        <time>2017-05-04T13:54:03.000Z</time>
      </trkpt>
      <trkpt lat="46.202" lon="4.85143">
        <ele>210</ele>
        <time>2017-05-04T13:54:04.000Z</time>
      </trkpt>
      <trkpt lat="46.202" lon="4.85143">
        <ele>210</ele>
        <time>2017-05-04T13:54:05.000Z</time>
      </trkpt>
      <trkpt lat="46.202" lon="4.85143">
        <ele>210</ele>
        <time>2017-05-04T13:54:06.000Z</time>
      </trkpt>
      <trkpt lat="46.202" lon="4.85143">
        <ele>210</ele>
        <time>2017-05-04T13:54:07.000Z</time>
      </trkpt>
      <trkpt lat="46.202" lon="4.85143">
        <ele>210</ele>
        <time>2017-05-04T13:54:08.000Z</time>
      </trkpt>
      <trkpt lat="46.202" lon="4.85143">
        <ele>209</ele>
        <time>2017-05-04T13:54:09.000Z</time>
      </trkpt>
      <trkpt lat="46.20199" lon="4.85142">
        <ele>210</ele>
        <time>2017-05-04T13:54:10.000Z</time>
      </trkpt>
      <trkpt lat="46.20199" lon="4.85143">
        <ele>210</ele>
        <time>2017-05-04T13:54:11.000Z</time>
      </trkpt>
      <trkpt lat="46.20199" lon="4.85143">
        <ele>210</ele>
        <time>2017-05-04T13:54:12.000Z</time>
      </trkpt>
      <trkpt lat="46.20199" lon="4.85143">
        <ele>210</ele>
        <time>2017-05-04T13:54:13.000Z</time>
      </trkpt>
      <trkpt lat="46.202" lon="4.85143">
        <ele>210</ele>
        <time>2017-05-04T13:54:14.000Z</time>
      </trkpt>
      <trkpt lat="46.202" lon="4.85144">
        <ele>210</ele>
        <time>2017-05-04T13:54:15.000Z</time>
      </trkpt>
      <trkpt lat="46.202" lon="4.85144">
        <ele>211</ele>
        <time>2017-05-04T13:54:16.000Z</time>
      </trkpt>
      <trkpt lat="46.202" lon="4.85144">
        <ele>211</ele>
        <time>2017-05-04T13:54:17.000Z</time>
      </trkpt>
      <trkpt lat="46.202" lon="4.85144">
        <ele>211</ele>
        <time>2017-05-04T13:54:18.000Z</time>
      </trkpt>
      <trkpt lat="46.202" lon="4.85144">
        <ele>212</ele>
        <time>2017-05-04T13:54:19.000Z</time>
      </trkpt>
      <trkpt lat="46.202" lon="4.85144">
        <ele>212</ele>
        <time>2017-05-04T13:54:20.000Z</time>
      </trkpt>
      <trkpt lat="46.20199" lon="4.85144">
        <ele>212</ele>
        <time>2017-05-04T13:54:21.000Z</time>
      </trkpt>
      <trkpt lat="46.20199" lon="4.85144">
        <ele>212</ele>
        <time>2017-05-04T13:54:22.000Z</time>
      </trkpt>
      <trkpt lat="46.20199" lon="4.85144">
        <ele>213</ele>
        <time>2017-05-04T13:54:23.000Z</time>
      </trkpt>
      <trkpt lat="46.20198" lon="4.85145">
        <ele>214</ele>
        <time>2017-05-04T13:54:24.000Z</time>
      </trkpt>
      <trkpt lat="46.20198" lon="4.85145">
        <ele>214</ele>
        <time>2017-05-04T13:54:25.000Z</time>
      </trkpt>
      <trkpt lat="46.20199" lon="4.85146">
        <ele>215</ele>
        <time>2017-05-04T13:54:26.000Z</time>
      </trkpt>
      <trkpt lat="46.20199" lon="4.85147">
        <ele>215</ele>
        <time>2017-05-04T13:54:27.000Z</time>
      </trkpt>
      <trkpt lat="46.202" lon="4.85147">
        <ele>215</ele>
        <time>2017-05-04T13:54:28.000Z</time>
      </trkpt>
      <trkpt lat="46.202" lon="4.85148">
        <ele>215</ele>
        <time>2017-05-04T13:54:29.000Z</time>
      </trkpt>
      <trkpt lat="46.202" lon="4.85147">
        <ele>215</ele>
        <time>2017-05-04T13:54:30.000Z</time>
      </trkpt>
      <trkpt lat="46.20201" lon="4.85147">
        <ele>214</ele>
        <time>2017-05-04T13:54:31.000Z</time>
      </trkpt>
      <trkpt lat="46.20201" lon="4.85147">
        <ele>214</ele>
        <time>2017-05-04T13:54:32.000Z</time>
      </trkpt>
      <trkpt lat="46.20201" lon="4.85147">
        <ele>214</ele>
        <time>2017-05-04T13:54:33.000Z</time>
      </trkpt>
      <trkpt lat="46.20201" lon="4.85147">
        <ele>214</ele>
        <time>2017-05-04T13:54:34.000Z</time>
      </trkpt>
      <trkpt lat="46.20201" lon="4.85148">
        <ele>214</ele>
        <time>2017-05-04T13:54:35.000Z</time>
      </trkpt>
      <trkpt lat="46.20201" lon="4.85148">
        <ele>214</ele>
        <time>2017-05-04T13:54:36.000Z</time>
      </trkpt>
      <trkpt lat="46.20201" lon="4.85148">
        <ele>214</ele>
        <time>2017-05-04T13:54:37.000Z</time>
      </trkpt>
      <trkpt lat="46.20201" lon="4.85147">
        <ele>213</ele>
        <time>2017-05-04T13:54:38.000Z</time>
      </trkpt>
      <trkpt lat="46.202" lon="4.85147">
        <ele>213</ele>
        <time>2017-05-04T13:54:39.000Z</time>
      </trkpt>
      <trkpt lat="46.202" lon="4.85147">
        <ele>213</ele>
        <time>2017-05-04T13:54:40.000Z</time>
      </trkpt>
      <trkpt lat="46.202" lon="4.85147">
        <ele>214</ele>
        <time>2017-05-04T13:54:41.000Z</time>
      </trkpt>
      <trkpt lat="46.202" lon="4.85146">
        <ele>214</ele>
        <time>2017-05-04T13:54:42.000Z</time>
      </trkpt>
      <trkpt lat="46.202" lon="4.85146">
        <ele>215</ele>
        <time>2017-05-04T13:54:43.000Z</time>
      </trkpt>
      <trkpt lat="46.202" lon="4.85147">
        <ele>215</ele>
        <time>2017-05-04T13:54:44.000Z</time>
      </trkpt>
      <trkpt lat="46.202" lon="4.85147">
        <ele>215</ele>
        <time>2017-05-04T13:54:45.000Z</time>
      </trkpt>
      <trkpt lat="46.20199" lon="4.85147">
        <ele>216</ele>
        <time>2017-05-04T13:54:46.000Z</time>
      </trkpt>
      <trkpt lat="46.20199" lon="4.85147">
        <ele>216</ele>
        <time>2017-05-04T13:54:47.000Z</time>
      </trkpt>
      <trkpt lat="46.20199" lon="4.85147">
        <ele>217</ele>
        <time>2017-05-04T13:54:48.000Z</time>
      </trkpt>
      <trkpt lat="46.20199" lon="4.85147">
        <ele>217</ele>
        <time>2017-05-04T13:54:49.000Z</time>
      </trkpt>
      <trkpt lat="46.20199" lon="4.85147">
        <ele>217</ele>
        <time>2017-05-04T13:54:50.000Z</time>
      </trkpt>
      <trkpt lat="46.20199" lon="4.85147">
        <ele>217</ele>
        <time>2017-05-04T13:54:51.000Z</time>
      </trkpt>
      <trkpt lat="46.20199" lon="4.85147">
        <ele>217</ele>
        <time>2017-05-04T13:54:52.000Z</time>
      </trkpt>
      <trkpt lat="46.20199" lon="4.85147">
        <ele>217</ele>
        <time>2017-05-04T13:54:53.000Z</time>
      </trkpt>
      <trkpt lat="46.20199" lon="4.85147">
        <ele>217</ele>
        <time>2017-05-04T13:54:54.000Z</time>
      </trkpt>
      <trkpt lat="46.20199" lon="4.85147">
        <ele>217</ele>
        <time>2017-05-04T13:54:55.000Z</time>
      </trkpt>
      <trkpt lat="46.20199" lon="4.85148">
        <ele>218</ele>
        <time>2017-05-04T13:54:56.000Z</time>
      </trkpt>
      <trkpt lat="46.20199" lon="4.85148">
        <ele>218</ele>
        <time>2017-05-04T13:54:57.000Z</time>
      </trkpt>
      <trkpt lat="46.20198" lon="4.85148">
        <ele>218</ele>
        <time>2017-05-04T13:54:58.000Z</time>
      </trkpt>
      <trkpt lat="46.20198" lon="4.85148">
        <ele>218</ele>
        <time>2017-05-04T13:54:59.000Z</time>
      </trkpt>
      <trkpt lat="46.20198" lon="4.85148">
        <ele>218</ele>
        <time>2017-05-04T13:55:00.000Z</time>
      </trkpt>
      <trkpt lat="46.20198" lon="4.85148">
        <ele>218</ele>
        <time>2017-05-04T13:55:01.000Z</time>
      </trkpt>
      <trkpt lat="46.20198" lon="4.85148">
        <ele>218</ele>
        <time>2017-05-04T13:55:02.000Z</time>
      </trkpt>
      <trkpt lat="46.20198" lon="4.85148">
        <ele>217</ele>
        <time>2017-05-04T13:55:03.000Z</time>
      </trkpt>
      <trkpt lat="46.20198" lon="4.85148">
        <ele>217</ele>
        <time>2017-05-04T13:55:04.000Z</time>
      </trkpt>
      <trkpt lat="46.20198" lon="4.85149">
        <ele>217</ele>
        <time>2017-05-04T13:55:05.000Z</time>
      </trkpt>
      <trkpt lat="46.20198" lon="4.85149">
        <ele>217</ele>
        <time>2017-05-04T13:55:06.000Z</time>
      </trkpt>
      <trkpt lat="46.20199" lon="4.85149">
        <ele>217</ele>
        <time>2017-05-04T13:55:07.000Z</time>
      </trkpt>
      <trkpt lat="46.20199" lon="4.85149">
        <ele>217</ele>
        <time>2017-05-04T13:55:08.000Z</time>
      </trkpt>
      <trkpt lat="46.202" lon="4.85148">
        <ele>216</ele>
        <time>2017-05-04T13:55:09.000Z</time>
      </trkpt>
      <trkpt lat="46.202" lon="4.85148">
        <ele>216</ele>
        <time>2017-05-04T13:55:10.000Z</time>
      </trkpt>
      <trkpt lat="46.202" lon="4.85148">
        <ele>216</ele>
        <time>2017-05-04T13:55:11.000Z</time>
      </trkpt>
      <trkpt lat="46.202" lon="4.85148">
        <ele>215</ele>
        <time>2017-05-04T13:55:12.000Z</time>
      </trkpt>
      <trkpt lat="46.202" lon="4.85148">
        <ele>215</ele>
        <time>2017-05-04T13:55:13.000Z</time>
      </trkpt>
      <trkpt lat="46.202" lon="4.85148">
        <ele>215</ele>
        <time>2017-05-04T13:55:14.000Z</time>
      </trkpt>
      <trkpt lat="46.202" lon="4.85148">
        <ele>215</ele>
        <time>2017-05-04T13:55:15.000Z</time>
      </trkpt>
      <trkpt lat="46.20201" lon="4.85148">
        <ele>214</ele>
        <time>2017-05-04T13:55:16.000Z</time>
      </trkpt>
      <trkpt lat="46.20201" lon="4.85148">
        <ele>214</ele>
        <time>2017-05-04T13:55:17.000Z</time>
      </trkpt>
      <trkpt lat="46.20201" lon="4.85148">
        <ele>214</ele>
        <time>2017-05-04T13:55:18.000Z</time>
      </trkpt>
      <trkpt lat="46.20201" lon="4.85147">
        <ele>214</ele>
        <time>2017-05-04T13:55:19.000Z</time>
      </trkpt>
      <trkpt lat="46.20201" lon="4.85147">
        <ele>214</ele>
        <time>2017-05-04T13:55:20.000Z</time>
      </trkpt>
      <trkpt lat="46.20201" lon="4.85147">
        <ele>214</ele>
        <time>2017-05-04T13:55:21.000Z</time>
      </trkpt>
      <trkpt lat="46.20201" lon="4.85147">
        <ele>214</ele>
        <time>2017-05-04T13:55:22.000Z</time>
      </trkpt>
      <trkpt lat="46.20201" lon="4.85147">
        <ele>214</ele>
        <time>2017-05-04T13:55:23.000Z</time>
      </trkpt>
      <trkpt lat="46.20201" lon="4.85147">
        <ele>213</ele>
        <time>2017-05-04T13:55:24.000Z</time>
      </trkpt>
      <trkpt lat="46.20202" lon="4.85147">
        <ele>214</ele>
        <time>2017-05-04T13:55:25.000Z</time>
      </trkpt>
      <trkpt lat="46.20202" lon="4.85146">
        <ele>213</ele>
        <time>2017-05-04T13:55:26.000Z</time>
      </trkpt>
      <trkpt lat="46.20202" lon="4.85146">
        <ele>213</ele>
        <time>2017-05-04T13:55:27.000Z</time>
      </trkpt>
      <trkpt lat="46.20202" lon="4.85145">
        <ele>213</ele>
        <time>2017-05-04T13:55:28.000Z</time>
      </trkpt>
      <trkpt lat="46.20202" lon="4.85145">
        <ele>214</ele>
        <time>2017-05-04T13:55:29.000Z</time>
      </trkpt>
      <trkpt lat="46.20202" lon="4.85144">
        <ele>213</ele>
        <time>2017-05-04T13:55:30.000Z</time>
      </trkpt>
      <trkpt lat="46.20202" lon="4.85144">
        <ele>213</ele>
        <time>2017-05-04T13:55:31.000Z</time>
      </trkpt>
      <trkpt lat="46.20201" lon="4.85145">
        <ele>213</ele>
        <time>2017-05-04T13:55:32.000Z</time>
      </trkpt>
      <trkpt lat="46.20201" lon="4.85145">
        <ele>213</ele>
        <time>2017-05-04T13:55:33.000Z</time>
      </trkpt>
      <trkpt lat="46.20201" lon="4.85145">
        <ele>213</ele>
        <time>2017-05-04T13:55:34.000Z</time>
      </trkpt>
      <trkpt lat="46.20201" lon="4.85144">
        <ele>213</ele>
        <time>2017-05-04T13:55:35.000Z</time>
      </trkpt>
      <trkpt lat="46.20201" lon="4.85144">
        <ele>213</ele>
        <time>2017-05-04T13:55:36.000Z</time>
      </trkpt>
      <trkpt lat="46.20201" lon="4.85144">
        <ele>213</ele>
        <time>2017-05-04T13:55:37.000Z</time>
      </trkpt>
      <trkpt lat="46.20201" lon="4.85144">
        <ele>213</ele>
        <time>2017-05-04T13:55:38.000Z</time>
      </trkpt>
      <trkpt lat="46.20201" lon="4.85144">
        <ele>213</ele>
        <time>2017-05-04T13:55:39.000Z</time>
      </trkpt>
      <trkpt lat="46.20201" lon="4.85144">
        <ele>213</ele>
        <time>2017-05-04T13:55:40.000Z</time>
      </trkpt>
      <trkpt lat="46.20201" lon="4.85144">
        <ele>213</ele>
        <time>2017-05-04T13:55:41.000Z</time>
      </trkpt>
      <trkpt lat="46.20201" lon="4.85144">
        <ele>213</ele>
        <time>2017-05-04T13:55:42.000Z</time>
      </trkpt>
      <trkpt lat="46.20201" lon="4.85144">
        <ele>212</ele>
        <time>2017-05-04T13:55:43.000Z</time>
      </trkpt>
      <trkpt lat="46.20201" lon="4.85144">
        <ele>212</ele>
        <time>2017-05-04T13:55:44.000Z</time>
      </trkpt>
      <trkpt lat="46.20201" lon="4.85144">
        <ele>212</ele>
        <time>2017-05-04T13:55:45.000Z</time>
      </trkpt>
      <trkpt lat="46.20201" lon="4.85144">
        <ele>212</ele>
        <time>2017-05-04T13:55:46.000Z</time>
      </trkpt>
      <trkpt lat="46.20201" lon="4.85144">
        <ele>212</ele>
        <time>2017-05-04T13:55:47.000Z</time>
      </trkpt>
      <trkpt lat="46.20201" lon="4.85144">
        <ele>212</ele>
        <time>2017-05-04T13:55:48.000Z</time>
      </trkpt>
      <trkpt lat="46.20201" lon="4.85144">
        <ele>212</ele>
        <time>2017-05-04T13:55:49.000Z</time>
      </trkpt>
      <trkpt lat="46.20201" lon="4.85144">
        <ele>212</ele>
        <time>2017-05-04T13:55:50.000Z</time>
      </trkpt>
      <trkpt lat="46.20201" lon="4.85144">
        <ele>212</ele>
        <time>2017-05-04T13:55:51.000Z</time>
      </trkpt>
      <trkpt lat="46.20201" lon="4.85144">
        <ele>212</ele>
        <time>2017-05-04T13:55:52.000Z</time>
      </trkpt>
      <trkpt lat="46.20201" lon="4.85144">
        <ele>212</ele>
        <time>2017-05-04T13:55:53.000Z</time>
      </trkpt>
      <trkpt lat="46.20201" lon="4.85144">
        <ele>212</ele>
        <time>2017-05-04T13:55:54.000Z</time>
      </trkpt>
      <trkpt lat="46.20201" lon="4.85144">
        <ele>212</ele>
        <time>2017-05-04T13:55:55.000Z</time>
      </trkpt>
      <trkpt lat="46.20201" lon="4.85144">
        <ele>212</ele>
        <time>2017-05-04T13:55:56.000Z</time>
      </trkpt>
      <trkpt lat="46.20201" lon="4.85144">
        <ele>212</ele>
        <time>2017-05-04T13:55:57.000Z</time>
      </trkpt>
      <trkpt lat="46.20201" lon="4.85144">
        <ele>212</ele>
        <time>2017-05-04T13:55:58.000Z</time>
      </trkpt>
      <trkpt lat="46.20201" lon="4.85144">
        <ele>212</ele>
        <time>2017-05-04T13:55:59.000Z</time>
      </trkpt>
      <trkpt lat="46.20201" lon="4.85144">
        <ele>212</ele>
        <time>2017-05-04T13:56:00.000Z</time>
      </trkpt>
      <trkpt lat="46.20201" lon="4.85144">
        <ele>212</ele>
        <time>2017-05-04T13:56:01.000Z</time>
      </trkpt>
      <trkpt lat="46.20202" lon="4.85144">
        <ele>212</ele>
        <time>2017-05-04T13:56:02.000Z</time>
      </trkpt>
      <trkpt lat="46.20203" lon="4.85144">
        <ele>212</ele>
        <time>2017-05-04T13:56:03.000Z</time>
      </trkpt>
      <trkpt lat="46.20204" lon="4.85144">
        <ele>211</ele>
        <time>2017-05-04T13:56:04.000Z</time>
      </trkpt>
      <trkpt lat="46.20204" lon="4.85144">
        <ele>211</ele>
        <time>2017-05-04T13:56:05.000Z</time>
      </trkpt>
      <trkpt lat="46.20205" lon="4.85144">
        <ele>212</ele>
        <time>2017-05-04T13:56:06.000Z</time>
      </trkpt>
      <trkpt lat="46.20206" lon="4.85144">
        <ele>212</ele>
        <time>2017-05-04T13:56:07.000Z</time>
      </trkpt>
      <trkpt lat="46.20207" lon="4.85145">
        <ele>212</ele>
        <time>2017-05-04T13:56:08.000Z</time>
      </trkpt>
      <trkpt lat="46.20208" lon="4.85145">
        <ele>212</ele>
        <time>2017-05-04T13:56:09.000Z</time>
      </trkpt>
      <trkpt lat="46.20208" lon="4.85145">
        <ele>211</ele>
        <time>2017-05-04T13:56:10.000Z</time>
      </trkpt>
      <trkpt lat="46.20209" lon="4.85145">
        <ele>211</ele>
        <time>2017-05-04T13:56:11.000Z</time>
      </trkpt>
      <trkpt lat="46.2021" lon="4.85145">
        <ele>211</ele>
        <time>2017-05-04T13:56:12.000Z</time>
      </trkpt>
      <trkpt lat="46.2021" lon="4.85146">
        <ele>211</ele>
        <time>2017-05-04T13:56:13.000Z</time>
      </trkpt>
      <trkpt lat="46.20212" lon="4.85146">
        <ele>211</ele>
        <time>2017-05-04T13:56:14.000Z</time>
      </trkpt>
      <trkpt lat="46.20213" lon="4.85147">
        <ele>211</ele>
        <time>2017-05-04T13:56:15.000Z</time>
      </trkpt>
      <trkpt lat="46.20214" lon="4.85147">
        <ele>211</ele>
        <time>2017-05-04T13:56:16.000Z</time>
      </trkpt>
      <trkpt lat="46.20215" lon="4.85147">
        <ele>211</ele>
        <time>2017-05-04T13:56:17.000Z</time>
      </trkpt>
      <trkpt lat="46.20216" lon="4.85147">
        <ele>210</ele>
        <time>2017-05-04T13:56:18.000Z</time>
      </trkpt>
      <trkpt lat="46.20216" lon="4.85147">
        <ele>210</ele>
        <time>2017-05-04T13:56:19.000Z</time>
      </trkpt>
      <trkpt lat="46.20217" lon="4.85147">
        <ele>210</ele>
        <time>2017-05-04T13:56:20.000Z</time>
      </trkpt>
      <trkpt lat="46.20218" lon="4.85147">
        <ele>210</ele>
        <time>2017-05-04T13:56:21.000Z</time>
      </trkpt>
      <trkpt lat="46.20218" lon="4.85148">
        <ele>209</ele>
        <time>2017-05-04T13:56:22.000Z</time>
      </trkpt>
      <trkpt lat="46.20219" lon="4.85148">
        <ele>209</ele>
        <time>2017-05-04T13:56:23.000Z</time>
      </trkpt>
      <trkpt lat="46.2022" lon="4.85148">
        <ele>209</ele>
        <time>2017-05-04T13:56:24.000Z</time>
      </trkpt>
      <trkpt lat="46.20221" lon="4.85148">
        <ele>208</ele>
        <time>2017-05-04T13:56:25.000Z</time>
      </trkpt>
      <trkpt lat="46.20221" lon="4.85148">
        <ele>208</ele>
        <time>2017-05-04T13:56:26.000Z</time>
      </trkpt>
      <trkpt lat="46.20222" lon="4.85149">
        <ele>208</ele>
        <time>2017-05-04T13:56:27.000Z</time>
      </trkpt>
      <trkpt lat="46.20223" lon="4.85149">
        <ele>208</ele>
        <time>2017-05-04T13:56:28.000Z</time>
      </trkpt>
      <trkpt lat="46.20224" lon="4.85149">
        <ele>208</ele>
        <time>2017-05-04T13:56:29.000Z</time>
      </trkpt>
      <trkpt lat="46.20225" lon="4.8515">
        <ele>208</ele>
        <time>2017-05-04T13:56:30.000Z</time>
      </trkpt>
      <trkpt lat="46.20225" lon="4.8515">
        <ele>208</ele>
        <time>2017-05-04T13:56:31.000Z</time>
      </trkpt>
      <trkpt lat="46.20226" lon="4.85151">
        <ele>207</ele>
        <time>2017-05-04T13:56:32.000Z</time>
      </trkpt>
      <trkpt lat="46.20227" lon="4.85151">
        <ele>207</ele>
        <time>2017-05-04T13:56:33.000Z</time>
      </trkpt>
      <trkpt lat="46.20228" lon="4.85151">
        <ele>207</ele>
        <time>2017-05-04T13:56:34.000Z</time>
      </trkpt>
      <trkpt lat="46.20229" lon="4.85151">
        <ele>207</ele>
        <time>2017-05-04T13:56:35.000Z</time>
      </trkpt>
      <trkpt lat="46.2023" lon="4.85151">
        <ele>207</ele>
        <time>2017-05-04T13:56:36.000Z</time>
      </trkpt>
      <trkpt lat="46.20231" lon="4.85152">
        <ele>207</ele>
        <time>2017-05-04T13:56:37.000Z</time>
      </trkpt>
      <trkpt lat="46.20232" lon="4.85152">
        <ele>207</ele>
        <time>2017-05-04T13:56:38.000Z</time>
      </trkpt>
      <trkpt lat="46.20233" lon="4.85153">
        <ele>208</ele>
        <time>2017-05-04T13:56:39.000Z</time>
      </trkpt>
      <trkpt lat="46.20234" lon="4.85154">
        <ele>208</ele>
        <time>2017-05-04T13:56:40.000Z</time>
      </trkpt>
      <trkpt lat="46.20235" lon="4.85154">
        <ele>208</ele>
        <time>2017-05-04T13:56:41.000Z</time>
      </trkpt>
      <trkpt lat="46.20236" lon="4.85155">
        <ele>208</ele>
        <time>2017-05-04T13:56:42.000Z</time>
      </trkpt>
      <trkpt lat="46.20237" lon="4.85155">
        <ele>208</ele>
        <time>2017-05-04T13:56:43.000Z</time>
      </trkpt>
      <trkpt lat="46.20238" lon="4.85156">
        <ele>208</ele>
        <time>2017-05-04T13:56:44.000Z</time>
      </trkpt>
      <trkpt lat="46.20239" lon="4.85156">
        <ele>208</ele>
        <time>2017-05-04T13:56:45.000Z</time>
      </trkpt>
      <trkpt lat="46.20241" lon="4.85156">
        <ele>209</ele>
        <time>2017-05-04T13:56:46.000Z</time>
      </trkpt>
      <trkpt lat="46.20243" lon="4.85156">
        <ele>209</ele>
        <time>2017-05-04T13:56:47.000Z</time>
      </trkpt>
      <trkpt lat="46.20245" lon="4.85157">
        <ele>209</ele>
        <time>2017-05-04T13:56:48.000Z</time>
      </trkpt>
      <trkpt lat="46.20246" lon="4.85156">
        <ele>209</ele>
        <time>2017-05-04T13:56:49.000Z</time>
      </trkpt>
      <trkpt lat="46.20248" lon="4.85156">
        <ele>209</ele>
        <time>2017-05-04T13:56:50.000Z</time>
      </trkpt>
      <trkpt lat="46.20249" lon="4.85157">
        <ele>208</ele>
        <time>2017-05-04T13:56:51.000Z</time>
      </trkpt>
      <trkpt lat="46.20251" lon="4.85157">
        <ele>208</ele>
        <time>2017-05-04T13:56:52.000Z</time>
      </trkpt>
      <trkpt lat="46.20252" lon="4.85156">
        <ele>208</ele>
        <time>2017-05-04T13:56:53.000Z</time>
      </trkpt>
      <trkpt lat="46.20254" lon="4.85156">
        <ele>208</ele>
        <time>2017-05-04T13:56:54.000Z</time>
      </trkpt>
      <trkpt lat="46.20255" lon="4.85156">
        <ele>208</ele>
        <time>2017-05-04T13:56:55.000Z</time>
      </trkpt>
      <trkpt lat="46.20256" lon="4.85156">
        <ele>208</ele>
        <time>2017-05-04T13:56:56.000Z</time>
      </trkpt>
      <trkpt lat="46.20257" lon="4.85155">
        <ele>207</ele>
        <time>2017-05-04T13:56:57.000Z</time>
      </trkpt>
      <trkpt lat="46.20259" lon="4.85155">
        <ele>208</ele>
        <time>2017-05-04T13:56:58.000Z</time>
      </trkpt>
      <trkpt lat="46.2026" lon="4.85154">
        <ele>208</ele>
        <time>2017-05-04T13:56:59.000Z</time>
      </trkpt>
      <trkpt lat="46.20261" lon="4.85154">
        <ele>208</ele>
        <time>2017-05-04T13:57:00.000Z</time>
      </trkpt>
      <trkpt lat="46.20262" lon="4.85154">
        <ele>208</ele>
        <time>2017-05-04T13:57:01.000Z</time>
      </trkpt>
      <trkpt lat="46.20263" lon="4.85153">
        <ele>208</ele>
        <time>2017-05-04T13:57:02.000Z</time>
      </trkpt>
      <trkpt lat="46.20265" lon="4.85153">
        <ele>208</ele>
        <time>2017-05-04T13:57:03.000Z</time>
      </trkpt>
      <trkpt lat="46.20266" lon="4.85153">
        <ele>208</ele>
        <time>2017-05-04T13:57:04.000Z</time>
      </trkpt>
      <trkpt lat="46.20267" lon="4.85153">
        <ele>208</ele>
        <time>2017-05-04T13:57:05.000Z</time>
      </trkpt>
      <trkpt lat="46.20268" lon="4.85153">
        <ele>208</ele>
        <time>2017-05-04T13:57:06.000Z</time>
      </trkpt>
      <trkpt lat="46.20269" lon="4.85152">
        <ele>207</ele>
        <time>2017-05-04T13:57:07.000Z</time>
      </trkpt>
      <trkpt lat="46.2027" lon="4.85152">
        <ele>207</ele>
        <time>2017-05-04T13:57:08.000Z</time>
      </trkpt>
      <trkpt lat="46.20271" lon="4.85152">
        <ele>207</ele>
        <time>2017-05-04T13:57:09.000Z</time>
      </trkpt>
      <trkpt lat="46.20272" lon="4.85152">
        <ele>207</ele>
        <time>2017-05-04T13:57:10.000Z</time>
      </trkpt>
      <trkpt lat="46.20273" lon="4.85152">
        <ele>207</ele>
        <time>2017-05-04T13:57:11.000Z</time>
      </trkpt>
      <trkpt lat="46.20274" lon="4.85152">
        <ele>207</ele>
        <time>2017-05-04T13:57:12.000Z</time>
      </trkpt>
      <trkpt lat="46.20274" lon="4.85152">
        <ele>207</ele>
        <time>2017-05-04T13:57:13.000Z</time>
      </trkpt>
      <trkpt lat="46.20275" lon="4.85151">
        <ele>206</ele>
        <time>2017-05-04T13:57:14.000Z</time>
      </trkpt>
      <trkpt lat="46.20275" lon="4.85151">
        <ele>206</ele>
        <time>2017-05-04T13:57:15.000Z</time>
      </trkpt>
      <trkpt lat="46.20276" lon="4.85151">
        <ele>207</ele>
        <time>2017-05-04T13:57:16.000Z</time>
      </trkpt>
      <trkpt lat="46.20276" lon="4.85151">
        <ele>207</ele>
        <time>2017-05-04T13:57:17.000Z</time>
      </trkpt>
      <trkpt lat="46.20276" lon="4.85151">
        <ele>207</ele>
        <time>2017-05-04T13:57:18.000Z</time>
      </trkpt>
      <trkpt lat="46.20277" lon="4.85151">
        <ele>207</ele>
        <time>2017-05-04T13:57:19.000Z</time>
      </trkpt>
      <trkpt lat="46.20277" lon="4.85151">
        <ele>207</ele>
        <time>2017-05-04T13:57:20.000Z</time>
      </trkpt>
      <trkpt lat="46.20278" lon="4.85151">
        <ele>207</ele>
        <time>2017-05-04T13:57:21.000Z</time>
      </trkpt>
      <trkpt lat="46.20279" lon="4.85151">
        <ele>207</ele>
        <time>2017-05-04T13:57:22.000Z</time>
      </trkpt>
      <trkpt lat="46.2028" lon="4.85151">
        <ele>206</ele>
        <time>2017-05-04T13:57:23.000Z</time>
      </trkpt>
      <trkpt lat="46.20281" lon="4.85151">
        <ele>206</ele>
        <time>2017-05-04T13:57:24.000Z</time>
      </trkpt>
      <trkpt lat="46.20282" lon="4.85151">
        <ele>206</ele>
        <time>2017-05-04T13:57:25.000Z</time>
      </trkpt>
      <trkpt lat="46.20283" lon="4.85152">
        <ele>206</ele>
        <time>2017-05-04T13:57:26.000Z</time>
      </trkpt>
      <trkpt lat="46.20284" lon="4.85152">
        <ele>205</ele>
        <time>2017-05-04T13:57:27.000Z</time>
      </trkpt>
      <trkpt lat="46.20285" lon="4.85152">
        <ele>205</ele>
        <time>2017-05-04T13:57:28.000Z</time>
      </trkpt>
      <trkpt lat="46.20286" lon="4.85152">
        <ele>205</ele>
        <time>2017-05-04T13:57:29.000Z</time>
      </trkpt>
      <trkpt lat="46.20287" lon="4.85152">
        <ele>205</ele>
        <time>2017-05-04T13:57:30.000Z</time>
      </trkpt>
      <trkpt lat="46.20288" lon="4.85152">
        <ele>205</ele>
        <time>2017-05-04T13:57:31.000Z</time>
      </trkpt>
      <trkpt lat="46.20289" lon="4.85152">
        <ele>205</ele>
        <time>2017-05-04T13:57:32.000Z</time>
      </trkpt>
      <trkpt lat="46.2029" lon="4.85152">
        <ele>205</ele>
        <time>2017-05-04T13:57:33.000Z</time>
      </trkpt>
      <trkpt lat="46.20292" lon="4.85152">
        <ele>205</ele>
        <time>2017-05-04T13:57:34.000Z</time>
      </trkpt>
      <trkpt lat="46.20293" lon="4.85152">
        <ele>205</ele>
        <time>2017-05-04T13:57:35.000Z</time>
      </trkpt>
      <trkpt lat="46.20294" lon="4.85152">
        <ele>205</ele>
        <time>2017-05-04T13:57:36.000Z</time>
      </trkpt>
      <trkpt lat="46.20295" lon="4.85153">
        <ele>204</ele>
        <time>2017-05-04T13:57:37.000Z</time>
      </trkpt>
      <trkpt lat="46.20296" lon="4.85153">
        <ele>205</ele>
        <time>2017-05-04T13:57:38.000Z</time>
      </trkpt>
      <trkpt lat="46.20297" lon="4.85153">
        <ele>204</ele>
        <time>2017-05-04T13:57:39.000Z</time>
      </trkpt>
      <trkpt lat="46.20298" lon="4.85153">
        <ele>204</ele>
        <time>2017-05-04T13:57:40.000Z</time>
      </trkpt>
      <trkpt lat="46.20299" lon="4.85152">
        <ele>204</ele>
        <time>2017-05-04T13:57:41.000Z</time>
      </trkpt>
      <trkpt lat="46.203" lon="4.85152">
        <ele>204</ele>
        <time>2017-05-04T13:57:42.000Z</time>
      </trkpt>
      <trkpt lat="46.20301" lon="4.85152">
        <ele>204</ele>
        <time>2017-05-04T13:57:43.000Z</time>
      </trkpt>
      <trkpt lat="46.20302" lon="4.85152">
        <ele>204</ele>
        <time>2017-05-04T13:57:44.000Z</time>
      </trkpt>
      <trkpt lat="46.20303" lon="4.85152">
        <ele>204</ele>
        <time>2017-05-04T13:57:45.000Z</time>
      </trkpt>
      <trkpt lat="46.20304" lon="4.85152">
        <ele>204</ele>
        <time>2017-05-04T13:57:46.000Z</time>
      </trkpt>
      <trkpt lat="46.20305" lon="4.85152">
        <ele>203</ele>
        <time>2017-05-04T13:57:47.000Z</time>
      </trkpt>
      <trkpt lat="46.20306" lon="4.85153">
        <ele>204</ele>
        <time>2017-05-04T13:57:48.000Z</time>
      </trkpt>
      <trkpt lat="46.20307" lon="4.85153">
        <ele>203</ele>
        <time>2017-05-04T13:57:49.000Z</time>
      </trkpt>
      <trkpt lat="46.20307" lon="4.85153">
        <ele>203</ele>
        <time>2017-05-04T13:57:50.000Z</time>
      </trkpt>
      <trkpt lat="46.20308" lon="4.85154">
        <ele>202</ele>
        <time>2017-05-04T13:57:51.000Z</time>
      </trkpt>
      <trkpt lat="46.20309" lon="4.85154">
        <ele>202</ele>
        <time>2017-05-04T13:57:52.000Z</time>
      </trkpt>
      <trkpt lat="46.2031" lon="4.85155">
        <ele>202</ele>
        <time>2017-05-04T13:57:53.000Z</time>
      </trkpt>
      <trkpt lat="46.2031" lon="4.85155">
        <ele>201</ele>
        <time>2017-05-04T13:57:54.000Z</time>
      </trkpt>
      <trkpt lat="46.20311" lon="4.85156">
        <ele>200</ele>
        <time>2017-05-04T13:57:55.000Z</time>
      </trkpt>
      <trkpt lat="46.20311" lon="4.85157">
        <ele>200</ele>
        <time>2017-05-04T13:57:56.000Z</time>
      </trkpt>
      <trkpt lat="46.20312" lon="4.85158">
        <ele>199</ele>
        <time>2017-05-04T13:57:57.000Z</time>
      </trkpt>
      <trkpt lat="46.20312" lon="4.85159">
        <ele>199</ele>
        <time>2017-05-04T13:57:58.000Z</time>
      </trkpt>
      <trkpt lat="46.20313" lon="4.85161">
        <ele>199</ele>
        <time>2017-05-04T13:57:59.000Z</time>
      </trkpt>
      <trkpt lat="46.20313" lon="4.85162">
        <ele>199</ele>
        <time>2017-05-04T13:58:00.000Z</time>
      </trkpt>
      <trkpt lat="46.20314" lon="4.85164">
        <ele>199</ele>
        <time>2017-05-04T13:58:01.000Z</time>
      </trkpt>
      <trkpt lat="46.20314" lon="4.85165">
        <ele>199</ele>
        <time>2017-05-04T13:58:02.000Z</time>
      </trkpt>
      <trkpt lat="46.20315" lon="4.85167">
        <ele>199</ele>
        <time>2017-05-04T13:58:03.000Z</time>
      </trkpt>
      <trkpt lat="46.20315" lon="4.85168">
        <ele>199</ele>
        <time>2017-05-04T13:58:04.000Z</time>
      </trkpt>
      <trkpt lat="46.20316" lon="4.8517">
        <ele>200</ele>
        <time>2017-05-04T13:58:05.000Z</time>
      </trkpt>
      <trkpt lat="46.20316" lon="4.85171">
        <ele>200</ele>
        <time>2017-05-04T13:58:06.000Z</time>
      </trkpt>
      <trkpt lat="46.20317" lon="4.85173">
        <ele>199</ele>
        <time>2017-05-04T13:58:07.000Z</time>
      </trkpt>
      <trkpt lat="46.20317" lon="4.85174">
        <ele>200</ele>
        <time>2017-05-04T13:58:08.000Z</time>
      </trkpt>
      <trkpt lat="46.20317" lon="4.85176">
        <ele>200</ele>
        <time>2017-05-04T13:58:09.000Z</time>
      </trkpt>
      <trkpt lat="46.20318" lon="4.85178">
        <ele>200</ele>
        <time>2017-05-04T13:58:10.000Z</time>
      </trkpt>
      <trkpt lat="46.20318" lon="4.85179">
        <ele>200</ele>
        <time>2017-05-04T13:58:11.000Z</time>
      </trkpt>
      <trkpt lat="46.20318" lon="4.85181">
        <ele>200</ele>
        <time>2017-05-04T13:58:12.000Z</time>
      </trkpt>
      <trkpt lat="46.20319" lon="4.85182">
        <ele>200</ele>
        <time>2017-05-04T13:58:13.000Z</time>
      </trkpt>
      <trkpt lat="46.20319" lon="4.85184">
        <ele>200</ele>
        <time>2017-05-04T13:58:14.000Z</time>
      </trkpt>
      <trkpt lat="46.2032" lon="4.85185">
        <ele>201</ele>
        <time>2017-05-04T13:58:15.000Z</time>
      </trkpt>
      <trkpt lat="46.2032" lon="4.85187">
        <ele>201</ele>
        <time>2017-05-04T13:58:16.000Z</time>
      </trkpt>
      <trkpt lat="46.2032" lon="4.85188">
        <ele>201</ele>
        <time>2017-05-04T13:58:17.000Z</time>
      </trkpt>
      <trkpt lat="46.20321" lon="4.8519">
        <ele>201</ele>
        <time>2017-05-04T13:58:18.000Z</time>
      </trkpt>
      <trkpt lat="46.20321" lon="4.85191">
        <ele>201</ele>
        <time>2017-05-04T13:58:19.000Z</time>
      </trkpt>
      <trkpt lat="46.20322" lon="4.85193">
        <ele>201</ele>
        <time>2017-05-04T13:58:20.000Z</time>
      </trkpt>
      <trkpt lat="46.20322" lon="4.85195">
        <ele>201</ele>
        <time>2017-05-04T13:58:21.000Z</time>
      </trkpt>
      <trkpt lat="46.20322" lon="4.85196">
        <ele>201</ele>
        <time>2017-05-04T13:58:22.000Z</time>
      </trkpt>
      <trkpt lat="46.20322" lon="4.85198">
        <ele>201</ele>
        <time>2017-05-04T13:58:23.000Z</time>
      </trkpt>
      <trkpt lat="46.20323" lon="4.852">
        <ele>201</ele>
        <time>2017-05-04T13:58:24.000Z</time>
      </trkpt>
      <trkpt lat="46.20323" lon="4.85201">
        <ele>201</ele>
        <time>2017-05-04T13:58:25.000Z</time>
      </trkpt>
      <trkpt lat="46.20323" lon="4.85203">
        <ele>200</ele>
        <time>2017-05-04T13:58:26.000Z</time>
      </trkpt>
      <trkpt lat="46.20323" lon="4.85204">
        <ele>201</ele>
        <time>2017-05-04T13:58:27.000Z</time>
      </trkpt>
      <trkpt lat="46.20323" lon="4.85206">
        <ele>201</ele>
        <time>2017-05-04T13:58:28.000Z</time>
      </trkpt>
      <trkpt lat="46.20324" lon="4.85207">
        <ele>201</ele>
        <time>2017-05-04T13:58:29.000Z</time>
      </trkpt>
      <trkpt lat="46.20324" lon="4.85209">
        <ele>201</ele>
        <time>2017-05-04T13:58:30.000Z</time>
      </trkpt>
      <trkpt lat="46.20324" lon="4.85211">
        <ele>201</ele>
        <time>2017-05-04T13:58:31.000Z</time>
      </trkpt>
      <trkpt lat="46.20324" lon="4.85212">
        <ele>200</ele>
        <time>2017-05-04T13:58:32.000Z</time>
      </trkpt>
      <trkpt lat="46.20324" lon="4.85213">
        <ele>201</ele>
        <time>2017-05-04T13:58:33.000Z</time>
      </trkpt>
      <trkpt lat="46.20324" lon="4.85215">
        <ele>201</ele>
        <time>2017-05-04T13:58:34.000Z</time>
      </trkpt>
      <trkpt lat="46.20325" lon="4.85216">
        <ele>201</ele>
        <time>2017-05-04T13:58:35.000Z</time>
      </trkpt>
      <trkpt lat="46.20325" lon="4.85218">
        <ele>201</ele>
        <time>2017-05-04T13:58:36.000Z</time>
      </trkpt>
      <trkpt lat="46.20325" lon="4.85219">
        <ele>200</ele>
        <time>2017-05-04T13:58:37.000Z</time>
      </trkpt>
      <trkpt lat="46.20325" lon="4.85221">
        <ele>200</ele>
        <time>2017-05-04T13:58:38.000Z</time>
      </trkpt>
      <trkpt lat="46.20325" lon="4.85222">
        <ele>201</ele>
        <time>2017-05-04T13:58:39.000Z</time>
      </trkpt>
      <trkpt lat="46.20325" lon="4.85224">
        <ele>201</ele>
        <time>2017-05-04T13:58:40.000Z</time>
      </trkpt>
      <trkpt lat="46.20325" lon="4.85225">
        <ele>201</ele>
        <time>2017-05-04T13:58:41.000Z</time>
      </trkpt>
      <trkpt lat="46.20325" lon="4.85227">
        <ele>201</ele>
        <time>2017-05-04T13:58:42.000Z</time>
      </trkpt>
      <trkpt lat="46.20325" lon="4.85229">
        <ele>201</ele>
        <time>2017-05-04T13:58:43.000Z</time>
      </trkpt>
      <trkpt lat="46.20326" lon="4.8523">
        <ele>201</ele>
        <time>2017-05-04T13:58:44.000Z</time>
      </trkpt>
      <trkpt lat="46.20326" lon="4.85232">
        <ele>201</ele>
        <time>2017-05-04T13:58:45.000Z</time>
      </trkpt>
      <trkpt lat="46.20326" lon="4.85233">
        <ele>200</ele>
        <time>2017-05-04T13:58:46.000Z</time>
      </trkpt>
      <trkpt lat="46.20326" lon="4.85234">
        <ele>200</ele>
        <time>2017-05-04T13:58:47.000Z</time>
      </trkpt>
      <trkpt lat="46.20327" lon="4.85236">
        <ele>200</ele>
        <time>2017-05-04T13:58:48.000Z</time>
      </trkpt>
      <trkpt lat="46.20327" lon="4.85237">
        <ele>200</ele>
        <time>2017-05-04T13:58:49.000Z</time>
      </trkpt>
      <trkpt lat="46.20327" lon="4.85238">
        <ele>200</ele>
        <time>2017-05-04T13:58:50.000Z</time>
      </trkpt>
      <trkpt lat="46.20327" lon="4.8524">
        <ele>200</ele>
        <time>2017-05-04T13:58:51.000Z</time>
      </trkpt>
      <trkpt lat="46.20327" lon="4.85241">
        <ele>200</ele>
        <time>2017-05-04T13:58:52.000Z</time>
      </trkpt>
      <trkpt lat="46.20328" lon="4.85242">
        <ele>199</ele>
        <time>2017-05-04T13:58:53.000Z</time>
      </trkpt>
      <trkpt lat="46.20328" lon="4.85243">
        <ele>199</ele>
        <time>2017-05-04T13:58:54.000Z</time>
      </trkpt>
      <trkpt lat="46.20328" lon="4.85244">
        <ele>198</ele>
        <time>2017-05-04T13:58:55.000Z</time>
      </trkpt>
      <trkpt lat="46.20329" lon="4.85245">
        <ele>197</ele>
        <time>2017-05-04T13:58:56.000Z</time>
      </trkpt>
      <trkpt lat="46.20329" lon="4.85246">
        <ele>197</ele>
        <time>2017-05-04T13:58:57.000Z</time>
      </trkpt>
      <trkpt lat="46.20329" lon="4.85247">
        <ele>197</ele>
        <time>2017-05-04T13:58:58.000Z</time>
      </trkpt>
      <trkpt lat="46.20329" lon="4.85248">
        <ele>197</ele>
        <time>2017-05-04T13:58:59.000Z</time>
      </trkpt>
      <trkpt lat="46.2033" lon="4.85249">
        <ele>197</ele>
        <time>2017-05-04T13:59:00.000Z</time>
      </trkpt>
      <trkpt lat="46.2033" lon="4.85251">
        <ele>196</ele>
        <time>2017-05-04T13:59:01.000Z</time>
      </trkpt>
      <trkpt lat="46.2033" lon="4.85252">
        <ele>196</ele>
        <time>2017-05-04T13:59:02.000Z</time>
      </trkpt>
      <trkpt lat="46.2033" lon="4.85253">
        <ele>196</ele>
        <time>2017-05-04T13:59:03.000Z</time>
      </trkpt>
      <trkpt lat="46.20331" lon="4.85254">
        <ele>196</ele>
        <time>2017-05-04T13:59:04.000Z</time>
      </trkpt>
      <trkpt lat="46.20331" lon="4.85255">
        <ele>196</ele>
        <time>2017-05-04T13:59:05.000Z</time>
      </trkpt>
      <trkpt lat="46.20331" lon="4.85256">
        <ele>195</ele>
        <time>2017-05-04T13:59:06.000Z</time>
      </trkpt>
      <trkpt lat="46.20332" lon="4.85258">
        <ele>195</ele>
        <time>2017-05-04T13:59:07.000Z</time>
      </trkpt>
      <trkpt lat="46.20332" lon="4.85259">
        <ele>195</ele>
        <time>2017-05-04T13:59:08.000Z</time>
      </trkpt>
      <trkpt lat="46.20333" lon="4.8526">
        <ele>194</ele>
        <time>2017-05-04T13:59:09.000Z</time>
      </trkpt>
      <trkpt lat="46.20333" lon="4.85262">
        <ele>193</ele>
        <time>2017-05-04T13:59:10.000Z</time>
      </trkpt>
      <trkpt lat="46.20334" lon="4.85263">
        <ele>193</ele>
        <time>2017-05-04T13:59:11.000Z</time>
      </trkpt>
      <trkpt lat="46.20334" lon="4.85264">
        <ele>193</ele>
        <time>2017-05-04T13:59:12.000Z</time>
      </trkpt>
      <trkpt lat="46.20334" lon="4.85266">
        <ele>193</ele>
        <time>2017-05-04T13:59:13.000Z</time>
      </trkpt>
      <trkpt lat="46.20335" lon="4.85267">
        <ele>193</ele>
        <time>2017-05-04T13:59:14.000Z</time>
      </trkpt>
      <trkpt lat="46.20335" lon="4.85269">
        <ele>195</ele>
        <time>2017-05-04T13:59:15.000Z</time>
      </trkpt>
      <trkpt lat="46.20335" lon="4.85271">
        <ele>195</ele>
        <time>2017-05-04T13:59:16.000Z</time>
      </trkpt>
      <trkpt lat="46.20335" lon="4.85273">
        <ele>195</ele>
        <time>2017-05-04T13:59:17.000Z</time>
      </trkpt>
      <trkpt lat="46.20336" lon="4.85275">
        <ele>195</ele>
        <time>2017-05-04T13:59:18.000Z</time>
      </trkpt>
      <trkpt lat="46.20336" lon="4.85277">
        <ele>196</ele>
        <time>2017-05-04T13:59:19.000Z</time>
      </trkpt>
      <trkpt lat="46.20337" lon="4.85278">
        <ele>196</ele>
        <time>2017-05-04T13:59:20.000Z</time>
      </trkpt>
      <trkpt lat="46.20338" lon="4.85279">
        <ele>196</ele>
        <time>2017-05-04T13:59:21.000Z</time>
      </trkpt>
      <trkpt lat="46.20339" lon="4.8528">
        <ele>196</ele>
        <time>2017-05-04T13:59:22.000Z</time>
      </trkpt>
      <trkpt lat="46.2034" lon="4.85281">
        <ele>196</ele>
        <time>2017-05-04T13:59:23.000Z</time>
      </trkpt>
      <trkpt lat="46.20341" lon="4.85281">
        <ele>196</ele>
        <time>2017-05-04T13:59:24.000Z</time>
      </trkpt>
      <trkpt lat="46.20342" lon="4.85282">
        <ele>196</ele>
        <time>2017-05-04T13:59:25.000Z</time>
      </trkpt>
      <trkpt lat="46.20343" lon="4.85282">
        <ele>195</ele>
        <time>2017-05-04T13:59:26.000Z</time>
      </trkpt>
      <trkpt lat="46.20344" lon="4.85282">
        <ele>195</ele>
        <time>2017-05-04T13:59:27.000Z</time>
      </trkpt>
      <trkpt lat="46.20345" lon="4.85282">
        <ele>195</ele>
        <time>2017-05-04T13:59:28.000Z</time>
      </trkpt>
      <trkpt lat="46.20346" lon="4.85282">
        <ele>195</ele>
        <time>2017-05-04T13:59:29.000Z</time>
      </trkpt>
      <trkpt lat="46.20347" lon="4.85282">
        <ele>195</ele>
        <time>2017-05-04T13:59:30.000Z</time>
      </trkpt>
      <trkpt lat="46.20348" lon="4.85282">
        <ele>195</ele>
        <time>2017-05-04T13:59:31.000Z</time>
      </trkpt>
      <trkpt lat="46.2035" lon="4.85282">
        <ele>195</ele>
        <time>2017-05-04T13:59:32.000Z</time>
      </trkpt>
      <trkpt lat="46.20351" lon="4.85282">
        <ele>195</ele>
        <time>2017-05-04T13:59:33.000Z</time>
      </trkpt>
      <trkpt lat="46.20352" lon="4.85282">
        <ele>195</ele>
        <time>2017-05-04T13:59:34.000Z</time>
      </trkpt>
      <trkpt lat="46.20353" lon="4.85282">
        <ele>195</ele>
        <time>2017-05-04T13:59:35.000Z</time>
      </trkpt>
      <trkpt lat="46.20354" lon="4.85282">
        <ele>195</ele>
        <time>2017-05-04T13:59:36.000Z</time>
      </trkpt>
      <trkpt lat="46.20355" lon="4.85281">
        <ele>195</ele>
        <time>2017-05-04T13:59:37.000Z</time>
      </trkpt>
      <trkpt lat="46.20356" lon="4.85281">
        <ele>195</ele>
        <time>2017-05-04T13:59:38.000Z</time>
      </trkpt>
      <trkpt lat="46.20358" lon="4.85281">
        <ele>195</ele>
        <time>2017-05-04T13:59:39.000Z</time>
      </trkpt>
      <trkpt lat="46.20359" lon="4.85281">
        <ele>195</ele>
        <time>2017-05-04T13:59:40.000Z</time>
      </trkpt>
      <trkpt lat="46.2036" lon="4.85281">
        <ele>195</ele>
        <time>2017-05-04T13:59:41.000Z</time>
      </trkpt>
      <trkpt lat="46.20361" lon="4.85281">
        <ele>195</ele>
        <time>2017-05-04T13:59:42.000Z</time>
      </trkpt>
      <trkpt lat="46.20362" lon="4.85281">
        <ele>195</ele>
        <time>2017-05-04T13:59:43.000Z</time>
      </trkpt>
      <trkpt lat="46.20363" lon="4.85281">
        <ele>195</ele>
        <time>2017-05-04T13:59:44.000Z</time>
      </trkpt>
      <trkpt lat="46.20364" lon="4.85281">
        <ele>195</ele>
        <time>2017-05-04T13:59:45.000Z</time>
      </trkpt>
      <trkpt lat="46.20365" lon="4.85281">
        <ele>195</ele>
        <time>2017-05-04T13:59:46.000Z</time>
      </trkpt>
      <trkpt lat="46.20366" lon="4.8528">
        <ele>195</ele>
        <time>2017-05-04T13:59:47.000Z</time>
      </trkpt>
      <trkpt lat="46.20367" lon="4.8528">
        <ele>195</ele>
        <time>2017-05-04T13:59:48.000Z</time>
      </trkpt>
      <trkpt lat="46.20368" lon="4.8528">
        <ele>195</ele>
        <time>2017-05-04T13:59:49.000Z</time>
      </trkpt>
      <trkpt lat="46.20368" lon="4.85281">
        <ele>194</ele>
        <time>2017-05-04T13:59:50.000Z</time>
      </trkpt>
      <trkpt lat="46.20369" lon="4.85281">
        <ele>194</ele>
        <time>2017-05-04T13:59:51.000Z</time>
      </trkpt>
      <trkpt lat="46.2037" lon="4.85281">
        <ele>194</ele>
        <time>2017-05-04T13:59:52.000Z</time>
      </trkpt>
      <trkpt lat="46.20371" lon="4.85281">
        <ele>194</ele>
        <time>2017-05-04T13:59:53.000Z</time>
      </trkpt>
      <trkpt lat="46.20372" lon="4.85281">
        <ele>194</ele>
        <time>2017-05-04T13:59:54.000Z</time>
      </trkpt>
      <trkpt lat="46.20373" lon="4.85281">
        <ele>194</ele>
        <time>2017-05-04T13:59:55.000Z</time>
      </trkpt>
      <trkpt lat="46.20373" lon="4.85281">
        <ele>194</ele>
        <time>2017-05-04T13:59:56.000Z</time>
      </trkpt>
      <trkpt lat="46.20374" lon="4.85281">
        <ele>194</ele>
        <time>2017-05-04T13:59:57.000Z</time>
      </trkpt>
      <trkpt lat="46.20375" lon="4.8528">
        <ele>194</ele>
        <time>2017-05-04T13:59:58.000Z</time>
      </trkpt>
      <trkpt lat="46.20376" lon="4.8528">
        <ele>194</ele>
        <time>2017-05-04T13:59:59.000Z</time>
      </trkpt>
      <trkpt lat="46.20377" lon="4.8528">
        <ele>194</ele>
        <time>2017-05-04T14:00:00.000Z</time>
      </trkpt>
      <trkpt lat="46.20377" lon="4.8528">
        <ele>194</ele>
        <time>2017-05-04T14:00:01.000Z</time>
      </trkpt>
      <trkpt lat="46.20378" lon="4.8528">
        <ele>194</ele>
        <time>2017-05-04T14:00:02.000Z</time>
      </trkpt>
      <trkpt lat="46.20379" lon="4.8528">
        <ele>193</ele>
        <time>2017-05-04T14:00:03.000Z</time>
      </trkpt>
      <trkpt lat="46.2038" lon="4.8528">
        <ele>193</ele>
        <time>2017-05-04T14:00:04.000Z</time>
      </trkpt>
      <trkpt lat="46.20381" lon="4.85279">
        <ele>193</ele>
        <time>2017-05-04T14:00:05.000Z</time>
      </trkpt>
      <trkpt lat="46.20382" lon="4.85279">
        <ele>192</ele>
        <time>2017-05-04T14:00:06.000Z</time>
      </trkpt>
      <trkpt lat="46.20383" lon="4.85279">
        <ele>192</ele>
        <time>2017-05-04T14:00:07.000Z</time>
      </trkpt>
      <trkpt lat="46.20384" lon="4.85279">
        <ele>192</ele>
        <time>2017-05-04T14:00:08.000Z</time>
      </trkpt>
      <trkpt lat="46.20384" lon="4.85278">
        <ele>192</ele>
        <time>2017-05-04T14:00:09.000Z</time>
      </trkpt>
      <trkpt lat="46.20385" lon="4.85278">
        <ele>192</ele>
        <time>2017-05-04T14:00:10.000Z</time>
      </trkpt>
      <trkpt lat="46.20386" lon="4.85278">
        <ele>192</ele>
        <time>2017-05-04T14:00:11.000Z</time>
      </trkpt>
      <trkpt lat="46.20387" lon="4.85278">
        <ele>191</ele>
        <time>2017-05-04T14:00:12.000Z</time>
      </trkpt>
      <trkpt lat="46.20388" lon="4.85278">
        <ele>191</ele>
        <time>2017-05-04T14:00:13.000Z</time>
      </trkpt>
      <trkpt lat="46.20389" lon="4.85278">
        <ele>191</ele>
        <time>2017-05-04T14:00:14.000Z</time>
      </trkpt>
      <trkpt lat="46.20389" lon="4.85278">
        <ele>191</ele>
        <time>2017-05-04T14:00:15.000Z</time>
      </trkpt>
      <trkpt lat="46.2039" lon="4.85278">
        <ele>191</ele>
        <time>2017-05-04T14:00:16.000Z</time>
      </trkpt>
      <trkpt lat="46.20391" lon="4.85278">
        <ele>190</ele>
        <time>2017-05-04T14:00:17.000Z</time>
      </trkpt>
      <trkpt lat="46.20392" lon="4.85278">
        <ele>190</ele>
        <time>2017-05-04T14:00:18.000Z</time>
      </trkpt>
      <trkpt lat="46.20394" lon="4.85278">
        <ele>190</ele>
        <time>2017-05-04T14:00:19.000Z</time>
      </trkpt>
      <trkpt lat="46.20396" lon="4.85278">
        <ele>191</ele>
        <time>2017-05-04T14:00:20.000Z</time>
      </trkpt>
      <trkpt lat="46.20397" lon="4.85278">
        <ele>191</ele>
        <time>2017-05-04T14:00:21.000Z</time>
      </trkpt>
      <trkpt lat="46.20399" lon="4.85278">
        <ele>191</ele>
        <time>2017-05-04T14:00:22.000Z</time>
      </trkpt>
      <trkpt lat="46.204" lon="4.85277">
        <ele>191</ele>
        <time>2017-05-04T14:00:23.000Z</time>
      </trkpt>
      <trkpt lat="46.20402" lon="4.85277">
        <ele>191</ele>
        <time>2017-05-04T14:00:24.000Z</time>
      </trkpt>
      <trkpt lat="46.20403" lon="4.85277">
        <ele>191</ele>
        <time>2017-05-04T14:00:25.000Z</time>
      </trkpt>
      <trkpt lat="46.20404" lon="4.85277">
        <ele>191</ele>
        <time>2017-05-04T14:00:26.000Z</time>
      </trkpt>
      <trkpt lat="46.20405" lon="4.85277">
        <ele>191</ele>
        <time>2017-05-04T14:00:27.000Z</time>
      </trkpt>
      <trkpt lat="46.20406" lon="4.85277">
        <ele>191</ele>
        <time>2017-05-04T14:00:28.000Z</time>
      </trkpt>
      <trkpt lat="46.20407" lon="4.85277">
        <ele>190</ele>
        <time>2017-05-04T14:00:29.000Z</time>
      </trkpt>
      <trkpt lat="46.20409" lon="4.85277">
        <ele>191</ele>
        <time>2017-05-04T14:00:30.000Z</time>
      </trkpt>
      <trkpt lat="46.2041" lon="4.85277">
        <ele>190</ele>
        <time>2017-05-04T14:00:31.000Z</time>
      </trkpt>
      <trkpt lat="46.20411" lon="4.85277">
        <ele>190</ele>
        <time>2017-05-04T14:00:32.000Z</time>
      </trkpt>
      <trkpt lat="46.20412" lon="4.85277">
        <ele>190</ele>
        <time>2017-05-04T14:00:33.000Z</time>
      </trkpt>
      <trkpt lat="46.20413" lon="4.85277">
        <ele>190</ele>
        <time>2017-05-04T14:00:34.000Z</time>
      </trkpt>
      <trkpt lat="46.20414" lon="4.85277">
        <ele>190</ele>
        <time>2017-05-04T14:00:35.000Z</time>
      </trkpt>
      <trkpt lat="46.20415" lon="4.85277">
        <ele>190</ele>
        <time>2017-05-04T14:00:36.000Z</time>
      </trkpt>
      <trkpt lat="46.20416" lon="4.85277">
        <ele>189</ele>
        <time>2017-05-04T14:00:37.000Z</time>
      </trkpt>
      <trkpt lat="46.20418" lon="4.85277">
        <ele>189</ele>
        <time>2017-05-04T14:00:38.000Z</time>
      </trkpt>
      <trkpt lat="46.20419" lon="4.85276">
        <ele>189</ele>
        <time>2017-05-04T14:00:39.000Z</time>
      </trkpt>
      <trkpt lat="46.2042" lon="4.85276">
        <ele>189</ele>
        <time>2017-05-04T14:00:40.000Z</time>
      </trkpt>
      <trkpt lat="46.20421" lon="4.85276">
        <ele>189</ele>
        <time>2017-05-04T14:00:41.000Z</time>
      </trkpt>
      <trkpt lat="46.20422" lon="4.85276">
        <ele>189</ele>
        <time>2017-05-04T14:00:42.000Z</time>
      </trkpt>
      <trkpt lat="46.20423" lon="4.85276">
        <ele>189</ele>
        <time>2017-05-04T14:00:43.000Z</time>
      </trkpt>
      <trkpt lat="46.20425" lon="4.85276">
        <ele>190</ele>
        <time>2017-05-04T14:00:44.000Z</time>
      </trkpt>
      <trkpt lat="46.20426" lon="4.85275">
        <ele>190</ele>
        <time>2017-05-04T14:00:45.000Z</time>
      </trkpt>
      <trkpt lat="46.20427" lon="4.85275">
        <ele>190</ele>
        <time>2017-05-04T14:00:46.000Z</time>
      </trkpt>
      <trkpt lat="46.20429" lon="4.85275">
        <ele>190</ele>
        <time>2017-05-04T14:00:47.000Z</time>
      </trkpt>
      <trkpt lat="46.2043" lon="4.85275">
        <ele>190</ele>
        <time>2017-05-04T14:00:48.000Z</time>
      </trkpt>
      <trkpt lat="46.20431" lon="4.85275">
        <ele>189</ele>
        <time>2017-05-04T14:00:49.000Z</time>
      </trkpt>
      <trkpt lat="46.20432" lon="4.85275">
        <ele>190</ele>
        <time>2017-05-04T14:00:50.000Z</time>
      </trkpt>
      <trkpt lat="46.20433" lon="4.85275">
        <ele>190</ele>
        <time>2017-05-04T14:00:51.000Z</time>
      </trkpt>
      <trkpt lat="46.20434" lon="4.85275">
        <ele>189</ele>
        <time>2017-05-04T14:00:52.000Z</time>
      </trkpt>
      <trkpt lat="46.20436" lon="4.85275">
        <ele>189</ele>
        <time>2017-05-04T14:00:53.000Z</time>
      </trkpt>
      <trkpt lat="46.20437" lon="4.85275">
        <ele>190</ele>
        <time>2017-05-04T14:00:54.000Z</time>
      </trkpt>
      <trkpt lat="46.20438" lon="4.85276">
        <ele>190</ele>
        <time>2017-05-04T14:00:55.000Z</time>
      </trkpt>
      <trkpt lat="46.20439" lon="4.85276">
        <ele>190</ele>
        <time>2017-05-04T14:00:56.000Z</time>
      </trkpt>
      <trkpt lat="46.20441" lon="4.85276">
        <ele>190</ele>
        <time>2017-05-04T14:00:57.000Z</time>
      </trkpt>
      <trkpt lat="46.20442" lon="4.85276">
        <ele>190</ele>
        <time>2017-05-04T14:00:58.000Z</time>
      </trkpt>
      <trkpt lat="46.20443" lon="4.85276">
        <ele>190</ele>
        <time>2017-05-04T14:00:59.000Z</time>
      </trkpt>
      <trkpt lat="46.20444" lon="4.85276">
        <ele>190</ele>
        <time>2017-05-04T14:01:00.000Z</time>
      </trkpt>
      <trkpt lat="46.20445" lon="4.85276">
        <ele>190</ele>
        <time>2017-05-04T14:01:01.000Z</time>
      </trkpt>
      <trkpt lat="46.20446" lon="4.85276">
        <ele>189</ele>
        <time>2017-05-04T14:01:02.000Z</time>
      </trkpt>
      <trkpt lat="46.20447" lon="4.85276">
        <ele>189</ele>
        <time>2017-05-04T14:01:03.000Z</time>
      </trkpt>
      <trkpt lat="46.20448" lon="4.85276">
        <ele>189</ele>
        <time>2017-05-04T14:01:04.000Z</time>
      </trkpt>
      <trkpt lat="46.20449" lon="4.85276">
        <ele>189</ele>
        <time>2017-05-04T14:01:05.000Z</time>
      </trkpt>
      <trkpt lat="46.2045" lon="4.85276">
        <ele>189</ele>
        <time>2017-05-04T14:01:06.000Z</time>
      </trkpt>
      <trkpt lat="46.20451" lon="4.85275">
        <ele>189</ele>
        <time>2017-05-04T14:01:07.000Z</time>
      </trkpt>
      <trkpt lat="46.20453" lon="4.85275">
        <ele>189</ele>
        <time>2017-05-04T14:01:08.000Z</time>
      </trkpt>
      <trkpt lat="46.20454" lon="4.85275">
        <ele>189</ele>
        <time>2017-05-04T14:01:09.000Z</time>
      </trkpt>
      <trkpt lat="46.20455" lon="4.85275">
        <ele>189</ele>
        <time>2017-05-04T14:01:10.000Z</time>
      </trkpt>
      <trkpt lat="46.20457" lon="4.85275">
        <ele>189</ele>
        <time>2017-05-04T14:01:11.000Z</time>
      </trkpt>
      <trkpt lat="46.20458" lon="4.85274">
        <ele>188</ele>
        <time>2017-05-04T14:01:12.000Z</time>
      </trkpt>
      <trkpt lat="46.20459" lon="4.85274">
        <ele>188</ele>
        <time>2017-05-04T14:01:13.000Z</time>
      </trkpt>
      <trkpt lat="46.2046" lon="4.85274">
        <ele>187</ele>
        <time>2017-05-04T14:01:14.000Z</time>
      </trkpt>
      <trkpt lat="46.20461" lon="4.85274">
        <ele>187</ele>
        <time>2017-05-04T14:01:15.000Z</time>
      </trkpt>
      <trkpt lat="46.20462" lon="4.85274">
        <ele>187</ele>
        <time>2017-05-04T14:01:16.000Z</time>
      </trkpt>
      <trkpt lat="46.20464" lon="4.85274">
        <ele>188</ele>
        <time>2017-05-04T14:01:17.000Z</time>
      </trkpt>
      <trkpt lat="46.20465" lon="4.85275">
        <ele>188</ele>
        <time>2017-05-04T14:01:18.000Z</time>
      </trkpt>
      <trkpt lat="46.20467" lon="4.85275">
        <ele>188</ele>
        <time>2017-05-04T14:01:19.000Z</time>
      </trkpt>
      <trkpt lat="46.20469" lon="4.85275">
        <ele>188</ele>
        <time>2017-05-04T14:01:20.000Z</time>
      </trkpt>
      <trkpt lat="46.2047" lon="4.85276">
        <ele>188</ele>
        <time>2017-05-04T14:01:21.000Z</time>
      </trkpt>
      <trkpt lat="46.20472" lon="4.85276">
        <ele>189</ele>
        <time>2017-05-04T14:01:22.000Z</time>
      </trkpt>
      <trkpt lat="46.20473" lon="4.85277">
        <ele>189</ele>
        <time>2017-05-04T14:01:23.000Z</time>
      </trkpt>
      <trkpt lat="46.20475" lon="4.85277">
        <ele>189</ele>
        <time>2017-05-04T14:01:24.000Z</time>
      </trkpt>
      <trkpt lat="46.20476" lon="4.85278">
        <ele>189</ele>
        <time>2017-05-04T14:01:25.000Z</time>
      </trkpt>
      <trkpt lat="46.20478" lon="4.85278">
        <ele>189</ele>
        <time>2017-05-04T14:01:26.000Z</time>
      </trkpt>
      <trkpt lat="46.20479" lon="4.85279">
        <ele>189</ele>
        <time>2017-05-04T14:01:27.000Z</time>
      </trkpt>
      <trkpt lat="46.2048" lon="4.85279">
        <ele>189</ele>
        <time>2017-05-04T14:01:28.000Z</time>
      </trkpt>
      <trkpt lat="46.20481" lon="4.8528">
        <ele>189</ele>
        <time>2017-05-04T14:01:29.000Z</time>
      </trkpt>
      <trkpt lat="46.20483" lon="4.8528">
        <ele>189</ele>
        <time>2017-05-04T14:01:30.000Z</time>
      </trkpt>
      <trkpt lat="46.20484" lon="4.85281">
        <ele>189</ele>
        <time>2017-05-04T14:01:31.000Z</time>
      </trkpt>
      <trkpt lat="46.20485" lon="4.85282">
        <ele>189</ele>
        <time>2017-05-04T14:01:32.000Z</time>
      </trkpt>
      <trkpt lat="46.20487" lon="4.85283">
        <ele>190</ele>
        <time>2017-05-04T14:01:33.000Z</time>
      </trkpt>
      <trkpt lat="46.20488" lon="4.85283">
        <ele>190</ele>
        <time>2017-05-04T14:01:34.000Z</time>
      </trkpt>
      <trkpt lat="46.2049" lon="4.85284">
        <ele>190</ele>
        <time>2017-05-04T14:01:35.000Z</time>
      </trkpt>
      <trkpt lat="46.20491" lon="4.85284">
        <ele>190</ele>
        <time>2017-05-04T14:01:36.000Z</time>
      </trkpt>
      <trkpt lat="46.20492" lon="4.85285">
        <ele>190</ele>
        <time>2017-05-04T14:01:37.000Z</time>
      </trkpt>
      <trkpt lat="46.20494" lon="4.85285">
        <ele>191</ele>
        <time>2017-05-04T14:01:38.000Z</time>
      </trkpt>
      <trkpt lat="46.20495" lon="4.85286">
        <ele>191</ele>
        <time>2017-05-04T14:01:39.000Z</time>
      </trkpt>
      <trkpt lat="46.20496" lon="4.85287">
        <ele>191</ele>
        <time>2017-05-04T14:01:40.000Z</time>
      </trkpt>
      <trkpt lat="46.20497" lon="4.85287">
        <ele>191</ele>
        <time>2017-05-04T14:01:41.000Z</time>
      </trkpt>
      <trkpt lat="46.20499" lon="4.85287">
        <ele>191</ele>
        <time>2017-05-04T14:01:42.000Z</time>
      </trkpt>
      <trkpt lat="46.205" lon="4.85288">
        <ele>191</ele>
        <time>2017-05-04T14:01:43.000Z</time>
      </trkpt>
      <trkpt lat="46.20501" lon="4.85288">
        <ele>191</ele>
        <time>2017-05-04T14:01:44.000Z</time>
      </trkpt>
      <trkpt lat="46.20502" lon="4.85289">
        <ele>191</ele>
        <time>2017-05-04T14:01:45.000Z</time>
      </trkpt>
      <trkpt lat="46.20503" lon="4.8529">
        <ele>191</ele>
        <time>2017-05-04T14:01:46.000Z</time>
      </trkpt>
      <trkpt lat="46.20504" lon="4.8529">
        <ele>191</ele>
        <time>2017-05-04T14:01:47.000Z</time>
      </trkpt>
      <trkpt lat="46.20506" lon="4.85291">
        <ele>191</ele>
        <time>2017-05-04T14:01:48.000Z</time>
      </trkpt>
      <trkpt lat="46.20507" lon="4.85291">
        <ele>191</ele>
        <time>2017-05-04T14:01:49.000Z</time>
      </trkpt>
      <trkpt lat="46.20508" lon="4.85292">
        <ele>191</ele>
        <time>2017-05-04T14:01:50.000Z</time>
      </trkpt>
      <trkpt lat="46.20509" lon="4.85292">
        <ele>191</ele>
        <time>2017-05-04T14:01:51.000Z</time>
      </trkpt>
      <trkpt lat="46.20511" lon="4.85293">
        <ele>191</ele>
        <time>2017-05-04T14:01:52.000Z</time>
      </trkpt>
      <trkpt lat="46.20512" lon="4.85293">
        <ele>191</ele>
        <time>2017-05-04T14:01:53.000Z</time>
      </trkpt>
      <trkpt lat="46.20513" lon="4.85293">
        <ele>191</ele>
        <time>2017-05-04T14:01:54.000Z</time>
      </trkpt>
      <trkpt lat="46.20514" lon="4.85294">
        <ele>191</ele>
        <time>2017-05-04T14:01:55.000Z</time>
      </trkpt>
      <trkpt lat="46.20515" lon="4.85294">
        <ele>191</ele>
        <time>2017-05-04T14:01:56.000Z</time>
      </trkpt>
      <trkpt lat="46.20517" lon="4.85294">
        <ele>190</ele>
        <time>2017-05-04T14:01:57.000Z</time>
      </trkpt>
      <trkpt lat="46.20518" lon="4.85295">
        <ele>191</ele>
        <time>2017-05-04T14:01:58.000Z</time>
      </trkpt>
      <trkpt lat="46.20519" lon="4.85295">
        <ele>191</ele>
        <time>2017-05-04T14:01:59.000Z</time>
      </trkpt>
      <trkpt lat="46.2052" lon="4.85295">
        <ele>191</ele>
        <time>2017-05-04T14:02:00.000Z</time>
      </trkpt>
      <trkpt lat="46.20521" lon="4.85296">
        <ele>190</ele>
        <time>2017-05-04T14:02:01.000Z</time>
      </trkpt>
      <trkpt lat="46.20523" lon="4.85296">
        <ele>190</ele>
        <time>2017-05-04T14:02:02.000Z</time>
      </trkpt>
      <trkpt lat="46.20524" lon="4.85296">
        <ele>190</ele>
        <time>2017-05-04T14:02:03.000Z</time>
      </trkpt>
      <trkpt lat="46.20525" lon="4.85297">
        <ele>190</ele>
        <time>2017-05-04T14:02:04.000Z</time>
      </trkpt>
      <trkpt lat="46.20526" lon="4.85297">
        <ele>190</ele>
        <time>2017-05-04T14:02:05.000Z</time>
      </trkpt>
      <trkpt lat="46.20528" lon="4.85297">
        <ele>190</ele>
        <time>2017-05-04T14:02:06.000Z</time>
      </trkpt>
      <trkpt lat="46.20529" lon="4.85297">
        <ele>190</ele>
        <time>2017-05-04T14:02:07.000Z</time>
      </trkpt>
      <trkpt lat="46.20531" lon="4.85297">
        <ele>190</ele>
        <time>2017-05-04T14:02:08.000Z</time>
      </trkpt>
      <trkpt lat="46.20532" lon="4.85298">
        <ele>190</ele>
        <time>2017-05-04T14:02:09.000Z</time>
      </trkpt>
      <trkpt lat="46.20533" lon="4.85298">
        <ele>190</ele>
        <time>2017-05-04T14:02:10.000Z</time>
      </trkpt>
      <trkpt lat="46.20534" lon="4.85298">
        <ele>190</ele>
        <time>2017-05-04T14:02:11.000Z</time>
      </trkpt>
      <trkpt lat="46.20536" lon="4.85298">
        <ele>190</ele>
        <time>2017-05-04T14:02:12.000Z</time>
      </trkpt>
      <trkpt lat="46.20537" lon="4.85298">
        <ele>190</ele>
        <time>2017-05-04T14:02:13.000Z</time>
      </trkpt>
      <trkpt lat="46.20538" lon="4.85298">
        <ele>190</ele>
        <time>2017-05-04T14:02:14.000Z</time>
      </trkpt>
      <trkpt lat="46.20539" lon="4.85298">
        <ele>190</ele>
        <time>2017-05-04T14:02:15.000Z</time>
      </trkpt>
      <trkpt lat="46.2054" lon="4.85298">
        <ele>190</ele>
        <time>2017-05-04T14:02:16.000Z</time>
      </trkpt>
      <trkpt lat="46.20541" lon="4.85298">
        <ele>190</ele>
        <time>2017-05-04T14:02:17.000Z</time>
      </trkpt>
      <trkpt lat="46.20542" lon="4.85297">
        <ele>190</ele>
        <time>2017-05-04T14:02:18.000Z</time>
      </trkpt>
      <trkpt lat="46.20542" lon="4.85297">
        <ele>190</ele>
        <time>2017-05-04T14:02:19.000Z</time>
      </trkpt>
      <trkpt lat="46.20543" lon="4.85297">
        <ele>190</ele>
        <time>2017-05-04T14:02:20.000Z</time>
      </trkpt>
      <trkpt lat="46.20544" lon="4.85297">
        <ele>190</ele>
        <time>2017-05-04T14:02:21.000Z</time>
      </trkpt>
      <trkpt lat="46.20545" lon="4.85296">
        <ele>190</ele>
        <time>2017-05-04T14:02:22.000Z</time>
      </trkpt>
      <trkpt lat="46.20546" lon="4.85296">
        <ele>190</ele>
        <time>2017-05-04T14:02:23.000Z</time>
      </trkpt>
      <trkpt lat="46.20547" lon="4.85296">
        <ele>191</ele>
        <time>2017-05-04T14:02:24.000Z</time>
      </trkpt>
      <trkpt lat="46.20548" lon="4.85296">
        <ele>191</ele>
        <time>2017-05-04T14:02:25.000Z</time>
      </trkpt>
      <trkpt lat="46.20549" lon="4.85296">
        <ele>191</ele>
        <time>2017-05-04T14:02:26.000Z</time>
      </trkpt>
      <trkpt lat="46.2055" lon="4.85296">
        <ele>191</ele>
        <time>2017-05-04T14:02:27.000Z</time>
      </trkpt>
      <trkpt lat="46.2055" lon="4.85296">
        <ele>191</ele>
        <time>2017-05-04T14:02:28.000Z</time>
      </trkpt>
      <trkpt lat="46.2055" lon="4.85296">
        <ele>191</ele>
        <time>2017-05-04T14:02:29.000Z</time>
      </trkpt>
      <trkpt lat="46.20551" lon="4.85296">
        <ele>191</ele>
        <time>2017-05-04T14:02:30.000Z</time>
      </trkpt>
      <trkpt lat="46.20551" lon="4.85296">
        <ele>191</ele>
        <time>2017-05-04T14:02:31.000Z</time>
      </trkpt>
      <trkpt lat="46.20551" lon="4.85295">
        <ele>191</ele>
        <time>2017-05-04T14:02:32.000Z</time>
      </trkpt>
      <trkpt lat="46.20551" lon="4.85295">
        <ele>190</ele>
        <time>2017-05-04T14:02:33.000Z</time>
      </trkpt>
      <trkpt lat="46.2055" lon="4.85294">
        <ele>190</ele>
        <time>2017-05-04T14:02:34.000Z</time>
      </trkpt>
      <trkpt lat="46.2055" lon="4.85293">
        <ele>190</ele>
        <time>2017-05-04T14:02:35.000Z</time>
      </trkpt>
      <trkpt lat="46.20549" lon="4.85292">
        <ele>189</ele>
        <time>2017-05-04T14:02:36.000Z</time>
      </trkpt>
      <trkpt lat="46.2055" lon="4.85291">
        <ele>189</ele>
        <time>2017-05-04T14:02:37.000Z</time>
      </trkpt>
      <trkpt lat="46.2055" lon="4.8529">
        <ele>188</ele>
        <time>2017-05-04T14:02:38.000Z</time>
      </trkpt>
      <trkpt lat="46.20551" lon="4.85289">
        <ele>188</ele>
        <time>2017-05-04T14:02:39.000Z</time>
      </trkpt>
      <trkpt lat="46.20551" lon="4.85288">
        <ele>190</ele>
        <time>2017-05-04T14:02:40.000Z</time>
      </trkpt>
      <trkpt lat="46.20551" lon="4.85288">
        <ele>190</ele>
        <time>2017-05-04T14:02:41.000Z</time>
      </trkpt>
      <trkpt lat="46.2055" lon="4.85289">
        <ele>189</ele>
        <time>2017-05-04T14:02:42.000Z</time>
      </trkpt>
      <trkpt lat="46.2055" lon="4.85289">
        <ele>189</ele>
        <time>2017-05-04T14:02:43.000Z</time>
      </trkpt>
      <trkpt lat="46.2055" lon="4.85289">
        <ele>190</ele>
        <time>2017-05-04T14:02:44.000Z</time>
      </trkpt>
      <trkpt lat="46.2055" lon="4.85289">
        <ele>190</ele>
        <time>2017-05-04T14:02:45.000Z</time>
      </trkpt>
      <trkpt lat="46.2055" lon="4.85289">
        <ele>190</ele>
        <time>2017-05-04T14:02:46.000Z</time>
      </trkpt>
      <trkpt lat="46.2055" lon="4.85289">
        <ele>190</ele>
        <time>2017-05-04T14:02:47.000Z</time>
      </trkpt>
      <trkpt lat="46.2055" lon="4.85289">
        <ele>190</ele>
        <time>2017-05-04T14:02:48.000Z</time>
      </trkpt>
      <trkpt lat="46.20549" lon="4.85289">
        <ele>190</ele>
        <time>2017-05-04T14:02:49.000Z</time>
      </trkpt>
      <trkpt lat="46.2055" lon="4.8529">
        <ele>190</ele>
        <time>2017-05-04T14:02:50.000Z</time>
      </trkpt>
      <trkpt lat="46.2055" lon="4.8529">
        <ele>190</ele>
        <time>2017-05-04T14:02:51.000Z</time>
      </trkpt>
      <trkpt lat="46.20549" lon="4.8529">
        <ele>190</ele>
        <time>2017-05-04T14:02:52.000Z</time>
      </trkpt>
      <trkpt lat="46.20549" lon="4.8529">
        <ele>189</ele>
        <time>2017-05-04T14:02:53.000Z</time>
      </trkpt>
      <trkpt lat="46.20549" lon="4.8529">
        <ele>189</ele>
        <time>2017-05-04T14:02:54.000Z</time>
      </trkpt>
      <trkpt lat="46.20549" lon="4.8529">
        <ele>189</ele>
        <time>2017-05-04T14:02:55.000Z</time>
      </trkpt>
      <trkpt lat="46.20549" lon="4.8529">
        <ele>188</ele>
        <time>2017-05-04T14:02:56.000Z</time>
      </trkpt>
      <trkpt lat="46.20549" lon="4.85291">
        <ele>188</ele>
        <time>2017-05-04T14:02:57.000Z</time>
      </trkpt>
      <trkpt lat="46.20549" lon="4.85291">
        <ele>188</ele>
        <time>2017-05-04T14:02:58.000Z</time>
      </trkpt>
      <trkpt lat="46.20549" lon="4.85291">
        <ele>188</ele>
        <time>2017-05-04T14:02:59.000Z</time>
      </trkpt>
      <trkpt lat="46.20549" lon="4.85291">
        <ele>188</ele>
        <time>2017-05-04T14:03:00.000Z</time>
      </trkpt>
      <trkpt lat="46.20549" lon="4.85291">
        <ele>188</ele>
        <time>2017-05-04T14:03:01.000Z</time>
      </trkpt>
      <trkpt lat="46.20549" lon="4.85291">
        <ele>188</ele>
        <time>2017-05-04T14:03:02.000Z</time>
      </trkpt>
      <trkpt lat="46.20549" lon="4.85291">
        <ele>188</ele>
        <time>2017-05-04T14:03:03.000Z</time>
      </trkpt>
      <trkpt lat="46.20549" lon="4.85291">
        <ele>188</ele>
        <time>2017-05-04T14:03:04.000Z</time>
      </trkpt>
      <trkpt lat="46.20549" lon="4.85291">
        <ele>188</ele>
        <time>2017-05-04T14:03:05.000Z</time>
      </trkpt>
      <trkpt lat="46.20549" lon="4.85291">
        <ele>188</ele>
        <time>2017-05-04T14:03:06.000Z</time>
      </trkpt>
      <trkpt lat="46.20549" lon="4.85291">
        <ele>187</ele>
        <time>2017-05-04T14:03:07.000Z</time>
      </trkpt>
      <trkpt lat="46.20549" lon="4.85291">
        <ele>187</ele>
        <time>2017-05-04T14:03:08.000Z</time>
      </trkpt>
      <trkpt lat="46.20549" lon="4.85291">
        <ele>187</ele>
        <time>2017-05-04T14:03:09.000Z</time>
      </trkpt>
      <trkpt lat="46.20549" lon="4.85291">
        <ele>188</ele>
        <time>2017-05-04T14:03:10.000Z</time>
      </trkpt>
      <trkpt lat="46.20549" lon="4.85291">
        <ele>188</ele>
        <time>2017-05-04T14:03:11.000Z</time>
      </trkpt>
      <trkpt lat="46.20549" lon="4.85291">
        <ele>187</ele>
        <time>2017-05-04T14:03:12.000Z</time>
      </trkpt>
      <trkpt lat="46.20549" lon="4.85291">
        <ele>187</ele>
        <time>2017-05-04T14:03:13.000Z</time>
      </trkpt>
      <trkpt lat="46.20549" lon="4.85291">
        <ele>187</ele>
        <time>2017-05-04T14:03:14.000Z</time>
      </trkpt>
      <trkpt lat="46.20549" lon="4.85291">
        <ele>188</ele>
        <time>2017-05-04T14:03:15.000Z</time>
      </trkpt>
      <trkpt lat="46.20549" lon="4.8529">
        <ele>188</ele>
        <time>2017-05-04T14:03:16.000Z</time>
      </trkpt>
      <trkpt lat="46.20549" lon="4.8529">
        <ele>188</ele>
        <time>2017-05-04T14:03:17.000Z</time>
      </trkpt>
      <trkpt lat="46.20549" lon="4.8529">
        <ele>188</ele>
        <time>2017-05-04T14:03:18.000Z</time>
      </trkpt>
      <trkpt lat="46.20549" lon="4.8529">
        <ele>188</ele>
        <time>2017-05-04T14:03:19.000Z</time>
      </trkpt>
      <trkpt lat="46.20549" lon="4.8529">
        <ele>188</ele>
        <time>2017-05-04T14:03:20.000Z</time>
      </trkpt>
      <trkpt lat="46.20549" lon="4.8529">
        <ele>188</ele>
        <time>2017-05-04T14:03:21.000Z</time>
      </trkpt>
      <trkpt lat="46.20549" lon="4.8529">
        <ele>188</ele>
        <time>2017-05-04T14:03:22.000Z</time>
      </trkpt>
      <trkpt lat="46.20549" lon="4.8529">
        <ele>188</ele>
        <time>2017-05-04T14:03:23.000Z</time>
      </trkpt>
      <trkpt lat="46.20549" lon="4.8529">
        <ele>188</ele>
        <time>2017-05-04T14:03:24.000Z</time>
      </trkpt>
      <trkpt lat="46.20549" lon="4.8529">
        <ele>188</ele>
        <time>2017-05-04T14:03:25.000Z</time>
      </trkpt>
      <trkpt lat="46.20549" lon="4.8529">
        <ele>188</ele>
        <time>2017-05-04T14:03:26.000Z</time>
      </trkpt>
      <trkpt lat="46.20549" lon="4.8529">
        <ele>187</ele>
        <time>2017-05-04T14:03:27.000Z</time>
      </trkpt>
      <trkpt lat="46.20548" lon="4.8529">
        <ele>187</ele>
        <time>2017-05-04T14:03:28.000Z</time>
      </trkpt>
      <trkpt lat="46.20548" lon="4.8529">
        <ele>187</ele>
        <time>2017-05-04T14:03:29.000Z</time>
      </trkpt>
      <trkpt lat="46.20548" lon="4.8529">
        <ele>188</ele>
        <time>2017-05-04T14:03:30.000Z</time>
      </trkpt>
      <trkpt lat="46.20549" lon="4.85289">
        <ele>188</ele>
        <time>2017-05-04T14:03:31.000Z</time>
      </trkpt>
      <trkpt lat="46.20549" lon="4.85289">
        <ele>188</ele>
        <time>2017-05-04T14:03:32.000Z</time>
      </trkpt>
      <trkpt lat="46.20549" lon="4.85288">
        <ele>187</ele>
        <time>2017-05-04T14:03:33.000Z</time>
      </trkpt>
      <trkpt lat="46.20549" lon="4.85287">
        <ele>187</ele>
        <time>2017-05-04T14:03:34.000Z</time>
      </trkpt>
      <trkpt lat="46.2055" lon="4.85287">
        <ele>187</ele>
        <time>2017-05-04T14:03:35.000Z</time>
      </trkpt>
      <trkpt lat="46.2055" lon="4.85286">
        <ele>188</ele>
        <time>2017-05-04T14:03:36.000Z</time>
      </trkpt>
      <trkpt lat="46.2055" lon="4.85286">
        <ele>188</ele>
        <time>2017-05-04T14:03:37.000Z</time>
      </trkpt>
      <trkpt lat="46.2055" lon="4.85286">
        <ele>188</ele>
        <time>2017-05-04T14:03:38.000Z</time>
      </trkpt>
      <trkpt lat="46.2055" lon="4.85286">
        <ele>188</ele>
        <time>2017-05-04T14:03:39.000Z</time>
      </trkpt>
      <trkpt lat="46.2055" lon="4.85287">
        <ele>188</ele>
        <time>2017-05-04T14:03:40.000Z</time>
      </trkpt>
      <trkpt lat="46.2055" lon="4.85287">
        <ele>188</ele>
        <time>2017-05-04T14:03:41.000Z</time>
      </trkpt>
      <trkpt lat="46.2055" lon="4.85287">
        <ele>187</ele>
        <time>2017-05-04T14:03:42.000Z</time>
      </trkpt>
      <trkpt lat="46.2055" lon="4.85287">
        <ele>187</ele>
        <time>2017-05-04T14:03:43.000Z</time>
      </trkpt>
      <trkpt lat="46.2055" lon="4.85287">
        <ele>187</ele>
        <time>2017-05-04T14:03:44.000Z</time>
      </trkpt>
      <trkpt lat="46.2055" lon="4.85287">
        <ele>187</ele>
        <time>2017-05-04T14:03:45.000Z</time>
      </trkpt>
      <trkpt lat="46.2055" lon="4.85287">
        <ele>187</ele>
        <time>2017-05-04T14:03:46.000Z</time>
      </trkpt>
      <trkpt lat="46.2055" lon="4.85287">
        <ele>187</ele>
        <time>2017-05-04T14:03:47.000Z</time>
      </trkpt>
      <trkpt lat="46.2055" lon="4.85287">
        <ele>187</ele>
        <time>2017-05-04T14:03:48.000Z</time>
      </trkpt>
      <trkpt lat="46.2055" lon="4.85286">
        <ele>187</ele>
        <time>2017-05-04T14:03:49.000Z</time>
      </trkpt>
      <trkpt lat="46.2055" lon="4.85286">
        <ele>187</ele>
        <time>2017-05-04T14:03:50.000Z</time>
      </trkpt>
      <trkpt lat="46.2055" lon="4.85286">
        <ele>187</ele>
        <time>2017-05-04T14:03:51.000Z</time>
      </trkpt>
      <trkpt lat="46.2055" lon="4.85285">
        <ele>187</ele>
        <time>2017-05-04T14:03:52.000Z</time>
      </trkpt>
      <trkpt lat="46.20549" lon="4.85286">
        <ele>187</ele>
        <time>2017-05-04T14:03:53.000Z</time>
      </trkpt>
      <trkpt lat="46.2055" lon="4.85285">
        <ele>187</ele>
        <time>2017-05-04T14:03:54.000Z</time>
      </trkpt>
      <trkpt lat="46.2055" lon="4.85285">
        <ele>187</ele>
        <time>2017-05-04T14:03:55.000Z</time>
      </trkpt>
      <trkpt lat="46.2055" lon="4.85284">
        <ele>187</ele>
        <time>2017-05-04T14:03:56.000Z</time>
      </trkpt>
      <trkpt lat="46.2055" lon="4.85283">
        <ele>187</ele>
        <time>2017-05-04T14:03:57.000Z</time>
      </trkpt>
      <trkpt lat="46.2055" lon="4.85283">
        <ele>187</ele>
        <time>2017-05-04T14:03:58.000Z</time>
      </trkpt>
      <trkpt lat="46.2055" lon="4.85282">
        <ele>187</ele>
        <time>2017-05-04T14:03:59.000Z</time>
      </trkpt>
      <trkpt lat="46.2055" lon="4.85282">
        <ele>187</ele>
        <time>2017-05-04T14:04:00.000Z</time>
      </trkpt>
      <trkpt lat="46.2055" lon="4.85282">
        <ele>187</ele>
        <time>2017-05-04T14:04:01.000Z</time>
      </trkpt>
      <trkpt lat="46.2055" lon="4.85281">
        <ele>187</ele>
        <time>2017-05-04T14:04:02.000Z</time>
      </trkpt>
      <trkpt lat="46.2055" lon="4.8528">
        <ele>187</ele>
        <time>2017-05-04T14:04:03.000Z</time>
      </trkpt>
      <trkpt lat="46.2055" lon="4.8528">
        <ele>187</ele>
        <time>2017-05-04T14:04:04.000Z</time>
      </trkpt>
      <trkpt lat="46.2055" lon="4.85279">
        <ele>187</ele>
        <time>2017-05-04T14:04:05.000Z</time>
      </trkpt>
      <trkpt lat="46.2055" lon="4.85278">
        <ele>187</ele>
        <time>2017-05-04T14:04:06.000Z</time>
      </trkpt>
      <trkpt lat="46.20549" lon="4.85277">
        <ele>187</ele>
        <time>2017-05-04T14:04:07.000Z</time>
      </trkpt>
      <trkpt lat="46.20549" lon="4.85277">
        <ele>187</ele>
        <time>2017-05-04T14:04:08.000Z</time>
      </trkpt>
      <trkpt lat="46.20549" lon="4.85277">
        <ele>187</ele>
        <time>2017-05-04T14:04:09.000Z</time>
      </trkpt>
      <trkpt lat="46.20549" lon="4.85277">
        <ele>187</ele>
        <time>2017-05-04T14:04:10.000Z</time>
      </trkpt>
      <trkpt lat="46.2055" lon="4.85277">
        <ele>187</ele>
        <time>2017-05-04T14:04:11.000Z</time>
      </trkpt>
      <trkpt lat="46.2055" lon="4.85277">
        <ele>187</ele>
        <time>2017-05-04T14:04:12.000Z</time>
      </trkpt>
      <trkpt lat="46.2055" lon="4.85277">
        <ele>187</ele>
        <time>2017-05-04T14:04:13.000Z</time>
      </trkpt>
      <trkpt lat="46.2055" lon="4.85277">
        <ele>187</ele>
        <time>2017-05-04T14:04:14.000Z</time>
      </trkpt>
      <trkpt lat="46.2055" lon="4.85277">
        <ele>187</ele>
        <time>2017-05-04T14:04:15.000Z</time>
      </trkpt>
      <trkpt lat="46.2055" lon="4.85277">
        <ele>187</ele>
        <time>2017-05-04T14:04:16.000Z</time>
      </trkpt>
      <trkpt lat="46.20549" lon="4.85276">
        <ele>187</ele>
        <time>2017-05-04T14:04:17.000Z</time>
      </trkpt>
      <trkpt lat="46.2055" lon="4.85276">
        <ele>187</ele>
        <time>2017-05-04T14:04:18.000Z</time>
      </trkpt>
      <trkpt lat="46.20549" lon="4.85276">
        <ele>187</ele>
        <time>2017-05-04T14:04:19.000Z</time>
      </trkpt>
      <trkpt lat="46.20549" lon="4.85276">
        <ele>187</ele>
        <time>2017-05-04T14:04:20.000Z</time>
      </trkpt>
      <trkpt lat="46.20549" lon="4.85276">
        <ele>187</ele>
        <time>2017-05-04T14:04:21.000Z</time>
      </trkpt>
      <trkpt lat="46.20549" lon="4.85275">
        <ele>187</ele>
        <time>2017-05-04T14:04:22.000Z</time>
      </trkpt>
      <trkpt lat="46.20549" lon="4.85275">
        <ele>187</ele>
        <time>2017-05-04T14:04:23.000Z</time>
      </trkpt>
      <trkpt lat="46.20549" lon="4.85275">
        <ele>187</ele>
        <time>2017-05-04T14:04:24.000Z</time>
      </trkpt>
      <trkpt lat="46.20549" lon="4.85275">
        <ele>187</ele>
        <time>2017-05-04T14:04:25.000Z</time>
      </trkpt>
      <trkpt lat="46.20549" lon="4.85274">
        <ele>187</ele>
        <time>2017-05-04T14:04:26.000Z</time>
      </trkpt>
      <trkpt lat="46.20549" lon="4.85273">
        <ele>187</ele>
        <time>2017-05-04T14:04:27.000Z</time>
      </trkpt>
      <trkpt lat="46.20549" lon="4.85272">
        <ele>187</ele>
        <time>2017-05-04T14:04:28.000Z</time>
      </trkpt>
      <trkpt lat="46.20548" lon="4.85271">
        <ele>187</ele>
        <time>2017-05-04T14:04:29.000Z</time>
      </trkpt>
      <trkpt lat="46.20548" lon="4.8527">
        <ele>187</ele>
        <time>2017-05-04T14:04:30.000Z</time>
      </trkpt>
      <trkpt lat="46.20548" lon="4.85269">
        <ele>188</ele>
        <time>2017-05-04T14:04:31.000Z</time>
      </trkpt>
      <trkpt lat="46.20547" lon="4.85268">
        <ele>188</ele>
        <time>2017-05-04T14:04:32.000Z</time>
      </trkpt>
      <trkpt lat="46.20547" lon="4.85267">
        <ele>188</ele>
        <time>2017-05-04T14:04:33.000Z</time>
      </trkpt>
      <trkpt lat="46.20547" lon="4.85266">
        <ele>188</ele>
        <time>2017-05-04T14:04:34.000Z</time>
      </trkpt>
      <trkpt lat="46.20546" lon="4.85265">
        <ele>188</ele>
        <time>2017-05-04T14:04:35.000Z</time>
      </trkpt>
      <trkpt lat="46.20546" lon="4.85263">
        <ele>188</ele>
        <time>2017-05-04T14:04:36.000Z</time>
      </trkpt>
      <trkpt lat="46.20546" lon="4.85262">
        <ele>188</ele>
        <time>2017-05-04T14:04:37.000Z</time>
      </trkpt>
      <trkpt lat="46.20546" lon="4.85261">
        <ele>188</ele>
        <time>2017-05-04T14:04:38.000Z</time>
      </trkpt>
      <trkpt lat="46.20546" lon="4.8526">
        <ele>188</ele>
        <time>2017-05-04T14:04:39.000Z</time>
      </trkpt>
      <trkpt lat="46.20546" lon="4.85259">
        <ele>188</ele>
        <time>2017-05-04T14:04:40.000Z</time>
      </trkpt>
      <trkpt lat="46.20546" lon="4.85257">
        <ele>188</ele>
        <time>2017-05-04T14:04:41.000Z</time>
      </trkpt>
      <trkpt lat="46.20546" lon="4.85256">
        <ele>188</ele>
        <time>2017-05-04T14:04:42.000Z</time>
      </trkpt>
      <trkpt lat="46.20546" lon="4.85255">
        <ele>188</ele>
        <time>2017-05-04T14:04:43.000Z</time>
      </trkpt>
      <trkpt lat="46.20546" lon="4.85254">
        <ele>188</ele>
        <time>2017-05-04T14:04:44.000Z</time>
      </trkpt>
      <trkpt lat="46.20546" lon="4.85253">
        <ele>188</ele>
        <time>2017-05-04T14:04:45.000Z</time>
      </trkpt>
      <trkpt lat="46.20546" lon="4.85253">
        <ele>188</ele>
        <time>2017-05-04T14:04:46.000Z</time>
      </trkpt>
      <trkpt lat="46.20546" lon="4.85252">
        <ele>188</ele>
        <time>2017-05-04T14:04:47.000Z</time>
      </trkpt>
      <trkpt lat="46.20546" lon="4.85252">
        <ele>188</ele>
        <time>2017-05-04T14:04:48.000Z</time>
      </trkpt>
      <trkpt lat="46.20546" lon="4.85252">
        <ele>188</ele>
        <time>2017-05-04T14:04:49.000Z</time>
      </trkpt>
      <trkpt lat="46.20546" lon="4.85252">
        <ele>188</ele>
        <time>2017-05-04T14:04:50.000Z</time>
      </trkpt>
      <trkpt lat="46.20546" lon="4.85252">
        <ele>188</ele>
        <time>2017-05-04T14:04:51.000Z</time>
      </trkpt>
      <trkpt lat="46.20546" lon="4.85252">
        <ele>187</ele>
        <time>2017-05-04T14:04:52.000Z</time>
      </trkpt>
      <trkpt lat="46.20546" lon="4.85251">
        <ele>187</ele>
        <time>2017-05-04T14:04:53.000Z</time>
      </trkpt>
      <trkpt lat="46.20546" lon="4.8525">
        <ele>186</ele>
        <time>2017-05-04T14:04:54.000Z</time>
      </trkpt>
      <trkpt lat="46.20545" lon="4.85248">
        <ele>186</ele>
        <time>2017-05-04T14:04:55.000Z</time>
      </trkpt>
      <trkpt lat="46.20545" lon="4.85247">
        <ele>187</ele>
        <time>2017-05-04T14:04:56.000Z</time>
      </trkpt>
      <trkpt lat="46.20545" lon="4.85246">
        <ele>187</ele>
        <time>2017-05-04T14:04:57.000Z</time>
      </trkpt>
      <trkpt lat="46.20545" lon="4.85245">
        <ele>187</ele>
        <time>2017-05-04T14:04:58.000Z</time>
      </trkpt>
      <trkpt lat="46.20545" lon="4.85243">
        <ele>187</ele>
        <time>2017-05-04T14:04:59.000Z</time>
      </trkpt>
      <trkpt lat="46.20545" lon="4.85242">
        <ele>187</ele>
        <time>2017-05-04T14:05:00.000Z</time>
      </trkpt>
      <trkpt lat="46.20545" lon="4.85241">
        <ele>187</ele>
        <time>2017-05-04T14:05:01.000Z</time>
      </trkpt>
      <trkpt lat="46.20545" lon="4.85239">
        <ele>188</ele>
        <time>2017-05-04T14:05:02.000Z</time>
      </trkpt>
      <trkpt lat="46.20545" lon="4.85238">
        <ele>187</ele>
        <time>2017-05-04T14:05:03.000Z</time>
      </trkpt>
      <trkpt lat="46.20544" lon="4.85236">
        <ele>187</ele>
        <time>2017-05-04T14:05:04.000Z</time>
      </trkpt>
      <trkpt lat="46.20544" lon="4.85234">
        <ele>187</ele>
        <time>2017-05-04T14:05:05.000Z</time>
      </trkpt>
      <trkpt lat="46.20544" lon="4.85232">
        <ele>187</ele>
        <time>2017-05-04T14:05:06.000Z</time>
      </trkpt>
      <trkpt lat="46.20544" lon="4.85231">
        <ele>188</ele>
        <time>2017-05-04T14:05:07.000Z</time>
      </trkpt>
      <trkpt lat="46.20544" lon="4.85229">
        <ele>188</ele>
        <time>2017-05-04T14:05:08.000Z</time>
      </trkpt>
      <trkpt lat="46.20543" lon="4.85228">
        <ele>188</ele>
        <time>2017-05-04T14:05:09.000Z</time>
      </trkpt>
      <trkpt lat="46.20543" lon="4.85226">
        <ele>188</ele>
        <time>2017-05-04T14:05:10.000Z</time>
      </trkpt>
      <trkpt lat="46.20543" lon="4.85224">
        <ele>188</ele>
        <time>2017-05-04T14:05:11.000Z</time>
      </trkpt>
      <trkpt lat="46.20543" lon="4.85223">
        <ele>188</ele>
        <time>2017-05-04T14:05:12.000Z</time>
      </trkpt>
      <trkpt lat="46.20542" lon="4.85221">
        <ele>188</ele>
        <time>2017-05-04T14:05:13.000Z</time>
      </trkpt>
      <trkpt lat="46.20542" lon="4.85219">
        <ele>188</ele>
        <time>2017-05-04T14:05:14.000Z</time>
      </trkpt>
      <trkpt lat="46.20542" lon="4.85218">
        <ele>189</ele>
        <time>2017-05-04T14:05:15.000Z</time>
      </trkpt>
      <trkpt lat="46.20542" lon="4.85216">
        <ele>189</ele>
        <time>2017-05-04T14:05:16.000Z</time>
      </trkpt>
      <trkpt lat="46.20541" lon="4.85215">
        <ele>189</ele>
        <time>2017-05-04T14:05:17.000Z</time>
      </trkpt>
      <trkpt lat="46.20541" lon="4.85213">
        <ele>189</ele>
        <time>2017-05-04T14:05:18.000Z</time>
      </trkpt>
      <trkpt lat="46.20541" lon="4.85212">
        <ele>189</ele>
        <time>2017-05-04T14:05:19.000Z</time>
      </trkpt>
      <trkpt lat="46.20541" lon="4.8521">
        <ele>189</ele>
        <time>2017-05-04T14:05:20.000Z</time>
      </trkpt>
      <trkpt lat="46.2054" lon="4.85208">
        <ele>189</ele>
        <time>2017-05-04T14:05:21.000Z</time>
      </trkpt>
      <trkpt lat="46.2054" lon="4.85206">
        <ele>189</ele>
        <time>2017-05-04T14:05:22.000Z</time>
      </trkpt>
      <trkpt lat="46.2054" lon="4.85205">
        <ele>189</ele>
        <time>2017-05-04T14:05:23.000Z</time>
      </trkpt>
      <trkpt lat="46.2054" lon="4.85203">
        <ele>189</ele>
        <time>2017-05-04T14:05:24.000Z</time>
      </trkpt>
      <trkpt lat="46.2054" lon="4.85201">
        <ele>189</ele>
        <time>2017-05-04T14:05:25.000Z</time>
      </trkpt>
      <trkpt lat="46.2054" lon="4.85199">
        <ele>189</ele>
        <time>2017-05-04T14:05:26.000Z</time>
      </trkpt>
      <trkpt lat="46.2054" lon="4.85198">
        <ele>189</ele>
        <time>2017-05-04T14:05:27.000Z</time>
      </trkpt>
      <trkpt lat="46.2054" lon="4.85196">
        <ele>189</ele>
        <time>2017-05-04T14:05:28.000Z</time>
      </trkpt>
      <trkpt lat="46.20539" lon="4.85194">
        <ele>189</ele>
        <time>2017-05-04T14:05:29.000Z</time>
      </trkpt>
      <trkpt lat="46.20539" lon="4.85193">
        <ele>189</ele>
        <time>2017-05-04T14:05:30.000Z</time>
      </trkpt>
      <trkpt lat="46.20539" lon="4.85191">
        <ele>189</ele>
        <time>2017-05-04T14:05:31.000Z</time>
      </trkpt>
      <trkpt lat="46.20539" lon="4.85189">
        <ele>189</ele>
        <time>2017-05-04T14:05:32.000Z</time>
      </trkpt>
      <trkpt lat="46.20539" lon="4.85188">
        <ele>189</ele>
        <time>2017-05-04T14:05:33.000Z</time>
      </trkpt>
      <trkpt lat="46.20539" lon="4.85186">
        <ele>189</ele>
        <time>2017-05-04T14:05:34.000Z</time>
      </trkpt>
      <trkpt lat="46.20538" lon="4.85185">
        <ele>189</ele>
        <time>2017-05-04T14:05:35.000Z</time>
      </trkpt>
      <trkpt lat="46.20538" lon="4.85183">
        <ele>189</ele>
        <time>2017-05-04T14:05:36.000Z</time>
      </trkpt>
      <trkpt lat="46.20538" lon="4.85181">
        <ele>188</ele>
        <time>2017-05-04T14:05:37.000Z</time>
      </trkpt>
      <trkpt lat="46.20538" lon="4.8518">
        <ele>188</ele>
        <time>2017-05-04T14:05:38.000Z</time>
      </trkpt>
      <trkpt lat="46.20538" lon="4.85178">
        <ele>188</ele>
        <time>2017-05-04T14:05:39.000Z</time>
      </trkpt>
      <trkpt lat="46.20538" lon="4.85176">
        <ele>188</ele>
        <time>2017-05-04T14:05:40.000Z</time>
      </trkpt>
      <trkpt lat="46.20538" lon="4.85175">
        <ele>188</ele>
        <time>2017-05-04T14:05:41.000Z</time>
      </trkpt>
      <trkpt lat="46.20538" lon="4.85173">
        <ele>188</ele>
        <time>2017-05-04T14:05:42.000Z</time>
      </trkpt>
      <trkpt lat="46.20539" lon="4.85172">
        <ele>189</ele>
        <time>2017-05-04T14:05:43.000Z</time>
      </trkpt>
      <trkpt lat="46.20539" lon="4.8517">
        <ele>189</ele>
        <time>2017-05-04T14:05:44.000Z</time>
      </trkpt>
      <trkpt lat="46.20539" lon="4.85169">
        <ele>189</ele>
        <time>2017-05-04T14:05:45.000Z</time>
      </trkpt>
      <trkpt lat="46.2054" lon="4.85168">
        <ele>189</ele>
        <time>2017-05-04T14:05:46.000Z</time>
      </trkpt>
      <trkpt lat="46.2054" lon="4.85167">
        <ele>189</ele>
        <time>2017-05-04T14:05:47.000Z</time>
      </trkpt>
      <trkpt lat="46.20541" lon="4.85166">
        <ele>189</ele>
        <time>2017-05-04T14:05:48.000Z</time>
      </trkpt>
      <trkpt lat="46.20542" lon="4.85165">
        <ele>189</ele>
        <time>2017-05-04T14:05:49.000Z</time>
      </trkpt>
      <trkpt lat="46.20543" lon="4.85164">
        <ele>189</ele>
        <time>2017-05-04T14:05:50.000Z</time>
      </trkpt>
      <trkpt lat="46.20544" lon="4.85163">
        <ele>189</ele>
        <time>2017-05-04T14:05:51.000Z</time>
      </trkpt>
      <trkpt lat="46.20544" lon="4.85162">
        <ele>189</ele>
        <time>2017-05-04T14:05:52.000Z</time>
      </trkpt>
      <trkpt lat="46.20545" lon="4.85161">
        <ele>189</ele>
        <time>2017-05-04T14:05:53.000Z</time>
      </trkpt>
      <trkpt lat="46.20545" lon="4.85161">
        <ele>189</ele>
        <time>2017-05-04T14:05:54.000Z</time>
      </trkpt>
      <trkpt lat="46.20545" lon="4.85161">
        <ele>188</ele>
        <time>2017-05-04T14:05:55.000Z</time>
      </trkpt>
      <trkpt lat="46.20545" lon="4.8516">
        <ele>189</ele>
        <time>2017-05-04T14:05:56.000Z</time>
      </trkpt>
      <trkpt lat="46.20546" lon="4.8516">
        <ele>188</ele>
        <time>2017-05-04T14:05:57.000Z</time>
      </trkpt>
      <trkpt lat="46.20546" lon="4.8516">
        <ele>188</ele>
        <time>2017-05-04T14:05:58.000Z</time>
      </trkpt>
      <trkpt lat="46.20547" lon="4.8516">
        <ele>188</ele>
        <time>2017-05-04T14:05:59.000Z</time>
      </trkpt>
      <trkpt lat="46.20547" lon="4.8516">
        <ele>188</ele>
        <time>2017-05-04T14:06:00.000Z</time>
      </trkpt>
      <trkpt lat="46.20547" lon="4.85159">
        <ele>188</ele>
        <time>2017-05-04T14:06:01.000Z</time>
      </trkpt>
      <trkpt lat="46.20548" lon="4.85159">
        <ele>188</ele>
        <time>2017-05-04T14:06:02.000Z</time>
      </trkpt>
      <trkpt lat="46.20549" lon="4.85159">
        <ele>188</ele>
        <time>2017-05-04T14:06:03.000Z</time>
      </trkpt>
      <trkpt lat="46.20549" lon="4.85159">
        <ele>188</ele>
        <time>2017-05-04T14:06:04.000Z</time>
      </trkpt>
      <trkpt lat="46.20549" lon="4.85159">
        <ele>188</ele>
        <time>2017-05-04T14:06:05.000Z</time>
      </trkpt>
      <trkpt lat="46.2055" lon="4.85158">
        <ele>188</ele>
        <time>2017-05-04T14:06:06.000Z</time>
      </trkpt>
      <trkpt lat="46.2055" lon="4.85158">
        <ele>188</ele>
        <time>2017-05-04T14:06:07.000Z</time>
      </trkpt>
      <trkpt lat="46.20551" lon="4.85158">
        <ele>188</ele>
        <time>2017-05-04T14:06:08.000Z</time>
      </trkpt>
      <trkpt lat="46.20552" lon="4.85157">
        <ele>188</ele>
        <time>2017-05-04T14:06:09.000Z</time>
      </trkpt>
      <trkpt lat="46.20552" lon="4.85157">
        <ele>189</ele>
        <time>2017-05-04T14:06:10.000Z</time>
      </trkpt>
      <trkpt lat="46.20552" lon="4.85157">
        <ele>189</ele>
        <time>2017-05-04T14:06:11.000Z</time>
      </trkpt>
      <trkpt lat="46.20553" lon="4.85156">
        <ele>189</ele>
        <time>2017-05-04T14:06:12.000Z</time>
      </trkpt>
      <trkpt lat="46.20553" lon="4.85156">
        <ele>188</ele>
        <time>2017-05-04T14:06:13.000Z</time>
      </trkpt>
      <trkpt lat="46.20554" lon="4.85156">
        <ele>188</ele>
        <time>2017-05-04T14:06:14.000Z</time>
      </trkpt>
      <trkpt lat="46.20555" lon="4.85156">
        <ele>188</ele>
        <time>2017-05-04T14:06:15.000Z</time>
      </trkpt>
      <trkpt lat="46.20555" lon="4.85155">
        <ele>188</ele>
        <time>2017-05-04T14:06:16.000Z</time>
      </trkpt>
      <trkpt lat="46.20556" lon="4.85155">
        <ele>189</ele>
        <time>2017-05-04T14:06:17.000Z</time>
      </trkpt>
      <trkpt lat="46.20557" lon="4.85154">
        <ele>188</ele>
        <time>2017-05-04T14:06:18.000Z</time>
      </trkpt>
      <trkpt lat="46.20558" lon="4.85154">
        <ele>188</ele>
        <time>2017-05-04T14:06:19.000Z</time>
      </trkpt>
      <trkpt lat="46.20558" lon="4.85153">
        <ele>188</ele>
        <time>2017-05-04T14:06:20.000Z</time>
      </trkpt>
      <trkpt lat="46.20559" lon="4.85153">
        <ele>188</ele>
        <time>2017-05-04T14:06:21.000Z</time>
      </trkpt>
      <trkpt lat="46.2056" lon="4.85152">
        <ele>188</ele>
        <time>2017-05-04T14:06:22.000Z</time>
      </trkpt>
      <trkpt lat="46.20561" lon="4.85152">
        <ele>188</ele>
        <time>2017-05-04T14:06:23.000Z</time>
      </trkpt>
      <trkpt lat="46.20562" lon="4.85151">
        <ele>188</ele>
        <time>2017-05-04T14:06:24.000Z</time>
      </trkpt>
      <trkpt lat="46.20563" lon="4.85151">
        <ele>188</ele>
        <time>2017-05-04T14:06:25.000Z</time>
      </trkpt>
      <trkpt lat="46.20563" lon="4.8515">
        <ele>188</ele>
        <time>2017-05-04T14:06:26.000Z</time>
      </trkpt>
      <trkpt lat="46.20563" lon="4.8515">
        <ele>189</ele>
        <time>2017-05-04T14:06:27.000Z</time>
      </trkpt>
      <trkpt lat="46.20564" lon="4.8515">
        <ele>189</ele>
        <time>2017-05-04T14:06:28.000Z</time>
      </trkpt>
      <trkpt lat="46.20565" lon="4.8515">
        <ele>189</ele>
        <time>2017-05-04T14:06:29.000Z</time>
      </trkpt>
      <trkpt lat="46.20566" lon="4.8515">
        <ele>189</ele>
        <time>2017-05-04T14:06:30.000Z</time>
      </trkpt>
      <trkpt lat="46.20566" lon="4.8515">
        <ele>188</ele>
        <time>2017-05-04T14:06:31.000Z</time>
      </trkpt>
      <trkpt lat="46.20567" lon="4.8515">
        <ele>189</ele>
        <time>2017-05-04T14:06:32.000Z</time>
      </trkpt>
      <trkpt lat="46.20568" lon="4.85149">
        <ele>189</ele>
        <time>2017-05-04T14:06:33.000Z</time>
      </trkpt>
      <trkpt lat="46.20569" lon="4.85149">
        <ele>190</ele>
        <time>2017-05-04T14:06:34.000Z</time>
      </trkpt>
      <trkpt lat="46.2057" lon="4.85149">
        <ele>190</ele>
        <time>2017-05-04T14:06:35.000Z</time>
      </trkpt>
      <trkpt lat="46.2057" lon="4.85148">
        <ele>190</ele>
        <time>2017-05-04T14:06:36.000Z</time>
      </trkpt>
      <trkpt lat="46.20571" lon="4.85148">
        <ele>190</ele>
        <time>2017-05-04T14:06:37.000Z</time>
      </trkpt>
      <trkpt lat="46.20572" lon="4.85147">
        <ele>190</ele>
        <time>2017-05-04T14:06:38.000Z</time>
      </trkpt>
      <trkpt lat="46.20573" lon="4.85147">
        <ele>190</ele>
        <time>2017-05-04T14:06:39.000Z</time>
      </trkpt>
      <trkpt lat="46.20574" lon="4.85146">
        <ele>189</ele>
        <time>2017-05-04T14:06:40.000Z</time>
      </trkpt>
      <trkpt lat="46.20574" lon="4.85145">
        <ele>190</ele>
        <time>2017-05-04T14:06:41.000Z</time>
      </trkpt>
      <trkpt lat="46.20575" lon="4.85145">
        <ele>190</ele>
        <time>2017-05-04T14:06:42.000Z</time>
      </trkpt>
      <trkpt lat="46.20576" lon="4.85144">
        <ele>190</ele>
        <time>2017-05-04T14:06:43.000Z</time>
      </trkpt>
      <trkpt lat="46.20577" lon="4.85144">
        <ele>189</ele>
        <time>2017-05-04T14:06:44.000Z</time>
      </trkpt>
      <trkpt lat="46.20578" lon="4.85143">
        <ele>190</ele>
        <time>2017-05-04T14:06:45.000Z</time>
      </trkpt>
      <trkpt lat="46.20579" lon="4.85143">
        <ele>190</ele>
        <time>2017-05-04T14:06:46.000Z</time>
      </trkpt>
      <trkpt lat="46.2058" lon="4.85142">
        <ele>189</ele>
        <time>2017-05-04T14:06:47.000Z</time>
      </trkpt>
      <trkpt lat="46.20581" lon="4.85142">
        <ele>189</ele>
        <time>2017-05-04T14:06:48.000Z</time>
      </trkpt>
      <trkpt lat="46.20582" lon="4.85141">
        <ele>189</ele>
        <time>2017-05-04T14:06:49.000Z</time>
      </trkpt>
      <trkpt lat="46.20583" lon="4.85141">
        <ele>190</ele>
        <time>2017-05-04T14:06:50.000Z</time>
      </trkpt>
      <trkpt lat="46.20584" lon="4.8514">
        <ele>190</ele>
        <time>2017-05-04T14:06:51.000Z</time>
      </trkpt>
      <trkpt lat="46.20585" lon="4.8514">
        <ele>190</ele>
        <time>2017-05-04T14:06:52.000Z</time>
      </trkpt>
      <trkpt lat="46.20586" lon="4.85139">
        <ele>190</ele>
        <time>2017-05-04T14:06:53.000Z</time>
      </trkpt>
      <trkpt lat="46.20587" lon="4.85139">
        <ele>190</ele>
        <time>2017-05-04T14:06:54.000Z</time>
      </trkpt>
      <trkpt lat="46.20588" lon="4.85138">
        <ele>190</ele>
        <time>2017-05-04T14:06:55.000Z</time>
      </trkpt>
      <trkpt lat="46.20589" lon="4.85138">
        <ele>190</ele>
        <time>2017-05-04T14:06:56.000Z</time>
      </trkpt>
      <trkpt lat="46.2059" lon="4.85137">
        <ele>190</ele>
        <time>2017-05-04T14:06:57.000Z</time>
      </trkpt>
      <trkpt lat="46.20591" lon="4.85137">
        <ele>190</ele>
        <time>2017-05-04T14:06:58.000Z</time>
      </trkpt>
      <trkpt lat="46.20592" lon="4.85136">
        <ele>191</ele>
        <time>2017-05-04T14:06:59.000Z</time>
      </trkpt>
      <trkpt lat="46.20593" lon="4.85135">
        <ele>191</ele>
        <time>2017-05-04T14:07:00.000Z</time>
      </trkpt>
      <trkpt lat="46.20595" lon="4.85134">
        <ele>191</ele>
        <time>2017-05-04T14:07:01.000Z</time>
      </trkpt>
      <trkpt lat="46.20596" lon="4.85134">
        <ele>191</ele>
        <time>2017-05-04T14:07:02.000Z</time>
      </trkpt>
      <trkpt lat="46.20597" lon="4.85133">
        <ele>191</ele>
        <time>2017-05-04T14:07:03.000Z</time>
      </trkpt>
      <trkpt lat="46.20598" lon="4.85133">
        <ele>191</ele>
        <time>2017-05-04T14:07:04.000Z</time>
      </trkpt>
      <trkpt lat="46.20599" lon="4.85132">
        <ele>191</ele>
        <time>2017-05-04T14:07:05.000Z</time>
      </trkpt>
      <trkpt lat="46.20599" lon="4.85132">
        <ele>191</ele>
        <time>2017-05-04T14:07:06.000Z</time>
      </trkpt>
      <trkpt lat="46.206" lon="4.85131">
        <ele>191</ele>
        <time>2017-05-04T14:07:07.000Z</time>
      </trkpt>
      <trkpt lat="46.20601" lon="4.85131">
        <ele>191</ele>
        <time>2017-05-04T14:07:08.000Z</time>
      </trkpt>
      <trkpt lat="46.20602" lon="4.8513">
        <ele>190</ele>
        <time>2017-05-04T14:07:09.000Z</time>
      </trkpt>
      <trkpt lat="46.20603" lon="4.8513">
        <ele>190</ele>
        <time>2017-05-04T14:07:10.000Z</time>
      </trkpt>
      <trkpt lat="46.20603" lon="4.85129">
        <ele>190</ele>
        <time>2017-05-04T14:07:11.000Z</time>
      </trkpt>
      <trkpt lat="46.20604" lon="4.85129">
        <ele>190</ele>
        <time>2017-05-04T14:07:12.000Z</time>
      </trkpt>
      <trkpt lat="46.20605" lon="4.85128">
        <ele>190</ele>
        <time>2017-05-04T14:07:13.000Z</time>
      </trkpt>
      <trkpt lat="46.20606" lon="4.85128">
        <ele>190</ele>
        <time>2017-05-04T14:07:14.000Z</time>
      </trkpt>
      <trkpt lat="46.20607" lon="4.85127">
        <ele>190</ele>
        <time>2017-05-04T14:07:15.000Z</time>
      </trkpt>
      <trkpt lat="46.20608" lon="4.85126">
        <ele>191</ele>
        <time>2017-05-04T14:07:16.000Z</time>
      </trkpt>
      <trkpt lat="46.20609" lon="4.85126">
        <ele>190</ele>
        <time>2017-05-04T14:07:17.000Z</time>
      </trkpt>
      <trkpt lat="46.2061" lon="4.85125">
        <ele>190</ele>
        <time>2017-05-04T14:07:18.000Z</time>
      </trkpt>
      <trkpt lat="46.20611" lon="4.85125">
        <ele>190</ele>
        <time>2017-05-04T14:07:19.000Z</time>
      </trkpt>
      <trkpt lat="46.20612" lon="4.85124">
        <ele>190</ele>
        <time>2017-05-04T14:07:20.000Z</time>
      </trkpt>
      <trkpt lat="46.20613" lon="4.85124">
        <ele>190</ele>
        <time>2017-05-04T14:07:21.000Z</time>
      </trkpt>
      <trkpt lat="46.20614" lon="4.85123">
        <ele>190</ele>
        <time>2017-05-04T14:07:22.000Z</time>
      </trkpt>
      <trkpt lat="46.20615" lon="4.85122">
        <ele>190</ele>
        <time>2017-05-04T14:07:23.000Z</time>
      </trkpt>
      <trkpt lat="46.20616" lon="4.85121">
        <ele>190</ele>
        <time>2017-05-04T14:07:24.000Z</time>
      </trkpt>
      <trkpt lat="46.20617" lon="4.85121">
        <ele>190</ele>
        <time>2017-05-04T14:07:25.000Z</time>
      </trkpt>
      <trkpt lat="46.20618" lon="4.8512">
        <ele>190</ele>
        <time>2017-05-04T14:07:26.000Z</time>
      </trkpt>
      <trkpt lat="46.20618" lon="4.8512">
        <ele>190</ele>
        <time>2017-05-04T14:07:27.000Z</time>
      </trkpt>
      <trkpt lat="46.20619" lon="4.85119">
        <ele>190</ele>
        <time>2017-05-04T14:07:28.000Z</time>
      </trkpt>
      <trkpt lat="46.2062" lon="4.85118">
        <ele>190</ele>
        <time>2017-05-04T14:07:29.000Z</time>
      </trkpt>
      <trkpt lat="46.2062" lon="4.85118">
        <ele>190</ele>
        <time>2017-05-04T14:07:30.000Z</time>
      </trkpt>
      <trkpt lat="46.20621" lon="4.85117">
        <ele>189</ele>
        <time>2017-05-04T14:07:31.000Z</time>
      </trkpt>
      <trkpt lat="46.20622" lon="4.85117">
        <ele>189</ele>
        <time>2017-05-04T14:07:32.000Z</time>
      </trkpt>
      <trkpt lat="46.20622" lon="4.85116">
        <ele>189</ele>
        <time>2017-05-04T14:07:33.000Z</time>
      </trkpt>
      <trkpt lat="46.20623" lon="4.85115">
        <ele>189</ele>
        <time>2017-05-04T14:07:34.000Z</time>
      </trkpt>
      <trkpt lat="46.20624" lon="4.85114">
        <ele>188</ele>
        <time>2017-05-04T14:07:35.000Z</time>
      </trkpt>
      <trkpt lat="46.20625" lon="4.85114">
        <ele>188</ele>
        <time>2017-05-04T14:07:36.000Z</time>
      </trkpt>
      <trkpt lat="46.20625" lon="4.85113">
        <ele>189</ele>
        <time>2017-05-04T14:07:37.000Z</time>
      </trkpt>
      <trkpt lat="46.20626" lon="4.85113">
        <ele>189</ele>
        <time>2017-05-04T14:07:38.000Z</time>
      </trkpt>
      <trkpt lat="46.20627" lon="4.85112">
        <ele>188</ele>
        <time>2017-05-04T14:07:39.000Z</time>
      </trkpt>
      <trkpt lat="46.20628" lon="4.85111">
        <ele>188</ele>
        <time>2017-05-04T14:07:40.000Z</time>
      </trkpt>
      <trkpt lat="46.20629" lon="4.8511">
        <ele>188</ele>
        <time>2017-05-04T14:07:41.000Z</time>
      </trkpt>
      <trkpt lat="46.2063" lon="4.8511">
        <ele>188</ele>
        <time>2017-05-04T14:07:42.000Z</time>
      </trkpt>
      <trkpt lat="46.20631" lon="4.85109">
        <ele>188</ele>
        <time>2017-05-04T14:07:43.000Z</time>
      </trkpt>
      <trkpt lat="46.20632" lon="4.85108">
        <ele>188</ele>
        <time>2017-05-04T14:07:44.000Z</time>
      </trkpt>
      <trkpt lat="46.20633" lon="4.85108">
        <ele>188</ele>
        <time>2017-05-04T14:07:45.000Z</time>
      </trkpt>
      <trkpt lat="46.20634" lon="4.85107">
        <ele>188</ele>
        <time>2017-05-04T14:07:46.000Z</time>
      </trkpt>
      <trkpt lat="46.20635" lon="4.85106">
        <ele>187</ele>
        <time>2017-05-04T14:07:47.000Z</time>
      </trkpt>
      <trkpt lat="46.20635" lon="4.85106">
        <ele>187</ele>
        <time>2017-05-04T14:07:48.000Z</time>
      </trkpt>
      <trkpt lat="46.20636" lon="4.85105">
        <ele>187</ele>
        <time>2017-05-04T14:07:49.000Z</time>
      </trkpt>
      <trkpt lat="46.20637" lon="4.85104">
        <ele>187</ele>
        <time>2017-05-04T14:07:50.000Z</time>
      </trkpt>
      <trkpt lat="46.20638" lon="4.85104">
        <ele>187</ele>
        <time>2017-05-04T14:07:51.000Z</time>
      </trkpt>
      <trkpt lat="46.20639" lon="4.85103">
        <ele>187</ele>
        <time>2017-05-04T14:07:52.000Z</time>
      </trkpt>
      <trkpt lat="46.2064" lon="4.85102">
        <ele>187</ele>
        <time>2017-05-04T14:07:53.000Z</time>
      </trkpt>
      <trkpt lat="46.20641" lon="4.85102">
        <ele>187</ele>
        <time>2017-05-04T14:07:54.000Z</time>
      </trkpt>
      <trkpt lat="46.20642" lon="4.85101">
        <ele>187</ele>
        <time>2017-05-04T14:07:55.000Z</time>
      </trkpt>
      <trkpt lat="46.20643" lon="4.851">
        <ele>187</ele>
        <time>2017-05-04T14:07:56.000Z</time>
      </trkpt>
      <trkpt lat="46.20644" lon="4.851">
        <ele>187</ele>
        <time>2017-05-04T14:07:57.000Z</time>
      </trkpt>
      <trkpt lat="46.20645" lon="4.85099">
        <ele>187</ele>
        <time>2017-05-04T14:07:58.000Z</time>
      </trkpt>
      <trkpt lat="46.20646" lon="4.85098">
        <ele>187</ele>
        <time>2017-05-04T14:07:59.000Z</time>
      </trkpt>
      <trkpt lat="46.20647" lon="4.85098">
        <ele>188</ele>
        <time>2017-05-04T14:08:00.000Z</time>
      </trkpt>
      <trkpt lat="46.20648" lon="4.85097">
        <ele>188</ele>
        <time>2017-05-04T14:08:01.000Z</time>
      </trkpt>
      <trkpt lat="46.20649" lon="4.85097">
        <ele>188</ele>
        <time>2017-05-04T14:08:02.000Z</time>
      </trkpt>
      <trkpt lat="46.2065" lon="4.85096">
        <ele>189</ele>
        <time>2017-05-04T14:08:03.000Z</time>
      </trkpt>
      <trkpt lat="46.20651" lon="4.85096">
        <ele>189</ele>
        <time>2017-05-04T14:08:04.000Z</time>
      </trkpt>
      <trkpt lat="46.20652" lon="4.85095">
        <ele>189</ele>
        <time>2017-05-04T14:08:05.000Z</time>
      </trkpt>
      <trkpt lat="46.20653" lon="4.85094">
        <ele>189</ele>
        <time>2017-05-04T14:08:06.000Z</time>
      </trkpt>
      <trkpt lat="46.20654" lon="4.85093">
        <ele>189</ele>
        <time>2017-05-04T14:08:07.000Z</time>
      </trkpt>
      <trkpt lat="46.20655" lon="4.85092">
        <ele>189</ele>
        <time>2017-05-04T14:08:08.000Z</time>
      </trkpt>
      <trkpt lat="46.20656" lon="4.85092">
        <ele>189</ele>
        <time>2017-05-04T14:08:09.000Z</time>
      </trkpt>
      <trkpt lat="46.20657" lon="4.85091">
        <ele>189</ele>
        <time>2017-05-04T14:08:10.000Z</time>
      </trkpt>
      <trkpt lat="46.20657" lon="4.85091">
        <ele>189</ele>
        <time>2017-05-04T14:08:11.000Z</time>
      </trkpt>
      <trkpt lat="46.20658" lon="4.8509">
        <ele>189</ele>
        <time>2017-05-04T14:08:12.000Z</time>
      </trkpt>
      <trkpt lat="46.20659" lon="4.85089">
        <ele>190</ele>
        <time>2017-05-04T14:08:13.000Z</time>
      </trkpt>
      <trkpt lat="46.2066" lon="4.85089">
        <ele>190</ele>
        <time>2017-05-04T14:08:14.000Z</time>
      </trkpt>
      <trkpt lat="46.20661" lon="4.85088">
        <ele>190</ele>
        <time>2017-05-04T14:08:15.000Z</time>
      </trkpt>
      <trkpt lat="46.20662" lon="4.85087">
        <ele>190</ele>
        <time>2017-05-04T14:08:16.000Z</time>
      </trkpt>
      <trkpt lat="46.20663" lon="4.85086">
        <ele>190</ele>
        <time>2017-05-04T14:08:17.000Z</time>
      </trkpt>
      <trkpt lat="46.20663" lon="4.85085">
        <ele>190</ele>
        <time>2017-05-04T14:08:18.000Z</time>
      </trkpt>
      <trkpt lat="46.20664" lon="4.85084">
        <ele>190</ele>
        <time>2017-05-04T14:08:19.000Z</time>
      </trkpt>
      <trkpt lat="46.20665" lon="4.85083">
        <ele>190</ele>
        <time>2017-05-04T14:08:20.000Z</time>
      </trkpt>
      <trkpt lat="46.20665" lon="4.85082">
        <ele>190</ele>
        <time>2017-05-04T14:08:21.000Z</time>
      </trkpt>
      <trkpt lat="46.20666" lon="4.85081">
        <ele>190</ele>
        <time>2017-05-04T14:08:22.000Z</time>
      </trkpt>
      <trkpt lat="46.20666" lon="4.8508">
        <ele>190</ele>
        <time>2017-05-04T14:08:23.000Z</time>
      </trkpt>
      <trkpt lat="46.20666" lon="4.85079">
        <ele>190</ele>
        <time>2017-05-04T14:08:24.000Z</time>
      </trkpt>
      <trkpt lat="46.20666" lon="4.85078">
        <ele>190</ele>
        <time>2017-05-04T14:08:25.000Z</time>
      </trkpt>
      <trkpt lat="46.20667" lon="4.85078">
        <ele>190</ele>
        <time>2017-05-04T14:08:26.000Z</time>
      </trkpt>
      <trkpt lat="46.20667" lon="4.85077">
        <ele>190</ele>
        <time>2017-05-04T14:08:27.000Z</time>
      </trkpt>
      <trkpt lat="46.20667" lon="4.85077">
        <ele>190</ele>
        <time>2017-05-04T14:08:28.000Z</time>
      </trkpt>
      <trkpt lat="46.20667" lon="4.85076">
        <ele>190</ele>
        <time>2017-05-04T14:08:29.000Z</time>
      </trkpt>
      <trkpt lat="46.20667" lon="4.85076">
        <ele>190</ele>
        <time>2017-05-04T14:08:30.000Z</time>
      </trkpt>
      <trkpt lat="46.20667" lon="4.85075">
        <ele>190</ele>
        <time>2017-05-04T14:08:31.000Z</time>
      </trkpt>
      <trkpt lat="46.20668" lon="4.85074">
        <ele>190</ele>
        <time>2017-05-04T14:08:32.000Z</time>
      </trkpt>
      <trkpt lat="46.20668" lon="4.85074">
        <ele>190</ele>
        <time>2017-05-04T14:08:33.000Z</time>
      </trkpt>
      <trkpt lat="46.20668" lon="4.85073">
        <ele>191</ele>
        <time>2017-05-04T14:08:34.000Z</time>
      </trkpt>
      <trkpt lat="46.20668" lon="4.85072">
        <ele>191</ele>
        <time>2017-05-04T14:08:35.000Z</time>
      </trkpt>
      <trkpt lat="46.20668" lon="4.85071">
        <ele>191</ele>
        <time>2017-05-04T14:08:36.000Z</time>
      </trkpt>
      <trkpt lat="46.20667" lon="4.8507">
        <ele>191</ele>
        <time>2017-05-04T14:08:37.000Z</time>
      </trkpt>
      <trkpt lat="46.20667" lon="4.85069">
        <ele>191</ele>
        <time>2017-05-04T14:08:38.000Z</time>
      </trkpt>
      <trkpt lat="46.20668" lon="4.85068">
        <ele>191</ele>
        <time>2017-05-04T14:08:39.000Z</time>
      </trkpt>
      <trkpt lat="46.20668" lon="4.85067">
        <ele>191</ele>
        <time>2017-05-04T14:08:40.000Z</time>
      </trkpt>
      <trkpt lat="46.20669" lon="4.85066">
        <ele>191</ele>
        <time>2017-05-04T14:08:41.000Z</time>
      </trkpt>
      <trkpt lat="46.20669" lon="4.85065">
        <ele>191</ele>
        <time>2017-05-04T14:08:42.000Z</time>
      </trkpt>
      <trkpt lat="46.2067" lon="4.85065">
        <ele>191</ele>
        <time>2017-05-04T14:08:43.000Z</time>
      </trkpt>
      <trkpt lat="46.2067" lon="4.85064">
        <ele>191</ele>
        <time>2017-05-04T14:08:44.000Z</time>
      </trkpt>
      <trkpt lat="46.2067" lon="4.85063">
        <ele>191</ele>
        <time>2017-05-04T14:08:45.000Z</time>
      </trkpt>
      <trkpt lat="46.2067" lon="4.85063">
        <ele>191</ele>
        <time>2017-05-04T14:08:46.000Z</time>
      </trkpt>
      <trkpt lat="46.2067" lon="4.85063">
        <ele>190</ele>
        <time>2017-05-04T14:08:47.000Z</time>
      </trkpt>
      <trkpt lat="46.2067" lon="4.85063">
        <ele>190</ele>
        <time>2017-05-04T14:08:48.000Z</time>
      </trkpt>
      <trkpt lat="46.20669" lon="4.85063">
        <ele>190</ele>
        <time>2017-05-04T14:08:49.000Z</time>
      </trkpt>
      <trkpt lat="46.20668" lon="4.85063">
        <ele>190</ele>
        <time>2017-05-04T14:08:50.000Z</time>
      </trkpt>
      <trkpt lat="46.20668" lon="4.85063">
        <ele>190</ele>
        <time>2017-05-04T14:08:51.000Z</time>
      </trkpt>
      <trkpt lat="46.20667" lon="4.85064">
        <ele>190</ele>
        <time>2017-05-04T14:08:52.000Z</time>
      </trkpt>
      <trkpt lat="46.20667" lon="4.85064">
        <ele>190</ele>
        <time>2017-05-04T14:08:53.000Z</time>
      </trkpt>
      <trkpt lat="46.20667" lon="4.85064">
        <ele>190</ele>
        <time>2017-05-04T14:08:54.000Z</time>
      </trkpt>
      <trkpt lat="46.20667" lon="4.85064">
        <ele>191</ele>
        <time>2017-05-04T14:08:55.000Z</time>
      </trkpt>
      <trkpt lat="46.20667" lon="4.85064">
        <ele>191</ele>
        <time>2017-05-04T14:08:56.000Z</time>
      </trkpt>
      <trkpt lat="46.20667" lon="4.85064">
        <ele>190</ele>
        <time>2017-05-04T14:08:57.000Z</time>
      </trkpt>
      <trkpt lat="46.20667" lon="4.85064">
        <ele>190</ele>
        <time>2017-05-04T14:08:58.000Z</time>
      </trkpt>
      <trkpt lat="46.20668" lon="4.85064">
        <ele>190</ele>
        <time>2017-05-04T14:08:59.000Z</time>
      </trkpt>
      <trkpt lat="46.20668" lon="4.85064">
        <ele>190</ele>
        <time>2017-05-04T14:09:00.000Z</time>
      </trkpt>
      <trkpt lat="46.20668" lon="4.85064">
        <ele>190</ele>
        <time>2017-05-04T14:09:01.000Z</time>
      </trkpt>
      <trkpt lat="46.20668" lon="4.85064">
        <ele>190</ele>
        <time>2017-05-04T14:09:02.000Z</time>
      </trkpt>
      <trkpt lat="46.20669" lon="4.85064">
        <ele>190</ele>
        <time>2017-05-04T14:09:03.000Z</time>
      </trkpt>
      <trkpt lat="46.20669" lon="4.85064">
        <ele>190</ele>
        <time>2017-05-04T14:09:04.000Z</time>
      </trkpt>
      <trkpt lat="46.2067" lon="4.85064">
        <ele>190</ele>
        <time>2017-05-04T14:09:05.000Z</time>
      </trkpt>
      <trkpt lat="46.2067" lon="4.85064">
        <ele>189</ele>
        <time>2017-05-04T14:09:06.000Z</time>
      </trkpt>
      <trkpt lat="46.20671" lon="4.85064">
        <ele>189</ele>
        <time>2017-05-04T14:09:07.000Z</time>
      </trkpt>
      <trkpt lat="46.20672" lon="4.85063">
        <ele>190</ele>
        <time>2017-05-04T14:09:08.000Z</time>
      </trkpt>
      <trkpt lat="46.20673" lon="4.85063">
        <ele>190</ele>
        <time>2017-05-04T14:09:09.000Z</time>
      </trkpt>
      <trkpt lat="46.20674" lon="4.85063">
        <ele>190</ele>
        <time>2017-05-04T14:09:10.000Z</time>
      </trkpt>
      <trkpt lat="46.20674" lon="4.85063">
        <ele>190</ele>
        <time>2017-05-04T14:09:11.000Z</time>
      </trkpt>
      <trkpt lat="46.20675" lon="4.85063">
        <ele>190</ele>
        <time>2017-05-04T14:09:12.000Z</time>
      </trkpt>
      <trkpt lat="46.20677" lon="4.85063">
        <ele>191</ele>
        <time>2017-05-04T14:09:13.000Z</time>
      </trkpt>
      <trkpt lat="46.20678" lon="4.85063">
        <ele>190</ele>
        <time>2017-05-04T14:09:14.000Z</time>
      </trkpt>
      <trkpt lat="46.20679" lon="4.85064">
        <ele>190</ele>
        <time>2017-05-04T14:09:15.000Z</time>
      </trkpt>
      <trkpt lat="46.2068" lon="4.85064">
        <ele>189</ele>
        <time>2017-05-04T14:09:16.000Z</time>
      </trkpt>
      <trkpt lat="46.20681" lon="4.85064">
        <ele>189</ele>
        <time>2017-05-04T14:09:17.000Z</time>
      </trkpt>
      <trkpt lat="46.20682" lon="4.85064">
        <ele>189</ele>
        <time>2017-05-04T14:09:18.000Z</time>
      </trkpt>
      <trkpt lat="46.20683" lon="4.85064">
        <ele>189</ele>
        <time>2017-05-04T14:09:19.000Z</time>
      </trkpt>
      <trkpt lat="46.20684" lon="4.85065">
        <ele>189</ele>
        <time>2017-05-04T14:09:20.000Z</time>
      </trkpt>
      <trkpt lat="46.20685" lon="4.85065">
        <ele>189</ele>
        <time>2017-05-04T14:09:21.000Z</time>
      </trkpt>
      <trkpt lat="46.20686" lon="4.85065">
        <ele>189</ele>
        <time>2017-05-04T14:09:22.000Z</time>
      </trkpt>
      <trkpt lat="46.20687" lon="4.85066">
        <ele>189</ele>
        <time>2017-05-04T14:09:23.000Z</time>
      </trkpt>
      <trkpt lat="46.20688" lon="4.85066">
        <ele>189</ele>
        <time>2017-05-04T14:09:24.000Z</time>
      </trkpt>
      <trkpt lat="46.20688" lon="4.85066">
        <ele>189</ele>
        <time>2017-05-04T14:09:25.000Z</time>
      </trkpt>
      <trkpt lat="46.20689" lon="4.85066">
        <ele>189</ele>
        <time>2017-05-04T14:09:26.000Z</time>
      </trkpt>
      <trkpt lat="46.2069" lon="4.85066">
        <ele>189</ele>
        <time>2017-05-04T14:09:27.000Z</time>
      </trkpt>
      <trkpt lat="46.20691" lon="4.85066">
        <ele>189</ele>
        <time>2017-05-04T14:09:28.000Z</time>
      </trkpt>
      <trkpt lat="46.20692" lon="4.85067">
        <ele>188</ele>
        <time>2017-05-04T14:09:29.000Z</time>
      </trkpt>
      <trkpt lat="46.20693" lon="4.85067">
        <ele>188</ele>
        <time>2017-05-04T14:09:30.000Z</time>
      </trkpt>
      <trkpt lat="46.20694" lon="4.85066">
        <ele>188</ele>
        <time>2017-05-04T14:09:31.000Z</time>
      </trkpt>
      <trkpt lat="46.20695" lon="4.85067">
        <ele>188</ele>
        <time>2017-05-04T14:09:32.000Z</time>
      </trkpt>
      <trkpt lat="46.20696" lon="4.85067">
        <ele>188</ele>
        <time>2017-05-04T14:09:33.000Z</time>
      </trkpt>
      <trkpt lat="46.20696" lon="4.85067">
        <ele>187</ele>
        <time>2017-05-04T14:09:34.000Z</time>
      </trkpt>
      <trkpt lat="46.20697" lon="4.85067">
        <ele>187</ele>
        <time>2017-05-04T14:09:35.000Z</time>
      </trkpt>
      <trkpt lat="46.20698" lon="4.85067">
        <ele>188</ele>
        <time>2017-05-04T14:09:36.000Z</time>
      </trkpt>
      <trkpt lat="46.20699" lon="4.85067">
        <ele>187</ele>
        <time>2017-05-04T14:09:37.000Z</time>
      </trkpt>
      <trkpt lat="46.207" lon="4.85068">
        <ele>187</ele>
        <time>2017-05-04T14:09:38.000Z</time>
      </trkpt>
      <trkpt lat="46.20701" lon="4.85068">
        <ele>188</ele>
        <time>2017-05-04T14:09:39.000Z</time>
      </trkpt>
      <trkpt lat="46.20702" lon="4.85068">
        <ele>187</ele>
        <time>2017-05-04T14:09:40.000Z</time>
      </trkpt>
      <trkpt lat="46.20703" lon="4.85069">
        <ele>188</ele>
        <time>2017-05-04T14:09:41.000Z</time>
      </trkpt>
      <trkpt lat="46.20704" lon="4.85069">
        <ele>188</ele>
        <time>2017-05-04T14:09:42.000Z</time>
      </trkpt>
      <trkpt lat="46.20705" lon="4.85069">
        <ele>188</ele>
        <time>2017-05-04T14:09:43.000Z</time>
      </trkpt>
      <trkpt lat="46.20706" lon="4.85069">
        <ele>189</ele>
        <time>2017-05-04T14:09:44.000Z</time>
      </trkpt>
      <trkpt lat="46.20708" lon="4.85069">
        <ele>189</ele>
        <time>2017-05-04T14:09:45.000Z</time>
      </trkpt>
      <trkpt lat="46.20709" lon="4.85069">
        <ele>189</ele>
        <time>2017-05-04T14:09:46.000Z</time>
      </trkpt>
      <trkpt lat="46.2071" lon="4.85069">
        <ele>189</ele>
        <time>2017-05-04T14:09:47.000Z</time>
      </trkpt>
      <trkpt lat="46.20711" lon="4.85068">
        <ele>189</ele>
        <time>2017-05-04T14:09:48.000Z</time>
      </trkpt>
      <trkpt lat="46.20712" lon="4.85068">
        <ele>189</ele>
        <time>2017-05-04T14:09:49.000Z</time>
      </trkpt>
      <trkpt lat="46.20713" lon="4.85068">
        <ele>189</ele>
        <time>2017-05-04T14:09:50.000Z</time>
      </trkpt>
      <trkpt lat="46.20714" lon="4.85068">
        <ele>189</ele>
        <time>2017-05-04T14:09:51.000Z</time>
      </trkpt>
      <trkpt lat="46.20715" lon="4.85068">
        <ele>189</ele>
        <time>2017-05-04T14:09:52.000Z</time>
      </trkpt>
      <trkpt lat="46.20716" lon="4.85068">
        <ele>189</ele>
        <time>2017-05-04T14:09:53.000Z</time>
      </trkpt>
      <trkpt lat="46.20717" lon="4.85068">
        <ele>189</ele>
        <time>2017-05-04T14:09:54.000Z</time>
      </trkpt>
      <trkpt lat="46.20719" lon="4.85067">
        <ele>189</ele>
        <time>2017-05-04T14:09:55.000Z</time>
      </trkpt>
      <trkpt lat="46.2072" lon="4.85067">
        <ele>189</ele>
        <time>2017-05-04T14:09:56.000Z</time>
      </trkpt>
      <trkpt lat="46.20721" lon="4.85066">
        <ele>189</ele>
        <time>2017-05-04T14:09:57.000Z</time>
      </trkpt>
      <trkpt lat="46.20723" lon="4.85065">
        <ele>188</ele>
        <time>2017-05-04T14:09:58.000Z</time>
      </trkpt>
      <trkpt lat="46.20724" lon="4.85065">
        <ele>188</ele>
        <time>2017-05-04T14:09:59.000Z</time>
      </trkpt>
      <trkpt lat="46.20725" lon="4.85064">
        <ele>188</ele>
        <time>2017-05-04T14:10:00.000Z</time>
      </trkpt>
      <trkpt lat="46.20726" lon="4.85063">
        <ele>188</ele>
        <time>2017-05-04T14:10:01.000Z</time>
      </trkpt>
      <trkpt lat="46.20726" lon="4.85063">
        <ele>187</ele>
        <time>2017-05-04T14:10:02.000Z</time>
      </trkpt>
      <trkpt lat="46.20727" lon="4.85063">
        <ele>187</ele>
        <time>2017-05-04T14:10:03.000Z</time>
      </trkpt>
      <trkpt lat="46.20729" lon="4.85062">
        <ele>187</ele>
        <time>2017-05-04T14:10:04.000Z</time>
      </trkpt>
      <trkpt lat="46.2073" lon="4.85061">
        <ele>188</ele>
        <time>2017-05-04T14:10:05.000Z</time>
      </trkpt>
      <trkpt lat="46.2073" lon="4.85061">
        <ele>187</ele>
        <time>2017-05-04T14:10:06.000Z</time>
      </trkpt>
      <trkpt lat="46.20731" lon="4.8506">
        <ele>187</ele>
        <time>2017-05-04T14:10:07.000Z</time>
      </trkpt>
      <trkpt lat="46.20732" lon="4.8506">
        <ele>187</ele>
        <time>2017-05-04T14:10:08.000Z</time>
      </trkpt>
      <trkpt lat="46.20733" lon="4.85059">
        <ele>187</ele>
        <time>2017-05-04T14:10:09.000Z</time>
      </trkpt>
      <trkpt lat="46.20734" lon="4.85058">
        <ele>186</ele>
        <time>2017-05-04T14:10:10.000Z</time>
      </trkpt>
      <trkpt lat="46.20735" lon="4.85058">
        <ele>186</ele>
        <time>2017-05-04T14:10:11.000Z</time>
      </trkpt>
      <trkpt lat="46.20736" lon="4.85057">
        <ele>186</ele>
        <time>2017-05-04T14:10:12.000Z</time>
      </trkpt>
      <trkpt lat="46.20737" lon="4.85056">
        <ele>186</ele>
        <time>2017-05-04T14:10:13.000Z</time>
      </trkpt>
      <trkpt lat="46.20738" lon="4.85055">
        <ele>187</ele>
        <time>2017-05-04T14:10:14.000Z</time>
      </trkpt>
      <trkpt lat="46.20739" lon="4.85054">
        <ele>186</ele>
        <time>2017-05-04T14:10:15.000Z</time>
      </trkpt>
      <trkpt lat="46.2074" lon="4.85053">
        <ele>187</ele>
        <time>2017-05-04T14:10:16.000Z</time>
      </trkpt>
      <trkpt lat="46.20741" lon="4.85052">
        <ele>187</ele>
        <time>2017-05-04T14:10:17.000Z</time>
      </trkpt>
      <trkpt lat="46.20742" lon="4.85052">
        <ele>187</ele>
        <time>2017-05-04T14:10:18.000Z</time>
      </trkpt>
      <trkpt lat="46.20743" lon="4.85051">
        <ele>187</ele>
        <time>2017-05-04T14:10:19.000Z</time>
      </trkpt>
      <trkpt lat="46.20744" lon="4.8505">
        <ele>187</ele>
        <time>2017-05-04T14:10:20.000Z</time>
      </trkpt>
      <trkpt lat="46.20745" lon="4.8505">
        <ele>186</ele>
        <time>2017-05-04T14:10:21.000Z</time>
      </trkpt>
      <trkpt lat="46.20745" lon="4.85049">
        <ele>186</ele>
        <time>2017-05-04T14:10:22.000Z</time>
      </trkpt>
      <trkpt lat="46.20746" lon="4.85049">
        <ele>186</ele>
        <time>2017-05-04T14:10:23.000Z</time>
      </trkpt>
      <trkpt lat="46.20747" lon="4.85049">
        <ele>186</ele>
        <time>2017-05-04T14:10:24.000Z</time>
      </trkpt>
      <trkpt lat="46.20748" lon="4.85048">
        <ele>186</ele>
        <time>2017-05-04T14:10:25.000Z</time>
      </trkpt>
      <trkpt lat="46.20749" lon="4.85048">
        <ele>186</ele>
        <time>2017-05-04T14:10:26.000Z</time>
      </trkpt>
      <trkpt lat="46.2075" lon="4.85048">
        <ele>186</ele>
        <time>2017-05-04T14:10:27.000Z</time>
      </trkpt>
      <trkpt lat="46.2075" lon="4.85048">
        <ele>186</ele>
        <time>2017-05-04T14:10:28.000Z</time>
      </trkpt>
      <trkpt lat="46.20751" lon="4.85048">
        <ele>186</ele>
        <time>2017-05-04T14:10:29.000Z</time>
      </trkpt>
      <trkpt lat="46.20752" lon="4.85047">
        <ele>186</ele>
        <time>2017-05-04T14:10:30.000Z</time>
      </trkpt>
      <trkpt lat="46.20752" lon="4.85047">
        <ele>186</ele>
        <time>2017-05-04T14:10:31.000Z</time>
      </trkpt>
      <trkpt lat="46.20753" lon="4.85047">
        <ele>186</ele>
        <time>2017-05-04T14:10:32.000Z</time>
      </trkpt>
      <trkpt lat="46.20754" lon="4.85047">
        <ele>185</ele>
        <time>2017-05-04T14:10:33.000Z</time>
      </trkpt>
      <trkpt lat="46.20755" lon="4.85047">
        <ele>185</ele>
        <time>2017-05-04T14:10:34.000Z</time>
      </trkpt>
      <trkpt lat="46.20756" lon="4.85047">
        <ele>185</ele>
        <time>2017-05-04T14:10:35.000Z</time>
      </trkpt>
      <trkpt lat="46.20757" lon="4.85047">
        <ele>185</ele>
        <time>2017-05-04T14:10:36.000Z</time>
      </trkpt>
      <trkpt lat="46.20758" lon="4.85047">
        <ele>184</ele>
        <time>2017-05-04T14:10:37.000Z</time>
      </trkpt>
      <trkpt lat="46.20759" lon="4.85047">
        <ele>184</ele>
        <time>2017-05-04T14:10:38.000Z</time>
      </trkpt>
      <trkpt lat="46.2076" lon="4.85048">
        <ele>184</ele>
        <time>2017-05-04T14:10:39.000Z</time>
      </trkpt>
      <trkpt lat="46.20761" lon="4.85048">
        <ele>185</ele>
        <time>2017-05-04T14:10:40.000Z</time>
      </trkpt>
      <trkpt lat="46.20763" lon="4.85048">
        <ele>185</ele>
        <time>2017-05-04T14:10:41.000Z</time>
      </trkpt>
      <trkpt lat="46.20763" lon="4.85048">
        <ele>185</ele>
        <time>2017-05-04T14:10:42.000Z</time>
      </trkpt>
      <trkpt lat="46.20764" lon="4.85049">
        <ele>185</ele>
        <time>2017-05-04T14:10:43.000Z</time>
      </trkpt>
      <trkpt lat="46.20765" lon="4.85049">
        <ele>186</ele>
        <time>2017-05-04T14:10:44.000Z</time>
      </trkpt>
      <trkpt lat="46.20766" lon="4.85049">
        <ele>186</ele>
        <time>2017-05-04T14:10:45.000Z</time>
      </trkpt>
      <trkpt lat="46.20767" lon="4.8505">
        <ele>186</ele>
        <time>2017-05-04T14:10:46.000Z</time>
      </trkpt>
      <trkpt lat="46.20768" lon="4.8505">
        <ele>186</ele>
        <time>2017-05-04T14:10:47.000Z</time>
      </trkpt>
      <trkpt lat="46.20769" lon="4.85051">
        <ele>186</ele>
        <time>2017-05-04T14:10:48.000Z</time>
      </trkpt>
      <trkpt lat="46.2077" lon="4.85051">
        <ele>187</ele>
        <time>2017-05-04T14:10:49.000Z</time>
      </trkpt>
      <trkpt lat="46.20771" lon="4.85052">
        <ele>186</ele>
        <time>2017-05-04T14:10:50.000Z</time>
      </trkpt>
      <trkpt lat="46.20772" lon="4.85053">
        <ele>186</ele>
        <time>2017-05-04T14:10:51.000Z</time>
      </trkpt>
      <trkpt lat="46.20773" lon="4.85053">
        <ele>186</ele>
        <time>2017-05-04T14:10:52.000Z</time>
      </trkpt>
      <trkpt lat="46.20774" lon="4.85053">
        <ele>186</ele>
        <time>2017-05-04T14:10:53.000Z</time>
      </trkpt>
      <trkpt lat="46.20775" lon="4.85053">
        <ele>186</ele>
        <time>2017-05-04T14:10:54.000Z</time>
      </trkpt>
      <trkpt lat="46.20776" lon="4.85054">
        <ele>186</ele>
        <time>2017-05-04T14:10:55.000Z</time>
      </trkpt>
      <trkpt lat="46.20777" lon="4.85054">
        <ele>187</ele>
        <time>2017-05-04T14:10:56.000Z</time>
      </trkpt>
      <trkpt lat="46.20778" lon="4.85055">
        <ele>186</ele>
        <time>2017-05-04T14:10:57.000Z</time>
      </trkpt>
      <trkpt lat="46.20778" lon="4.85055">
        <ele>186</ele>
        <time>2017-05-04T14:10:58.000Z</time>
      </trkpt>
      <trkpt lat="46.20779" lon="4.85055">
        <ele>186</ele>
        <time>2017-05-04T14:10:59.000Z</time>
      </trkpt>
      <trkpt lat="46.2078" lon="4.85055">
        <ele>187</ele>
        <time>2017-05-04T14:11:00.000Z</time>
      </trkpt>
      <trkpt lat="46.20781" lon="4.85056">
        <ele>187</ele>
        <time>2017-05-04T14:11:01.000Z</time>
      </trkpt>
      <trkpt lat="46.20782" lon="4.85056">
        <ele>187</ele>
        <time>2017-05-04T14:11:02.000Z</time>
      </trkpt>
      <trkpt lat="46.20783" lon="4.85056">
        <ele>187</ele>
        <time>2017-05-04T14:11:03.000Z</time>
      </trkpt>
      <trkpt lat="46.20784" lon="4.85056">
        <ele>187</ele>
        <time>2017-05-04T14:11:04.000Z</time>
      </trkpt>
      <trkpt lat="46.20785" lon="4.85057">
        <ele>187</ele>
        <time>2017-05-04T14:11:05.000Z</time>
      </trkpt>
      <trkpt lat="46.20786" lon="4.85057">
        <ele>188</ele>
        <time>2017-05-04T14:11:06.000Z</time>
      </trkpt>
      <trkpt lat="46.20786" lon="4.85057">
        <ele>188</ele>
        <time>2017-05-04T14:11:07.000Z</time>
      </trkpt>
      <trkpt lat="46.20787" lon="4.85057">
        <ele>188</ele>
        <time>2017-05-04T14:11:08.000Z</time>
      </trkpt>
      <trkpt lat="46.20788" lon="4.85057">
        <ele>188</ele>
        <time>2017-05-04T14:11:09.000Z</time>
      </trkpt>
      <trkpt lat="46.20789" lon="4.85056">
        <ele>188</ele>
        <time>2017-05-04T14:11:10.000Z</time>
      </trkpt>
      <trkpt lat="46.20791" lon="4.85056">
        <ele>189</ele>
        <time>2017-05-04T14:11:11.000Z</time>
      </trkpt>
      <trkpt lat="46.20792" lon="4.85056">
        <ele>188</ele>
        <time>2017-05-04T14:11:12.000Z</time>
      </trkpt>
      <trkpt lat="46.20793" lon="4.85056">
        <ele>189</ele>
        <time>2017-05-04T14:11:13.000Z</time>
      </trkpt>
      <trkpt lat="46.20793" lon="4.85056">
        <ele>189</ele>
        <time>2017-05-04T14:11:14.000Z</time>
      </trkpt>
      <trkpt lat="46.20794" lon="4.85056">
        <ele>189</ele>
        <time>2017-05-04T14:11:15.000Z</time>
      </trkpt>
      <trkpt lat="46.20795" lon="4.85056">
        <ele>190</ele>
        <time>2017-05-04T14:11:16.000Z</time>
      </trkpt>
      <trkpt lat="46.20796" lon="4.85056">
        <ele>190</ele>
        <time>2017-05-04T14:11:17.000Z</time>
      </trkpt>
      <trkpt lat="46.20797" lon="4.85056">
        <ele>190</ele>
        <time>2017-05-04T14:11:18.000Z</time>
      </trkpt>
      <trkpt lat="46.20797" lon="4.85056">
        <ele>190</ele>
        <time>2017-05-04T14:11:19.000Z</time>
      </trkpt>
      <trkpt lat="46.20798" lon="4.85056">
        <ele>190</ele>
        <time>2017-05-04T14:11:20.000Z</time>
      </trkpt>
      <trkpt lat="46.20799" lon="4.85056">
        <ele>190</ele>
        <time>2017-05-04T14:11:21.000Z</time>
      </trkpt>
      <trkpt lat="46.208" lon="4.85056">
        <ele>191</ele>
        <time>2017-05-04T14:11:22.000Z</time>
      </trkpt>
      <trkpt lat="46.20801" lon="4.85056">
        <ele>191</ele>
        <time>2017-05-04T14:11:23.000Z</time>
      </trkpt>
      <trkpt lat="46.20801" lon="4.85056">
        <ele>191</ele>
        <time>2017-05-04T14:11:24.000Z</time>
      </trkpt>
      <trkpt lat="46.20802" lon="4.85055">
        <ele>191</ele>
        <time>2017-05-04T14:11:25.000Z</time>
      </trkpt>
      <trkpt lat="46.20803" lon="4.85055">
        <ele>191</ele>
        <time>2017-05-04T14:11:26.000Z</time>
      </trkpt>
      <trkpt lat="46.20803" lon="4.85055">
        <ele>192</ele>
        <time>2017-05-04T14:11:27.000Z</time>
      </trkpt>
      <trkpt lat="46.20804" lon="4.85054">
        <ele>192</ele>
        <time>2017-05-04T14:11:28.000Z</time>
      </trkpt>
      <trkpt lat="46.20805" lon="4.85054">
        <ele>193</ele>
        <time>2017-05-04T14:11:29.000Z</time>
      </trkpt>
      <trkpt lat="46.20805" lon="4.85053">
        <ele>193</ele>
        <time>2017-05-04T14:11:30.000Z</time>
      </trkpt>
      <trkpt lat="46.20806" lon="4.85053">
        <ele>193</ele>
        <time>2017-05-04T14:11:31.000Z</time>
      </trkpt>
      <trkpt lat="46.20807" lon="4.85053">
        <ele>193</ele>
        <time>2017-05-04T14:11:32.000Z</time>
      </trkpt>
      <trkpt lat="46.20808" lon="4.85052">
        <ele>193</ele>
        <time>2017-05-04T14:11:33.000Z</time>
      </trkpt>
      <trkpt lat="46.20808" lon="4.85052">
        <ele>193</ele>
        <time>2017-05-04T14:11:34.000Z</time>
      </trkpt>
      <trkpt lat="46.20809" lon="4.85051">
        <ele>193</ele>
        <time>2017-05-04T14:11:35.000Z</time>
      </trkpt>
      <trkpt lat="46.2081" lon="4.85051">
        <ele>193</ele>
        <time>2017-05-04T14:11:36.000Z</time>
      </trkpt>
      <trkpt lat="46.2081" lon="4.85051">
        <ele>193</ele>
        <time>2017-05-04T14:11:37.000Z</time>
      </trkpt>
      <trkpt lat="46.20811" lon="4.85051">
        <ele>194</ele>
        <time>2017-05-04T14:11:38.000Z</time>
      </trkpt>
      <trkpt lat="46.20812" lon="4.8505">
        <ele>194</ele>
        <time>2017-05-04T14:11:39.000Z</time>
      </trkpt>
      <trkpt lat="46.20813" lon="4.8505">
        <ele>195</ele>
        <time>2017-05-04T14:11:40.000Z</time>
      </trkpt>
      <trkpt lat="46.20815" lon="4.8505">
        <ele>195</ele>
        <time>2017-05-04T14:11:41.000Z</time>
      </trkpt>
      <trkpt lat="46.20816" lon="4.8505">
        <ele>195</ele>
        <time>2017-05-04T14:11:42.000Z</time>
      </trkpt>
      <trkpt lat="46.20817" lon="4.85049">
        <ele>195</ele>
        <time>2017-05-04T14:11:43.000Z</time>
      </trkpt>
      <trkpt lat="46.20817" lon="4.85049">
        <ele>196</ele>
        <time>2017-05-04T14:11:44.000Z</time>
      </trkpt>
      <trkpt lat="46.20818" lon="4.85048">
        <ele>196</ele>
        <time>2017-05-04T14:11:45.000Z</time>
      </trkpt>
      <trkpt lat="46.20818" lon="4.85047">
        <ele>196</ele>
        <time>2017-05-04T14:11:46.000Z</time>
      </trkpt>
      <trkpt lat="46.20818" lon="4.85047">
        <ele>196</ele>
        <time>2017-05-04T14:11:47.000Z</time>
      </trkpt>
      <trkpt lat="46.20819" lon="4.85047">
        <ele>196</ele>
        <time>2017-05-04T14:11:48.000Z</time>
      </trkpt>
      <trkpt lat="46.20819" lon="4.85047">
        <ele>197</ele>
        <time>2017-05-04T14:11:49.000Z</time>
      </trkpt>
      <trkpt lat="46.20819" lon="4.85047">
        <ele>197</ele>
        <time>2017-05-04T14:11:50.000Z</time>
      </trkpt>
      <trkpt lat="46.20819" lon="4.85048">
        <ele>197</ele>
        <time>2017-05-04T14:11:51.000Z</time>
      </trkpt>
      <trkpt lat="46.20819" lon="4.85048">
        <ele>197</ele>
        <time>2017-05-04T14:11:52.000Z</time>
      </trkpt>
      <trkpt lat="46.20819" lon="4.85048">
        <ele>197</ele>
        <time>2017-05-04T14:11:53.000Z</time>
      </trkpt>
      <trkpt lat="46.20819" lon="4.85048">
        <ele>197</ele>
        <time>2017-05-04T14:11:54.000Z</time>
      </trkpt>
      <trkpt lat="46.20819" lon="4.85047">
        <ele>198</ele>
        <time>2017-05-04T14:11:55.000Z</time>
      </trkpt>
      <trkpt lat="46.20819" lon="4.85047">
        <ele>198</ele>
        <time>2017-05-04T14:11:56.000Z</time>
      </trkpt>
      <trkpt lat="46.20819" lon="4.85047">
        <ele>198</ele>
        <time>2017-05-04T14:11:57.000Z</time>
      </trkpt>
      <trkpt lat="46.20819" lon="4.85047">
        <ele>198</ele>
        <time>2017-05-04T14:11:58.000Z</time>
      </trkpt>
      <trkpt lat="46.20819" lon="4.85047">
        <ele>198</ele>
        <time>2017-05-04T14:11:59.000Z</time>
      </trkpt>
      <trkpt lat="46.2082" lon="4.85047">
        <ele>199</ele>
        <time>2017-05-04T14:12:00.000Z</time>
      </trkpt>
      <trkpt lat="46.2082" lon="4.85047">
        <ele>198</ele>
        <time>2017-05-04T14:12:01.000Z</time>
      </trkpt>
      <trkpt lat="46.2082" lon="4.85047">
        <ele>199</ele>
        <time>2017-05-04T14:12:02.000Z</time>
      </trkpt>
      <trkpt lat="46.2082" lon="4.85048">
        <ele>199</ele>
        <time>2017-05-04T14:12:03.000Z</time>
      </trkpt>
      <trkpt lat="46.2082" lon="4.85048">
        <ele>199</ele>
        <time>2017-05-04T14:12:04.000Z</time>
      </trkpt>
      <trkpt lat="46.20821" lon="4.85048">
        <ele>199</ele>
        <time>2017-05-04T14:12:05.000Z</time>
      </trkpt>
      <trkpt lat="46.20821" lon="4.85048">
        <ele>199</ele>
        <time>2017-05-04T14:12:06.000Z</time>
      </trkpt>
      <trkpt lat="46.20821" lon="4.85048">
        <ele>199</ele>
        <time>2017-05-04T14:12:07.000Z</time>
      </trkpt>
      <trkpt lat="46.20821" lon="4.85048">
        <ele>199</ele>
        <time>2017-05-04T14:12:08.000Z</time>
      </trkpt>
      <trkpt lat="46.20822" lon="4.85048">
        <ele>199</ele>
        <time>2017-05-04T14:12:09.000Z</time>
      </trkpt>
      <trkpt lat="46.20822" lon="4.85048">
        <ele>199</ele>
        <time>2017-05-04T14:12:10.000Z</time>
      </trkpt>
      <trkpt lat="46.20822" lon="4.85048">
        <ele>199</ele>
        <time>2017-05-04T14:12:11.000Z</time>
      </trkpt>
      <trkpt lat="46.20822" lon="4.85048">
        <ele>199</ele>
        <time>2017-05-04T14:12:12.000Z</time>
      </trkpt>
      <trkpt lat="46.20822" lon="4.85048">
        <ele>199</ele>
        <time>2017-05-04T14:12:13.000Z</time>
      </trkpt>
      <trkpt lat="46.20822" lon="4.85048">
        <ele>199</ele>
        <time>2017-05-04T14:12:14.000Z</time>
      </trkpt>
      <trkpt lat="46.20822" lon="4.85048">
        <ele>199</ele>
        <time>2017-05-04T14:12:15.000Z</time>
      </trkpt>
      <trkpt lat="46.20823" lon="4.85048">
        <ele>199</ele>
        <time>2017-05-04T14:12:16.000Z</time>
      </trkpt>
      <trkpt lat="46.20823" lon="4.85048">
        <ele>199</ele>
        <time>2017-05-04T14:12:17.000Z</time>
      </trkpt>
      <trkpt lat="46.20823" lon="4.85049">
        <ele>199</ele>
        <time>2017-05-04T14:12:18.000Z</time>
      </trkpt>
      <trkpt lat="46.20823" lon="4.85048">
        <ele>199</ele>
        <time>2017-05-04T14:12:19.000Z</time>
      </trkpt>
      <trkpt lat="46.20823" lon="4.85048">
        <ele>200</ele>
        <time>2017-05-04T14:12:20.000Z</time>
      </trkpt>
      <trkpt lat="46.20823" lon="4.85048">
        <ele>200</ele>
        <time>2017-05-04T14:12:21.000Z</time>
      </trkpt>
      <trkpt lat="46.20824" lon="4.85048">
        <ele>200</ele>
        <time>2017-05-04T14:12:22.000Z</time>
      </trkpt>
      <trkpt lat="46.20824" lon="4.85048">
        <ele>200</ele>
        <time>2017-05-04T14:12:23.000Z</time>
      </trkpt>
      <trkpt lat="46.20824" lon="4.85048">
        <ele>200</ele>
        <time>2017-05-04T14:12:24.000Z</time>
      </trkpt>
      <trkpt lat="46.20824" lon="4.85048">
        <ele>200</ele>
        <time>2017-05-04T14:12:25.000Z</time>
      </trkpt>
      <trkpt lat="46.20824" lon="4.85048">
        <ele>200</ele>
        <time>2017-05-04T14:12:26.000Z</time>
      </trkpt>
      <trkpt lat="46.20824" lon="4.85048">
        <ele>200</ele>
        <time>2017-05-04T14:12:27.000Z</time>
      </trkpt>
      <trkpt lat="46.20824" lon="4.85048">
        <ele>200</ele>
        <time>2017-05-04T14:12:28.000Z</time>
      </trkpt>
      <trkpt lat="46.20824" lon="4.85048">
        <ele>200</ele>
        <time>2017-05-04T14:12:29.000Z</time>
      </trkpt>
      <trkpt lat="46.20824" lon="4.85048">
        <ele>200</ele>
        <time>2017-05-04T14:12:30.000Z</time>
      </trkpt>
      <trkpt lat="46.20824" lon="4.85048">
        <ele>200</ele>
        <time>2017-05-04T14:12:31.000Z</time>
      </trkpt>
      <trkpt lat="46.20824" lon="4.85048">
        <ele>200</ele>
        <time>2017-05-04T14:12:32.000Z</time>
      </trkpt>
      <trkpt lat="46.20824" lon="4.85048">
        <ele>200</ele>
        <time>2017-05-04T14:12:33.000Z</time>
      </trkpt>
      <trkpt lat="46.20824" lon="4.85048">
        <ele>200</ele>
        <time>2017-05-04T14:12:34.000Z</time>
      </trkpt>
      <trkpt lat="46.20824" lon="4.85048">
        <ele>200</ele>
        <time>2017-05-04T14:12:35.000Z</time>
      </trkpt>
      <trkpt lat="46.20823" lon="4.85048">
        <ele>200</ele>
        <time>2017-05-04T14:12:36.000Z</time>
      </trkpt>
      <trkpt lat="46.20823" lon="4.85048">
        <ele>200</ele>
        <time>2017-05-04T14:12:37.000Z</time>
      </trkpt>
      <trkpt lat="46.20823" lon="4.85048">
        <ele>200</ele>
        <time>2017-05-04T14:12:38.000Z</time>
      </trkpt>
      <trkpt lat="46.20823" lon="4.85048">
        <ele>200</ele>
        <time>2017-05-04T14:12:39.000Z</time>
      </trkpt>
      <trkpt lat="46.20823" lon="4.85048">
        <ele>200</ele>
        <time>2017-05-04T14:12:40.000Z</time>
      </trkpt>
      <trkpt lat="46.20823" lon="4.85048">
        <ele>200</ele>
        <time>2017-05-04T14:12:41.000Z</time>
      </trkpt>
      <trkpt lat="46.20822" lon="4.85048">
        <ele>200</ele>
        <time>2017-05-04T14:12:42.000Z</time>
      </trkpt>
      <trkpt lat="46.20822" lon="4.85048">
        <ele>200</ele>
        <time>2017-05-04T14:12:43.000Z</time>
      </trkpt>
      <trkpt lat="46.20822" lon="4.85049">
        <ele>201</ele>
        <time>2017-05-04T14:12:44.000Z</time>
      </trkpt>
      <trkpt lat="46.20822" lon="4.85049">
        <ele>201</ele>
        <time>2017-05-04T14:12:45.000Z</time>
      </trkpt>
      <trkpt lat="46.20822" lon="4.85049">
        <ele>201</ele>
        <time>2017-05-04T14:12:46.000Z</time>
      </trkpt>
      <trkpt lat="46.20821" lon="4.85049">
        <ele>201</ele>
        <time>2017-05-04T14:12:47.000Z</time>
      </trkpt>
      <trkpt lat="46.20821" lon="4.85049">
        <ele>201</ele>
        <time>2017-05-04T14:12:48.000Z</time>
      </trkpt>
      <trkpt lat="46.20821" lon="4.85049">
        <ele>201</ele>
        <time>2017-05-04T14:12:49.000Z</time>
      </trkpt>
      <trkpt lat="46.20821" lon="4.85049">
        <ele>201</ele>
        <time>2017-05-04T14:12:50.000Z</time>
      </trkpt>
      <trkpt lat="46.20821" lon="4.85049">
        <ele>201</ele>
        <time>2017-05-04T14:12:51.000Z</time>
      </trkpt>
      <trkpt lat="46.2082" lon="4.85049">
        <ele>201</ele>
        <time>2017-05-04T14:12:52.000Z</time>
      </trkpt>
      <trkpt lat="46.2082" lon="4.85049">
        <ele>201</ele>
        <time>2017-05-04T14:12:53.000Z</time>
      </trkpt>
      <trkpt lat="46.2082" lon="4.85049">
        <ele>201</ele>
        <time>2017-05-04T14:12:54.000Z</time>
      </trkpt>
      <trkpt lat="46.2082" lon="4.85049">
        <ele>201</ele>
        <time>2017-05-04T14:12:55.000Z</time>
      </trkpt>
      <trkpt lat="46.2082" lon="4.85049">
        <ele>202</ele>
        <time>2017-05-04T14:12:56.000Z</time>
      </trkpt>
      <trkpt lat="46.2082" lon="4.85049">
        <ele>202</ele>
        <time>2017-05-04T14:12:57.000Z</time>
      </trkpt>
      <trkpt lat="46.20819" lon="4.85049">
        <ele>202</ele>
        <time>2017-05-04T14:12:58.000Z</time>
      </trkpt>
      <trkpt lat="46.2082" lon="4.85049">
        <ele>202</ele>
        <time>2017-05-04T14:12:59.000Z</time>
      </trkpt>
      <trkpt lat="46.2082" lon="4.85049">
        <ele>202</ele>
        <time>2017-05-04T14:13:00.000Z</time>
      </trkpt>
      <trkpt lat="46.2082" lon="4.85049">
        <ele>202</ele>
        <time>2017-05-04T14:13:01.000Z</time>
      </trkpt>
      <trkpt lat="46.2082" lon="4.85049">
        <ele>201</ele>
        <time>2017-05-04T14:13:02.000Z</time>
      </trkpt>
      <trkpt lat="46.2082" lon="4.8505">
        <ele>202</ele>
        <time>2017-05-04T14:13:03.000Z</time>
      </trkpt>
      <trkpt lat="46.2082" lon="4.8505">
        <ele>201</ele>
        <time>2017-05-04T14:13:04.000Z</time>
      </trkpt>
      <trkpt lat="46.2082" lon="4.8505">
        <ele>201</ele>
        <time>2017-05-04T14:13:05.000Z</time>
      </trkpt>
      <trkpt lat="46.20821" lon="4.8505">
        <ele>201</ele>
        <time>2017-05-04T14:13:06.000Z</time>
      </trkpt>
      <trkpt lat="46.20821" lon="4.8505">
        <ele>201</ele>
        <time>2017-05-04T14:13:07.000Z</time>
      </trkpt>
      <trkpt lat="46.20821" lon="4.85051">
        <ele>201</ele>
        <time>2017-05-04T14:13:08.000Z</time>
      </trkpt>
      <trkpt lat="46.20821" lon="4.85051">
        <ele>201</ele>
        <time>2017-05-04T14:13:09.000Z</time>
      </trkpt>
      <trkpt lat="46.20821" lon="4.85051">
        <ele>201</ele>
        <time>2017-05-04T14:13:10.000Z</time>
      </trkpt>
      <trkpt lat="46.20821" lon="4.85051">
        <ele>201</ele>
        <time>2017-05-04T14:13:11.000Z</time>
      </trkpt>
      <trkpt lat="46.20822" lon="4.85051">
        <ele>201</ele>
        <time>2017-05-04T14:13:12.000Z</time>
      </trkpt>
      <trkpt lat="46.20822" lon="4.85051">
        <ele>201</ele>
        <time>2017-05-04T14:13:13.000Z</time>
      </trkpt>
      <trkpt lat="46.20822" lon="4.85051">
        <ele>201</ele>
        <time>2017-05-04T14:13:14.000Z</time>
      </trkpt>
      <trkpt lat="46.20823" lon="4.85051">
        <ele>201</ele>
        <time>2017-05-04T14:13:15.000Z</time>
      </trkpt>
      <trkpt lat="46.20823" lon="4.85051">
        <ele>201</ele>
        <time>2017-05-04T14:13:16.000Z</time>
      </trkpt>
      <trkpt lat="46.20823" lon="4.85051">
        <ele>201</ele>
        <time>2017-05-04T14:13:17.000Z</time>
      </trkpt>
      <trkpt lat="46.20823" lon="4.8505">
        <ele>201</ele>
        <time>2017-05-04T14:13:18.000Z</time>
      </trkpt>
      <trkpt lat="46.20823" lon="4.8505">
        <ele>200</ele>
        <time>2017-05-04T14:13:19.000Z</time>
      </trkpt>
      <trkpt lat="46.20824" lon="4.8505">
        <ele>200</ele>
        <time>2017-05-04T14:13:20.000Z</time>
      </trkpt>
      <trkpt lat="46.20824" lon="4.8505">
        <ele>200</ele>
        <time>2017-05-04T14:13:21.000Z</time>
      </trkpt>
      <trkpt lat="46.20824" lon="4.8505">
        <ele>200</ele>
        <time>2017-05-04T14:13:22.000Z</time>
      </trkpt>
      <trkpt lat="46.20824" lon="4.8505">
        <ele>200</ele>
        <time>2017-05-04T14:13:23.000Z</time>
      </trkpt>
      <trkpt lat="46.20825" lon="4.8505">
        <ele>200</ele>
        <time>2017-05-04T14:13:24.000Z</time>
      </trkpt>
      <trkpt lat="46.20825" lon="4.8505">
        <ele>200</ele>
        <time>2017-05-04T14:13:25.000Z</time>
      </trkpt>
      <trkpt lat="46.20825" lon="4.8505">
        <ele>200</ele>
        <time>2017-05-04T14:13:26.000Z</time>
      </trkpt>
      <trkpt lat="46.20825" lon="4.85049">
        <ele>200</ele>
        <time>2017-05-04T14:13:27.000Z</time>
      </trkpt>
      <trkpt lat="46.20825" lon="4.85049">
        <ele>199</ele>
        <time>2017-05-04T14:13:28.000Z</time>
      </trkpt>
      <trkpt lat="46.20825" lon="4.85049">
        <ele>199</ele>
        <time>2017-05-04T14:13:29.000Z</time>
      </trkpt>
      <trkpt lat="46.20825" lon="4.85049">
        <ele>199</ele>
        <time>2017-05-04T14:13:30.000Z</time>
      </trkpt>
      <trkpt lat="46.20825" lon="4.85049">
        <ele>198</ele>
        <time>2017-05-04T14:13:31.000Z</time>
      </trkpt>
      <trkpt lat="46.20826" lon="4.85049">
        <ele>198</ele>
        <time>2017-05-04T14:13:32.000Z</time>
      </trkpt>
      <trkpt lat="46.20826" lon="4.85049">
        <ele>198</ele>
        <time>2017-05-04T14:13:33.000Z</time>
      </trkpt>
      <trkpt lat="46.20826" lon="4.85049">
        <ele>198</ele>
        <time>2017-05-04T14:13:34.000Z</time>
      </trkpt>
      <trkpt lat="46.20826" lon="4.85049">
        <ele>198</ele>
        <time>2017-05-04T14:13:35.000Z</time>
      </trkpt>
      <trkpt lat="46.20826" lon="4.8505">
        <ele>197</ele>
        <time>2017-05-04T14:13:36.000Z</time>
      </trkpt>
      <trkpt lat="46.20827" lon="4.8505">
        <ele>197</ele>
        <time>2017-05-04T14:13:37.000Z</time>
      </trkpt>
      <trkpt lat="46.20827" lon="4.85049">
        <ele>197</ele>
        <time>2017-05-04T14:13:38.000Z</time>
      </trkpt>
      <trkpt lat="46.20827" lon="4.85049">
        <ele>197</ele>
        <time>2017-05-04T14:13:39.000Z</time>
      </trkpt>
      <trkpt lat="46.20827" lon="4.8505">
        <ele>197</ele>
        <time>2017-05-04T14:13:40.000Z</time>
      </trkpt>
      <trkpt lat="46.20827" lon="4.8505">
        <ele>197</ele>
        <time>2017-05-04T14:13:41.000Z</time>
      </trkpt>
      <trkpt lat="46.20827" lon="4.8505">
        <ele>197</ele>
        <time>2017-05-04T14:13:42.000Z</time>
      </trkpt>
      <trkpt lat="46.20828" lon="4.8505">
        <ele>196</ele>
        <time>2017-05-04T14:13:43.000Z</time>
      </trkpt>
      <trkpt lat="46.20828" lon="4.85049">
        <ele>196</ele>
        <time>2017-05-04T14:13:44.000Z</time>
      </trkpt>
      <trkpt lat="46.20829" lon="4.85048">
        <ele>196</ele>
        <time>2017-05-04T14:13:45.000Z</time>
      </trkpt>
      <trkpt lat="46.2083" lon="4.85047">
        <ele>196</ele>
        <time>2017-05-04T14:13:46.000Z</time>
      </trkpt>
      <trkpt lat="46.20831" lon="4.85046">
        <ele>195</ele>
        <time>2017-05-04T14:13:47.000Z</time>
      </trkpt>
      <trkpt lat="46.20832" lon="4.85045">
        <ele>195</ele>
        <time>2017-05-04T14:13:48.000Z</time>
      </trkpt>
      <trkpt lat="46.20832" lon="4.85044">
        <ele>195</ele>
        <time>2017-05-04T14:13:49.000Z</time>
      </trkpt>
      <trkpt lat="46.20833" lon="4.85043">
        <ele>194</ele>
        <time>2017-05-04T14:13:50.000Z</time>
      </trkpt>
      <trkpt lat="46.20834" lon="4.85041">
        <ele>194</ele>
        <time>2017-05-04T14:13:51.000Z</time>
      </trkpt>
      <trkpt lat="46.20834" lon="4.8504">
        <ele>194</ele>
        <time>2017-05-04T14:13:52.000Z</time>
      </trkpt>
      <trkpt lat="46.20834" lon="4.85039">
        <ele>194</ele>
        <time>2017-05-04T14:13:53.000Z</time>
      </trkpt>
      <trkpt lat="46.20835" lon="4.85039">
        <ele>194</ele>
        <time>2017-05-04T14:13:54.000Z</time>
      </trkpt>
      <trkpt lat="46.20835" lon="4.85038">
        <ele>193</ele>
        <time>2017-05-04T14:13:55.000Z</time>
      </trkpt>
      <trkpt lat="46.20835" lon="4.85038">
        <ele>193</ele>
        <time>2017-05-04T14:13:56.000Z</time>
      </trkpt>
      <trkpt lat="46.20836" lon="4.85037">
        <ele>193</ele>
        <time>2017-05-04T14:13:57.000Z</time>
      </trkpt>
      <trkpt lat="46.20836" lon="4.85037">
        <ele>193</ele>
        <time>2017-05-04T14:13:58.000Z</time>
      </trkpt>
      <trkpt lat="46.20836" lon="4.85037">
        <ele>193</ele>
        <time>2017-05-04T14:13:59.000Z</time>
      </trkpt>
      <trkpt lat="46.20836" lon="4.85037">
        <ele>193</ele>
        <time>2017-05-04T14:14:00.000Z</time>
      </trkpt>
      <trkpt lat="46.20837" lon="4.85036">
        <ele>192</ele>
        <time>2017-05-04T14:14:01.000Z</time>
      </trkpt>
      <trkpt lat="46.20838" lon="4.85036">
        <ele>192</ele>
        <time>2017-05-04T14:14:02.000Z</time>
      </trkpt>
      <trkpt lat="46.20839" lon="4.85035">
        <ele>192</ele>
        <time>2017-05-04T14:14:03.000Z</time>
      </trkpt>
      <trkpt lat="46.2084" lon="4.85034">
        <ele>192</ele>
        <time>2017-05-04T14:14:04.000Z</time>
      </trkpt>
      <trkpt lat="46.2084" lon="4.85034">
        <ele>192</ele>
        <time>2017-05-04T14:14:05.000Z</time>
      </trkpt>
      <trkpt lat="46.20841" lon="4.85033">
        <ele>192</ele>
        <time>2017-05-04T14:14:06.000Z</time>
      </trkpt>
      <trkpt lat="46.20842" lon="4.85033">
        <ele>192</ele>
        <time>2017-05-04T14:14:07.000Z</time>
      </trkpt>
      <trkpt lat="46.20843" lon="4.85033">
        <ele>192</ele>
        <time>2017-05-04T14:14:08.000Z</time>
      </trkpt>
      <trkpt lat="46.20844" lon="4.85033">
        <ele>192</ele>
        <time>2017-05-04T14:14:09.000Z</time>
      </trkpt>
      <trkpt lat="46.20845" lon="4.85033">
        <ele>192</ele>
        <time>2017-05-04T14:14:10.000Z</time>
      </trkpt>
      <trkpt lat="46.20846" lon="4.85033">
        <ele>192</ele>
        <time>2017-05-04T14:14:11.000Z</time>
      </trkpt>
      <trkpt lat="46.20847" lon="4.85033">
        <ele>192</ele>
        <time>2017-05-04T14:14:12.000Z</time>
      </trkpt>
      <trkpt lat="46.20848" lon="4.85034">
        <ele>192</ele>
        <time>2017-05-04T14:14:13.000Z</time>
      </trkpt>
      <trkpt lat="46.20849" lon="4.85034">
        <ele>193</ele>
        <time>2017-05-04T14:14:14.000Z</time>
      </trkpt>
      <trkpt lat="46.20851" lon="4.85035">
        <ele>192</ele>
        <time>2017-05-04T14:14:15.000Z</time>
      </trkpt>
      <trkpt lat="46.20852" lon="4.85035">
        <ele>192</ele>
        <time>2017-05-04T14:14:16.000Z</time>
      </trkpt>
      <trkpt lat="46.20853" lon="4.85036">
        <ele>192</ele>
        <time>2017-05-04T14:14:17.000Z</time>
      </trkpt>
      <trkpt lat="46.20854" lon="4.85036">
        <ele>193</ele>
        <time>2017-05-04T14:14:18.000Z</time>
      </trkpt>
      <trkpt lat="46.20855" lon="4.85037">
        <ele>194</ele>
        <time>2017-05-04T14:14:19.000Z</time>
      </trkpt>
      <trkpt lat="46.20856" lon="4.85038">
        <ele>194</ele>
        <time>2017-05-04T14:14:20.000Z</time>
      </trkpt>
      <trkpt lat="46.20856" lon="4.85039">
        <ele>194</ele>
        <time>2017-05-04T14:14:21.000Z</time>
      </trkpt>
      <trkpt lat="46.20857" lon="4.85039">
        <ele>194</ele>
        <time>2017-05-04T14:14:22.000Z</time>
      </trkpt>
      <trkpt lat="46.20858" lon="4.8504">
        <ele>195</ele>
        <time>2017-05-04T14:14:23.000Z</time>
      </trkpt>
      <trkpt lat="46.20859" lon="4.8504">
        <ele>196</ele>
        <time>2017-05-04T14:14:24.000Z</time>
      </trkpt>
      <trkpt lat="46.20859" lon="4.85041">
        <ele>196</ele>
        <time>2017-05-04T14:14:25.000Z</time>
      </trkpt>
      <trkpt lat="46.2086" lon="4.85041">
        <ele>197</ele>
        <time>2017-05-04T14:14:26.000Z</time>
      </trkpt>
      <trkpt lat="46.20861" lon="4.85042">
        <ele>197</ele>
        <time>2017-05-04T14:14:27.000Z</time>
      </trkpt>
      <trkpt lat="46.20862" lon="4.85042">
        <ele>197</ele>
        <time>2017-05-04T14:14:28.000Z</time>
      </trkpt>
      <trkpt lat="46.20864" lon="4.85043">
        <ele>197</ele>
        <time>2017-05-04T14:14:29.000Z</time>
      </trkpt>
      <trkpt lat="46.20865" lon="4.85043">
        <ele>197</ele>
        <time>2017-05-04T14:14:30.000Z</time>
      </trkpt>
      <trkpt lat="46.20866" lon="4.85044">
        <ele>197</ele>
        <time>2017-05-04T14:14:31.000Z</time>
      </trkpt>
      <trkpt lat="46.20868" lon="4.85044">
        <ele>197</ele>
        <time>2017-05-04T14:14:32.000Z</time>
      </trkpt>
      <trkpt lat="46.20869" lon="4.85044">
        <ele>197</ele>
        <time>2017-05-04T14:14:33.000Z</time>
      </trkpt>
      <trkpt lat="46.2087" lon="4.85044">
        <ele>198</ele>
        <time>2017-05-04T14:14:34.000Z</time>
      </trkpt>
      <trkpt lat="46.20871" lon="4.85044">
        <ele>198</ele>
        <time>2017-05-04T14:14:35.000Z</time>
      </trkpt>
      <trkpt lat="46.20872" lon="4.85044">
        <ele>198</ele>
        <time>2017-05-04T14:14:36.000Z</time>
      </trkpt>
      <trkpt lat="46.20873" lon="4.85044">
        <ele>197</ele>
        <time>2017-05-04T14:14:37.000Z</time>
      </trkpt>
      <trkpt lat="46.20875" lon="4.85045">
        <ele>197</ele>
        <time>2017-05-04T14:14:38.000Z</time>
      </trkpt>
      <trkpt lat="46.20876" lon="4.85045">
        <ele>197</ele>
        <time>2017-05-04T14:14:39.000Z</time>
      </trkpt>
      <trkpt lat="46.20878" lon="4.85044">
        <ele>197</ele>
        <time>2017-05-04T14:14:40.000Z</time>
      </trkpt>
      <trkpt lat="46.20879" lon="4.85044">
        <ele>196</ele>
        <time>2017-05-04T14:14:41.000Z</time>
      </trkpt>
      <trkpt lat="46.20881" lon="4.85043">
        <ele>196</ele>
        <time>2017-05-04T14:14:42.000Z</time>
      </trkpt>
      <trkpt lat="46.20882" lon="4.85043">
        <ele>197</ele>
        <time>2017-05-04T14:14:43.000Z</time>
      </trkpt>
      <trkpt lat="46.20883" lon="4.85042">
        <ele>198</ele>
        <time>2017-05-04T14:14:44.000Z</time>
      </trkpt>
      <trkpt lat="46.20884" lon="4.85042">
        <ele>198</ele>
        <time>2017-05-04T14:14:45.000Z</time>
      </trkpt>
      <trkpt lat="46.20886" lon="4.85041">
        <ele>198</ele>
        <time>2017-05-04T14:14:46.000Z</time>
      </trkpt>
      <trkpt lat="46.20887" lon="4.85041">
        <ele>198</ele>
        <time>2017-05-04T14:14:47.000Z</time>
      </trkpt>
      <trkpt lat="46.20888" lon="4.8504">
        <ele>198</ele>
        <time>2017-05-04T14:14:48.000Z</time>
      </trkpt>
      <trkpt lat="46.20889" lon="4.85039">
        <ele>198</ele>
        <time>2017-05-04T14:14:49.000Z</time>
      </trkpt>
      <trkpt lat="46.2089" lon="4.85038">
        <ele>197</ele>
        <time>2017-05-04T14:14:50.000Z</time>
      </trkpt>
      <trkpt lat="46.20891" lon="4.85037">
        <ele>197</ele>
        <time>2017-05-04T14:14:51.000Z</time>
      </trkpt>
      <trkpt lat="46.20892" lon="4.85037">
        <ele>197</ele>
        <time>2017-05-04T14:14:52.000Z</time>
      </trkpt>
      <trkpt lat="46.20893" lon="4.85036">
        <ele>197</ele>
        <time>2017-05-04T14:14:53.000Z</time>
      </trkpt>
      <trkpt lat="46.20894" lon="4.85035">
        <ele>198</ele>
        <time>2017-05-04T14:14:54.000Z</time>
      </trkpt>
      <trkpt lat="46.20896" lon="4.85035">
        <ele>198</ele>
        <time>2017-05-04T14:14:55.000Z</time>
      </trkpt>
      <trkpt lat="46.20897" lon="4.85034">
        <ele>197</ele>
        <time>2017-05-04T14:14:56.000Z</time>
      </trkpt>
      <trkpt lat="46.20898" lon="4.85032">
        <ele>198</ele>
        <time>2017-05-04T14:14:57.000Z</time>
      </trkpt>
      <trkpt lat="46.20899" lon="4.85031">
        <ele>198</ele>
        <time>2017-05-04T14:14:58.000Z</time>
      </trkpt>
      <trkpt lat="46.20901" lon="4.8503">
        <ele>199</ele>
        <time>2017-05-04T14:14:59.000Z</time>
      </trkpt>
      <trkpt lat="46.20902" lon="4.85028">
        <ele>199</ele>
        <time>2017-05-04T14:15:00.000Z</time>
      </trkpt>
      <trkpt lat="46.20903" lon="4.85027">
        <ele>199</ele>
        <time>2017-05-04T14:15:01.000Z</time>
      </trkpt>
      <trkpt lat="46.20904" lon="4.85026">
        <ele>199</ele>
        <time>2017-05-04T14:15:02.000Z</time>
      </trkpt>
      <trkpt lat="46.20905" lon="4.85025">
        <ele>199</ele>
        <time>2017-05-04T14:15:03.000Z</time>
      </trkpt>
      <trkpt lat="46.20906" lon="4.85024">
        <ele>199</ele>
        <time>2017-05-04T14:15:04.000Z</time>
      </trkpt>
      <trkpt lat="46.20906" lon="4.85023">
        <ele>199</ele>
        <time>2017-05-04T14:15:05.000Z</time>
      </trkpt>
      <trkpt lat="46.20907" lon="4.85021">
        <ele>199</ele>
        <time>2017-05-04T14:15:06.000Z</time>
      </trkpt>
      <trkpt lat="46.20908" lon="4.8502">
        <ele>199</ele>
        <time>2017-05-04T14:15:07.000Z</time>
      </trkpt>
      <trkpt lat="46.20909" lon="4.85019">
        <ele>200</ele>
        <time>2017-05-04T14:15:08.000Z</time>
      </trkpt>
      <trkpt lat="46.2091" lon="4.85018">
        <ele>200</ele>
        <time>2017-05-04T14:15:09.000Z</time>
      </trkpt>
      <trkpt lat="46.20911" lon="4.85017">
        <ele>200</ele>
        <time>2017-05-04T14:15:10.000Z</time>
      </trkpt>
      <trkpt lat="46.20912" lon="4.85016">
        <ele>200</ele>
        <time>2017-05-04T14:15:11.000Z</time>
      </trkpt>
      <trkpt lat="46.20913" lon="4.85016">
        <ele>200</ele>
        <time>2017-05-04T14:15:12.000Z</time>
      </trkpt>
      <trkpt lat="46.20914" lon="4.85015">
        <ele>200</ele>
        <time>2017-05-04T14:15:13.000Z</time>
      </trkpt>
      <trkpt lat="46.20915" lon="4.85014">
        <ele>200</ele>
        <time>2017-05-04T14:15:14.000Z</time>
      </trkpt>
      <trkpt lat="46.20916" lon="4.85013">
        <ele>200</ele>
        <time>2017-05-04T14:15:15.000Z</time>
      </trkpt>
      <trkpt lat="46.20917" lon="4.85012">
        <ele>201</ele>
        <time>2017-05-04T14:15:16.000Z</time>
      </trkpt>
      <trkpt lat="46.20918" lon="4.85011">
        <ele>201</ele>
        <time>2017-05-04T14:15:17.000Z</time>
      </trkpt>
      <trkpt lat="46.20919" lon="4.8501">
        <ele>201</ele>
        <time>2017-05-04T14:15:18.000Z</time>
      </trkpt>
      <trkpt lat="46.2092" lon="4.85009">
        <ele>201</ele>
        <time>2017-05-04T14:15:19.000Z</time>
      </trkpt>
      <trkpt lat="46.20921" lon="4.85009">
        <ele>201</ele>
        <time>2017-05-04T14:15:20.000Z</time>
      </trkpt>
      <trkpt lat="46.20922" lon="4.85008">
        <ele>201</ele>
        <time>2017-05-04T14:15:21.000Z</time>
      </trkpt>
      <trkpt lat="46.20923" lon="4.85008">
        <ele>201</ele>
        <time>2017-05-04T14:15:22.000Z</time>
      </trkpt>
      <trkpt lat="46.20924" lon="4.85007">
        <ele>201</ele>
        <time>2017-05-04T14:15:23.000Z</time>
      </trkpt>
      <trkpt lat="46.20924" lon="4.85006">
        <ele>201</ele>
        <time>2017-05-04T14:15:24.000Z</time>
      </trkpt>
      <trkpt lat="46.20924" lon="4.85006">
        <ele>201</ele>
        <time>2017-05-04T14:15:25.000Z</time>
      </trkpt>
      <trkpt lat="46.20925" lon="4.85005">
        <ele>201</ele>
        <time>2017-05-04T14:15:26.000Z</time>
      </trkpt>
      <trkpt lat="46.20926" lon="4.85005">
        <ele>201</ele>
        <time>2017-05-04T14:15:27.000Z</time>
      </trkpt>
      <trkpt lat="46.20927" lon="4.85004">
        <ele>201</ele>
        <time>2017-05-04T14:15:28.000Z</time>
      </trkpt>
      <trkpt lat="46.20929" lon="4.85004">
        <ele>201</ele>
        <time>2017-05-04T14:15:29.000Z</time>
      </trkpt>
      <trkpt lat="46.2093" lon="4.85003">
        <ele>202</ele>
        <time>2017-05-04T14:15:30.000Z</time>
      </trkpt>
      <trkpt lat="46.20931" lon="4.85002">
        <ele>202</ele>
        <time>2017-05-04T14:15:31.000Z</time>
      </trkpt>
      <trkpt lat="46.20932" lon="4.85001">
        <ele>202</ele>
        <time>2017-05-04T14:15:32.000Z</time>
      </trkpt>
      <trkpt lat="46.20933" lon="4.85001">
        <ele>202</ele>
        <time>2017-05-04T14:15:33.000Z</time>
      </trkpt>
      <trkpt lat="46.20934" lon="4.85">
        <ele>202</ele>
        <time>2017-05-04T14:15:34.000Z</time>
      </trkpt>
      <trkpt lat="46.20935" lon="4.84999">
        <ele>202</ele>
        <time>2017-05-04T14:15:35.000Z</time>
      </trkpt>
      <trkpt lat="46.20936" lon="4.84998">
        <ele>202</ele>
        <time>2017-05-04T14:15:36.000Z</time>
      </trkpt>
      <trkpt lat="46.20937" lon="4.84997">
        <ele>202</ele>
        <time>2017-05-04T14:15:37.000Z</time>
      </trkpt>
      <trkpt lat="46.20938" lon="4.84997">
        <ele>202</ele>
        <time>2017-05-04T14:15:38.000Z</time>
      </trkpt>
      <trkpt lat="46.20939" lon="4.84996">
        <ele>202</ele>
        <time>2017-05-04T14:15:39.000Z</time>
      </trkpt>
      <trkpt lat="46.20939" lon="4.84995">
        <ele>202</ele>
        <time>2017-05-04T14:15:40.000Z</time>
      </trkpt>
      <trkpt lat="46.20939" lon="4.84995">
        <ele>202</ele>
        <time>2017-05-04T14:15:41.000Z</time>
      </trkpt>
      <trkpt lat="46.20938" lon="4.84995">
        <ele>202</ele>
        <time>2017-05-04T14:15:42.000Z</time>
      </trkpt>
      <trkpt lat="46.20938" lon="4.84995">
        <ele>202</ele>
        <time>2017-05-04T14:15:43.000Z</time>
      </trkpt>
      <trkpt lat="46.20939" lon="4.84995">
        <ele>202</ele>
        <time>2017-05-04T14:15:44.000Z</time>
      </trkpt>
      <trkpt lat="46.2094" lon="4.84995">
        <ele>202</ele>
        <time>2017-05-04T14:15:45.000Z</time>
      </trkpt>
      <trkpt lat="46.2094" lon="4.84994">
        <ele>202</ele>
        <time>2017-05-04T14:15:46.000Z</time>
      </trkpt>
      <trkpt lat="46.20941" lon="4.84993">
        <ele>201</ele>
        <time>2017-05-04T14:15:47.000Z</time>
      </trkpt>
      <trkpt lat="46.20942" lon="4.84992">
        <ele>202</ele>
        <time>2017-05-04T14:15:48.000Z</time>
      </trkpt>
      <trkpt lat="46.20943" lon="4.84992">
        <ele>202</ele>
        <time>2017-05-04T14:15:49.000Z</time>
      </trkpt>
      <trkpt lat="46.20944" lon="4.84991">
        <ele>202</ele>
        <time>2017-05-04T14:15:50.000Z</time>
      </trkpt>
      <trkpt lat="46.20945" lon="4.8499">
        <ele>202</ele>
        <time>2017-05-04T14:15:51.000Z</time>
      </trkpt>
      <trkpt lat="46.20946" lon="4.84989">
        <ele>202</ele>
        <time>2017-05-04T14:15:52.000Z</time>
      </trkpt>
      <trkpt lat="46.20947" lon="4.84989">
        <ele>202</ele>
        <time>2017-05-04T14:15:53.000Z</time>
      </trkpt>
      <trkpt lat="46.20948" lon="4.84988">
        <ele>202</ele>
        <time>2017-05-04T14:15:54.000Z</time>
      </trkpt>
      <trkpt lat="46.20949" lon="4.84987">
        <ele>202</ele>
        <time>2017-05-04T14:15:55.000Z</time>
      </trkpt>
      <trkpt lat="46.2095" lon="4.84987">
        <ele>202</ele>
        <time>2017-05-04T14:15:56.000Z</time>
      </trkpt>
      <trkpt lat="46.2095" lon="4.84986">
        <ele>202</ele>
        <time>2017-05-04T14:15:57.000Z</time>
      </trkpt>
      <trkpt lat="46.20951" lon="4.84985">
        <ele>202</ele>
        <time>2017-05-04T14:15:58.000Z</time>
      </trkpt>
      <trkpt lat="46.20952" lon="4.84985">
        <ele>202</ele>
        <time>2017-05-04T14:15:59.000Z</time>
      </trkpt>
      <trkpt lat="46.20953" lon="4.84984">
        <ele>202</ele>
        <time>2017-05-04T14:16:00.000Z</time>
      </trkpt>
      <trkpt lat="46.20954" lon="4.84983">
        <ele>202</ele>
        <time>2017-05-04T14:16:01.000Z</time>
      </trkpt>
      <trkpt lat="46.20955" lon="4.84982">
        <ele>202</ele>
        <time>2017-05-04T14:16:02.000Z</time>
      </trkpt>
      <trkpt lat="46.20956" lon="4.84982">
        <ele>202</ele>
        <time>2017-05-04T14:16:03.000Z</time>
      </trkpt>
      <trkpt lat="46.20957" lon="4.84981">
        <ele>202</ele>
        <time>2017-05-04T14:16:04.000Z</time>
      </trkpt>
      <trkpt lat="46.20957" lon="4.8498">
        <ele>203</ele>
        <time>2017-05-04T14:16:05.000Z</time>
      </trkpt>
      <trkpt lat="46.20958" lon="4.84979">
        <ele>203</ele>
        <time>2017-05-04T14:16:06.000Z</time>
      </trkpt>
      <trkpt lat="46.20959" lon="4.84978">
        <ele>203</ele>
        <time>2017-05-04T14:16:07.000Z</time>
      </trkpt>
      <trkpt lat="46.2096" lon="4.84978">
        <ele>203</ele>
        <time>2017-05-04T14:16:08.000Z</time>
      </trkpt>
      <trkpt lat="46.20961" lon="4.84977">
        <ele>203</ele>
        <time>2017-05-04T14:16:09.000Z</time>
      </trkpt>
      <trkpt lat="46.20962" lon="4.84976">
        <ele>203</ele>
        <time>2017-05-04T14:16:10.000Z</time>
      </trkpt>
      <trkpt lat="46.20963" lon="4.84975">
        <ele>203</ele>
        <time>2017-05-04T14:16:11.000Z</time>
      </trkpt>
      <trkpt lat="46.20964" lon="4.84975">
        <ele>203</ele>
        <time>2017-05-04T14:16:12.000Z</time>
      </trkpt>
      <trkpt lat="46.20965" lon="4.84974">
        <ele>203</ele>
        <time>2017-05-04T14:16:13.000Z</time>
      </trkpt>
      <trkpt lat="46.20966" lon="4.84974">
        <ele>202</ele>
        <time>2017-05-04T14:16:14.000Z</time>
      </trkpt>
      <trkpt lat="46.20967" lon="4.84973">
        <ele>202</ele>
        <time>2017-05-04T14:16:15.000Z</time>
      </trkpt>
      <trkpt lat="46.20967" lon="4.84973">
        <ele>203</ele>
        <time>2017-05-04T14:16:16.000Z</time>
      </trkpt>
      <trkpt lat="46.20968" lon="4.84972">
        <ele>203</ele>
        <time>2017-05-04T14:16:17.000Z</time>
      </trkpt>
      <trkpt lat="46.20969" lon="4.84972">
        <ele>203</ele>
        <time>2017-05-04T14:16:18.000Z</time>
      </trkpt>
      <trkpt lat="46.20969" lon="4.84971">
        <ele>203</ele>
        <time>2017-05-04T14:16:19.000Z</time>
      </trkpt>
      <trkpt lat="46.2097" lon="4.8497">
        <ele>202</ele>
        <time>2017-05-04T14:16:20.000Z</time>
      </trkpt>
      <trkpt lat="46.2097" lon="4.8497">
        <ele>202</ele>
        <time>2017-05-04T14:16:21.000Z</time>
      </trkpt>
      <trkpt lat="46.2097" lon="4.84969">
        <ele>202</ele>
        <time>2017-05-04T14:16:22.000Z</time>
      </trkpt>
      <trkpt lat="46.20971" lon="4.84969">
        <ele>202</ele>
        <time>2017-05-04T14:16:23.000Z</time>
      </trkpt>
      <trkpt lat="46.20971" lon="4.84969">
        <ele>203</ele>
        <time>2017-05-04T14:16:24.000Z</time>
      </trkpt>
      <trkpt lat="46.20972" lon="4.84968">
        <ele>203</ele>
        <time>2017-05-04T14:16:25.000Z</time>
      </trkpt>
      <trkpt lat="46.20973" lon="4.84968">
        <ele>203</ele>
        <time>2017-05-04T14:16:26.000Z</time>
      </trkpt>
      <trkpt lat="46.20974" lon="4.84967">
        <ele>204</ele>
        <time>2017-05-04T14:16:27.000Z</time>
      </trkpt>
      <trkpt lat="46.20975" lon="4.84966">
        <ele>204</ele>
        <time>2017-05-04T14:16:28.000Z</time>
      </trkpt>
      <trkpt lat="46.20975" lon="4.84965">
        <ele>204</ele>
        <time>2017-05-04T14:16:29.000Z</time>
      </trkpt>
      <trkpt lat="46.20976" lon="4.84964">
        <ele>204</ele>
        <time>2017-05-04T14:16:30.000Z</time>
      </trkpt>
      <trkpt lat="46.20977" lon="4.84964">
        <ele>204</ele>
        <time>2017-05-04T14:16:31.000Z</time>
      </trkpt>
      <trkpt lat="46.20978" lon="4.84963">
        <ele>204</ele>
        <time>2017-05-04T14:16:32.000Z</time>
      </trkpt>
      <trkpt lat="46.20979" lon="4.84962">
        <ele>204</ele>
        <time>2017-05-04T14:16:33.000Z</time>
      </trkpt>
      <trkpt lat="46.2098" lon="4.84961">
        <ele>204</ele>
        <time>2017-05-04T14:16:34.000Z</time>
      </trkpt>
      <trkpt lat="46.20982" lon="4.8496">
        <ele>204</ele>
        <time>2017-05-04T14:16:35.000Z</time>
      </trkpt>
      <trkpt lat="46.20983" lon="4.84959">
        <ele>204</ele>
        <time>2017-05-04T14:16:36.000Z</time>
      </trkpt>
      <trkpt lat="46.20984" lon="4.84958">
        <ele>205</ele>
        <time>2017-05-04T14:16:37.000Z</time>
      </trkpt>
      <trkpt lat="46.20985" lon="4.84958">
        <ele>205</ele>
        <time>2017-05-04T14:16:38.000Z</time>
      </trkpt>
      <trkpt lat="46.20986" lon="4.84957">
        <ele>205</ele>
        <time>2017-05-04T14:16:39.000Z</time>
      </trkpt>
      <trkpt lat="46.20988" lon="4.84956">
        <ele>205</ele>
        <time>2017-05-04T14:16:40.000Z</time>
      </trkpt>
      <trkpt lat="46.20989" lon="4.84955">
        <ele>205</ele>
        <time>2017-05-04T14:16:41.000Z</time>
      </trkpt>
      <trkpt lat="46.2099" lon="4.84954">
        <ele>205</ele>
        <time>2017-05-04T14:16:42.000Z</time>
      </trkpt>
      <trkpt lat="46.2099" lon="4.84953">
        <ele>205</ele>
        <time>2017-05-04T14:16:43.000Z</time>
      </trkpt>
      <trkpt lat="46.20991" lon="4.84952">
        <ele>205</ele>
        <time>2017-05-04T14:16:44.000Z</time>
      </trkpt>
      <trkpt lat="46.20992" lon="4.84951">
        <ele>205</ele>
        <time>2017-05-04T14:16:45.000Z</time>
      </trkpt>
      <trkpt lat="46.20993" lon="4.8495">
        <ele>205</ele>
        <time>2017-05-04T14:16:46.000Z</time>
      </trkpt>
      <trkpt lat="46.20994" lon="4.84949">
        <ele>205</ele>
        <time>2017-05-04T14:16:47.000Z</time>
      </trkpt>
      <trkpt lat="46.20994" lon="4.84949">
        <ele>205</ele>
        <time>2017-05-04T14:16:48.000Z</time>
      </trkpt>
      <trkpt lat="46.20995" lon="4.84948">
        <ele>205</ele>
        <time>2017-05-04T14:16:49.000Z</time>
      </trkpt>
      <trkpt lat="46.20996" lon="4.84947">
        <ele>205</ele>
        <time>2017-05-04T14:16:50.000Z</time>
      </trkpt>
      <trkpt lat="46.20997" lon="4.84946">
        <ele>205</ele>
        <time>2017-05-04T14:16:51.000Z</time>
      </trkpt>
      <trkpt lat="46.20998" lon="4.84946">
        <ele>205</ele>
        <time>2017-05-04T14:16:52.000Z</time>
      </trkpt>
      <trkpt lat="46.20999" lon="4.84945">
        <ele>205</ele>
        <time>2017-05-04T14:16:53.000Z</time>
      </trkpt>
      <trkpt lat="46.21" lon="4.84944">
        <ele>206</ele>
        <time>2017-05-04T14:16:54.000Z</time>
      </trkpt>
      <trkpt lat="46.21001" lon="4.84943">
        <ele>206</ele>
        <time>2017-05-04T14:16:55.000Z</time>
      </trkpt>
      <trkpt lat="46.21001" lon="4.84943">
        <ele>206</ele>
        <time>2017-05-04T14:16:56.000Z</time>
      </trkpt>
      <trkpt lat="46.21002" lon="4.84942">
        <ele>206</ele>
        <time>2017-05-04T14:16:57.000Z</time>
      </trkpt>
      <trkpt lat="46.21003" lon="4.84941">
        <ele>206</ele>
        <time>2017-05-04T14:16:58.000Z</time>
      </trkpt>
      <trkpt lat="46.21004" lon="4.84941">
        <ele>206</ele>
        <time>2017-05-04T14:16:59.000Z</time>
      </trkpt>
      <trkpt lat="46.21005" lon="4.8494">
        <ele>206</ele>
        <time>2017-05-04T14:17:00.000Z</time>
      </trkpt>
      <trkpt lat="46.21005" lon="4.8494">
        <ele>206</ele>
        <time>2017-05-04T14:17:01.000Z</time>
      </trkpt>
      <trkpt lat="46.21006" lon="4.8494">
        <ele>206</ele>
        <time>2017-05-04T14:17:02.000Z</time>
      </trkpt>
      <trkpt lat="46.21007" lon="4.84939">
        <ele>206</ele>
        <time>2017-05-04T14:17:03.000Z</time>
      </trkpt>
      <trkpt lat="46.21008" lon="4.84939">
        <ele>206</ele>
        <time>2017-05-04T14:17:04.000Z</time>
      </trkpt>
      <trkpt lat="46.21009" lon="4.84938">
        <ele>207</ele>
        <time>2017-05-04T14:17:05.000Z</time>
      </trkpt>
      <trkpt lat="46.21011" lon="4.84938">
        <ele>207</ele>
        <time>2017-05-04T14:17:06.000Z</time>
      </trkpt>
      <trkpt lat="46.21012" lon="4.84937">
        <ele>207</ele>
        <time>2017-05-04T14:17:07.000Z</time>
      </trkpt>
      <trkpt lat="46.21013" lon="4.84937">
        <ele>207</ele>
        <time>2017-05-04T14:17:08.000Z</time>
      </trkpt>
      <trkpt lat="46.21014" lon="4.84937">
        <ele>207</ele>
        <time>2017-05-04T14:17:09.000Z</time>
      </trkpt>
      <trkpt lat="46.21015" lon="4.84936">
        <ele>207</ele>
        <time>2017-05-04T14:17:10.000Z</time>
      </trkpt>
      <trkpt lat="46.21016" lon="4.84936">
        <ele>207</ele>
        <time>2017-05-04T14:17:11.000Z</time>
      </trkpt>
      <trkpt lat="46.21017" lon="4.84935">
        <ele>207</ele>
        <time>2017-05-04T14:17:12.000Z</time>
      </trkpt>
      <trkpt lat="46.21018" lon="4.84935">
        <ele>207</ele>
        <time>2017-05-04T14:17:13.000Z</time>
      </trkpt>
      <trkpt lat="46.21019" lon="4.84935">
        <ele>207</ele>
        <time>2017-05-04T14:17:14.000Z</time>
      </trkpt>
      <trkpt lat="46.2102" lon="4.84935">
        <ele>207</ele>
        <time>2017-05-04T14:17:15.000Z</time>
      </trkpt>
      <trkpt lat="46.21021" lon="4.84935">
        <ele>207</ele>
        <time>2017-05-04T14:17:16.000Z</time>
      </trkpt>
      <trkpt lat="46.21022" lon="4.84935">
        <ele>207</ele>
        <time>2017-05-04T14:17:17.000Z</time>
      </trkpt>
      <trkpt lat="46.21023" lon="4.84935">
        <ele>207</ele>
        <time>2017-05-04T14:17:18.000Z</time>
      </trkpt>
      <trkpt lat="46.21024" lon="4.84935">
        <ele>207</ele>
        <time>2017-05-04T14:17:19.000Z</time>
      </trkpt>
      <trkpt lat="46.21025" lon="4.84935">
        <ele>208</ele>
        <time>2017-05-04T14:17:20.000Z</time>
      </trkpt>
      <trkpt lat="46.21025" lon="4.84935">
        <ele>208</ele>
        <time>2017-05-04T14:17:21.000Z</time>
      </trkpt>
      <trkpt lat="46.21026" lon="4.84935">
        <ele>208</ele>
        <time>2017-05-04T14:17:22.000Z</time>
      </trkpt>
      <trkpt lat="46.21028" lon="4.84935">
        <ele>208</ele>
        <time>2017-05-04T14:17:23.000Z</time>
      </trkpt>
      <trkpt lat="46.21029" lon="4.84935">
        <ele>208</ele>
        <time>2017-05-04T14:17:24.000Z</time>
      </trkpt>
      <trkpt lat="46.2103" lon="4.84935">
        <ele>208</ele>
        <time>2017-05-04T14:17:25.000Z</time>
      </trkpt>
      <trkpt lat="46.21031" lon="4.84935">
        <ele>208</ele>
        <time>2017-05-04T14:17:26.000Z</time>
      </trkpt>
      <trkpt lat="46.21032" lon="4.84935">
        <ele>208</ele>
        <time>2017-05-04T14:17:27.000Z</time>
      </trkpt>
      <trkpt lat="46.21033" lon="4.84935">
        <ele>208</ele>
        <time>2017-05-04T14:17:28.000Z</time>
      </trkpt>
      <trkpt lat="46.21034" lon="4.84934">
        <ele>208</ele>
        <time>2017-05-04T14:17:29.000Z</time>
      </trkpt>
      <trkpt lat="46.21035" lon="4.84934">
        <ele>208</ele>
        <time>2017-05-04T14:17:30.000Z</time>
      </trkpt>
      <trkpt lat="46.21036" lon="4.84934">
        <ele>208</ele>
        <time>2017-05-04T14:17:31.000Z</time>
      </trkpt>
      <trkpt lat="46.21037" lon="4.84933">
        <ele>208</ele>
        <time>2017-05-04T14:17:32.000Z</time>
      </trkpt>
      <trkpt lat="46.21038" lon="4.84933">
        <ele>208</ele>
        <time>2017-05-04T14:17:33.000Z</time>
      </trkpt>
      <trkpt lat="46.21039" lon="4.84933">
        <ele>208</ele>
        <time>2017-05-04T14:17:34.000Z</time>
      </trkpt>
      <trkpt lat="46.2104" lon="4.84933">
        <ele>208</ele>
        <time>2017-05-04T14:17:35.000Z</time>
      </trkpt>
      <trkpt lat="46.21042" lon="4.84933">
        <ele>208</ele>
        <time>2017-05-04T14:17:36.000Z</time>
      </trkpt>
      <trkpt lat="46.21043" lon="4.84933">
        <ele>209</ele>
        <time>2017-05-04T14:17:37.000Z</time>
      </trkpt>
      <trkpt lat="46.21044" lon="4.84933">
        <ele>209</ele>
        <time>2017-05-04T14:17:38.000Z</time>
      </trkpt>
      <trkpt lat="46.21045" lon="4.84933">
        <ele>209</ele>
        <time>2017-05-04T14:17:39.000Z</time>
      </trkpt>
      <trkpt lat="46.21046" lon="4.84933">
        <ele>209</ele>
        <time>2017-05-04T14:17:40.000Z</time>
      </trkpt>
      <trkpt lat="46.21047" lon="4.84933">
        <ele>209</ele>
        <time>2017-05-04T14:17:41.000Z</time>
      </trkpt>
      <trkpt lat="46.21048" lon="4.84933">
        <ele>209</ele>
        <time>2017-05-04T14:17:42.000Z</time>
      </trkpt>
      <trkpt lat="46.21049" lon="4.84933">
        <ele>209</ele>
        <time>2017-05-04T14:17:43.000Z</time>
      </trkpt>
      <trkpt lat="46.2105" lon="4.84933">
        <ele>209</ele>
        <time>2017-05-04T14:17:44.000Z</time>
      </trkpt>
      <trkpt lat="46.21051" lon="4.84932">
        <ele>209</ele>
        <time>2017-05-04T14:17:45.000Z</time>
      </trkpt>
      <trkpt lat="46.21052" lon="4.84932">
        <ele>209</ele>
        <time>2017-05-04T14:17:46.000Z</time>
      </trkpt>
      <trkpt lat="46.21053" lon="4.84932">
        <ele>209</ele>
        <time>2017-05-04T14:17:47.000Z</time>
      </trkpt>
      <trkpt lat="46.21054" lon="4.84932">
        <ele>209</ele>
        <time>2017-05-04T14:17:48.000Z</time>
      </trkpt>
      <trkpt lat="46.21055" lon="4.84932">
        <ele>209</ele>
        <time>2017-05-04T14:17:49.000Z</time>
      </trkpt>
      <trkpt lat="46.21056" lon="4.84932">
        <ele>209</ele>
        <time>2017-05-04T14:17:50.000Z</time>
      </trkpt>
      <trkpt lat="46.21057" lon="4.84932">
        <ele>210</ele>
        <time>2017-05-04T14:17:51.000Z</time>
      </trkpt>
      <trkpt lat="46.21058" lon="4.84932">
        <ele>210</ele>
        <time>2017-05-04T14:17:52.000Z</time>
      </trkpt>
      <trkpt lat="46.21059" lon="4.84932">
        <ele>210</ele>
        <time>2017-05-04T14:17:53.000Z</time>
      </trkpt>
      <trkpt lat="46.21061" lon="4.84932">
        <ele>210</ele>
        <time>2017-05-04T14:17:54.000Z</time>
      </trkpt>
      <trkpt lat="46.21062" lon="4.84933">
        <ele>210</ele>
        <time>2017-05-04T14:17:55.000Z</time>
      </trkpt>
      <trkpt lat="46.21063" lon="4.84933">
        <ele>210</ele>
        <time>2017-05-04T14:17:56.000Z</time>
      </trkpt>
      <trkpt lat="46.21064" lon="4.84933">
        <ele>210</ele>
        <time>2017-05-04T14:17:57.000Z</time>
      </trkpt>
      <trkpt lat="46.21065" lon="4.84933">
        <ele>210</ele>
        <time>2017-05-04T14:17:58.000Z</time>
      </trkpt>
      <trkpt lat="46.21066" lon="4.84934">
        <ele>210</ele>
        <time>2017-05-04T14:17:59.000Z</time>
      </trkpt>
      <trkpt lat="46.21067" lon="4.84934">
        <ele>210</ele>
        <time>2017-05-04T14:18:00.000Z</time>
      </trkpt>
      <trkpt lat="46.21067" lon="4.84934">
        <ele>210</ele>
        <time>2017-05-04T14:18:01.000Z</time>
      </trkpt>
      <trkpt lat="46.21068" lon="4.84934">
        <ele>211</ele>
        <time>2017-05-04T14:18:02.000Z</time>
      </trkpt>
      <trkpt lat="46.21069" lon="4.84934">
        <ele>211</ele>
        <time>2017-05-04T14:18:03.000Z</time>
      </trkpt>
      <trkpt lat="46.2107" lon="4.84934">
        <ele>211</ele>
        <time>2017-05-04T14:18:04.000Z</time>
      </trkpt>
      <trkpt lat="46.21071" lon="4.84935">
        <ele>211</ele>
        <time>2017-05-04T14:18:05.000Z</time>
      </trkpt>
      <trkpt lat="46.21072" lon="4.84935">
        <ele>211</ele>
        <time>2017-05-04T14:18:06.000Z</time>
      </trkpt>
      <trkpt lat="46.21073" lon="4.84935">
        <ele>212</ele>
        <time>2017-05-04T14:18:07.000Z</time>
      </trkpt>
      <trkpt lat="46.21074" lon="4.84936">
        <ele>212</ele>
        <time>2017-05-04T14:18:08.000Z</time>
      </trkpt>
      <trkpt lat="46.21075" lon="4.84936">
        <ele>213</ele>
        <time>2017-05-04T14:18:09.000Z</time>
      </trkpt>
      <trkpt lat="46.21076" lon="4.84937">
        <ele>212</ele>
        <time>2017-05-04T14:18:10.000Z</time>
      </trkpt>
      <trkpt lat="46.21077" lon="4.84937">
        <ele>212</ele>
        <time>2017-05-04T14:18:11.000Z</time>
      </trkpt>
      <trkpt lat="46.21078" lon="4.84937">
        <ele>212</ele>
        <time>2017-05-04T14:18:12.000Z</time>
      </trkpt>
      <trkpt lat="46.21079" lon="4.84937">
        <ele>212</ele>
        <time>2017-05-04T14:18:13.000Z</time>
      </trkpt>
      <trkpt lat="46.2108" lon="4.84937">
        <ele>212</ele>
        <time>2017-05-04T14:18:14.000Z</time>
      </trkpt>
      <trkpt lat="46.21081" lon="4.84937">
        <ele>213</ele>
        <time>2017-05-04T14:18:15.000Z</time>
      </trkpt>
      <trkpt lat="46.21083" lon="4.84937">
        <ele>212</ele>
        <time>2017-05-04T14:18:16.000Z</time>
      </trkpt>
      <trkpt lat="46.21084" lon="4.84937">
        <ele>212</ele>
        <time>2017-05-04T14:18:17.000Z</time>
      </trkpt>
      <trkpt lat="46.21086" lon="4.84937">
        <ele>213</ele>
        <time>2017-05-04T14:18:18.000Z</time>
      </trkpt>
      <trkpt lat="46.21087" lon="4.84937">
        <ele>213</ele>
        <time>2017-05-04T14:18:19.000Z</time>
      </trkpt>
      <trkpt lat="46.21088" lon="4.84938">
        <ele>213</ele>
        <time>2017-05-04T14:18:20.000Z</time>
      </trkpt>
      <trkpt lat="46.21089" lon="4.84938">
        <ele>213</ele>
        <time>2017-05-04T14:18:21.000Z</time>
      </trkpt>
      <trkpt lat="46.2109" lon="4.84938">
        <ele>213</ele>
        <time>2017-05-04T14:18:22.000Z</time>
      </trkpt>
      <trkpt lat="46.21091" lon="4.84939">
        <ele>213</ele>
        <time>2017-05-04T14:18:23.000Z</time>
      </trkpt>
      <trkpt lat="46.21092" lon="4.84938">
        <ele>212</ele>
        <time>2017-05-04T14:18:24.000Z</time>
      </trkpt>
      <trkpt lat="46.21093" lon="4.84938">
        <ele>212</ele>
        <time>2017-05-04T14:18:25.000Z</time>
      </trkpt>
      <trkpt lat="46.21094" lon="4.84938">
        <ele>212</ele>
        <time>2017-05-04T14:18:26.000Z</time>
      </trkpt>
      <trkpt lat="46.21095" lon="4.84938">
        <ele>212</ele>
        <time>2017-05-04T14:18:27.000Z</time>
      </trkpt>
      <trkpt lat="46.21096" lon="4.84938">
        <ele>212</ele>
        <time>2017-05-04T14:18:28.000Z</time>
      </trkpt>
      <trkpt lat="46.21097" lon="4.84938">
        <ele>212</ele>
        <time>2017-05-04T14:18:29.000Z</time>
      </trkpt>
      <trkpt lat="46.21098" lon="4.84938">
        <ele>212</ele>
        <time>2017-05-04T14:18:30.000Z</time>
      </trkpt>
      <trkpt lat="46.211" lon="4.84938">
        <ele>212</ele>
        <time>2017-05-04T14:18:31.000Z</time>
      </trkpt>
      <trkpt lat="46.21101" lon="4.84937">
        <ele>212</ele>
        <time>2017-05-04T14:18:32.000Z</time>
      </trkpt>
      <trkpt lat="46.21103" lon="4.84937">
        <ele>211</ele>
        <time>2017-05-04T14:18:33.000Z</time>
      </trkpt>
      <trkpt lat="46.21104" lon="4.84936">
        <ele>211</ele>
        <time>2017-05-04T14:18:34.000Z</time>
      </trkpt>
      <trkpt lat="46.21105" lon="4.84935">
        <ele>211</ele>
        <time>2017-05-04T14:18:35.000Z</time>
      </trkpt>
      <trkpt lat="46.21106" lon="4.84935">
        <ele>211</ele>
        <time>2017-05-04T14:18:36.000Z</time>
      </trkpt>
      <trkpt lat="46.21108" lon="4.84934">
        <ele>211</ele>
        <time>2017-05-04T14:18:37.000Z</time>
      </trkpt>
      <trkpt lat="46.21109" lon="4.84933">
        <ele>211</ele>
        <time>2017-05-04T14:18:38.000Z</time>
      </trkpt>
      <trkpt lat="46.2111" lon="4.84932">
        <ele>211</ele>
        <time>2017-05-04T14:18:39.000Z</time>
      </trkpt>
      <trkpt lat="46.21111" lon="4.84931">
        <ele>210</ele>
        <time>2017-05-04T14:18:40.000Z</time>
      </trkpt>
      <trkpt lat="46.21111" lon="4.8493">
        <ele>210</ele>
        <time>2017-05-04T14:18:41.000Z</time>
      </trkpt>
      <trkpt lat="46.21112" lon="4.84929">
        <ele>210</ele>
        <time>2017-05-04T14:18:42.000Z</time>
      </trkpt>
      <trkpt lat="46.21112" lon="4.84928">
        <ele>210</ele>
        <time>2017-05-04T14:18:43.000Z</time>
      </trkpt>
      <trkpt lat="46.21113" lon="4.84926">
        <ele>210</ele>
        <time>2017-05-04T14:18:44.000Z</time>
      </trkpt>
      <trkpt lat="46.21113" lon="4.84925">
        <ele>210</ele>
        <time>2017-05-04T14:18:45.000Z</time>
      </trkpt>
      <trkpt lat="46.21114" lon="4.84924">
        <ele>210</ele>
        <time>2017-05-04T14:18:46.000Z</time>
      </trkpt>
      <trkpt lat="46.21114" lon="4.84922">
        <ele>209</ele>
        <time>2017-05-04T14:18:47.000Z</time>
      </trkpt>
      <trkpt lat="46.21114" lon="4.84921">
        <ele>210</ele>
        <time>2017-05-04T14:18:48.000Z</time>
      </trkpt>
      <trkpt lat="46.21115" lon="4.8492">
        <ele>210</ele>
        <time>2017-05-04T14:18:49.000Z</time>
      </trkpt>
      <trkpt lat="46.21115" lon="4.84919">
        <ele>209</ele>
        <time>2017-05-04T14:18:50.000Z</time>
      </trkpt>
      <trkpt lat="46.21115" lon="4.84917">
        <ele>209</ele>
        <time>2017-05-04T14:18:51.000Z</time>
      </trkpt>
      <trkpt lat="46.21115" lon="4.84916">
        <ele>210</ele>
        <time>2017-05-04T14:18:52.000Z</time>
      </trkpt>
      <trkpt lat="46.21115" lon="4.84914">
        <ele>210</ele>
        <time>2017-05-04T14:18:53.000Z</time>
      </trkpt>
      <trkpt lat="46.21115" lon="4.84913">
        <ele>210</ele>
        <time>2017-05-04T14:18:54.000Z</time>
      </trkpt>
      <trkpt lat="46.21115" lon="4.84912">
        <ele>210</ele>
        <time>2017-05-04T14:18:55.000Z</time>
      </trkpt>
      <trkpt lat="46.21115" lon="4.84911">
        <ele>210</ele>
        <time>2017-05-04T14:18:56.000Z</time>
      </trkpt>
      <trkpt lat="46.21116" lon="4.84909">
        <ele>210</ele>
        <time>2017-05-04T14:18:57.000Z</time>
      </trkpt>
      <trkpt lat="46.21116" lon="4.84908">
        <ele>209</ele>
        <time>2017-05-04T14:18:58.000Z</time>
      </trkpt>
      <trkpt lat="46.21116" lon="4.84907">
        <ele>209</ele>
        <time>2017-05-04T14:18:59.000Z</time>
      </trkpt>
      <trkpt lat="46.21116" lon="4.84905">
        <ele>209</ele>
        <time>2017-05-04T14:19:00.000Z</time>
      </trkpt>
      <trkpt lat="46.21116" lon="4.84904">
        <ele>210</ele>
        <time>2017-05-04T14:19:01.000Z</time>
      </trkpt>
      <trkpt lat="46.21117" lon="4.84903">
        <ele>210</ele>
        <time>2017-05-04T14:19:02.000Z</time>
      </trkpt>
      <trkpt lat="46.21117" lon="4.84902">
        <ele>210</ele>
        <time>2017-05-04T14:19:03.000Z</time>
      </trkpt>
      <trkpt lat="46.21117" lon="4.84901">
        <ele>210</ele>
        <time>2017-05-04T14:19:04.000Z</time>
      </trkpt>
      <trkpt lat="46.21118" lon="4.84901">
        <ele>210</ele>
        <time>2017-05-04T14:19:05.000Z</time>
      </trkpt>
      <trkpt lat="46.21118" lon="4.849">
        <ele>210</ele>
        <time>2017-05-04T14:19:06.000Z</time>
      </trkpt>
      <trkpt lat="46.21118" lon="4.849">
        <ele>210</ele>
        <time>2017-05-04T14:19:07.000Z</time>
      </trkpt>
      <trkpt lat="46.21119" lon="4.84899">
        <ele>210</ele>
        <time>2017-05-04T14:19:08.000Z</time>
      </trkpt>
      <trkpt lat="46.21119" lon="4.84899">
        <ele>210</ele>
        <time>2017-05-04T14:19:09.000Z</time>
      </trkpt>
      <trkpt lat="46.2112" lon="4.84899">
        <ele>209</ele>
        <time>2017-05-04T14:19:10.000Z</time>
      </trkpt>
      <trkpt lat="46.2112" lon="4.84898">
        <ele>210</ele>
        <time>2017-05-04T14:19:11.000Z</time>
      </trkpt>
      <trkpt lat="46.2112" lon="4.84898">
        <ele>210</ele>
        <time>2017-05-04T14:19:12.000Z</time>
      </trkpt>
      <trkpt lat="46.2112" lon="4.84899">
        <ele>210</ele>
        <time>2017-05-04T14:19:13.000Z</time>
      </trkpt>
      <trkpt lat="46.2112" lon="4.84899">
        <ele>210</ele>
        <time>2017-05-04T14:19:14.000Z</time>
      </trkpt>
      <trkpt lat="46.2112" lon="4.84899">
        <ele>210</ele>
        <time>2017-05-04T14:19:15.000Z</time>
      </trkpt>
      <trkpt lat="46.2112" lon="4.84899">
        <ele>210</ele>
        <time>2017-05-04T14:19:16.000Z</time>
      </trkpt>
      <trkpt lat="46.21119" lon="4.84899">
        <ele>210</ele>
        <time>2017-05-04T14:19:17.000Z</time>
      </trkpt>
      <trkpt lat="46.21119" lon="4.84899">
        <ele>210</ele>
        <time>2017-05-04T14:19:18.000Z</time>
      </trkpt>
      <trkpt lat="46.21119" lon="4.84899">
        <ele>210</ele>
        <time>2017-05-04T14:19:19.000Z</time>
      </trkpt>
      <trkpt lat="46.21119" lon="4.84899">
        <ele>211</ele>
        <time>2017-05-04T14:19:20.000Z</time>
      </trkpt>
      <trkpt lat="46.21119" lon="4.84899">
        <ele>211</ele>
        <time>2017-05-04T14:19:21.000Z</time>
      </trkpt>
      <trkpt lat="46.21119" lon="4.84899">
        <ele>211</ele>
        <time>2017-05-04T14:19:22.000Z</time>
      </trkpt>
      <trkpt lat="46.21119" lon="4.84899">
        <ele>210</ele>
        <time>2017-05-04T14:19:23.000Z</time>
      </trkpt>
      <trkpt lat="46.2112" lon="4.84899">
        <ele>210</ele>
        <time>2017-05-04T14:19:24.000Z</time>
      </trkpt>
      <trkpt lat="46.2112" lon="4.84899">
        <ele>210</ele>
        <time>2017-05-04T14:19:25.000Z</time>
      </trkpt>
      <trkpt lat="46.2112" lon="4.84899">
        <ele>210</ele>
        <time>2017-05-04T14:19:26.000Z</time>
      </trkpt>
      <trkpt lat="46.21121" lon="4.84898">
        <ele>211</ele>
        <time>2017-05-04T14:19:27.000Z</time>
      </trkpt>
      <trkpt lat="46.21121" lon="4.84898">
        <ele>211</ele>
        <time>2017-05-04T14:19:28.000Z</time>
      </trkpt>
      <trkpt lat="46.21121" lon="4.84898">
        <ele>211</ele>
        <time>2017-05-04T14:19:29.000Z</time>
      </trkpt>
      <trkpt lat="46.21122" lon="4.84898">
        <ele>212</ele>
        <time>2017-05-04T14:19:30.000Z</time>
      </trkpt>
      <trkpt lat="46.21122" lon="4.84898">
        <ele>212</ele>
        <time>2017-05-04T14:19:31.000Z</time>
      </trkpt>
      <trkpt lat="46.21122" lon="4.84897">
        <ele>211</ele>
        <time>2017-05-04T14:19:32.000Z</time>
      </trkpt>
      <trkpt lat="46.21122" lon="4.84897">
        <ele>211</ele>
        <time>2017-05-04T14:19:33.000Z</time>
      </trkpt>
      <trkpt lat="46.21121" lon="4.84896">
        <ele>211</ele>
        <time>2017-05-04T14:19:34.000Z</time>
      </trkpt>
      <trkpt lat="46.21121" lon="4.84895">
        <ele>211</ele>
        <time>2017-05-04T14:19:35.000Z</time>
      </trkpt>
      <trkpt lat="46.2112" lon="4.84894">
        <ele>211</ele>
        <time>2017-05-04T14:19:36.000Z</time>
      </trkpt>
      <trkpt lat="46.2112" lon="4.84894">
        <ele>211</ele>
        <time>2017-05-04T14:19:37.000Z</time>
      </trkpt>
      <trkpt lat="46.2112" lon="4.84893">
        <ele>211</ele>
        <time>2017-05-04T14:19:38.000Z</time>
      </trkpt>
      <trkpt lat="46.2112" lon="4.84892">
        <ele>211</ele>
        <time>2017-05-04T14:19:39.000Z</time>
      </trkpt>
      <trkpt lat="46.21121" lon="4.84891">
        <ele>212</ele>
        <time>2017-05-04T14:19:40.000Z</time>
      </trkpt>
      <trkpt lat="46.21121" lon="4.8489">
        <ele>211</ele>
        <time>2017-05-04T14:19:41.000Z</time>
      </trkpt>
      <trkpt lat="46.21121" lon="4.8489">
        <ele>211</ele>
        <time>2017-05-04T14:19:42.000Z</time>
      </trkpt>
      <trkpt lat="46.21121" lon="4.84889">
        <ele>211</ele>
        <time>2017-05-04T14:19:43.000Z</time>
      </trkpt>
      <trkpt lat="46.21121" lon="4.84889">
        <ele>211</ele>
        <time>2017-05-04T14:19:44.000Z</time>
      </trkpt>
      <trkpt lat="46.2112" lon="4.84888">
        <ele>211</ele>
        <time>2017-05-04T14:19:45.000Z</time>
      </trkpt>
      <trkpt lat="46.2112" lon="4.84888">
        <ele>211</ele>
        <time>2017-05-04T14:19:46.000Z</time>
      </trkpt>
      <trkpt lat="46.2112" lon="4.84888">
        <ele>211</ele>
        <time>2017-05-04T14:19:47.000Z</time>
      </trkpt>
      <trkpt lat="46.2112" lon="4.84888">
        <ele>211</ele>
        <time>2017-05-04T14:19:48.000Z</time>
      </trkpt>
      <trkpt lat="46.2112" lon="4.84887">
        <ele>211</ele>
        <time>2017-05-04T14:19:49.000Z</time>
      </trkpt>
      <trkpt lat="46.21121" lon="4.84888">
        <ele>211</ele>
        <time>2017-05-04T14:19:50.000Z</time>
      </trkpt>
      <trkpt lat="46.21121" lon="4.84888">
        <ele>211</ele>
        <time>2017-05-04T14:19:51.000Z</time>
      </trkpt>
      <trkpt lat="46.21121" lon="4.84888">
        <ele>211</ele>
        <time>2017-05-04T14:19:52.000Z</time>
      </trkpt>
      <trkpt lat="46.21121" lon="4.84888">
        <ele>211</ele>
        <time>2017-05-04T14:19:53.000Z</time>
      </trkpt>
      <trkpt lat="46.21121" lon="4.84889">
        <ele>211</ele>
        <time>2017-05-04T14:19:54.000Z</time>
      </trkpt>
      <trkpt lat="46.21122" lon="4.84889">
        <ele>211</ele>
        <time>2017-05-04T14:19:55.000Z</time>
      </trkpt>
      <trkpt lat="46.21123" lon="4.84889">
        <ele>211</ele>
        <time>2017-05-04T14:19:56.000Z</time>
      </trkpt>
      <trkpt lat="46.21123" lon="4.8489">
        <ele>211</ele>
        <time>2017-05-04T14:19:57.000Z</time>
      </trkpt>
      <trkpt lat="46.21123" lon="4.8489">
        <ele>211</ele>
        <time>2017-05-04T14:19:58.000Z</time>
      </trkpt>
      <trkpt lat="46.21123" lon="4.84891">
        <ele>210</ele>
        <time>2017-05-04T14:19:59.000Z</time>
      </trkpt>
      <trkpt lat="46.21124" lon="4.84891">
        <ele>209</ele>
        <time>2017-05-04T14:20:00.000Z</time>
      </trkpt>
      <trkpt lat="46.21125" lon="4.8489">
        <ele>209</ele>
        <time>2017-05-04T14:20:01.000Z</time>
      </trkpt>
      <trkpt lat="46.21125" lon="4.84889">
        <ele>210</ele>
        <time>2017-05-04T14:20:02.000Z</time>
      </trkpt>
      <trkpt lat="46.21125" lon="4.84888">
        <ele>210</ele>
        <time>2017-05-04T14:20:03.000Z</time>
      </trkpt>
      <trkpt lat="46.21124" lon="4.84887">
        <ele>211</ele>
        <time>2017-05-04T14:20:04.000Z</time>
      </trkpt>
      <trkpt lat="46.21124" lon="4.84886">
        <ele>211</ele>
        <time>2017-05-04T14:20:05.000Z</time>
      </trkpt>
      <trkpt lat="46.21123" lon="4.84886">
        <ele>212</ele>
        <time>2017-05-04T14:20:06.000Z</time>
      </trkpt>
      <trkpt lat="46.21122" lon="4.84886">
        <ele>212</ele>
        <time>2017-05-04T14:20:07.000Z</time>
      </trkpt>
      <trkpt lat="46.21122" lon="4.84886">
        <ele>212</ele>
        <time>2017-05-04T14:20:08.000Z</time>
      </trkpt>
      <trkpt lat="46.21121" lon="4.84886">
        <ele>212</ele>
        <time>2017-05-04T14:20:09.000Z</time>
      </trkpt>
      <trkpt lat="46.21121" lon="4.84885">
        <ele>211</ele>
        <time>2017-05-04T14:20:10.000Z</time>
      </trkpt>
      <trkpt lat="46.21121" lon="4.84885">
        <ele>211</ele>
        <time>2017-05-04T14:20:11.000Z</time>
      </trkpt>
      <trkpt lat="46.21121" lon="4.84885">
        <ele>211</ele>
        <time>2017-05-04T14:20:12.000Z</time>
      </trkpt>
      <trkpt lat="46.21121" lon="4.84885">
        <ele>211</ele>
        <time>2017-05-04T14:20:13.000Z</time>
      </trkpt>
      <trkpt lat="46.21122" lon="4.84885">
        <ele>210</ele>
        <time>2017-05-04T14:20:14.000Z</time>
      </trkpt>
      <trkpt lat="46.21122" lon="4.84884">
        <ele>210</ele>
        <time>2017-05-04T14:20:15.000Z</time>
      </trkpt>
      <trkpt lat="46.21123" lon="4.84884">
        <ele>211</ele>
        <time>2017-05-04T14:20:16.000Z</time>
      </trkpt>
      <trkpt lat="46.21123" lon="4.84884">
        <ele>211</ele>
        <time>2017-05-04T14:20:17.000Z</time>
      </trkpt>
      <trkpt lat="46.21123" lon="4.84884">
        <ele>211</ele>
        <time>2017-05-04T14:20:18.000Z</time>
      </trkpt>
      <trkpt lat="46.21123" lon="4.84884">
        <ele>211</ele>
        <time>2017-05-04T14:20:19.000Z</time>
      </trkpt>
      <trkpt lat="46.21123" lon="4.84884">
        <ele>212</ele>
        <time>2017-05-04T14:20:20.000Z</time>
      </trkpt>
      <trkpt lat="46.21123" lon="4.84885">
        <ele>212</ele>
        <time>2017-05-04T14:20:21.000Z</time>
      </trkpt>
      <trkpt lat="46.21124" lon="4.84885">
        <ele>212</ele>
        <time>2017-05-04T14:20:22.000Z</time>
      </trkpt>
      <trkpt lat="46.21124" lon="4.84885">
        <ele>212</ele>
        <time>2017-05-04T14:20:23.000Z</time>
      </trkpt>
      <trkpt lat="46.21124" lon="4.84885">
        <ele>212</ele>
        <time>2017-05-04T14:20:24.000Z</time>
      </trkpt>
      <trkpt lat="46.21124" lon="4.84885">
        <ele>212</ele>
        <time>2017-05-04T14:20:25.000Z</time>
      </trkpt>
      <trkpt lat="46.21125" lon="4.84884">
        <ele>211</ele>
        <time>2017-05-04T14:20:26.000Z</time>
      </trkpt>
      <trkpt lat="46.21126" lon="4.84884">
        <ele>211</ele>
        <time>2017-05-04T14:20:27.000Z</time>
      </trkpt>
      <trkpt lat="46.21126" lon="4.84884">
        <ele>211</ele>
        <time>2017-05-04T14:20:28.000Z</time>
      </trkpt>
      <trkpt lat="46.21126" lon="4.84884">
        <ele>212</ele>
        <time>2017-05-04T14:20:29.000Z</time>
      </trkpt>
      <trkpt lat="46.21127" lon="4.84884">
        <ele>212</ele>
        <time>2017-05-04T14:20:30.000Z</time>
      </trkpt>
      <trkpt lat="46.21127" lon="4.84884">
        <ele>212</ele>
        <time>2017-05-04T14:20:31.000Z</time>
      </trkpt>
      <trkpt lat="46.21128" lon="4.84884">
        <ele>213</ele>
        <time>2017-05-04T14:20:32.000Z</time>
      </trkpt>
      <trkpt lat="46.21128" lon="4.84884">
        <ele>213</ele>
        <time>2017-05-04T14:20:33.000Z</time>
      </trkpt>
      <trkpt lat="46.21129" lon="4.84885">
        <ele>213</ele>
        <time>2017-05-04T14:20:34.000Z</time>
      </trkpt>
      <trkpt lat="46.2113" lon="4.84885">
        <ele>212</ele>
        <time>2017-05-04T14:20:35.000Z</time>
      </trkpt>
      <trkpt lat="46.2113" lon="4.84886">
        <ele>212</ele>
        <time>2017-05-04T14:20:36.000Z</time>
      </trkpt>
      <trkpt lat="46.21131" lon="4.84886">
        <ele>212</ele>
        <time>2017-05-04T14:20:37.000Z</time>
      </trkpt>
      <trkpt lat="46.21132" lon="4.84887">
        <ele>212</ele>
        <time>2017-05-04T14:20:38.000Z</time>
      </trkpt>
      <trkpt lat="46.21133" lon="4.84887">
        <ele>212</ele>
        <time>2017-05-04T14:20:39.000Z</time>
      </trkpt>
      <trkpt lat="46.21134" lon="4.84887">
        <ele>211</ele>
        <time>2017-05-04T14:20:40.000Z</time>
      </trkpt>
      <trkpt lat="46.21134" lon="4.84887">
        <ele>211</ele>
        <time>2017-05-04T14:20:41.000Z</time>
      </trkpt>
      <trkpt lat="46.21135" lon="4.84887">
        <ele>211</ele>
        <time>2017-05-04T14:20:42.000Z</time>
      </trkpt>
      <trkpt lat="46.21136" lon="4.84887">
        <ele>211</ele>
        <time>2017-05-04T14:20:43.000Z</time>
      </trkpt>
      <trkpt lat="46.21137" lon="4.84887">
        <ele>211</ele>
        <time>2017-05-04T14:20:44.000Z</time>
      </trkpt>
      <trkpt lat="46.21138" lon="4.84887">
        <ele>211</ele>
        <time>2017-05-04T14:20:45.000Z</time>
      </trkpt>
      <trkpt lat="46.21139" lon="4.84888">
        <ele>211</ele>
        <time>2017-05-04T14:20:46.000Z</time>
      </trkpt>
      <trkpt lat="46.2114" lon="4.84888">
        <ele>211</ele>
        <time>2017-05-04T14:20:47.000Z</time>
      </trkpt>
      <trkpt lat="46.21141" lon="4.84889">
        <ele>211</ele>
        <time>2017-05-04T14:20:48.000Z</time>
      </trkpt>
      <trkpt lat="46.21141" lon="4.84889">
        <ele>211</ele>
        <time>2017-05-04T14:20:49.000Z</time>
      </trkpt>
      <trkpt lat="46.21142" lon="4.84889">
        <ele>211</ele>
        <time>2017-05-04T14:20:50.000Z</time>
      </trkpt>
      <trkpt lat="46.21143" lon="4.8489">
        <ele>211</ele>
        <time>2017-05-04T14:20:51.000Z</time>
      </trkpt>
      <trkpt lat="46.21144" lon="4.8489">
        <ele>211</ele>
        <time>2017-05-04T14:20:52.000Z</time>
      </trkpt>
      <trkpt lat="46.21145" lon="4.84891">
        <ele>211</ele>
        <time>2017-05-04T14:20:53.000Z</time>
      </trkpt>
      <trkpt lat="46.21146" lon="4.84891">
        <ele>211</ele>
        <time>2017-05-04T14:20:54.000Z</time>
      </trkpt>
      <trkpt lat="46.21146" lon="4.84891">
        <ele>211</ele>
        <time>2017-05-04T14:20:55.000Z</time>
      </trkpt>
      <trkpt lat="46.21147" lon="4.84892">
        <ele>211</ele>
        <time>2017-05-04T14:20:56.000Z</time>
      </trkpt>
      <trkpt lat="46.21148" lon="4.84892">
        <ele>211</ele>
        <time>2017-05-04T14:20:57.000Z</time>
      </trkpt>
      <trkpt lat="46.21149" lon="4.84893">
        <ele>211</ele>
        <time>2017-05-04T14:20:58.000Z</time>
      </trkpt>
      <trkpt lat="46.2115" lon="4.84893">
        <ele>212</ele>
        <time>2017-05-04T14:20:59.000Z</time>
      </trkpt>
      <trkpt lat="46.21151" lon="4.84893">
        <ele>212</ele>
        <time>2017-05-04T14:21:00.000Z</time>
      </trkpt>
      <trkpt lat="46.21152" lon="4.84893">
        <ele>212</ele>
        <time>2017-05-04T14:21:01.000Z</time>
      </trkpt>
      <trkpt lat="46.21153" lon="4.84893">
        <ele>212</ele>
        <time>2017-05-04T14:21:02.000Z</time>
      </trkpt>
      <trkpt lat="46.21154" lon="4.84893">
        <ele>212</ele>
        <time>2017-05-04T14:21:03.000Z</time>
      </trkpt>
      <trkpt lat="46.21155" lon="4.84894">
        <ele>212</ele>
        <time>2017-05-04T14:21:04.000Z</time>
      </trkpt>
      <trkpt lat="46.21156" lon="4.84894">
        <ele>212</ele>
        <time>2017-05-04T14:21:05.000Z</time>
      </trkpt>
      <trkpt lat="46.21157" lon="4.84894">
        <ele>212</ele>
        <time>2017-05-04T14:21:06.000Z</time>
      </trkpt>
      <trkpt lat="46.21157" lon="4.84894">
        <ele>213</ele>
        <time>2017-05-04T14:21:07.000Z</time>
      </trkpt>
      <trkpt lat="46.21158" lon="4.84895">
        <ele>213</ele>
        <time>2017-05-04T14:21:08.000Z</time>
      </trkpt>
      <trkpt lat="46.21159" lon="4.84895">
        <ele>213</ele>
        <time>2017-05-04T14:21:09.000Z</time>
      </trkpt>
      <trkpt lat="46.2116" lon="4.84896">
        <ele>213</ele>
        <time>2017-05-04T14:21:10.000Z</time>
      </trkpt>
      <trkpt lat="46.2116" lon="4.84896">
        <ele>213</ele>
        <time>2017-05-04T14:21:11.000Z</time>
      </trkpt>
      <trkpt lat="46.21161" lon="4.84896">
        <ele>212</ele>
        <time>2017-05-04T14:21:12.000Z</time>
      </trkpt>
      <trkpt lat="46.21162" lon="4.84897">
        <ele>212</ele>
        <time>2017-05-04T14:21:13.000Z</time>
      </trkpt>
      <trkpt lat="46.21162" lon="4.84898">
        <ele>213</ele>
        <time>2017-05-04T14:21:14.000Z</time>
      </trkpt>
      <trkpt lat="46.21163" lon="4.84898">
        <ele>212</ele>
        <time>2017-05-04T14:21:15.000Z</time>
      </trkpt>
      <trkpt lat="46.21163" lon="4.84899">
        <ele>213</ele>
        <time>2017-05-04T14:21:16.000Z</time>
      </trkpt>
      <trkpt lat="46.21163" lon="4.84899">
        <ele>213</ele>
        <time>2017-05-04T14:21:17.000Z</time>
      </trkpt>
      <trkpt lat="46.21163" lon="4.84899">
        <ele>213</ele>
        <time>2017-05-04T14:21:18.000Z</time>
      </trkpt>
      <trkpt lat="46.21163" lon="4.84899">
        <ele>213</ele>
        <time>2017-05-04T14:21:19.000Z</time>
      </trkpt>
      <trkpt lat="46.21163" lon="4.84899">
        <ele>213</ele>
        <time>2017-05-04T14:21:20.000Z</time>
      </trkpt>
      <trkpt lat="46.21163" lon="4.84899">
        <ele>213</ele>
        <time>2017-05-04T14:21:21.000Z</time>
      </trkpt>
      <trkpt lat="46.21163" lon="4.84899">
        <ele>213</ele>
        <time>2017-05-04T14:21:22.000Z</time>
      </trkpt>
      <trkpt lat="46.21163" lon="4.84899">
        <ele>213</ele>
        <time>2017-05-04T14:21:23.000Z</time>
      </trkpt>
      <trkpt lat="46.21163" lon="4.849">
        <ele>214</ele>
        <time>2017-05-04T14:21:24.000Z</time>
      </trkpt>
      <trkpt lat="46.21164" lon="4.849">
        <ele>214</ele>
        <time>2017-05-04T14:21:25.000Z</time>
      </trkpt>
      <trkpt lat="46.21164" lon="4.849">
        <ele>214</ele>
        <time>2017-05-04T14:21:26.000Z</time>
      </trkpt>
      <trkpt lat="46.21164" lon="4.84901">
        <ele>214</ele>
        <time>2017-05-04T14:21:27.000Z</time>
      </trkpt>
      <trkpt lat="46.21165" lon="4.84901">
        <ele>214</ele>
        <time>2017-05-04T14:21:28.000Z</time>
      </trkpt>
      <trkpt lat="46.21165" lon="4.849">
        <ele>214</ele>
        <time>2017-05-04T14:21:29.000Z</time>
      </trkpt>
      <trkpt lat="46.21165" lon="4.849">
        <ele>214</ele>
        <time>2017-05-04T14:21:30.000Z</time>
      </trkpt>
      <trkpt lat="46.21166" lon="4.849">
        <ele>213</ele>
        <time>2017-05-04T14:21:31.000Z</time>
      </trkpt>
      <trkpt lat="46.21166" lon="4.84899">
        <ele>213</ele>
        <time>2017-05-04T14:21:32.000Z</time>
      </trkpt>
      <trkpt lat="46.21166" lon="4.84899">
        <ele>213</ele>
        <time>2017-05-04T14:21:33.000Z</time>
      </trkpt>
      <trkpt lat="46.21165" lon="4.84899">
        <ele>213</ele>
        <time>2017-05-04T14:21:34.000Z</time>
      </trkpt>
      <trkpt lat="46.21165" lon="4.84899">
        <ele>213</ele>
        <time>2017-05-04T14:21:35.000Z</time>
      </trkpt>
      <trkpt lat="46.21164" lon="4.84899">
        <ele>212</ele>
        <time>2017-05-04T14:21:36.000Z</time>
      </trkpt>
      <trkpt lat="46.21164" lon="4.84899">
        <ele>212</ele>
        <time>2017-05-04T14:21:37.000Z</time>
      </trkpt>
      <trkpt lat="46.21164" lon="4.84899">
        <ele>213</ele>
        <time>2017-05-04T14:21:38.000Z</time>
      </trkpt>
      <trkpt lat="46.21164" lon="4.84899">
        <ele>213</ele>
        <time>2017-05-04T14:21:39.000Z</time>
      </trkpt>
      <trkpt lat="46.21164" lon="4.849">
        <ele>213</ele>
        <time>2017-05-04T14:21:40.000Z</time>
      </trkpt>
      <trkpt lat="46.21165" lon="4.849">
        <ele>213</ele>
        <time>2017-05-04T14:21:41.000Z</time>
      </trkpt>
      <trkpt lat="46.21165" lon="4.849">
        <ele>213</ele>
        <time>2017-05-04T14:21:42.000Z</time>
      </trkpt>
      <trkpt lat="46.21166" lon="4.849">
        <ele>213</ele>
        <time>2017-05-04T14:21:43.000Z</time>
      </trkpt>
      <trkpt lat="46.21167" lon="4.84901">
        <ele>213</ele>
        <time>2017-05-04T14:21:44.000Z</time>
      </trkpt>
      <trkpt lat="46.21168" lon="4.84901">
        <ele>212</ele>
        <time>2017-05-04T14:21:45.000Z</time>
      </trkpt>
      <trkpt lat="46.21168" lon="4.84901">
        <ele>212</ele>
        <time>2017-05-04T14:21:46.000Z</time>
      </trkpt>
      <trkpt lat="46.21169" lon="4.84901">
        <ele>212</ele>
        <time>2017-05-04T14:21:47.000Z</time>
      </trkpt>
      <trkpt lat="46.2117" lon="4.84901">
        <ele>212</ele>
        <time>2017-05-04T14:21:48.000Z</time>
      </trkpt>
      <trkpt lat="46.2117" lon="4.84901">
        <ele>213</ele>
        <time>2017-05-04T14:21:49.000Z</time>
      </trkpt>
      <trkpt lat="46.21171" lon="4.84902">
        <ele>212</ele>
        <time>2017-05-04T14:21:50.000Z</time>
      </trkpt>
      <trkpt lat="46.21171" lon="4.84902">
        <ele>212</ele>
        <time>2017-05-04T14:21:51.000Z</time>
      </trkpt>
      <trkpt lat="46.21171" lon="4.84902">
        <ele>213</ele>
        <time>2017-05-04T14:21:52.000Z</time>
      </trkpt>
      <trkpt lat="46.21171" lon="4.84903">
        <ele>212</ele>
        <time>2017-05-04T14:21:53.000Z</time>
      </trkpt>
      <trkpt lat="46.21172" lon="4.84903">
        <ele>212</ele>
        <time>2017-05-04T14:21:54.000Z</time>
      </trkpt>
      <trkpt lat="46.21172" lon="4.84903">
        <ele>212</ele>
        <time>2017-05-04T14:21:55.000Z</time>
      </trkpt>
      <trkpt lat="46.21173" lon="4.84903">
        <ele>212</ele>
        <time>2017-05-04T14:21:56.000Z</time>
      </trkpt>
      <trkpt lat="46.21174" lon="4.84902">
        <ele>212</ele>
        <time>2017-05-04T14:21:57.000Z</time>
      </trkpt>
      <trkpt lat="46.21174" lon="4.84902">
        <ele>212</ele>
        <time>2017-05-04T14:21:58.000Z</time>
      </trkpt>
      <trkpt lat="46.21175" lon="4.84902">
        <ele>212</ele>
        <time>2017-05-04T14:21:59.000Z</time>
      </trkpt>
      <trkpt lat="46.21176" lon="4.84902">
        <ele>212</ele>
        <time>2017-05-04T14:22:00.000Z</time>
      </trkpt>
      <trkpt lat="46.21177" lon="4.84902">
        <ele>212</ele>
        <time>2017-05-04T14:22:01.000Z</time>
      </trkpt>
      <trkpt lat="46.21178" lon="4.84902">
        <ele>212</ele>
        <time>2017-05-04T14:22:02.000Z</time>
      </trkpt>
      <trkpt lat="46.21179" lon="4.84902">
        <ele>212</ele>
        <time>2017-05-04T14:22:03.000Z</time>
      </trkpt>
      <trkpt lat="46.21179" lon="4.84902">
        <ele>212</ele>
        <time>2017-05-04T14:22:04.000Z</time>
      </trkpt>
      <trkpt lat="46.2118" lon="4.84902">
        <ele>212</ele>
        <time>2017-05-04T14:22:05.000Z</time>
      </trkpt>
      <trkpt lat="46.21181" lon="4.84903">
        <ele>212</ele>
        <time>2017-05-04T14:22:06.000Z</time>
      </trkpt>
      <trkpt lat="46.21181" lon="4.84903">
        <ele>212</ele>
        <time>2017-05-04T14:22:07.000Z</time>
      </trkpt>
      <trkpt lat="46.21182" lon="4.84903">
        <ele>211</ele>
        <time>2017-05-04T14:22:08.000Z</time>
      </trkpt>
      <trkpt lat="46.21183" lon="4.84904">
        <ele>211</ele>
        <time>2017-05-04T14:22:09.000Z</time>
      </trkpt>
      <trkpt lat="46.21183" lon="4.84904">
        <ele>211</ele>
        <time>2017-05-04T14:22:10.000Z</time>
      </trkpt>
      <trkpt lat="46.21184" lon="4.84904">
        <ele>211</ele>
        <time>2017-05-04T14:22:11.000Z</time>
      </trkpt>
      <trkpt lat="46.21184" lon="4.84904">
        <ele>211</ele>
        <time>2017-05-04T14:22:12.000Z</time>
      </trkpt>
      <trkpt lat="46.21185" lon="4.84904">
        <ele>210</ele>
        <time>2017-05-04T14:22:13.000Z</time>
      </trkpt>
      <trkpt lat="46.21185" lon="4.84904">
        <ele>210</ele>
        <time>2017-05-04T14:22:14.000Z</time>
      </trkpt>
      <trkpt lat="46.21185" lon="4.84904">
        <ele>210</ele>
        <time>2017-05-04T14:22:15.000Z</time>
      </trkpt>
      <trkpt lat="46.21186" lon="4.84904">
        <ele>210</ele>
        <time>2017-05-04T14:22:16.000Z</time>
      </trkpt>
      <trkpt lat="46.21186" lon="4.84904">
        <ele>210</ele>
        <time>2017-05-04T14:22:17.000Z</time>
      </trkpt>
      <trkpt lat="46.21187" lon="4.84904">
        <ele>210</ele>
        <time>2017-05-04T14:22:18.000Z</time>
      </trkpt>
      <trkpt lat="46.21188" lon="4.84904">
        <ele>210</ele>
        <time>2017-05-04T14:22:19.000Z</time>
      </trkpt>
      <trkpt lat="46.21189" lon="4.84905">
        <ele>210</ele>
        <time>2017-05-04T14:22:20.000Z</time>
      </trkpt>
      <trkpt lat="46.2119" lon="4.84905">
        <ele>210</ele>
        <time>2017-05-04T14:22:21.000Z</time>
      </trkpt>
      <trkpt lat="46.2119" lon="4.84905">
        <ele>210</ele>
        <time>2017-05-04T14:22:22.000Z</time>
      </trkpt>
      <trkpt lat="46.21191" lon="4.84905">
        <ele>210</ele>
        <time>2017-05-04T14:22:23.000Z</time>
      </trkpt>
      <trkpt lat="46.21192" lon="4.84906">
        <ele>210</ele>
        <time>2017-05-04T14:22:24.000Z</time>
      </trkpt>
      <trkpt lat="46.21193" lon="4.84906">
        <ele>210</ele>
        <time>2017-05-04T14:22:25.000Z</time>
      </trkpt>
      <trkpt lat="46.21193" lon="4.84906">
        <ele>210</ele>
        <time>2017-05-04T14:22:26.000Z</time>
      </trkpt>
      <trkpt lat="46.21194" lon="4.84907">
        <ele>210</ele>
        <time>2017-05-04T14:22:27.000Z</time>
      </trkpt>
      <trkpt lat="46.21195" lon="4.84907">
        <ele>210</ele>
        <time>2017-05-04T14:22:28.000Z</time>
      </trkpt>
      <trkpt lat="46.21196" lon="4.84907">
        <ele>210</ele>
        <time>2017-05-04T14:22:29.000Z</time>
      </trkpt>
      <trkpt lat="46.21197" lon="4.84908">
        <ele>210</ele>
        <time>2017-05-04T14:22:30.000Z</time>
      </trkpt>
      <trkpt lat="46.21197" lon="4.84908">
        <ele>210</ele>
        <time>2017-05-04T14:22:31.000Z</time>
      </trkpt>
      <trkpt lat="46.21198" lon="4.84908">
        <ele>210</ele>
        <time>2017-05-04T14:22:32.000Z</time>
      </trkpt>
      <trkpt lat="46.21199" lon="4.84909">
        <ele>210</ele>
        <time>2017-05-04T14:22:33.000Z</time>
      </trkpt>
      <trkpt lat="46.21199" lon="4.84909">
        <ele>210</ele>
        <time>2017-05-04T14:22:34.000Z</time>
      </trkpt>
      <trkpt lat="46.212" lon="4.84909">
        <ele>210</ele>
        <time>2017-05-04T14:22:35.000Z</time>
      </trkpt>
      <trkpt lat="46.21201" lon="4.84909">
        <ele>211</ele>
        <time>2017-05-04T14:22:36.000Z</time>
      </trkpt>
      <trkpt lat="46.21201" lon="4.8491">
        <ele>210</ele>
        <time>2017-05-04T14:22:37.000Z</time>
      </trkpt>
      <trkpt lat="46.21202" lon="4.8491">
        <ele>211</ele>
        <time>2017-05-04T14:22:38.000Z</time>
      </trkpt>
      <trkpt lat="46.21203" lon="4.84911">
        <ele>211</ele>
        <time>2017-05-04T14:22:39.000Z</time>
      </trkpt>
      <trkpt lat="46.21204" lon="4.84911">
        <ele>211</ele>
        <time>2017-05-04T14:22:40.000Z</time>
      </trkpt>
      <trkpt lat="46.21204" lon="4.84911">
        <ele>211</ele>
        <time>2017-05-04T14:22:41.000Z</time>
      </trkpt>
      <trkpt lat="46.21205" lon="4.84912">
        <ele>211</ele>
        <time>2017-05-04T14:22:42.000Z</time>
      </trkpt>
      <trkpt lat="46.21206" lon="4.84912">
        <ele>211</ele>
        <time>2017-05-04T14:22:43.000Z</time>
      </trkpt>
      <trkpt lat="46.21207" lon="4.84912">
        <ele>210</ele>
        <time>2017-05-04T14:22:44.000Z</time>
      </trkpt>
      <trkpt lat="46.21208" lon="4.84913">
        <ele>210</ele>
        <time>2017-05-04T14:22:45.000Z</time>
      </trkpt>
      <trkpt lat="46.21209" lon="4.84913">
        <ele>210</ele>
        <time>2017-05-04T14:22:46.000Z</time>
      </trkpt>
      <trkpt lat="46.21211" lon="4.84914">
        <ele>210</ele>
        <time>2017-05-04T14:22:47.000Z</time>
      </trkpt>
      <trkpt lat="46.21212" lon="4.84914">
        <ele>210</ele>
        <time>2017-05-04T14:22:48.000Z</time>
      </trkpt>
      <trkpt lat="46.21214" lon="4.84914">
        <ele>210</ele>
        <time>2017-05-04T14:22:49.000Z</time>
      </trkpt>
      <trkpt lat="46.21215" lon="4.84915">
        <ele>211</ele>
        <time>2017-05-04T14:22:50.000Z</time>
      </trkpt>
      <trkpt lat="46.21216" lon="4.84915">
        <ele>211</ele>
        <time>2017-05-04T14:22:51.000Z</time>
      </trkpt>
      <trkpt lat="46.21217" lon="4.84916">
        <ele>211</ele>
        <time>2017-05-04T14:22:52.000Z</time>
      </trkpt>
      <trkpt lat="46.21218" lon="4.84916">
        <ele>211</ele>
        <time>2017-05-04T14:22:53.000Z</time>
      </trkpt>
      <trkpt lat="46.21219" lon="4.84916">
        <ele>211</ele>
        <time>2017-05-04T14:22:54.000Z</time>
      </trkpt>
      <trkpt lat="46.2122" lon="4.84917">
        <ele>211</ele>
        <time>2017-05-04T14:22:55.000Z</time>
      </trkpt>
      <trkpt lat="46.21221" lon="4.84917">
        <ele>211</ele>
        <time>2017-05-04T14:22:56.000Z</time>
      </trkpt>
      <trkpt lat="46.21222" lon="4.84917">
        <ele>211</ele>
        <time>2017-05-04T14:22:57.000Z</time>
      </trkpt>
      <trkpt lat="46.21223" lon="4.84918">
        <ele>211</ele>
        <time>2017-05-04T14:22:58.000Z</time>
      </trkpt>
      <trkpt lat="46.21224" lon="4.84918">
        <ele>211</ele>
        <time>2017-05-04T14:22:59.000Z</time>
      </trkpt>
      <trkpt lat="46.21225" lon="4.84918">
        <ele>210</ele>
        <time>2017-05-04T14:23:00.000Z</time>
      </trkpt>
      <trkpt lat="46.21226" lon="4.84919">
        <ele>211</ele>
        <time>2017-05-04T14:23:01.000Z</time>
      </trkpt>
      <trkpt lat="46.21227" lon="4.84919">
        <ele>211</ele>
        <time>2017-05-04T14:23:02.000Z</time>
      </trkpt>
      <trkpt lat="46.21228" lon="4.8492">
        <ele>211</ele>
        <time>2017-05-04T14:23:03.000Z</time>
      </trkpt>
      <trkpt lat="46.21228" lon="4.8492">
        <ele>211</ele>
        <time>2017-05-04T14:23:04.000Z</time>
      </trkpt>
      <trkpt lat="46.21229" lon="4.84921">
        <ele>211</ele>
        <time>2017-05-04T14:23:05.000Z</time>
      </trkpt>
      <trkpt lat="46.2123" lon="4.84921">
        <ele>212</ele>
        <time>2017-05-04T14:23:06.000Z</time>
      </trkpt>
      <trkpt lat="46.21231" lon="4.84922">
        <ele>212</ele>
        <time>2017-05-04T14:23:07.000Z</time>
      </trkpt>
      <trkpt lat="46.21232" lon="4.84922">
        <ele>212</ele>
        <time>2017-05-04T14:23:08.000Z</time>
      </trkpt>
      <trkpt lat="46.21234" lon="4.84922">
        <ele>211</ele>
        <time>2017-05-04T14:23:09.000Z</time>
      </trkpt>
      <trkpt lat="46.21235" lon="4.84922">
        <ele>212</ele>
        <time>2017-05-04T14:23:10.000Z</time>
      </trkpt>
      <trkpt lat="46.21235" lon="4.84922">
        <ele>212</ele>
        <time>2017-05-04T14:23:11.000Z</time>
      </trkpt>
      <trkpt lat="46.21236" lon="4.84922">
        <ele>211</ele>
        <time>2017-05-04T14:23:12.000Z</time>
      </trkpt>
      <trkpt lat="46.21237" lon="4.84923">
        <ele>212</ele>
        <time>2017-05-04T14:23:13.000Z</time>
      </trkpt>
      <trkpt lat="46.21238" lon="4.84924">
        <ele>212</ele>
        <time>2017-05-04T14:23:14.000Z</time>
      </trkpt>
      <trkpt lat="46.21239" lon="4.84924">
        <ele>212</ele>
        <time>2017-05-04T14:23:15.000Z</time>
      </trkpt>
      <trkpt lat="46.2124" lon="4.84924">
        <ele>212</ele>
        <time>2017-05-04T14:23:16.000Z</time>
      </trkpt>
      <trkpt lat="46.21241" lon="4.84925">
        <ele>212</ele>
        <time>2017-05-04T14:23:17.000Z</time>
      </trkpt>
      <trkpt lat="46.21243" lon="4.84925">
        <ele>212</ele>
        <time>2017-05-04T14:23:18.000Z</time>
      </trkpt>
      <trkpt lat="46.21244" lon="4.84926">
        <ele>212</ele>
        <time>2017-05-04T14:23:19.000Z</time>
      </trkpt>
      <trkpt lat="46.21245" lon="4.84926">
        <ele>212</ele>
        <time>2017-05-04T14:23:20.000Z</time>
      </trkpt>
      <trkpt lat="46.21246" lon="4.84926">
        <ele>212</ele>
        <time>2017-05-04T14:23:21.000Z</time>
      </trkpt>
      <trkpt lat="46.21247" lon="4.84926">
        <ele>212</ele>
        <time>2017-05-04T14:23:22.000Z</time>
      </trkpt>
      <trkpt lat="46.21248" lon="4.84926">
        <ele>213</ele>
        <time>2017-05-04T14:23:23.000Z</time>
      </trkpt>
      <trkpt lat="46.21249" lon="4.84927">
        <ele>213</ele>
        <time>2017-05-04T14:23:24.000Z</time>
      </trkpt>
      <trkpt lat="46.2125" lon="4.84927">
        <ele>213</ele>
        <time>2017-05-04T14:23:25.000Z</time>
      </trkpt>
      <trkpt lat="46.21251" lon="4.84927">
        <ele>213</ele>
        <time>2017-05-04T14:23:26.000Z</time>
      </trkpt>
      <trkpt lat="46.21252" lon="4.84928">
        <ele>212</ele>
        <time>2017-05-04T14:23:27.000Z</time>
      </trkpt>
      <trkpt lat="46.21254" lon="4.84928">
        <ele>213</ele>
        <time>2017-05-04T14:23:28.000Z</time>
      </trkpt>
      <trkpt lat="46.21255" lon="4.84928">
        <ele>213</ele>
        <time>2017-05-04T14:23:29.000Z</time>
      </trkpt>
      <trkpt lat="46.21256" lon="4.84929">
        <ele>213</ele>
        <time>2017-05-04T14:23:30.000Z</time>
      </trkpt>
      <trkpt lat="46.21257" lon="4.84929">
        <ele>213</ele>
        <time>2017-05-04T14:23:31.000Z</time>
      </trkpt>
      <trkpt lat="46.21258" lon="4.84929">
        <ele>212</ele>
        <time>2017-05-04T14:23:32.000Z</time>
      </trkpt>
      <trkpt lat="46.21259" lon="4.8493">
        <ele>213</ele>
        <time>2017-05-04T14:23:33.000Z</time>
      </trkpt>
      <trkpt lat="46.2126" lon="4.8493">
        <ele>213</ele>
        <time>2017-05-04T14:23:34.000Z</time>
      </trkpt>
      <trkpt lat="46.21261" lon="4.8493">
        <ele>213</ele>
        <time>2017-05-04T14:23:35.000Z</time>
      </trkpt>
      <trkpt lat="46.21262" lon="4.8493">
        <ele>212</ele>
        <time>2017-05-04T14:23:36.000Z</time>
      </trkpt>
      <trkpt lat="46.21263" lon="4.8493">
        <ele>213</ele>
        <time>2017-05-04T14:23:37.000Z</time>
      </trkpt>
      <trkpt lat="46.21265" lon="4.84931">
        <ele>213</ele>
        <time>2017-05-04T14:23:38.000Z</time>
      </trkpt>
      <trkpt lat="46.21266" lon="4.84931">
        <ele>212</ele>
        <time>2017-05-04T14:23:39.000Z</time>
      </trkpt>
      <trkpt lat="46.21267" lon="4.84931">
        <ele>213</ele>
        <time>2017-05-04T14:23:40.000Z</time>
      </trkpt>
      <trkpt lat="46.21268" lon="4.84931">
        <ele>213</ele>
        <time>2017-05-04T14:23:41.000Z</time>
      </trkpt>
      <trkpt lat="46.21269" lon="4.84931">
        <ele>213</ele>
        <time>2017-05-04T14:23:42.000Z</time>
      </trkpt>
      <trkpt lat="46.21271" lon="4.84931">
        <ele>213</ele>
        <time>2017-05-04T14:23:43.000Z</time>
      </trkpt>
      <trkpt lat="46.21272" lon="4.84931">
        <ele>213</ele>
        <time>2017-05-04T14:23:44.000Z</time>
      </trkpt>
      <trkpt lat="46.21273" lon="4.84931">
        <ele>213</ele>
        <time>2017-05-04T14:23:45.000Z</time>
      </trkpt>
      <trkpt lat="46.21274" lon="4.84931">
        <ele>214</ele>
        <time>2017-05-04T14:23:46.000Z</time>
      </trkpt>
      <trkpt lat="46.21275" lon="4.84931">
        <ele>213</ele>
        <time>2017-05-04T14:23:47.000Z</time>
      </trkpt>
      <trkpt lat="46.21276" lon="4.84931">
        <ele>213</ele>
        <time>2017-05-04T14:23:48.000Z</time>
      </trkpt>
      <trkpt lat="46.21277" lon="4.84931">
        <ele>213</ele>
        <time>2017-05-04T14:23:49.000Z</time>
      </trkpt>
      <trkpt lat="46.21278" lon="4.84931">
        <ele>213</ele>
        <time>2017-05-04T14:23:50.000Z</time>
      </trkpt>
      <trkpt lat="46.21279" lon="4.84931">
        <ele>213</ele>
        <time>2017-05-04T14:23:51.000Z</time>
      </trkpt>
      <trkpt lat="46.2128" lon="4.84931">
        <ele>213</ele>
        <time>2017-05-04T14:23:52.000Z</time>
      </trkpt>
      <trkpt lat="46.21282" lon="4.84931">
        <ele>213</ele>
        <time>2017-05-04T14:23:53.000Z</time>
      </trkpt>
      <trkpt lat="46.21283" lon="4.84931">
        <ele>213</ele>
        <time>2017-05-04T14:23:54.000Z</time>
      </trkpt>
      <trkpt lat="46.21284" lon="4.84931">
        <ele>213</ele>
        <time>2017-05-04T14:23:55.000Z</time>
      </trkpt>
      <trkpt lat="46.21285" lon="4.84931">
        <ele>213</ele>
        <time>2017-05-04T14:23:56.000Z</time>
      </trkpt>
      <trkpt lat="46.21286" lon="4.8493">
        <ele>212</ele>
        <time>2017-05-04T14:23:57.000Z</time>
      </trkpt>
      <trkpt lat="46.21288" lon="4.8493">
        <ele>212</ele>
        <time>2017-05-04T14:23:58.000Z</time>
      </trkpt>
      <trkpt lat="46.21289" lon="4.8493">
        <ele>212</ele>
        <time>2017-05-04T14:23:59.000Z</time>
      </trkpt>
      <trkpt lat="46.2129" lon="4.8493">
        <ele>213</ele>
        <time>2017-05-04T14:24:00.000Z</time>
      </trkpt>
      <trkpt lat="46.21291" lon="4.8493">
        <ele>212</ele>
        <time>2017-05-04T14:24:01.000Z</time>
      </trkpt>
      <trkpt lat="46.21292" lon="4.84929">
        <ele>212</ele>
        <time>2017-05-04T14:24:02.000Z</time>
      </trkpt>
      <trkpt lat="46.21293" lon="4.84929">
        <ele>212</ele>
        <time>2017-05-04T14:24:03.000Z</time>
      </trkpt>
      <trkpt lat="46.21295" lon="4.84929">
        <ele>212</ele>
        <time>2017-05-04T14:24:04.000Z</time>
      </trkpt>
      <trkpt lat="46.21296" lon="4.84929">
        <ele>212</ele>
        <time>2017-05-04T14:24:05.000Z</time>
      </trkpt>
      <trkpt lat="46.21297" lon="4.84929">
        <ele>212</ele>
        <time>2017-05-04T14:24:06.000Z</time>
      </trkpt>
      <trkpt lat="46.21298" lon="4.84929">
        <ele>213</ele>
        <time>2017-05-04T14:24:07.000Z</time>
      </trkpt>
      <trkpt lat="46.21299" lon="4.84929">
        <ele>212</ele>
        <time>2017-05-04T14:24:08.000Z</time>
      </trkpt>
      <trkpt lat="46.21301" lon="4.84928">
        <ele>212</ele>
        <time>2017-05-04T14:24:09.000Z</time>
      </trkpt>
      <trkpt lat="46.21302" lon="4.84928">
        <ele>212</ele>
        <time>2017-05-04T14:24:10.000Z</time>
      </trkpt>
      <trkpt lat="46.21303" lon="4.84928">
        <ele>212</ele>
        <time>2017-05-04T14:24:11.000Z</time>
      </trkpt>
      <trkpt lat="46.21304" lon="4.84928">
        <ele>212</ele>
        <time>2017-05-04T14:24:12.000Z</time>
      </trkpt>
      <trkpt lat="46.21306" lon="4.84927">
        <ele>212</ele>
        <time>2017-05-04T14:24:13.000Z</time>
      </trkpt>
      <trkpt lat="46.21307" lon="4.84927">
        <ele>212</ele>
        <time>2017-05-04T14:24:14.000Z</time>
      </trkpt>
      <trkpt lat="46.21308" lon="4.84927">
        <ele>212</ele>
        <time>2017-05-04T14:24:15.000Z</time>
      </trkpt>
      <trkpt lat="46.21309" lon="4.84927">
        <ele>212</ele>
        <time>2017-05-04T14:24:16.000Z</time>
      </trkpt>
      <trkpt lat="46.2131" lon="4.84927">
        <ele>212</ele>
        <time>2017-05-04T14:24:17.000Z</time>
      </trkpt>
      <trkpt lat="46.21311" lon="4.84926">
        <ele>212</ele>
        <time>2017-05-04T14:24:18.000Z</time>
      </trkpt>
      <trkpt lat="46.21313" lon="4.84926">
        <ele>213</ele>
        <time>2017-05-04T14:24:19.000Z</time>
      </trkpt>
      <trkpt lat="46.21314" lon="4.84926">
        <ele>213</ele>
        <time>2017-05-04T14:24:20.000Z</time>
      </trkpt>
      <trkpt lat="46.21315" lon="4.84926">
        <ele>213</ele>
        <time>2017-05-04T14:24:21.000Z</time>
      </trkpt>
      <trkpt lat="46.21316" lon="4.84926">
        <ele>213</ele>
        <time>2017-05-04T14:24:22.000Z</time>
      </trkpt>
      <trkpt lat="46.21317" lon="4.84925">
        <ele>213</ele>
        <time>2017-05-04T14:24:23.000Z</time>
      </trkpt>
      <trkpt lat="46.21318" lon="4.84925">
        <ele>213</ele>
        <time>2017-05-04T14:24:24.000Z</time>
      </trkpt>
      <trkpt lat="46.21319" lon="4.84925">
        <ele>213</ele>
        <time>2017-05-04T14:24:25.000Z</time>
      </trkpt>
      <trkpt lat="46.21321" lon="4.84925">
        <ele>213</ele>
        <time>2017-05-04T14:24:26.000Z</time>
      </trkpt>
      <trkpt lat="46.21322" lon="4.84925">
        <ele>213</ele>
        <time>2017-05-04T14:24:27.000Z</time>
      </trkpt>
      <trkpt lat="46.21323" lon="4.84924">
        <ele>213</ele>
        <time>2017-05-04T14:24:28.000Z</time>
      </trkpt>
      <trkpt lat="46.21324" lon="4.84924">
        <ele>213</ele>
        <time>2017-05-04T14:24:29.000Z</time>
      </trkpt>
      <trkpt lat="46.21326" lon="4.84924">
        <ele>213</ele>
        <time>2017-05-04T14:24:30.000Z</time>
      </trkpt>
      <trkpt lat="46.21327" lon="4.84924">
        <ele>213</ele>
        <time>2017-05-04T14:24:31.000Z</time>
      </trkpt>
      <trkpt lat="46.21328" lon="4.84924">
        <ele>213</ele>
        <time>2017-05-04T14:24:32.000Z</time>
      </trkpt>
      <trkpt lat="46.21329" lon="4.84924">
        <ele>213</ele>
        <time>2017-05-04T14:24:33.000Z</time>
      </trkpt>
      <trkpt lat="46.2133" lon="4.84923">
        <ele>213</ele>
        <time>2017-05-04T14:24:34.000Z</time>
      </trkpt>
      <trkpt lat="46.21331" lon="4.84923">
        <ele>213</ele>
        <time>2017-05-04T14:24:35.000Z</time>
      </trkpt>
      <trkpt lat="46.21332" lon="4.84923">
        <ele>213</ele>
        <time>2017-05-04T14:24:36.000Z</time>
      </trkpt>
      <trkpt lat="46.21333" lon="4.84922">
        <ele>213</ele>
        <time>2017-05-04T14:24:37.000Z</time>
      </trkpt>
      <trkpt lat="46.21334" lon="4.84922">
        <ele>213</ele>
        <time>2017-05-04T14:24:38.000Z</time>
      </trkpt>
      <trkpt lat="46.21335" lon="4.84922">
        <ele>213</ele>
        <time>2017-05-04T14:24:39.000Z</time>
      </trkpt>
      <trkpt lat="46.21336" lon="4.84922">
        <ele>213</ele>
        <time>2017-05-04T14:24:40.000Z</time>
      </trkpt>
      <trkpt lat="46.21337" lon="4.84921">
        <ele>213</ele>
        <time>2017-05-04T14:24:41.000Z</time>
      </trkpt>
      <trkpt lat="46.21338" lon="4.84921">
        <ele>213</ele>
        <time>2017-05-04T14:24:42.000Z</time>
      </trkpt>
      <trkpt lat="46.21339" lon="4.84921">
        <ele>213</ele>
        <time>2017-05-04T14:24:43.000Z</time>
      </trkpt>
      <trkpt lat="46.2134" lon="4.8492">
        <ele>213</ele>
        <time>2017-05-04T14:24:44.000Z</time>
      </trkpt>
      <trkpt lat="46.21341" lon="4.8492">
        <ele>213</ele>
        <time>2017-05-04T14:24:45.000Z</time>
      </trkpt>
      <trkpt lat="46.21343" lon="4.84919">
        <ele>213</ele>
        <time>2017-05-04T14:24:46.000Z</time>
      </trkpt>
      <trkpt lat="46.21344" lon="4.84919">
        <ele>213</ele>
        <time>2017-05-04T14:24:47.000Z</time>
      </trkpt>
      <trkpt lat="46.21345" lon="4.84919">
        <ele>213</ele>
        <time>2017-05-04T14:24:48.000Z</time>
      </trkpt>
      <trkpt lat="46.21346" lon="4.84918">
        <ele>213</ele>
        <time>2017-05-04T14:24:49.000Z</time>
      </trkpt>
      <trkpt lat="46.21348" lon="4.84918">
        <ele>213</ele>
        <time>2017-05-04T14:24:50.000Z</time>
      </trkpt>
      <trkpt lat="46.21349" lon="4.84917">
        <ele>213</ele>
        <time>2017-05-04T14:24:51.000Z</time>
      </trkpt>
      <trkpt lat="46.2135" lon="4.84917">
        <ele>213</ele>
        <time>2017-05-04T14:24:52.000Z</time>
      </trkpt>
      <trkpt lat="46.21351" lon="4.84917">
        <ele>213</ele>
        <time>2017-05-04T14:24:53.000Z</time>
      </trkpt>
      <trkpt lat="46.21352" lon="4.84916">
        <ele>213</ele>
        <time>2017-05-04T14:24:54.000Z</time>
      </trkpt>
      <trkpt lat="46.21353" lon="4.84916">
        <ele>213</ele>
        <time>2017-05-04T14:24:55.000Z</time>
      </trkpt>
      <trkpt lat="46.21354" lon="4.84915">
        <ele>213</ele>
        <time>2017-05-04T14:24:56.000Z</time>
      </trkpt>
      <trkpt lat="46.21356" lon="4.84915">
        <ele>213</ele>
        <time>2017-05-04T14:24:57.000Z</time>
      </trkpt>
      <trkpt lat="46.21357" lon="4.84915">
        <ele>213</ele>
        <time>2017-05-04T14:24:58.000Z</time>
      </trkpt>
      <trkpt lat="46.21358" lon="4.84914">
        <ele>213</ele>
        <time>2017-05-04T14:24:59.000Z</time>
      </trkpt>
      <trkpt lat="46.21359" lon="4.84914">
        <ele>213</ele>
        <time>2017-05-04T14:25:00.000Z</time>
      </trkpt>
      <trkpt lat="46.2136" lon="4.84913">
        <ele>213</ele>
        <time>2017-05-04T14:25:01.000Z</time>
      </trkpt>
      <trkpt lat="46.21361" lon="4.84913">
        <ele>213</ele>
        <time>2017-05-04T14:25:02.000Z</time>
      </trkpt>
      <trkpt lat="46.21363" lon="4.84913">
        <ele>213</ele>
        <time>2017-05-04T14:25:03.000Z</time>
      </trkpt>
      <trkpt lat="46.21364" lon="4.84912">
        <ele>213</ele>
        <time>2017-05-04T14:25:04.000Z</time>
      </trkpt>
      <trkpt lat="46.21365" lon="4.84912">
        <ele>213</ele>
        <time>2017-05-04T14:25:05.000Z</time>
      </trkpt>
      <trkpt lat="46.21366" lon="4.84911">
        <ele>213</ele>
        <time>2017-05-04T14:25:06.000Z</time>
      </trkpt>
      <trkpt lat="46.21367" lon="4.84911">
        <ele>213</ele>
        <time>2017-05-04T14:25:07.000Z</time>
      </trkpt>
      <trkpt lat="46.21368" lon="4.84911">
        <ele>213</ele>
        <time>2017-05-04T14:25:08.000Z</time>
      </trkpt>
      <trkpt lat="46.21369" lon="4.8491">
        <ele>213</ele>
        <time>2017-05-04T14:25:09.000Z</time>
      </trkpt>
      <trkpt lat="46.2137" lon="4.8491">
        <ele>213</ele>
        <time>2017-05-04T14:25:10.000Z</time>
      </trkpt>
      <trkpt lat="46.21372" lon="4.8491">
        <ele>213</ele>
        <time>2017-05-04T14:25:11.000Z</time>
      </trkpt>
      <trkpt lat="46.21373" lon="4.84909">
        <ele>213</ele>
        <time>2017-05-04T14:25:12.000Z</time>
      </trkpt>
      <trkpt lat="46.21374" lon="4.84909">
        <ele>213</ele>
        <time>2017-05-04T14:25:13.000Z</time>
      </trkpt>
      <trkpt lat="46.21375" lon="4.84908">
        <ele>213</ele>
        <time>2017-05-04T14:25:14.000Z</time>
      </trkpt>
      <trkpt lat="46.21377" lon="4.84908">
        <ele>213</ele>
        <time>2017-05-04T14:25:15.000Z</time>
      </trkpt>
      <trkpt lat="46.21378" lon="4.84908">
        <ele>213</ele>
        <time>2017-05-04T14:25:16.000Z</time>
      </trkpt>
      <trkpt lat="46.21379" lon="4.84907">
        <ele>214</ele>
        <time>2017-05-04T14:25:17.000Z</time>
      </trkpt>
      <trkpt lat="46.2138" lon="4.84907">
        <ele>214</ele>
        <time>2017-05-04T14:25:18.000Z</time>
      </trkpt>
      <trkpt lat="46.21381" lon="4.84907">
        <ele>214</ele>
        <time>2017-05-04T14:25:19.000Z</time>
      </trkpt>
      <trkpt lat="46.21382" lon="4.84906">
        <ele>214</ele>
        <time>2017-05-04T14:25:20.000Z</time>
      </trkpt>
      <trkpt lat="46.21384" lon="4.84906">
        <ele>214</ele>
        <time>2017-05-04T14:25:21.000Z</time>
      </trkpt>
      <trkpt lat="46.21385" lon="4.84905">
        <ele>214</ele>
        <time>2017-05-04T14:25:22.000Z</time>
      </trkpt>
      <trkpt lat="46.21386" lon="4.84905">
        <ele>214</ele>
        <time>2017-05-04T14:25:23.000Z</time>
      </trkpt>
      <trkpt lat="46.21387" lon="4.84905">
        <ele>215</ele>
        <time>2017-05-04T14:25:24.000Z</time>
      </trkpt>
      <trkpt lat="46.21389" lon="4.84904">
        <ele>215</ele>
        <time>2017-05-04T14:25:25.000Z</time>
      </trkpt>
      <trkpt lat="46.2139" lon="4.84904">
        <ele>215</ele>
        <time>2017-05-04T14:25:26.000Z</time>
      </trkpt>
      <trkpt lat="46.21391" lon="4.84904">
        <ele>215</ele>
        <time>2017-05-04T14:25:27.000Z</time>
      </trkpt>
      <trkpt lat="46.21392" lon="4.84903">
        <ele>215</ele>
        <time>2017-05-04T14:25:28.000Z</time>
      </trkpt>
      <trkpt lat="46.21393" lon="4.84903">
        <ele>215</ele>
        <time>2017-05-04T14:25:29.000Z</time>
      </trkpt>
      <trkpt lat="46.21394" lon="4.84902">
        <ele>215</ele>
        <time>2017-05-04T14:25:30.000Z</time>
      </trkpt>
      <trkpt lat="46.21395" lon="4.84902">
        <ele>215</ele>
        <time>2017-05-04T14:25:31.000Z</time>
      </trkpt>
      <trkpt lat="46.21396" lon="4.84902">
        <ele>215</ele>
        <time>2017-05-04T14:25:32.000Z</time>
      </trkpt>
      <trkpt lat="46.21397" lon="4.84901">
        <ele>215</ele>
        <time>2017-05-04T14:25:33.000Z</time>
      </trkpt>
      <trkpt lat="46.21398" lon="4.84901">
        <ele>214</ele>
        <time>2017-05-04T14:25:34.000Z</time>
      </trkpt>
      <trkpt lat="46.21399" lon="4.84901">
        <ele>214</ele>
        <time>2017-05-04T14:25:35.000Z</time>
      </trkpt>
      <trkpt lat="46.214" lon="4.849">
        <ele>214</ele>
        <time>2017-05-04T14:25:36.000Z</time>
      </trkpt>
      <trkpt lat="46.21401" lon="4.849">
        <ele>214</ele>
        <time>2017-05-04T14:25:37.000Z</time>
      </trkpt>
      <trkpt lat="46.21402" lon="4.849">
        <ele>214</ele>
        <time>2017-05-04T14:25:38.000Z</time>
      </trkpt>
      <trkpt lat="46.21403" lon="4.84899">
        <ele>214</ele>
        <time>2017-05-04T14:25:39.000Z</time>
      </trkpt>
      <trkpt lat="46.21404" lon="4.84899">
        <ele>214</ele>
        <time>2017-05-04T14:25:40.000Z</time>
      </trkpt>
      <trkpt lat="46.21405" lon="4.84899">
        <ele>214</ele>
        <time>2017-05-04T14:25:41.000Z</time>
      </trkpt>
      <trkpt lat="46.21407" lon="4.84898">
        <ele>214</ele>
        <time>2017-05-04T14:25:42.000Z</time>
      </trkpt>
      <trkpt lat="46.21408" lon="4.84898">
        <ele>214</ele>
        <time>2017-05-04T14:25:43.000Z</time>
      </trkpt>
      <trkpt lat="46.21409" lon="4.84898">
        <ele>214</ele>
        <time>2017-05-04T14:25:44.000Z</time>
      </trkpt>
      <trkpt lat="46.2141" lon="4.84898">
        <ele>214</ele>
        <time>2017-05-04T14:25:45.000Z</time>
      </trkpt>
      <trkpt lat="46.21411" lon="4.84897">
        <ele>214</ele>
        <time>2017-05-04T14:25:46.000Z</time>
      </trkpt>
      <trkpt lat="46.21412" lon="4.84897">
        <ele>215</ele>
        <time>2017-05-04T14:25:47.000Z</time>
      </trkpt>
      <trkpt lat="46.21413" lon="4.84897">
        <ele>215</ele>
        <time>2017-05-04T14:25:48.000Z</time>
      </trkpt>
      <trkpt lat="46.21415" lon="4.84896">
        <ele>215</ele>
        <time>2017-05-04T14:25:49.000Z</time>
      </trkpt>
      <trkpt lat="46.21416" lon="4.84896">
        <ele>215</ele>
        <time>2017-05-04T14:25:50.000Z</time>
      </trkpt>
      <trkpt lat="46.21417" lon="4.84896">
        <ele>215</ele>
        <time>2017-05-04T14:25:51.000Z</time>
      </trkpt>
      <trkpt lat="46.21418" lon="4.84896">
        <ele>215</ele>
        <time>2017-05-04T14:25:52.000Z</time>
      </trkpt>
      <trkpt lat="46.21419" lon="4.84895">
        <ele>215</ele>
        <time>2017-05-04T14:25:53.000Z</time>
      </trkpt>
      <trkpt lat="46.21421" lon="4.84895">
        <ele>215</ele>
        <time>2017-05-04T14:25:54.000Z</time>
      </trkpt>
      <trkpt lat="46.21422" lon="4.84895">
        <ele>215</ele>
        <time>2017-05-04T14:25:55.000Z</time>
      </trkpt>
      <trkpt lat="46.21423" lon="4.84894">
        <ele>215</ele>
        <time>2017-05-04T14:25:56.000Z</time>
      </trkpt>
      <trkpt lat="46.21424" lon="4.84894">
        <ele>215</ele>
        <time>2017-05-04T14:25:57.000Z</time>
      </trkpt>
      <trkpt lat="46.21426" lon="4.84894">
        <ele>215</ele>
        <time>2017-05-04T14:25:58.000Z</time>
      </trkpt>
      <trkpt lat="46.21427" lon="4.84894">
        <ele>214</ele>
        <time>2017-05-04T14:25:59.000Z</time>
      </trkpt>
      <trkpt lat="46.21428" lon="4.84894">
        <ele>214</ele>
        <time>2017-05-04T14:26:00.000Z</time>
      </trkpt>
      <trkpt lat="46.21429" lon="4.84894">
        <ele>214</ele>
        <time>2017-05-04T14:26:01.000Z</time>
      </trkpt>
      <trkpt lat="46.2143" lon="4.84894">
        <ele>214</ele>
        <time>2017-05-04T14:26:02.000Z</time>
      </trkpt>
      <trkpt lat="46.21431" lon="4.84894">
        <ele>214</ele>
        <time>2017-05-04T14:26:03.000Z</time>
      </trkpt>
      <trkpt lat="46.21433" lon="4.84894">
        <ele>214</ele>
        <time>2017-05-04T14:26:04.000Z</time>
      </trkpt>
      <trkpt lat="46.21434" lon="4.84894">
        <ele>214</ele>
        <time>2017-05-04T14:26:05.000Z</time>
      </trkpt>
      <trkpt lat="46.21435" lon="4.84894">
        <ele>214</ele>
        <time>2017-05-04T14:26:06.000Z</time>
      </trkpt>
      <trkpt lat="46.21436" lon="4.84894">
        <ele>213</ele>
        <time>2017-05-04T14:26:07.000Z</time>
      </trkpt>
      <trkpt lat="46.21438" lon="4.84894">
        <ele>213</ele>
        <time>2017-05-04T14:26:08.000Z</time>
      </trkpt>
      <trkpt lat="46.21439" lon="4.84894">
        <ele>213</ele>
        <time>2017-05-04T14:26:09.000Z</time>
      </trkpt>
      <trkpt lat="46.2144" lon="4.84894">
        <ele>212</ele>
        <time>2017-05-04T14:26:10.000Z</time>
      </trkpt>
      <trkpt lat="46.21441" lon="4.84894">
        <ele>212</ele>
        <time>2017-05-04T14:26:11.000Z</time>
      </trkpt>
      <trkpt lat="46.21442" lon="4.84894">
        <ele>212</ele>
        <time>2017-05-04T14:26:12.000Z</time>
      </trkpt>
      <trkpt lat="46.21443" lon="4.84894">
        <ele>212</ele>
        <time>2017-05-04T14:26:13.000Z</time>
      </trkpt>
      <trkpt lat="46.21445" lon="4.84893">
        <ele>212</ele>
        <time>2017-05-04T14:26:14.000Z</time>
      </trkpt>
      <trkpt lat="46.21446" lon="4.84893">
        <ele>212</ele>
        <time>2017-05-04T14:26:15.000Z</time>
      </trkpt>
      <trkpt lat="46.21447" lon="4.84893">
        <ele>212</ele>
        <time>2017-05-04T14:26:16.000Z</time>
      </trkpt>
      <trkpt lat="46.21448" lon="4.84893">
        <ele>212</ele>
        <time>2017-05-04T14:26:17.000Z</time>
      </trkpt>
      <trkpt lat="46.21449" lon="4.84893">
        <ele>212</ele>
        <time>2017-05-04T14:26:18.000Z</time>
      </trkpt>
      <trkpt lat="46.2145" lon="4.84894">
        <ele>212</ele>
        <time>2017-05-04T14:26:19.000Z</time>
      </trkpt>
      <trkpt lat="46.21451" lon="4.84894">
        <ele>212</ele>
        <time>2017-05-04T14:26:20.000Z</time>
      </trkpt>
      <trkpt lat="46.21452" lon="4.84894">
        <ele>212</ele>
        <time>2017-05-04T14:26:21.000Z</time>
      </trkpt>
      <trkpt lat="46.21453" lon="4.84894">
        <ele>211</ele>
        <time>2017-05-04T14:26:22.000Z</time>
      </trkpt>
      <trkpt lat="46.21454" lon="4.84894">
        <ele>212</ele>
        <time>2017-05-04T14:26:23.000Z</time>
      </trkpt>
      <trkpt lat="46.21455" lon="4.84894">
        <ele>211</ele>
        <time>2017-05-04T14:26:24.000Z</time>
      </trkpt>
      <trkpt lat="46.21456" lon="4.84894">
        <ele>212</ele>
        <time>2017-05-04T14:26:25.000Z</time>
      </trkpt>
      <trkpt lat="46.21457" lon="4.84894">
        <ele>212</ele>
        <time>2017-05-04T14:26:26.000Z</time>
      </trkpt>
      <trkpt lat="46.21458" lon="4.84895">
        <ele>212</ele>
        <time>2017-05-04T14:26:27.000Z</time>
      </trkpt>
      <trkpt lat="46.21459" lon="4.84895">
        <ele>211</ele>
        <time>2017-05-04T14:26:28.000Z</time>
      </trkpt>
      <trkpt lat="46.21459" lon="4.84895">
        <ele>211</ele>
        <time>2017-05-04T14:26:29.000Z</time>
      </trkpt>
      <trkpt lat="46.2146" lon="4.84895">
        <ele>211</ele>
        <time>2017-05-04T14:26:30.000Z</time>
      </trkpt>
      <trkpt lat="46.21461" lon="4.84895">
        <ele>211</ele>
        <time>2017-05-04T14:26:31.000Z</time>
      </trkpt>
      <trkpt lat="46.21462" lon="4.84896">
        <ele>211</ele>
        <time>2017-05-04T14:26:32.000Z</time>
      </trkpt>
      <trkpt lat="46.21462" lon="4.84896">
        <ele>211</ele>
        <time>2017-05-04T14:26:33.000Z</time>
      </trkpt>
      <trkpt lat="46.21463" lon="4.84897">
        <ele>212</ele>
        <time>2017-05-04T14:26:34.000Z</time>
      </trkpt>
      <trkpt lat="46.21464" lon="4.84897">
        <ele>212</ele>
        <time>2017-05-04T14:26:35.000Z</time>
      </trkpt>
      <trkpt lat="46.21465" lon="4.84897">
        <ele>212</ele>
        <time>2017-05-04T14:26:36.000Z</time>
      </trkpt>
      <trkpt lat="46.21467" lon="4.84897">
        <ele>212</ele>
        <time>2017-05-04T14:26:37.000Z</time>
      </trkpt>
      <trkpt lat="46.21468" lon="4.84897">
        <ele>212</ele>
        <time>2017-05-04T14:26:38.000Z</time>
      </trkpt>
      <trkpt lat="46.21468" lon="4.84897">
        <ele>212</ele>
        <time>2017-05-04T14:26:39.000Z</time>
      </trkpt>
      <trkpt lat="46.21469" lon="4.84897">
        <ele>212</ele>
        <time>2017-05-04T14:26:40.000Z</time>
      </trkpt>
      <trkpt lat="46.2147" lon="4.84897">
        <ele>212</ele>
        <time>2017-05-04T14:26:41.000Z</time>
      </trkpt>
      <trkpt lat="46.2147" lon="4.84897">
        <ele>212</ele>
        <time>2017-05-04T14:26:42.000Z</time>
      </trkpt>
      <trkpt lat="46.21471" lon="4.84897">
        <ele>212</ele>
        <time>2017-05-04T14:26:43.000Z</time>
      </trkpt>
      <trkpt lat="46.21472" lon="4.84897">
        <ele>213</ele>
        <time>2017-05-04T14:26:44.000Z</time>
      </trkpt>
      <trkpt lat="46.21473" lon="4.84897">
        <ele>213</ele>
        <time>2017-05-04T14:26:45.000Z</time>
      </trkpt>
      <trkpt lat="46.21475" lon="4.84897">
        <ele>213</ele>
        <time>2017-05-04T14:26:46.000Z</time>
      </trkpt>
      <trkpt lat="46.21476" lon="4.84897">
        <ele>214</ele>
        <time>2017-05-04T14:26:47.000Z</time>
      </trkpt>
      <trkpt lat="46.21478" lon="4.84898">
        <ele>214</ele>
        <time>2017-05-04T14:26:48.000Z</time>
      </trkpt>
      <trkpt lat="46.21479" lon="4.84898">
        <ele>214</ele>
        <time>2017-05-04T14:26:49.000Z</time>
      </trkpt>
      <trkpt lat="46.2148" lon="4.84898">
        <ele>214</ele>
        <time>2017-05-04T14:26:50.000Z</time>
      </trkpt>
      <trkpt lat="46.21481" lon="4.84898">
        <ele>214</ele>
        <time>2017-05-04T14:26:51.000Z</time>
      </trkpt>
      <trkpt lat="46.21483" lon="4.84898">
        <ele>214</ele>
        <time>2017-05-04T14:26:52.000Z</time>
      </trkpt>
      <trkpt lat="46.21484" lon="4.84898">
        <ele>214</ele>
        <time>2017-05-04T14:26:53.000Z</time>
      </trkpt>
      <trkpt lat="46.21485" lon="4.84898">
        <ele>214</ele>
        <time>2017-05-04T14:26:54.000Z</time>
      </trkpt>
      <trkpt lat="46.21487" lon="4.84898">
        <ele>214</ele>
        <time>2017-05-04T14:26:55.000Z</time>
      </trkpt>
      <trkpt lat="46.21488" lon="4.84898">
        <ele>214</ele>
        <time>2017-05-04T14:26:56.000Z</time>
      </trkpt>
      <trkpt lat="46.21489" lon="4.84898">
        <ele>214</ele>
        <time>2017-05-04T14:26:57.000Z</time>
      </trkpt>
      <trkpt lat="46.2149" lon="4.84898">
        <ele>214</ele>
        <time>2017-05-04T14:26:58.000Z</time>
      </trkpt>
      <trkpt lat="46.21492" lon="4.84897">
        <ele>214</ele>
        <time>2017-05-04T14:26:59.000Z</time>
      </trkpt>
      <trkpt lat="46.21493" lon="4.84897">
        <ele>214</ele>
        <time>2017-05-04T14:27:00.000Z</time>
      </trkpt>
      <trkpt lat="46.21495" lon="4.84897">
        <ele>214</ele>
        <time>2017-05-04T14:27:01.000Z</time>
      </trkpt>
      <trkpt lat="46.21496" lon="4.84897">
        <ele>213</ele>
        <time>2017-05-04T14:27:02.000Z</time>
      </trkpt>
      <trkpt lat="46.21497" lon="4.84897">
        <ele>213</ele>
        <time>2017-05-04T14:27:03.000Z</time>
      </trkpt>
      <trkpt lat="46.21498" lon="4.84897">
        <ele>212</ele>
        <time>2017-05-04T14:27:04.000Z</time>
      </trkpt>
      <trkpt lat="46.21499" lon="4.84898">
        <ele>212</ele>
        <time>2017-05-04T14:27:05.000Z</time>
      </trkpt>
      <trkpt lat="46.215" lon="4.84898">
        <ele>212</ele>
        <time>2017-05-04T14:27:06.000Z</time>
      </trkpt>
      <trkpt lat="46.21501" lon="4.84898">
        <ele>212</ele>
        <time>2017-05-04T14:27:07.000Z</time>
      </trkpt>
      <trkpt lat="46.21502" lon="4.84898">
        <ele>212</ele>
        <time>2017-05-04T14:27:08.000Z</time>
      </trkpt>
      <trkpt lat="46.21504" lon="4.84898">
        <ele>212</ele>
        <time>2017-05-04T14:27:09.000Z</time>
      </trkpt>
      <trkpt lat="46.21505" lon="4.84897">
        <ele>212</ele>
        <time>2017-05-04T14:27:10.000Z</time>
      </trkpt>
      <trkpt lat="46.21506" lon="4.84897">
        <ele>212</ele>
        <time>2017-05-04T14:27:11.000Z</time>
      </trkpt>
      <trkpt lat="46.21508" lon="4.84897">
        <ele>212</ele>
        <time>2017-05-04T14:27:12.000Z</time>
      </trkpt>
      <trkpt lat="46.21509" lon="4.84897">
        <ele>212</ele>
        <time>2017-05-04T14:27:13.000Z</time>
      </trkpt>
      <trkpt lat="46.21511" lon="4.84897">
        <ele>212</ele>
        <time>2017-05-04T14:27:14.000Z</time>
      </trkpt>
      <trkpt lat="46.21512" lon="4.84897">
        <ele>211</ele>
        <time>2017-05-04T14:27:15.000Z</time>
      </trkpt>
      <trkpt lat="46.21513" lon="4.84897">
        <ele>211</ele>
        <time>2017-05-04T14:27:16.000Z</time>
      </trkpt>
      <trkpt lat="46.21514" lon="4.84897">
        <ele>211</ele>
        <time>2017-05-04T14:27:17.000Z</time>
      </trkpt>
      <trkpt lat="46.21515" lon="4.84897">
        <ele>211</ele>
        <time>2017-05-04T14:27:18.000Z</time>
      </trkpt>
      <trkpt lat="46.21516" lon="4.84897">
        <ele>211</ele>
        <time>2017-05-04T14:27:19.000Z</time>
      </trkpt>
      <trkpt lat="46.21518" lon="4.84897">
        <ele>211</ele>
        <time>2017-05-04T14:27:20.000Z</time>
      </trkpt>
      <trkpt lat="46.21519" lon="4.84897">
        <ele>211</ele>
        <time>2017-05-04T14:27:21.000Z</time>
      </trkpt>
      <trkpt lat="46.2152" lon="4.84897">
        <ele>211</ele>
        <time>2017-05-04T14:27:22.000Z</time>
      </trkpt>
      <trkpt lat="46.21521" lon="4.84897">
        <ele>211</ele>
        <time>2017-05-04T14:27:23.000Z</time>
      </trkpt>
      <trkpt lat="46.21523" lon="4.84897">
        <ele>211</ele>
        <time>2017-05-04T14:27:24.000Z</time>
      </trkpt>
      <trkpt lat="46.21524" lon="4.84897">
        <ele>211</ele>
        <time>2017-05-04T14:27:25.000Z</time>
      </trkpt>
      <trkpt lat="46.21525" lon="4.84897">
        <ele>211</ele>
        <time>2017-05-04T14:27:26.000Z</time>
      </trkpt>
      <trkpt lat="46.21527" lon="4.84897">
        <ele>211</ele>
        <time>2017-05-04T14:27:27.000Z</time>
      </trkpt>
      <trkpt lat="46.21528" lon="4.84897">
        <ele>211</ele>
        <time>2017-05-04T14:27:28.000Z</time>
      </trkpt>
      <trkpt lat="46.21529" lon="4.84897">
        <ele>211</ele>
        <time>2017-05-04T14:27:29.000Z</time>
      </trkpt>
      <trkpt lat="46.2153" lon="4.84897">
        <ele>211</ele>
        <time>2017-05-04T14:27:30.000Z</time>
      </trkpt>
      <trkpt lat="46.21531" lon="4.84897">
        <ele>211</ele>
        <time>2017-05-04T14:27:31.000Z</time>
      </trkpt>
      <trkpt lat="46.21532" lon="4.84897">
        <ele>211</ele>
        <time>2017-05-04T14:27:32.000Z</time>
      </trkpt>
      <trkpt lat="46.21534" lon="4.84897">
        <ele>211</ele>
        <time>2017-05-04T14:27:33.000Z</time>
      </trkpt>
      <trkpt lat="46.21535" lon="4.84897">
        <ele>211</ele>
        <time>2017-05-04T14:27:34.000Z</time>
      </trkpt>
      <trkpt lat="46.21536" lon="4.84897">
        <ele>211</ele>
        <time>2017-05-04T14:27:35.000Z</time>
      </trkpt>
      <trkpt lat="46.21537" lon="4.84897">
        <ele>212</ele>
        <time>2017-05-04T14:27:36.000Z</time>
      </trkpt>
      <trkpt lat="46.21538" lon="4.84897">
        <ele>212</ele>
        <time>2017-05-04T14:27:37.000Z</time>
      </trkpt>
      <trkpt lat="46.21539" lon="4.84897">
        <ele>212</ele>
        <time>2017-05-04T14:27:38.000Z</time>
      </trkpt>
      <trkpt lat="46.21541" lon="4.84897">
        <ele>212</ele>
        <time>2017-05-04T14:27:39.000Z</time>
      </trkpt>
      <trkpt lat="46.21542" lon="4.84898">
        <ele>212</ele>
        <time>2017-05-04T14:27:40.000Z</time>
      </trkpt>
      <trkpt lat="46.21543" lon="4.84898">
        <ele>212</ele>
        <time>2017-05-04T14:27:41.000Z</time>
      </trkpt>
      <trkpt lat="46.21544" lon="4.84898">
        <ele>212</ele>
        <time>2017-05-04T14:27:42.000Z</time>
      </trkpt>
      <trkpt lat="46.21545" lon="4.84898">
        <ele>212</ele>
        <time>2017-05-04T14:27:43.000Z</time>
      </trkpt>
      <trkpt lat="46.21546" lon="4.84898">
        <ele>212</ele>
        <time>2017-05-04T14:27:44.000Z</time>
      </trkpt>
      <trkpt lat="46.21547" lon="4.84898">
        <ele>212</ele>
        <time>2017-05-04T14:27:45.000Z</time>
      </trkpt>
      <trkpt lat="46.21548" lon="4.84898">
        <ele>212</ele>
        <time>2017-05-04T14:27:46.000Z</time>
      </trkpt>
      <trkpt lat="46.2155" lon="4.84898">
        <ele>212</ele>
        <time>2017-05-04T14:27:47.000Z</time>
      </trkpt>
      <trkpt lat="46.21551" lon="4.84898">
        <ele>212</ele>
        <time>2017-05-04T14:27:48.000Z</time>
      </trkpt>
      <trkpt lat="46.21552" lon="4.84898">
        <ele>212</ele>
        <time>2017-05-04T14:27:49.000Z</time>
      </trkpt>
      <trkpt lat="46.21553" lon="4.84898">
        <ele>212</ele>
        <time>2017-05-04T14:27:50.000Z</time>
      </trkpt>
      <trkpt lat="46.21554" lon="4.84898">
        <ele>212</ele>
        <time>2017-05-04T14:27:51.000Z</time>
      </trkpt>
      <trkpt lat="46.21556" lon="4.84898">
        <ele>212</ele>
        <time>2017-05-04T14:27:52.000Z</time>
      </trkpt>
      <trkpt lat="46.21557" lon="4.84898">
        <ele>212</ele>
        <time>2017-05-04T14:27:53.000Z</time>
      </trkpt>
      <trkpt lat="46.21558" lon="4.84898">
        <ele>212</ele>
        <time>2017-05-04T14:27:54.000Z</time>
      </trkpt>
      <trkpt lat="46.21559" lon="4.84898">
        <ele>212</ele>
        <time>2017-05-04T14:27:55.000Z</time>
      </trkpt>
      <trkpt lat="46.2156" lon="4.84898">
        <ele>212</ele>
        <time>2017-05-04T14:27:56.000Z</time>
      </trkpt>
      <trkpt lat="46.21561" lon="4.84898">
        <ele>212</ele>
        <time>2017-05-04T14:27:57.000Z</time>
      </trkpt>
      <trkpt lat="46.21563" lon="4.84898">
        <ele>212</ele>
        <time>2017-05-04T14:27:58.000Z</time>
      </trkpt>
      <trkpt lat="46.21564" lon="4.84898">
        <ele>212</ele>
        <time>2017-05-04T14:27:59.000Z</time>
      </trkpt>
      <trkpt lat="46.21565" lon="4.84898">
        <ele>212</ele>
        <time>2017-05-04T14:28:00.000Z</time>
      </trkpt>
      <trkpt lat="46.21566" lon="4.84898">
        <ele>212</ele>
        <time>2017-05-04T14:28:01.000Z</time>
      </trkpt>
      <trkpt lat="46.21567" lon="4.84898">
        <ele>212</ele>
        <time>2017-05-04T14:28:02.000Z</time>
      </trkpt>
      <trkpt lat="46.21569" lon="4.84898">
        <ele>212</ele>
        <time>2017-05-04T14:28:03.000Z</time>
      </trkpt>
      <trkpt lat="46.2157" lon="4.84898">
        <ele>212</ele>
        <time>2017-05-04T14:28:04.000Z</time>
      </trkpt>
      <trkpt lat="46.21571" lon="4.84898">
        <ele>212</ele>
        <time>2017-05-04T14:28:05.000Z</time>
      </trkpt>
      <trkpt lat="46.21572" lon="4.84898">
        <ele>212</ele>
        <time>2017-05-04T14:28:06.000Z</time>
      </trkpt>
      <trkpt lat="46.21574" lon="4.84898">
        <ele>212</ele>
        <time>2017-05-04T14:28:07.000Z</time>
      </trkpt>
      <trkpt lat="46.21575" lon="4.84898">
        <ele>211</ele>
        <time>2017-05-04T14:28:08.000Z</time>
      </trkpt>
      <trkpt lat="46.21576" lon="4.84898">
        <ele>211</ele>
        <time>2017-05-04T14:28:09.000Z</time>
      </trkpt>
      <trkpt lat="46.21577" lon="4.84898">
        <ele>212</ele>
        <time>2017-05-04T14:28:10.000Z</time>
      </trkpt>
      <trkpt lat="46.21578" lon="4.84898">
        <ele>211</ele>
        <time>2017-05-04T14:28:11.000Z</time>
      </trkpt>
      <trkpt lat="46.21579" lon="4.84898">
        <ele>212</ele>
        <time>2017-05-04T14:28:12.000Z</time>
      </trkpt>
      <trkpt lat="46.21581" lon="4.84898">
        <ele>212</ele>
        <time>2017-05-04T14:28:13.000Z</time>
      </trkpt>
      <trkpt lat="46.21582" lon="4.84898">
        <ele>212</ele>
        <time>2017-05-04T14:28:14.000Z</time>
      </trkpt>
      <trkpt lat="46.21582" lon="4.84898">
        <ele>212</ele>
        <time>2017-05-04T14:28:15.000Z</time>
      </trkpt>
      <trkpt lat="46.21583" lon="4.84898">
        <ele>212</ele>
        <time>2017-05-04T14:28:16.000Z</time>
      </trkpt>
      <trkpt lat="46.21585" lon="4.84898">
        <ele>212</ele>
        <time>2017-05-04T14:28:17.000Z</time>
      </trkpt>
      <trkpt lat="46.21587" lon="4.84898">
        <ele>211</ele>
        <time>2017-05-04T14:28:18.000Z</time>
      </trkpt>
      <trkpt lat="46.21588" lon="4.84898">
        <ele>211</ele>
        <time>2017-05-04T14:28:19.000Z</time>
      </trkpt>
      <trkpt lat="46.21589" lon="4.84898">
        <ele>211</ele>
        <time>2017-05-04T14:28:20.000Z</time>
      </trkpt>
      <trkpt lat="46.2159" lon="4.84898">
        <ele>211</ele>
        <time>2017-05-04T14:28:21.000Z</time>
      </trkpt>
      <trkpt lat="46.21591" lon="4.84898">
        <ele>211</ele>
        <time>2017-05-04T14:28:22.000Z</time>
      </trkpt>
      <trkpt lat="46.21592" lon="4.84898">
        <ele>211</ele>
        <time>2017-05-04T14:28:23.000Z</time>
      </trkpt>
      <trkpt lat="46.21594" lon="4.84898">
        <ele>211</ele>
        <time>2017-05-04T14:28:24.000Z</time>
      </trkpt>
      <trkpt lat="46.21595" lon="4.84898">
        <ele>211</ele>
        <time>2017-05-04T14:28:25.000Z</time>
      </trkpt>
      <trkpt lat="46.21596" lon="4.84898">
        <ele>211</ele>
        <time>2017-05-04T14:28:26.000Z</time>
      </trkpt>
      <trkpt lat="46.21597" lon="4.84897">
        <ele>211</ele>
        <time>2017-05-04T14:28:27.000Z</time>
      </trkpt>
      <trkpt lat="46.21598" lon="4.84897">
        <ele>211</ele>
        <time>2017-05-04T14:28:28.000Z</time>
      </trkpt>
      <trkpt lat="46.21599" lon="4.84897">
        <ele>211</ele>
        <time>2017-05-04T14:28:29.000Z</time>
      </trkpt>
      <trkpt lat="46.216" lon="4.84897">
        <ele>211</ele>
        <time>2017-05-04T14:28:30.000Z</time>
      </trkpt>
      <trkpt lat="46.21601" lon="4.84897">
        <ele>211</ele>
        <time>2017-05-04T14:28:31.000Z</time>
      </trkpt>
      <trkpt lat="46.21603" lon="4.84897">
        <ele>211</ele>
        <time>2017-05-04T14:28:32.000Z</time>
      </trkpt>
      <trkpt lat="46.21604" lon="4.84897">
        <ele>211</ele>
        <time>2017-05-04T14:28:33.000Z</time>
      </trkpt>
      <trkpt lat="46.21605" lon="4.84897">
        <ele>211</ele>
        <time>2017-05-04T14:28:34.000Z</time>
      </trkpt>
      <trkpt lat="46.21606" lon="4.84898">
        <ele>212</ele>
        <time>2017-05-04T14:28:35.000Z</time>
      </trkpt>
      <trkpt lat="46.21607" lon="4.84898">
        <ele>211</ele>
        <time>2017-05-04T14:28:36.000Z</time>
      </trkpt>
      <trkpt lat="46.21609" lon="4.84898">
        <ele>212</ele>
        <time>2017-05-04T14:28:37.000Z</time>
      </trkpt>
      <trkpt lat="46.2161" lon="4.84898">
        <ele>212</ele>
        <time>2017-05-04T14:28:38.000Z</time>
      </trkpt>
      <trkpt lat="46.21611" lon="4.84898">
        <ele>212</ele>
        <time>2017-05-04T14:28:39.000Z</time>
      </trkpt>
      <trkpt lat="46.21612" lon="4.84898">
        <ele>212</ele>
        <time>2017-05-04T14:28:40.000Z</time>
      </trkpt>
      <trkpt lat="46.21613" lon="4.84898">
        <ele>212</ele>
        <time>2017-05-04T14:28:41.000Z</time>
      </trkpt>
      <trkpt lat="46.21614" lon="4.84898">
        <ele>212</ele>
        <time>2017-05-04T14:28:42.000Z</time>
      </trkpt>
      <trkpt lat="46.21615" lon="4.84898">
        <ele>212</ele>
        <time>2017-05-04T14:28:43.000Z</time>
      </trkpt>
      <trkpt lat="46.21616" lon="4.84898">
        <ele>212</ele>
        <time>2017-05-04T14:28:44.000Z</time>
      </trkpt>
      <trkpt lat="46.21617" lon="4.84898">
        <ele>212</ele>
        <time>2017-05-04T14:28:45.000Z</time>
      </trkpt>
      <trkpt lat="46.21618" lon="4.84898">
        <ele>212</ele>
        <time>2017-05-04T14:28:46.000Z</time>
      </trkpt>
      <trkpt lat="46.21619" lon="4.84898">
        <ele>212</ele>
        <time>2017-05-04T14:28:47.000Z</time>
      </trkpt>
      <trkpt lat="46.2162" lon="4.84898">
        <ele>212</ele>
        <time>2017-05-04T14:28:48.000Z</time>
      </trkpt>
      <trkpt lat="46.21621" lon="4.84898">
        <ele>212</ele>
        <time>2017-05-04T14:28:49.000Z</time>
      </trkpt>
      <trkpt lat="46.21623" lon="4.84898">
        <ele>212</ele>
        <time>2017-05-04T14:28:50.000Z</time>
      </trkpt>
      <trkpt lat="46.21624" lon="4.84898">
        <ele>212</ele>
        <time>2017-05-04T14:28:51.000Z</time>
      </trkpt>
      <trkpt lat="46.21625" lon="4.84898">
        <ele>212</ele>
        <time>2017-05-04T14:28:52.000Z</time>
      </trkpt>
      <trkpt lat="46.21626" lon="4.84898">
        <ele>212</ele>
        <time>2017-05-04T14:28:53.000Z</time>
      </trkpt>
      <trkpt lat="46.21627" lon="4.84898">
        <ele>212</ele>
        <time>2017-05-04T14:28:54.000Z</time>
      </trkpt>
      <trkpt lat="46.21628" lon="4.84898">
        <ele>211</ele>
        <time>2017-05-04T14:28:55.000Z</time>
      </trkpt>
      <trkpt lat="46.21629" lon="4.84899">
        <ele>211</ele>
        <time>2017-05-04T14:28:56.000Z</time>
      </trkpt>
      <trkpt lat="46.21631" lon="4.84899">
        <ele>211</ele>
        <time>2017-05-04T14:28:57.000Z</time>
      </trkpt>
      <trkpt lat="46.21632" lon="4.84899">
        <ele>212</ele>
        <time>2017-05-04T14:28:58.000Z</time>
      </trkpt>
      <trkpt lat="46.21633" lon="4.84899">
        <ele>212</ele>
        <time>2017-05-04T14:28:59.000Z</time>
      </trkpt>
      <trkpt lat="46.21634" lon="4.84899">
        <ele>211</ele>
        <time>2017-05-04T14:29:00.000Z</time>
      </trkpt>
      <trkpt lat="46.21636" lon="4.84899">
        <ele>212</ele>
        <time>2017-05-04T14:29:01.000Z</time>
      </trkpt>
      <trkpt lat="46.21637" lon="4.84899">
        <ele>211</ele>
        <time>2017-05-04T14:29:02.000Z</time>
      </trkpt>
      <trkpt lat="46.21638" lon="4.84899">
        <ele>211</ele>
        <time>2017-05-04T14:29:03.000Z</time>
      </trkpt>
      <trkpt lat="46.21639" lon="4.84898">
        <ele>211</ele>
        <time>2017-05-04T14:29:04.000Z</time>
      </trkpt>
      <trkpt lat="46.21641" lon="4.84898">
        <ele>211</ele>
        <time>2017-05-04T14:29:05.000Z</time>
      </trkpt>
      <trkpt lat="46.21642" lon="4.84898">
        <ele>211</ele>
        <time>2017-05-04T14:29:06.000Z</time>
      </trkpt>
      <trkpt lat="46.21643" lon="4.84897">
        <ele>211</ele>
        <time>2017-05-04T14:29:07.000Z</time>
      </trkpt>
      <trkpt lat="46.21645" lon="4.84897">
        <ele>211</ele>
        <time>2017-05-04T14:29:08.000Z</time>
      </trkpt>
      <trkpt lat="46.21646" lon="4.84896">
        <ele>211</ele>
        <time>2017-05-04T14:29:09.000Z</time>
      </trkpt>
      <trkpt lat="46.21647" lon="4.84896">
        <ele>211</ele>
        <time>2017-05-04T14:29:10.000Z</time>
      </trkpt>
      <trkpt lat="46.21648" lon="4.84895">
        <ele>211</ele>
        <time>2017-05-04T14:29:11.000Z</time>
      </trkpt>
      <trkpt lat="46.21649" lon="4.84894">
        <ele>211</ele>
        <time>2017-05-04T14:29:12.000Z</time>
      </trkpt>
      <trkpt lat="46.2165" lon="4.84893">
        <ele>211</ele>
        <time>2017-05-04T14:29:13.000Z</time>
      </trkpt>
      <trkpt lat="46.21651" lon="4.84892">
        <ele>212</ele>
        <time>2017-05-04T14:29:14.000Z</time>
      </trkpt>
      <trkpt lat="46.21652" lon="4.84891">
        <ele>212</ele>
        <time>2017-05-04T14:29:15.000Z</time>
      </trkpt>
      <trkpt lat="46.21653" lon="4.8489">
        <ele>212</ele>
        <time>2017-05-04T14:29:16.000Z</time>
      </trkpt>
      <trkpt lat="46.21653" lon="4.84889">
        <ele>212</ele>
        <time>2017-05-04T14:29:17.000Z</time>
      </trkpt>
      <trkpt lat="46.21654" lon="4.84888">
        <ele>211</ele>
        <time>2017-05-04T14:29:18.000Z</time>
      </trkpt>
      <trkpt lat="46.21655" lon="4.84888">
        <ele>211</ele>
        <time>2017-05-04T14:29:19.000Z</time>
      </trkpt>
      <trkpt lat="46.21655" lon="4.84887">
        <ele>211</ele>
        <time>2017-05-04T14:29:20.000Z</time>
      </trkpt>
      <trkpt lat="46.21655" lon="4.84887">
        <ele>211</ele>
        <time>2017-05-04T14:29:21.000Z</time>
      </trkpt>
      <trkpt lat="46.21655" lon="4.84887">
        <ele>211</ele>
        <time>2017-05-04T14:29:22.000Z</time>
      </trkpt>
      <trkpt lat="46.21656" lon="4.84886">
        <ele>212</ele>
        <time>2017-05-04T14:29:23.000Z</time>
      </trkpt>
      <trkpt lat="46.21656" lon="4.84886">
        <ele>212</ele>
        <time>2017-05-04T14:29:24.000Z</time>
      </trkpt>
      <trkpt lat="46.21656" lon="4.84886">
        <ele>212</ele>
        <time>2017-05-04T14:29:25.000Z</time>
      </trkpt>
      <trkpt lat="46.21656" lon="4.84886">
        <ele>212</ele>
        <time>2017-05-04T14:29:26.000Z</time>
      </trkpt>
      <trkpt lat="46.21656" lon="4.84886">
        <ele>212</ele>
        <time>2017-05-04T14:29:27.000Z</time>
      </trkpt>
      <trkpt lat="46.21656" lon="4.84886">
        <ele>212</ele>
        <time>2017-05-04T14:29:28.000Z</time>
      </trkpt>
      <trkpt lat="46.21655" lon="4.84886">
        <ele>212</ele>
        <time>2017-05-04T14:29:29.000Z</time>
      </trkpt>
      <trkpt lat="46.21655" lon="4.84886">
        <ele>212</ele>
        <time>2017-05-04T14:29:30.000Z</time>
      </trkpt>
      <trkpt lat="46.21655" lon="4.84886">
        <ele>212</ele>
        <time>2017-05-04T14:29:31.000Z</time>
      </trkpt>
      <trkpt lat="46.21655" lon="4.84886">
        <ele>212</ele>
        <time>2017-05-04T14:29:32.000Z</time>
      </trkpt>
      <trkpt lat="46.21655" lon="4.84886">
        <ele>212</ele>
        <time>2017-05-04T14:29:33.000Z</time>
      </trkpt>
      <trkpt lat="46.21655" lon="4.84886">
        <ele>212</ele>
        <time>2017-05-04T14:29:34.000Z</time>
      </trkpt>
      <trkpt lat="46.21655" lon="4.84886">
        <ele>212</ele>
        <time>2017-05-04T14:29:35.000Z</time>
      </trkpt>
      <trkpt lat="46.21655" lon="4.84886">
        <ele>212</ele>
        <time>2017-05-04T14:29:36.000Z</time>
      </trkpt>
      <trkpt lat="46.21656" lon="4.84886">
        <ele>212</ele>
        <time>2017-05-04T14:29:37.000Z</time>
      </trkpt>
      <trkpt lat="46.21656" lon="4.84885">
        <ele>212</ele>
        <time>2017-05-04T14:29:38.000Z</time>
      </trkpt>
      <trkpt lat="46.21656" lon="4.84885">
        <ele>212</ele>
        <time>2017-05-04T14:29:39.000Z</time>
      </trkpt>
      <trkpt lat="46.21656" lon="4.84886">
        <ele>212</ele>
        <time>2017-05-04T14:29:40.000Z</time>
      </trkpt>
      <trkpt lat="46.21656" lon="4.84886">
        <ele>212</ele>
        <time>2017-05-04T14:29:41.000Z</time>
      </trkpt>
      <trkpt lat="46.21656" lon="4.84885">
        <ele>212</ele>
        <time>2017-05-04T14:29:42.000Z</time>
      </trkpt>
      <trkpt lat="46.21656" lon="4.84885">
        <ele>212</ele>
        <time>2017-05-04T14:29:43.000Z</time>
      </trkpt>
      <trkpt lat="46.21657" lon="4.84884">
        <ele>212</ele>
        <time>2017-05-04T14:29:44.000Z</time>
      </trkpt>
      <trkpt lat="46.21657" lon="4.84884">
        <ele>212</ele>
        <time>2017-05-04T14:29:45.000Z</time>
      </trkpt>
      <trkpt lat="46.21657" lon="4.84884">
        <ele>212</ele>
        <time>2017-05-04T14:29:46.000Z</time>
      </trkpt>
      <trkpt lat="46.21657" lon="4.84884">
        <ele>212</ele>
        <time>2017-05-04T14:29:47.000Z</time>
      </trkpt>
      <trkpt lat="46.21657" lon="4.84884">
        <ele>212</ele>
        <time>2017-05-04T14:29:48.000Z</time>
      </trkpt>
      <trkpt lat="46.21657" lon="4.84884">
        <ele>212</ele>
        <time>2017-05-04T14:29:49.000Z</time>
      </trkpt>
      <trkpt lat="46.21657" lon="4.84884">
        <ele>212</ele>
        <time>2017-05-04T14:29:50.000Z</time>
      </trkpt>
      <trkpt lat="46.21657" lon="4.84884">
        <ele>212</ele>
        <time>2017-05-04T14:29:51.000Z</time>
      </trkpt>
      <trkpt lat="46.21657" lon="4.84884">
        <ele>212</ele>
        <time>2017-05-04T14:29:52.000Z</time>
      </trkpt>
      <trkpt lat="46.21656" lon="4.84884">
        <ele>212</ele>
        <time>2017-05-04T14:29:53.000Z</time>
      </trkpt>
      <trkpt lat="46.21656" lon="4.84884">
        <ele>212</ele>
        <time>2017-05-04T14:29:54.000Z</time>
      </trkpt>
      <trkpt lat="46.21657" lon="4.84884">
        <ele>212</ele>
        <time>2017-05-04T14:29:55.000Z</time>
      </trkpt>
      <trkpt lat="46.21657" lon="4.84884">
        <ele>212</ele>
        <time>2017-05-04T14:29:56.000Z</time>
      </trkpt>
      <trkpt lat="46.21657" lon="4.84884">
        <ele>212</ele>
        <time>2017-05-04T14:29:57.000Z</time>
      </trkpt>
      <trkpt lat="46.21657" lon="4.84884">
        <ele>212</ele>
        <time>2017-05-04T14:29:58.000Z</time>
      </trkpt>
      <trkpt lat="46.21656" lon="4.84884">
        <ele>212</ele>
        <time>2017-05-04T14:29:59.000Z</time>
      </trkpt>
      <trkpt lat="46.21656" lon="4.84885">
        <ele>212</ele>
        <time>2017-05-04T14:30:00.000Z</time>
      </trkpt>
      <trkpt lat="46.21657" lon="4.84885">
        <ele>212</ele>
        <time>2017-05-04T14:30:01.000Z</time>
      </trkpt>
      <trkpt lat="46.21657" lon="4.84885">
        <ele>212</ele>
        <time>2017-05-04T14:30:02.000Z</time>
      </trkpt>
      <trkpt lat="46.21657" lon="4.84885">
        <ele>212</ele>
        <time>2017-05-04T14:30:03.000Z</time>
      </trkpt>
      <trkpt lat="46.21657" lon="4.84885">
        <ele>212</ele>
        <time>2017-05-04T14:30:04.000Z</time>
      </trkpt>
      <trkpt lat="46.21657" lon="4.84885">
        <ele>212</ele>
        <time>2017-05-04T14:30:05.000Z</time>
      </trkpt>
      <trkpt lat="46.21657" lon="4.84885">
        <ele>212</ele>
        <time>2017-05-04T14:30:06.000Z</time>
      </trkpt>
      <trkpt lat="46.21657" lon="4.84885">
        <ele>212</ele>
        <time>2017-05-04T14:30:07.000Z</time>
      </trkpt>
      <trkpt lat="46.21657" lon="4.84885">
        <ele>212</ele>
        <time>2017-05-04T14:30:08.000Z</time>
      </trkpt>
      <trkpt lat="46.21657" lon="4.84885">
        <ele>211</ele>
        <time>2017-05-04T14:30:09.000Z</time>
      </trkpt>
      <trkpt lat="46.21658" lon="4.84884">
        <ele>211</ele>
        <time>2017-05-04T14:30:10.000Z</time>
      </trkpt>
      <trkpt lat="46.21658" lon="4.84884">
        <ele>211</ele>
        <time>2017-05-04T14:30:11.000Z</time>
      </trkpt>
      <trkpt lat="46.21659" lon="4.84884">
        <ele>211</ele>
        <time>2017-05-04T14:30:12.000Z</time>
      </trkpt>
      <trkpt lat="46.2166" lon="4.84884">
        <ele>210</ele>
        <time>2017-05-04T14:30:13.000Z</time>
      </trkpt>
      <trkpt lat="46.21661" lon="4.84884">
        <ele>210</ele>
        <time>2017-05-04T14:30:14.000Z</time>
      </trkpt>
      <trkpt lat="46.21662" lon="4.84884">
        <ele>210</ele>
        <time>2017-05-04T14:30:15.000Z</time>
      </trkpt>
      <trkpt lat="46.21663" lon="4.84883">
        <ele>210</ele>
        <time>2017-05-04T14:30:16.000Z</time>
      </trkpt>
      <trkpt lat="46.21664" lon="4.84883">
        <ele>210</ele>
        <time>2017-05-04T14:30:17.000Z</time>
      </trkpt>
      <trkpt lat="46.21665" lon="4.84882">
        <ele>211</ele>
        <time>2017-05-04T14:30:18.000Z</time>
      </trkpt>
      <trkpt lat="46.21666" lon="4.84881">
        <ele>211</ele>
        <time>2017-05-04T14:30:19.000Z</time>
      </trkpt>
      <trkpt lat="46.21667" lon="4.84881">
        <ele>211</ele>
        <time>2017-05-04T14:30:20.000Z</time>
      </trkpt>
      <trkpt lat="46.21668" lon="4.8488">
        <ele>211</ele>
        <time>2017-05-04T14:30:21.000Z</time>
      </trkpt>
      <trkpt lat="46.21669" lon="4.8488">
        <ele>211</ele>
        <time>2017-05-04T14:30:22.000Z</time>
      </trkpt>
      <trkpt lat="46.2167" lon="4.84879">
        <ele>211</ele>
        <time>2017-05-04T14:30:23.000Z</time>
      </trkpt>
      <trkpt lat="46.21671" lon="4.84878">
        <ele>211</ele>
        <time>2017-05-04T14:30:24.000Z</time>
      </trkpt>
      <trkpt lat="46.21672" lon="4.84878">
        <ele>211</ele>
        <time>2017-05-04T14:30:25.000Z</time>
      </trkpt>
      <trkpt lat="46.21674" lon="4.84877">
        <ele>212</ele>
        <time>2017-05-04T14:30:26.000Z</time>
      </trkpt>
      <trkpt lat="46.21675" lon="4.84876">
        <ele>212</ele>
        <time>2017-05-04T14:30:27.000Z</time>
      </trkpt>
      <trkpt lat="46.21676" lon="4.84875">
        <ele>212</ele>
        <time>2017-05-04T14:30:28.000Z</time>
      </trkpt>
      <trkpt lat="46.21677" lon="4.84875">
        <ele>212</ele>
        <time>2017-05-04T14:30:29.000Z</time>
      </trkpt>
      <trkpt lat="46.21678" lon="4.84874">
        <ele>212</ele>
        <time>2017-05-04T14:30:30.000Z</time>
      </trkpt>
      <trkpt lat="46.21679" lon="4.84873">
        <ele>212</ele>
        <time>2017-05-04T14:30:31.000Z</time>
      </trkpt>
      <trkpt lat="46.2168" lon="4.84873">
        <ele>212</ele>
        <time>2017-05-04T14:30:32.000Z</time>
      </trkpt>
      <trkpt lat="46.21681" lon="4.84872">
        <ele>213</ele>
        <time>2017-05-04T14:30:33.000Z</time>
      </trkpt>
      <trkpt lat="46.21682" lon="4.84872">
        <ele>213</ele>
        <time>2017-05-04T14:30:34.000Z</time>
      </trkpt>
      <trkpt lat="46.21683" lon="4.84871">
        <ele>213</ele>
        <time>2017-05-04T14:30:35.000Z</time>
      </trkpt>
      <trkpt lat="46.21684" lon="4.8487">
        <ele>213</ele>
        <time>2017-05-04T14:30:36.000Z</time>
      </trkpt>
      <trkpt lat="46.21685" lon="4.8487">
        <ele>213</ele>
        <time>2017-05-04T14:30:37.000Z</time>
      </trkpt>
      <trkpt lat="46.21686" lon="4.84869">
        <ele>213</ele>
        <time>2017-05-04T14:30:38.000Z</time>
      </trkpt>
      <trkpt lat="46.21687" lon="4.84868">
        <ele>213</ele>
        <time>2017-05-04T14:30:39.000Z</time>
      </trkpt>
      <trkpt lat="46.21688" lon="4.84867">
        <ele>213</ele>
        <time>2017-05-04T14:30:40.000Z</time>
      </trkpt>
      <trkpt lat="46.21689" lon="4.84866">
        <ele>213</ele>
        <time>2017-05-04T14:30:41.000Z</time>
      </trkpt>
      <trkpt lat="46.2169" lon="4.84865">
        <ele>213</ele>
        <time>2017-05-04T14:30:42.000Z</time>
      </trkpt>
      <trkpt lat="46.21692" lon="4.84864">
        <ele>213</ele>
        <time>2017-05-04T14:30:43.000Z</time>
      </trkpt>
      <trkpt lat="46.21693" lon="4.84864">
        <ele>213</ele>
        <time>2017-05-04T14:30:44.000Z</time>
      </trkpt>
      <trkpt lat="46.21694" lon="4.84863">
        <ele>213</ele>
        <time>2017-05-04T14:30:45.000Z</time>
      </trkpt>
      <trkpt lat="46.21695" lon="4.84862">
        <ele>214</ele>
        <time>2017-05-04T14:30:46.000Z</time>
      </trkpt>
      <trkpt lat="46.21696" lon="4.84861">
        <ele>214</ele>
        <time>2017-05-04T14:30:47.000Z</time>
      </trkpt>
      <trkpt lat="46.21697" lon="4.8486">
        <ele>214</ele>
        <time>2017-05-04T14:30:48.000Z</time>
      </trkpt>
      <trkpt lat="46.21698" lon="4.8486">
        <ele>214</ele>
        <time>2017-05-04T14:30:49.000Z</time>
      </trkpt>
      <trkpt lat="46.21699" lon="4.84859">
        <ele>214</ele>
        <time>2017-05-04T14:30:50.000Z</time>
      </trkpt>
      <trkpt lat="46.217" lon="4.84858">
        <ele>214</ele>
        <time>2017-05-04T14:30:51.000Z</time>
      </trkpt>
      <trkpt lat="46.21701" lon="4.84857">
        <ele>214</ele>
        <time>2017-05-04T14:30:52.000Z</time>
      </trkpt>
      <trkpt lat="46.21703" lon="4.84857">
        <ele>214</ele>
        <time>2017-05-04T14:30:53.000Z</time>
      </trkpt>
      <trkpt lat="46.21704" lon="4.84856">
        <ele>214</ele>
        <time>2017-05-04T14:30:54.000Z</time>
      </trkpt>
      <trkpt lat="46.21705" lon="4.84855">
        <ele>214</ele>
        <time>2017-05-04T14:30:55.000Z</time>
      </trkpt>
      <trkpt lat="46.21706" lon="4.84854">
        <ele>214</ele>
        <time>2017-05-04T14:30:56.000Z</time>
      </trkpt>
      <trkpt lat="46.21707" lon="4.84854">
        <ele>214</ele>
        <time>2017-05-04T14:30:57.000Z</time>
      </trkpt>
      <trkpt lat="46.21708" lon="4.84853">
        <ele>214</ele>
        <time>2017-05-04T14:30:58.000Z</time>
      </trkpt>
      <trkpt lat="46.21709" lon="4.84852">
        <ele>214</ele>
        <time>2017-05-04T14:30:59.000Z</time>
      </trkpt>
      <trkpt lat="46.2171" lon="4.84852">
        <ele>214</ele>
        <time>2017-05-04T14:31:00.000Z</time>
      </trkpt>
      <trkpt lat="46.21711" lon="4.84851">
        <ele>214</ele>
        <time>2017-05-04T14:31:01.000Z</time>
      </trkpt>
      <trkpt lat="46.21712" lon="4.8485">
        <ele>214</ele>
        <time>2017-05-04T14:31:02.000Z</time>
      </trkpt>
      <trkpt lat="46.21713" lon="4.84849">
        <ele>213</ele>
        <time>2017-05-04T14:31:03.000Z</time>
      </trkpt>
      <trkpt lat="46.21714" lon="4.84849">
        <ele>213</ele>
        <time>2017-05-04T14:31:04.000Z</time>
      </trkpt>
      <trkpt lat="46.21715" lon="4.84848">
        <ele>213</ele>
        <time>2017-05-04T14:31:05.000Z</time>
      </trkpt>
      <trkpt lat="46.21716" lon="4.84847">
        <ele>214</ele>
        <time>2017-05-04T14:31:06.000Z</time>
      </trkpt>
      <trkpt lat="46.21717" lon="4.84846">
        <ele>214</ele>
        <time>2017-05-04T14:31:07.000Z</time>
      </trkpt>
      <trkpt lat="46.21717" lon="4.84845">
        <ele>213</ele>
        <time>2017-05-04T14:31:08.000Z</time>
      </trkpt>
      <trkpt lat="46.21718" lon="4.84844">
        <ele>214</ele>
        <time>2017-05-04T14:31:09.000Z</time>
      </trkpt>
      <trkpt lat="46.21719" lon="4.84844">
        <ele>213</ele>
        <time>2017-05-04T14:31:10.000Z</time>
      </trkpt>
      <trkpt lat="46.2172" lon="4.84843">
        <ele>213</ele>
        <time>2017-05-04T14:31:11.000Z</time>
      </trkpt>
      <trkpt lat="46.2172" lon="4.84843">
        <ele>213</ele>
        <time>2017-05-04T14:31:12.000Z</time>
      </trkpt>
      <trkpt lat="46.21721" lon="4.84843">
        <ele>213</ele>
        <time>2017-05-04T14:31:13.000Z</time>
      </trkpt>
      <trkpt lat="46.21722" lon="4.84842">
        <ele>213</ele>
        <time>2017-05-04T14:31:14.000Z</time>
      </trkpt>
      <trkpt lat="46.21723" lon="4.84842">
        <ele>213</ele>
        <time>2017-05-04T14:31:15.000Z</time>
      </trkpt>
      <trkpt lat="46.21724" lon="4.84841">
        <ele>213</ele>
        <time>2017-05-04T14:31:16.000Z</time>
      </trkpt>
      <trkpt lat="46.21726" lon="4.8484">
        <ele>213</ele>
        <time>2017-05-04T14:31:17.000Z</time>
      </trkpt>
      <trkpt lat="46.21727" lon="4.84839">
        <ele>213</ele>
        <time>2017-05-04T14:31:18.000Z</time>
      </trkpt>
      <trkpt lat="46.21727" lon="4.84839">
        <ele>213</ele>
        <time>2017-05-04T14:31:19.000Z</time>
      </trkpt>
      <trkpt lat="46.21728" lon="4.84838">
        <ele>213</ele>
        <time>2017-05-04T14:31:20.000Z</time>
      </trkpt>
      <trkpt lat="46.21729" lon="4.84837">
        <ele>213</ele>
        <time>2017-05-04T14:31:21.000Z</time>
      </trkpt>
      <trkpt lat="46.2173" lon="4.84837">
        <ele>213</ele>
        <time>2017-05-04T14:31:22.000Z</time>
      </trkpt>
      <trkpt lat="46.2173" lon="4.84836">
        <ele>213</ele>
        <time>2017-05-04T14:31:23.000Z</time>
      </trkpt>
      <trkpt lat="46.21731" lon="4.84835">
        <ele>213</ele>
        <time>2017-05-04T14:31:24.000Z</time>
      </trkpt>
      <trkpt lat="46.21732" lon="4.84834">
        <ele>213</ele>
        <time>2017-05-04T14:31:25.000Z</time>
      </trkpt>
      <trkpt lat="46.21733" lon="4.84834">
        <ele>213</ele>
        <time>2017-05-04T14:31:26.000Z</time>
      </trkpt>
      <trkpt lat="46.21734" lon="4.84833">
        <ele>213</ele>
        <time>2017-05-04T14:31:27.000Z</time>
      </trkpt>
      <trkpt lat="46.21735" lon="4.84832">
        <ele>213</ele>
        <time>2017-05-04T14:31:28.000Z</time>
      </trkpt>
      <trkpt lat="46.21736" lon="4.84832">
        <ele>213</ele>
        <time>2017-05-04T14:31:29.000Z</time>
      </trkpt>
      <trkpt lat="46.21737" lon="4.84831">
        <ele>214</ele>
        <time>2017-05-04T14:31:30.000Z</time>
      </trkpt>
      <trkpt lat="46.21738" lon="4.8483">
        <ele>214</ele>
        <time>2017-05-04T14:31:31.000Z</time>
      </trkpt>
      <trkpt lat="46.21739" lon="4.84829">
        <ele>214</ele>
        <time>2017-05-04T14:31:32.000Z</time>
      </trkpt>
      <trkpt lat="46.2174" lon="4.84829">
        <ele>214</ele>
        <time>2017-05-04T14:31:33.000Z</time>
      </trkpt>
      <trkpt lat="46.21741" lon="4.84828">
        <ele>214</ele>
        <time>2017-05-04T14:31:34.000Z</time>
      </trkpt>
      <trkpt lat="46.21742" lon="4.84827">
        <ele>214</ele>
        <time>2017-05-04T14:31:35.000Z</time>
      </trkpt>
      <trkpt lat="46.21743" lon="4.84826">
        <ele>214</ele>
        <time>2017-05-04T14:31:36.000Z</time>
      </trkpt>
      <trkpt lat="46.21745" lon="4.84825">
        <ele>214</ele>
        <time>2017-05-04T14:31:37.000Z</time>
      </trkpt>
      <trkpt lat="46.21746" lon="4.84825">
        <ele>214</ele>
        <time>2017-05-04T14:31:38.000Z</time>
      </trkpt>
      <trkpt lat="46.21747" lon="4.84824">
        <ele>214</ele>
        <time>2017-05-04T14:31:39.000Z</time>
      </trkpt>
      <trkpt lat="46.21748" lon="4.84823">
        <ele>214</ele>
        <time>2017-05-04T14:31:40.000Z</time>
      </trkpt>
      <trkpt lat="46.21749" lon="4.84822">
        <ele>214</ele>
        <time>2017-05-04T14:31:41.000Z</time>
      </trkpt>
      <trkpt lat="46.21749" lon="4.84822">
        <ele>214</ele>
        <time>2017-05-04T14:31:42.000Z</time>
      </trkpt>
      <trkpt lat="46.21751" lon="4.84821">
        <ele>213</ele>
        <time>2017-05-04T14:31:43.000Z</time>
      </trkpt>
      <trkpt lat="46.21752" lon="4.8482">
        <ele>214</ele>
        <time>2017-05-04T14:31:44.000Z</time>
      </trkpt>
      <trkpt lat="46.21753" lon="4.8482">
        <ele>213</ele>
        <time>2017-05-04T14:31:45.000Z</time>
      </trkpt>
      <trkpt lat="46.21754" lon="4.84819">
        <ele>213</ele>
        <time>2017-05-04T14:31:46.000Z</time>
      </trkpt>
      <trkpt lat="46.21755" lon="4.84818">
        <ele>213</ele>
        <time>2017-05-04T14:31:47.000Z</time>
      </trkpt>
      <trkpt lat="46.21756" lon="4.84817">
        <ele>213</ele>
        <time>2017-05-04T14:31:48.000Z</time>
      </trkpt>
      <trkpt lat="46.21757" lon="4.84817">
        <ele>213</ele>
        <time>2017-05-04T14:31:49.000Z</time>
      </trkpt>
      <trkpt lat="46.21758" lon="4.84816">
        <ele>213</ele>
        <time>2017-05-04T14:31:50.000Z</time>
      </trkpt>
      <trkpt lat="46.21759" lon="4.84815">
        <ele>214</ele>
        <time>2017-05-04T14:31:51.000Z</time>
      </trkpt>
      <trkpt lat="46.2176" lon="4.84814">
        <ele>214</ele>
        <time>2017-05-04T14:31:52.000Z</time>
      </trkpt>
      <trkpt lat="46.21761" lon="4.84813">
        <ele>214</ele>
        <time>2017-05-04T14:31:53.000Z</time>
      </trkpt>
      <trkpt lat="46.21762" lon="4.84812">
        <ele>214</ele>
        <time>2017-05-04T14:31:54.000Z</time>
      </trkpt>
      <trkpt lat="46.21763" lon="4.84812">
        <ele>214</ele>
        <time>2017-05-04T14:31:55.000Z</time>
      </trkpt>
      <trkpt lat="46.21763" lon="4.84811">
        <ele>214</ele>
        <time>2017-05-04T14:31:56.000Z</time>
      </trkpt>
      <trkpt lat="46.21764" lon="4.8481">
        <ele>214</ele>
        <time>2017-05-04T14:31:57.000Z</time>
      </trkpt>
      <trkpt lat="46.21765" lon="4.84809">
        <ele>214</ele>
        <time>2017-05-04T14:31:58.000Z</time>
      </trkpt>
      <trkpt lat="46.21766" lon="4.84808">
        <ele>214</ele>
        <time>2017-05-04T14:31:59.000Z</time>
      </trkpt>
      <trkpt lat="46.21767" lon="4.84808">
        <ele>214</ele>
        <time>2017-05-04T14:32:00.000Z</time>
      </trkpt>
      <trkpt lat="46.21767" lon="4.84807">
        <ele>214</ele>
        <time>2017-05-04T14:32:01.000Z</time>
      </trkpt>
      <trkpt lat="46.21768" lon="4.84806">
        <ele>214</ele>
        <time>2017-05-04T14:32:02.000Z</time>
      </trkpt>
      <trkpt lat="46.21769" lon="4.84805">
        <ele>214</ele>
        <time>2017-05-04T14:32:03.000Z</time>
      </trkpt>
      <trkpt lat="46.21769" lon="4.84804">
        <ele>214</ele>
        <time>2017-05-04T14:32:04.000Z</time>
      </trkpt>
      <trkpt lat="46.2177" lon="4.84804">
        <ele>214</ele>
        <time>2017-05-04T14:32:05.000Z</time>
      </trkpt>
      <trkpt lat="46.21771" lon="4.84803">
        <ele>213</ele>
        <time>2017-05-04T14:32:06.000Z</time>
      </trkpt>
      <trkpt lat="46.21772" lon="4.84802">
        <ele>213</ele>
        <time>2017-05-04T14:32:07.000Z</time>
      </trkpt>
      <trkpt lat="46.21773" lon="4.84801">
        <ele>214</ele>
        <time>2017-05-04T14:32:08.000Z</time>
      </trkpt>
      <trkpt lat="46.21774" lon="4.84801">
        <ele>214</ele>
        <time>2017-05-04T14:32:09.000Z</time>
      </trkpt>
      <trkpt lat="46.21775" lon="4.848">
        <ele>213</ele>
        <time>2017-05-04T14:32:10.000Z</time>
      </trkpt>
      <trkpt lat="46.21776" lon="4.84799">
        <ele>213</ele>
        <time>2017-05-04T14:32:11.000Z</time>
      </trkpt>
      <trkpt lat="46.21777" lon="4.84798">
        <ele>213</ele>
        <time>2017-05-04T14:32:12.000Z</time>
      </trkpt>
      <trkpt lat="46.21778" lon="4.84797">
        <ele>213</ele>
        <time>2017-05-04T14:32:13.000Z</time>
      </trkpt>
      <trkpt lat="46.21779" lon="4.84796">
        <ele>213</ele>
        <time>2017-05-04T14:32:14.000Z</time>
      </trkpt>
      <trkpt lat="46.2178" lon="4.84795">
        <ele>213</ele>
        <time>2017-05-04T14:32:15.000Z</time>
      </trkpt>
      <trkpt lat="46.21781" lon="4.84794">
        <ele>213</ele>
        <time>2017-05-04T14:32:16.000Z</time>
      </trkpt>
      <trkpt lat="46.21782" lon="4.84793">
        <ele>213</ele>
        <time>2017-05-04T14:32:17.000Z</time>
      </trkpt>
      <trkpt lat="46.21783" lon="4.84792">
        <ele>214</ele>
        <time>2017-05-04T14:32:18.000Z</time>
      </trkpt>
      <trkpt lat="46.21784" lon="4.84791">
        <ele>213</ele>
        <time>2017-05-04T14:32:19.000Z</time>
      </trkpt>
      <trkpt lat="46.21785" lon="4.8479">
        <ele>213</ele>
        <time>2017-05-04T14:32:20.000Z</time>
      </trkpt>
      <trkpt lat="46.21786" lon="4.8479">
        <ele>213</ele>
        <time>2017-05-04T14:32:21.000Z</time>
      </trkpt>
      <trkpt lat="46.21787" lon="4.84789">
        <ele>213</ele>
        <time>2017-05-04T14:32:22.000Z</time>
      </trkpt>
      <trkpt lat="46.21788" lon="4.84788">
        <ele>213</ele>
        <time>2017-05-04T14:32:23.000Z</time>
      </trkpt>
      <trkpt lat="46.21789" lon="4.84787">
        <ele>214</ele>
        <time>2017-05-04T14:32:24.000Z</time>
      </trkpt>
      <trkpt lat="46.2179" lon="4.84787">
        <ele>214</ele>
        <time>2017-05-04T14:32:25.000Z</time>
      </trkpt>
      <trkpt lat="46.21791" lon="4.84786">
        <ele>214</ele>
        <time>2017-05-04T14:32:26.000Z</time>
      </trkpt>
      <trkpt lat="46.21792" lon="4.84785">
        <ele>214</ele>
        <time>2017-05-04T14:32:27.000Z</time>
      </trkpt>
      <trkpt lat="46.21793" lon="4.84784">
        <ele>214</ele>
        <time>2017-05-04T14:32:28.000Z</time>
      </trkpt>
      <trkpt lat="46.21794" lon="4.84784">
        <ele>213</ele>
        <time>2017-05-04T14:32:29.000Z</time>
      </trkpt>
      <trkpt lat="46.21795" lon="4.84783">
        <ele>213</ele>
        <time>2017-05-04T14:32:30.000Z</time>
      </trkpt>
      <trkpt lat="46.21796" lon="4.84782">
        <ele>214</ele>
        <time>2017-05-04T14:32:31.000Z</time>
      </trkpt>
      <trkpt lat="46.21797" lon="4.84781">
        <ele>214</ele>
        <time>2017-05-04T14:32:32.000Z</time>
      </trkpt>
      <trkpt lat="46.21797" lon="4.84781">
        <ele>213</ele>
        <time>2017-05-04T14:32:33.000Z</time>
      </trkpt>
      <trkpt lat="46.21798" lon="4.8478">
        <ele>213</ele>
        <time>2017-05-04T14:32:34.000Z</time>
      </trkpt>
      <trkpt lat="46.21799" lon="4.84779">
        <ele>213</ele>
        <time>2017-05-04T14:32:35.000Z</time>
      </trkpt>
      <trkpt lat="46.218" lon="4.84779">
        <ele>213</ele>
        <time>2017-05-04T14:32:36.000Z</time>
      </trkpt>
      <trkpt lat="46.21801" lon="4.84778">
        <ele>213</ele>
        <time>2017-05-04T14:32:37.000Z</time>
      </trkpt>
      <trkpt lat="46.21802" lon="4.84777">
        <ele>213</ele>
        <time>2017-05-04T14:32:38.000Z</time>
      </trkpt>
      <trkpt lat="46.21803" lon="4.84777">
        <ele>213</ele>
        <time>2017-05-04T14:32:39.000Z</time>
      </trkpt>
      <trkpt lat="46.21804" lon="4.84776">
        <ele>213</ele>
        <time>2017-05-04T14:32:40.000Z</time>
      </trkpt>
      <trkpt lat="46.21805" lon="4.84775">
        <ele>213</ele>
        <time>2017-05-04T14:32:41.000Z</time>
      </trkpt>
      <trkpt lat="46.21806" lon="4.84775">
        <ele>212</ele>
        <time>2017-05-04T14:32:42.000Z</time>
      </trkpt>
      <trkpt lat="46.21807" lon="4.84774">
        <ele>212</ele>
        <time>2017-05-04T14:32:43.000Z</time>
      </trkpt>
      <trkpt lat="46.21808" lon="4.84773">
        <ele>212</ele>
        <time>2017-05-04T14:32:44.000Z</time>
      </trkpt>
      <trkpt lat="46.21809" lon="4.84773">
        <ele>212</ele>
        <time>2017-05-04T14:32:45.000Z</time>
      </trkpt>
      <trkpt lat="46.2181" lon="4.84772">
        <ele>212</ele>
        <time>2017-05-04T14:32:46.000Z</time>
      </trkpt>
      <trkpt lat="46.21811" lon="4.84771">
        <ele>212</ele>
        <time>2017-05-04T14:32:47.000Z</time>
      </trkpt>
      <trkpt lat="46.21812" lon="4.8477">
        <ele>212</ele>
        <time>2017-05-04T14:32:48.000Z</time>
      </trkpt>
      <trkpt lat="46.21813" lon="4.8477">
        <ele>212</ele>
        <time>2017-05-04T14:32:49.000Z</time>
      </trkpt>
      <trkpt lat="46.21814" lon="4.84769">
        <ele>212</ele>
        <time>2017-05-04T14:32:50.000Z</time>
      </trkpt>
      <trkpt lat="46.21815" lon="4.84768">
        <ele>212</ele>
        <time>2017-05-04T14:32:51.000Z</time>
      </trkpt>
      <trkpt lat="46.21816" lon="4.84767">
        <ele>213</ele>
        <time>2017-05-04T14:32:52.000Z</time>
      </trkpt>
      <trkpt lat="46.21817" lon="4.84767">
        <ele>213</ele>
        <time>2017-05-04T14:32:53.000Z</time>
      </trkpt>
      <trkpt lat="46.21818" lon="4.84766">
        <ele>212</ele>
        <time>2017-05-04T14:32:54.000Z</time>
      </trkpt>
      <trkpt lat="46.21819" lon="4.84766">
        <ele>212</ele>
        <time>2017-05-04T14:32:55.000Z</time>
      </trkpt>
      <trkpt lat="46.2182" lon="4.84765">
        <ele>212</ele>
        <time>2017-05-04T14:32:56.000Z</time>
      </trkpt>
      <trkpt lat="46.21821" lon="4.84764">
        <ele>212</ele>
        <time>2017-05-04T14:32:57.000Z</time>
      </trkpt>
      <trkpt lat="46.21822" lon="4.84764">
        <ele>212</ele>
        <time>2017-05-04T14:32:58.000Z</time>
      </trkpt>
      <trkpt lat="46.21823" lon="4.84763">
        <ele>212</ele>
        <time>2017-05-04T14:32:59.000Z</time>
      </trkpt>
      <trkpt lat="46.21823" lon="4.84763">
        <ele>211</ele>
        <time>2017-05-04T14:33:00.000Z</time>
      </trkpt>
      <trkpt lat="46.21824" lon="4.84762">
        <ele>211</ele>
        <time>2017-05-04T14:33:01.000Z</time>
      </trkpt>
      <trkpt lat="46.21825" lon="4.84761">
        <ele>212</ele>
        <time>2017-05-04T14:33:02.000Z</time>
      </trkpt>
      <trkpt lat="46.21826" lon="4.84761">
        <ele>212</ele>
        <time>2017-05-04T14:33:03.000Z</time>
      </trkpt>
      <trkpt lat="46.21827" lon="4.8476">
        <ele>211</ele>
        <time>2017-05-04T14:33:04.000Z</time>
      </trkpt>
      <trkpt lat="46.21828" lon="4.84759">
        <ele>211</ele>
        <time>2017-05-04T14:33:05.000Z</time>
      </trkpt>
      <trkpt lat="46.21829" lon="4.84759">
        <ele>211</ele>
        <time>2017-05-04T14:33:06.000Z</time>
      </trkpt>
      <trkpt lat="46.21829" lon="4.84758">
        <ele>211</ele>
        <time>2017-05-04T14:33:07.000Z</time>
      </trkpt>
      <trkpt lat="46.21831" lon="4.84757">
        <ele>211</ele>
        <time>2017-05-04T14:33:08.000Z</time>
      </trkpt>
      <trkpt lat="46.21832" lon="4.84757">
        <ele>211</ele>
        <time>2017-05-04T14:33:09.000Z</time>
      </trkpt>
      <trkpt lat="46.21833" lon="4.84756">
        <ele>211</ele>
        <time>2017-05-04T14:33:10.000Z</time>
      </trkpt>
      <trkpt lat="46.21833" lon="4.84756">
        <ele>211</ele>
        <time>2017-05-04T14:33:11.000Z</time>
      </trkpt>
      <trkpt lat="46.21834" lon="4.84755">
        <ele>211</ele>
        <time>2017-05-04T14:33:12.000Z</time>
      </trkpt>
      <trkpt lat="46.21836" lon="4.84754">
        <ele>211</ele>
        <time>2017-05-04T14:33:13.000Z</time>
      </trkpt>
      <trkpt lat="46.21837" lon="4.84754">
        <ele>211</ele>
        <time>2017-05-04T14:33:14.000Z</time>
      </trkpt>
      <trkpt lat="46.21837" lon="4.84753">
        <ele>211</ele>
        <time>2017-05-04T14:33:15.000Z</time>
      </trkpt>
      <trkpt lat="46.21838" lon="4.84753">
        <ele>211</ele>
        <time>2017-05-04T14:33:16.000Z</time>
      </trkpt>
      <trkpt lat="46.21839" lon="4.84752">
        <ele>211</ele>
        <time>2017-05-04T14:33:17.000Z</time>
      </trkpt>
      <trkpt lat="46.21841" lon="4.84752">
        <ele>211</ele>
        <time>2017-05-04T14:33:18.000Z</time>
      </trkpt>
      <trkpt lat="46.21842" lon="4.84751">
        <ele>211</ele>
        <time>2017-05-04T14:33:19.000Z</time>
      </trkpt>
      <trkpt lat="46.21843" lon="4.8475">
        <ele>211</ele>
        <time>2017-05-04T14:33:20.000Z</time>
      </trkpt>
      <trkpt lat="46.21843" lon="4.8475">
        <ele>211</ele>
        <time>2017-05-04T14:33:21.000Z</time>
      </trkpt>
      <trkpt lat="46.21844" lon="4.84749">
        <ele>211</ele>
        <time>2017-05-04T14:33:22.000Z</time>
      </trkpt>
      <trkpt lat="46.21845" lon="4.84749">
        <ele>211</ele>
        <time>2017-05-04T14:33:23.000Z</time>
      </trkpt>
      <trkpt lat="46.21846" lon="4.84748">
        <ele>211</ele>
        <time>2017-05-04T14:33:24.000Z</time>
      </trkpt>
      <trkpt lat="46.21847" lon="4.84747">
        <ele>211</ele>
        <time>2017-05-04T14:33:25.000Z</time>
      </trkpt>
      <trkpt lat="46.21848" lon="4.84746">
        <ele>211</ele>
        <time>2017-05-04T14:33:26.000Z</time>
      </trkpt>
      <trkpt lat="46.21849" lon="4.84746">
        <ele>211</ele>
        <time>2017-05-04T14:33:27.000Z</time>
      </trkpt>
      <trkpt lat="46.2185" lon="4.84745">
        <ele>211</ele>
        <time>2017-05-04T14:33:28.000Z</time>
      </trkpt>
      <trkpt lat="46.21851" lon="4.84744">
        <ele>211</ele>
        <time>2017-05-04T14:33:29.000Z</time>
      </trkpt>
      <trkpt lat="46.21852" lon="4.84743">
        <ele>211</ele>
        <time>2017-05-04T14:33:30.000Z</time>
      </trkpt>
      <trkpt lat="46.21852" lon="4.84743">
        <ele>211</ele>
        <time>2017-05-04T14:33:31.000Z</time>
      </trkpt>
      <trkpt lat="46.21853" lon="4.84742">
        <ele>211</ele>
        <time>2017-05-04T14:33:32.000Z</time>
      </trkpt>
      <trkpt lat="46.21854" lon="4.84741">
        <ele>211</ele>
        <time>2017-05-04T14:33:33.000Z</time>
      </trkpt>
      <trkpt lat="46.21855" lon="4.84741">
        <ele>212</ele>
        <time>2017-05-04T14:33:34.000Z</time>
      </trkpt>
      <trkpt lat="46.21855" lon="4.8474">
        <ele>212</ele>
        <time>2017-05-04T14:33:35.000Z</time>
      </trkpt>
      <trkpt lat="46.21856" lon="4.8474">
        <ele>212</ele>
        <time>2017-05-04T14:33:36.000Z</time>
      </trkpt>
      <trkpt lat="46.21857" lon="4.84739">
        <ele>212</ele>
        <time>2017-05-04T14:33:37.000Z</time>
      </trkpt>
      <trkpt lat="46.21858" lon="4.84738">
        <ele>212</ele>
        <time>2017-05-04T14:33:38.000Z</time>
      </trkpt>
      <trkpt lat="46.21858" lon="4.84738">
        <ele>212</ele>
        <time>2017-05-04T14:33:39.000Z</time>
      </trkpt>
      <trkpt lat="46.21859" lon="4.84737">
        <ele>212</ele>
        <time>2017-05-04T14:33:40.000Z</time>
      </trkpt>
      <trkpt lat="46.2186" lon="4.84736">
        <ele>212</ele>
        <time>2017-05-04T14:33:41.000Z</time>
      </trkpt>
      <trkpt lat="46.21861" lon="4.84735">
        <ele>212</ele>
        <time>2017-05-04T14:33:42.000Z</time>
      </trkpt>
      <trkpt lat="46.21862" lon="4.84734">
        <ele>212</ele>
        <time>2017-05-04T14:33:43.000Z</time>
      </trkpt>
      <trkpt lat="46.21863" lon="4.84734">
        <ele>212</ele>
        <time>2017-05-04T14:33:44.000Z</time>
      </trkpt>
      <trkpt lat="46.21864" lon="4.84733">
        <ele>212</ele>
        <time>2017-05-04T14:33:45.000Z</time>
      </trkpt>
      <trkpt lat="46.21865" lon="4.84732">
        <ele>213</ele>
        <time>2017-05-04T14:33:46.000Z</time>
      </trkpt>
      <trkpt lat="46.21866" lon="4.84731">
        <ele>213</ele>
        <time>2017-05-04T14:33:47.000Z</time>
      </trkpt>
      <trkpt lat="46.21867" lon="4.8473">
        <ele>213</ele>
        <time>2017-05-04T14:33:48.000Z</time>
      </trkpt>
      <trkpt lat="46.21867" lon="4.84729">
        <ele>212</ele>
        <time>2017-05-04T14:33:49.000Z</time>
      </trkpt>
      <trkpt lat="46.21868" lon="4.84728">
        <ele>212</ele>
        <time>2017-05-04T14:33:50.000Z</time>
      </trkpt>
      <trkpt lat="46.21869" lon="4.84727">
        <ele>212</ele>
        <time>2017-05-04T14:33:51.000Z</time>
      </trkpt>
      <trkpt lat="46.2187" lon="4.84726">
        <ele>212</ele>
        <time>2017-05-04T14:33:52.000Z</time>
      </trkpt>
      <trkpt lat="46.21871" lon="4.84725">
        <ele>212</ele>
        <time>2017-05-04T14:33:53.000Z</time>
      </trkpt>
      <trkpt lat="46.21872" lon="4.84724">
        <ele>212</ele>
        <time>2017-05-04T14:33:54.000Z</time>
      </trkpt>
      <trkpt lat="46.21873" lon="4.84723">
        <ele>212</ele>
        <time>2017-05-04T14:33:55.000Z</time>
      </trkpt>
      <trkpt lat="46.21874" lon="4.84722">
        <ele>212</ele>
        <time>2017-05-04T14:33:56.000Z</time>
      </trkpt>
      <trkpt lat="46.21875" lon="4.84721">
        <ele>212</ele>
        <time>2017-05-04T14:33:57.000Z</time>
      </trkpt>
      <trkpt lat="46.21876" lon="4.8472">
        <ele>212</ele>
        <time>2017-05-04T14:33:58.000Z</time>
      </trkpt>
      <trkpt lat="46.21877" lon="4.84719">
        <ele>212</ele>
        <time>2017-05-04T14:33:59.000Z</time>
      </trkpt>
      <trkpt lat="46.21878" lon="4.84719">
        <ele>212</ele>
        <time>2017-05-04T14:34:00.000Z</time>
      </trkpt>
      <trkpt lat="46.21879" lon="4.84718">
        <ele>212</ele>
        <time>2017-05-04T14:34:01.000Z</time>
      </trkpt>
      <trkpt lat="46.2188" lon="4.84717">
        <ele>212</ele>
        <time>2017-05-04T14:34:02.000Z</time>
      </trkpt>
      <trkpt lat="46.21881" lon="4.84716">
        <ele>212</ele>
        <time>2017-05-04T14:34:03.000Z</time>
      </trkpt>
      <trkpt lat="46.21882" lon="4.84715">
        <ele>212</ele>
        <time>2017-05-04T14:34:04.000Z</time>
      </trkpt>
      <trkpt lat="46.21883" lon="4.84714">
        <ele>212</ele>
        <time>2017-05-04T14:34:05.000Z</time>
      </trkpt>
      <trkpt lat="46.21884" lon="4.84713">
        <ele>211</ele>
        <time>2017-05-04T14:34:06.000Z</time>
      </trkpt>
      <trkpt lat="46.21885" lon="4.84712">
        <ele>212</ele>
        <time>2017-05-04T14:34:07.000Z</time>
      </trkpt>
      <trkpt lat="46.21886" lon="4.84712">
        <ele>212</ele>
        <time>2017-05-04T14:34:08.000Z</time>
      </trkpt>
      <trkpt lat="46.21887" lon="4.84711">
        <ele>211</ele>
        <time>2017-05-04T14:34:09.000Z</time>
      </trkpt>
      <trkpt lat="46.21888" lon="4.8471">
        <ele>212</ele>
        <time>2017-05-04T14:34:10.000Z</time>
      </trkpt>
      <trkpt lat="46.21889" lon="4.84709">
        <ele>212</ele>
        <time>2017-05-04T14:34:11.000Z</time>
      </trkpt>
      <trkpt lat="46.2189" lon="4.84708">
        <ele>212</ele>
        <time>2017-05-04T14:34:12.000Z</time>
      </trkpt>
      <trkpt lat="46.2189" lon="4.84707">
        <ele>212</ele>
        <time>2017-05-04T14:34:13.000Z</time>
      </trkpt>
      <trkpt lat="46.21891" lon="4.84706">
        <ele>212</ele>
        <time>2017-05-04T14:34:14.000Z</time>
      </trkpt>
      <trkpt lat="46.21892" lon="4.84705">
        <ele>212</ele>
        <time>2017-05-04T14:34:15.000Z</time>
      </trkpt>
      <trkpt lat="46.21893" lon="4.84704">
        <ele>212</ele>
        <time>2017-05-04T14:34:16.000Z</time>
      </trkpt>
      <trkpt lat="46.21894" lon="4.84703">
        <ele>212</ele>
        <time>2017-05-04T14:34:17.000Z</time>
      </trkpt>
      <trkpt lat="46.21895" lon="4.84702">
        <ele>212</ele>
        <time>2017-05-04T14:34:18.000Z</time>
      </trkpt>
      <trkpt lat="46.21896" lon="4.84701">
        <ele>213</ele>
        <time>2017-05-04T14:34:19.000Z</time>
      </trkpt>
      <trkpt lat="46.21896" lon="4.847">
        <ele>212</ele>
        <time>2017-05-04T14:34:20.000Z</time>
      </trkpt>
      <trkpt lat="46.21897" lon="4.84699">
        <ele>212</ele>
        <time>2017-05-04T14:34:21.000Z</time>
      </trkpt>
      <trkpt lat="46.21898" lon="4.84698">
        <ele>212</ele>
        <time>2017-05-04T14:34:22.000Z</time>
      </trkpt>
      <trkpt lat="46.21898" lon="4.84697">
        <ele>212</ele>
        <time>2017-05-04T14:34:23.000Z</time>
      </trkpt>
      <trkpt lat="46.21899" lon="4.84696">
        <ele>212</ele>
        <time>2017-05-04T14:34:24.000Z</time>
      </trkpt>
      <trkpt lat="46.21899" lon="4.84696">
        <ele>212</ele>
        <time>2017-05-04T14:34:25.000Z</time>
      </trkpt>
      <trkpt lat="46.219" lon="4.84695">
        <ele>211</ele>
        <time>2017-05-04T14:34:26.000Z</time>
      </trkpt>
      <trkpt lat="46.21901" lon="4.84695">
        <ele>212</ele>
        <time>2017-05-04T14:34:27.000Z</time>
      </trkpt>
      <trkpt lat="46.21901" lon="4.84694">
        <ele>211</ele>
        <time>2017-05-04T14:34:28.000Z</time>
      </trkpt>
      <trkpt lat="46.21902" lon="4.84693">
        <ele>211</ele>
        <time>2017-05-04T14:34:29.000Z</time>
      </trkpt>
      <trkpt lat="46.21903" lon="4.84692">
        <ele>211</ele>
        <time>2017-05-04T14:34:30.000Z</time>
      </trkpt>
      <trkpt lat="46.21904" lon="4.84691">
        <ele>211</ele>
        <time>2017-05-04T14:34:31.000Z</time>
      </trkpt>
      <trkpt lat="46.21905" lon="4.8469">
        <ele>211</ele>
        <time>2017-05-04T14:34:32.000Z</time>
      </trkpt>
      <trkpt lat="46.21906" lon="4.8469">
        <ele>211</ele>
        <time>2017-05-04T14:34:33.000Z</time>
      </trkpt>
      <trkpt lat="46.21906" lon="4.84689">
        <ele>211</ele>
        <time>2017-05-04T14:34:34.000Z</time>
      </trkpt>
      <trkpt lat="46.21907" lon="4.84688">
        <ele>210</ele>
        <time>2017-05-04T14:34:35.000Z</time>
      </trkpt>
      <trkpt lat="46.21908" lon="4.84688">
        <ele>210</ele>
        <time>2017-05-04T14:34:36.000Z</time>
      </trkpt>
      <trkpt lat="46.21909" lon="4.84687">
        <ele>211</ele>
        <time>2017-05-04T14:34:37.000Z</time>
      </trkpt>
      <trkpt lat="46.2191" lon="4.84687">
        <ele>210</ele>
        <time>2017-05-04T14:34:38.000Z</time>
      </trkpt>
      <trkpt lat="46.21911" lon="4.84686">
        <ele>211</ele>
        <time>2017-05-04T14:34:39.000Z</time>
      </trkpt>
      <trkpt lat="46.21912" lon="4.84686">
        <ele>210</ele>
        <time>2017-05-04T14:34:40.000Z</time>
      </trkpt>
      <trkpt lat="46.21913" lon="4.84685">
        <ele>211</ele>
        <time>2017-05-04T14:34:41.000Z</time>
      </trkpt>
      <trkpt lat="46.21914" lon="4.84685">
        <ele>211</ele>
        <time>2017-05-04T14:34:42.000Z</time>
      </trkpt>
      <trkpt lat="46.21915" lon="4.84684">
        <ele>211</ele>
        <time>2017-05-04T14:34:43.000Z</time>
      </trkpt>
      <trkpt lat="46.21916" lon="4.84683">
        <ele>211</ele>
        <time>2017-05-04T14:34:44.000Z</time>
      </trkpt>
      <trkpt lat="46.21917" lon="4.84683">
        <ele>211</ele>
        <time>2017-05-04T14:34:45.000Z</time>
      </trkpt>
      <trkpt lat="46.21917" lon="4.84682">
        <ele>211</ele>
        <time>2017-05-04T14:34:46.000Z</time>
      </trkpt>
      <trkpt lat="46.21918" lon="4.84681">
        <ele>211</ele>
        <time>2017-05-04T14:34:47.000Z</time>
      </trkpt>
      <trkpt lat="46.21919" lon="4.8468">
        <ele>212</ele>
        <time>2017-05-04T14:34:48.000Z</time>
      </trkpt>
      <trkpt lat="46.2192" lon="4.8468">
        <ele>212</ele>
        <time>2017-05-04T14:34:49.000Z</time>
      </trkpt>
      <trkpt lat="46.21921" lon="4.84679">
        <ele>213</ele>
        <time>2017-05-04T14:34:50.000Z</time>
      </trkpt>
      <trkpt lat="46.21922" lon="4.84678">
        <ele>214</ele>
        <time>2017-05-04T14:34:51.000Z</time>
      </trkpt>
      <trkpt lat="46.21923" lon="4.84677">
        <ele>214</ele>
        <time>2017-05-04T14:34:52.000Z</time>
      </trkpt>
      <trkpt lat="46.21924" lon="4.84676">
        <ele>213</ele>
        <time>2017-05-04T14:34:53.000Z</time>
      </trkpt>
      <trkpt lat="46.21925" lon="4.84676">
        <ele>214</ele>
        <time>2017-05-04T14:34:54.000Z</time>
      </trkpt>
      <trkpt lat="46.21926" lon="4.84675">
        <ele>214</ele>
        <time>2017-05-04T14:34:55.000Z</time>
      </trkpt>
      <trkpt lat="46.21927" lon="4.84674">
        <ele>214</ele>
        <time>2017-05-04T14:34:56.000Z</time>
      </trkpt>
      <trkpt lat="46.21928" lon="4.84673">
        <ele>213</ele>
        <time>2017-05-04T14:34:57.000Z</time>
      </trkpt>
      <trkpt lat="46.21929" lon="4.84672">
        <ele>213</ele>
        <time>2017-05-04T14:34:58.000Z</time>
      </trkpt>
      <trkpt lat="46.2193" lon="4.84672">
        <ele>213</ele>
        <time>2017-05-04T14:34:59.000Z</time>
      </trkpt>
      <trkpt lat="46.2193" lon="4.84671">
        <ele>213</ele>
        <time>2017-05-04T14:35:00.000Z</time>
      </trkpt>
      <trkpt lat="46.21931" lon="4.84671">
        <ele>213</ele>
        <time>2017-05-04T14:35:01.000Z</time>
      </trkpt>
      <trkpt lat="46.21932" lon="4.84672">
        <ele>213</ele>
        <time>2017-05-04T14:35:02.000Z</time>
      </trkpt>
      <trkpt lat="46.21933" lon="4.84672">
        <ele>213</ele>
        <time>2017-05-04T14:35:03.000Z</time>
      </trkpt>
      <trkpt lat="46.21933" lon="4.84672">
        <ele>213</ele>
        <time>2017-05-04T14:35:04.000Z</time>
      </trkpt>
      <trkpt lat="46.21933" lon="4.84673">
        <ele>214</ele>
        <time>2017-05-04T14:35:05.000Z</time>
      </trkpt>
      <trkpt lat="46.21934" lon="4.84673">
        <ele>213</ele>
        <time>2017-05-04T14:35:06.000Z</time>
      </trkpt>
      <trkpt lat="46.21934" lon="4.84674">
        <ele>213</ele>
        <time>2017-05-04T14:35:07.000Z</time>
      </trkpt>
      <trkpt lat="46.21934" lon="4.84675">
        <ele>213</ele>
        <time>2017-05-04T14:35:08.000Z</time>
      </trkpt>
      <trkpt lat="46.21935" lon="4.84675">
        <ele>213</ele>
        <time>2017-05-04T14:35:09.000Z</time>
      </trkpt>
      <trkpt lat="46.21935" lon="4.84676">
        <ele>213</ele>
        <time>2017-05-04T14:35:10.000Z</time>
      </trkpt>
      <trkpt lat="46.21936" lon="4.84676">
        <ele>213</ele>
        <time>2017-05-04T14:35:11.000Z</time>
      </trkpt>
    </trkseg>
  </trk>
</gpx>